<?xml version="1.0" encoding="UTF-8" standalone="no" ?>
<gpx xmlns="http://www.topografix.com/GPX/1/1" xmlns:xsi="http://www.w3.org/2001/XMLSchema-instance" xsi:schemaLocation="http://www.topografix.com/GPX/1/1 http://www.topografix.com/GPX/1/1/gpx.xsd" version="1.1" creator="VisuGPX - https://www.visugpx.com">
  <metadata>
    <name>E-NE-Canal du Midi J5 Domaine Ginestet La Peyrade</name>
    <desc><![CDATA[E-NE-Canal du Midi J5 Domaine Ginestet La Peyrade
Type sol mixte à majorité sentier]]></desc>
  </metadata>
  <trk>
    <name><![CDATA[2021-07-01 10:14 +02:00]]></name>
    <trkseg>
      <trkpt lat="43.32487" lon="3.16103">
        <ele>81</ele>
        <time>2021-07-01T08:14:58.000Z</time>
      </trkpt>
      <trkpt lat="43.32481" lon="3.16113">
        <ele>77</ele>
        <time>2021-07-01T08:18:32.000Z</time>
      </trkpt>
      <trkpt lat="43.32473" lon="3.16119">
        <ele>78</ele>
        <time>2021-07-01T08:19:34.000Z</time>
      </trkpt>
      <trkpt lat="43.32482" lon="3.16119">
        <ele>88</ele>
        <time>2021-07-01T08:27:03.000Z</time>
      </trkpt>
      <trkpt lat="43.32487" lon="3.16105">
        <ele>89</ele>
        <time>2021-07-01T08:32:11.000Z</time>
      </trkpt>
      <trkpt lat="43.3249" lon="3.16091">
        <ele>89</ele>
        <time>2021-07-01T08:32:16.000Z</time>
      </trkpt>
      <trkpt lat="43.32494" lon="3.16079">
        <ele>88</ele>
        <time>2021-07-01T08:32:20.000Z</time>
      </trkpt>
      <trkpt lat="43.32499" lon="3.16066">
        <ele>88</ele>
        <time>2021-07-01T08:32:25.000Z</time>
      </trkpt>
      <trkpt lat="43.32509" lon="3.16058">
        <ele>86</ele>
        <time>2021-07-01T08:32:31.000Z</time>
      </trkpt>
      <trkpt lat="43.3252" lon="3.16059">
        <ele>85</ele>
        <time>2021-07-01T08:32:35.000Z</time>
      </trkpt>
      <trkpt lat="43.32532" lon="3.16061">
        <ele>86</ele>
        <time>2021-07-01T08:32:39.000Z</time>
      </trkpt>
      <trkpt lat="43.32541" lon="3.16067">
        <ele>86</ele>
        <time>2021-07-01T08:32:43.000Z</time>
      </trkpt>
      <trkpt lat="43.3255" lon="3.16072">
        <ele>86</ele>
        <time>2021-07-01T08:32:46.000Z</time>
      </trkpt>
      <trkpt lat="43.3256" lon="3.16078">
        <ele>86</ele>
        <time>2021-07-01T08:32:50.000Z</time>
      </trkpt>
      <trkpt lat="43.32572" lon="3.16083">
        <ele>85</ele>
        <time>2021-07-01T08:32:55.000Z</time>
      </trkpt>
      <trkpt lat="43.32581" lon="3.1609">
        <ele>85</ele>
        <time>2021-07-01T08:32:59.000Z</time>
      </trkpt>
      <trkpt lat="43.32589" lon="3.16095">
        <ele>84</ele>
        <time>2021-07-01T08:33:03.000Z</time>
      </trkpt>
      <trkpt lat="43.32587" lon="3.1611">
        <ele>83</ele>
        <time>2021-07-01T08:33:15.000Z</time>
      </trkpt>
      <trkpt lat="43.32582" lon="3.1612">
        <ele>83</ele>
        <time>2021-07-01T08:33:20.000Z</time>
      </trkpt>
      <trkpt lat="43.32585" lon="3.16109">
        <ele>83</ele>
        <time>2021-07-01T08:33:31.000Z</time>
      </trkpt>
      <trkpt lat="43.32594" lon="3.16103">
        <ele>85</ele>
        <time>2021-07-01T08:33:45.000Z</time>
      </trkpt>
      <trkpt lat="43.32603" lon="3.16111">
        <ele>86</ele>
        <time>2021-07-01T08:33:51.000Z</time>
      </trkpt>
      <trkpt lat="43.32612" lon="3.16119">
        <ele>85</ele>
        <time>2021-07-01T08:33:56.000Z</time>
      </trkpt>
      <trkpt lat="43.32622" lon="3.16126">
        <ele>85</ele>
        <time>2021-07-01T08:34:01.000Z</time>
      </trkpt>
      <trkpt lat="43.32631" lon="3.16136">
        <ele>86</ele>
        <time>2021-07-01T08:34:06.000Z</time>
      </trkpt>
      <trkpt lat="43.32639" lon="3.16142">
        <ele>86</ele>
        <time>2021-07-01T08:34:10.000Z</time>
      </trkpt>
      <trkpt lat="43.32648" lon="3.16147">
        <ele>86</ele>
        <time>2021-07-01T08:34:14.000Z</time>
      </trkpt>
      <trkpt lat="43.32657" lon="3.16153">
        <ele>85</ele>
        <time>2021-07-01T08:34:18.000Z</time>
      </trkpt>
      <trkpt lat="43.32665" lon="3.16157">
        <ele>85</ele>
        <time>2021-07-01T08:34:22.000Z</time>
      </trkpt>
      <trkpt lat="43.32675" lon="3.16165">
        <ele>83</ele>
        <time>2021-07-01T08:34:48.000Z</time>
      </trkpt>
      <trkpt lat="43.32684" lon="3.16169">
        <ele>83</ele>
        <time>2021-07-01T08:34:52.000Z</time>
      </trkpt>
      <trkpt lat="43.32694" lon="3.16178">
        <ele>88</ele>
        <time>2021-07-01T08:34:57.000Z</time>
      </trkpt>
      <trkpt lat="43.32701" lon="3.16187">
        <ele>88</ele>
        <time>2021-07-01T08:35:01.000Z</time>
      </trkpt>
      <trkpt lat="43.32699" lon="3.16204">
        <ele>85</ele>
        <time>2021-07-01T08:35:06.000Z</time>
      </trkpt>
      <trkpt lat="43.32694" lon="3.16218">
        <ele>82</ele>
        <time>2021-07-01T08:35:10.000Z</time>
      </trkpt>
      <trkpt lat="43.3269" lon="3.1623">
        <ele>82</ele>
        <time>2021-07-01T08:35:13.000Z</time>
      </trkpt>
      <trkpt lat="43.32687" lon="3.16243">
        <ele>81</ele>
        <time>2021-07-01T08:35:16.000Z</time>
      </trkpt>
      <trkpt lat="43.32683" lon="3.16255">
        <ele>81</ele>
        <time>2021-07-01T08:35:19.000Z</time>
      </trkpt>
      <trkpt lat="43.3268" lon="3.16269">
        <ele>81</ele>
        <time>2021-07-01T08:35:22.000Z</time>
      </trkpt>
      <trkpt lat="43.32676" lon="3.16284">
        <ele>81</ele>
        <time>2021-07-01T08:35:25.000Z</time>
      </trkpt>
      <trkpt lat="43.32671" lon="3.16301">
        <ele>78</ele>
        <time>2021-07-01T08:35:28.000Z</time>
      </trkpt>
      <trkpt lat="43.32667" lon="3.16317">
        <ele>78</ele>
        <time>2021-07-01T08:35:31.000Z</time>
      </trkpt>
      <trkpt lat="43.32663" lon="3.16333">
        <ele>78</ele>
        <time>2021-07-01T08:35:34.000Z</time>
      </trkpt>
      <trkpt lat="43.32659" lon="3.16345">
        <ele>77</ele>
        <time>2021-07-01T08:35:36.000Z</time>
      </trkpt>
      <trkpt lat="43.32655" lon="3.16361">
        <ele>77</ele>
        <time>2021-07-01T08:35:39.000Z</time>
      </trkpt>
      <trkpt lat="43.3265" lon="3.16378">
        <ele>77</ele>
        <time>2021-07-01T08:35:42.000Z</time>
      </trkpt>
      <trkpt lat="43.32645" lon="3.16394">
        <ele>76</ele>
        <time>2021-07-01T08:35:45.000Z</time>
      </trkpt>
      <trkpt lat="43.3264" lon="3.16411">
        <ele>76</ele>
        <time>2021-07-01T08:35:48.000Z</time>
      </trkpt>
      <trkpt lat="43.32634" lon="3.16431">
        <ele>75</ele>
        <time>2021-07-01T08:35:52.000Z</time>
      </trkpt>
      <trkpt lat="43.3263" lon="3.16447">
        <ele>76</ele>
        <time>2021-07-01T08:35:55.000Z</time>
      </trkpt>
      <trkpt lat="43.32624" lon="3.16463">
        <ele>75</ele>
        <time>2021-07-01T08:35:58.000Z</time>
      </trkpt>
      <trkpt lat="43.32621" lon="3.16481">
        <ele>76</ele>
        <time>2021-07-01T08:36:01.000Z</time>
      </trkpt>
      <trkpt lat="43.32619" lon="3.16497">
        <ele>75</ele>
        <time>2021-07-01T08:36:04.000Z</time>
      </trkpt>
      <trkpt lat="43.32619" lon="3.16513">
        <ele>74</ele>
        <time>2021-07-01T08:36:07.000Z</time>
      </trkpt>
      <trkpt lat="43.3262" lon="3.16529">
        <ele>74</ele>
        <time>2021-07-01T08:36:10.000Z</time>
      </trkpt>
      <trkpt lat="43.32622" lon="3.16546">
        <ele>73</ele>
        <time>2021-07-01T08:36:13.000Z</time>
      </trkpt>
      <trkpt lat="43.32625" lon="3.16562">
        <ele>75</ele>
        <time>2021-07-01T08:36:16.000Z</time>
      </trkpt>
      <trkpt lat="43.32628" lon="3.1658">
        <ele>75</ele>
        <time>2021-07-01T08:36:19.000Z</time>
      </trkpt>
      <trkpt lat="43.3263" lon="3.16592">
        <ele>74</ele>
        <time>2021-07-01T08:36:21.000Z</time>
      </trkpt>
      <trkpt lat="43.32635" lon="3.16617">
        <ele>74</ele>
        <time>2021-07-01T08:36:25.000Z</time>
      </trkpt>
      <trkpt lat="43.32637" lon="3.16629">
        <ele>74</ele>
        <time>2021-07-01T08:36:27.000Z</time>
      </trkpt>
      <trkpt lat="43.3264" lon="3.16649">
        <ele>74</ele>
        <time>2021-07-01T08:36:30.000Z</time>
      </trkpt>
      <trkpt lat="43.32642" lon="3.16661">
        <ele>74</ele>
        <time>2021-07-01T08:36:32.000Z</time>
      </trkpt>
      <trkpt lat="43.32644" lon="3.16674">
        <ele>74</ele>
        <time>2021-07-01T08:36:34.000Z</time>
      </trkpt>
      <trkpt lat="43.32646" lon="3.16691">
        <ele>73</ele>
        <time>2021-07-01T08:36:37.000Z</time>
      </trkpt>
      <trkpt lat="43.32651" lon="3.16713">
        <ele>74</ele>
        <time>2021-07-01T08:36:41.000Z</time>
      </trkpt>
      <trkpt lat="43.32654" lon="3.16729">
        <ele>74</ele>
        <time>2021-07-01T08:36:44.000Z</time>
      </trkpt>
      <trkpt lat="43.32656" lon="3.16742">
        <ele>74</ele>
        <time>2021-07-01T08:36:46.000Z</time>
      </trkpt>
      <trkpt lat="43.32658" lon="3.16755">
        <ele>74</ele>
        <time>2021-07-01T08:36:48.000Z</time>
      </trkpt>
      <trkpt lat="43.32659" lon="3.16773">
        <ele>75</ele>
        <time>2021-07-01T08:36:51.000Z</time>
      </trkpt>
      <trkpt lat="43.32661" lon="3.16789">
        <ele>76</ele>
        <time>2021-07-01T08:36:54.000Z</time>
      </trkpt>
      <trkpt lat="43.32663" lon="3.16801">
        <ele>76</ele>
        <time>2021-07-01T08:36:56.000Z</time>
      </trkpt>
      <trkpt lat="43.32666" lon="3.16819">
        <ele>75</ele>
        <time>2021-07-01T08:36:59.000Z</time>
      </trkpt>
      <trkpt lat="43.32668" lon="3.16837">
        <ele>75</ele>
        <time>2021-07-01T08:37:02.000Z</time>
      </trkpt>
      <trkpt lat="43.32672" lon="3.16852">
        <ele>75</ele>
        <time>2021-07-01T08:37:05.000Z</time>
      </trkpt>
      <trkpt lat="43.32674" lon="3.16865">
        <ele>75</ele>
        <time>2021-07-01T08:37:07.000Z</time>
      </trkpt>
      <trkpt lat="43.32676" lon="3.16877">
        <ele>75</ele>
        <time>2021-07-01T08:37:09.000Z</time>
      </trkpt>
      <trkpt lat="43.32678" lon="3.16889">
        <ele>76</ele>
        <time>2021-07-01T08:37:11.000Z</time>
      </trkpt>
      <trkpt lat="43.32681" lon="3.16904">
        <ele>76</ele>
        <time>2021-07-01T08:37:14.000Z</time>
      </trkpt>
      <trkpt lat="43.32685" lon="3.16921">
        <ele>76</ele>
        <time>2021-07-01T08:37:17.000Z</time>
      </trkpt>
      <trkpt lat="43.32688" lon="3.16938">
        <ele>77</ele>
        <time>2021-07-01T08:37:20.000Z</time>
      </trkpt>
      <trkpt lat="43.3269" lon="3.16955">
        <ele>77</ele>
        <time>2021-07-01T08:37:23.000Z</time>
      </trkpt>
      <trkpt lat="43.32694" lon="3.16972">
        <ele>77</ele>
        <time>2021-07-01T08:37:26.000Z</time>
      </trkpt>
      <trkpt lat="43.32696" lon="3.16988">
        <ele>78</ele>
        <time>2021-07-01T08:37:29.000Z</time>
      </trkpt>
      <trkpt lat="43.32698" lon="3.17005">
        <ele>78</ele>
        <time>2021-07-01T08:37:32.000Z</time>
      </trkpt>
      <trkpt lat="43.32703" lon="3.17029">
        <ele>79</ele>
        <time>2021-07-01T08:37:36.000Z</time>
      </trkpt>
      <trkpt lat="43.32705" lon="3.17043">
        <ele>78</ele>
        <time>2021-07-01T08:37:40.000Z</time>
      </trkpt>
      <trkpt lat="43.32713" lon="3.17057">
        <ele>78</ele>
        <time>2021-07-01T08:37:47.000Z</time>
      </trkpt>
      <trkpt lat="43.32721" lon="3.17074">
        <ele>78</ele>
        <time>2021-07-01T08:37:52.000Z</time>
      </trkpt>
      <trkpt lat="43.32727" lon="3.17088">
        <ele>78</ele>
        <time>2021-07-01T08:37:56.000Z</time>
      </trkpt>
      <trkpt lat="43.32731" lon="3.17103">
        <ele>78</ele>
        <time>2021-07-01T08:38:00.000Z</time>
      </trkpt>
      <trkpt lat="43.32735" lon="3.17116">
        <ele>80</ele>
        <time>2021-07-01T08:38:03.000Z</time>
      </trkpt>
      <trkpt lat="43.32739" lon="3.17128">
        <ele>80</ele>
        <time>2021-07-01T08:38:06.000Z</time>
      </trkpt>
      <trkpt lat="43.32742" lon="3.17142">
        <ele>81</ele>
        <time>2021-07-01T08:38:09.000Z</time>
      </trkpt>
      <trkpt lat="43.32743" lon="3.17156">
        <ele>81</ele>
        <time>2021-07-01T08:38:12.000Z</time>
      </trkpt>
      <trkpt lat="43.32745" lon="3.17171">
        <ele>79</ele>
        <time>2021-07-01T08:38:15.000Z</time>
      </trkpt>
      <trkpt lat="43.32746" lon="3.17187">
        <ele>79</ele>
        <time>2021-07-01T08:38:18.000Z</time>
      </trkpt>
      <trkpt lat="43.32747" lon="3.17202">
        <ele>79</ele>
        <time>2021-07-01T08:38:21.000Z</time>
      </trkpt>
      <trkpt lat="43.32748" lon="3.17218">
        <ele>76</ele>
        <time>2021-07-01T08:38:24.000Z</time>
      </trkpt>
      <trkpt lat="43.32749" lon="3.17239">
        <ele>78</ele>
        <time>2021-07-01T08:38:28.000Z</time>
      </trkpt>
      <trkpt lat="43.32749" lon="3.17262">
        <ele>76</ele>
        <time>2021-07-01T08:38:32.000Z</time>
      </trkpt>
      <trkpt lat="43.3275" lon="3.17279">
        <ele>77</ele>
        <time>2021-07-01T08:38:35.000Z</time>
      </trkpt>
      <trkpt lat="43.32751" lon="3.17303">
        <ele>77</ele>
        <time>2021-07-01T08:38:39.000Z</time>
      </trkpt>
      <trkpt lat="43.32752" lon="3.17315">
        <ele>77</ele>
        <time>2021-07-01T08:38:41.000Z</time>
      </trkpt>
      <trkpt lat="43.32754" lon="3.17333">
        <ele>78</ele>
        <time>2021-07-01T08:38:44.000Z</time>
      </trkpt>
      <trkpt lat="43.32754" lon="3.17346">
        <ele>77</ele>
        <time>2021-07-01T08:38:46.000Z</time>
      </trkpt>
      <trkpt lat="43.32757" lon="3.17358">
        <ele>77</ele>
        <time>2021-07-01T08:38:48.000Z</time>
      </trkpt>
      <trkpt lat="43.32757" lon="3.17371">
        <ele>78</ele>
        <time>2021-07-01T08:38:50.000Z</time>
      </trkpt>
      <trkpt lat="43.32761" lon="3.17389">
        <ele>78</ele>
        <time>2021-07-01T08:38:53.000Z</time>
      </trkpt>
      <trkpt lat="43.32762" lon="3.17402">
        <ele>79</ele>
        <time>2021-07-01T08:38:55.000Z</time>
      </trkpt>
      <trkpt lat="43.32765" lon="3.17418">
        <ele>79</ele>
        <time>2021-07-01T08:38:58.000Z</time>
      </trkpt>
      <trkpt lat="43.3277" lon="3.17437">
        <ele>79</ele>
        <time>2021-07-01T08:39:01.000Z</time>
      </trkpt>
      <trkpt lat="43.32773" lon="3.17449">
        <ele>79</ele>
        <time>2021-07-01T08:39:03.000Z</time>
      </trkpt>
      <trkpt lat="43.32777" lon="3.17466">
        <ele>80</ele>
        <time>2021-07-01T08:39:06.000Z</time>
      </trkpt>
      <trkpt lat="43.32782" lon="3.17483">
        <ele>80</ele>
        <time>2021-07-01T08:39:09.000Z</time>
      </trkpt>
      <trkpt lat="43.32788" lon="3.17501">
        <ele>78</ele>
        <time>2021-07-01T08:39:12.000Z</time>
      </trkpt>
      <trkpt lat="43.32791" lon="3.17513">
        <ele>78</ele>
        <time>2021-07-01T08:39:14.000Z</time>
      </trkpt>
      <trkpt lat="43.32796" lon="3.17527">
        <ele>79</ele>
        <time>2021-07-01T08:39:16.000Z</time>
      </trkpt>
      <trkpt lat="43.32803" lon="3.17545">
        <ele>80</ele>
        <time>2021-07-01T08:39:19.000Z</time>
      </trkpt>
      <trkpt lat="43.32808" lon="3.17557">
        <ele>79</ele>
        <time>2021-07-01T08:39:21.000Z</time>
      </trkpt>
      <trkpt lat="43.32812" lon="3.17569">
        <ele>80</ele>
        <time>2021-07-01T08:39:23.000Z</time>
      </trkpt>
      <trkpt lat="43.32817" lon="3.1759">
        <ele>79</ele>
        <time>2021-07-01T08:39:27.000Z</time>
      </trkpt>
      <trkpt lat="43.32821" lon="3.17604">
        <ele>79</ele>
        <time>2021-07-01T08:39:30.000Z</time>
      </trkpt>
      <trkpt lat="43.32824" lon="3.17617">
        <ele>80</ele>
        <time>2021-07-01T08:39:34.000Z</time>
      </trkpt>
      <trkpt lat="43.32826" lon="3.1763">
        <ele>81</ele>
        <time>2021-07-01T08:39:37.000Z</time>
      </trkpt>
      <trkpt lat="43.3283" lon="3.17648">
        <ele>82</ele>
        <time>2021-07-01T08:39:40.000Z</time>
      </trkpt>
      <trkpt lat="43.32833" lon="3.17661">
        <ele>82</ele>
        <time>2021-07-01T08:39:42.000Z</time>
      </trkpt>
      <trkpt lat="43.32834" lon="3.17679">
        <ele>83</ele>
        <time>2021-07-01T08:39:45.000Z</time>
      </trkpt>
      <trkpt lat="43.32836" lon="3.17698">
        <ele>83</ele>
        <time>2021-07-01T08:39:48.000Z</time>
      </trkpt>
      <trkpt lat="43.32838" lon="3.17711">
        <ele>83</ele>
        <time>2021-07-01T08:39:50.000Z</time>
      </trkpt>
      <trkpt lat="43.32839" lon="3.17723">
        <ele>83</ele>
        <time>2021-07-01T08:39:52.000Z</time>
      </trkpt>
      <trkpt lat="43.32836" lon="3.17739">
        <ele>85</ele>
        <time>2021-07-01T08:39:55.000Z</time>
      </trkpt>
      <trkpt lat="43.32834" lon="3.17758">
        <ele>84</ele>
        <time>2021-07-01T08:39:58.000Z</time>
      </trkpt>
      <trkpt lat="43.32833" lon="3.17771">
        <ele>84</ele>
        <time>2021-07-01T08:40:00.000Z</time>
      </trkpt>
      <trkpt lat="43.32832" lon="3.17788">
        <ele>84</ele>
        <time>2021-07-01T08:40:03.000Z</time>
      </trkpt>
      <trkpt lat="43.32832" lon="3.17801">
        <ele>84</ele>
        <time>2021-07-01T08:40:05.000Z</time>
      </trkpt>
      <trkpt lat="43.32831" lon="3.17819">
        <ele>83</ele>
        <time>2021-07-01T08:40:08.000Z</time>
      </trkpt>
      <trkpt lat="43.32828" lon="3.17837">
        <ele>84</ele>
        <time>2021-07-01T08:40:11.000Z</time>
      </trkpt>
      <trkpt lat="43.32826" lon="3.17849">
        <ele>84</ele>
        <time>2021-07-01T08:40:13.000Z</time>
      </trkpt>
      <trkpt lat="43.32823" lon="3.17862">
        <ele>85</ele>
        <time>2021-07-01T08:40:15.000Z</time>
      </trkpt>
      <trkpt lat="43.32818" lon="3.17881">
        <ele>85</ele>
        <time>2021-07-01T08:40:18.000Z</time>
      </trkpt>
      <trkpt lat="43.32815" lon="3.17894">
        <ele>85</ele>
        <time>2021-07-01T08:40:20.000Z</time>
      </trkpt>
      <trkpt lat="43.3281" lon="3.17911">
        <ele>85</ele>
        <time>2021-07-01T08:40:23.000Z</time>
      </trkpt>
      <trkpt lat="43.32807" lon="3.17923">
        <ele>84</ele>
        <time>2021-07-01T08:40:25.000Z</time>
      </trkpt>
      <trkpt lat="43.32801" lon="3.17939">
        <ele>84</ele>
        <time>2021-07-01T08:40:28.000Z</time>
      </trkpt>
      <trkpt lat="43.32798" lon="3.17952">
        <ele>83</ele>
        <time>2021-07-01T08:40:30.000Z</time>
      </trkpt>
      <trkpt lat="43.32795" lon="3.1797">
        <ele>85</ele>
        <time>2021-07-01T08:40:33.000Z</time>
      </trkpt>
      <trkpt lat="43.32787" lon="3.17981">
        <ele>85</ele>
        <time>2021-07-01T08:40:35.000Z</time>
      </trkpt>
      <trkpt lat="43.32779" lon="3.17996">
        <ele>86</ele>
        <time>2021-07-01T08:40:38.000Z</time>
      </trkpt>
      <trkpt lat="43.32775" lon="3.18007">
        <ele>85</ele>
        <time>2021-07-01T08:40:40.000Z</time>
      </trkpt>
      <trkpt lat="43.32769" lon="3.18026">
        <ele>86</ele>
        <time>2021-07-01T08:40:43.000Z</time>
      </trkpt>
      <trkpt lat="43.32768" lon="3.18039">
        <ele>85</ele>
        <time>2021-07-01T08:40:45.000Z</time>
      </trkpt>
      <trkpt lat="43.32766" lon="3.18051">
        <ele>84</ele>
        <time>2021-07-01T08:40:48.000Z</time>
      </trkpt>
      <trkpt lat="43.32762" lon="3.18065">
        <ele>84</ele>
        <time>2021-07-01T08:40:51.000Z</time>
      </trkpt>
      <trkpt lat="43.32762" lon="3.18092">
        <ele>83</ele>
        <time>2021-07-01T08:40:55.000Z</time>
      </trkpt>
      <trkpt lat="43.32761" lon="3.18106">
        <ele>82</ele>
        <time>2021-07-01T08:40:57.000Z</time>
      </trkpt>
      <trkpt lat="43.32761" lon="3.18119">
        <ele>83</ele>
        <time>2021-07-01T08:40:59.000Z</time>
      </trkpt>
      <trkpt lat="43.32759" lon="3.18133">
        <ele>83</ele>
        <time>2021-07-01T08:41:01.000Z</time>
      </trkpt>
      <trkpt lat="43.32757" lon="3.18147">
        <ele>83</ele>
        <time>2021-07-01T08:41:03.000Z</time>
      </trkpt>
      <trkpt lat="43.32756" lon="3.18161">
        <ele>82</ele>
        <time>2021-07-01T08:41:05.000Z</time>
      </trkpt>
      <trkpt lat="43.32754" lon="3.18183">
        <ele>83</ele>
        <time>2021-07-01T08:41:08.000Z</time>
      </trkpt>
      <trkpt lat="43.32753" lon="3.18197">
        <ele>83</ele>
        <time>2021-07-01T08:41:10.000Z</time>
      </trkpt>
      <trkpt lat="43.32752" lon="3.18212">
        <ele>82</ele>
        <time>2021-07-01T08:41:12.000Z</time>
      </trkpt>
      <trkpt lat="43.32751" lon="3.18232">
        <ele>81</ele>
        <time>2021-07-01T08:41:15.000Z</time>
      </trkpt>
      <trkpt lat="43.32749" lon="3.18247">
        <ele>82</ele>
        <time>2021-07-01T08:41:17.000Z</time>
      </trkpt>
      <trkpt lat="43.32747" lon="3.18263">
        <ele>82</ele>
        <time>2021-07-01T08:41:19.000Z</time>
      </trkpt>
      <trkpt lat="43.32745" lon="3.18279">
        <ele>81</ele>
        <time>2021-07-01T08:41:21.000Z</time>
      </trkpt>
      <trkpt lat="43.32744" lon="3.18294">
        <ele>82</ele>
        <time>2021-07-01T08:41:23.000Z</time>
      </trkpt>
      <trkpt lat="43.32741" lon="3.18309">
        <ele>80</ele>
        <time>2021-07-01T08:41:25.000Z</time>
      </trkpt>
      <trkpt lat="43.3274" lon="3.18323">
        <ele>80</ele>
        <time>2021-07-01T08:41:27.000Z</time>
      </trkpt>
      <trkpt lat="43.32739" lon="3.18338">
        <ele>80</ele>
        <time>2021-07-01T08:41:29.000Z</time>
      </trkpt>
      <trkpt lat="43.32736" lon="3.18359">
        <ele>80</ele>
        <time>2021-07-01T08:41:32.000Z</time>
      </trkpt>
      <trkpt lat="43.32735" lon="3.18374">
        <ele>80</ele>
        <time>2021-07-01T08:41:34.000Z</time>
      </trkpt>
      <trkpt lat="43.32732" lon="3.18389">
        <ele>80</ele>
        <time>2021-07-01T08:41:36.000Z</time>
      </trkpt>
      <trkpt lat="43.32728" lon="3.18404">
        <ele>80</ele>
        <time>2021-07-01T08:41:38.000Z</time>
      </trkpt>
      <trkpt lat="43.32725" lon="3.18427">
        <ele>79</ele>
        <time>2021-07-01T08:41:41.000Z</time>
      </trkpt>
      <trkpt lat="43.32724" lon="3.18442">
        <ele>79</ele>
        <time>2021-07-01T08:41:43.000Z</time>
      </trkpt>
      <trkpt lat="43.32722" lon="3.18458">
        <ele>79</ele>
        <time>2021-07-01T08:41:45.000Z</time>
      </trkpt>
      <trkpt lat="43.3272" lon="3.1848">
        <ele>79</ele>
        <time>2021-07-01T08:41:48.000Z</time>
      </trkpt>
      <trkpt lat="43.32718" lon="3.18495">
        <ele>79</ele>
        <time>2021-07-01T08:41:50.000Z</time>
      </trkpt>
      <trkpt lat="43.32715" lon="3.1851">
        <ele>79</ele>
        <time>2021-07-01T08:41:52.000Z</time>
      </trkpt>
      <trkpt lat="43.32721" lon="3.1853">
        <ele>81</ele>
        <time>2021-07-01T08:41:56.000Z</time>
      </trkpt>
      <trkpt lat="43.32724" lon="3.18548">
        <ele>80</ele>
        <time>2021-07-01T08:41:59.000Z</time>
      </trkpt>
      <trkpt lat="43.32721" lon="3.18561">
        <ele>80</ele>
        <time>2021-07-01T08:42:01.000Z</time>
      </trkpt>
      <trkpt lat="43.32717" lon="3.18574">
        <ele>80</ele>
        <time>2021-07-01T08:42:03.000Z</time>
      </trkpt>
      <trkpt lat="43.32713" lon="3.18588">
        <ele>80</ele>
        <time>2021-07-01T08:42:05.000Z</time>
      </trkpt>
      <trkpt lat="43.32711" lon="3.18601">
        <ele>80</ele>
        <time>2021-07-01T08:42:07.000Z</time>
      </trkpt>
      <trkpt lat="43.32709" lon="3.18615">
        <ele>79</ele>
        <time>2021-07-01T08:42:09.000Z</time>
      </trkpt>
      <trkpt lat="43.32707" lon="3.18627">
        <ele>79</ele>
        <time>2021-07-01T08:42:11.000Z</time>
      </trkpt>
      <trkpt lat="43.32705" lon="3.1864">
        <ele>79</ele>
        <time>2021-07-01T08:42:13.000Z</time>
      </trkpt>
      <trkpt lat="43.32703" lon="3.18653">
        <ele>79</ele>
        <time>2021-07-01T08:42:15.000Z</time>
      </trkpt>
      <trkpt lat="43.32701" lon="3.18667">
        <ele>79</ele>
        <time>2021-07-01T08:42:17.000Z</time>
      </trkpt>
      <trkpt lat="43.32699" lon="3.18681">
        <ele>79</ele>
        <time>2021-07-01T08:42:19.000Z</time>
      </trkpt>
      <trkpt lat="43.32697" lon="3.18696">
        <ele>79</ele>
        <time>2021-07-01T08:42:21.000Z</time>
      </trkpt>
      <trkpt lat="43.32696" lon="3.18708">
        <ele>79</ele>
        <time>2021-07-01T08:42:23.000Z</time>
      </trkpt>
      <trkpt lat="43.32693" lon="3.18721">
        <ele>79</ele>
        <time>2021-07-01T08:42:25.000Z</time>
      </trkpt>
      <trkpt lat="43.32692" lon="3.18733">
        <ele>79</ele>
        <time>2021-07-01T08:42:27.000Z</time>
      </trkpt>
      <trkpt lat="43.32692" lon="3.18748">
        <ele>79</ele>
        <time>2021-07-01T08:42:29.000Z</time>
      </trkpt>
      <trkpt lat="43.32693" lon="3.18767">
        <ele>79</ele>
        <time>2021-07-01T08:42:32.000Z</time>
      </trkpt>
      <trkpt lat="43.32695" lon="3.18784">
        <ele>79</ele>
        <time>2021-07-01T08:42:35.000Z</time>
      </trkpt>
      <trkpt lat="43.32697" lon="3.188">
        <ele>79</ele>
        <time>2021-07-01T08:42:38.000Z</time>
      </trkpt>
      <trkpt lat="43.32701" lon="3.18813">
        <ele>79</ele>
        <time>2021-07-01T08:42:41.000Z</time>
      </trkpt>
      <trkpt lat="43.32706" lon="3.18828">
        <ele>80</ele>
        <time>2021-07-01T08:42:44.000Z</time>
      </trkpt>
      <trkpt lat="43.32712" lon="3.18844">
        <ele>81</ele>
        <time>2021-07-01T08:42:47.000Z</time>
      </trkpt>
      <trkpt lat="43.3272" lon="3.18858">
        <ele>81</ele>
        <time>2021-07-01T08:42:50.000Z</time>
      </trkpt>
      <trkpt lat="43.32726" lon="3.18868">
        <ele>81</ele>
        <time>2021-07-01T08:42:52.000Z</time>
      </trkpt>
      <trkpt lat="43.32732" lon="3.18877">
        <ele>81</ele>
        <time>2021-07-01T08:42:54.000Z</time>
      </trkpt>
      <trkpt lat="43.32743" lon="3.18894">
        <ele>81</ele>
        <time>2021-07-01T08:42:57.000Z</time>
      </trkpt>
      <trkpt lat="43.32749" lon="3.18904">
        <ele>82</ele>
        <time>2021-07-01T08:42:59.000Z</time>
      </trkpt>
      <trkpt lat="43.32758" lon="3.18918">
        <ele>82</ele>
        <time>2021-07-01T08:43:02.000Z</time>
      </trkpt>
      <trkpt lat="43.32766" lon="3.1893">
        <ele>83</ele>
        <time>2021-07-01T08:43:05.000Z</time>
      </trkpt>
      <trkpt lat="43.3277" lon="3.18942">
        <ele>82</ele>
        <time>2021-07-01T08:43:07.000Z</time>
      </trkpt>
      <trkpt lat="43.32774" lon="3.18954">
        <ele>81</ele>
        <time>2021-07-01T08:43:10.000Z</time>
      </trkpt>
      <trkpt lat="43.32789" lon="3.1897">
        <ele>80</ele>
        <time>2021-07-01T08:43:14.000Z</time>
      </trkpt>
      <trkpt lat="43.32797" lon="3.1898">
        <ele>80</ele>
        <time>2021-07-01T08:43:16.000Z</time>
      </trkpt>
      <trkpt lat="43.32807" lon="3.18994">
        <ele>82</ele>
        <time>2021-07-01T08:43:19.000Z</time>
      </trkpt>
      <trkpt lat="43.32816" lon="3.19007">
        <ele>82</ele>
        <time>2021-07-01T08:43:21.000Z</time>
      </trkpt>
      <trkpt lat="43.32825" lon="3.19017">
        <ele>83</ele>
        <time>2021-07-01T08:43:23.000Z</time>
      </trkpt>
      <trkpt lat="43.32837" lon="3.19033">
        <ele>80</ele>
        <time>2021-07-01T08:43:26.000Z</time>
      </trkpt>
      <trkpt lat="43.32844" lon="3.19044">
        <ele>81</ele>
        <time>2021-07-01T08:43:28.000Z</time>
      </trkpt>
      <trkpt lat="43.3285" lon="3.19056">
        <ele>80</ele>
        <time>2021-07-01T08:43:30.000Z</time>
      </trkpt>
      <trkpt lat="43.32861" lon="3.19072">
        <ele>78</ele>
        <time>2021-07-01T08:43:33.000Z</time>
      </trkpt>
      <trkpt lat="43.32868" lon="3.19081">
        <ele>78</ele>
        <time>2021-07-01T08:43:35.000Z</time>
      </trkpt>
      <trkpt lat="43.32876" lon="3.19094">
        <ele>79</ele>
        <time>2021-07-01T08:43:38.000Z</time>
      </trkpt>
      <trkpt lat="43.32885" lon="3.19107">
        <ele>81</ele>
        <time>2021-07-01T08:43:41.000Z</time>
      </trkpt>
      <trkpt lat="43.32892" lon="3.19116">
        <ele>81</ele>
        <time>2021-07-01T08:43:43.000Z</time>
      </trkpt>
      <trkpt lat="43.32898" lon="3.19126">
        <ele>80</ele>
        <time>2021-07-01T08:43:45.000Z</time>
      </trkpt>
      <trkpt lat="43.32905" lon="3.19136">
        <ele>81</ele>
        <time>2021-07-01T08:43:47.000Z</time>
      </trkpt>
      <trkpt lat="43.32917" lon="3.19147">
        <ele>81</ele>
        <time>2021-07-01T08:43:50.000Z</time>
      </trkpt>
      <trkpt lat="43.32927" lon="3.19155">
        <ele>81</ele>
        <time>2021-07-01T08:43:52.000Z</time>
      </trkpt>
      <trkpt lat="43.32936" lon="3.1916">
        <ele>81</ele>
        <time>2021-07-01T08:43:54.000Z</time>
      </trkpt>
      <trkpt lat="43.32945" lon="3.19165">
        <ele>81</ele>
        <time>2021-07-01T08:43:56.000Z</time>
      </trkpt>
      <trkpt lat="43.3296" lon="3.19172">
        <ele>81</ele>
        <time>2021-07-01T08:43:59.000Z</time>
      </trkpt>
      <trkpt lat="43.32971" lon="3.19177">
        <ele>81</ele>
        <time>2021-07-01T08:44:01.000Z</time>
      </trkpt>
      <trkpt lat="43.32981" lon="3.1918">
        <ele>80</ele>
        <time>2021-07-01T08:44:03.000Z</time>
      </trkpt>
      <trkpt lat="43.32991" lon="3.19184">
        <ele>80</ele>
        <time>2021-07-01T08:44:05.000Z</time>
      </trkpt>
      <trkpt lat="43.33001" lon="3.19188">
        <ele>80</ele>
        <time>2021-07-01T08:44:07.000Z</time>
      </trkpt>
      <trkpt lat="43.33011" lon="3.19191">
        <ele>80</ele>
        <time>2021-07-01T08:44:09.000Z</time>
      </trkpt>
      <trkpt lat="43.33026" lon="3.19196">
        <ele>81</ele>
        <time>2021-07-01T08:44:12.000Z</time>
      </trkpt>
      <trkpt lat="43.33035" lon="3.192">
        <ele>80</ele>
        <time>2021-07-01T08:44:14.000Z</time>
      </trkpt>
      <trkpt lat="43.33043" lon="3.19206">
        <ele>80</ele>
        <time>2021-07-01T08:44:16.000Z</time>
      </trkpt>
      <trkpt lat="43.33056" lon="3.19217">
        <ele>80</ele>
        <time>2021-07-01T08:44:19.000Z</time>
      </trkpt>
      <trkpt lat="43.33062" lon="3.19227">
        <ele>80</ele>
        <time>2021-07-01T08:44:21.000Z</time>
      </trkpt>
      <trkpt lat="43.33066" lon="3.1924">
        <ele>80</ele>
        <time>2021-07-01T08:44:23.000Z</time>
      </trkpt>
      <trkpt lat="43.33067" lon="3.19255">
        <ele>81</ele>
        <time>2021-07-01T08:44:25.000Z</time>
      </trkpt>
      <trkpt lat="43.33069" lon="3.19268">
        <ele>82</ele>
        <time>2021-07-01T08:44:27.000Z</time>
      </trkpt>
      <trkpt lat="43.3307" lon="3.19282">
        <ele>82</ele>
        <time>2021-07-01T08:44:29.000Z</time>
      </trkpt>
      <trkpt lat="43.33071" lon="3.19296">
        <ele>82</ele>
        <time>2021-07-01T08:44:31.000Z</time>
      </trkpt>
      <trkpt lat="43.33071" lon="3.1931">
        <ele>82</ele>
        <time>2021-07-01T08:44:33.000Z</time>
      </trkpt>
      <trkpt lat="43.33072" lon="3.19323">
        <ele>81</ele>
        <time>2021-07-01T08:44:35.000Z</time>
      </trkpt>
      <trkpt lat="43.33069" lon="3.19342">
        <ele>82</ele>
        <time>2021-07-01T08:44:38.000Z</time>
      </trkpt>
      <trkpt lat="43.33068" lon="3.19355">
        <ele>81</ele>
        <time>2021-07-01T08:44:40.000Z</time>
      </trkpt>
      <trkpt lat="43.33063" lon="3.19367">
        <ele>80</ele>
        <time>2021-07-01T08:44:43.000Z</time>
      </trkpt>
      <trkpt lat="43.3306" lon="3.19379">
        <ele>80</ele>
        <time>2021-07-01T08:44:46.000Z</time>
      </trkpt>
      <trkpt lat="43.33059" lon="3.19396">
        <ele>80</ele>
        <time>2021-07-01T08:44:50.000Z</time>
      </trkpt>
      <trkpt lat="43.33058" lon="3.19417">
        <ele>81</ele>
        <time>2021-07-01T08:44:53.000Z</time>
      </trkpt>
      <trkpt lat="43.33057" lon="3.19432">
        <ele>80</ele>
        <time>2021-07-01T08:44:55.000Z</time>
      </trkpt>
      <trkpt lat="43.33054" lon="3.19446">
        <ele>79</ele>
        <time>2021-07-01T08:44:57.000Z</time>
      </trkpt>
      <trkpt lat="43.33052" lon="3.19463">
        <ele>76</ele>
        <time>2021-07-01T08:44:59.000Z</time>
      </trkpt>
      <trkpt lat="43.3305" lon="3.19478">
        <ele>76</ele>
        <time>2021-07-01T08:45:01.000Z</time>
      </trkpt>
      <trkpt lat="43.33048" lon="3.1949">
        <ele>77</ele>
        <time>2021-07-01T08:45:03.000Z</time>
      </trkpt>
      <trkpt lat="43.33046" lon="3.19503">
        <ele>77</ele>
        <time>2021-07-01T08:45:05.000Z</time>
      </trkpt>
      <trkpt lat="43.33046" lon="3.19517">
        <ele>77</ele>
        <time>2021-07-01T08:45:07.000Z</time>
      </trkpt>
      <trkpt lat="43.33047" lon="3.19538">
        <ele>79</ele>
        <time>2021-07-01T08:45:10.000Z</time>
      </trkpt>
      <trkpt lat="43.33048" lon="3.19551">
        <ele>79</ele>
        <time>2021-07-01T08:45:12.000Z</time>
      </trkpt>
      <trkpt lat="43.33048" lon="3.19565">
        <ele>80</ele>
        <time>2021-07-01T08:45:14.000Z</time>
      </trkpt>
      <trkpt lat="43.3305" lon="3.19579">
        <ele>81</ele>
        <time>2021-07-01T08:45:16.000Z</time>
      </trkpt>
      <trkpt lat="43.33051" lon="3.19593">
        <ele>81</ele>
        <time>2021-07-01T08:45:18.000Z</time>
      </trkpt>
      <trkpt lat="43.33053" lon="3.19612">
        <ele>81</ele>
        <time>2021-07-01T08:45:21.000Z</time>
      </trkpt>
      <trkpt lat="43.33052" lon="3.19625">
        <ele>82</ele>
        <time>2021-07-01T08:45:23.000Z</time>
      </trkpt>
      <trkpt lat="43.3305" lon="3.19646">
        <ele>82</ele>
        <time>2021-07-01T08:45:26.000Z</time>
      </trkpt>
      <trkpt lat="43.33047" lon="3.1966">
        <ele>82</ele>
        <time>2021-07-01T08:45:28.000Z</time>
      </trkpt>
      <trkpt lat="43.33044" lon="3.19673">
        <ele>81</ele>
        <time>2021-07-01T08:45:30.000Z</time>
      </trkpt>
      <trkpt lat="43.33039" lon="3.19685">
        <ele>81</ele>
        <time>2021-07-01T08:45:32.000Z</time>
      </trkpt>
      <trkpt lat="43.33035" lon="3.19697">
        <ele>81</ele>
        <time>2021-07-01T08:45:34.000Z</time>
      </trkpt>
      <trkpt lat="43.33024" lon="3.19719">
        <ele>80</ele>
        <time>2021-07-01T08:45:38.000Z</time>
      </trkpt>
      <trkpt lat="43.3302" lon="3.19734">
        <ele>81</ele>
        <time>2021-07-01T08:45:41.000Z</time>
      </trkpt>
      <trkpt lat="43.33016" lon="3.19747">
        <ele>81</ele>
        <time>2021-07-01T08:45:44.000Z</time>
      </trkpt>
      <trkpt lat="43.33013" lon="3.19763">
        <ele>81</ele>
        <time>2021-07-01T08:45:47.000Z</time>
      </trkpt>
      <trkpt lat="43.33017" lon="3.19777">
        <ele>80</ele>
        <time>2021-07-01T08:45:50.000Z</time>
      </trkpt>
      <trkpt lat="43.3302" lon="3.19791">
        <ele>79</ele>
        <time>2021-07-01T08:45:53.000Z</time>
      </trkpt>
      <trkpt lat="43.33021" lon="3.19805">
        <ele>80</ele>
        <time>2021-07-01T08:45:57.000Z</time>
      </trkpt>
      <trkpt lat="43.33023" lon="3.1982">
        <ele>81</ele>
        <time>2021-07-01T08:46:02.000Z</time>
      </trkpt>
      <trkpt lat="43.33026" lon="3.19833">
        <ele>82</ele>
        <time>2021-07-01T08:46:06.000Z</time>
      </trkpt>
      <trkpt lat="43.33027" lon="3.19848">
        <ele>82</ele>
        <time>2021-07-01T08:46:10.000Z</time>
      </trkpt>
      <trkpt lat="43.3303" lon="3.19861">
        <ele>83</ele>
        <time>2021-07-01T08:46:15.000Z</time>
      </trkpt>
      <trkpt lat="43.33034" lon="3.19872">
        <ele>82</ele>
        <time>2021-07-01T08:51:17.000Z</time>
      </trkpt>
      <trkpt lat="43.33033" lon="3.19859">
        <ele>77</ele>
        <time>2021-07-01T08:56:43.000Z</time>
      </trkpt>
      <trkpt lat="43.33035" lon="3.19872">
        <ele>83</ele>
        <time>2021-07-01T08:58:04.000Z</time>
      </trkpt>
      <trkpt lat="43.33038" lon="3.19884">
        <ele>84</ele>
        <time>2021-07-01T08:59:13.000Z</time>
      </trkpt>
      <trkpt lat="43.33037" lon="3.19871">
        <ele>82</ele>
        <time>2021-07-01T09:03:56.000Z</time>
      </trkpt>
      <trkpt lat="43.33032" lon="3.19861">
        <ele>82</ele>
        <time>2021-07-01T09:04:06.000Z</time>
      </trkpt>
      <trkpt lat="43.33037" lon="3.19871">
        <ele>79</ele>
        <time>2021-07-01T09:10:42.000Z</time>
      </trkpt>
      <trkpt lat="43.33044" lon="3.19884">
        <ele>78</ele>
        <time>2021-07-01T09:10:48.000Z</time>
      </trkpt>
      <trkpt lat="43.33049" lon="3.19897">
        <ele>78</ele>
        <time>2021-07-01T09:10:52.000Z</time>
      </trkpt>
      <trkpt lat="43.33057" lon="3.19912">
        <ele>76</ele>
        <time>2021-07-01T09:10:55.000Z</time>
      </trkpt>
      <trkpt lat="43.33063" lon="3.19929">
        <ele>75</ele>
        <time>2021-07-01T09:10:58.000Z</time>
      </trkpt>
      <trkpt lat="43.33068" lon="3.19944">
        <ele>76</ele>
        <time>2021-07-01T09:11:00.000Z</time>
      </trkpt>
      <trkpt lat="43.33073" lon="3.1996">
        <ele>76</ele>
        <time>2021-07-01T09:11:02.000Z</time>
      </trkpt>
      <trkpt lat="43.3308" lon="3.19978">
        <ele>76</ele>
        <time>2021-07-01T09:11:04.000Z</time>
      </trkpt>
      <trkpt lat="43.33087" lon="3.19997">
        <ele>74</ele>
        <time>2021-07-01T09:11:06.000Z</time>
      </trkpt>
      <trkpt lat="43.33094" lon="3.20014">
        <ele>73</ele>
        <time>2021-07-01T09:11:08.000Z</time>
      </trkpt>
      <trkpt lat="43.331" lon="3.20032">
        <ele>71</ele>
        <time>2021-07-01T09:11:10.000Z</time>
      </trkpt>
      <trkpt lat="43.33105" lon="3.20047">
        <ele>70</ele>
        <time>2021-07-01T09:11:12.000Z</time>
      </trkpt>
      <trkpt lat="43.33115" lon="3.20069">
        <ele>68</ele>
        <time>2021-07-01T09:11:16.000Z</time>
      </trkpt>
      <trkpt lat="43.33119" lon="3.20081">
        <ele>68</ele>
        <time>2021-07-01T09:11:19.000Z</time>
      </trkpt>
      <trkpt lat="43.33121" lon="3.20094">
        <ele>65</ele>
        <time>2021-07-01T09:11:25.000Z</time>
      </trkpt>
      <trkpt lat="43.33127" lon="3.20106">
        <ele>65</ele>
        <time>2021-07-01T09:11:32.000Z</time>
      </trkpt>
      <trkpt lat="43.33118" lon="3.20101">
        <ele>66</ele>
        <time>2021-07-01T09:11:58.000Z</time>
      </trkpt>
      <trkpt lat="43.33112" lon="3.20111">
        <ele>70</ele>
        <time>2021-07-01T09:13:04.000Z</time>
      </trkpt>
      <trkpt lat="43.33121" lon="3.20105">
        <ele>67</ele>
        <time>2021-07-01T09:15:21.000Z</time>
      </trkpt>
      <trkpt lat="43.3313" lon="3.20105">
        <ele>68</ele>
        <time>2021-07-01T09:15:51.000Z</time>
      </trkpt>
      <trkpt lat="43.33129" lon="3.20092">
        <ele>64</ele>
        <time>2021-07-01T09:20:45.000Z</time>
      </trkpt>
      <trkpt lat="43.33129" lon="3.2008">
        <ele>65</ele>
        <time>2021-07-01T09:20:49.000Z</time>
      </trkpt>
      <trkpt lat="43.33124" lon="3.2007">
        <ele>67</ele>
        <time>2021-07-01T09:20:53.000Z</time>
      </trkpt>
      <trkpt lat="43.33124" lon="3.20084">
        <ele>67</ele>
        <time>2021-07-01T09:21:41.000Z</time>
      </trkpt>
      <trkpt lat="43.33124" lon="3.20097">
        <ele>66</ele>
        <time>2021-07-01T09:21:56.000Z</time>
      </trkpt>
      <trkpt lat="43.33117" lon="3.20105">
        <ele>67</ele>
        <time>2021-07-01T09:22:01.000Z</time>
      </trkpt>
      <trkpt lat="43.33108" lon="3.20112">
        <ele>68</ele>
        <time>2021-07-01T09:22:05.000Z</time>
      </trkpt>
      <trkpt lat="43.33101" lon="3.20119">
        <ele>67</ele>
        <time>2021-07-01T09:22:09.000Z</time>
      </trkpt>
      <trkpt lat="43.33096" lon="3.20132">
        <ele>68</ele>
        <time>2021-07-01T09:22:16.000Z</time>
      </trkpt>
      <trkpt lat="43.33095" lon="3.20144">
        <ele>67</ele>
        <time>2021-07-01T09:22:20.000Z</time>
      </trkpt>
      <trkpt lat="43.33093" lon="3.20159">
        <ele>66</ele>
        <time>2021-07-01T09:22:24.000Z</time>
      </trkpt>
      <trkpt lat="43.33089" lon="3.20174">
        <ele>66</ele>
        <time>2021-07-01T09:22:28.000Z</time>
      </trkpt>
      <trkpt lat="43.33083" lon="3.20192">
        <ele>67</ele>
        <time>2021-07-01T09:22:33.000Z</time>
      </trkpt>
      <trkpt lat="43.3308" lon="3.20205">
        <ele>70</ele>
        <time>2021-07-01T09:22:37.000Z</time>
      </trkpt>
      <trkpt lat="43.33078" lon="3.20219">
        <ele>69</ele>
        <time>2021-07-01T09:22:41.000Z</time>
      </trkpt>
      <trkpt lat="43.33075" lon="3.20231">
        <ele>71</ele>
        <time>2021-07-01T09:22:44.000Z</time>
      </trkpt>
      <trkpt lat="43.33074" lon="3.20245">
        <ele>71</ele>
        <time>2021-07-01T09:22:47.000Z</time>
      </trkpt>
      <trkpt lat="43.3307" lon="3.2026">
        <ele>72</ele>
        <time>2021-07-01T09:22:51.000Z</time>
      </trkpt>
      <trkpt lat="43.33069" lon="3.20278">
        <ele>72</ele>
        <time>2021-07-01T09:22:54.000Z</time>
      </trkpt>
      <trkpt lat="43.33066" lon="3.20296">
        <ele>72</ele>
        <time>2021-07-01T09:22:57.000Z</time>
      </trkpt>
      <trkpt lat="43.33066" lon="3.2031">
        <ele>71</ele>
        <time>2021-07-01T09:23:00.000Z</time>
      </trkpt>
      <trkpt lat="43.33065" lon="3.20325">
        <ele>72</ele>
        <time>2021-07-01T09:23:03.000Z</time>
      </trkpt>
      <trkpt lat="43.33064" lon="3.20343">
        <ele>71</ele>
        <time>2021-07-01T09:23:06.000Z</time>
      </trkpt>
      <trkpt lat="43.33064" lon="3.20356">
        <ele>72</ele>
        <time>2021-07-01T09:23:08.000Z</time>
      </trkpt>
      <trkpt lat="43.33063" lon="3.20372">
        <ele>72</ele>
        <time>2021-07-01T09:23:11.000Z</time>
      </trkpt>
      <trkpt lat="43.33062" lon="3.20391">
        <ele>73</ele>
        <time>2021-07-01T09:23:14.000Z</time>
      </trkpt>
      <trkpt lat="43.33062" lon="3.20409">
        <ele>74</ele>
        <time>2021-07-01T09:23:17.000Z</time>
      </trkpt>
      <trkpt lat="43.33064" lon="3.20432">
        <ele>75</ele>
        <time>2021-07-01T09:23:21.000Z</time>
      </trkpt>
      <trkpt lat="43.33066" lon="3.20446">
        <ele>76</ele>
        <time>2021-07-01T09:23:23.000Z</time>
      </trkpt>
      <trkpt lat="43.33067" lon="3.2046">
        <ele>75</ele>
        <time>2021-07-01T09:23:25.000Z</time>
      </trkpt>
      <trkpt lat="43.33071" lon="3.20473">
        <ele>75</ele>
        <time>2021-07-01T09:23:28.000Z</time>
      </trkpt>
      <trkpt lat="43.33075" lon="3.20486">
        <ele>76</ele>
        <time>2021-07-01T09:23:31.000Z</time>
      </trkpt>
      <trkpt lat="43.33079" lon="3.20505">
        <ele>77</ele>
        <time>2021-07-01T09:23:34.000Z</time>
      </trkpt>
      <trkpt lat="43.33083" lon="3.20521">
        <ele>76</ele>
        <time>2021-07-01T09:23:36.000Z</time>
      </trkpt>
      <trkpt lat="43.33086" lon="3.20536">
        <ele>75</ele>
        <time>2021-07-01T09:23:38.000Z</time>
      </trkpt>
      <trkpt lat="43.33091" lon="3.20548">
        <ele>74</ele>
        <time>2021-07-01T09:23:40.000Z</time>
      </trkpt>
      <trkpt lat="43.33096" lon="3.20565">
        <ele>74</ele>
        <time>2021-07-01T09:23:43.000Z</time>
      </trkpt>
      <trkpt lat="43.33099" lon="3.20579">
        <ele>73</ele>
        <time>2021-07-01T09:23:45.000Z</time>
      </trkpt>
      <trkpt lat="43.33106" lon="3.20597">
        <ele>72</ele>
        <time>2021-07-01T09:23:48.000Z</time>
      </trkpt>
      <trkpt lat="43.33111" lon="3.20608">
        <ele>71</ele>
        <time>2021-07-01T09:23:50.000Z</time>
      </trkpt>
      <trkpt lat="43.33113" lon="3.20621">
        <ele>71</ele>
        <time>2021-07-01T09:23:52.000Z</time>
      </trkpt>
      <trkpt lat="43.33117" lon="3.20637">
        <ele>73</ele>
        <time>2021-07-01T09:23:55.000Z</time>
      </trkpt>
      <trkpt lat="43.3312" lon="3.20649">
        <ele>71</ele>
        <time>2021-07-01T09:23:57.000Z</time>
      </trkpt>
      <trkpt lat="43.33126" lon="3.20665">
        <ele>72</ele>
        <time>2021-07-01T09:24:00.000Z</time>
      </trkpt>
      <trkpt lat="43.33129" lon="3.20677">
        <ele>72</ele>
        <time>2021-07-01T09:24:02.000Z</time>
      </trkpt>
      <trkpt lat="43.33133" lon="3.20689">
        <ele>72</ele>
        <time>2021-07-01T09:24:04.000Z</time>
      </trkpt>
      <trkpt lat="43.33139" lon="3.20701">
        <ele>72</ele>
        <time>2021-07-01T09:24:06.000Z</time>
      </trkpt>
      <trkpt lat="43.33144" lon="3.20712">
        <ele>71</ele>
        <time>2021-07-01T09:24:08.000Z</time>
      </trkpt>
      <trkpt lat="43.33147" lon="3.20724">
        <ele>71</ele>
        <time>2021-07-01T09:24:10.000Z</time>
      </trkpt>
      <trkpt lat="43.33151" lon="3.20736">
        <ele>71</ele>
        <time>2021-07-01T09:24:12.000Z</time>
      </trkpt>
      <trkpt lat="43.33157" lon="3.20754">
        <ele>70</ele>
        <time>2021-07-01T09:24:15.000Z</time>
      </trkpt>
      <trkpt lat="43.33163" lon="3.2077">
        <ele>70</ele>
        <time>2021-07-01T09:24:18.000Z</time>
      </trkpt>
      <trkpt lat="43.33169" lon="3.20785">
        <ele>70</ele>
        <time>2021-07-01T09:24:21.000Z</time>
      </trkpt>
      <trkpt lat="43.33174" lon="3.20797">
        <ele>70</ele>
        <time>2021-07-01T09:24:23.000Z</time>
      </trkpt>
      <trkpt lat="43.33179" lon="3.20808">
        <ele>69</ele>
        <time>2021-07-01T09:24:25.000Z</time>
      </trkpt>
      <trkpt lat="43.33185" lon="3.2082">
        <ele>70</ele>
        <time>2021-07-01T09:24:27.000Z</time>
      </trkpt>
      <trkpt lat="43.33191" lon="3.2083">
        <ele>69</ele>
        <time>2021-07-01T09:24:29.000Z</time>
      </trkpt>
      <trkpt lat="43.33197" lon="3.20844">
        <ele>69</ele>
        <time>2021-07-01T09:24:32.000Z</time>
      </trkpt>
      <trkpt lat="43.33202" lon="3.20856">
        <ele>70</ele>
        <time>2021-07-01T09:24:34.000Z</time>
      </trkpt>
      <trkpt lat="43.3321" lon="3.2087">
        <ele>69</ele>
        <time>2021-07-01T09:24:37.000Z</time>
      </trkpt>
      <trkpt lat="43.33216" lon="3.20886">
        <ele>68</ele>
        <time>2021-07-01T09:24:40.000Z</time>
      </trkpt>
      <trkpt lat="43.33223" lon="3.20896">
        <ele>68</ele>
        <time>2021-07-01T09:24:42.000Z</time>
      </trkpt>
      <trkpt lat="43.33228" lon="3.20906">
        <ele>68</ele>
        <time>2021-07-01T09:24:44.000Z</time>
      </trkpt>
      <trkpt lat="43.33233" lon="3.20917">
        <ele>68</ele>
        <time>2021-07-01T09:24:46.000Z</time>
      </trkpt>
      <trkpt lat="43.33239" lon="3.20927">
        <ele>69</ele>
        <time>2021-07-01T09:24:48.000Z</time>
      </trkpt>
      <trkpt lat="43.33245" lon="3.20937">
        <ele>69</ele>
        <time>2021-07-01T09:24:50.000Z</time>
      </trkpt>
      <trkpt lat="43.33251" lon="3.20948">
        <ele>70</ele>
        <time>2021-07-01T09:24:52.000Z</time>
      </trkpt>
      <trkpt lat="43.33261" lon="3.20965">
        <ele>69</ele>
        <time>2021-07-01T09:24:56.000Z</time>
      </trkpt>
      <trkpt lat="43.33268" lon="3.20975">
        <ele>71</ele>
        <time>2021-07-01T09:24:58.000Z</time>
      </trkpt>
      <trkpt lat="43.33275" lon="3.20984">
        <ele>71</ele>
        <time>2021-07-01T09:25:00.000Z</time>
      </trkpt>
      <trkpt lat="43.33282" lon="3.20993">
        <ele>71</ele>
        <time>2021-07-01T09:25:02.000Z</time>
      </trkpt>
      <trkpt lat="43.33289" lon="3.21003">
        <ele>70</ele>
        <time>2021-07-01T09:25:04.000Z</time>
      </trkpt>
      <trkpt lat="43.33295" lon="3.21013">
        <ele>70</ele>
        <time>2021-07-01T09:25:06.000Z</time>
      </trkpt>
      <trkpt lat="43.33304" lon="3.21027">
        <ele>70</ele>
        <time>2021-07-01T09:25:09.000Z</time>
      </trkpt>
      <trkpt lat="43.33313" lon="3.21039">
        <ele>70</ele>
        <time>2021-07-01T09:25:12.000Z</time>
      </trkpt>
      <trkpt lat="43.3332" lon="3.21049">
        <ele>70</ele>
        <time>2021-07-01T09:25:14.000Z</time>
      </trkpt>
      <trkpt lat="43.33329" lon="3.21062">
        <ele>70</ele>
        <time>2021-07-01T09:25:17.000Z</time>
      </trkpt>
      <trkpt lat="43.33335" lon="3.21072">
        <ele>70</ele>
        <time>2021-07-01T09:25:19.000Z</time>
      </trkpt>
      <trkpt lat="43.33342" lon="3.21087">
        <ele>71</ele>
        <time>2021-07-01T09:25:22.000Z</time>
      </trkpt>
      <trkpt lat="43.3335" lon="3.21098">
        <ele>71</ele>
        <time>2021-07-01T09:25:25.000Z</time>
      </trkpt>
      <trkpt lat="43.33359" lon="3.21111">
        <ele>70</ele>
        <time>2021-07-01T09:25:28.000Z</time>
      </trkpt>
      <trkpt lat="43.33369" lon="3.21123">
        <ele>70</ele>
        <time>2021-07-01T09:25:31.000Z</time>
      </trkpt>
      <trkpt lat="43.33376" lon="3.21134">
        <ele>70</ele>
        <time>2021-07-01T09:25:34.000Z</time>
      </trkpt>
      <trkpt lat="43.33383" lon="3.21145">
        <ele>71</ele>
        <time>2021-07-01T09:25:37.000Z</time>
      </trkpt>
      <trkpt lat="43.33394" lon="3.21163">
        <ele>70</ele>
        <time>2021-07-01T09:25:41.000Z</time>
      </trkpt>
      <trkpt lat="43.33401" lon="3.21174">
        <ele>69</ele>
        <time>2021-07-01T09:25:44.000Z</time>
      </trkpt>
      <trkpt lat="43.33408" lon="3.21183">
        <ele>70</ele>
        <time>2021-07-01T09:25:47.000Z</time>
      </trkpt>
      <trkpt lat="43.33414" lon="3.21194">
        <ele>70</ele>
        <time>2021-07-01T09:25:52.000Z</time>
      </trkpt>
      <trkpt lat="43.33421" lon="3.21203">
        <ele>68</ele>
        <time>2021-07-01T09:25:59.000Z</time>
      </trkpt>
      <trkpt lat="43.33417" lon="3.2119">
        <ele>64</ele>
        <time>2021-07-01T09:26:46.000Z</time>
      </trkpt>
      <trkpt lat="43.33417" lon="3.21203">
        <ele>67</ele>
        <time>2021-07-01T09:28:46.000Z</time>
      </trkpt>
      <trkpt lat="43.33425" lon="3.21209">
        <ele>63</ele>
        <time>2021-07-01T09:30:39.000Z</time>
      </trkpt>
      <trkpt lat="43.33424" lon="3.21223">
        <ele>63</ele>
        <time>2021-07-01T09:31:25.000Z</time>
      </trkpt>
      <trkpt lat="43.33431" lon="3.21234">
        <ele>62</ele>
        <time>2021-07-01T09:31:33.000Z</time>
      </trkpt>
      <trkpt lat="43.33443" lon="3.21248">
        <ele>63</ele>
        <time>2021-07-01T09:31:39.000Z</time>
      </trkpt>
      <trkpt lat="43.3345" lon="3.21257">
        <ele>62</ele>
        <time>2021-07-01T09:31:43.000Z</time>
      </trkpt>
      <trkpt lat="43.33456" lon="3.21267">
        <ele>63</ele>
        <time>2021-07-01T09:31:47.000Z</time>
      </trkpt>
      <trkpt lat="43.33463" lon="3.21277">
        <ele>63</ele>
        <time>2021-07-01T09:31:51.000Z</time>
      </trkpt>
      <trkpt lat="43.3347" lon="3.21288">
        <ele>63</ele>
        <time>2021-07-01T09:31:55.000Z</time>
      </trkpt>
      <trkpt lat="43.33478" lon="3.21299">
        <ele>64</ele>
        <time>2021-07-01T09:31:59.000Z</time>
      </trkpt>
      <trkpt lat="43.33484" lon="3.21308">
        <ele>64</ele>
        <time>2021-07-01T09:32:02.000Z</time>
      </trkpt>
      <trkpt lat="43.33491" lon="3.21317">
        <ele>65</ele>
        <time>2021-07-01T09:32:05.000Z</time>
      </trkpt>
      <trkpt lat="43.335" lon="3.21332">
        <ele>65</ele>
        <time>2021-07-01T09:32:10.000Z</time>
      </trkpt>
      <trkpt lat="43.33507" lon="3.21341">
        <ele>65</ele>
        <time>2021-07-01T09:32:13.000Z</time>
      </trkpt>
      <trkpt lat="43.33515" lon="3.21348">
        <ele>65</ele>
        <time>2021-07-01T09:32:17.000Z</time>
      </trkpt>
      <trkpt lat="43.33526" lon="3.21356">
        <ele>65</ele>
        <time>2021-07-01T09:32:23.000Z</time>
      </trkpt>
      <trkpt lat="43.33533" lon="3.21366">
        <ele>66</ele>
        <time>2021-07-01T09:32:27.000Z</time>
      </trkpt>
      <trkpt lat="43.33539" lon="3.21379">
        <ele>65</ele>
        <time>2021-07-01T09:32:32.000Z</time>
      </trkpt>
      <trkpt lat="43.33545" lon="3.21395">
        <ele>70</ele>
        <time>2021-07-01T09:35:14.000Z</time>
      </trkpt>
      <trkpt lat="43.33548" lon="3.2141">
        <ele>69</ele>
        <time>2021-07-01T09:35:19.000Z</time>
      </trkpt>
      <trkpt lat="43.33555" lon="3.21418">
        <ele>68</ele>
        <time>2021-07-01T09:36:14.000Z</time>
      </trkpt>
      <trkpt lat="43.33558" lon="3.2143">
        <ele>69</ele>
        <time>2021-07-01T09:36:19.000Z</time>
      </trkpt>
      <trkpt lat="43.3356" lon="3.21443">
        <ele>67</ele>
        <time>2021-07-01T09:36:23.000Z</time>
      </trkpt>
      <trkpt lat="43.33557" lon="3.21461">
        <ele>69</ele>
        <time>2021-07-01T09:36:29.000Z</time>
      </trkpt>
      <trkpt lat="43.33555" lon="3.21476">
        <ele>69</ele>
        <time>2021-07-01T09:36:33.000Z</time>
      </trkpt>
      <trkpt lat="43.33553" lon="3.2149">
        <ele>69</ele>
        <time>2021-07-01T09:36:36.000Z</time>
      </trkpt>
      <trkpt lat="43.33551" lon="3.21504">
        <ele>68</ele>
        <time>2021-07-01T09:36:40.000Z</time>
      </trkpt>
      <trkpt lat="43.33543" lon="3.21516">
        <ele>68</ele>
        <time>2021-07-01T09:36:44.000Z</time>
      </trkpt>
      <trkpt lat="43.33535" lon="3.21527">
        <ele>68</ele>
        <time>2021-07-01T09:36:48.000Z</time>
      </trkpt>
      <trkpt lat="43.3353" lon="3.21539">
        <ele>68</ele>
        <time>2021-07-01T09:36:51.000Z</time>
      </trkpt>
      <trkpt lat="43.33527" lon="3.21551">
        <ele>68</ele>
        <time>2021-07-01T09:36:54.000Z</time>
      </trkpt>
      <trkpt lat="43.33522" lon="3.21567">
        <ele>69</ele>
        <time>2021-07-01T09:36:59.000Z</time>
      </trkpt>
      <trkpt lat="43.33517" lon="3.2158">
        <ele>70</ele>
        <time>2021-07-01T09:37:03.000Z</time>
      </trkpt>
      <trkpt lat="43.33513" lon="3.21594">
        <ele>70</ele>
        <time>2021-07-01T09:37:07.000Z</time>
      </trkpt>
      <trkpt lat="43.33509" lon="3.21606">
        <ele>70</ele>
        <time>2021-07-01T09:37:16.000Z</time>
      </trkpt>
      <trkpt lat="43.33513" lon="3.21592">
        <ele>64</ele>
        <time>2021-07-01T09:38:49.000Z</time>
      </trkpt>
      <trkpt lat="43.33519" lon="3.21577">
        <ele>64</ele>
        <time>2021-07-01T09:38:54.000Z</time>
      </trkpt>
      <trkpt lat="43.33524" lon="3.21565">
        <ele>66</ele>
        <time>2021-07-01T09:38:58.000Z</time>
      </trkpt>
      <trkpt lat="43.33525" lon="3.21586">
        <ele>68</ele>
        <time>2021-07-01T09:39:09.000Z</time>
      </trkpt>
      <trkpt lat="43.33521" lon="3.21607">
        <ele>68</ele>
        <time>2021-07-01T09:39:13.000Z</time>
      </trkpt>
      <trkpt lat="43.33521" lon="3.21622">
        <ele>67</ele>
        <time>2021-07-01T09:39:16.000Z</time>
      </trkpt>
      <trkpt lat="43.33518" lon="3.21636">
        <ele>65</ele>
        <time>2021-07-01T09:39:20.000Z</time>
      </trkpt>
      <trkpt lat="43.33517" lon="3.21648">
        <ele>65</ele>
        <time>2021-07-01T09:39:25.000Z</time>
      </trkpt>
      <trkpt lat="43.33514" lon="3.2166">
        <ele>65</ele>
        <time>2021-07-01T09:39:28.000Z</time>
      </trkpt>
      <trkpt lat="43.33509" lon="3.21674">
        <ele>65</ele>
        <time>2021-07-01T09:39:32.000Z</time>
      </trkpt>
      <trkpt lat="43.33504" lon="3.21688">
        <ele>66</ele>
        <time>2021-07-01T09:39:35.000Z</time>
      </trkpt>
      <trkpt lat="43.33499" lon="3.21704">
        <ele>66</ele>
        <time>2021-07-01T09:39:39.000Z</time>
      </trkpt>
      <trkpt lat="43.33496" lon="3.21715">
        <ele>66</ele>
        <time>2021-07-01T09:39:42.000Z</time>
      </trkpt>
      <trkpt lat="43.33491" lon="3.21729">
        <ele>67</ele>
        <time>2021-07-01T09:39:45.000Z</time>
      </trkpt>
      <trkpt lat="43.33487" lon="3.21743">
        <ele>66</ele>
        <time>2021-07-01T09:39:48.000Z</time>
      </trkpt>
      <trkpt lat="43.33487" lon="3.21755">
        <ele>67</ele>
        <time>2021-07-01T09:39:51.000Z</time>
      </trkpt>
      <trkpt lat="43.33483" lon="3.21768">
        <ele>67</ele>
        <time>2021-07-01T09:39:54.000Z</time>
      </trkpt>
      <trkpt lat="43.33479" lon="3.2178">
        <ele>66</ele>
        <time>2021-07-01T09:39:59.000Z</time>
      </trkpt>
      <trkpt lat="43.33474" lon="3.21792">
        <ele>68</ele>
        <time>2021-07-01T09:40:02.000Z</time>
      </trkpt>
      <trkpt lat="43.3347" lon="3.21804">
        <ele>68</ele>
        <time>2021-07-01T09:40:05.000Z</time>
      </trkpt>
      <trkpt lat="43.33465" lon="3.21819">
        <ele>68</ele>
        <time>2021-07-01T09:40:09.000Z</time>
      </trkpt>
      <trkpt lat="43.33462" lon="3.21832">
        <ele>67</ele>
        <time>2021-07-01T09:40:12.000Z</time>
      </trkpt>
      <trkpt lat="43.33458" lon="3.21846">
        <ele>67</ele>
        <time>2021-07-01T09:40:16.000Z</time>
      </trkpt>
      <trkpt lat="43.33454" lon="3.21862">
        <ele>65</ele>
        <time>2021-07-01T09:40:22.000Z</time>
      </trkpt>
      <trkpt lat="43.33453" lon="3.21879">
        <ele>66</ele>
        <time>2021-07-01T09:40:31.000Z</time>
      </trkpt>
      <trkpt lat="43.3345" lon="3.21894">
        <ele>66</ele>
        <time>2021-07-01T09:40:35.000Z</time>
      </trkpt>
      <trkpt lat="43.33446" lon="3.21906">
        <ele>64</ele>
        <time>2021-07-01T09:40:39.000Z</time>
      </trkpt>
      <trkpt lat="43.33439" lon="3.2192">
        <ele>66</ele>
        <time>2021-07-01T09:40:43.000Z</time>
      </trkpt>
      <trkpt lat="43.33435" lon="3.21934">
        <ele>65</ele>
        <time>2021-07-01T09:40:47.000Z</time>
      </trkpt>
      <trkpt lat="43.3343" lon="3.21945">
        <ele>66</ele>
        <time>2021-07-01T09:40:52.000Z</time>
      </trkpt>
      <trkpt lat="43.33421" lon="3.2195">
        <ele>62</ele>
        <time>2021-07-01T09:41:13.000Z</time>
      </trkpt>
      <trkpt lat="43.33414" lon="3.21957">
        <ele>60</ele>
        <time>2021-07-01T09:41:55.000Z</time>
      </trkpt>
      <trkpt lat="43.33411" lon="3.2197">
        <ele>59</ele>
        <time>2021-07-01T09:41:58.000Z</time>
      </trkpt>
      <trkpt lat="43.33408" lon="3.21987">
        <ele>59</ele>
        <time>2021-07-01T09:42:02.000Z</time>
      </trkpt>
      <trkpt lat="43.33404" lon="3.21998">
        <ele>60</ele>
        <time>2021-07-01T09:42:05.000Z</time>
      </trkpt>
      <trkpt lat="43.334" lon="3.2201">
        <ele>60</ele>
        <time>2021-07-01T09:42:08.000Z</time>
      </trkpt>
      <trkpt lat="43.33395" lon="3.22027">
        <ele>60</ele>
        <time>2021-07-01T09:42:12.000Z</time>
      </trkpt>
      <trkpt lat="43.33391" lon="3.2204">
        <ele>59</ele>
        <time>2021-07-01T09:42:15.000Z</time>
      </trkpt>
      <trkpt lat="43.33387" lon="3.22053">
        <ele>60</ele>
        <time>2021-07-01T09:42:19.000Z</time>
      </trkpt>
      <trkpt lat="43.33381" lon="3.22064">
        <ele>61</ele>
        <time>2021-07-01T09:42:24.000Z</time>
      </trkpt>
      <trkpt lat="43.33373" lon="3.22074">
        <ele>61</ele>
        <time>2021-07-01T09:42:28.000Z</time>
      </trkpt>
      <trkpt lat="43.33367" lon="3.22084">
        <ele>61</ele>
        <time>2021-07-01T09:42:33.000Z</time>
      </trkpt>
      <trkpt lat="43.3336" lon="3.22096">
        <ele>61</ele>
        <time>2021-07-01T09:42:37.000Z</time>
      </trkpt>
      <trkpt lat="43.33357" lon="3.22114">
        <ele>58</ele>
        <time>2021-07-01T09:42:43.000Z</time>
      </trkpt>
      <trkpt lat="43.3336" lon="3.22126">
        <ele>58</ele>
        <time>2021-07-01T09:42:47.000Z</time>
      </trkpt>
      <trkpt lat="43.33364" lon="3.22139">
        <ele>59</ele>
        <time>2021-07-01T09:42:55.000Z</time>
      </trkpt>
      <trkpt lat="43.33359" lon="3.2215">
        <ele>61</ele>
        <time>2021-07-01T09:43:00.000Z</time>
      </trkpt>
      <trkpt lat="43.33358" lon="3.22163">
        <ele>63</ele>
        <time>2021-07-01T09:43:33.000Z</time>
      </trkpt>
      <trkpt lat="43.33351" lon="3.22153">
        <ele>55</ele>
        <time>2021-07-01T09:47:51.000Z</time>
      </trkpt>
      <trkpt lat="43.33355" lon="3.22164">
        <ele>56</ele>
        <time>2021-07-01T09:48:37.000Z</time>
      </trkpt>
      <trkpt lat="43.33353" lon="3.2218">
        <ele>58</ele>
        <time>2021-07-01T09:48:42.000Z</time>
      </trkpt>
      <trkpt lat="43.33349" lon="3.22192">
        <ele>58</ele>
        <time>2021-07-01T09:48:45.000Z</time>
      </trkpt>
      <trkpt lat="43.33345" lon="3.22203">
        <ele>58</ele>
        <time>2021-07-01T09:48:48.000Z</time>
      </trkpt>
      <trkpt lat="43.33339" lon="3.2222">
        <ele>59</ele>
        <time>2021-07-01T09:48:51.000Z</time>
      </trkpt>
      <trkpt lat="43.33335" lon="3.22236">
        <ele>60</ele>
        <time>2021-07-01T09:48:54.000Z</time>
      </trkpt>
      <trkpt lat="43.33331" lon="3.22254">
        <ele>60</ele>
        <time>2021-07-01T09:48:57.000Z</time>
      </trkpt>
      <trkpt lat="43.33328" lon="3.22274">
        <ele>60</ele>
        <time>2021-07-01T09:49:00.000Z</time>
      </trkpt>
      <trkpt lat="43.33325" lon="3.2229">
        <ele>60</ele>
        <time>2021-07-01T09:49:03.000Z</time>
      </trkpt>
      <trkpt lat="43.33324" lon="3.22307">
        <ele>60</ele>
        <time>2021-07-01T09:49:06.000Z</time>
      </trkpt>
      <trkpt lat="43.33322" lon="3.22324">
        <ele>60</ele>
        <time>2021-07-01T09:49:09.000Z</time>
      </trkpt>
      <trkpt lat="43.33319" lon="3.22336">
        <ele>58</ele>
        <time>2021-07-01T09:49:11.000Z</time>
      </trkpt>
      <trkpt lat="43.33317" lon="3.22352">
        <ele>60</ele>
        <time>2021-07-01T09:49:14.000Z</time>
      </trkpt>
      <trkpt lat="43.33315" lon="3.22368">
        <ele>60</ele>
        <time>2021-07-01T09:49:17.000Z</time>
      </trkpt>
      <trkpt lat="43.33317" lon="3.22381">
        <ele>60</ele>
        <time>2021-07-01T09:49:21.000Z</time>
      </trkpt>
      <trkpt lat="43.33318" lon="3.22394">
        <ele>60</ele>
        <time>2021-07-01T09:49:26.000Z</time>
      </trkpt>
      <trkpt lat="43.33313" lon="3.2241">
        <ele>61</ele>
        <time>2021-07-01T09:49:31.000Z</time>
      </trkpt>
      <trkpt lat="43.33307" lon="3.22422">
        <ele>61</ele>
        <time>2021-07-01T09:49:34.000Z</time>
      </trkpt>
      <trkpt lat="43.33301" lon="3.22431">
        <ele>60</ele>
        <time>2021-07-01T09:49:37.000Z</time>
      </trkpt>
      <trkpt lat="43.3329" lon="3.22432">
        <ele>60</ele>
        <time>2021-07-01T09:49:40.000Z</time>
      </trkpt>
      <trkpt lat="43.33278" lon="3.22428">
        <ele>60</ele>
        <time>2021-07-01T09:49:44.000Z</time>
      </trkpt>
      <trkpt lat="43.33269" lon="3.22427">
        <ele>59</ele>
        <time>2021-07-01T09:49:47.000Z</time>
      </trkpt>
      <trkpt lat="43.33257" lon="3.22438">
        <ele>59</ele>
        <time>2021-07-01T09:49:52.000Z</time>
      </trkpt>
      <trkpt lat="43.33254" lon="3.22455">
        <ele>59</ele>
        <time>2021-07-01T09:49:55.000Z</time>
      </trkpt>
      <trkpt lat="43.33252" lon="3.22472">
        <ele>60</ele>
        <time>2021-07-01T09:49:58.000Z</time>
      </trkpt>
      <trkpt lat="43.3325" lon="3.22491">
        <ele>60</ele>
        <time>2021-07-01T09:50:01.000Z</time>
      </trkpt>
      <trkpt lat="43.33247" lon="3.22509">
        <ele>60</ele>
        <time>2021-07-01T09:50:04.000Z</time>
      </trkpt>
      <trkpt lat="43.33245" lon="3.22521">
        <ele>60</ele>
        <time>2021-07-01T09:50:06.000Z</time>
      </trkpt>
      <trkpt lat="43.33242" lon="3.22534">
        <ele>61</ele>
        <time>2021-07-01T09:50:08.000Z</time>
      </trkpt>
      <trkpt lat="43.3324" lon="3.22547">
        <ele>60</ele>
        <time>2021-07-01T09:50:10.000Z</time>
      </trkpt>
      <trkpt lat="43.33233" lon="3.22574">
        <ele>60</ele>
        <time>2021-07-01T09:50:14.000Z</time>
      </trkpt>
      <trkpt lat="43.3323" lon="3.22587">
        <ele>60</ele>
        <time>2021-07-01T09:50:16.000Z</time>
      </trkpt>
      <trkpt lat="43.33228" lon="3.226">
        <ele>60</ele>
        <time>2021-07-01T09:50:18.000Z</time>
      </trkpt>
      <trkpt lat="43.33222" lon="3.2262">
        <ele>60</ele>
        <time>2021-07-01T09:50:21.000Z</time>
      </trkpt>
      <trkpt lat="43.33217" lon="3.22638">
        <ele>59</ele>
        <time>2021-07-01T09:50:24.000Z</time>
      </trkpt>
      <trkpt lat="43.33214" lon="3.2265">
        <ele>59</ele>
        <time>2021-07-01T09:50:26.000Z</time>
      </trkpt>
      <trkpt lat="43.3321" lon="3.22663">
        <ele>59</ele>
        <time>2021-07-01T09:50:28.000Z</time>
      </trkpt>
      <trkpt lat="43.33205" lon="3.22683">
        <ele>58</ele>
        <time>2021-07-01T09:50:31.000Z</time>
      </trkpt>
      <trkpt lat="43.33202" lon="3.22695">
        <ele>58</ele>
        <time>2021-07-01T09:50:33.000Z</time>
      </trkpt>
      <trkpt lat="43.33195" lon="3.2271">
        <ele>58</ele>
        <time>2021-07-01T09:50:36.000Z</time>
      </trkpt>
      <trkpt lat="43.3319" lon="3.22721">
        <ele>59</ele>
        <time>2021-07-01T09:50:38.000Z</time>
      </trkpt>
      <trkpt lat="43.33185" lon="3.22733">
        <ele>58</ele>
        <time>2021-07-01T09:50:40.000Z</time>
      </trkpt>
      <trkpt lat="43.3318" lon="3.22743">
        <ele>58</ele>
        <time>2021-07-01T09:50:42.000Z</time>
      </trkpt>
      <trkpt lat="43.33175" lon="3.22754">
        <ele>58</ele>
        <time>2021-07-01T09:50:44.000Z</time>
      </trkpt>
      <trkpt lat="43.3317" lon="3.22765">
        <ele>58</ele>
        <time>2021-07-01T09:50:46.000Z</time>
      </trkpt>
      <trkpt lat="43.33165" lon="3.22775">
        <ele>58</ele>
        <time>2021-07-01T09:50:48.000Z</time>
      </trkpt>
      <trkpt lat="43.33156" lon="3.22791">
        <ele>57</ele>
        <time>2021-07-01T09:50:51.000Z</time>
      </trkpt>
      <trkpt lat="43.33151" lon="3.22801">
        <ele>57</ele>
        <time>2021-07-01T09:50:53.000Z</time>
      </trkpt>
      <trkpt lat="43.33145" lon="3.22811">
        <ele>57</ele>
        <time>2021-07-01T09:50:55.000Z</time>
      </trkpt>
      <trkpt lat="43.33139" lon="3.22822">
        <ele>57</ele>
        <time>2021-07-01T09:50:57.000Z</time>
      </trkpt>
      <trkpt lat="43.3313" lon="3.22838">
        <ele>56</ele>
        <time>2021-07-01T09:51:00.000Z</time>
      </trkpt>
      <trkpt lat="43.33122" lon="3.22853">
        <ele>56</ele>
        <time>2021-07-01T09:51:03.000Z</time>
      </trkpt>
      <trkpt lat="43.33117" lon="3.22863">
        <ele>56</ele>
        <time>2021-07-01T09:51:05.000Z</time>
      </trkpt>
      <trkpt lat="43.33107" lon="3.22876">
        <ele>56</ele>
        <time>2021-07-01T09:51:08.000Z</time>
      </trkpt>
      <trkpt lat="43.33097" lon="3.2289">
        <ele>56</ele>
        <time>2021-07-01T09:51:11.000Z</time>
      </trkpt>
      <trkpt lat="43.33091" lon="3.22899">
        <ele>56</ele>
        <time>2021-07-01T09:51:13.000Z</time>
      </trkpt>
      <trkpt lat="43.33085" lon="3.22909">
        <ele>56</ele>
        <time>2021-07-01T09:51:15.000Z</time>
      </trkpt>
      <trkpt lat="43.33079" lon="3.22918">
        <ele>57</ele>
        <time>2021-07-01T09:51:17.000Z</time>
      </trkpt>
      <trkpt lat="43.33072" lon="3.22929">
        <ele>57</ele>
        <time>2021-07-01T09:51:19.000Z</time>
      </trkpt>
      <trkpt lat="43.33065" lon="3.22939">
        <ele>57</ele>
        <time>2021-07-01T09:51:21.000Z</time>
      </trkpt>
      <trkpt lat="43.33058" lon="3.22949">
        <ele>56</ele>
        <time>2021-07-01T09:51:23.000Z</time>
      </trkpt>
      <trkpt lat="43.33052" lon="3.22959">
        <ele>57</ele>
        <time>2021-07-01T09:51:25.000Z</time>
      </trkpt>
      <trkpt lat="43.33045" lon="3.22969">
        <ele>57</ele>
        <time>2021-07-01T09:51:27.000Z</time>
      </trkpt>
      <trkpt lat="43.33039" lon="3.22979">
        <ele>57</ele>
        <time>2021-07-01T09:51:29.000Z</time>
      </trkpt>
      <trkpt lat="43.33031" lon="3.22988">
        <ele>57</ele>
        <time>2021-07-01T09:51:31.000Z</time>
      </trkpt>
      <trkpt lat="43.33025" lon="3.22999">
        <ele>58</ele>
        <time>2021-07-01T09:51:33.000Z</time>
      </trkpt>
      <trkpt lat="43.33015" lon="3.23014">
        <ele>57</ele>
        <time>2021-07-01T09:51:36.000Z</time>
      </trkpt>
      <trkpt lat="43.33005" lon="3.23028">
        <ele>56</ele>
        <time>2021-07-01T09:51:39.000Z</time>
      </trkpt>
      <trkpt lat="43.32998" lon="3.23038">
        <ele>57</ele>
        <time>2021-07-01T09:51:41.000Z</time>
      </trkpt>
      <trkpt lat="43.32992" lon="3.23049">
        <ele>57</ele>
        <time>2021-07-01T09:51:43.000Z</time>
      </trkpt>
      <trkpt lat="43.32983" lon="3.23065">
        <ele>57</ele>
        <time>2021-07-01T09:51:46.000Z</time>
      </trkpt>
      <trkpt lat="43.32977" lon="3.23075">
        <ele>58</ele>
        <time>2021-07-01T09:51:48.000Z</time>
      </trkpt>
      <trkpt lat="43.32968" lon="3.23088">
        <ele>58</ele>
        <time>2021-07-01T09:51:51.000Z</time>
      </trkpt>
      <trkpt lat="43.32957" lon="3.23104">
        <ele>58</ele>
        <time>2021-07-01T09:51:54.000Z</time>
      </trkpt>
      <trkpt lat="43.32953" lon="3.23116">
        <ele>59</ele>
        <time>2021-07-01T09:51:56.000Z</time>
      </trkpt>
      <trkpt lat="43.32944" lon="3.23128">
        <ele>59</ele>
        <time>2021-07-01T09:51:59.000Z</time>
      </trkpt>
      <trkpt lat="43.32935" lon="3.23144">
        <ele>58</ele>
        <time>2021-07-01T09:52:03.000Z</time>
      </trkpt>
      <trkpt lat="43.32929" lon="3.23155">
        <ele>58</ele>
        <time>2021-07-01T09:52:06.000Z</time>
      </trkpt>
      <trkpt lat="43.32926" lon="3.23168">
        <ele>58</ele>
        <time>2021-07-01T09:52:10.000Z</time>
      </trkpt>
      <trkpt lat="43.32918" lon="3.23178">
        <ele>58</ele>
        <time>2021-07-01T09:52:14.000Z</time>
      </trkpt>
      <trkpt lat="43.32911" lon="3.23192">
        <ele>58</ele>
        <time>2021-07-01T09:52:17.000Z</time>
      </trkpt>
      <trkpt lat="43.32904" lon="3.23206">
        <ele>59</ele>
        <time>2021-07-01T09:52:20.000Z</time>
      </trkpt>
      <trkpt lat="43.32899" lon="3.23221">
        <ele>59</ele>
        <time>2021-07-01T09:52:23.000Z</time>
      </trkpt>
      <trkpt lat="43.32894" lon="3.23234">
        <ele>59</ele>
        <time>2021-07-01T09:52:26.000Z</time>
      </trkpt>
      <trkpt lat="43.32889" lon="3.23245">
        <ele>60</ele>
        <time>2021-07-01T09:52:28.000Z</time>
      </trkpt>
      <trkpt lat="43.32881" lon="3.23266">
        <ele>60</ele>
        <time>2021-07-01T09:52:32.000Z</time>
      </trkpt>
      <trkpt lat="43.32874" lon="3.23284">
        <ele>60</ele>
        <time>2021-07-01T09:52:35.000Z</time>
      </trkpt>
      <trkpt lat="43.32868" lon="3.23297">
        <ele>60</ele>
        <time>2021-07-01T09:52:37.000Z</time>
      </trkpt>
      <trkpt lat="43.32863" lon="3.23311">
        <ele>59</ele>
        <time>2021-07-01T09:52:39.000Z</time>
      </trkpt>
      <trkpt lat="43.3286" lon="3.23324">
        <ele>59</ele>
        <time>2021-07-01T09:52:41.000Z</time>
      </trkpt>
      <trkpt lat="43.32855" lon="3.23339">
        <ele>58</ele>
        <time>2021-07-01T09:52:43.000Z</time>
      </trkpt>
      <trkpt lat="43.32847" lon="3.23358">
        <ele>58</ele>
        <time>2021-07-01T09:52:46.000Z</time>
      </trkpt>
      <trkpt lat="43.32843" lon="3.23371">
        <ele>56</ele>
        <time>2021-07-01T09:52:48.000Z</time>
      </trkpt>
      <trkpt lat="43.32838" lon="3.23384">
        <ele>56</ele>
        <time>2021-07-01T09:52:50.000Z</time>
      </trkpt>
      <trkpt lat="43.32836" lon="3.23399">
        <ele>57</ele>
        <time>2021-07-01T09:52:52.000Z</time>
      </trkpt>
      <trkpt lat="43.32834" lon="3.23421">
        <ele>57</ele>
        <time>2021-07-01T09:52:55.000Z</time>
      </trkpt>
      <trkpt lat="43.32834" lon="3.23436">
        <ele>57</ele>
        <time>2021-07-01T09:52:57.000Z</time>
      </trkpt>
      <trkpt lat="43.32836" lon="3.23458">
        <ele>57</ele>
        <time>2021-07-01T09:53:00.000Z</time>
      </trkpt>
      <trkpt lat="43.32837" lon="3.23472">
        <ele>56</ele>
        <time>2021-07-01T09:53:02.000Z</time>
      </trkpt>
      <trkpt lat="43.32838" lon="3.23486">
        <ele>56</ele>
        <time>2021-07-01T09:53:04.000Z</time>
      </trkpt>
      <trkpt lat="43.32839" lon="3.235">
        <ele>56</ele>
        <time>2021-07-01T09:53:06.000Z</time>
      </trkpt>
      <trkpt lat="43.32839" lon="3.23522">
        <ele>56</ele>
        <time>2021-07-01T09:53:09.000Z</time>
      </trkpt>
      <trkpt lat="43.32841" lon="3.23535">
        <ele>56</ele>
        <time>2021-07-01T09:53:11.000Z</time>
      </trkpt>
      <trkpt lat="43.32841" lon="3.23556">
        <ele>56</ele>
        <time>2021-07-01T09:53:14.000Z</time>
      </trkpt>
      <trkpt lat="43.32842" lon="3.2357">
        <ele>56</ele>
        <time>2021-07-01T09:53:16.000Z</time>
      </trkpt>
      <trkpt lat="43.32842" lon="3.23582">
        <ele>56</ele>
        <time>2021-07-01T09:53:18.000Z</time>
      </trkpt>
      <trkpt lat="43.32842" lon="3.23601">
        <ele>56</ele>
        <time>2021-07-01T09:53:21.000Z</time>
      </trkpt>
      <trkpt lat="43.32842" lon="3.23615">
        <ele>57</ele>
        <time>2021-07-01T09:53:23.000Z</time>
      </trkpt>
      <trkpt lat="43.32841" lon="3.2363">
        <ele>56</ele>
        <time>2021-07-01T09:53:25.000Z</time>
      </trkpt>
      <trkpt lat="43.32841" lon="3.2365">
        <ele>55</ele>
        <time>2021-07-01T09:53:28.000Z</time>
      </trkpt>
      <trkpt lat="43.32839" lon="3.23668">
        <ele>55</ele>
        <time>2021-07-01T09:53:31.000Z</time>
      </trkpt>
      <trkpt lat="43.32839" lon="3.23681">
        <ele>55</ele>
        <time>2021-07-01T09:53:33.000Z</time>
      </trkpt>
      <trkpt lat="43.32838" lon="3.23694">
        <ele>55</ele>
        <time>2021-07-01T09:53:35.000Z</time>
      </trkpt>
      <trkpt lat="43.32838" lon="3.23715">
        <ele>55</ele>
        <time>2021-07-01T09:53:39.000Z</time>
      </trkpt>
      <trkpt lat="43.32836" lon="3.23729">
        <ele>55</ele>
        <time>2021-07-01T09:53:41.000Z</time>
      </trkpt>
      <trkpt lat="43.32835" lon="3.23743">
        <ele>55</ele>
        <time>2021-07-01T09:53:43.000Z</time>
      </trkpt>
      <trkpt lat="43.32832" lon="3.23762">
        <ele>55</ele>
        <time>2021-07-01T09:53:46.000Z</time>
      </trkpt>
      <trkpt lat="43.32831" lon="3.2378">
        <ele>55</ele>
        <time>2021-07-01T09:53:49.000Z</time>
      </trkpt>
      <trkpt lat="43.32829" lon="3.23797">
        <ele>56</ele>
        <time>2021-07-01T09:53:51.000Z</time>
      </trkpt>
      <trkpt lat="43.32827" lon="3.23813">
        <ele>56</ele>
        <time>2021-07-01T09:53:53.000Z</time>
      </trkpt>
      <trkpt lat="43.32827" lon="3.23835">
        <ele>57</ele>
        <time>2021-07-01T09:53:56.000Z</time>
      </trkpt>
      <trkpt lat="43.32824" lon="3.2385">
        <ele>57</ele>
        <time>2021-07-01T09:53:58.000Z</time>
      </trkpt>
      <trkpt lat="43.32822" lon="3.23863">
        <ele>57</ele>
        <time>2021-07-01T09:54:00.000Z</time>
      </trkpt>
      <trkpt lat="43.32818" lon="3.23886">
        <ele>56</ele>
        <time>2021-07-01T09:54:03.000Z</time>
      </trkpt>
      <trkpt lat="43.32816" lon="3.239">
        <ele>54</ele>
        <time>2021-07-01T09:54:05.000Z</time>
      </trkpt>
      <trkpt lat="43.32814" lon="3.23914">
        <ele>54</ele>
        <time>2021-07-01T09:54:07.000Z</time>
      </trkpt>
      <trkpt lat="43.32811" lon="3.23929">
        <ele>55</ele>
        <time>2021-07-01T09:54:09.000Z</time>
      </trkpt>
      <trkpt lat="43.32808" lon="3.23944">
        <ele>56</ele>
        <time>2021-07-01T09:54:11.000Z</time>
      </trkpt>
      <trkpt lat="43.32805" lon="3.23958">
        <ele>57</ele>
        <time>2021-07-01T09:54:13.000Z</time>
      </trkpt>
      <trkpt lat="43.32801" lon="3.2398">
        <ele>56</ele>
        <time>2021-07-01T09:54:16.000Z</time>
      </trkpt>
      <trkpt lat="43.32798" lon="3.23993">
        <ele>55</ele>
        <time>2021-07-01T09:54:18.000Z</time>
      </trkpt>
      <trkpt lat="43.32796" lon="3.24008">
        <ele>55</ele>
        <time>2021-07-01T09:54:20.000Z</time>
      </trkpt>
      <trkpt lat="43.32792" lon="3.2403">
        <ele>54</ele>
        <time>2021-07-01T09:54:23.000Z</time>
      </trkpt>
      <trkpt lat="43.32788" lon="3.24051">
        <ele>55</ele>
        <time>2021-07-01T09:54:26.000Z</time>
      </trkpt>
      <trkpt lat="43.32786" lon="3.24066">
        <ele>55</ele>
        <time>2021-07-01T09:54:28.000Z</time>
      </trkpt>
      <trkpt lat="43.32782" lon="3.2408">
        <ele>54</ele>
        <time>2021-07-01T09:54:30.000Z</time>
      </trkpt>
      <trkpt lat="43.32777" lon="3.241">
        <ele>55</ele>
        <time>2021-07-01T09:54:33.000Z</time>
      </trkpt>
      <trkpt lat="43.32775" lon="3.24114">
        <ele>56</ele>
        <time>2021-07-01T09:54:35.000Z</time>
      </trkpt>
      <trkpt lat="43.32773" lon="3.24129">
        <ele>54</ele>
        <time>2021-07-01T09:54:37.000Z</time>
      </trkpt>
      <trkpt lat="43.32767" lon="3.24148">
        <ele>55</ele>
        <time>2021-07-01T09:54:40.000Z</time>
      </trkpt>
      <trkpt lat="43.32764" lon="3.24161">
        <ele>56</ele>
        <time>2021-07-01T09:54:42.000Z</time>
      </trkpt>
      <trkpt lat="43.32762" lon="3.24173">
        <ele>56</ele>
        <time>2021-07-01T09:54:44.000Z</time>
      </trkpt>
      <trkpt lat="43.32758" lon="3.24187">
        <ele>57</ele>
        <time>2021-07-01T09:54:47.000Z</time>
      </trkpt>
      <trkpt lat="43.32754" lon="3.24199">
        <ele>57</ele>
        <time>2021-07-01T09:54:49.000Z</time>
      </trkpt>
      <trkpt lat="43.32746" lon="3.2422">
        <ele>56</ele>
        <time>2021-07-01T09:54:52.000Z</time>
      </trkpt>
      <trkpt lat="43.32741" lon="3.24232">
        <ele>57</ele>
        <time>2021-07-01T09:54:54.000Z</time>
      </trkpt>
      <trkpt lat="43.32736" lon="3.24246">
        <ele>57</ele>
        <time>2021-07-01T09:54:56.000Z</time>
      </trkpt>
      <trkpt lat="43.32732" lon="3.2426">
        <ele>57</ele>
        <time>2021-07-01T09:54:58.000Z</time>
      </trkpt>
      <trkpt lat="43.32722" lon="3.2428">
        <ele>55</ele>
        <time>2021-07-01T09:55:01.000Z</time>
      </trkpt>
      <trkpt lat="43.32718" lon="3.24292">
        <ele>52</ele>
        <time>2021-07-01T09:55:03.000Z</time>
      </trkpt>
      <trkpt lat="43.32714" lon="3.24303">
        <ele>53</ele>
        <time>2021-07-01T09:55:05.000Z</time>
      </trkpt>
      <trkpt lat="43.32701" lon="3.24323">
        <ele>53</ele>
        <time>2021-07-01T09:55:08.000Z</time>
      </trkpt>
      <trkpt lat="43.32692" lon="3.24338">
        <ele>52</ele>
        <time>2021-07-01T09:55:10.000Z</time>
      </trkpt>
      <trkpt lat="43.32684" lon="3.2435">
        <ele>53</ele>
        <time>2021-07-01T09:55:12.000Z</time>
      </trkpt>
      <trkpt lat="43.32674" lon="3.24363">
        <ele>54</ele>
        <time>2021-07-01T09:55:15.000Z</time>
      </trkpt>
      <trkpt lat="43.32668" lon="3.24373">
        <ele>53</ele>
        <time>2021-07-01T09:55:17.000Z</time>
      </trkpt>
      <trkpt lat="43.32661" lon="3.24382">
        <ele>53</ele>
        <time>2021-07-01T09:55:19.000Z</time>
      </trkpt>
      <trkpt lat="43.32652" lon="3.24395">
        <ele>54</ele>
        <time>2021-07-01T09:55:22.000Z</time>
      </trkpt>
      <trkpt lat="43.32645" lon="3.24404">
        <ele>55</ele>
        <time>2021-07-01T09:55:24.000Z</time>
      </trkpt>
      <trkpt lat="43.32638" lon="3.24416">
        <ele>55</ele>
        <time>2021-07-01T09:55:26.000Z</time>
      </trkpt>
      <trkpt lat="43.32631" lon="3.24425">
        <ele>54</ele>
        <time>2021-07-01T09:55:28.000Z</time>
      </trkpt>
      <trkpt lat="43.32623" lon="3.24434">
        <ele>54</ele>
        <time>2021-07-01T09:55:30.000Z</time>
      </trkpt>
      <trkpt lat="43.32616" lon="3.24444">
        <ele>55</ele>
        <time>2021-07-01T09:55:32.000Z</time>
      </trkpt>
      <trkpt lat="43.32608" lon="3.24452">
        <ele>55</ele>
        <time>2021-07-01T09:55:34.000Z</time>
      </trkpt>
      <trkpt lat="43.326" lon="3.24461">
        <ele>54</ele>
        <time>2021-07-01T09:55:36.000Z</time>
      </trkpt>
      <trkpt lat="43.32592" lon="3.2447">
        <ele>54</ele>
        <time>2021-07-01T09:55:38.000Z</time>
      </trkpt>
      <trkpt lat="43.3258" lon="3.24484">
        <ele>55</ele>
        <time>2021-07-01T09:55:41.000Z</time>
      </trkpt>
      <trkpt lat="43.32571" lon="3.24493">
        <ele>55</ele>
        <time>2021-07-01T09:55:43.000Z</time>
      </trkpt>
      <trkpt lat="43.32562" lon="3.24501">
        <ele>55</ele>
        <time>2021-07-01T09:55:45.000Z</time>
      </trkpt>
      <trkpt lat="43.32553" lon="3.24509">
        <ele>55</ele>
        <time>2021-07-01T09:55:47.000Z</time>
      </trkpt>
      <trkpt lat="43.3254" lon="3.24523">
        <ele>56</ele>
        <time>2021-07-01T09:55:50.000Z</time>
      </trkpt>
      <trkpt lat="43.3253" lon="3.24533">
        <ele>56</ele>
        <time>2021-07-01T09:55:52.000Z</time>
      </trkpt>
      <trkpt lat="43.32522" lon="3.24541">
        <ele>56</ele>
        <time>2021-07-01T09:55:54.000Z</time>
      </trkpt>
      <trkpt lat="43.32512" lon="3.24548">
        <ele>56</ele>
        <time>2021-07-01T09:55:56.000Z</time>
      </trkpt>
      <trkpt lat="43.32495" lon="3.24562">
        <ele>57</ele>
        <time>2021-07-01T09:55:59.000Z</time>
      </trkpt>
      <trkpt lat="43.32484" lon="3.24571">
        <ele>57</ele>
        <time>2021-07-01T09:56:01.000Z</time>
      </trkpt>
      <trkpt lat="43.32474" lon="3.24579">
        <ele>57</ele>
        <time>2021-07-01T09:56:03.000Z</time>
      </trkpt>
      <trkpt lat="43.32463" lon="3.24588">
        <ele>56</ele>
        <time>2021-07-01T09:56:05.000Z</time>
      </trkpt>
      <trkpt lat="43.32454" lon="3.24597">
        <ele>56</ele>
        <time>2021-07-01T09:56:07.000Z</time>
      </trkpt>
      <trkpt lat="43.32446" lon="3.24606">
        <ele>56</ele>
        <time>2021-07-01T09:56:09.000Z</time>
      </trkpt>
      <trkpt lat="43.32437" lon="3.24615">
        <ele>55</ele>
        <time>2021-07-01T09:56:11.000Z</time>
      </trkpt>
      <trkpt lat="43.32428" lon="3.24625">
        <ele>55</ele>
        <time>2021-07-01T09:56:13.000Z</time>
      </trkpt>
      <trkpt lat="43.3242" lon="3.24635">
        <ele>56</ele>
        <time>2021-07-01T09:56:15.000Z</time>
      </trkpt>
      <trkpt lat="43.32407" lon="3.2465">
        <ele>55</ele>
        <time>2021-07-01T09:56:18.000Z</time>
      </trkpt>
      <trkpt lat="43.32399" lon="3.24661">
        <ele>54</ele>
        <time>2021-07-01T09:56:20.000Z</time>
      </trkpt>
      <trkpt lat="43.32392" lon="3.24673">
        <ele>53</ele>
        <time>2021-07-01T09:56:22.000Z</time>
      </trkpt>
      <trkpt lat="43.32385" lon="3.24686">
        <ele>54</ele>
        <time>2021-07-01T09:56:24.000Z</time>
      </trkpt>
      <trkpt lat="43.32379" lon="3.24699">
        <ele>54</ele>
        <time>2021-07-01T09:56:26.000Z</time>
      </trkpt>
      <trkpt lat="43.32373" lon="3.24712">
        <ele>54</ele>
        <time>2021-07-01T09:56:28.000Z</time>
      </trkpt>
      <trkpt lat="43.32367" lon="3.24725">
        <ele>54</ele>
        <time>2021-07-01T09:56:30.000Z</time>
      </trkpt>
      <trkpt lat="43.32363" lon="3.2474">
        <ele>53</ele>
        <time>2021-07-01T09:56:32.000Z</time>
      </trkpt>
      <trkpt lat="43.32359" lon="3.24753">
        <ele>53</ele>
        <time>2021-07-01T09:56:34.000Z</time>
      </trkpt>
      <trkpt lat="43.32352" lon="3.24766">
        <ele>54</ele>
        <time>2021-07-01T09:56:36.000Z</time>
      </trkpt>
      <trkpt lat="43.32345" lon="3.24778">
        <ele>53</ele>
        <time>2021-07-01T09:56:38.000Z</time>
      </trkpt>
      <trkpt lat="43.32341" lon="3.24792">
        <ele>53</ele>
        <time>2021-07-01T09:56:40.000Z</time>
      </trkpt>
      <trkpt lat="43.32337" lon="3.24806">
        <ele>54</ele>
        <time>2021-07-01T09:56:42.000Z</time>
      </trkpt>
      <trkpt lat="43.32333" lon="3.24827">
        <ele>54</ele>
        <time>2021-07-01T09:56:45.000Z</time>
      </trkpt>
      <trkpt lat="43.3233" lon="3.24841">
        <ele>55</ele>
        <time>2021-07-01T09:56:47.000Z</time>
      </trkpt>
      <trkpt lat="43.32327" lon="3.24856">
        <ele>56</ele>
        <time>2021-07-01T09:56:49.000Z</time>
      </trkpt>
      <trkpt lat="43.32325" lon="3.2487">
        <ele>56</ele>
        <time>2021-07-01T09:56:51.000Z</time>
      </trkpt>
      <trkpt lat="43.32323" lon="3.24883">
        <ele>56</ele>
        <time>2021-07-01T09:56:53.000Z</time>
      </trkpt>
      <trkpt lat="43.32321" lon="3.24898">
        <ele>56</ele>
        <time>2021-07-01T09:56:55.000Z</time>
      </trkpt>
      <trkpt lat="43.32321" lon="3.24913">
        <ele>56</ele>
        <time>2021-07-01T09:56:57.000Z</time>
      </trkpt>
      <trkpt lat="43.32321" lon="3.24929">
        <ele>56</ele>
        <time>2021-07-01T09:56:59.000Z</time>
      </trkpt>
      <trkpt lat="43.3232" lon="3.24944">
        <ele>56</ele>
        <time>2021-07-01T09:57:01.000Z</time>
      </trkpt>
      <trkpt lat="43.3232" lon="3.24959">
        <ele>56</ele>
        <time>2021-07-01T09:57:03.000Z</time>
      </trkpt>
      <trkpt lat="43.32319" lon="3.24975">
        <ele>56</ele>
        <time>2021-07-01T09:57:05.000Z</time>
      </trkpt>
      <trkpt lat="43.32319" lon="3.2499">
        <ele>55</ele>
        <time>2021-07-01T09:57:07.000Z</time>
      </trkpt>
      <trkpt lat="43.32319" lon="3.25004">
        <ele>56</ele>
        <time>2021-07-01T09:57:09.000Z</time>
      </trkpt>
      <trkpt lat="43.3232" lon="3.2502">
        <ele>56</ele>
        <time>2021-07-01T09:57:11.000Z</time>
      </trkpt>
      <trkpt lat="43.3232" lon="3.25036">
        <ele>57</ele>
        <time>2021-07-01T09:57:13.000Z</time>
      </trkpt>
      <trkpt lat="43.32321" lon="3.25051">
        <ele>56</ele>
        <time>2021-07-01T09:57:15.000Z</time>
      </trkpt>
      <trkpt lat="43.32321" lon="3.25067">
        <ele>56</ele>
        <time>2021-07-01T09:57:17.000Z</time>
      </trkpt>
      <trkpt lat="43.32322" lon="3.25082">
        <ele>57</ele>
        <time>2021-07-01T09:57:19.000Z</time>
      </trkpt>
      <trkpt lat="43.32322" lon="3.25097">
        <ele>56</ele>
        <time>2021-07-01T09:57:21.000Z</time>
      </trkpt>
      <trkpt lat="43.32323" lon="3.25113">
        <ele>56</ele>
        <time>2021-07-01T09:57:23.000Z</time>
      </trkpt>
      <trkpt lat="43.32323" lon="3.2513">
        <ele>54</ele>
        <time>2021-07-01T09:57:25.000Z</time>
      </trkpt>
      <trkpt lat="43.32324" lon="3.25145">
        <ele>54</ele>
        <time>2021-07-01T09:57:27.000Z</time>
      </trkpt>
      <trkpt lat="43.32325" lon="3.2516">
        <ele>55</ele>
        <time>2021-07-01T09:57:29.000Z</time>
      </trkpt>
      <trkpt lat="43.32325" lon="3.25176">
        <ele>53</ele>
        <time>2021-07-01T09:57:31.000Z</time>
      </trkpt>
      <trkpt lat="43.32327" lon="3.25191">
        <ele>53</ele>
        <time>2021-07-01T09:57:33.000Z</time>
      </trkpt>
      <trkpt lat="43.32327" lon="3.25206">
        <ele>54</ele>
        <time>2021-07-01T09:57:35.000Z</time>
      </trkpt>
      <trkpt lat="43.32327" lon="3.25222">
        <ele>55</ele>
        <time>2021-07-01T09:57:37.000Z</time>
      </trkpt>
      <trkpt lat="43.32328" lon="3.25246">
        <ele>55</ele>
        <time>2021-07-01T09:57:40.000Z</time>
      </trkpt>
      <trkpt lat="43.32328" lon="3.25261">
        <ele>54</ele>
        <time>2021-07-01T09:57:42.000Z</time>
      </trkpt>
      <trkpt lat="43.32328" lon="3.25276">
        <ele>55</ele>
        <time>2021-07-01T09:57:44.000Z</time>
      </trkpt>
      <trkpt lat="43.32329" lon="3.25292">
        <ele>54</ele>
        <time>2021-07-01T09:57:46.000Z</time>
      </trkpt>
      <trkpt lat="43.32328" lon="3.25307">
        <ele>54</ele>
        <time>2021-07-01T09:57:48.000Z</time>
      </trkpt>
      <trkpt lat="43.32329" lon="3.25323">
        <ele>52</ele>
        <time>2021-07-01T09:57:50.000Z</time>
      </trkpt>
      <trkpt lat="43.3233" lon="3.25345">
        <ele>53</ele>
        <time>2021-07-01T09:57:53.000Z</time>
      </trkpt>
      <trkpt lat="43.3233" lon="3.25361">
        <ele>54</ele>
        <time>2021-07-01T09:57:55.000Z</time>
      </trkpt>
      <trkpt lat="43.32331" lon="3.25378">
        <ele>54</ele>
        <time>2021-07-01T09:57:57.000Z</time>
      </trkpt>
      <trkpt lat="43.32331" lon="3.25394">
        <ele>54</ele>
        <time>2021-07-01T09:57:59.000Z</time>
      </trkpt>
      <trkpt lat="43.32331" lon="3.25409">
        <ele>54</ele>
        <time>2021-07-01T09:58:01.000Z</time>
      </trkpt>
      <trkpt lat="43.32332" lon="3.25425">
        <ele>55</ele>
        <time>2021-07-01T09:58:03.000Z</time>
      </trkpt>
      <trkpt lat="43.32332" lon="3.25441">
        <ele>56</ele>
        <time>2021-07-01T09:58:05.000Z</time>
      </trkpt>
      <trkpt lat="43.32333" lon="3.25456">
        <ele>56</ele>
        <time>2021-07-01T09:58:07.000Z</time>
      </trkpt>
      <trkpt lat="43.32334" lon="3.25473">
        <ele>56</ele>
        <time>2021-07-01T09:58:09.000Z</time>
      </trkpt>
      <trkpt lat="43.32335" lon="3.2549">
        <ele>55</ele>
        <time>2021-07-01T09:58:11.000Z</time>
      </trkpt>
      <trkpt lat="43.32335" lon="3.25506">
        <ele>55</ele>
        <time>2021-07-01T09:58:13.000Z</time>
      </trkpt>
      <trkpt lat="43.32335" lon="3.25521">
        <ele>56</ele>
        <time>2021-07-01T09:58:15.000Z</time>
      </trkpt>
      <trkpt lat="43.32335" lon="3.25537">
        <ele>56</ele>
        <time>2021-07-01T09:58:17.000Z</time>
      </trkpt>
      <trkpt lat="43.32337" lon="3.25553">
        <ele>56</ele>
        <time>2021-07-01T09:58:19.000Z</time>
      </trkpt>
      <trkpt lat="43.32337" lon="3.25569">
        <ele>56</ele>
        <time>2021-07-01T09:58:21.000Z</time>
      </trkpt>
      <trkpt lat="43.32337" lon="3.25585">
        <ele>56</ele>
        <time>2021-07-01T09:58:23.000Z</time>
      </trkpt>
      <trkpt lat="43.32338" lon="3.25611">
        <ele>56</ele>
        <time>2021-07-01T09:58:26.000Z</time>
      </trkpt>
      <trkpt lat="43.32339" lon="3.25627">
        <ele>57</ele>
        <time>2021-07-01T09:58:28.000Z</time>
      </trkpt>
      <trkpt lat="43.32339" lon="3.25644">
        <ele>57</ele>
        <time>2021-07-01T09:58:30.000Z</time>
      </trkpt>
      <trkpt lat="43.32339" lon="3.2566">
        <ele>57</ele>
        <time>2021-07-01T09:58:32.000Z</time>
      </trkpt>
      <trkpt lat="43.32339" lon="3.25686">
        <ele>56</ele>
        <time>2021-07-01T09:58:35.000Z</time>
      </trkpt>
      <trkpt lat="43.32338" lon="3.25704">
        <ele>56</ele>
        <time>2021-07-01T09:58:37.000Z</time>
      </trkpt>
      <trkpt lat="43.32337" lon="3.2572">
        <ele>57</ele>
        <time>2021-07-01T09:58:39.000Z</time>
      </trkpt>
      <trkpt lat="43.32337" lon="3.25736">
        <ele>56</ele>
        <time>2021-07-01T09:58:41.000Z</time>
      </trkpt>
      <trkpt lat="43.32336" lon="3.25761">
        <ele>55</ele>
        <time>2021-07-01T09:58:44.000Z</time>
      </trkpt>
      <trkpt lat="43.32334" lon="3.25778">
        <ele>55</ele>
        <time>2021-07-01T09:58:46.000Z</time>
      </trkpt>
      <trkpt lat="43.32333" lon="3.25795">
        <ele>55</ele>
        <time>2021-07-01T09:58:48.000Z</time>
      </trkpt>
      <trkpt lat="43.32331" lon="3.25811">
        <ele>57</ele>
        <time>2021-07-01T09:58:50.000Z</time>
      </trkpt>
      <trkpt lat="43.32329" lon="3.25827">
        <ele>56</ele>
        <time>2021-07-01T09:58:52.000Z</time>
      </trkpt>
      <trkpt lat="43.32328" lon="3.25845">
        <ele>57</ele>
        <time>2021-07-01T09:58:54.000Z</time>
      </trkpt>
      <trkpt lat="43.32324" lon="3.2587">
        <ele>57</ele>
        <time>2021-07-01T09:58:57.000Z</time>
      </trkpt>
      <trkpt lat="43.32321" lon="3.25887">
        <ele>57</ele>
        <time>2021-07-01T09:58:59.000Z</time>
      </trkpt>
      <trkpt lat="43.32319" lon="3.25903">
        <ele>57</ele>
        <time>2021-07-01T09:59:01.000Z</time>
      </trkpt>
      <trkpt lat="43.32317" lon="3.2592">
        <ele>57</ele>
        <time>2021-07-01T09:59:03.000Z</time>
      </trkpt>
      <trkpt lat="43.32314" lon="3.25936">
        <ele>57</ele>
        <time>2021-07-01T09:59:05.000Z</time>
      </trkpt>
      <trkpt lat="43.32312" lon="3.25953">
        <ele>58</ele>
        <time>2021-07-01T09:59:07.000Z</time>
      </trkpt>
      <trkpt lat="43.3231" lon="3.25972">
        <ele>59</ele>
        <time>2021-07-01T09:59:09.000Z</time>
      </trkpt>
      <trkpt lat="43.32307" lon="3.2599">
        <ele>57</ele>
        <time>2021-07-01T09:59:11.000Z</time>
      </trkpt>
      <trkpt lat="43.32305" lon="3.26007">
        <ele>57</ele>
        <time>2021-07-01T09:59:13.000Z</time>
      </trkpt>
      <trkpt lat="43.32303" lon="3.26024">
        <ele>56</ele>
        <time>2021-07-01T09:59:15.000Z</time>
      </trkpt>
      <trkpt lat="43.32301" lon="3.26041">
        <ele>56</ele>
        <time>2021-07-01T09:59:17.000Z</time>
      </trkpt>
      <trkpt lat="43.32298" lon="3.26058">
        <ele>55</ele>
        <time>2021-07-01T09:59:19.000Z</time>
      </trkpt>
      <trkpt lat="43.32298" lon="3.26074">
        <ele>55</ele>
        <time>2021-07-01T09:59:21.000Z</time>
      </trkpt>
      <trkpt lat="43.32297" lon="3.26088">
        <ele>56</ele>
        <time>2021-07-01T09:59:23.000Z</time>
      </trkpt>
      <trkpt lat="43.32295" lon="3.26103">
        <ele>57</ele>
        <time>2021-07-01T09:59:25.000Z</time>
      </trkpt>
      <trkpt lat="43.32292" lon="3.2612">
        <ele>57</ele>
        <time>2021-07-01T09:59:27.000Z</time>
      </trkpt>
      <trkpt lat="43.3229" lon="3.26137">
        <ele>57</ele>
        <time>2021-07-01T09:59:29.000Z</time>
      </trkpt>
      <trkpt lat="43.32286" lon="3.26162">
        <ele>57</ele>
        <time>2021-07-01T09:59:32.000Z</time>
      </trkpt>
      <trkpt lat="43.32283" lon="3.26179">
        <ele>57</ele>
        <time>2021-07-01T09:59:34.000Z</time>
      </trkpt>
      <trkpt lat="43.32281" lon="3.26196">
        <ele>57</ele>
        <time>2021-07-01T09:59:36.000Z</time>
      </trkpt>
      <trkpt lat="43.3228" lon="3.26213">
        <ele>57</ele>
        <time>2021-07-01T09:59:38.000Z</time>
      </trkpt>
      <trkpt lat="43.32279" lon="3.2623">
        <ele>56</ele>
        <time>2021-07-01T09:59:40.000Z</time>
      </trkpt>
      <trkpt lat="43.32276" lon="3.26246">
        <ele>56</ele>
        <time>2021-07-01T09:59:42.000Z</time>
      </trkpt>
      <trkpt lat="43.32272" lon="3.26262">
        <ele>56</ele>
        <time>2021-07-01T09:59:44.000Z</time>
      </trkpt>
      <trkpt lat="43.3227" lon="3.26277">
        <ele>56</ele>
        <time>2021-07-01T09:59:46.000Z</time>
      </trkpt>
      <trkpt lat="43.32267" lon="3.26294">
        <ele>56</ele>
        <time>2021-07-01T09:59:48.000Z</time>
      </trkpt>
      <trkpt lat="43.32265" lon="3.2631">
        <ele>56</ele>
        <time>2021-07-01T09:59:50.000Z</time>
      </trkpt>
      <trkpt lat="43.32263" lon="3.26325">
        <ele>55</ele>
        <time>2021-07-01T09:59:52.000Z</time>
      </trkpt>
      <trkpt lat="43.3226" lon="3.2635">
        <ele>57</ele>
        <time>2021-07-01T09:59:55.000Z</time>
      </trkpt>
      <trkpt lat="43.32259" lon="3.26367">
        <ele>58</ele>
        <time>2021-07-01T09:59:57.000Z</time>
      </trkpt>
      <trkpt lat="43.32257" lon="3.26384">
        <ele>56</ele>
        <time>2021-07-01T09:59:59.000Z</time>
      </trkpt>
      <trkpt lat="43.32255" lon="3.264">
        <ele>55</ele>
        <time>2021-07-01T10:00:01.000Z</time>
      </trkpt>
      <trkpt lat="43.32252" lon="3.26417">
        <ele>57</ele>
        <time>2021-07-01T10:00:03.000Z</time>
      </trkpt>
      <trkpt lat="43.32251" lon="3.26434">
        <ele>57</ele>
        <time>2021-07-01T10:00:05.000Z</time>
      </trkpt>
      <trkpt lat="43.32249" lon="3.2645">
        <ele>57</ele>
        <time>2021-07-01T10:00:07.000Z</time>
      </trkpt>
      <trkpt lat="43.32247" lon="3.26467">
        <ele>56</ele>
        <time>2021-07-01T10:00:09.000Z</time>
      </trkpt>
      <trkpt lat="43.32245" lon="3.26484">
        <ele>56</ele>
        <time>2021-07-01T10:00:11.000Z</time>
      </trkpt>
      <trkpt lat="43.32242" lon="3.265">
        <ele>56</ele>
        <time>2021-07-01T10:00:13.000Z</time>
      </trkpt>
      <trkpt lat="43.3224" lon="3.26517">
        <ele>56</ele>
        <time>2021-07-01T10:00:15.000Z</time>
      </trkpt>
      <trkpt lat="43.32237" lon="3.26533">
        <ele>56</ele>
        <time>2021-07-01T10:00:17.000Z</time>
      </trkpt>
      <trkpt lat="43.32234" lon="3.26548">
        <ele>56</ele>
        <time>2021-07-01T10:00:19.000Z</time>
      </trkpt>
      <trkpt lat="43.32232" lon="3.26565">
        <ele>56</ele>
        <time>2021-07-01T10:00:21.000Z</time>
      </trkpt>
      <trkpt lat="43.32229" lon="3.26581">
        <ele>56</ele>
        <time>2021-07-01T10:00:23.000Z</time>
      </trkpt>
      <trkpt lat="43.32226" lon="3.26598">
        <ele>55</ele>
        <time>2021-07-01T10:00:25.000Z</time>
      </trkpt>
      <trkpt lat="43.32223" lon="3.26625">
        <ele>55</ele>
        <time>2021-07-01T10:00:28.000Z</time>
      </trkpt>
      <trkpt lat="43.32218" lon="3.26651">
        <ele>55</ele>
        <time>2021-07-01T10:00:31.000Z</time>
      </trkpt>
      <trkpt lat="43.32215" lon="3.26668">
        <ele>54</ele>
        <time>2021-07-01T10:00:33.000Z</time>
      </trkpt>
      <trkpt lat="43.32212" lon="3.26685">
        <ele>54</ele>
        <time>2021-07-01T10:00:35.000Z</time>
      </trkpt>
      <trkpt lat="43.32208" lon="3.2671">
        <ele>53</ele>
        <time>2021-07-01T10:00:38.000Z</time>
      </trkpt>
      <trkpt lat="43.32204" lon="3.26726">
        <ele>52</ele>
        <time>2021-07-01T10:00:40.000Z</time>
      </trkpt>
      <trkpt lat="43.32201" lon="3.26739">
        <ele>52</ele>
        <time>2021-07-01T10:00:42.000Z</time>
      </trkpt>
      <trkpt lat="43.32197" lon="3.26753">
        <ele>52</ele>
        <time>2021-07-01T10:00:44.000Z</time>
      </trkpt>
      <trkpt lat="43.32194" lon="3.26769">
        <ele>52</ele>
        <time>2021-07-01T10:00:46.000Z</time>
      </trkpt>
      <trkpt lat="43.32192" lon="3.26785">
        <ele>52</ele>
        <time>2021-07-01T10:00:48.000Z</time>
      </trkpt>
      <trkpt lat="43.32189" lon="3.26798">
        <ele>52</ele>
        <time>2021-07-01T10:00:50.000Z</time>
      </trkpt>
      <trkpt lat="43.32182" lon="3.26809">
        <ele>53</ele>
        <time>2021-07-01T10:00:52.000Z</time>
      </trkpt>
      <trkpt lat="43.32175" lon="3.26824">
        <ele>53</ele>
        <time>2021-07-01T10:00:54.000Z</time>
      </trkpt>
      <trkpt lat="43.32169" lon="3.26841">
        <ele>52</ele>
        <time>2021-07-01T10:00:56.000Z</time>
      </trkpt>
      <trkpt lat="43.32163" lon="3.26857">
        <ele>53</ele>
        <time>2021-07-01T10:00:58.000Z</time>
      </trkpt>
      <trkpt lat="43.32158" lon="3.26872">
        <ele>53</ele>
        <time>2021-07-01T10:01:00.000Z</time>
      </trkpt>
      <trkpt lat="43.32152" lon="3.26887">
        <ele>54</ele>
        <time>2021-07-01T10:01:02.000Z</time>
      </trkpt>
      <trkpt lat="43.32146" lon="3.26902">
        <ele>54</ele>
        <time>2021-07-01T10:01:04.000Z</time>
      </trkpt>
      <trkpt lat="43.32141" lon="3.26917">
        <ele>53</ele>
        <time>2021-07-01T10:01:06.000Z</time>
      </trkpt>
      <trkpt lat="43.32134" lon="3.26941">
        <ele>53</ele>
        <time>2021-07-01T10:01:09.000Z</time>
      </trkpt>
      <trkpt lat="43.32129" lon="3.26955">
        <ele>53</ele>
        <time>2021-07-01T10:01:11.000Z</time>
      </trkpt>
      <trkpt lat="43.3212" lon="3.26977">
        <ele>50</ele>
        <time>2021-07-01T10:01:14.000Z</time>
      </trkpt>
      <trkpt lat="43.32115" lon="3.26991">
        <ele>50</ele>
        <time>2021-07-01T10:01:16.000Z</time>
      </trkpt>
      <trkpt lat="43.3211" lon="3.27005">
        <ele>52</ele>
        <time>2021-07-01T10:01:18.000Z</time>
      </trkpt>
      <trkpt lat="43.32106" lon="3.2702">
        <ele>52</ele>
        <time>2021-07-01T10:01:20.000Z</time>
      </trkpt>
      <trkpt lat="43.32101" lon="3.27035">
        <ele>52</ele>
        <time>2021-07-01T10:01:22.000Z</time>
      </trkpt>
      <trkpt lat="43.32096" lon="3.27049">
        <ele>52</ele>
        <time>2021-07-01T10:01:24.000Z</time>
      </trkpt>
      <trkpt lat="43.3209" lon="3.27063">
        <ele>52</ele>
        <time>2021-07-01T10:01:26.000Z</time>
      </trkpt>
      <trkpt lat="43.32084" lon="3.27077">
        <ele>53</ele>
        <time>2021-07-01T10:01:28.000Z</time>
      </trkpt>
      <trkpt lat="43.32079" lon="3.27091">
        <ele>53</ele>
        <time>2021-07-01T10:01:30.000Z</time>
      </trkpt>
      <trkpt lat="43.32074" lon="3.27106">
        <ele>53</ele>
        <time>2021-07-01T10:01:32.000Z</time>
      </trkpt>
      <trkpt lat="43.32068" lon="3.27128">
        <ele>52</ele>
        <time>2021-07-01T10:01:35.000Z</time>
      </trkpt>
      <trkpt lat="43.32062" lon="3.27142">
        <ele>52</ele>
        <time>2021-07-01T10:01:37.000Z</time>
      </trkpt>
      <trkpt lat="43.32057" lon="3.27156">
        <ele>52</ele>
        <time>2021-07-01T10:01:39.000Z</time>
      </trkpt>
      <trkpt lat="43.32052" lon="3.2717">
        <ele>53</ele>
        <time>2021-07-01T10:01:41.000Z</time>
      </trkpt>
      <trkpt lat="43.32046" lon="3.27186">
        <ele>52</ele>
        <time>2021-07-01T10:01:43.000Z</time>
      </trkpt>
      <trkpt lat="43.32041" lon="3.272">
        <ele>53</ele>
        <time>2021-07-01T10:01:45.000Z</time>
      </trkpt>
      <trkpt lat="43.32034" lon="3.27223">
        <ele>53</ele>
        <time>2021-07-01T10:01:48.000Z</time>
      </trkpt>
      <trkpt lat="43.32028" lon="3.27237">
        <ele>53</ele>
        <time>2021-07-01T10:01:50.000Z</time>
      </trkpt>
      <trkpt lat="43.32022" lon="3.27251">
        <ele>53</ele>
        <time>2021-07-01T10:01:52.000Z</time>
      </trkpt>
      <trkpt lat="43.32017" lon="3.27265">
        <ele>54</ele>
        <time>2021-07-01T10:01:54.000Z</time>
      </trkpt>
      <trkpt lat="43.32012" lon="3.2728">
        <ele>53</ele>
        <time>2021-07-01T10:01:56.000Z</time>
      </trkpt>
      <trkpt lat="43.32003" lon="3.27302">
        <ele>52</ele>
        <time>2021-07-01T10:01:59.000Z</time>
      </trkpt>
      <trkpt lat="43.31999" lon="3.27317">
        <ele>53</ele>
        <time>2021-07-01T10:02:01.000Z</time>
      </trkpt>
      <trkpt lat="43.31994" lon="3.27331">
        <ele>52</ele>
        <time>2021-07-01T10:02:03.000Z</time>
      </trkpt>
      <trkpt lat="43.31989" lon="3.27345">
        <ele>51</ele>
        <time>2021-07-01T10:02:05.000Z</time>
      </trkpt>
      <trkpt lat="43.31984" lon="3.2736">
        <ele>51</ele>
        <time>2021-07-01T10:02:07.000Z</time>
      </trkpt>
      <trkpt lat="43.31979" lon="3.27375">
        <ele>52</ele>
        <time>2021-07-01T10:02:09.000Z</time>
      </trkpt>
      <trkpt lat="43.31973" lon="3.2739">
        <ele>52</ele>
        <time>2021-07-01T10:02:11.000Z</time>
      </trkpt>
      <trkpt lat="43.31968" lon="3.27406">
        <ele>51</ele>
        <time>2021-07-01T10:02:13.000Z</time>
      </trkpt>
      <trkpt lat="43.31963" lon="3.27419">
        <ele>52</ele>
        <time>2021-07-01T10:02:15.000Z</time>
      </trkpt>
      <trkpt lat="43.31958" lon="3.27433">
        <ele>52</ele>
        <time>2021-07-01T10:02:17.000Z</time>
      </trkpt>
      <trkpt lat="43.31952" lon="3.27455">
        <ele>52</ele>
        <time>2021-07-01T10:02:20.000Z</time>
      </trkpt>
      <trkpt lat="43.31946" lon="3.2747">
        <ele>52</ele>
        <time>2021-07-01T10:02:22.000Z</time>
      </trkpt>
      <trkpt lat="43.31941" lon="3.27484">
        <ele>53</ele>
        <time>2021-07-01T10:02:24.000Z</time>
      </trkpt>
      <trkpt lat="43.31932" lon="3.27505">
        <ele>53</ele>
        <time>2021-07-01T10:02:27.000Z</time>
      </trkpt>
      <trkpt lat="43.31927" lon="3.2752">
        <ele>52</ele>
        <time>2021-07-01T10:02:29.000Z</time>
      </trkpt>
      <trkpt lat="43.31921" lon="3.27536">
        <ele>53</ele>
        <time>2021-07-01T10:02:31.000Z</time>
      </trkpt>
      <trkpt lat="43.31916" lon="3.2755">
        <ele>54</ele>
        <time>2021-07-01T10:02:33.000Z</time>
      </trkpt>
      <trkpt lat="43.31911" lon="3.27565">
        <ele>52</ele>
        <time>2021-07-01T10:02:35.000Z</time>
      </trkpt>
      <trkpt lat="43.31906" lon="3.27579">
        <ele>52</ele>
        <time>2021-07-01T10:02:37.000Z</time>
      </trkpt>
      <trkpt lat="43.31901" lon="3.27594">
        <ele>53</ele>
        <time>2021-07-01T10:02:39.000Z</time>
      </trkpt>
      <trkpt lat="43.31894" lon="3.27609">
        <ele>53</ele>
        <time>2021-07-01T10:02:41.000Z</time>
      </trkpt>
      <trkpt lat="43.31888" lon="3.27624">
        <ele>52</ele>
        <time>2021-07-01T10:02:43.000Z</time>
      </trkpt>
      <trkpt lat="43.31883" lon="3.27639">
        <ele>52</ele>
        <time>2021-07-01T10:02:45.000Z</time>
      </trkpt>
      <trkpt lat="43.31877" lon="3.27654">
        <ele>53</ele>
        <time>2021-07-01T10:02:47.000Z</time>
      </trkpt>
      <trkpt lat="43.31874" lon="3.27672">
        <ele>53</ele>
        <time>2021-07-01T10:02:49.000Z</time>
      </trkpt>
      <trkpt lat="43.3187" lon="3.27689">
        <ele>56</ele>
        <time>2021-07-01T10:02:51.000Z</time>
      </trkpt>
      <trkpt lat="43.31862" lon="3.27701">
        <ele>56</ele>
        <time>2021-07-01T10:02:53.000Z</time>
      </trkpt>
      <trkpt lat="43.31856" lon="3.27715">
        <ele>55</ele>
        <time>2021-07-01T10:02:55.000Z</time>
      </trkpt>
      <trkpt lat="43.3185" lon="3.27729">
        <ele>55</ele>
        <time>2021-07-01T10:02:57.000Z</time>
      </trkpt>
      <trkpt lat="43.31845" lon="3.27745">
        <ele>54</ele>
        <time>2021-07-01T10:02:59.000Z</time>
      </trkpt>
      <trkpt lat="43.3184" lon="3.2776">
        <ele>54</ele>
        <time>2021-07-01T10:03:01.000Z</time>
      </trkpt>
      <trkpt lat="43.31835" lon="3.27773">
        <ele>54</ele>
        <time>2021-07-01T10:03:03.000Z</time>
      </trkpt>
      <trkpt lat="43.31826" lon="3.27795">
        <ele>54</ele>
        <time>2021-07-01T10:03:06.000Z</time>
      </trkpt>
      <trkpt lat="43.31822" lon="3.2781">
        <ele>53</ele>
        <time>2021-07-01T10:03:08.000Z</time>
      </trkpt>
      <trkpt lat="43.31818" lon="3.27824">
        <ele>53</ele>
        <time>2021-07-01T10:03:10.000Z</time>
      </trkpt>
      <trkpt lat="43.31813" lon="3.27839">
        <ele>53</ele>
        <time>2021-07-01T10:03:12.000Z</time>
      </trkpt>
      <trkpt lat="43.31808" lon="3.27853">
        <ele>54</ele>
        <time>2021-07-01T10:03:14.000Z</time>
      </trkpt>
      <trkpt lat="43.31803" lon="3.27867">
        <ele>53</ele>
        <time>2021-07-01T10:03:16.000Z</time>
      </trkpt>
      <trkpt lat="43.31797" lon="3.27879">
        <ele>52</ele>
        <time>2021-07-01T10:03:18.000Z</time>
      </trkpt>
      <trkpt lat="43.31793" lon="3.27892">
        <ele>53</ele>
        <time>2021-07-01T10:03:20.000Z</time>
      </trkpt>
      <trkpt lat="43.31789" lon="3.27905">
        <ele>54</ele>
        <time>2021-07-01T10:03:22.000Z</time>
      </trkpt>
      <trkpt lat="43.31785" lon="3.27917">
        <ele>54</ele>
        <time>2021-07-01T10:03:24.000Z</time>
      </trkpt>
      <trkpt lat="43.31782" lon="3.27931">
        <ele>52</ele>
        <time>2021-07-01T10:03:26.000Z</time>
      </trkpt>
      <trkpt lat="43.31776" lon="3.27947">
        <ele>53</ele>
        <time>2021-07-01T10:03:29.000Z</time>
      </trkpt>
      <trkpt lat="43.31772" lon="3.2796">
        <ele>52</ele>
        <time>2021-07-01T10:03:32.000Z</time>
      </trkpt>
      <trkpt lat="43.31767" lon="3.27976">
        <ele>52</ele>
        <time>2021-07-01T10:03:35.000Z</time>
      </trkpt>
      <trkpt lat="43.31765" lon="3.2799">
        <ele>51</ele>
        <time>2021-07-01T10:03:38.000Z</time>
      </trkpt>
      <trkpt lat="43.31758" lon="3.28011">
        <ele>51</ele>
        <time>2021-07-01T10:03:42.000Z</time>
      </trkpt>
      <trkpt lat="43.31755" lon="3.28028">
        <ele>51</ele>
        <time>2021-07-01T10:03:45.000Z</time>
      </trkpt>
      <trkpt lat="43.3175" lon="3.2804">
        <ele>50</ele>
        <time>2021-07-01T10:03:48.000Z</time>
      </trkpt>
      <trkpt lat="43.31746" lon="3.28054">
        <ele>52</ele>
        <time>2021-07-01T10:03:54.000Z</time>
      </trkpt>
      <trkpt lat="43.31741" lon="3.28066">
        <ele>51</ele>
        <time>2021-07-01T10:04:01.000Z</time>
      </trkpt>
      <trkpt lat="43.31746" lon="3.28079">
        <ele>53</ele>
        <time>2021-07-01T10:04:09.000Z</time>
      </trkpt>
      <trkpt lat="43.31756" lon="3.28086">
        <ele>54</ele>
        <time>2021-07-01T10:04:13.000Z</time>
      </trkpt>
      <trkpt lat="43.31765" lon="3.28091">
        <ele>53</ele>
        <time>2021-07-01T10:04:16.000Z</time>
      </trkpt>
      <trkpt lat="43.31771" lon="3.28103">
        <ele>53</ele>
        <time>2021-07-01T10:04:20.000Z</time>
      </trkpt>
      <trkpt lat="43.31765" lon="3.2812">
        <ele>53</ele>
        <time>2021-07-01T10:04:23.000Z</time>
      </trkpt>
      <trkpt lat="43.3176" lon="3.28133">
        <ele>54</ele>
        <time>2021-07-01T10:04:25.000Z</time>
      </trkpt>
      <trkpt lat="43.31753" lon="3.28147">
        <ele>53</ele>
        <time>2021-07-01T10:04:27.000Z</time>
      </trkpt>
      <trkpt lat="43.31749" lon="3.28161">
        <ele>52</ele>
        <time>2021-07-01T10:04:29.000Z</time>
      </trkpt>
      <trkpt lat="43.31746" lon="3.28175">
        <ele>52</ele>
        <time>2021-07-01T10:04:31.000Z</time>
      </trkpt>
      <trkpt lat="43.31742" lon="3.28191">
        <ele>53</ele>
        <time>2021-07-01T10:04:33.000Z</time>
      </trkpt>
      <trkpt lat="43.31737" lon="3.28205">
        <ele>52</ele>
        <time>2021-07-01T10:04:35.000Z</time>
      </trkpt>
      <trkpt lat="43.31733" lon="3.28217">
        <ele>52</ele>
        <time>2021-07-01T10:04:37.000Z</time>
      </trkpt>
      <trkpt lat="43.31727" lon="3.28231">
        <ele>52</ele>
        <time>2021-07-01T10:04:40.000Z</time>
      </trkpt>
      <trkpt lat="43.31721" lon="3.28243">
        <ele>51</ele>
        <time>2021-07-01T10:04:44.000Z</time>
      </trkpt>
      <trkpt lat="43.31727" lon="3.28233">
        <ele>50</ele>
        <time>2021-07-01T10:07:19.000Z</time>
      </trkpt>
      <trkpt lat="43.31732" lon="3.28222">
        <ele>48</ele>
        <time>2021-07-01T10:07:23.000Z</time>
      </trkpt>
      <trkpt lat="43.31737" lon="3.28208">
        <ele>49</ele>
        <time>2021-07-01T10:07:27.000Z</time>
      </trkpt>
      <trkpt lat="43.31741" lon="3.28194">
        <ele>47</ele>
        <time>2021-07-01T10:07:31.000Z</time>
      </trkpt>
      <trkpt lat="43.31745" lon="3.28181">
        <ele>50</ele>
        <time>2021-07-01T10:07:34.000Z</time>
      </trkpt>
      <trkpt lat="43.31751" lon="3.2816">
        <ele>47</ele>
        <time>2021-07-01T10:07:39.000Z</time>
      </trkpt>
      <trkpt lat="43.31756" lon="3.28143">
        <ele>47</ele>
        <time>2021-07-01T10:07:43.000Z</time>
      </trkpt>
      <trkpt lat="43.3176" lon="3.28131">
        <ele>48</ele>
        <time>2021-07-01T10:07:46.000Z</time>
      </trkpt>
      <trkpt lat="43.31765" lon="3.2812">
        <ele>48</ele>
        <time>2021-07-01T10:07:49.000Z</time>
      </trkpt>
      <trkpt lat="43.31771" lon="3.28107">
        <ele>48</ele>
        <time>2021-07-01T10:07:53.000Z</time>
      </trkpt>
      <trkpt lat="43.31777" lon="3.28096">
        <ele>51</ele>
        <time>2021-07-01T10:08:08.000Z</time>
      </trkpt>
      <trkpt lat="43.31768" lon="3.2809">
        <ele>52</ele>
        <time>2021-07-01T10:08:11.000Z</time>
      </trkpt>
      <trkpt lat="43.31759" lon="3.28084">
        <ele>52</ele>
        <time>2021-07-01T10:08:14.000Z</time>
      </trkpt>
      <trkpt lat="43.31747" lon="3.28077">
        <ele>52</ele>
        <time>2021-07-01T10:08:18.000Z</time>
      </trkpt>
      <trkpt lat="43.31735" lon="3.28081">
        <ele>52</ele>
        <time>2021-07-01T10:08:21.000Z</time>
      </trkpt>
      <trkpt lat="43.31729" lon="3.28091">
        <ele>52</ele>
        <time>2021-07-01T10:08:23.000Z</time>
      </trkpt>
      <trkpt lat="43.31723" lon="3.28101">
        <ele>53</ele>
        <time>2021-07-01T10:08:26.000Z</time>
      </trkpt>
      <trkpt lat="43.31724" lon="3.28119">
        <ele>52</ele>
        <time>2021-07-01T10:08:36.000Z</time>
      </trkpt>
      <trkpt lat="43.31723" lon="3.28131">
        <ele>51</ele>
        <time>2021-07-01T10:08:39.000Z</time>
      </trkpt>
      <trkpt lat="43.31718" lon="3.28156">
        <ele>51</ele>
        <time>2021-07-01T10:08:44.000Z</time>
      </trkpt>
      <trkpt lat="43.31713" lon="3.28168">
        <ele>52</ele>
        <time>2021-07-01T10:08:46.000Z</time>
      </trkpt>
      <trkpt lat="43.31702" lon="3.28187">
        <ele>53</ele>
        <time>2021-07-01T10:08:50.000Z</time>
      </trkpt>
      <trkpt lat="43.31698" lon="3.28201">
        <ele>53</ele>
        <time>2021-07-01T10:08:52.000Z</time>
      </trkpt>
      <trkpt lat="43.31691" lon="3.28224">
        <ele>52</ele>
        <time>2021-07-01T10:08:56.000Z</time>
      </trkpt>
      <trkpt lat="43.31687" lon="3.28237">
        <ele>52</ele>
        <time>2021-07-01T10:08:58.000Z</time>
      </trkpt>
      <trkpt lat="43.31683" lon="3.28249">
        <ele>51</ele>
        <time>2021-07-01T10:09:00.000Z</time>
      </trkpt>
      <trkpt lat="43.31678" lon="3.28266">
        <ele>52</ele>
        <time>2021-07-01T10:09:03.000Z</time>
      </trkpt>
      <trkpt lat="43.31673" lon="3.2828">
        <ele>52</ele>
        <time>2021-07-01T10:09:05.000Z</time>
      </trkpt>
      <trkpt lat="43.31669" lon="3.28293">
        <ele>52</ele>
        <time>2021-07-01T10:09:07.000Z</time>
      </trkpt>
      <trkpt lat="43.31666" lon="3.28306">
        <ele>53</ele>
        <time>2021-07-01T10:09:09.000Z</time>
      </trkpt>
      <trkpt lat="43.3166" lon="3.28331">
        <ele>52</ele>
        <time>2021-07-01T10:09:13.000Z</time>
      </trkpt>
      <trkpt lat="43.31656" lon="3.28343">
        <ele>52</ele>
        <time>2021-07-01T10:09:15.000Z</time>
      </trkpt>
      <trkpt lat="43.31652" lon="3.28355">
        <ele>52</ele>
        <time>2021-07-01T10:09:17.000Z</time>
      </trkpt>
      <trkpt lat="43.31648" lon="3.28368">
        <ele>52</ele>
        <time>2021-07-01T10:09:19.000Z</time>
      </trkpt>
      <trkpt lat="43.31645" lon="3.28382">
        <ele>52</ele>
        <time>2021-07-01T10:09:21.000Z</time>
      </trkpt>
      <trkpt lat="43.31642" lon="3.28395">
        <ele>51</ele>
        <time>2021-07-01T10:09:23.000Z</time>
      </trkpt>
      <trkpt lat="43.3164" lon="3.28408">
        <ele>51</ele>
        <time>2021-07-01T10:09:25.000Z</time>
      </trkpt>
      <trkpt lat="43.31636" lon="3.2842">
        <ele>51</ele>
        <time>2021-07-01T10:09:27.000Z</time>
      </trkpt>
      <trkpt lat="43.31631" lon="3.2844">
        <ele>52</ele>
        <time>2021-07-01T10:09:30.000Z</time>
      </trkpt>
      <trkpt lat="43.31627" lon="3.28453">
        <ele>51</ele>
        <time>2021-07-01T10:09:32.000Z</time>
      </trkpt>
      <trkpt lat="43.31621" lon="3.28472">
        <ele>52</ele>
        <time>2021-07-01T10:09:35.000Z</time>
      </trkpt>
      <trkpt lat="43.31617" lon="3.28486">
        <ele>52</ele>
        <time>2021-07-01T10:09:37.000Z</time>
      </trkpt>
      <trkpt lat="43.31614" lon="3.285">
        <ele>52</ele>
        <time>2021-07-01T10:09:39.000Z</time>
      </trkpt>
      <trkpt lat="43.31611" lon="3.28514">
        <ele>51</ele>
        <time>2021-07-01T10:09:41.000Z</time>
      </trkpt>
      <trkpt lat="43.31609" lon="3.28528">
        <ele>51</ele>
        <time>2021-07-01T10:09:43.000Z</time>
      </trkpt>
      <trkpt lat="43.31606" lon="3.28541">
        <ele>51</ele>
        <time>2021-07-01T10:09:45.000Z</time>
      </trkpt>
      <trkpt lat="43.31602" lon="3.28555">
        <ele>51</ele>
        <time>2021-07-01T10:09:47.000Z</time>
      </trkpt>
      <trkpt lat="43.31598" lon="3.2857">
        <ele>51</ele>
        <time>2021-07-01T10:09:49.000Z</time>
      </trkpt>
      <trkpt lat="43.31597" lon="3.28583">
        <ele>51</ele>
        <time>2021-07-01T10:09:51.000Z</time>
      </trkpt>
      <trkpt lat="43.31592" lon="3.28596">
        <ele>51</ele>
        <time>2021-07-01T10:09:53.000Z</time>
      </trkpt>
      <trkpt lat="43.31588" lon="3.28609">
        <ele>52</ele>
        <time>2021-07-01T10:09:55.000Z</time>
      </trkpt>
      <trkpt lat="43.31584" lon="3.2863">
        <ele>51</ele>
        <time>2021-07-01T10:09:58.000Z</time>
      </trkpt>
      <trkpt lat="43.31581" lon="3.28644">
        <ele>51</ele>
        <time>2021-07-01T10:10:00.000Z</time>
      </trkpt>
      <trkpt lat="43.31575" lon="3.28665">
        <ele>51</ele>
        <time>2021-07-01T10:10:03.000Z</time>
      </trkpt>
      <trkpt lat="43.31573" lon="3.28679">
        <ele>50</ele>
        <time>2021-07-01T10:10:05.000Z</time>
      </trkpt>
      <trkpt lat="43.31571" lon="3.28694">
        <ele>51</ele>
        <time>2021-07-01T10:10:07.000Z</time>
      </trkpt>
      <trkpt lat="43.31567" lon="3.28716">
        <ele>51</ele>
        <time>2021-07-01T10:10:10.000Z</time>
      </trkpt>
      <trkpt lat="43.31564" lon="3.2873">
        <ele>51</ele>
        <time>2021-07-01T10:10:12.000Z</time>
      </trkpt>
      <trkpt lat="43.31562" lon="3.28744">
        <ele>51</ele>
        <time>2021-07-01T10:10:14.000Z</time>
      </trkpt>
      <trkpt lat="43.31557" lon="3.28766">
        <ele>50</ele>
        <time>2021-07-01T10:10:17.000Z</time>
      </trkpt>
      <trkpt lat="43.31554" lon="3.28781">
        <ele>50</ele>
        <time>2021-07-01T10:10:19.000Z</time>
      </trkpt>
      <trkpt lat="43.31551" lon="3.28795">
        <ele>51</ele>
        <time>2021-07-01T10:10:21.000Z</time>
      </trkpt>
      <trkpt lat="43.31549" lon="3.2881">
        <ele>51</ele>
        <time>2021-07-01T10:10:23.000Z</time>
      </trkpt>
      <trkpt lat="43.31546" lon="3.28824">
        <ele>51</ele>
        <time>2021-07-01T10:10:25.000Z</time>
      </trkpt>
      <trkpt lat="43.31544" lon="3.28838">
        <ele>52</ele>
        <time>2021-07-01T10:10:27.000Z</time>
      </trkpt>
      <trkpt lat="43.31542" lon="3.28852">
        <ele>52</ele>
        <time>2021-07-01T10:10:29.000Z</time>
      </trkpt>
      <trkpt lat="43.3154" lon="3.28868">
        <ele>52</ele>
        <time>2021-07-01T10:10:31.000Z</time>
      </trkpt>
      <trkpt lat="43.31538" lon="3.28882">
        <ele>52</ele>
        <time>2021-07-01T10:10:33.000Z</time>
      </trkpt>
      <trkpt lat="43.31534" lon="3.28904">
        <ele>52</ele>
        <time>2021-07-01T10:10:36.000Z</time>
      </trkpt>
      <trkpt lat="43.3153" lon="3.28935">
        <ele>51</ele>
        <time>2021-07-01T10:10:40.000Z</time>
      </trkpt>
      <trkpt lat="43.31528" lon="3.2895">
        <ele>51</ele>
        <time>2021-07-01T10:10:42.000Z</time>
      </trkpt>
      <trkpt lat="43.31527" lon="3.28964">
        <ele>51</ele>
        <time>2021-07-01T10:10:44.000Z</time>
      </trkpt>
      <trkpt lat="43.31525" lon="3.28979">
        <ele>51</ele>
        <time>2021-07-01T10:10:46.000Z</time>
      </trkpt>
      <trkpt lat="43.31523" lon="3.29003">
        <ele>50</ele>
        <time>2021-07-01T10:10:49.000Z</time>
      </trkpt>
      <trkpt lat="43.31522" lon="3.29017">
        <ele>50</ele>
        <time>2021-07-01T10:10:51.000Z</time>
      </trkpt>
      <trkpt lat="43.3152" lon="3.29031">
        <ele>50</ele>
        <time>2021-07-01T10:10:53.000Z</time>
      </trkpt>
      <trkpt lat="43.31518" lon="3.29053">
        <ele>50</ele>
        <time>2021-07-01T10:10:56.000Z</time>
      </trkpt>
      <trkpt lat="43.31517" lon="3.29068">
        <ele>50</ele>
        <time>2021-07-01T10:10:58.000Z</time>
      </trkpt>
      <trkpt lat="43.31516" lon="3.29083">
        <ele>50</ele>
        <time>2021-07-01T10:11:00.000Z</time>
      </trkpt>
      <trkpt lat="43.31515" lon="3.29098">
        <ele>50</ele>
        <time>2021-07-01T10:11:02.000Z</time>
      </trkpt>
      <trkpt lat="43.31515" lon="3.29113">
        <ele>50</ele>
        <time>2021-07-01T10:11:04.000Z</time>
      </trkpt>
      <trkpt lat="43.31514" lon="3.29128">
        <ele>51</ele>
        <time>2021-07-01T10:11:06.000Z</time>
      </trkpt>
      <trkpt lat="43.31513" lon="3.29143">
        <ele>51</ele>
        <time>2021-07-01T10:11:08.000Z</time>
      </trkpt>
      <trkpt lat="43.31513" lon="3.29158">
        <ele>51</ele>
        <time>2021-07-01T10:11:10.000Z</time>
      </trkpt>
      <trkpt lat="43.31513" lon="3.29175">
        <ele>51</ele>
        <time>2021-07-01T10:11:12.000Z</time>
      </trkpt>
      <trkpt lat="43.31513" lon="3.2919">
        <ele>51</ele>
        <time>2021-07-01T10:11:14.000Z</time>
      </trkpt>
      <trkpt lat="43.31513" lon="3.29205">
        <ele>51</ele>
        <time>2021-07-01T10:11:16.000Z</time>
      </trkpt>
      <trkpt lat="43.31513" lon="3.29221">
        <ele>51</ele>
        <time>2021-07-01T10:11:18.000Z</time>
      </trkpt>
      <trkpt lat="43.31512" lon="3.29237">
        <ele>51</ele>
        <time>2021-07-01T10:11:20.000Z</time>
      </trkpt>
      <trkpt lat="43.31513" lon="3.29252">
        <ele>51</ele>
        <time>2021-07-01T10:11:22.000Z</time>
      </trkpt>
      <trkpt lat="43.31513" lon="3.29267">
        <ele>51</ele>
        <time>2021-07-01T10:11:24.000Z</time>
      </trkpt>
      <trkpt lat="43.31513" lon="3.29283">
        <ele>51</ele>
        <time>2021-07-01T10:11:26.000Z</time>
      </trkpt>
      <trkpt lat="43.31514" lon="3.29298">
        <ele>51</ele>
        <time>2021-07-01T10:11:28.000Z</time>
      </trkpt>
      <trkpt lat="43.31516" lon="3.29314">
        <ele>51</ele>
        <time>2021-07-01T10:11:30.000Z</time>
      </trkpt>
      <trkpt lat="43.31518" lon="3.29329">
        <ele>51</ele>
        <time>2021-07-01T10:11:32.000Z</time>
      </trkpt>
      <trkpt lat="43.31523" lon="3.29342">
        <ele>51</ele>
        <time>2021-07-01T10:11:34.000Z</time>
      </trkpt>
      <trkpt lat="43.31527" lon="3.29357">
        <ele>51</ele>
        <time>2021-07-01T10:11:36.000Z</time>
      </trkpt>
      <trkpt lat="43.31528" lon="3.29372">
        <ele>51</ele>
        <time>2021-07-01T10:11:38.000Z</time>
      </trkpt>
      <trkpt lat="43.31527" lon="3.29391">
        <ele>51</ele>
        <time>2021-07-01T10:11:41.000Z</time>
      </trkpt>
      <trkpt lat="43.31529" lon="3.29406">
        <ele>49</ele>
        <time>2021-07-01T10:11:43.000Z</time>
      </trkpt>
      <trkpt lat="43.31532" lon="3.29427">
        <ele>49</ele>
        <time>2021-07-01T10:11:46.000Z</time>
      </trkpt>
      <trkpt lat="43.31535" lon="3.29442">
        <ele>49</ele>
        <time>2021-07-01T10:11:48.000Z</time>
      </trkpt>
      <trkpt lat="43.31536" lon="3.29457">
        <ele>49</ele>
        <time>2021-07-01T10:11:50.000Z</time>
      </trkpt>
      <trkpt lat="43.3154" lon="3.29476">
        <ele>50</ele>
        <time>2021-07-01T10:11:53.000Z</time>
      </trkpt>
      <trkpt lat="43.31543" lon="3.29492">
        <ele>49</ele>
        <time>2021-07-01T10:11:55.000Z</time>
      </trkpt>
      <trkpt lat="43.31545" lon="3.29507">
        <ele>49</ele>
        <time>2021-07-01T10:11:57.000Z</time>
      </trkpt>
      <trkpt lat="43.31547" lon="3.29521">
        <ele>49</ele>
        <time>2021-07-01T10:11:59.000Z</time>
      </trkpt>
      <trkpt lat="43.31549" lon="3.29535">
        <ele>50</ele>
        <time>2021-07-01T10:12:01.000Z</time>
      </trkpt>
      <trkpt lat="43.31552" lon="3.29549">
        <ele>50</ele>
        <time>2021-07-01T10:12:03.000Z</time>
      </trkpt>
      <trkpt lat="43.31556" lon="3.29571">
        <ele>50</ele>
        <time>2021-07-01T10:12:06.000Z</time>
      </trkpt>
      <trkpt lat="43.31558" lon="3.29586">
        <ele>50</ele>
        <time>2021-07-01T10:12:08.000Z</time>
      </trkpt>
      <trkpt lat="43.3156" lon="3.29601">
        <ele>50</ele>
        <time>2021-07-01T10:12:10.000Z</time>
      </trkpt>
      <trkpt lat="43.31563" lon="3.29616">
        <ele>50</ele>
        <time>2021-07-01T10:12:12.000Z</time>
      </trkpt>
      <trkpt lat="43.31567" lon="3.29638">
        <ele>50</ele>
        <time>2021-07-01T10:12:15.000Z</time>
      </trkpt>
      <trkpt lat="43.31569" lon="3.29653">
        <ele>50</ele>
        <time>2021-07-01T10:12:17.000Z</time>
      </trkpt>
      <trkpt lat="43.31572" lon="3.29666">
        <ele>49</ele>
        <time>2021-07-01T10:12:19.000Z</time>
      </trkpt>
      <trkpt lat="43.31574" lon="3.2968">
        <ele>49</ele>
        <time>2021-07-01T10:12:21.000Z</time>
      </trkpt>
      <trkpt lat="43.31577" lon="3.29696">
        <ele>49</ele>
        <time>2021-07-01T10:12:23.000Z</time>
      </trkpt>
      <trkpt lat="43.31579" lon="3.29711">
        <ele>49</ele>
        <time>2021-07-01T10:12:25.000Z</time>
      </trkpt>
      <trkpt lat="43.31581" lon="3.29726">
        <ele>50</ele>
        <time>2021-07-01T10:12:27.000Z</time>
      </trkpt>
      <trkpt lat="43.31585" lon="3.29749">
        <ele>51</ele>
        <time>2021-07-01T10:12:30.000Z</time>
      </trkpt>
      <trkpt lat="43.31588" lon="3.29764">
        <ele>50</ele>
        <time>2021-07-01T10:12:32.000Z</time>
      </trkpt>
      <trkpt lat="43.31591" lon="3.2978">
        <ele>50</ele>
        <time>2021-07-01T10:12:34.000Z</time>
      </trkpt>
      <trkpt lat="43.31593" lon="3.29796">
        <ele>50</ele>
        <time>2021-07-01T10:12:36.000Z</time>
      </trkpt>
      <trkpt lat="43.31596" lon="3.2981">
        <ele>50</ele>
        <time>2021-07-01T10:12:38.000Z</time>
      </trkpt>
      <trkpt lat="43.31599" lon="3.29825">
        <ele>50</ele>
        <time>2021-07-01T10:12:40.000Z</time>
      </trkpt>
      <trkpt lat="43.31603" lon="3.29847">
        <ele>50</ele>
        <time>2021-07-01T10:12:43.000Z</time>
      </trkpt>
      <trkpt lat="43.31606" lon="3.29862">
        <ele>50</ele>
        <time>2021-07-01T10:12:45.000Z</time>
      </trkpt>
      <trkpt lat="43.31608" lon="3.29877">
        <ele>50</ele>
        <time>2021-07-01T10:12:47.000Z</time>
      </trkpt>
      <trkpt lat="43.31611" lon="3.29892">
        <ele>51</ele>
        <time>2021-07-01T10:12:49.000Z</time>
      </trkpt>
      <trkpt lat="43.31614" lon="3.29906">
        <ele>51</ele>
        <time>2021-07-01T10:12:51.000Z</time>
      </trkpt>
      <trkpt lat="43.31616" lon="3.29922">
        <ele>51</ele>
        <time>2021-07-01T10:12:53.000Z</time>
      </trkpt>
      <trkpt lat="43.31618" lon="3.29938">
        <ele>51</ele>
        <time>2021-07-01T10:12:55.000Z</time>
      </trkpt>
      <trkpt lat="43.31621" lon="3.29953">
        <ele>51</ele>
        <time>2021-07-01T10:12:57.000Z</time>
      </trkpt>
      <trkpt lat="43.31624" lon="3.29968">
        <ele>51</ele>
        <time>2021-07-01T10:12:59.000Z</time>
      </trkpt>
      <trkpt lat="43.31628" lon="3.29991">
        <ele>50</ele>
        <time>2021-07-01T10:13:02.000Z</time>
      </trkpt>
      <trkpt lat="43.31631" lon="3.30007">
        <ele>51</ele>
        <time>2021-07-01T10:13:04.000Z</time>
      </trkpt>
      <trkpt lat="43.31634" lon="3.30023">
        <ele>51</ele>
        <time>2021-07-01T10:13:06.000Z</time>
      </trkpt>
      <trkpt lat="43.31637" lon="3.30046">
        <ele>50</ele>
        <time>2021-07-01T10:13:09.000Z</time>
      </trkpt>
      <trkpt lat="43.31638" lon="3.3006">
        <ele>51</ele>
        <time>2021-07-01T10:13:11.000Z</time>
      </trkpt>
      <trkpt lat="43.31641" lon="3.30074">
        <ele>51</ele>
        <time>2021-07-01T10:13:13.000Z</time>
      </trkpt>
      <trkpt lat="43.31645" lon="3.30094">
        <ele>50</ele>
        <time>2021-07-01T10:13:16.000Z</time>
      </trkpt>
      <trkpt lat="43.3165" lon="3.30104">
        <ele>50</ele>
        <time>2021-07-01T10:13:18.000Z</time>
      </trkpt>
      <trkpt lat="43.31656" lon="3.30117">
        <ele>50</ele>
        <time>2021-07-01T10:13:20.000Z</time>
      </trkpt>
      <trkpt lat="43.31658" lon="3.30131">
        <ele>50</ele>
        <time>2021-07-01T10:13:22.000Z</time>
      </trkpt>
      <trkpt lat="43.31661" lon="3.30143">
        <ele>50</ele>
        <time>2021-07-01T10:13:24.000Z</time>
      </trkpt>
      <trkpt lat="43.31665" lon="3.30166">
        <ele>50</ele>
        <time>2021-07-01T10:13:28.000Z</time>
      </trkpt>
      <trkpt lat="43.31665" lon="3.30179">
        <ele>50</ele>
        <time>2021-07-01T10:13:30.000Z</time>
      </trkpt>
      <trkpt lat="43.31664" lon="3.30197">
        <ele>50</ele>
        <time>2021-07-01T10:13:33.000Z</time>
      </trkpt>
      <trkpt lat="43.31667" lon="3.30213">
        <ele>50</ele>
        <time>2021-07-01T10:13:36.000Z</time>
      </trkpt>
      <trkpt lat="43.31669" lon="3.30225">
        <ele>50</ele>
        <time>2021-07-01T10:13:38.000Z</time>
      </trkpt>
      <trkpt lat="43.31671" lon="3.30237">
        <ele>49</ele>
        <time>2021-07-01T10:13:40.000Z</time>
      </trkpt>
      <trkpt lat="43.31674" lon="3.30253">
        <ele>48</ele>
        <time>2021-07-01T10:13:42.000Z</time>
      </trkpt>
      <trkpt lat="43.31677" lon="3.30268">
        <ele>48</ele>
        <time>2021-07-01T10:13:44.000Z</time>
      </trkpt>
      <trkpt lat="43.31679" lon="3.30282">
        <ele>49</ele>
        <time>2021-07-01T10:13:46.000Z</time>
      </trkpt>
      <trkpt lat="43.31682" lon="3.30296">
        <ele>48</ele>
        <time>2021-07-01T10:13:48.000Z</time>
      </trkpt>
      <trkpt lat="43.31686" lon="3.30312">
        <ele>48</ele>
        <time>2021-07-01T10:13:50.000Z</time>
      </trkpt>
      <trkpt lat="43.31686" lon="3.30327">
        <ele>49</ele>
        <time>2021-07-01T10:13:52.000Z</time>
      </trkpt>
      <trkpt lat="43.31689" lon="3.30343">
        <ele>49</ele>
        <time>2021-07-01T10:13:54.000Z</time>
      </trkpt>
      <trkpt lat="43.31691" lon="3.30358">
        <ele>47</ele>
        <time>2021-07-01T10:13:56.000Z</time>
      </trkpt>
      <trkpt lat="43.31693" lon="3.30374">
        <ele>47</ele>
        <time>2021-07-01T10:13:58.000Z</time>
      </trkpt>
      <trkpt lat="43.31692" lon="3.30389">
        <ele>48</ele>
        <time>2021-07-01T10:14:00.000Z</time>
      </trkpt>
      <trkpt lat="43.31691" lon="3.30404">
        <ele>49</ele>
        <time>2021-07-01T10:14:02.000Z</time>
      </trkpt>
      <trkpt lat="43.31691" lon="3.30419">
        <ele>50</ele>
        <time>2021-07-01T10:14:04.000Z</time>
      </trkpt>
      <trkpt lat="43.31691" lon="3.30444">
        <ele>49</ele>
        <time>2021-07-01T10:14:07.000Z</time>
      </trkpt>
      <trkpt lat="43.3169" lon="3.30459">
        <ele>49</ele>
        <time>2021-07-01T10:14:09.000Z</time>
      </trkpt>
      <trkpt lat="43.31689" lon="3.30475">
        <ele>50</ele>
        <time>2021-07-01T10:14:11.000Z</time>
      </trkpt>
      <trkpt lat="43.31687" lon="3.30491">
        <ele>50</ele>
        <time>2021-07-01T10:14:13.000Z</time>
      </trkpt>
      <trkpt lat="43.31685" lon="3.30506">
        <ele>50</ele>
        <time>2021-07-01T10:14:15.000Z</time>
      </trkpt>
      <trkpt lat="43.31682" lon="3.30522">
        <ele>50</ele>
        <time>2021-07-01T10:14:17.000Z</time>
      </trkpt>
      <trkpt lat="43.31679" lon="3.30539">
        <ele>50</ele>
        <time>2021-07-01T10:14:19.000Z</time>
      </trkpt>
      <trkpt lat="43.31675" lon="3.30553">
        <ele>49</ele>
        <time>2021-07-01T10:14:21.000Z</time>
      </trkpt>
      <trkpt lat="43.31672" lon="3.30568">
        <ele>49</ele>
        <time>2021-07-01T10:14:23.000Z</time>
      </trkpt>
      <trkpt lat="43.31669" lon="3.30582">
        <ele>50</ele>
        <time>2021-07-01T10:14:25.000Z</time>
      </trkpt>
      <trkpt lat="43.31668" lon="3.30598">
        <ele>48</ele>
        <time>2021-07-01T10:14:27.000Z</time>
      </trkpt>
      <trkpt lat="43.31665" lon="3.30612">
        <ele>48</ele>
        <time>2021-07-01T10:14:29.000Z</time>
      </trkpt>
      <trkpt lat="43.31662" lon="3.30624">
        <ele>49</ele>
        <time>2021-07-01T10:14:31.000Z</time>
      </trkpt>
      <trkpt lat="43.31658" lon="3.30637">
        <ele>50</ele>
        <time>2021-07-01T10:14:33.000Z</time>
      </trkpt>
      <trkpt lat="43.31658" lon="3.3065">
        <ele>49</ele>
        <time>2021-07-01T10:14:35.000Z</time>
      </trkpt>
      <trkpt lat="43.31656" lon="3.30662">
        <ele>50</ele>
        <time>2021-07-01T10:14:37.000Z</time>
      </trkpt>
      <trkpt lat="43.31651" lon="3.30674">
        <ele>50</ele>
        <time>2021-07-01T10:14:39.000Z</time>
      </trkpt>
      <trkpt lat="43.31647" lon="3.30689">
        <ele>50</ele>
        <time>2021-07-01T10:14:41.000Z</time>
      </trkpt>
      <trkpt lat="43.31643" lon="3.30703">
        <ele>50</ele>
        <time>2021-07-01T10:14:43.000Z</time>
      </trkpt>
      <trkpt lat="43.31639" lon="3.30718">
        <ele>51</ele>
        <time>2021-07-01T10:14:45.000Z</time>
      </trkpt>
      <trkpt lat="43.31631" lon="3.30744">
        <ele>53</ele>
        <time>2021-07-01T10:14:49.000Z</time>
      </trkpt>
      <trkpt lat="43.31628" lon="3.30758">
        <ele>53</ele>
        <time>2021-07-01T10:14:51.000Z</time>
      </trkpt>
      <trkpt lat="43.31624" lon="3.30774">
        <ele>53</ele>
        <time>2021-07-01T10:14:53.000Z</time>
      </trkpt>
      <trkpt lat="43.31622" lon="3.30792">
        <ele>52</ele>
        <time>2021-07-01T10:14:55.000Z</time>
      </trkpt>
      <trkpt lat="43.31618" lon="3.3081">
        <ele>52</ele>
        <time>2021-07-01T10:14:57.000Z</time>
      </trkpt>
      <trkpt lat="43.31615" lon="3.30827">
        <ele>50</ele>
        <time>2021-07-01T10:14:59.000Z</time>
      </trkpt>
      <trkpt lat="43.31609" lon="3.30849">
        <ele>49</ele>
        <time>2021-07-01T10:15:02.000Z</time>
      </trkpt>
      <trkpt lat="43.31605" lon="3.30864">
        <ele>49</ele>
        <time>2021-07-01T10:15:04.000Z</time>
      </trkpt>
      <trkpt lat="43.31602" lon="3.30879">
        <ele>50</ele>
        <time>2021-07-01T10:15:06.000Z</time>
      </trkpt>
      <trkpt lat="43.31599" lon="3.30903">
        <ele>49</ele>
        <time>2021-07-01T10:15:09.000Z</time>
      </trkpt>
      <trkpt lat="43.31595" lon="3.30917">
        <ele>50</ele>
        <time>2021-07-01T10:15:11.000Z</time>
      </trkpt>
      <trkpt lat="43.31592" lon="3.30932">
        <ele>49</ele>
        <time>2021-07-01T10:15:13.000Z</time>
      </trkpt>
      <trkpt lat="43.31589" lon="3.30949">
        <ele>49</ele>
        <time>2021-07-01T10:15:15.000Z</time>
      </trkpt>
      <trkpt lat="43.31586" lon="3.30965">
        <ele>49</ele>
        <time>2021-07-01T10:15:17.000Z</time>
      </trkpt>
      <trkpt lat="43.31583" lon="3.30979">
        <ele>49</ele>
        <time>2021-07-01T10:15:19.000Z</time>
      </trkpt>
      <trkpt lat="43.31578" lon="3.30992">
        <ele>49</ele>
        <time>2021-07-01T10:15:21.000Z</time>
      </trkpt>
      <trkpt lat="43.31574" lon="3.31004">
        <ele>50</ele>
        <time>2021-07-01T10:15:23.000Z</time>
      </trkpt>
      <trkpt lat="43.3157" lon="3.31018">
        <ele>49</ele>
        <time>2021-07-01T10:15:25.000Z</time>
      </trkpt>
      <trkpt lat="43.31566" lon="3.31032">
        <ele>50</ele>
        <time>2021-07-01T10:15:27.000Z</time>
      </trkpt>
      <trkpt lat="43.31562" lon="3.31045">
        <ele>50</ele>
        <time>2021-07-01T10:15:29.000Z</time>
      </trkpt>
      <trkpt lat="43.31558" lon="3.3106">
        <ele>50</ele>
        <time>2021-07-01T10:15:31.000Z</time>
      </trkpt>
      <trkpt lat="43.31553" lon="3.31074">
        <ele>50</ele>
        <time>2021-07-01T10:15:33.000Z</time>
      </trkpt>
      <trkpt lat="43.31548" lon="3.31088">
        <ele>50</ele>
        <time>2021-07-01T10:15:35.000Z</time>
      </trkpt>
      <trkpt lat="43.31543" lon="3.31101">
        <ele>50</ele>
        <time>2021-07-01T10:15:37.000Z</time>
      </trkpt>
      <trkpt lat="43.31535" lon="3.31122">
        <ele>49</ele>
        <time>2021-07-01T10:15:40.000Z</time>
      </trkpt>
      <trkpt lat="43.31529" lon="3.31135">
        <ele>49</ele>
        <time>2021-07-01T10:15:42.000Z</time>
      </trkpt>
      <trkpt lat="43.31524" lon="3.31147">
        <ele>49</ele>
        <time>2021-07-01T10:15:44.000Z</time>
      </trkpt>
      <trkpt lat="43.31518" lon="3.31159">
        <ele>49</ele>
        <time>2021-07-01T10:15:46.000Z</time>
      </trkpt>
      <trkpt lat="43.31511" lon="3.31172">
        <ele>48</ele>
        <time>2021-07-01T10:15:48.000Z</time>
      </trkpt>
      <trkpt lat="43.31504" lon="3.31184">
        <ele>48</ele>
        <time>2021-07-01T10:15:50.000Z</time>
      </trkpt>
      <trkpt lat="43.31499" lon="3.31197">
        <ele>48</ele>
        <time>2021-07-01T10:15:52.000Z</time>
      </trkpt>
      <trkpt lat="43.31489" lon="3.31215">
        <ele>47</ele>
        <time>2021-07-01T10:15:55.000Z</time>
      </trkpt>
      <trkpt lat="43.31483" lon="3.31227">
        <ele>47</ele>
        <time>2021-07-01T10:15:57.000Z</time>
      </trkpt>
      <trkpt lat="43.31477" lon="3.31239">
        <ele>47</ele>
        <time>2021-07-01T10:15:59.000Z</time>
      </trkpt>
      <trkpt lat="43.31471" lon="3.3125">
        <ele>48</ele>
        <time>2021-07-01T10:16:01.000Z</time>
      </trkpt>
      <trkpt lat="43.31463" lon="3.31264">
        <ele>49</ele>
        <time>2021-07-01T10:16:04.000Z</time>
      </trkpt>
      <trkpt lat="43.31456" lon="3.31276">
        <ele>50</ele>
        <time>2021-07-01T10:16:07.000Z</time>
      </trkpt>
      <trkpt lat="43.31448" lon="3.31286">
        <ele>50</ele>
        <time>2021-07-01T10:16:10.000Z</time>
      </trkpt>
      <trkpt lat="43.3144" lon="3.31301">
        <ele>50</ele>
        <time>2021-07-01T10:16:13.000Z</time>
      </trkpt>
      <trkpt lat="43.31433" lon="3.31314">
        <ele>49</ele>
        <time>2021-07-01T10:16:15.000Z</time>
      </trkpt>
      <trkpt lat="43.31425" lon="3.31327">
        <ele>48</ele>
        <time>2021-07-01T10:16:17.000Z</time>
      </trkpt>
      <trkpt lat="43.31419" lon="3.31339">
        <ele>47</ele>
        <time>2021-07-01T10:16:19.000Z</time>
      </trkpt>
      <trkpt lat="43.31413" lon="3.31349">
        <ele>46</ele>
        <time>2021-07-01T10:16:21.000Z</time>
      </trkpt>
      <trkpt lat="43.31406" lon="3.31361">
        <ele>47</ele>
        <time>2021-07-01T10:16:23.000Z</time>
      </trkpt>
      <trkpt lat="43.31398" lon="3.31373">
        <ele>47</ele>
        <time>2021-07-01T10:16:25.000Z</time>
      </trkpt>
      <trkpt lat="43.31391" lon="3.31385">
        <ele>47</ele>
        <time>2021-07-01T10:16:27.000Z</time>
      </trkpt>
      <trkpt lat="43.31384" lon="3.31396">
        <ele>46</ele>
        <time>2021-07-01T10:16:29.000Z</time>
      </trkpt>
      <trkpt lat="43.31376" lon="3.31409">
        <ele>46</ele>
        <time>2021-07-01T10:16:31.000Z</time>
      </trkpt>
      <trkpt lat="43.31369" lon="3.31421">
        <ele>47</ele>
        <time>2021-07-01T10:16:33.000Z</time>
      </trkpt>
      <trkpt lat="43.31358" lon="3.31442">
        <ele>46</ele>
        <time>2021-07-01T10:16:36.000Z</time>
      </trkpt>
      <trkpt lat="43.31351" lon="3.31455">
        <ele>47</ele>
        <time>2021-07-01T10:16:38.000Z</time>
      </trkpt>
      <trkpt lat="43.31345" lon="3.31466">
        <ele>48</ele>
        <time>2021-07-01T10:16:40.000Z</time>
      </trkpt>
      <trkpt lat="43.31333" lon="3.31484">
        <ele>48</ele>
        <time>2021-07-01T10:16:43.000Z</time>
      </trkpt>
      <trkpt lat="43.31326" lon="3.31497">
        <ele>47</ele>
        <time>2021-07-01T10:16:45.000Z</time>
      </trkpt>
      <trkpt lat="43.31319" lon="3.31509">
        <ele>47</ele>
        <time>2021-07-01T10:16:47.000Z</time>
      </trkpt>
      <trkpt lat="43.31313" lon="3.31521">
        <ele>48</ele>
        <time>2021-07-01T10:16:49.000Z</time>
      </trkpt>
      <trkpt lat="43.31304" lon="3.31539">
        <ele>47</ele>
        <time>2021-07-01T10:16:52.000Z</time>
      </trkpt>
      <trkpt lat="43.31296" lon="3.31549">
        <ele>48</ele>
        <time>2021-07-01T10:16:54.000Z</time>
      </trkpt>
      <trkpt lat="43.31288" lon="3.31561">
        <ele>49</ele>
        <time>2021-07-01T10:16:56.000Z</time>
      </trkpt>
      <trkpt lat="43.31281" lon="3.31572">
        <ele>48</ele>
        <time>2021-07-01T10:16:58.000Z</time>
      </trkpt>
      <trkpt lat="43.31274" lon="3.31584">
        <ele>48</ele>
        <time>2021-07-01T10:17:00.000Z</time>
      </trkpt>
      <trkpt lat="43.31264" lon="3.31602">
        <ele>47</ele>
        <time>2021-07-01T10:17:03.000Z</time>
      </trkpt>
      <trkpt lat="43.31258" lon="3.31614">
        <ele>48</ele>
        <time>2021-07-01T10:17:05.000Z</time>
      </trkpt>
      <trkpt lat="43.31251" lon="3.31628">
        <ele>46</ele>
        <time>2021-07-01T10:17:07.000Z</time>
      </trkpt>
      <trkpt lat="43.31244" lon="3.3164">
        <ele>45</ele>
        <time>2021-07-01T10:17:09.000Z</time>
      </trkpt>
      <trkpt lat="43.31233" lon="3.31657">
        <ele>46</ele>
        <time>2021-07-01T10:17:12.000Z</time>
      </trkpt>
      <trkpt lat="43.31226" lon="3.31669">
        <ele>46</ele>
        <time>2021-07-01T10:17:14.000Z</time>
      </trkpt>
      <trkpt lat="43.31219" lon="3.31683">
        <ele>46</ele>
        <time>2021-07-01T10:17:16.000Z</time>
      </trkpt>
      <trkpt lat="43.31212" lon="3.31694">
        <ele>47</ele>
        <time>2021-07-01T10:17:18.000Z</time>
      </trkpt>
      <trkpt lat="43.31205" lon="3.31706">
        <ele>47</ele>
        <time>2021-07-01T10:17:20.000Z</time>
      </trkpt>
      <trkpt lat="43.31196" lon="3.31724">
        <ele>47</ele>
        <time>2021-07-01T10:17:23.000Z</time>
      </trkpt>
      <trkpt lat="43.31189" lon="3.31734">
        <ele>47</ele>
        <time>2021-07-01T10:17:25.000Z</time>
      </trkpt>
      <trkpt lat="43.31182" lon="3.31745">
        <ele>47</ele>
        <time>2021-07-01T10:17:27.000Z</time>
      </trkpt>
      <trkpt lat="43.31175" lon="3.31757">
        <ele>47</ele>
        <time>2021-07-01T10:17:29.000Z</time>
      </trkpt>
      <trkpt lat="43.31169" lon="3.31767">
        <ele>47</ele>
        <time>2021-07-01T10:17:31.000Z</time>
      </trkpt>
      <trkpt lat="43.31162" lon="3.31779">
        <ele>48</ele>
        <time>2021-07-01T10:17:33.000Z</time>
      </trkpt>
      <trkpt lat="43.31154" lon="3.31792">
        <ele>48</ele>
        <time>2021-07-01T10:17:35.000Z</time>
      </trkpt>
      <trkpt lat="43.31147" lon="3.31805">
        <ele>49</ele>
        <time>2021-07-01T10:17:37.000Z</time>
      </trkpt>
      <trkpt lat="43.31139" lon="3.31818">
        <ele>48</ele>
        <time>2021-07-01T10:17:39.000Z</time>
      </trkpt>
      <trkpt lat="43.31132" lon="3.31829">
        <ele>48</ele>
        <time>2021-07-01T10:17:41.000Z</time>
      </trkpt>
      <trkpt lat="43.31123" lon="3.31847">
        <ele>49</ele>
        <time>2021-07-01T10:17:44.000Z</time>
      </trkpt>
      <trkpt lat="43.31117" lon="3.31858">
        <ele>49</ele>
        <time>2021-07-01T10:17:46.000Z</time>
      </trkpt>
      <trkpt lat="43.31111" lon="3.31871">
        <ele>49</ele>
        <time>2021-07-01T10:17:48.000Z</time>
      </trkpt>
      <trkpt lat="43.31104" lon="3.31883">
        <ele>48</ele>
        <time>2021-07-01T10:17:50.000Z</time>
      </trkpt>
      <trkpt lat="43.31097" lon="3.31895">
        <ele>48</ele>
        <time>2021-07-01T10:17:52.000Z</time>
      </trkpt>
      <trkpt lat="43.31091" lon="3.31904">
        <ele>47</ele>
        <time>2021-07-01T10:17:54.000Z</time>
      </trkpt>
      <trkpt lat="43.31083" lon="3.31916">
        <ele>48</ele>
        <time>2021-07-01T10:17:56.000Z</time>
      </trkpt>
      <trkpt lat="43.31076" lon="3.31928">
        <ele>48</ele>
        <time>2021-07-01T10:17:58.000Z</time>
      </trkpt>
      <trkpt lat="43.31069" lon="3.31941">
        <ele>48</ele>
        <time>2021-07-01T10:18:00.000Z</time>
      </trkpt>
      <trkpt lat="43.31062" lon="3.31954">
        <ele>49</ele>
        <time>2021-07-01T10:18:02.000Z</time>
      </trkpt>
      <trkpt lat="43.31055" lon="3.31966">
        <ele>49</ele>
        <time>2021-07-01T10:18:04.000Z</time>
      </trkpt>
      <trkpt lat="43.31049" lon="3.3198">
        <ele>50</ele>
        <time>2021-07-01T10:18:06.000Z</time>
      </trkpt>
      <trkpt lat="43.31042" lon="3.31993">
        <ele>50</ele>
        <time>2021-07-01T10:18:08.000Z</time>
      </trkpt>
      <trkpt lat="43.31036" lon="3.32008">
        <ele>50</ele>
        <time>2021-07-01T10:18:10.000Z</time>
      </trkpt>
      <trkpt lat="43.31025" lon="3.32026">
        <ele>50</ele>
        <time>2021-07-01T10:18:13.000Z</time>
      </trkpt>
      <trkpt lat="43.31018" lon="3.32037">
        <ele>50</ele>
        <time>2021-07-01T10:18:15.000Z</time>
      </trkpt>
      <trkpt lat="43.31011" lon="3.32049">
        <ele>51</ele>
        <time>2021-07-01T10:18:17.000Z</time>
      </trkpt>
      <trkpt lat="43.31004" lon="3.32061">
        <ele>51</ele>
        <time>2021-07-01T10:18:19.000Z</time>
      </trkpt>
      <trkpt lat="43.30995" lon="3.32074">
        <ele>51</ele>
        <time>2021-07-01T10:18:21.000Z</time>
      </trkpt>
      <trkpt lat="43.30989" lon="3.32087">
        <ele>51</ele>
        <time>2021-07-01T10:18:23.000Z</time>
      </trkpt>
      <trkpt lat="43.30982" lon="3.321">
        <ele>50</ele>
        <time>2021-07-01T10:18:25.000Z</time>
      </trkpt>
      <trkpt lat="43.30975" lon="3.32111">
        <ele>50</ele>
        <time>2021-07-01T10:18:27.000Z</time>
      </trkpt>
      <trkpt lat="43.30969" lon="3.3212">
        <ele>50</ele>
        <time>2021-07-01T10:18:29.000Z</time>
      </trkpt>
      <trkpt lat="43.30962" lon="3.3213">
        <ele>52</ele>
        <time>2021-07-01T10:18:31.000Z</time>
      </trkpt>
      <trkpt lat="43.30956" lon="3.32142">
        <ele>53</ele>
        <time>2021-07-01T10:18:33.000Z</time>
      </trkpt>
      <trkpt lat="43.30945" lon="3.32161">
        <ele>52</ele>
        <time>2021-07-01T10:18:36.000Z</time>
      </trkpt>
      <trkpt lat="43.30936" lon="3.32175">
        <ele>53</ele>
        <time>2021-07-01T10:18:38.000Z</time>
      </trkpt>
      <trkpt lat="43.30929" lon="3.32189">
        <ele>53</ele>
        <time>2021-07-01T10:18:40.000Z</time>
      </trkpt>
      <trkpt lat="43.30922" lon="3.32201">
        <ele>52</ele>
        <time>2021-07-01T10:18:42.000Z</time>
      </trkpt>
      <trkpt lat="43.30915" lon="3.32215">
        <ele>52</ele>
        <time>2021-07-01T10:18:44.000Z</time>
      </trkpt>
      <trkpt lat="43.30908" lon="3.32227">
        <ele>51</ele>
        <time>2021-07-01T10:18:46.000Z</time>
      </trkpt>
      <trkpt lat="43.30901" lon="3.32239">
        <ele>51</ele>
        <time>2021-07-01T10:18:48.000Z</time>
      </trkpt>
      <trkpt lat="43.30894" lon="3.3225">
        <ele>51</ele>
        <time>2021-07-01T10:18:50.000Z</time>
      </trkpt>
      <trkpt lat="43.30887" lon="3.3226">
        <ele>51</ele>
        <time>2021-07-01T10:18:52.000Z</time>
      </trkpt>
      <trkpt lat="43.30875" lon="3.32278">
        <ele>51</ele>
        <time>2021-07-01T10:18:55.000Z</time>
      </trkpt>
      <trkpt lat="43.30868" lon="3.3229">
        <ele>51</ele>
        <time>2021-07-01T10:18:57.000Z</time>
      </trkpt>
      <trkpt lat="43.30861" lon="3.32302">
        <ele>51</ele>
        <time>2021-07-01T10:18:59.000Z</time>
      </trkpt>
      <trkpt lat="43.30852" lon="3.32315">
        <ele>52</ele>
        <time>2021-07-01T10:19:01.000Z</time>
      </trkpt>
      <trkpt lat="43.30841" lon="3.32332">
        <ele>52</ele>
        <time>2021-07-01T10:19:04.000Z</time>
      </trkpt>
      <trkpt lat="43.30834" lon="3.32344">
        <ele>51</ele>
        <time>2021-07-01T10:19:06.000Z</time>
      </trkpt>
      <trkpt lat="43.30826" lon="3.32356">
        <ele>51</ele>
        <time>2021-07-01T10:19:08.000Z</time>
      </trkpt>
      <trkpt lat="43.30818" lon="3.32369">
        <ele>50</ele>
        <time>2021-07-01T10:19:10.000Z</time>
      </trkpt>
      <trkpt lat="43.30807" lon="3.32389">
        <ele>49</ele>
        <time>2021-07-01T10:19:13.000Z</time>
      </trkpt>
      <trkpt lat="43.30799" lon="3.324">
        <ele>50</ele>
        <time>2021-07-01T10:19:15.000Z</time>
      </trkpt>
      <trkpt lat="43.30791" lon="3.32409">
        <ele>50</ele>
        <time>2021-07-01T10:19:17.000Z</time>
      </trkpt>
      <trkpt lat="43.30782" lon="3.32423">
        <ele>51</ele>
        <time>2021-07-01T10:19:20.000Z</time>
      </trkpt>
      <trkpt lat="43.30771" lon="3.32443">
        <ele>51</ele>
        <time>2021-07-01T10:19:24.000Z</time>
      </trkpt>
      <trkpt lat="43.30759" lon="3.3246">
        <ele>50</ele>
        <time>2021-07-01T10:19:27.000Z</time>
      </trkpt>
      <trkpt lat="43.30751" lon="3.32472">
        <ele>50</ele>
        <time>2021-07-01T10:19:29.000Z</time>
      </trkpt>
      <trkpt lat="43.30742" lon="3.32485">
        <ele>50</ele>
        <time>2021-07-01T10:19:31.000Z</time>
      </trkpt>
      <trkpt lat="43.3073" lon="3.32502">
        <ele>51</ele>
        <time>2021-07-01T10:19:34.000Z</time>
      </trkpt>
      <trkpt lat="43.30719" lon="3.32519">
        <ele>47</ele>
        <time>2021-07-01T10:19:37.000Z</time>
      </trkpt>
      <trkpt lat="43.30711" lon="3.32528">
        <ele>45</ele>
        <time>2021-07-01T10:19:39.000Z</time>
      </trkpt>
      <trkpt lat="43.30703" lon="3.32541">
        <ele>45</ele>
        <time>2021-07-01T10:19:41.000Z</time>
      </trkpt>
      <trkpt lat="43.30695" lon="3.32553">
        <ele>45</ele>
        <time>2021-07-01T10:19:43.000Z</time>
      </trkpt>
      <trkpt lat="43.30687" lon="3.32564">
        <ele>45</ele>
        <time>2021-07-01T10:19:45.000Z</time>
      </trkpt>
      <trkpt lat="43.30678" lon="3.32576">
        <ele>45</ele>
        <time>2021-07-01T10:19:47.000Z</time>
      </trkpt>
      <trkpt lat="43.30671" lon="3.32588">
        <ele>46</ele>
        <time>2021-07-01T10:19:49.000Z</time>
      </trkpt>
      <trkpt lat="43.30663" lon="3.32599">
        <ele>47</ele>
        <time>2021-07-01T10:19:51.000Z</time>
      </trkpt>
      <trkpt lat="43.30655" lon="3.3261">
        <ele>46</ele>
        <time>2021-07-01T10:19:53.000Z</time>
      </trkpt>
      <trkpt lat="43.30647" lon="3.32622">
        <ele>47</ele>
        <time>2021-07-01T10:19:55.000Z</time>
      </trkpt>
      <trkpt lat="43.30639" lon="3.32634">
        <ele>48</ele>
        <time>2021-07-01T10:19:57.000Z</time>
      </trkpt>
      <trkpt lat="43.3063" lon="3.32646">
        <ele>48</ele>
        <time>2021-07-01T10:19:59.000Z</time>
      </trkpt>
      <trkpt lat="43.30624" lon="3.32658">
        <ele>49</ele>
        <time>2021-07-01T10:20:01.000Z</time>
      </trkpt>
      <trkpt lat="43.30617" lon="3.32669">
        <ele>49</ele>
        <time>2021-07-01T10:20:03.000Z</time>
      </trkpt>
      <trkpt lat="43.30608" lon="3.32681">
        <ele>49</ele>
        <time>2021-07-01T10:20:05.000Z</time>
      </trkpt>
      <trkpt lat="43.30599" lon="3.32693">
        <ele>49</ele>
        <time>2021-07-01T10:20:07.000Z</time>
      </trkpt>
      <trkpt lat="43.30587" lon="3.3271">
        <ele>50</ele>
        <time>2021-07-01T10:20:10.000Z</time>
      </trkpt>
      <trkpt lat="43.3058" lon="3.32721">
        <ele>50</ele>
        <time>2021-07-01T10:20:12.000Z</time>
      </trkpt>
      <trkpt lat="43.30572" lon="3.32733">
        <ele>51</ele>
        <time>2021-07-01T10:20:14.000Z</time>
      </trkpt>
      <trkpt lat="43.30564" lon="3.32745">
        <ele>51</ele>
        <time>2021-07-01T10:20:16.000Z</time>
      </trkpt>
      <trkpt lat="43.30556" lon="3.32758">
        <ele>50</ele>
        <time>2021-07-01T10:20:18.000Z</time>
      </trkpt>
      <trkpt lat="43.30549" lon="3.32771">
        <ele>51</ele>
        <time>2021-07-01T10:20:20.000Z</time>
      </trkpt>
      <trkpt lat="43.30536" lon="3.3279">
        <ele>51</ele>
        <time>2021-07-01T10:20:23.000Z</time>
      </trkpt>
      <trkpt lat="43.30528" lon="3.32803">
        <ele>50</ele>
        <time>2021-07-01T10:20:25.000Z</time>
      </trkpt>
      <trkpt lat="43.30521" lon="3.32814">
        <ele>51</ele>
        <time>2021-07-01T10:20:27.000Z</time>
      </trkpt>
      <trkpt lat="43.30513" lon="3.32826">
        <ele>51</ele>
        <time>2021-07-01T10:20:29.000Z</time>
      </trkpt>
      <trkpt lat="43.30506" lon="3.32838">
        <ele>51</ele>
        <time>2021-07-01T10:20:31.000Z</time>
      </trkpt>
      <trkpt lat="43.30499" lon="3.32849">
        <ele>51</ele>
        <time>2021-07-01T10:20:33.000Z</time>
      </trkpt>
      <trkpt lat="43.30491" lon="3.3286">
        <ele>51</ele>
        <time>2021-07-01T10:20:35.000Z</time>
      </trkpt>
      <trkpt lat="43.30484" lon="3.32872">
        <ele>50</ele>
        <time>2021-07-01T10:20:37.000Z</time>
      </trkpt>
      <trkpt lat="43.30477" lon="3.32883">
        <ele>51</ele>
        <time>2021-07-01T10:20:39.000Z</time>
      </trkpt>
      <trkpt lat="43.30469" lon="3.32895">
        <ele>51</ele>
        <time>2021-07-01T10:20:41.000Z</time>
      </trkpt>
      <trkpt lat="43.30463" lon="3.32907">
        <ele>50</ele>
        <time>2021-07-01T10:20:43.000Z</time>
      </trkpt>
      <trkpt lat="43.30456" lon="3.32918">
        <ele>50</ele>
        <time>2021-07-01T10:20:45.000Z</time>
      </trkpt>
      <trkpt lat="43.3045" lon="3.32927">
        <ele>49</ele>
        <time>2021-07-01T10:20:47.000Z</time>
      </trkpt>
      <trkpt lat="43.30443" lon="3.32937">
        <ele>50</ele>
        <time>2021-07-01T10:20:51.000Z</time>
      </trkpt>
      <trkpt lat="43.30437" lon="3.32951">
        <ele>50</ele>
        <time>2021-07-01T10:20:58.000Z</time>
      </trkpt>
      <trkpt lat="43.3043" lon="3.3296">
        <ele>50</ele>
        <time>2021-07-01T10:21:31.000Z</time>
      </trkpt>
      <trkpt lat="43.30424" lon="3.3297">
        <ele>50</ele>
        <time>2021-07-01T10:21:34.000Z</time>
      </trkpt>
      <trkpt lat="43.30414" lon="3.32979">
        <ele>49</ele>
        <time>2021-07-01T10:21:37.000Z</time>
      </trkpt>
      <trkpt lat="43.30407" lon="3.32991">
        <ele>51</ele>
        <time>2021-07-01T10:21:40.000Z</time>
      </trkpt>
      <trkpt lat="43.30399" lon="3.33003">
        <ele>51</ele>
        <time>2021-07-01T10:21:43.000Z</time>
      </trkpt>
      <trkpt lat="43.30387" lon="3.33019">
        <ele>51</ele>
        <time>2021-07-01T10:21:47.000Z</time>
      </trkpt>
      <trkpt lat="43.3038" lon="3.33027">
        <ele>51</ele>
        <time>2021-07-01T10:21:49.000Z</time>
      </trkpt>
      <trkpt lat="43.30366" lon="3.33043">
        <ele>51</ele>
        <time>2021-07-01T10:21:53.000Z</time>
      </trkpt>
      <trkpt lat="43.30359" lon="3.33051">
        <ele>50</ele>
        <time>2021-07-01T10:21:55.000Z</time>
      </trkpt>
      <trkpt lat="43.30351" lon="3.33059">
        <ele>49</ele>
        <time>2021-07-01T10:21:57.000Z</time>
      </trkpt>
      <trkpt lat="43.30342" lon="3.33066">
        <ele>50</ele>
        <time>2021-07-01T10:21:59.000Z</time>
      </trkpt>
      <trkpt lat="43.30334" lon="3.33073">
        <ele>49</ele>
        <time>2021-07-01T10:22:01.000Z</time>
      </trkpt>
      <trkpt lat="43.30325" lon="3.33081">
        <ele>49</ele>
        <time>2021-07-01T10:22:03.000Z</time>
      </trkpt>
      <trkpt lat="43.30317" lon="3.33088">
        <ele>49</ele>
        <time>2021-07-01T10:22:05.000Z</time>
      </trkpt>
      <trkpt lat="43.30308" lon="3.33093">
        <ele>49</ele>
        <time>2021-07-01T10:22:07.000Z</time>
      </trkpt>
      <trkpt lat="43.30295" lon="3.33102">
        <ele>49</ele>
        <time>2021-07-01T10:22:10.000Z</time>
      </trkpt>
      <trkpt lat="43.30286" lon="3.33108">
        <ele>50</ele>
        <time>2021-07-01T10:22:12.000Z</time>
      </trkpt>
      <trkpt lat="43.30277" lon="3.33115">
        <ele>50</ele>
        <time>2021-07-01T10:22:14.000Z</time>
      </trkpt>
      <trkpt lat="43.30267" lon="3.3312">
        <ele>49</ele>
        <time>2021-07-01T10:22:16.000Z</time>
      </trkpt>
      <trkpt lat="43.30259" lon="3.33127">
        <ele>49</ele>
        <time>2021-07-01T10:22:18.000Z</time>
      </trkpt>
      <trkpt lat="43.30245" lon="3.33136">
        <ele>49</ele>
        <time>2021-07-01T10:22:21.000Z</time>
      </trkpt>
      <trkpt lat="43.30235" lon="3.33141">
        <ele>49</ele>
        <time>2021-07-01T10:22:23.000Z</time>
      </trkpt>
      <trkpt lat="43.30225" lon="3.33146">
        <ele>48</ele>
        <time>2021-07-01T10:22:25.000Z</time>
      </trkpt>
      <trkpt lat="43.30216" lon="3.3315">
        <ele>49</ele>
        <time>2021-07-01T10:22:27.000Z</time>
      </trkpt>
      <trkpt lat="43.30206" lon="3.33154">
        <ele>48</ele>
        <time>2021-07-01T10:22:29.000Z</time>
      </trkpt>
      <trkpt lat="43.30196" lon="3.33159">
        <ele>49</ele>
        <time>2021-07-01T10:22:31.000Z</time>
      </trkpt>
      <trkpt lat="43.30187" lon="3.33164">
        <ele>48</ele>
        <time>2021-07-01T10:22:33.000Z</time>
      </trkpt>
      <trkpt lat="43.30177" lon="3.33168">
        <ele>49</ele>
        <time>2021-07-01T10:22:35.000Z</time>
      </trkpt>
      <trkpt lat="43.30168" lon="3.33171">
        <ele>48</ele>
        <time>2021-07-01T10:22:37.000Z</time>
      </trkpt>
      <trkpt lat="43.30158" lon="3.33175">
        <ele>47</ele>
        <time>2021-07-01T10:22:39.000Z</time>
      </trkpt>
      <trkpt lat="43.30148" lon="3.33178">
        <ele>47</ele>
        <time>2021-07-01T10:22:41.000Z</time>
      </trkpt>
      <trkpt lat="43.3014" lon="3.33182">
        <ele>46</ele>
        <time>2021-07-01T10:22:43.000Z</time>
      </trkpt>
      <trkpt lat="43.3013" lon="3.33187">
        <ele>46</ele>
        <time>2021-07-01T10:22:45.000Z</time>
      </trkpt>
      <trkpt lat="43.30121" lon="3.3319">
        <ele>46</ele>
        <time>2021-07-01T10:22:47.000Z</time>
      </trkpt>
      <trkpt lat="43.30111" lon="3.33195">
        <ele>46</ele>
        <time>2021-07-01T10:22:49.000Z</time>
      </trkpt>
      <trkpt lat="43.30101" lon="3.33199">
        <ele>46</ele>
        <time>2021-07-01T10:22:51.000Z</time>
      </trkpt>
      <trkpt lat="43.30091" lon="3.33202">
        <ele>48</ele>
        <time>2021-07-01T10:22:53.000Z</time>
      </trkpt>
      <trkpt lat="43.30082" lon="3.33207">
        <ele>47</ele>
        <time>2021-07-01T10:22:55.000Z</time>
      </trkpt>
      <trkpt lat="43.30073" lon="3.33211">
        <ele>47</ele>
        <time>2021-07-01T10:22:57.000Z</time>
      </trkpt>
      <trkpt lat="43.30059" lon="3.33217">
        <ele>47</ele>
        <time>2021-07-01T10:23:00.000Z</time>
      </trkpt>
      <trkpt lat="43.30049" lon="3.3322">
        <ele>46</ele>
        <time>2021-07-01T10:23:02.000Z</time>
      </trkpt>
      <trkpt lat="43.30039" lon="3.33223">
        <ele>47</ele>
        <time>2021-07-01T10:23:04.000Z</time>
      </trkpt>
      <trkpt lat="43.3003" lon="3.33227">
        <ele>47</ele>
        <time>2021-07-01T10:23:06.000Z</time>
      </trkpt>
      <trkpt lat="43.3002" lon="3.33231">
        <ele>47</ele>
        <time>2021-07-01T10:23:08.000Z</time>
      </trkpt>
      <trkpt lat="43.3001" lon="3.33234">
        <ele>47</ele>
        <time>2021-07-01T10:23:10.000Z</time>
      </trkpt>
      <trkpt lat="43.30001" lon="3.33237">
        <ele>47</ele>
        <time>2021-07-01T10:23:12.000Z</time>
      </trkpt>
      <trkpt lat="43.29992" lon="3.33241">
        <ele>48</ele>
        <time>2021-07-01T10:23:14.000Z</time>
      </trkpt>
      <trkpt lat="43.29982" lon="3.33245">
        <ele>47</ele>
        <time>2021-07-01T10:23:16.000Z</time>
      </trkpt>
      <trkpt lat="43.29973" lon="3.33248">
        <ele>47</ele>
        <time>2021-07-01T10:23:18.000Z</time>
      </trkpt>
      <trkpt lat="43.29963" lon="3.33253">
        <ele>47</ele>
        <time>2021-07-01T10:23:20.000Z</time>
      </trkpt>
      <trkpt lat="43.29953" lon="3.33257">
        <ele>46</ele>
        <time>2021-07-01T10:23:22.000Z</time>
      </trkpt>
      <trkpt lat="43.29943" lon="3.33261">
        <ele>47</ele>
        <time>2021-07-01T10:23:24.000Z</time>
      </trkpt>
      <trkpt lat="43.29933" lon="3.33264">
        <ele>47</ele>
        <time>2021-07-01T10:23:26.000Z</time>
      </trkpt>
      <trkpt lat="43.29924" lon="3.33268">
        <ele>47</ele>
        <time>2021-07-01T10:23:28.000Z</time>
      </trkpt>
      <trkpt lat="43.29914" lon="3.33273">
        <ele>47</ele>
        <time>2021-07-01T10:23:30.000Z</time>
      </trkpt>
      <trkpt lat="43.29904" lon="3.33275">
        <ele>47</ele>
        <time>2021-07-01T10:23:32.000Z</time>
      </trkpt>
      <trkpt lat="43.29895" lon="3.33279">
        <ele>47</ele>
        <time>2021-07-01T10:23:34.000Z</time>
      </trkpt>
      <trkpt lat="43.29885" lon="3.33285">
        <ele>47</ele>
        <time>2021-07-01T10:23:36.000Z</time>
      </trkpt>
      <trkpt lat="43.29875" lon="3.3329">
        <ele>47</ele>
        <time>2021-07-01T10:23:38.000Z</time>
      </trkpt>
      <trkpt lat="43.29865" lon="3.33294">
        <ele>47</ele>
        <time>2021-07-01T10:23:40.000Z</time>
      </trkpt>
      <trkpt lat="43.29856" lon="3.33298">
        <ele>47</ele>
        <time>2021-07-01T10:23:42.000Z</time>
      </trkpt>
      <trkpt lat="43.29846" lon="3.33303">
        <ele>46</ele>
        <time>2021-07-01T10:23:44.000Z</time>
      </trkpt>
      <trkpt lat="43.29836" lon="3.33307">
        <ele>47</ele>
        <time>2021-07-01T10:23:46.000Z</time>
      </trkpt>
      <trkpt lat="43.29826" lon="3.33313">
        <ele>46</ele>
        <time>2021-07-01T10:23:48.000Z</time>
      </trkpt>
      <trkpt lat="43.29817" lon="3.33318">
        <ele>46</ele>
        <time>2021-07-01T10:23:50.000Z</time>
      </trkpt>
      <trkpt lat="43.29808" lon="3.33323">
        <ele>46</ele>
        <time>2021-07-01T10:23:52.000Z</time>
      </trkpt>
      <trkpt lat="43.29798" lon="3.33328">
        <ele>46</ele>
        <time>2021-07-01T10:23:54.000Z</time>
      </trkpt>
      <trkpt lat="43.29788" lon="3.33334">
        <ele>46</ele>
        <time>2021-07-01T10:23:56.000Z</time>
      </trkpt>
      <trkpt lat="43.29778" lon="3.3334">
        <ele>46</ele>
        <time>2021-07-01T10:23:58.000Z</time>
      </trkpt>
      <trkpt lat="43.29763" lon="3.33351">
        <ele>46</ele>
        <time>2021-07-01T10:24:01.000Z</time>
      </trkpt>
      <trkpt lat="43.29753" lon="3.33359">
        <ele>46</ele>
        <time>2021-07-01T10:24:03.000Z</time>
      </trkpt>
      <trkpt lat="43.29744" lon="3.33366">
        <ele>46</ele>
        <time>2021-07-01T10:24:05.000Z</time>
      </trkpt>
      <trkpt lat="43.29735" lon="3.33374">
        <ele>47</ele>
        <time>2021-07-01T10:24:07.000Z</time>
      </trkpt>
      <trkpt lat="43.29727" lon="3.33385">
        <ele>47</ele>
        <time>2021-07-01T10:24:09.000Z</time>
      </trkpt>
      <trkpt lat="43.29718" lon="3.33392">
        <ele>46</ele>
        <time>2021-07-01T10:24:11.000Z</time>
      </trkpt>
      <trkpt lat="43.29705" lon="3.33404">
        <ele>46</ele>
        <time>2021-07-01T10:24:14.000Z</time>
      </trkpt>
      <trkpt lat="43.29697" lon="3.33413">
        <ele>46</ele>
        <time>2021-07-01T10:24:16.000Z</time>
      </trkpt>
      <trkpt lat="43.29689" lon="3.33422">
        <ele>46</ele>
        <time>2021-07-01T10:24:18.000Z</time>
      </trkpt>
      <trkpt lat="43.2968" lon="3.33432">
        <ele>47</ele>
        <time>2021-07-01T10:24:20.000Z</time>
      </trkpt>
      <trkpt lat="43.29674" lon="3.33443">
        <ele>47</ele>
        <time>2021-07-01T10:24:22.000Z</time>
      </trkpt>
      <trkpt lat="43.29668" lon="3.33454">
        <ele>46</ele>
        <time>2021-07-01T10:24:24.000Z</time>
      </trkpt>
      <trkpt lat="43.29663" lon="3.33466">
        <ele>46</ele>
        <time>2021-07-01T10:24:26.000Z</time>
      </trkpt>
      <trkpt lat="43.29658" lon="3.33478">
        <ele>46</ele>
        <time>2021-07-01T10:24:28.000Z</time>
      </trkpt>
      <trkpt lat="43.29653" lon="3.3349">
        <ele>46</ele>
        <time>2021-07-01T10:24:30.000Z</time>
      </trkpt>
      <trkpt lat="43.29648" lon="3.33502">
        <ele>46</ele>
        <time>2021-07-01T10:24:32.000Z</time>
      </trkpt>
      <trkpt lat="43.29644" lon="3.33516">
        <ele>46</ele>
        <time>2021-07-01T10:24:34.000Z</time>
      </trkpt>
      <trkpt lat="43.29639" lon="3.3353">
        <ele>46</ele>
        <time>2021-07-01T10:24:36.000Z</time>
      </trkpt>
      <trkpt lat="43.29634" lon="3.33541">
        <ele>47</ele>
        <time>2021-07-01T10:24:38.000Z</time>
      </trkpt>
      <trkpt lat="43.2963" lon="3.33553">
        <ele>47</ele>
        <time>2021-07-01T10:24:40.000Z</time>
      </trkpt>
      <trkpt lat="43.29625" lon="3.33565">
        <ele>46</ele>
        <time>2021-07-01T10:24:42.000Z</time>
      </trkpt>
      <trkpt lat="43.29622" lon="3.33578">
        <ele>47</ele>
        <time>2021-07-01T10:24:44.000Z</time>
      </trkpt>
      <trkpt lat="43.29618" lon="3.33591">
        <ele>47</ele>
        <time>2021-07-01T10:24:46.000Z</time>
      </trkpt>
      <trkpt lat="43.29614" lon="3.33604">
        <ele>46</ele>
        <time>2021-07-01T10:24:48.000Z</time>
      </trkpt>
      <trkpt lat="43.29612" lon="3.33618">
        <ele>46</ele>
        <time>2021-07-01T10:24:50.000Z</time>
      </trkpt>
      <trkpt lat="43.29608" lon="3.33632">
        <ele>46</ele>
        <time>2021-07-01T10:24:52.000Z</time>
      </trkpt>
      <trkpt lat="43.29605" lon="3.33646">
        <ele>46</ele>
        <time>2021-07-01T10:24:54.000Z</time>
      </trkpt>
      <trkpt lat="43.29603" lon="3.3366">
        <ele>46</ele>
        <time>2021-07-01T10:24:56.000Z</time>
      </trkpt>
      <trkpt lat="43.296" lon="3.33674">
        <ele>46</ele>
        <time>2021-07-01T10:24:58.000Z</time>
      </trkpt>
      <trkpt lat="43.29598" lon="3.33689">
        <ele>46</ele>
        <time>2021-07-01T10:25:00.000Z</time>
      </trkpt>
      <trkpt lat="43.29595" lon="3.33703">
        <ele>47</ele>
        <time>2021-07-01T10:25:02.000Z</time>
      </trkpt>
      <trkpt lat="43.29593" lon="3.33717">
        <ele>47</ele>
        <time>2021-07-01T10:25:04.000Z</time>
      </trkpt>
      <trkpt lat="43.29592" lon="3.33732">
        <ele>47</ele>
        <time>2021-07-01T10:25:06.000Z</time>
      </trkpt>
      <trkpt lat="43.29592" lon="3.33746">
        <ele>47</ele>
        <time>2021-07-01T10:25:08.000Z</time>
      </trkpt>
      <trkpt lat="43.29593" lon="3.33762">
        <ele>48</ele>
        <time>2021-07-01T10:25:10.000Z</time>
      </trkpt>
      <trkpt lat="43.29592" lon="3.33776">
        <ele>48</ele>
        <time>2021-07-01T10:25:12.000Z</time>
      </trkpt>
      <trkpt lat="43.29587" lon="3.3379">
        <ele>48</ele>
        <time>2021-07-01T10:25:14.000Z</time>
      </trkpt>
      <trkpt lat="43.29583" lon="3.33803">
        <ele>48</ele>
        <time>2021-07-01T10:25:16.000Z</time>
      </trkpt>
      <trkpt lat="43.2958" lon="3.33817">
        <ele>48</ele>
        <time>2021-07-01T10:25:18.000Z</time>
      </trkpt>
      <trkpt lat="43.29578" lon="3.33831">
        <ele>48</ele>
        <time>2021-07-01T10:25:20.000Z</time>
      </trkpt>
      <trkpt lat="43.29577" lon="3.33845">
        <ele>47</ele>
        <time>2021-07-01T10:25:22.000Z</time>
      </trkpt>
      <trkpt lat="43.29575" lon="3.33858">
        <ele>47</ele>
        <time>2021-07-01T10:25:24.000Z</time>
      </trkpt>
      <trkpt lat="43.29573" lon="3.33872">
        <ele>48</ele>
        <time>2021-07-01T10:25:26.000Z</time>
      </trkpt>
      <trkpt lat="43.29569" lon="3.33886">
        <ele>47</ele>
        <time>2021-07-01T10:25:28.000Z</time>
      </trkpt>
      <trkpt lat="43.29566" lon="3.33899">
        <ele>45</ele>
        <time>2021-07-01T10:25:30.000Z</time>
      </trkpt>
      <trkpt lat="43.29562" lon="3.33914">
        <ele>46</ele>
        <time>2021-07-01T10:25:32.000Z</time>
      </trkpt>
      <trkpt lat="43.29559" lon="3.33931">
        <ele>46</ele>
        <time>2021-07-01T10:25:34.000Z</time>
      </trkpt>
      <trkpt lat="43.29555" lon="3.33945">
        <ele>46</ele>
        <time>2021-07-01T10:25:36.000Z</time>
      </trkpt>
      <trkpt lat="43.29551" lon="3.3396">
        <ele>46</ele>
        <time>2021-07-01T10:25:38.000Z</time>
      </trkpt>
      <trkpt lat="43.29546" lon="3.33974">
        <ele>46</ele>
        <time>2021-07-01T10:25:40.000Z</time>
      </trkpt>
      <trkpt lat="43.29542" lon="3.33987">
        <ele>46</ele>
        <time>2021-07-01T10:25:42.000Z</time>
      </trkpt>
      <trkpt lat="43.29537" lon="3.34">
        <ele>46</ele>
        <time>2021-07-01T10:25:44.000Z</time>
      </trkpt>
      <trkpt lat="43.29533" lon="3.34012">
        <ele>46</ele>
        <time>2021-07-01T10:25:46.000Z</time>
      </trkpt>
      <trkpt lat="43.29528" lon="3.34025">
        <ele>47</ele>
        <time>2021-07-01T10:25:48.000Z</time>
      </trkpt>
      <trkpt lat="43.29522" lon="3.34037">
        <ele>48</ele>
        <time>2021-07-01T10:25:50.000Z</time>
      </trkpt>
      <trkpt lat="43.29517" lon="3.34049">
        <ele>48</ele>
        <time>2021-07-01T10:25:52.000Z</time>
      </trkpt>
      <trkpt lat="43.29512" lon="3.34062">
        <ele>48</ele>
        <time>2021-07-01T10:25:54.000Z</time>
      </trkpt>
      <trkpt lat="43.29506" lon="3.34075">
        <ele>48</ele>
        <time>2021-07-01T10:25:56.000Z</time>
      </trkpt>
      <trkpt lat="43.29501" lon="3.34089">
        <ele>48</ele>
        <time>2021-07-01T10:25:58.000Z</time>
      </trkpt>
      <trkpt lat="43.29496" lon="3.34102">
        <ele>48</ele>
        <time>2021-07-01T10:26:00.000Z</time>
      </trkpt>
      <trkpt lat="43.29493" lon="3.34115">
        <ele>48</ele>
        <time>2021-07-01T10:26:02.000Z</time>
      </trkpt>
      <trkpt lat="43.29488" lon="3.34128">
        <ele>48</ele>
        <time>2021-07-01T10:26:04.000Z</time>
      </trkpt>
      <trkpt lat="43.2948" lon="3.34142">
        <ele>49</ele>
        <time>2021-07-01T10:26:06.000Z</time>
      </trkpt>
      <trkpt lat="43.29476" lon="3.34156">
        <ele>49</ele>
        <time>2021-07-01T10:26:08.000Z</time>
      </trkpt>
      <trkpt lat="43.29472" lon="3.34172">
        <ele>49</ele>
        <time>2021-07-01T10:26:10.000Z</time>
      </trkpt>
      <trkpt lat="43.29463" lon="3.34193">
        <ele>49</ele>
        <time>2021-07-01T10:26:13.000Z</time>
      </trkpt>
      <trkpt lat="43.29456" lon="3.34212">
        <ele>49</ele>
        <time>2021-07-01T10:26:16.000Z</time>
      </trkpt>
      <trkpt lat="43.29449" lon="3.34223">
        <ele>47</ele>
        <time>2021-07-01T10:26:18.000Z</time>
      </trkpt>
      <trkpt lat="43.29444" lon="3.34234">
        <ele>47</ele>
        <time>2021-07-01T10:26:20.000Z</time>
      </trkpt>
      <trkpt lat="43.29439" lon="3.34247">
        <ele>49</ele>
        <time>2021-07-01T10:26:22.000Z</time>
      </trkpt>
      <trkpt lat="43.29435" lon="3.3426">
        <ele>49</ele>
        <time>2021-07-01T10:26:24.000Z</time>
      </trkpt>
      <trkpt lat="43.29431" lon="3.34272">
        <ele>48</ele>
        <time>2021-07-01T10:26:26.000Z</time>
      </trkpt>
      <trkpt lat="43.29423" lon="3.3429">
        <ele>48</ele>
        <time>2021-07-01T10:26:29.000Z</time>
      </trkpt>
      <trkpt lat="43.29416" lon="3.34303">
        <ele>48</ele>
        <time>2021-07-01T10:26:31.000Z</time>
      </trkpt>
      <trkpt lat="43.29411" lon="3.34316">
        <ele>48</ele>
        <time>2021-07-01T10:26:33.000Z</time>
      </trkpt>
      <trkpt lat="43.29406" lon="3.34329">
        <ele>48</ele>
        <time>2021-07-01T10:26:35.000Z</time>
      </trkpt>
      <trkpt lat="43.294" lon="3.34344">
        <ele>48</ele>
        <time>2021-07-01T10:26:37.000Z</time>
      </trkpt>
      <trkpt lat="43.29395" lon="3.34358">
        <ele>49</ele>
        <time>2021-07-01T10:26:39.000Z</time>
      </trkpt>
      <trkpt lat="43.2939" lon="3.34372">
        <ele>48</ele>
        <time>2021-07-01T10:26:41.000Z</time>
      </trkpt>
      <trkpt lat="43.29386" lon="3.34384">
        <ele>48</ele>
        <time>2021-07-01T10:26:43.000Z</time>
      </trkpt>
      <trkpt lat="43.29382" lon="3.34396">
        <ele>48</ele>
        <time>2021-07-01T10:26:45.000Z</time>
      </trkpt>
      <trkpt lat="43.29376" lon="3.34408">
        <ele>49</ele>
        <time>2021-07-01T10:26:47.000Z</time>
      </trkpt>
      <trkpt lat="43.2937" lon="3.3442">
        <ele>49</ele>
        <time>2021-07-01T10:26:49.000Z</time>
      </trkpt>
      <trkpt lat="43.29361" lon="3.34439">
        <ele>49</ele>
        <time>2021-07-01T10:26:52.000Z</time>
      </trkpt>
      <trkpt lat="43.29354" lon="3.34452">
        <ele>49</ele>
        <time>2021-07-01T10:26:54.000Z</time>
      </trkpt>
      <trkpt lat="43.29349" lon="3.34466">
        <ele>48</ele>
        <time>2021-07-01T10:26:56.000Z</time>
      </trkpt>
      <trkpt lat="43.29343" lon="3.34478">
        <ele>48</ele>
        <time>2021-07-01T10:26:58.000Z</time>
      </trkpt>
      <trkpt lat="43.29338" lon="3.3449">
        <ele>48</ele>
        <time>2021-07-01T10:27:00.000Z</time>
      </trkpt>
      <trkpt lat="43.29328" lon="3.34516">
        <ele>48</ele>
        <time>2021-07-01T10:27:04.000Z</time>
      </trkpt>
      <trkpt lat="43.29322" lon="3.34528">
        <ele>48</ele>
        <time>2021-07-01T10:27:06.000Z</time>
      </trkpt>
      <trkpt lat="43.29317" lon="3.3454">
        <ele>48</ele>
        <time>2021-07-01T10:27:08.000Z</time>
      </trkpt>
      <trkpt lat="43.29309" lon="3.34559">
        <ele>47</ele>
        <time>2021-07-01T10:27:11.000Z</time>
      </trkpt>
      <trkpt lat="43.29305" lon="3.34571">
        <ele>47</ele>
        <time>2021-07-01T10:27:13.000Z</time>
      </trkpt>
      <trkpt lat="43.29293" lon="3.34592">
        <ele>49</ele>
        <time>2021-07-01T10:27:17.000Z</time>
      </trkpt>
      <trkpt lat="43.29287" lon="3.34604">
        <ele>49</ele>
        <time>2021-07-01T10:27:19.000Z</time>
      </trkpt>
      <trkpt lat="43.29281" lon="3.34615">
        <ele>49</ele>
        <time>2021-07-01T10:27:21.000Z</time>
      </trkpt>
      <trkpt lat="43.29275" lon="3.34628">
        <ele>49</ele>
        <time>2021-07-01T10:27:23.000Z</time>
      </trkpt>
      <trkpt lat="43.29272" lon="3.34643">
        <ele>49</ele>
        <time>2021-07-01T10:27:25.000Z</time>
      </trkpt>
      <trkpt lat="43.29265" lon="3.34658">
        <ele>49</ele>
        <time>2021-07-01T10:27:27.000Z</time>
      </trkpt>
      <trkpt lat="43.2926" lon="3.34673">
        <ele>50</ele>
        <time>2021-07-01T10:27:29.000Z</time>
      </trkpt>
      <trkpt lat="43.29255" lon="3.34687">
        <ele>49</ele>
        <time>2021-07-01T10:27:31.000Z</time>
      </trkpt>
      <trkpt lat="43.29249" lon="3.347">
        <ele>49</ele>
        <time>2021-07-01T10:27:33.000Z</time>
      </trkpt>
      <trkpt lat="43.29242" lon="3.34722">
        <ele>48</ele>
        <time>2021-07-01T10:27:36.000Z</time>
      </trkpt>
      <trkpt lat="43.29237" lon="3.34735">
        <ele>49</ele>
        <time>2021-07-01T10:27:38.000Z</time>
      </trkpt>
      <trkpt lat="43.29232" lon="3.34749">
        <ele>49</ele>
        <time>2021-07-01T10:27:40.000Z</time>
      </trkpt>
      <trkpt lat="43.29228" lon="3.34764">
        <ele>48</ele>
        <time>2021-07-01T10:27:42.000Z</time>
      </trkpt>
      <trkpt lat="43.29223" lon="3.34778">
        <ele>49</ele>
        <time>2021-07-01T10:27:44.000Z</time>
      </trkpt>
      <trkpt lat="43.29217" lon="3.34791">
        <ele>48</ele>
        <time>2021-07-01T10:27:46.000Z</time>
      </trkpt>
      <trkpt lat="43.29211" lon="3.34811">
        <ele>48</ele>
        <time>2021-07-01T10:27:49.000Z</time>
      </trkpt>
      <trkpt lat="43.29206" lon="3.34824">
        <ele>48</ele>
        <time>2021-07-01T10:27:51.000Z</time>
      </trkpt>
      <trkpt lat="43.292" lon="3.34837">
        <ele>48</ele>
        <time>2021-07-01T10:27:53.000Z</time>
      </trkpt>
      <trkpt lat="43.29192" lon="3.34858">
        <ele>48</ele>
        <time>2021-07-01T10:27:56.000Z</time>
      </trkpt>
      <trkpt lat="43.29186" lon="3.34871">
        <ele>48</ele>
        <time>2021-07-01T10:27:58.000Z</time>
      </trkpt>
      <trkpt lat="43.2918" lon="3.34893">
        <ele>48</ele>
        <time>2021-07-01T10:28:01.000Z</time>
      </trkpt>
      <trkpt lat="43.29175" lon="3.34908">
        <ele>47</ele>
        <time>2021-07-01T10:28:03.000Z</time>
      </trkpt>
      <trkpt lat="43.2917" lon="3.34921">
        <ele>47</ele>
        <time>2021-07-01T10:28:05.000Z</time>
      </trkpt>
      <trkpt lat="43.29165" lon="3.34935">
        <ele>47</ele>
        <time>2021-07-01T10:28:07.000Z</time>
      </trkpt>
      <trkpt lat="43.2916" lon="3.34949">
        <ele>47</ele>
        <time>2021-07-01T10:28:09.000Z</time>
      </trkpt>
      <trkpt lat="43.29156" lon="3.34962">
        <ele>47</ele>
        <time>2021-07-01T10:28:11.000Z</time>
      </trkpt>
      <trkpt lat="43.29151" lon="3.34975">
        <ele>47</ele>
        <time>2021-07-01T10:28:13.000Z</time>
      </trkpt>
      <trkpt lat="43.29146" lon="3.34988">
        <ele>48</ele>
        <time>2021-07-01T10:28:15.000Z</time>
      </trkpt>
      <trkpt lat="43.29142" lon="3.35001">
        <ele>48</ele>
        <time>2021-07-01T10:28:17.000Z</time>
      </trkpt>
      <trkpt lat="43.29137" lon="3.35014">
        <ele>48</ele>
        <time>2021-07-01T10:28:19.000Z</time>
      </trkpt>
      <trkpt lat="43.29132" lon="3.35028">
        <ele>48</ele>
        <time>2021-07-01T10:28:21.000Z</time>
      </trkpt>
      <trkpt lat="43.29127" lon="3.35041">
        <ele>48</ele>
        <time>2021-07-01T10:28:23.000Z</time>
      </trkpt>
      <trkpt lat="43.29118" lon="3.35067">
        <ele>48</ele>
        <time>2021-07-01T10:28:27.000Z</time>
      </trkpt>
      <trkpt lat="43.29113" lon="3.35079">
        <ele>48</ele>
        <time>2021-07-01T10:28:29.000Z</time>
      </trkpt>
      <trkpt lat="43.29109" lon="3.35092">
        <ele>49</ele>
        <time>2021-07-01T10:28:31.000Z</time>
      </trkpt>
      <trkpt lat="43.29103" lon="3.35114">
        <ele>49</ele>
        <time>2021-07-01T10:28:34.000Z</time>
      </trkpt>
      <trkpt lat="43.29098" lon="3.35128">
        <ele>48</ele>
        <time>2021-07-01T10:28:36.000Z</time>
      </trkpt>
      <trkpt lat="43.29094" lon="3.35143">
        <ele>48</ele>
        <time>2021-07-01T10:28:38.000Z</time>
      </trkpt>
      <trkpt lat="43.29086" lon="3.35165">
        <ele>47</ele>
        <time>2021-07-01T10:28:41.000Z</time>
      </trkpt>
      <trkpt lat="43.29082" lon="3.3518">
        <ele>48</ele>
        <time>2021-07-01T10:28:43.000Z</time>
      </trkpt>
      <trkpt lat="43.2908" lon="3.35195">
        <ele>48</ele>
        <time>2021-07-01T10:28:45.000Z</time>
      </trkpt>
      <trkpt lat="43.29077" lon="3.35208">
        <ele>49</ele>
        <time>2021-07-01T10:28:47.000Z</time>
      </trkpt>
      <trkpt lat="43.29075" lon="3.35222">
        <ele>49</ele>
        <time>2021-07-01T10:28:49.000Z</time>
      </trkpt>
      <trkpt lat="43.29073" lon="3.35237">
        <ele>49</ele>
        <time>2021-07-01T10:28:51.000Z</time>
      </trkpt>
      <trkpt lat="43.29071" lon="3.35252">
        <ele>49</ele>
        <time>2021-07-01T10:28:53.000Z</time>
      </trkpt>
      <trkpt lat="43.2907" lon="3.35268">
        <ele>48</ele>
        <time>2021-07-01T10:28:55.000Z</time>
      </trkpt>
      <trkpt lat="43.29068" lon="3.35282">
        <ele>48</ele>
        <time>2021-07-01T10:28:57.000Z</time>
      </trkpt>
      <trkpt lat="43.29065" lon="3.35294">
        <ele>48</ele>
        <time>2021-07-01T10:28:59.000Z</time>
      </trkpt>
      <trkpt lat="43.29063" lon="3.35311">
        <ele>48</ele>
        <time>2021-07-01T10:29:01.000Z</time>
      </trkpt>
      <trkpt lat="43.29063" lon="3.35327">
        <ele>48</ele>
        <time>2021-07-01T10:29:03.000Z</time>
      </trkpt>
      <trkpt lat="43.29062" lon="3.35341">
        <ele>48</ele>
        <time>2021-07-01T10:29:05.000Z</time>
      </trkpt>
      <trkpt lat="43.29061" lon="3.35356">
        <ele>48</ele>
        <time>2021-07-01T10:29:07.000Z</time>
      </trkpt>
      <trkpt lat="43.2906" lon="3.35376">
        <ele>47</ele>
        <time>2021-07-01T10:29:10.000Z</time>
      </trkpt>
      <trkpt lat="43.29058" lon="3.35389">
        <ele>47</ele>
        <time>2021-07-01T10:29:12.000Z</time>
      </trkpt>
      <trkpt lat="43.29057" lon="3.35404">
        <ele>47</ele>
        <time>2021-07-01T10:29:14.000Z</time>
      </trkpt>
      <trkpt lat="43.29056" lon="3.35428">
        <ele>46</ele>
        <time>2021-07-01T10:29:17.000Z</time>
      </trkpt>
      <trkpt lat="43.29054" lon="3.35443">
        <ele>46</ele>
        <time>2021-07-01T10:29:19.000Z</time>
      </trkpt>
      <trkpt lat="43.29054" lon="3.35459">
        <ele>47</ele>
        <time>2021-07-01T10:29:21.000Z</time>
      </trkpt>
      <trkpt lat="43.29054" lon="3.35483">
        <ele>46</ele>
        <time>2021-07-01T10:29:24.000Z</time>
      </trkpt>
      <trkpt lat="43.29053" lon="3.35498">
        <ele>47</ele>
        <time>2021-07-01T10:29:26.000Z</time>
      </trkpt>
      <trkpt lat="43.29052" lon="3.35513">
        <ele>47</ele>
        <time>2021-07-01T10:29:28.000Z</time>
      </trkpt>
      <trkpt lat="43.2905" lon="3.35528">
        <ele>48</ele>
        <time>2021-07-01T10:29:30.000Z</time>
      </trkpt>
      <trkpt lat="43.2905" lon="3.3555">
        <ele>48</ele>
        <time>2021-07-01T10:29:33.000Z</time>
      </trkpt>
      <trkpt lat="43.29049" lon="3.35565">
        <ele>48</ele>
        <time>2021-07-01T10:29:35.000Z</time>
      </trkpt>
      <trkpt lat="43.29048" lon="3.35579">
        <ele>48</ele>
        <time>2021-07-01T10:29:37.000Z</time>
      </trkpt>
      <trkpt lat="43.29047" lon="3.35593">
        <ele>48</ele>
        <time>2021-07-01T10:29:39.000Z</time>
      </trkpt>
      <trkpt lat="43.29047" lon="3.35615">
        <ele>47</ele>
        <time>2021-07-01T10:29:42.000Z</time>
      </trkpt>
      <trkpt lat="43.29046" lon="3.35628">
        <ele>46</ele>
        <time>2021-07-01T10:29:44.000Z</time>
      </trkpt>
      <trkpt lat="43.29047" lon="3.35652">
        <ele>47</ele>
        <time>2021-07-01T10:29:47.000Z</time>
      </trkpt>
      <trkpt lat="43.29046" lon="3.35671">
        <ele>46</ele>
        <time>2021-07-01T10:29:49.000Z</time>
      </trkpt>
      <trkpt lat="43.29046" lon="3.35688">
        <ele>46</ele>
        <time>2021-07-01T10:29:51.000Z</time>
      </trkpt>
      <trkpt lat="43.29046" lon="3.35714">
        <ele>47</ele>
        <time>2021-07-01T10:29:54.000Z</time>
      </trkpt>
      <trkpt lat="43.29047" lon="3.3573">
        <ele>47</ele>
        <time>2021-07-01T10:29:56.000Z</time>
      </trkpt>
      <trkpt lat="43.29048" lon="3.35744">
        <ele>47</ele>
        <time>2021-07-01T10:29:58.000Z</time>
      </trkpt>
      <trkpt lat="43.2905" lon="3.35766">
        <ele>46</ele>
        <time>2021-07-01T10:30:01.000Z</time>
      </trkpt>
      <trkpt lat="43.29052" lon="3.35781">
        <ele>45</ele>
        <time>2021-07-01T10:30:03.000Z</time>
      </trkpt>
      <trkpt lat="43.29052" lon="3.35799">
        <ele>45</ele>
        <time>2021-07-01T10:30:05.000Z</time>
      </trkpt>
      <trkpt lat="43.29052" lon="3.35814">
        <ele>44</ele>
        <time>2021-07-01T10:30:07.000Z</time>
      </trkpt>
      <trkpt lat="43.29054" lon="3.35836">
        <ele>44</ele>
        <time>2021-07-01T10:30:10.000Z</time>
      </trkpt>
      <trkpt lat="43.29054" lon="3.35854">
        <ele>44</ele>
        <time>2021-07-01T10:30:13.000Z</time>
      </trkpt>
      <trkpt lat="43.29054" lon="3.35871">
        <ele>44</ele>
        <time>2021-07-01T10:30:16.000Z</time>
      </trkpt>
      <trkpt lat="43.29055" lon="3.35885">
        <ele>44</ele>
        <time>2021-07-01T10:30:18.000Z</time>
      </trkpt>
      <trkpt lat="43.29056" lon="3.35899">
        <ele>44</ele>
        <time>2021-07-01T10:30:20.000Z</time>
      </trkpt>
      <trkpt lat="43.29057" lon="3.35914">
        <ele>44</ele>
        <time>2021-07-01T10:30:22.000Z</time>
      </trkpt>
      <trkpt lat="43.29058" lon="3.35929">
        <ele>45</ele>
        <time>2021-07-01T10:30:24.000Z</time>
      </trkpt>
      <trkpt lat="43.29059" lon="3.35943">
        <ele>45</ele>
        <time>2021-07-01T10:30:26.000Z</time>
      </trkpt>
      <trkpt lat="43.2906" lon="3.35956">
        <ele>45</ele>
        <time>2021-07-01T10:30:28.000Z</time>
      </trkpt>
      <trkpt lat="43.2906" lon="3.3597">
        <ele>46</ele>
        <time>2021-07-01T10:30:30.000Z</time>
      </trkpt>
      <trkpt lat="43.29061" lon="3.35983">
        <ele>46</ele>
        <time>2021-07-01T10:30:32.000Z</time>
      </trkpt>
      <trkpt lat="43.29062" lon="3.35997">
        <ele>45</ele>
        <time>2021-07-01T10:30:34.000Z</time>
      </trkpt>
      <trkpt lat="43.29063" lon="3.3602">
        <ele>46</ele>
        <time>2021-07-01T10:30:37.000Z</time>
      </trkpt>
      <trkpt lat="43.29065" lon="3.36036">
        <ele>46</ele>
        <time>2021-07-01T10:30:39.000Z</time>
      </trkpt>
      <trkpt lat="43.29067" lon="3.3605">
        <ele>45</ele>
        <time>2021-07-01T10:30:41.000Z</time>
      </trkpt>
      <trkpt lat="43.2907" lon="3.36074">
        <ele>45</ele>
        <time>2021-07-01T10:30:44.000Z</time>
      </trkpt>
      <trkpt lat="43.29073" lon="3.3609">
        <ele>45</ele>
        <time>2021-07-01T10:30:46.000Z</time>
      </trkpt>
      <trkpt lat="43.29075" lon="3.36105">
        <ele>46</ele>
        <time>2021-07-01T10:30:48.000Z</time>
      </trkpt>
      <trkpt lat="43.29078" lon="3.36117">
        <ele>47</ele>
        <time>2021-07-01T10:30:50.000Z</time>
      </trkpt>
      <trkpt lat="43.29082" lon="3.36135">
        <ele>47</ele>
        <time>2021-07-01T10:30:53.000Z</time>
      </trkpt>
      <trkpt lat="43.29085" lon="3.36153">
        <ele>48</ele>
        <time>2021-07-01T10:30:56.000Z</time>
      </trkpt>
      <trkpt lat="43.29088" lon="3.36168">
        <ele>47</ele>
        <time>2021-07-01T10:30:58.000Z</time>
      </trkpt>
      <trkpt lat="43.29092" lon="3.36179">
        <ele>48</ele>
        <time>2021-07-01T10:31:01.000Z</time>
      </trkpt>
      <trkpt lat="43.29099" lon="3.3619">
        <ele>47</ele>
        <time>2021-07-01T10:31:05.000Z</time>
      </trkpt>
      <trkpt lat="43.29107" lon="3.36198">
        <ele>47</ele>
        <time>2021-07-01T10:31:08.000Z</time>
      </trkpt>
      <trkpt lat="43.29102" lon="3.36215">
        <ele>47</ele>
        <time>2021-07-01T10:31:11.000Z</time>
      </trkpt>
      <trkpt lat="43.291" lon="3.36231">
        <ele>48</ele>
        <time>2021-07-01T10:31:14.000Z</time>
      </trkpt>
      <trkpt lat="43.29101" lon="3.36248">
        <ele>49</ele>
        <time>2021-07-01T10:31:17.000Z</time>
      </trkpt>
      <trkpt lat="43.29104" lon="3.36265">
        <ele>49</ele>
        <time>2021-07-01T10:31:20.000Z</time>
      </trkpt>
      <trkpt lat="43.29109" lon="3.36283">
        <ele>49</ele>
        <time>2021-07-01T10:31:23.000Z</time>
      </trkpt>
      <trkpt lat="43.29111" lon="3.363">
        <ele>49</ele>
        <time>2021-07-01T10:31:26.000Z</time>
      </trkpt>
      <trkpt lat="43.29111" lon="3.36316">
        <ele>49</ele>
        <time>2021-07-01T10:31:29.000Z</time>
      </trkpt>
      <trkpt lat="43.29114" lon="3.36329">
        <ele>49</ele>
        <time>2021-07-01T10:31:33.000Z</time>
      </trkpt>
      <trkpt lat="43.29116" lon="3.36342">
        <ele>49</ele>
        <time>2021-07-01T10:31:36.000Z</time>
      </trkpt>
      <trkpt lat="43.29117" lon="3.36356">
        <ele>49</ele>
        <time>2021-07-01T10:31:38.000Z</time>
      </trkpt>
      <trkpt lat="43.29119" lon="3.36375">
        <ele>49</ele>
        <time>2021-07-01T10:31:41.000Z</time>
      </trkpt>
      <trkpt lat="43.29123" lon="3.36387">
        <ele>48</ele>
        <time>2021-07-01T10:31:43.000Z</time>
      </trkpt>
      <trkpt lat="43.29127" lon="3.36402">
        <ele>48</ele>
        <time>2021-07-01T10:31:46.000Z</time>
      </trkpt>
      <trkpt lat="43.29131" lon="3.36424">
        <ele>48</ele>
        <time>2021-07-01T10:31:50.000Z</time>
      </trkpt>
      <trkpt lat="43.29136" lon="3.36439">
        <ele>48</ele>
        <time>2021-07-01T10:31:53.000Z</time>
      </trkpt>
      <trkpt lat="43.2914" lon="3.36452">
        <ele>48</ele>
        <time>2021-07-01T10:31:55.000Z</time>
      </trkpt>
      <trkpt lat="43.29143" lon="3.36465">
        <ele>48</ele>
        <time>2021-07-01T10:31:57.000Z</time>
      </trkpt>
      <trkpt lat="43.29148" lon="3.36485">
        <ele>48</ele>
        <time>2021-07-01T10:32:00.000Z</time>
      </trkpt>
      <trkpt lat="43.2915" lon="3.36499">
        <ele>48</ele>
        <time>2021-07-01T10:32:02.000Z</time>
      </trkpt>
      <trkpt lat="43.29152" lon="3.36511">
        <ele>48</ele>
        <time>2021-07-01T10:32:04.000Z</time>
      </trkpt>
      <trkpt lat="43.29154" lon="3.36524">
        <ele>48</ele>
        <time>2021-07-01T10:32:06.000Z</time>
      </trkpt>
      <trkpt lat="43.29156" lon="3.36536">
        <ele>47</ele>
        <time>2021-07-01T10:32:08.000Z</time>
      </trkpt>
      <trkpt lat="43.2916" lon="3.36552">
        <ele>47</ele>
        <time>2021-07-01T10:32:11.000Z</time>
      </trkpt>
      <trkpt lat="43.29163" lon="3.36564">
        <ele>47</ele>
        <time>2021-07-01T10:32:13.000Z</time>
      </trkpt>
      <trkpt lat="43.29165" lon="3.36581">
        <ele>48</ele>
        <time>2021-07-01T10:32:16.000Z</time>
      </trkpt>
      <trkpt lat="43.29171" lon="3.36606">
        <ele>47</ele>
        <time>2021-07-01T10:32:20.000Z</time>
      </trkpt>
      <trkpt lat="43.29174" lon="3.36618">
        <ele>46</ele>
        <time>2021-07-01T10:32:22.000Z</time>
      </trkpt>
      <trkpt lat="43.29177" lon="3.36635">
        <ele>46</ele>
        <time>2021-07-01T10:32:25.000Z</time>
      </trkpt>
      <trkpt lat="43.29178" lon="3.36652">
        <ele>46</ele>
        <time>2021-07-01T10:32:28.000Z</time>
      </trkpt>
      <trkpt lat="43.29179" lon="3.36669">
        <ele>48</ele>
        <time>2021-07-01T10:32:31.000Z</time>
      </trkpt>
      <trkpt lat="43.29181" lon="3.36682">
        <ele>47</ele>
        <time>2021-07-01T10:32:33.000Z</time>
      </trkpt>
      <trkpt lat="43.29185" lon="3.36694">
        <ele>47</ele>
        <time>2021-07-01T10:32:35.000Z</time>
      </trkpt>
      <trkpt lat="43.29188" lon="3.3671">
        <ele>44</ele>
        <time>2021-07-01T10:32:38.000Z</time>
      </trkpt>
      <trkpt lat="43.29192" lon="3.36735">
        <ele>44</ele>
        <time>2021-07-01T10:32:42.000Z</time>
      </trkpt>
      <trkpt lat="43.29196" lon="3.36752">
        <ele>44</ele>
        <time>2021-07-01T10:32:45.000Z</time>
      </trkpt>
      <trkpt lat="43.29201" lon="3.36769">
        <ele>44</ele>
        <time>2021-07-01T10:32:48.000Z</time>
      </trkpt>
      <trkpt lat="43.29206" lon="3.36783">
        <ele>45</ele>
        <time>2021-07-01T10:32:51.000Z</time>
      </trkpt>
      <trkpt lat="43.29208" lon="3.36801">
        <ele>46</ele>
        <time>2021-07-01T10:32:54.000Z</time>
      </trkpt>
      <trkpt lat="43.29211" lon="3.36817">
        <ele>46</ele>
        <time>2021-07-01T10:32:57.000Z</time>
      </trkpt>
      <trkpt lat="43.29213" lon="3.36834">
        <ele>47</ele>
        <time>2021-07-01T10:33:00.000Z</time>
      </trkpt>
      <trkpt lat="43.29216" lon="3.36858">
        <ele>48</ele>
        <time>2021-07-01T10:33:04.000Z</time>
      </trkpt>
      <trkpt lat="43.29218" lon="3.3687">
        <ele>48</ele>
        <time>2021-07-01T10:33:06.000Z</time>
      </trkpt>
      <trkpt lat="43.2922" lon="3.36883">
        <ele>48</ele>
        <time>2021-07-01T10:33:08.000Z</time>
      </trkpt>
      <trkpt lat="43.29222" lon="3.36897">
        <ele>48</ele>
        <time>2021-07-01T10:33:11.000Z</time>
      </trkpt>
      <trkpt lat="43.29224" lon="3.36918">
        <ele>50</ele>
        <time>2021-07-01T10:33:15.000Z</time>
      </trkpt>
      <trkpt lat="43.29224" lon="3.36935">
        <ele>50</ele>
        <time>2021-07-01T10:33:18.000Z</time>
      </trkpt>
      <trkpt lat="43.29226" lon="3.36947">
        <ele>50</ele>
        <time>2021-07-01T10:33:20.000Z</time>
      </trkpt>
      <trkpt lat="43.29229" lon="3.36965">
        <ele>50</ele>
        <time>2021-07-01T10:33:23.000Z</time>
      </trkpt>
      <trkpt lat="43.29231" lon="3.36982">
        <ele>49</ele>
        <time>2021-07-01T10:33:26.000Z</time>
      </trkpt>
      <trkpt lat="43.29236" lon="3.37007">
        <ele>48</ele>
        <time>2021-07-01T10:33:30.000Z</time>
      </trkpt>
      <trkpt lat="43.29239" lon="3.37024">
        <ele>48</ele>
        <time>2021-07-01T10:33:33.000Z</time>
      </trkpt>
      <trkpt lat="43.29241" lon="3.37042">
        <ele>47</ele>
        <time>2021-07-01T10:33:36.000Z</time>
      </trkpt>
      <trkpt lat="43.29241" lon="3.37058">
        <ele>47</ele>
        <time>2021-07-01T10:33:39.000Z</time>
      </trkpt>
      <trkpt lat="43.29235" lon="3.37071">
        <ele>47</ele>
        <time>2021-07-01T10:33:42.000Z</time>
      </trkpt>
      <trkpt lat="43.29226" lon="3.37077">
        <ele>48</ele>
        <time>2021-07-01T10:33:45.000Z</time>
      </trkpt>
      <trkpt lat="43.29211" lon="3.37081">
        <ele>47</ele>
        <time>2021-07-01T10:33:49.000Z</time>
      </trkpt>
      <trkpt lat="43.29201" lon="3.37082">
        <ele>48</ele>
        <time>2021-07-01T10:33:52.000Z</time>
      </trkpt>
      <trkpt lat="43.29188" lon="3.37082">
        <ele>48</ele>
        <time>2021-07-01T10:33:55.000Z</time>
      </trkpt>
      <trkpt lat="43.29178" lon="3.37085">
        <ele>48</ele>
        <time>2021-07-01T10:33:58.000Z</time>
      </trkpt>
      <trkpt lat="43.29166" lon="3.37086">
        <ele>49</ele>
        <time>2021-07-01T10:34:01.000Z</time>
      </trkpt>
      <trkpt lat="43.29156" lon="3.37089">
        <ele>48</ele>
        <time>2021-07-01T10:34:04.000Z</time>
      </trkpt>
      <trkpt lat="43.29146" lon="3.3709">
        <ele>49</ele>
        <time>2021-07-01T10:34:07.000Z</time>
      </trkpt>
      <trkpt lat="43.29133" lon="3.37092">
        <ele>49</ele>
        <time>2021-07-01T10:34:10.000Z</time>
      </trkpt>
      <trkpt lat="43.29124" lon="3.37093">
        <ele>48</ele>
        <time>2021-07-01T10:34:12.000Z</time>
      </trkpt>
      <trkpt lat="43.29114" lon="3.37093">
        <ele>47</ele>
        <time>2021-07-01T10:34:14.000Z</time>
      </trkpt>
      <trkpt lat="43.29102" lon="3.37096">
        <ele>45</ele>
        <time>2021-07-01T10:34:17.000Z</time>
      </trkpt>
      <trkpt lat="43.29091" lon="3.371">
        <ele>44</ele>
        <time>2021-07-01T10:34:20.000Z</time>
      </trkpt>
      <trkpt lat="43.2908" lon="3.37101">
        <ele>44</ele>
        <time>2021-07-01T10:34:23.000Z</time>
      </trkpt>
      <trkpt lat="43.2907" lon="3.37104">
        <ele>44</ele>
        <time>2021-07-01T10:34:26.000Z</time>
      </trkpt>
      <trkpt lat="43.29059" lon="3.37104">
        <ele>44</ele>
        <time>2021-07-01T10:34:29.000Z</time>
      </trkpt>
      <trkpt lat="43.29048" lon="3.37106">
        <ele>43</ele>
        <time>2021-07-01T10:34:32.000Z</time>
      </trkpt>
      <trkpt lat="43.29039" lon="3.3711">
        <ele>43</ele>
        <time>2021-07-01T10:34:35.000Z</time>
      </trkpt>
      <trkpt lat="43.29032" lon="3.3712">
        <ele>43</ele>
        <time>2021-07-01T10:34:39.000Z</time>
      </trkpt>
      <trkpt lat="43.29036" lon="3.37134">
        <ele>43</ele>
        <time>2021-07-01T10:34:43.000Z</time>
      </trkpt>
      <trkpt lat="43.29041" lon="3.37147">
        <ele>44</ele>
        <time>2021-07-01T10:34:47.000Z</time>
      </trkpt>
      <trkpt lat="43.29049" lon="3.37164">
        <ele>44</ele>
        <time>2021-07-01T10:34:51.000Z</time>
      </trkpt>
      <trkpt lat="43.29056" lon="3.37177">
        <ele>45</ele>
        <time>2021-07-01T10:34:54.000Z</time>
      </trkpt>
      <trkpt lat="43.29064" lon="3.37188">
        <ele>45</ele>
        <time>2021-07-01T10:34:57.000Z</time>
      </trkpt>
      <trkpt lat="43.29073" lon="3.37189">
        <ele>45</ele>
        <time>2021-07-01T10:35:00.000Z</time>
      </trkpt>
      <trkpt lat="43.29083" lon="3.37185">
        <ele>45</ele>
        <time>2021-07-01T10:35:03.000Z</time>
      </trkpt>
      <trkpt lat="43.29093" lon="3.37182">
        <ele>45</ele>
        <time>2021-07-01T10:35:06.000Z</time>
      </trkpt>
      <trkpt lat="43.29106" lon="3.37177">
        <ele>45</ele>
        <time>2021-07-01T10:35:10.000Z</time>
      </trkpt>
      <trkpt lat="43.29118" lon="3.37174">
        <ele>45</ele>
        <time>2021-07-01T10:35:14.000Z</time>
      </trkpt>
      <trkpt lat="43.29133" lon="3.3717">
        <ele>45</ele>
        <time>2021-07-01T10:35:18.000Z</time>
      </trkpt>
      <trkpt lat="43.29142" lon="3.37168">
        <ele>47</ele>
        <time>2021-07-01T10:35:21.000Z</time>
      </trkpt>
      <trkpt lat="43.29155" lon="3.37165">
        <ele>47</ele>
        <time>2021-07-01T10:35:24.000Z</time>
      </trkpt>
      <trkpt lat="43.29166" lon="3.37161">
        <ele>47</ele>
        <time>2021-07-01T10:35:27.000Z</time>
      </trkpt>
      <trkpt lat="43.29178" lon="3.37157">
        <ele>47</ele>
        <time>2021-07-01T10:35:30.000Z</time>
      </trkpt>
      <trkpt lat="43.29189" lon="3.37155">
        <ele>47</ele>
        <time>2021-07-01T10:35:33.000Z</time>
      </trkpt>
      <trkpt lat="43.292" lon="3.37151">
        <ele>48</ele>
        <time>2021-07-01T10:35:36.000Z</time>
      </trkpt>
      <trkpt lat="43.29211" lon="3.37149">
        <ele>48</ele>
        <time>2021-07-01T10:35:39.000Z</time>
      </trkpt>
      <trkpt lat="43.2922" lon="3.37146">
        <ele>49</ele>
        <time>2021-07-01T10:35:42.000Z</time>
      </trkpt>
      <trkpt lat="43.2923" lon="3.37146">
        <ele>48</ele>
        <time>2021-07-01T10:35:45.000Z</time>
      </trkpt>
      <trkpt lat="43.29241" lon="3.37143">
        <ele>49</ele>
        <time>2021-07-01T10:35:48.000Z</time>
      </trkpt>
      <trkpt lat="43.29252" lon="3.37144">
        <ele>46</ele>
        <time>2021-07-01T10:35:51.000Z</time>
      </trkpt>
      <trkpt lat="43.29259" lon="3.37157">
        <ele>46</ele>
        <time>2021-07-01T10:35:55.000Z</time>
      </trkpt>
      <trkpt lat="43.29261" lon="3.37171">
        <ele>47</ele>
        <time>2021-07-01T10:35:58.000Z</time>
      </trkpt>
      <trkpt lat="43.29262" lon="3.37185">
        <ele>48</ele>
        <time>2021-07-01T10:36:01.000Z</time>
      </trkpt>
      <trkpt lat="43.29264" lon="3.37198">
        <ele>50</ele>
        <time>2021-07-01T10:36:05.000Z</time>
      </trkpt>
      <trkpt lat="43.29265" lon="3.37211">
        <ele>48</ele>
        <time>2021-07-01T10:36:09.000Z</time>
      </trkpt>
      <trkpt lat="43.29266" lon="3.37225">
        <ele>48</ele>
        <time>2021-07-01T10:36:12.000Z</time>
      </trkpt>
      <trkpt lat="43.2927" lon="3.37238">
        <ele>49</ele>
        <time>2021-07-01T10:36:15.000Z</time>
      </trkpt>
      <trkpt lat="43.29273" lon="3.37251">
        <ele>46</ele>
        <time>2021-07-01T10:36:18.000Z</time>
      </trkpt>
      <trkpt lat="43.29273" lon="3.37265">
        <ele>47</ele>
        <time>2021-07-01T10:36:21.000Z</time>
      </trkpt>
      <trkpt lat="43.29274" lon="3.3728">
        <ele>48</ele>
        <time>2021-07-01T10:36:24.000Z</time>
      </trkpt>
      <trkpt lat="43.2928" lon="3.37303">
        <ele>48</ele>
        <time>2021-07-01T10:36:28.000Z</time>
      </trkpt>
      <trkpt lat="43.29281" lon="3.3732">
        <ele>48</ele>
        <time>2021-07-01T10:36:31.000Z</time>
      </trkpt>
      <trkpt lat="43.29282" lon="3.37336">
        <ele>48</ele>
        <time>2021-07-01T10:36:34.000Z</time>
      </trkpt>
      <trkpt lat="43.29284" lon="3.37351">
        <ele>48</ele>
        <time>2021-07-01T10:36:37.000Z</time>
      </trkpt>
      <trkpt lat="43.29285" lon="3.37363">
        <ele>48</ele>
        <time>2021-07-01T10:36:39.000Z</time>
      </trkpt>
      <trkpt lat="43.29288" lon="3.3738">
        <ele>47</ele>
        <time>2021-07-01T10:36:42.000Z</time>
      </trkpt>
      <trkpt lat="43.29291" lon="3.37396">
        <ele>47</ele>
        <time>2021-07-01T10:36:45.000Z</time>
      </trkpt>
      <trkpt lat="43.29292" lon="3.37409">
        <ele>49</ele>
        <time>2021-07-01T10:36:48.000Z</time>
      </trkpt>
      <trkpt lat="43.29295" lon="3.37425">
        <ele>48</ele>
        <time>2021-07-01T10:36:51.000Z</time>
      </trkpt>
      <trkpt lat="43.29298" lon="3.37442">
        <ele>48</ele>
        <time>2021-07-01T10:36:54.000Z</time>
      </trkpt>
      <trkpt lat="43.29301" lon="3.37459">
        <ele>47</ele>
        <time>2021-07-01T10:36:57.000Z</time>
      </trkpt>
      <trkpt lat="43.29303" lon="3.37476">
        <ele>47</ele>
        <time>2021-07-01T10:37:00.000Z</time>
      </trkpt>
      <trkpt lat="43.29305" lon="3.37491">
        <ele>45</ele>
        <time>2021-07-01T10:37:03.000Z</time>
      </trkpt>
      <trkpt lat="43.29306" lon="3.37508">
        <ele>45</ele>
        <time>2021-07-01T10:37:06.000Z</time>
      </trkpt>
      <trkpt lat="43.29306" lon="3.37523">
        <ele>44</ele>
        <time>2021-07-01T10:37:09.000Z</time>
      </trkpt>
      <trkpt lat="43.29308" lon="3.3754">
        <ele>45</ele>
        <time>2021-07-01T10:37:12.000Z</time>
      </trkpt>
      <trkpt lat="43.29311" lon="3.37555">
        <ele>46</ele>
        <time>2021-07-01T10:37:15.000Z</time>
      </trkpt>
      <trkpt lat="43.29315" lon="3.37572">
        <ele>46</ele>
        <time>2021-07-01T10:37:18.000Z</time>
      </trkpt>
      <trkpt lat="43.29318" lon="3.37589">
        <ele>46</ele>
        <time>2021-07-01T10:37:21.000Z</time>
      </trkpt>
      <trkpt lat="43.29319" lon="3.37603">
        <ele>46</ele>
        <time>2021-07-01T10:37:24.000Z</time>
      </trkpt>
      <trkpt lat="43.29321" lon="3.37618">
        <ele>47</ele>
        <time>2021-07-01T10:37:27.000Z</time>
      </trkpt>
      <trkpt lat="43.29324" lon="3.3764">
        <ele>47</ele>
        <time>2021-07-01T10:37:31.000Z</time>
      </trkpt>
      <trkpt lat="43.29326" lon="3.37656">
        <ele>47</ele>
        <time>2021-07-01T10:37:34.000Z</time>
      </trkpt>
      <trkpt lat="43.29329" lon="3.37672">
        <ele>46</ele>
        <time>2021-07-01T10:37:37.000Z</time>
      </trkpt>
      <trkpt lat="43.29331" lon="3.37688">
        <ele>46</ele>
        <time>2021-07-01T10:37:40.000Z</time>
      </trkpt>
      <trkpt lat="43.29333" lon="3.377">
        <ele>46</ele>
        <time>2021-07-01T10:37:42.000Z</time>
      </trkpt>
      <trkpt lat="43.29336" lon="3.37712">
        <ele>46</ele>
        <time>2021-07-01T10:37:44.000Z</time>
      </trkpt>
      <trkpt lat="43.29337" lon="3.37729">
        <ele>45</ele>
        <time>2021-07-01T10:37:47.000Z</time>
      </trkpt>
      <trkpt lat="43.29339" lon="3.37745">
        <ele>45</ele>
        <time>2021-07-01T10:37:50.000Z</time>
      </trkpt>
      <trkpt lat="43.29341" lon="3.37761">
        <ele>45</ele>
        <time>2021-07-01T10:37:53.000Z</time>
      </trkpt>
      <trkpt lat="43.29344" lon="3.37783">
        <ele>45</ele>
        <time>2021-07-01T10:37:57.000Z</time>
      </trkpt>
      <trkpt lat="43.29346" lon="3.37796">
        <ele>45</ele>
        <time>2021-07-01T10:37:59.000Z</time>
      </trkpt>
      <trkpt lat="43.29349" lon="3.37813">
        <ele>45</ele>
        <time>2021-07-01T10:38:02.000Z</time>
      </trkpt>
      <trkpt lat="43.29351" lon="3.3783">
        <ele>45</ele>
        <time>2021-07-01T10:38:05.000Z</time>
      </trkpt>
      <trkpt lat="43.29354" lon="3.37848">
        <ele>45</ele>
        <time>2021-07-01T10:38:08.000Z</time>
      </trkpt>
      <trkpt lat="43.29356" lon="3.3786">
        <ele>45</ele>
        <time>2021-07-01T10:38:10.000Z</time>
      </trkpt>
      <trkpt lat="43.29358" lon="3.37873">
        <ele>45</ele>
        <time>2021-07-01T10:38:12.000Z</time>
      </trkpt>
      <trkpt lat="43.29361" lon="3.37885">
        <ele>45</ele>
        <time>2021-07-01T10:38:14.000Z</time>
      </trkpt>
      <trkpt lat="43.29364" lon="3.37901">
        <ele>45</ele>
        <time>2021-07-01T10:38:17.000Z</time>
      </trkpt>
      <trkpt lat="43.29363" lon="3.37917">
        <ele>45</ele>
        <time>2021-07-01T10:38:20.000Z</time>
      </trkpt>
      <trkpt lat="43.29365" lon="3.37932">
        <ele>45</ele>
        <time>2021-07-01T10:38:23.000Z</time>
      </trkpt>
      <trkpt lat="43.2937" lon="3.37948">
        <ele>44</ele>
        <time>2021-07-01T10:38:26.000Z</time>
      </trkpt>
      <trkpt lat="43.29372" lon="3.37964">
        <ele>45</ele>
        <time>2021-07-01T10:38:29.000Z</time>
      </trkpt>
      <trkpt lat="43.29374" lon="3.37986">
        <ele>44</ele>
        <time>2021-07-01T10:38:33.000Z</time>
      </trkpt>
      <trkpt lat="43.29377" lon="3.38003">
        <ele>44</ele>
        <time>2021-07-01T10:38:36.000Z</time>
      </trkpt>
      <trkpt lat="43.29379" lon="3.38021">
        <ele>45</ele>
        <time>2021-07-01T10:38:39.000Z</time>
      </trkpt>
      <trkpt lat="43.29381" lon="3.38033">
        <ele>45</ele>
        <time>2021-07-01T10:38:41.000Z</time>
      </trkpt>
      <trkpt lat="43.29383" lon="3.38051">
        <ele>45</ele>
        <time>2021-07-01T10:38:44.000Z</time>
      </trkpt>
      <trkpt lat="43.29385" lon="3.38069">
        <ele>45</ele>
        <time>2021-07-01T10:38:47.000Z</time>
      </trkpt>
      <trkpt lat="43.29387" lon="3.38082">
        <ele>45</ele>
        <time>2021-07-01T10:38:49.000Z</time>
      </trkpt>
      <trkpt lat="43.29389" lon="3.381">
        <ele>45</ele>
        <time>2021-07-01T10:38:52.000Z</time>
      </trkpt>
      <trkpt lat="43.29391" lon="3.38113">
        <ele>44</ele>
        <time>2021-07-01T10:38:54.000Z</time>
      </trkpt>
      <trkpt lat="43.29393" lon="3.38131">
        <ele>45</ele>
        <time>2021-07-01T10:38:57.000Z</time>
      </trkpt>
      <trkpt lat="43.29396" lon="3.38144">
        <ele>44</ele>
        <time>2021-07-01T10:38:59.000Z</time>
      </trkpt>
      <trkpt lat="43.29398" lon="3.38163">
        <ele>44</ele>
        <time>2021-07-01T10:39:02.000Z</time>
      </trkpt>
      <trkpt lat="43.294" lon="3.38175">
        <ele>44</ele>
        <time>2021-07-01T10:39:04.000Z</time>
      </trkpt>
      <trkpt lat="43.29403" lon="3.38187">
        <ele>42</ele>
        <time>2021-07-01T10:39:06.000Z</time>
      </trkpt>
      <trkpt lat="43.29406" lon="3.38204">
        <ele>43</ele>
        <time>2021-07-01T10:39:09.000Z</time>
      </trkpt>
      <trkpt lat="43.29407" lon="3.38217">
        <ele>43</ele>
        <time>2021-07-01T10:39:11.000Z</time>
      </trkpt>
      <trkpt lat="43.29409" lon="3.38234">
        <ele>43</ele>
        <time>2021-07-01T10:39:14.000Z</time>
      </trkpt>
      <trkpt lat="43.29411" lon="3.3825">
        <ele>43</ele>
        <time>2021-07-01T10:39:17.000Z</time>
      </trkpt>
      <trkpt lat="43.29411" lon="3.38268">
        <ele>43</ele>
        <time>2021-07-01T10:39:20.000Z</time>
      </trkpt>
      <trkpt lat="43.29415" lon="3.38297">
        <ele>44</ele>
        <time>2021-07-01T10:39:25.000Z</time>
      </trkpt>
      <trkpt lat="43.29416" lon="3.38313">
        <ele>45</ele>
        <time>2021-07-01T10:39:28.000Z</time>
      </trkpt>
      <trkpt lat="43.2942" lon="3.38329">
        <ele>45</ele>
        <time>2021-07-01T10:39:31.000Z</time>
      </trkpt>
      <trkpt lat="43.29423" lon="3.38351">
        <ele>45</ele>
        <time>2021-07-01T10:39:35.000Z</time>
      </trkpt>
      <trkpt lat="43.29425" lon="3.38365">
        <ele>45</ele>
        <time>2021-07-01T10:39:38.000Z</time>
      </trkpt>
      <trkpt lat="43.29427" lon="3.38381">
        <ele>45</ele>
        <time>2021-07-01T10:39:41.000Z</time>
      </trkpt>
      <trkpt lat="43.2943" lon="3.38404">
        <ele>46</ele>
        <time>2021-07-01T10:39:45.000Z</time>
      </trkpt>
      <trkpt lat="43.29432" lon="3.38417">
        <ele>46</ele>
        <time>2021-07-01T10:39:47.000Z</time>
      </trkpt>
      <trkpt lat="43.29434" lon="3.38434">
        <ele>46</ele>
        <time>2021-07-01T10:39:50.000Z</time>
      </trkpt>
      <trkpt lat="43.29436" lon="3.38452">
        <ele>45</ele>
        <time>2021-07-01T10:39:53.000Z</time>
      </trkpt>
      <trkpt lat="43.29439" lon="3.3847">
        <ele>45</ele>
        <time>2021-07-01T10:39:56.000Z</time>
      </trkpt>
      <trkpt lat="43.29441" lon="3.38486">
        <ele>45</ele>
        <time>2021-07-01T10:39:59.000Z</time>
      </trkpt>
      <trkpt lat="43.29442" lon="3.38501">
        <ele>45</ele>
        <time>2021-07-01T10:40:02.000Z</time>
      </trkpt>
      <trkpt lat="43.29444" lon="3.38517">
        <ele>46</ele>
        <time>2021-07-01T10:40:05.000Z</time>
      </trkpt>
      <trkpt lat="43.29446" lon="3.38529">
        <ele>46</ele>
        <time>2021-07-01T10:40:07.000Z</time>
      </trkpt>
      <trkpt lat="43.29448" lon="3.38541">
        <ele>46</ele>
        <time>2021-07-01T10:40:09.000Z</time>
      </trkpt>
      <trkpt lat="43.29451" lon="3.38554">
        <ele>45</ele>
        <time>2021-07-01T10:40:11.000Z</time>
      </trkpt>
      <trkpt lat="43.29452" lon="3.38567">
        <ele>46</ele>
        <time>2021-07-01T10:40:13.000Z</time>
      </trkpt>
      <trkpt lat="43.29455" lon="3.38588">
        <ele>46</ele>
        <time>2021-07-01T10:40:17.000Z</time>
      </trkpt>
      <trkpt lat="43.29457" lon="3.38606">
        <ele>46</ele>
        <time>2021-07-01T10:40:20.000Z</time>
      </trkpt>
      <trkpt lat="43.29459" lon="3.38624">
        <ele>46</ele>
        <time>2021-07-01T10:40:23.000Z</time>
      </trkpt>
      <trkpt lat="43.29461" lon="3.38637">
        <ele>45</ele>
        <time>2021-07-01T10:40:25.000Z</time>
      </trkpt>
      <trkpt lat="43.29465" lon="3.38654">
        <ele>45</ele>
        <time>2021-07-01T10:40:28.000Z</time>
      </trkpt>
      <trkpt lat="43.29466" lon="3.38666">
        <ele>46</ele>
        <time>2021-07-01T10:40:30.000Z</time>
      </trkpt>
      <trkpt lat="43.29468" lon="3.38679">
        <ele>46</ele>
        <time>2021-07-01T10:40:32.000Z</time>
      </trkpt>
      <trkpt lat="43.29469" lon="3.38696">
        <ele>46</ele>
        <time>2021-07-01T10:40:35.000Z</time>
      </trkpt>
      <trkpt lat="43.29473" lon="3.38712">
        <ele>46</ele>
        <time>2021-07-01T10:40:38.000Z</time>
      </trkpt>
      <trkpt lat="43.29477" lon="3.3873">
        <ele>46</ele>
        <time>2021-07-01T10:40:41.000Z</time>
      </trkpt>
      <trkpt lat="43.29479" lon="3.38742">
        <ele>46</ele>
        <time>2021-07-01T10:40:43.000Z</time>
      </trkpt>
      <trkpt lat="43.29481" lon="3.38759">
        <ele>46</ele>
        <time>2021-07-01T10:40:46.000Z</time>
      </trkpt>
      <trkpt lat="43.29483" lon="3.38772">
        <ele>46</ele>
        <time>2021-07-01T10:40:48.000Z</time>
      </trkpt>
      <trkpt lat="43.29486" lon="3.3879">
        <ele>46</ele>
        <time>2021-07-01T10:40:51.000Z</time>
      </trkpt>
      <trkpt lat="43.29489" lon="3.38806">
        <ele>47</ele>
        <time>2021-07-01T10:40:54.000Z</time>
      </trkpt>
      <trkpt lat="43.29493" lon="3.38822">
        <ele>46</ele>
        <time>2021-07-01T10:40:57.000Z</time>
      </trkpt>
      <trkpt lat="43.29497" lon="3.38839">
        <ele>46</ele>
        <time>2021-07-01T10:41:00.000Z</time>
      </trkpt>
      <trkpt lat="43.29498" lon="3.38858">
        <ele>46</ele>
        <time>2021-07-01T10:41:03.000Z</time>
      </trkpt>
      <trkpt lat="43.29503" lon="3.38875">
        <ele>44</ele>
        <time>2021-07-01T10:41:06.000Z</time>
      </trkpt>
      <trkpt lat="43.29507" lon="3.38888">
        <ele>43</ele>
        <time>2021-07-01T10:41:08.000Z</time>
      </trkpt>
      <trkpt lat="43.29509" lon="3.38905">
        <ele>45</ele>
        <time>2021-07-01T10:41:11.000Z</time>
      </trkpt>
      <trkpt lat="43.29511" lon="3.38918">
        <ele>45</ele>
        <time>2021-07-01T10:41:13.000Z</time>
      </trkpt>
      <trkpt lat="43.29514" lon="3.3893">
        <ele>45</ele>
        <time>2021-07-01T10:41:15.000Z</time>
      </trkpt>
      <trkpt lat="43.29517" lon="3.38945">
        <ele>46</ele>
        <time>2021-07-01T10:41:18.000Z</time>
      </trkpt>
      <trkpt lat="43.29521" lon="3.38961">
        <ele>46</ele>
        <time>2021-07-01T10:41:21.000Z</time>
      </trkpt>
      <trkpt lat="43.29524" lon="3.38973">
        <ele>45</ele>
        <time>2021-07-01T10:41:23.000Z</time>
      </trkpt>
      <trkpt lat="43.29527" lon="3.38988">
        <ele>45</ele>
        <time>2021-07-01T10:41:26.000Z</time>
      </trkpt>
      <trkpt lat="43.29531" lon="3.39003">
        <ele>45</ele>
        <time>2021-07-01T10:41:29.000Z</time>
      </trkpt>
      <trkpt lat="43.29537" lon="3.39018">
        <ele>45</ele>
        <time>2021-07-01T10:41:32.000Z</time>
      </trkpt>
      <trkpt lat="43.29543" lon="3.39028">
        <ele>46</ele>
        <time>2021-07-01T10:41:34.000Z</time>
      </trkpt>
      <trkpt lat="43.29544" lon="3.3904">
        <ele>46</ele>
        <time>2021-07-01T10:41:36.000Z</time>
      </trkpt>
      <trkpt lat="43.29549" lon="3.39053">
        <ele>45</ele>
        <time>2021-07-01T10:41:38.000Z</time>
      </trkpt>
      <trkpt lat="43.29551" lon="3.39065">
        <ele>45</ele>
        <time>2021-07-01T10:41:40.000Z</time>
      </trkpt>
      <trkpt lat="43.29553" lon="3.39078">
        <ele>45</ele>
        <time>2021-07-01T10:41:42.000Z</time>
      </trkpt>
      <trkpt lat="43.29557" lon="3.3909">
        <ele>45</ele>
        <time>2021-07-01T10:41:44.000Z</time>
      </trkpt>
      <trkpt lat="43.29561" lon="3.39101">
        <ele>44</ele>
        <time>2021-07-01T10:41:46.000Z</time>
      </trkpt>
      <trkpt lat="43.29567" lon="3.39121">
        <ele>43</ele>
        <time>2021-07-01T10:41:50.000Z</time>
      </trkpt>
      <trkpt lat="43.29569" lon="3.39133">
        <ele>43</ele>
        <time>2021-07-01T10:41:52.000Z</time>
      </trkpt>
      <trkpt lat="43.29573" lon="3.39145">
        <ele>43</ele>
        <time>2021-07-01T10:41:54.000Z</time>
      </trkpt>
      <trkpt lat="43.29577" lon="3.39161">
        <ele>44</ele>
        <time>2021-07-01T10:41:57.000Z</time>
      </trkpt>
      <trkpt lat="43.29583" lon="3.39178">
        <ele>44</ele>
        <time>2021-07-01T10:42:00.000Z</time>
      </trkpt>
      <trkpt lat="43.29587" lon="3.39194">
        <ele>43</ele>
        <time>2021-07-01T10:42:03.000Z</time>
      </trkpt>
      <trkpt lat="43.29592" lon="3.39205">
        <ele>43</ele>
        <time>2021-07-01T10:42:05.000Z</time>
      </trkpt>
      <trkpt lat="43.29598" lon="3.39221">
        <ele>44</ele>
        <time>2021-07-01T10:42:08.000Z</time>
      </trkpt>
      <trkpt lat="43.29601" lon="3.39233">
        <ele>43</ele>
        <time>2021-07-01T10:42:10.000Z</time>
      </trkpt>
      <trkpt lat="43.29605" lon="3.39249">
        <ele>45</ele>
        <time>2021-07-01T10:42:13.000Z</time>
      </trkpt>
      <trkpt lat="43.29611" lon="3.39263">
        <ele>47</ele>
        <time>2021-07-01T10:42:16.000Z</time>
      </trkpt>
      <trkpt lat="43.29617" lon="3.39276">
        <ele>45</ele>
        <time>2021-07-01T10:42:19.000Z</time>
      </trkpt>
      <trkpt lat="43.2962" lon="3.3929">
        <ele>46</ele>
        <time>2021-07-01T10:42:22.000Z</time>
      </trkpt>
      <trkpt lat="43.29627" lon="3.39305">
        <ele>46</ele>
        <time>2021-07-01T10:42:25.000Z</time>
      </trkpt>
      <trkpt lat="43.29632" lon="3.39316">
        <ele>46</ele>
        <time>2021-07-01T10:42:27.000Z</time>
      </trkpt>
      <trkpt lat="43.29638" lon="3.39331">
        <ele>47</ele>
        <time>2021-07-01T10:42:30.000Z</time>
      </trkpt>
      <trkpt lat="43.29645" lon="3.39347">
        <ele>47</ele>
        <time>2021-07-01T10:42:33.000Z</time>
      </trkpt>
      <trkpt lat="43.29651" lon="3.39362">
        <ele>48</ele>
        <time>2021-07-01T10:42:36.000Z</time>
      </trkpt>
      <trkpt lat="43.29659" lon="3.39378">
        <ele>47</ele>
        <time>2021-07-01T10:42:39.000Z</time>
      </trkpt>
      <trkpt lat="43.29665" lon="3.39394">
        <ele>47</ele>
        <time>2021-07-01T10:42:42.000Z</time>
      </trkpt>
      <trkpt lat="43.2967" lon="3.39405">
        <ele>47</ele>
        <time>2021-07-01T10:42:44.000Z</time>
      </trkpt>
      <trkpt lat="43.29674" lon="3.39416">
        <ele>47</ele>
        <time>2021-07-01T10:42:46.000Z</time>
      </trkpt>
      <trkpt lat="43.29679" lon="3.39428">
        <ele>47</ele>
        <time>2021-07-01T10:42:48.000Z</time>
      </trkpt>
      <trkpt lat="43.29683" lon="3.39439">
        <ele>47</ele>
        <time>2021-07-01T10:42:50.000Z</time>
      </trkpt>
      <trkpt lat="43.2969" lon="3.39453">
        <ele>46</ele>
        <time>2021-07-01T10:42:53.000Z</time>
      </trkpt>
      <trkpt lat="43.29694" lon="3.39464">
        <ele>45</ele>
        <time>2021-07-01T10:42:55.000Z</time>
      </trkpt>
      <trkpt lat="43.29699" lon="3.39476">
        <ele>45</ele>
        <time>2021-07-01T10:42:57.000Z</time>
      </trkpt>
      <trkpt lat="43.29705" lon="3.39488">
        <ele>45</ele>
        <time>2021-07-01T10:42:59.000Z</time>
      </trkpt>
      <trkpt lat="43.29712" lon="3.39502">
        <ele>45</ele>
        <time>2021-07-01T10:43:02.000Z</time>
      </trkpt>
      <trkpt lat="43.29723" lon="3.39524">
        <ele>45</ele>
        <time>2021-07-01T10:43:06.000Z</time>
      </trkpt>
      <trkpt lat="43.29727" lon="3.39536">
        <ele>46</ele>
        <time>2021-07-01T10:43:08.000Z</time>
      </trkpt>
      <trkpt lat="43.29733" lon="3.39552">
        <ele>46</ele>
        <time>2021-07-01T10:43:11.000Z</time>
      </trkpt>
      <trkpt lat="43.29739" lon="3.39563">
        <ele>46</ele>
        <time>2021-07-01T10:43:13.000Z</time>
      </trkpt>
      <trkpt lat="43.29744" lon="3.39574">
        <ele>45</ele>
        <time>2021-07-01T10:43:15.000Z</time>
      </trkpt>
      <trkpt lat="43.29749" lon="3.39587">
        <ele>45</ele>
        <time>2021-07-01T10:43:17.000Z</time>
      </trkpt>
      <trkpt lat="43.29753" lon="3.39599">
        <ele>45</ele>
        <time>2021-07-01T10:43:19.000Z</time>
      </trkpt>
      <trkpt lat="43.29759" lon="3.3961">
        <ele>46</ele>
        <time>2021-07-01T10:43:21.000Z</time>
      </trkpt>
      <trkpt lat="43.29767" lon="3.39627">
        <ele>45</ele>
        <time>2021-07-01T10:43:24.000Z</time>
      </trkpt>
      <trkpt lat="43.29771" lon="3.39638">
        <ele>45</ele>
        <time>2021-07-01T10:43:26.000Z</time>
      </trkpt>
      <trkpt lat="43.29777" lon="3.39649">
        <ele>46</ele>
        <time>2021-07-01T10:43:28.000Z</time>
      </trkpt>
      <trkpt lat="43.29782" lon="3.3966">
        <ele>46</ele>
        <time>2021-07-01T10:43:30.000Z</time>
      </trkpt>
      <trkpt lat="43.29791" lon="3.39677">
        <ele>46</ele>
        <time>2021-07-01T10:43:33.000Z</time>
      </trkpt>
      <trkpt lat="43.29796" lon="3.39688">
        <ele>46</ele>
        <time>2021-07-01T10:43:35.000Z</time>
      </trkpt>
      <trkpt lat="43.298" lon="3.397">
        <ele>46</ele>
        <time>2021-07-01T10:43:37.000Z</time>
      </trkpt>
      <trkpt lat="43.29804" lon="3.39711">
        <ele>45</ele>
        <time>2021-07-01T10:43:39.000Z</time>
      </trkpt>
      <trkpt lat="43.2981" lon="3.39723">
        <ele>45</ele>
        <time>2021-07-01T10:43:41.000Z</time>
      </trkpt>
      <trkpt lat="43.29815" lon="3.39735">
        <ele>45</ele>
        <time>2021-07-01T10:43:43.000Z</time>
      </trkpt>
      <trkpt lat="43.29819" lon="3.39749">
        <ele>44</ele>
        <time>2021-07-01T10:43:45.000Z</time>
      </trkpt>
      <trkpt lat="43.29825" lon="3.39761">
        <ele>42</ele>
        <time>2021-07-01T10:43:47.000Z</time>
      </trkpt>
      <trkpt lat="43.29831" lon="3.39771">
        <ele>42</ele>
        <time>2021-07-01T10:43:49.000Z</time>
      </trkpt>
      <trkpt lat="43.29836" lon="3.39783">
        <ele>43</ele>
        <time>2021-07-01T10:43:51.000Z</time>
      </trkpt>
      <trkpt lat="43.29842" lon="3.39796">
        <ele>44</ele>
        <time>2021-07-01T10:43:53.000Z</time>
      </trkpt>
      <trkpt lat="43.29848" lon="3.39808">
        <ele>43</ele>
        <time>2021-07-01T10:43:55.000Z</time>
      </trkpt>
      <trkpt lat="43.29852" lon="3.3982">
        <ele>44</ele>
        <time>2021-07-01T10:43:57.000Z</time>
      </trkpt>
      <trkpt lat="43.29859" lon="3.39829">
        <ele>44</ele>
        <time>2021-07-01T10:43:59.000Z</time>
      </trkpt>
      <trkpt lat="43.29864" lon="3.39841">
        <ele>43</ele>
        <time>2021-07-01T10:44:01.000Z</time>
      </trkpt>
      <trkpt lat="43.29868" lon="3.39855">
        <ele>43</ele>
        <time>2021-07-01T10:44:03.000Z</time>
      </trkpt>
      <trkpt lat="43.29874" lon="3.3987">
        <ele>44</ele>
        <time>2021-07-01T10:44:06.000Z</time>
      </trkpt>
      <trkpt lat="43.29879" lon="3.39882">
        <ele>46</ele>
        <time>2021-07-01T10:44:08.000Z</time>
      </trkpt>
      <trkpt lat="43.29885" lon="3.39894">
        <ele>45</ele>
        <time>2021-07-01T10:44:10.000Z</time>
      </trkpt>
      <trkpt lat="43.29889" lon="3.39907">
        <ele>45</ele>
        <time>2021-07-01T10:44:12.000Z</time>
      </trkpt>
      <trkpt lat="43.29895" lon="3.39918">
        <ele>46</ele>
        <time>2021-07-01T10:44:14.000Z</time>
      </trkpt>
      <trkpt lat="43.29901" lon="3.3993">
        <ele>46</ele>
        <time>2021-07-01T10:44:16.000Z</time>
      </trkpt>
      <trkpt lat="43.29906" lon="3.39943">
        <ele>45</ele>
        <time>2021-07-01T10:44:18.000Z</time>
      </trkpt>
      <trkpt lat="43.29913" lon="3.39954">
        <ele>45</ele>
        <time>2021-07-01T10:44:20.000Z</time>
      </trkpt>
      <trkpt lat="43.29919" lon="3.39966">
        <ele>46</ele>
        <time>2021-07-01T10:44:22.000Z</time>
      </trkpt>
      <trkpt lat="43.29923" lon="3.39979">
        <ele>46</ele>
        <time>2021-07-01T10:44:24.000Z</time>
      </trkpt>
      <trkpt lat="43.29928" lon="3.39992">
        <ele>46</ele>
        <time>2021-07-01T10:44:26.000Z</time>
      </trkpt>
      <trkpt lat="43.29936" lon="3.4001">
        <ele>46</ele>
        <time>2021-07-01T10:44:29.000Z</time>
      </trkpt>
      <trkpt lat="43.29942" lon="3.40021">
        <ele>46</ele>
        <time>2021-07-01T10:44:31.000Z</time>
      </trkpt>
      <trkpt lat="43.29947" lon="3.40032">
        <ele>46</ele>
        <time>2021-07-01T10:44:33.000Z</time>
      </trkpt>
      <trkpt lat="43.29952" lon="3.40045">
        <ele>45</ele>
        <time>2021-07-01T10:44:35.000Z</time>
      </trkpt>
      <trkpt lat="43.29957" lon="3.40058">
        <ele>45</ele>
        <time>2021-07-01T10:44:37.000Z</time>
      </trkpt>
      <trkpt lat="43.29962" lon="3.40071">
        <ele>45</ele>
        <time>2021-07-01T10:44:39.000Z</time>
      </trkpt>
      <trkpt lat="43.29968" lon="3.40084">
        <ele>45</ele>
        <time>2021-07-01T10:44:41.000Z</time>
      </trkpt>
      <trkpt lat="43.29973" lon="3.40095">
        <ele>45</ele>
        <time>2021-07-01T10:44:43.000Z</time>
      </trkpt>
      <trkpt lat="43.29978" lon="3.40107">
        <ele>45</ele>
        <time>2021-07-01T10:44:45.000Z</time>
      </trkpt>
      <trkpt lat="43.29983" lon="3.4012">
        <ele>45</ele>
        <time>2021-07-01T10:44:47.000Z</time>
      </trkpt>
      <trkpt lat="43.29992" lon="3.40139">
        <ele>45</ele>
        <time>2021-07-01T10:44:50.000Z</time>
      </trkpt>
      <trkpt lat="43.29997" lon="3.40152">
        <ele>45</ele>
        <time>2021-07-01T10:44:52.000Z</time>
      </trkpt>
      <trkpt lat="43.30003" lon="3.40166">
        <ele>44</ele>
        <time>2021-07-01T10:44:54.000Z</time>
      </trkpt>
      <trkpt lat="43.30007" lon="3.40179">
        <ele>45</ele>
        <time>2021-07-01T10:44:56.000Z</time>
      </trkpt>
      <trkpt lat="43.30011" lon="3.40192">
        <ele>45</ele>
        <time>2021-07-01T10:44:58.000Z</time>
      </trkpt>
      <trkpt lat="43.30015" lon="3.40204">
        <ele>45</ele>
        <time>2021-07-01T10:45:00.000Z</time>
      </trkpt>
      <trkpt lat="43.3002" lon="3.40222">
        <ele>45</ele>
        <time>2021-07-01T10:45:03.000Z</time>
      </trkpt>
      <trkpt lat="43.30024" lon="3.40233">
        <ele>45</ele>
        <time>2021-07-01T10:45:05.000Z</time>
      </trkpt>
      <trkpt lat="43.30028" lon="3.40244">
        <ele>44</ele>
        <time>2021-07-01T10:45:07.000Z</time>
      </trkpt>
      <trkpt lat="43.30032" lon="3.40256">
        <ele>45</ele>
        <time>2021-07-01T10:45:09.000Z</time>
      </trkpt>
      <trkpt lat="43.30038" lon="3.40272">
        <ele>45</ele>
        <time>2021-07-01T10:45:12.000Z</time>
      </trkpt>
      <trkpt lat="43.30044" lon="3.40288">
        <ele>46</ele>
        <time>2021-07-01T10:45:15.000Z</time>
      </trkpt>
      <trkpt lat="43.3005" lon="3.40307">
        <ele>47</ele>
        <time>2021-07-01T10:45:19.000Z</time>
      </trkpt>
      <trkpt lat="43.30048" lon="3.40321">
        <ele>47</ele>
        <time>2021-07-01T10:45:23.000Z</time>
      </trkpt>
      <trkpt lat="43.30057" lon="3.40328">
        <ele>45</ele>
        <time>2021-07-01T10:45:33.000Z</time>
      </trkpt>
      <trkpt lat="43.30065" lon="3.40334">
        <ele>44</ele>
        <time>2021-07-01T10:45:45.000Z</time>
      </trkpt>
      <trkpt lat="43.30066" lon="3.40347">
        <ele>45</ele>
        <time>2021-07-01T10:48:52.000Z</time>
      </trkpt>
      <trkpt lat="43.30067" lon="3.40359">
        <ele>47</ele>
        <time>2021-07-01T10:48:58.000Z</time>
      </trkpt>
      <trkpt lat="43.30075" lon="3.40365">
        <ele>48</ele>
        <time>2021-07-01T10:49:46.000Z</time>
      </trkpt>
      <trkpt lat="43.30079" lon="3.40376">
        <ele>47</ele>
        <time>2021-07-01T10:51:01.000Z</time>
      </trkpt>
      <trkpt lat="43.3008" lon="3.40388">
        <ele>48</ele>
        <time>2021-07-01T10:51:30.000Z</time>
      </trkpt>
      <trkpt lat="43.30084" lon="3.404">
        <ele>46</ele>
        <time>2021-07-01T10:53:43.000Z</time>
      </trkpt>
      <trkpt lat="43.30093" lon="3.40399">
        <ele>49</ele>
        <time>2021-07-01T10:55:52.000Z</time>
      </trkpt>
      <trkpt lat="43.30096" lon="3.40387">
        <ele>54</ele>
        <time>2021-07-01T10:56:55.000Z</time>
      </trkpt>
      <trkpt lat="43.30094" lon="3.40373">
        <ele>49</ele>
        <time>2021-07-01T10:57:49.000Z</time>
      </trkpt>
      <trkpt lat="43.30086" lon="3.40365">
        <ele>50</ele>
        <time>2021-07-01T10:58:03.000Z</time>
      </trkpt>
      <trkpt lat="43.30076" lon="3.40365">
        <ele>50</ele>
        <time>2021-07-01T10:58:12.000Z</time>
      </trkpt>
      <trkpt lat="43.30067" lon="3.40362">
        <ele>51</ele>
        <time>2021-07-01T10:58:25.000Z</time>
      </trkpt>
      <trkpt lat="43.30058" lon="3.40362">
        <ele>49</ele>
        <time>2021-07-01T10:58:39.000Z</time>
      </trkpt>
      <trkpt lat="43.30049" lon="3.40363">
        <ele>48</ele>
        <time>2021-07-01T10:58:48.000Z</time>
      </trkpt>
      <trkpt lat="43.3004" lon="3.40359">
        <ele>48</ele>
        <time>2021-07-01T10:58:57.000Z</time>
      </trkpt>
      <trkpt lat="43.30049" lon="3.40363">
        <ele>42</ele>
        <time>2021-07-01T10:59:59.000Z</time>
      </trkpt>
      <trkpt lat="43.30059" lon="3.40363">
        <ele>48</ele>
        <time>2021-07-01T11:00:07.000Z</time>
      </trkpt>
      <trkpt lat="43.30067" lon="3.40367">
        <ele>45</ele>
        <time>2021-07-01T11:04:30.000Z</time>
      </trkpt>
      <trkpt lat="43.30058" lon="3.40364">
        <ele>46</ele>
        <time>2021-07-01T11:09:57.000Z</time>
      </trkpt>
      <trkpt lat="43.30066" lon="3.40357">
        <ele>45</ele>
        <time>2021-07-01T11:10:13.000Z</time>
      </trkpt>
      <trkpt lat="43.30063" lon="3.40343">
        <ele>48</ele>
        <time>2021-07-01T11:11:51.000Z</time>
      </trkpt>
      <trkpt lat="43.30053" lon="3.40326">
        <ele>47</ele>
        <time>2021-07-01T11:11:55.000Z</time>
      </trkpt>
      <trkpt lat="43.30044" lon="3.40321">
        <ele>46</ele>
        <time>2021-07-01T11:11:58.000Z</time>
      </trkpt>
      <trkpt lat="43.30032" lon="3.40323">
        <ele>46</ele>
        <time>2021-07-01T11:12:02.000Z</time>
      </trkpt>
      <trkpt lat="43.30022" lon="3.40328">
        <ele>46</ele>
        <time>2021-07-01T11:12:06.000Z</time>
      </trkpt>
      <trkpt lat="43.30014" lon="3.40341">
        <ele>46</ele>
        <time>2021-07-01T11:12:09.000Z</time>
      </trkpt>
      <trkpt lat="43.30006" lon="3.40352">
        <ele>47</ele>
        <time>2021-07-01T11:12:12.000Z</time>
      </trkpt>
      <trkpt lat="43.29999" lon="3.40363">
        <ele>47</ele>
        <time>2021-07-01T11:12:15.000Z</time>
      </trkpt>
      <trkpt lat="43.29991" lon="3.40372">
        <ele>47</ele>
        <time>2021-07-01T11:12:18.000Z</time>
      </trkpt>
      <trkpt lat="43.29984" lon="3.40385">
        <ele>46</ele>
        <time>2021-07-01T11:12:21.000Z</time>
      </trkpt>
      <trkpt lat="43.29976" lon="3.40394">
        <ele>46</ele>
        <time>2021-07-01T11:12:24.000Z</time>
      </trkpt>
      <trkpt lat="43.29968" lon="3.40401">
        <ele>47</ele>
        <time>2021-07-01T11:12:27.000Z</time>
      </trkpt>
      <trkpt lat="43.29959" lon="3.40409">
        <ele>46</ele>
        <time>2021-07-01T11:12:31.000Z</time>
      </trkpt>
      <trkpt lat="43.29956" lon="3.40421">
        <ele>47</ele>
        <time>2021-07-01T11:12:37.000Z</time>
      </trkpt>
      <trkpt lat="43.29956" lon="3.40436">
        <ele>48</ele>
        <time>2021-07-01T11:12:42.000Z</time>
      </trkpt>
      <trkpt lat="43.29952" lon="3.40452">
        <ele>49</ele>
        <time>2021-07-01T11:12:48.000Z</time>
      </trkpt>
      <trkpt lat="43.29953" lon="3.40468">
        <ele>49</ele>
        <time>2021-07-01T11:12:52.000Z</time>
      </trkpt>
      <trkpt lat="43.29955" lon="3.40482">
        <ele>50</ele>
        <time>2021-07-01T11:12:55.000Z</time>
      </trkpt>
      <trkpt lat="43.29958" lon="3.40499">
        <ele>49</ele>
        <time>2021-07-01T11:12:58.000Z</time>
      </trkpt>
      <trkpt lat="43.2996" lon="3.40511">
        <ele>49</ele>
        <time>2021-07-01T11:13:00.000Z</time>
      </trkpt>
      <trkpt lat="43.29962" lon="3.40523">
        <ele>49</ele>
        <time>2021-07-01T11:13:02.000Z</time>
      </trkpt>
      <trkpt lat="43.29965" lon="3.40536">
        <ele>49</ele>
        <time>2021-07-01T11:13:04.000Z</time>
      </trkpt>
      <trkpt lat="43.29968" lon="3.40548">
        <ele>47</ele>
        <time>2021-07-01T11:13:06.000Z</time>
      </trkpt>
      <trkpt lat="43.29972" lon="3.40561">
        <ele>46</ele>
        <time>2021-07-01T11:13:08.000Z</time>
      </trkpt>
      <trkpt lat="43.29976" lon="3.40578">
        <ele>46</ele>
        <time>2021-07-01T11:13:11.000Z</time>
      </trkpt>
      <trkpt lat="43.2998" lon="3.40602">
        <ele>46</ele>
        <time>2021-07-01T11:13:15.000Z</time>
      </trkpt>
      <trkpt lat="43.29982" lon="3.40615">
        <ele>47</ele>
        <time>2021-07-01T11:13:17.000Z</time>
      </trkpt>
      <trkpt lat="43.29985" lon="3.40627">
        <ele>47</ele>
        <time>2021-07-01T11:13:19.000Z</time>
      </trkpt>
      <trkpt lat="43.29987" lon="3.4064">
        <ele>48</ele>
        <time>2021-07-01T11:13:21.000Z</time>
      </trkpt>
      <trkpt lat="43.2999" lon="3.40652">
        <ele>48</ele>
        <time>2021-07-01T11:13:23.000Z</time>
      </trkpt>
      <trkpt lat="43.29992" lon="3.40665">
        <ele>48</ele>
        <time>2021-07-01T11:13:25.000Z</time>
      </trkpt>
      <trkpt lat="43.29994" lon="3.40678">
        <ele>48</ele>
        <time>2021-07-01T11:13:27.000Z</time>
      </trkpt>
      <trkpt lat="43.29997" lon="3.40691">
        <ele>49</ele>
        <time>2021-07-01T11:13:29.000Z</time>
      </trkpt>
      <trkpt lat="43.3" lon="3.40704">
        <ele>48</ele>
        <time>2021-07-01T11:13:31.000Z</time>
      </trkpt>
      <trkpt lat="43.30003" lon="3.40717">
        <ele>48</ele>
        <time>2021-07-01T11:13:33.000Z</time>
      </trkpt>
      <trkpt lat="43.30006" lon="3.4073">
        <ele>48</ele>
        <time>2021-07-01T11:13:35.000Z</time>
      </trkpt>
      <trkpt lat="43.30009" lon="3.40744">
        <ele>49</ele>
        <time>2021-07-01T11:13:37.000Z</time>
      </trkpt>
      <trkpt lat="43.30011" lon="3.40756">
        <ele>49</ele>
        <time>2021-07-01T11:13:39.000Z</time>
      </trkpt>
      <trkpt lat="43.30013" lon="3.40768">
        <ele>49</ele>
        <time>2021-07-01T11:13:41.000Z</time>
      </trkpt>
      <trkpt lat="43.30016" lon="3.40781">
        <ele>49</ele>
        <time>2021-07-01T11:13:43.000Z</time>
      </trkpt>
      <trkpt lat="43.3002" lon="3.40798">
        <ele>49</ele>
        <time>2021-07-01T11:13:46.000Z</time>
      </trkpt>
      <trkpt lat="43.30023" lon="3.40813">
        <ele>49</ele>
        <time>2021-07-01T11:13:49.000Z</time>
      </trkpt>
      <trkpt lat="43.30026" lon="3.40828">
        <ele>50</ele>
        <time>2021-07-01T11:13:52.000Z</time>
      </trkpt>
      <trkpt lat="43.30028" lon="3.40842">
        <ele>50</ele>
        <time>2021-07-01T11:13:55.000Z</time>
      </trkpt>
      <trkpt lat="43.30029" lon="3.40856">
        <ele>50</ele>
        <time>2021-07-01T11:13:58.000Z</time>
      </trkpt>
      <trkpt lat="43.30031" lon="3.4087">
        <ele>50</ele>
        <time>2021-07-01T11:14:01.000Z</time>
      </trkpt>
      <trkpt lat="43.30033" lon="3.40884">
        <ele>50</ele>
        <time>2021-07-01T11:14:04.000Z</time>
      </trkpt>
      <trkpt lat="43.30035" lon="3.40898">
        <ele>50</ele>
        <time>2021-07-01T11:14:07.000Z</time>
      </trkpt>
      <trkpt lat="43.30038" lon="3.40913">
        <ele>50</ele>
        <time>2021-07-01T11:14:10.000Z</time>
      </trkpt>
      <trkpt lat="43.30039" lon="3.40927">
        <ele>49</ele>
        <time>2021-07-01T11:14:13.000Z</time>
      </trkpt>
      <trkpt lat="43.30042" lon="3.40945">
        <ele>49</ele>
        <time>2021-07-01T11:14:16.000Z</time>
      </trkpt>
      <trkpt lat="43.30045" lon="3.4096">
        <ele>49</ele>
        <time>2021-07-01T11:14:19.000Z</time>
      </trkpt>
      <trkpt lat="43.30047" lon="3.40977">
        <ele>49</ele>
        <time>2021-07-01T11:14:22.000Z</time>
      </trkpt>
      <trkpt lat="43.30049" lon="3.40993">
        <ele>50</ele>
        <time>2021-07-01T11:14:25.000Z</time>
      </trkpt>
      <trkpt lat="43.30052" lon="3.41009">
        <ele>50</ele>
        <time>2021-07-01T11:14:28.000Z</time>
      </trkpt>
      <trkpt lat="43.30054" lon="3.41022">
        <ele>50</ele>
        <time>2021-07-01T11:14:30.000Z</time>
      </trkpt>
      <trkpt lat="43.30057" lon="3.41039">
        <ele>50</ele>
        <time>2021-07-01T11:14:33.000Z</time>
      </trkpt>
      <trkpt lat="43.3006" lon="3.41057">
        <ele>49</ele>
        <time>2021-07-01T11:14:36.000Z</time>
      </trkpt>
      <trkpt lat="43.30063" lon="3.41074">
        <ele>49</ele>
        <time>2021-07-01T11:14:39.000Z</time>
      </trkpt>
      <trkpt lat="43.30065" lon="3.41092">
        <ele>49</ele>
        <time>2021-07-01T11:14:42.000Z</time>
      </trkpt>
      <trkpt lat="43.30067" lon="3.41107">
        <ele>48</ele>
        <time>2021-07-01T11:14:44.000Z</time>
      </trkpt>
      <trkpt lat="43.30069" lon="3.4112">
        <ele>50</ele>
        <time>2021-07-01T11:14:46.000Z</time>
      </trkpt>
      <trkpt lat="43.30071" lon="3.41135">
        <ele>49</ele>
        <time>2021-07-01T11:14:49.000Z</time>
      </trkpt>
      <trkpt lat="43.30074" lon="3.41153">
        <ele>50</ele>
        <time>2021-07-01T11:14:52.000Z</time>
      </trkpt>
      <trkpt lat="43.30076" lon="3.41169">
        <ele>50</ele>
        <time>2021-07-01T11:14:55.000Z</time>
      </trkpt>
      <trkpt lat="43.30078" lon="3.41186">
        <ele>50</ele>
        <time>2021-07-01T11:14:58.000Z</time>
      </trkpt>
      <trkpt lat="43.30084" lon="3.41204">
        <ele>50</ele>
        <time>2021-07-01T11:15:01.000Z</time>
      </trkpt>
      <trkpt lat="43.30087" lon="3.41216">
        <ele>51</ele>
        <time>2021-07-01T11:15:03.000Z</time>
      </trkpt>
      <trkpt lat="43.30088" lon="3.41233">
        <ele>51</ele>
        <time>2021-07-01T11:15:06.000Z</time>
      </trkpt>
      <trkpt lat="43.30089" lon="3.41246">
        <ele>51</ele>
        <time>2021-07-01T11:15:08.000Z</time>
      </trkpt>
      <trkpt lat="43.30091" lon="3.41263">
        <ele>49</ele>
        <time>2021-07-01T11:15:11.000Z</time>
      </trkpt>
      <trkpt lat="43.30094" lon="3.4129">
        <ele>51</ele>
        <time>2021-07-01T11:15:15.000Z</time>
      </trkpt>
      <trkpt lat="43.30095" lon="3.41307">
        <ele>51</ele>
        <time>2021-07-01T11:15:18.000Z</time>
      </trkpt>
      <trkpt lat="43.30094" lon="3.41325">
        <ele>50</ele>
        <time>2021-07-01T11:15:21.000Z</time>
      </trkpt>
      <trkpt lat="43.30093" lon="3.41342">
        <ele>51</ele>
        <time>2021-07-01T11:15:24.000Z</time>
      </trkpt>
      <trkpt lat="43.30094" lon="3.41365">
        <ele>50</ele>
        <time>2021-07-01T11:15:28.000Z</time>
      </trkpt>
      <trkpt lat="43.30096" lon="3.41382">
        <ele>50</ele>
        <time>2021-07-01T11:15:31.000Z</time>
      </trkpt>
      <trkpt lat="43.30098" lon="3.41399">
        <ele>50</ele>
        <time>2021-07-01T11:15:34.000Z</time>
      </trkpt>
      <trkpt lat="43.30101" lon="3.41415">
        <ele>50</ele>
        <time>2021-07-01T11:15:37.000Z</time>
      </trkpt>
      <trkpt lat="43.30103" lon="3.41431">
        <ele>50</ele>
        <time>2021-07-01T11:15:40.000Z</time>
      </trkpt>
      <trkpt lat="43.30106" lon="3.41445">
        <ele>50</ele>
        <time>2021-07-01T11:15:43.000Z</time>
      </trkpt>
      <trkpt lat="43.30109" lon="3.41462">
        <ele>51</ele>
        <time>2021-07-01T11:15:46.000Z</time>
      </trkpt>
      <trkpt lat="43.3011" lon="3.41477">
        <ele>51</ele>
        <time>2021-07-01T11:15:49.000Z</time>
      </trkpt>
      <trkpt lat="43.30113" lon="3.41495">
        <ele>51</ele>
        <time>2021-07-01T11:15:53.000Z</time>
      </trkpt>
      <trkpt lat="43.30115" lon="3.41508">
        <ele>51</ele>
        <time>2021-07-01T11:15:56.000Z</time>
      </trkpt>
      <trkpt lat="43.30117" lon="3.41524">
        <ele>50</ele>
        <time>2021-07-01T11:16:00.000Z</time>
      </trkpt>
      <trkpt lat="43.30119" lon="3.41538">
        <ele>49</ele>
        <time>2021-07-01T11:16:04.000Z</time>
      </trkpt>
      <trkpt lat="43.3012" lon="3.4155">
        <ele>49</ele>
        <time>2021-07-01T11:16:08.000Z</time>
      </trkpt>
      <trkpt lat="43.30122" lon="3.41563">
        <ele>49</ele>
        <time>2021-07-01T11:16:12.000Z</time>
      </trkpt>
      <trkpt lat="43.30126" lon="3.41581">
        <ele>49</ele>
        <time>2021-07-01T11:16:17.000Z</time>
      </trkpt>
      <trkpt lat="43.30129" lon="3.41594">
        <ele>50</ele>
        <time>2021-07-01T11:16:20.000Z</time>
      </trkpt>
      <trkpt lat="43.30134" lon="3.41605">
        <ele>50</ele>
        <time>2021-07-01T11:16:23.000Z</time>
      </trkpt>
      <trkpt lat="43.30141" lon="3.41624">
        <ele>49</ele>
        <time>2021-07-01T11:16:27.000Z</time>
      </trkpt>
      <trkpt lat="43.30143" lon="3.41636">
        <ele>49</ele>
        <time>2021-07-01T11:16:30.000Z</time>
      </trkpt>
      <trkpt lat="43.30137" lon="3.41648">
        <ele>48</ele>
        <time>2021-07-01T11:16:36.000Z</time>
      </trkpt>
      <trkpt lat="43.30133" lon="3.41661">
        <ele>47</ele>
        <time>2021-07-01T11:16:41.000Z</time>
      </trkpt>
      <trkpt lat="43.30123" lon="3.41671">
        <ele>47</ele>
        <time>2021-07-01T11:16:45.000Z</time>
      </trkpt>
      <trkpt lat="43.30115" lon="3.41677">
        <ele>47</ele>
        <time>2021-07-01T11:16:50.000Z</time>
      </trkpt>
      <trkpt lat="43.30124" lon="3.41681">
        <ele>46</ele>
        <time>2021-07-01T11:18:08.000Z</time>
      </trkpt>
      <trkpt lat="43.30133" lon="3.41678">
        <ele>46</ele>
        <time>2021-07-01T11:18:11.000Z</time>
      </trkpt>
      <trkpt lat="43.30143" lon="3.41679">
        <ele>47</ele>
        <time>2021-07-01T11:18:14.000Z</time>
      </trkpt>
      <trkpt lat="43.30153" lon="3.41684">
        <ele>47</ele>
        <time>2021-07-01T11:18:17.000Z</time>
      </trkpt>
      <trkpt lat="43.30162" lon="3.41693">
        <ele>48</ele>
        <time>2021-07-01T11:18:20.000Z</time>
      </trkpt>
      <trkpt lat="43.3017" lon="3.41704">
        <ele>49</ele>
        <time>2021-07-01T11:18:23.000Z</time>
      </trkpt>
      <trkpt lat="43.30179" lon="3.41721">
        <ele>49</ele>
        <time>2021-07-01T11:18:27.000Z</time>
      </trkpt>
      <trkpt lat="43.30186" lon="3.41734">
        <ele>48</ele>
        <time>2021-07-01T11:18:30.000Z</time>
      </trkpt>
      <trkpt lat="43.30191" lon="3.41747">
        <ele>49</ele>
        <time>2021-07-01T11:18:33.000Z</time>
      </trkpt>
      <trkpt lat="43.302" lon="3.41766">
        <ele>46</ele>
        <time>2021-07-01T11:18:37.000Z</time>
      </trkpt>
      <trkpt lat="43.30202" lon="3.41785">
        <ele>47</ele>
        <time>2021-07-01T11:18:41.000Z</time>
      </trkpt>
      <trkpt lat="43.30204" lon="3.41801">
        <ele>46</ele>
        <time>2021-07-01T11:18:44.000Z</time>
      </trkpt>
      <trkpt lat="43.30205" lon="3.41815">
        <ele>46</ele>
        <time>2021-07-01T11:18:47.000Z</time>
      </trkpt>
      <trkpt lat="43.302" lon="3.41831">
        <ele>47</ele>
        <time>2021-07-01T11:18:50.000Z</time>
      </trkpt>
      <trkpt lat="43.30197" lon="3.41845">
        <ele>44</ele>
        <time>2021-07-01T11:18:53.000Z</time>
      </trkpt>
      <trkpt lat="43.30193" lon="3.41859">
        <ele>46</ele>
        <time>2021-07-01T11:18:57.000Z</time>
      </trkpt>
      <trkpt lat="43.30196" lon="3.41872">
        <ele>45</ele>
        <time>2021-07-01T11:19:01.000Z</time>
      </trkpt>
      <trkpt lat="43.302" lon="3.41886">
        <ele>46</ele>
        <time>2021-07-01T11:19:05.000Z</time>
      </trkpt>
      <trkpt lat="43.30203" lon="3.41902">
        <ele>46</ele>
        <time>2021-07-01T11:19:09.000Z</time>
      </trkpt>
      <trkpt lat="43.30201" lon="3.41916">
        <ele>46</ele>
        <time>2021-07-01T11:19:12.000Z</time>
      </trkpt>
      <trkpt lat="43.302" lon="3.41934">
        <ele>47</ele>
        <time>2021-07-01T11:19:15.000Z</time>
      </trkpt>
      <trkpt lat="43.30198" lon="3.41953">
        <ele>48</ele>
        <time>2021-07-01T11:19:18.000Z</time>
      </trkpt>
      <trkpt lat="43.30197" lon="3.41967">
        <ele>48</ele>
        <time>2021-07-01T11:19:20.000Z</time>
      </trkpt>
      <trkpt lat="43.30196" lon="3.41981">
        <ele>48</ele>
        <time>2021-07-01T11:19:22.000Z</time>
      </trkpt>
      <trkpt lat="43.30196" lon="3.41994">
        <ele>48</ele>
        <time>2021-07-01T11:19:24.000Z</time>
      </trkpt>
      <trkpt lat="43.30197" lon="3.42013">
        <ele>48</ele>
        <time>2021-07-01T11:19:27.000Z</time>
      </trkpt>
      <trkpt lat="43.30199" lon="3.42025">
        <ele>48</ele>
        <time>2021-07-01T11:19:29.000Z</time>
      </trkpt>
      <trkpt lat="43.30204" lon="3.42036">
        <ele>49</ele>
        <time>2021-07-01T11:19:31.000Z</time>
      </trkpt>
      <trkpt lat="43.3021" lon="3.42046">
        <ele>49</ele>
        <time>2021-07-01T11:19:33.000Z</time>
      </trkpt>
      <trkpt lat="43.30215" lon="3.42057">
        <ele>49</ele>
        <time>2021-07-01T11:19:35.000Z</time>
      </trkpt>
      <trkpt lat="43.3022" lon="3.42074">
        <ele>48</ele>
        <time>2021-07-01T11:19:38.000Z</time>
      </trkpt>
      <trkpt lat="43.30221" lon="3.42087">
        <ele>48</ele>
        <time>2021-07-01T11:19:40.000Z</time>
      </trkpt>
      <trkpt lat="43.30221" lon="3.42105">
        <ele>48</ele>
        <time>2021-07-01T11:19:43.000Z</time>
      </trkpt>
      <trkpt lat="43.30222" lon="3.42118">
        <ele>48</ele>
        <time>2021-07-01T11:19:45.000Z</time>
      </trkpt>
      <trkpt lat="43.30223" lon="3.42131">
        <ele>49</ele>
        <time>2021-07-01T11:19:47.000Z</time>
      </trkpt>
      <trkpt lat="43.30224" lon="3.42149">
        <ele>49</ele>
        <time>2021-07-01T11:19:50.000Z</time>
      </trkpt>
      <trkpt lat="43.30226" lon="3.42168">
        <ele>49</ele>
        <time>2021-07-01T11:19:53.000Z</time>
      </trkpt>
      <trkpt lat="43.30227" lon="3.42181">
        <ele>49</ele>
        <time>2021-07-01T11:19:55.000Z</time>
      </trkpt>
      <trkpt lat="43.30229" lon="3.42199">
        <ele>50</ele>
        <time>2021-07-01T11:19:58.000Z</time>
      </trkpt>
      <trkpt lat="43.30231" lon="3.42219">
        <ele>49</ele>
        <time>2021-07-01T11:20:01.000Z</time>
      </trkpt>
      <trkpt lat="43.30231" lon="3.42231">
        <ele>49</ele>
        <time>2021-07-01T11:20:03.000Z</time>
      </trkpt>
      <trkpt lat="43.30232" lon="3.42244">
        <ele>49</ele>
        <time>2021-07-01T11:20:05.000Z</time>
      </trkpt>
      <trkpt lat="43.30233" lon="3.42257">
        <ele>50</ele>
        <time>2021-07-01T11:20:07.000Z</time>
      </trkpt>
      <trkpt lat="43.30233" lon="3.42278">
        <ele>49</ele>
        <time>2021-07-01T11:20:10.000Z</time>
      </trkpt>
      <trkpt lat="43.30233" lon="3.42292">
        <ele>49</ele>
        <time>2021-07-01T11:20:12.000Z</time>
      </trkpt>
      <trkpt lat="43.30234" lon="3.42305">
        <ele>50</ele>
        <time>2021-07-01T11:20:14.000Z</time>
      </trkpt>
      <trkpt lat="43.30235" lon="3.42318">
        <ele>50</ele>
        <time>2021-07-01T11:20:16.000Z</time>
      </trkpt>
      <trkpt lat="43.30236" lon="3.42332">
        <ele>50</ele>
        <time>2021-07-01T11:20:18.000Z</time>
      </trkpt>
      <trkpt lat="43.30238" lon="3.42344">
        <ele>50</ele>
        <time>2021-07-01T11:20:20.000Z</time>
      </trkpt>
      <trkpt lat="43.30239" lon="3.42357">
        <ele>49</ele>
        <time>2021-07-01T11:20:22.000Z</time>
      </trkpt>
      <trkpt lat="43.3024" lon="3.42371">
        <ele>49</ele>
        <time>2021-07-01T11:20:24.000Z</time>
      </trkpt>
      <trkpt lat="43.30241" lon="3.42392">
        <ele>50</ele>
        <time>2021-07-01T11:20:27.000Z</time>
      </trkpt>
      <trkpt lat="43.30242" lon="3.42407">
        <ele>49</ele>
        <time>2021-07-01T11:20:29.000Z</time>
      </trkpt>
      <trkpt lat="43.30243" lon="3.42422">
        <ele>49</ele>
        <time>2021-07-01T11:20:31.000Z</time>
      </trkpt>
      <trkpt lat="43.30244" lon="3.42435">
        <ele>49</ele>
        <time>2021-07-01T11:20:33.000Z</time>
      </trkpt>
      <trkpt lat="43.30245" lon="3.42447">
        <ele>49</ele>
        <time>2021-07-01T11:20:35.000Z</time>
      </trkpt>
      <trkpt lat="43.30246" lon="3.42461">
        <ele>49</ele>
        <time>2021-07-01T11:20:37.000Z</time>
      </trkpt>
      <trkpt lat="43.30247" lon="3.42474">
        <ele>49</ele>
        <time>2021-07-01T11:20:39.000Z</time>
      </trkpt>
      <trkpt lat="43.30248" lon="3.42487">
        <ele>49</ele>
        <time>2021-07-01T11:20:41.000Z</time>
      </trkpt>
      <trkpt lat="43.30249" lon="3.425">
        <ele>49</ele>
        <time>2021-07-01T11:20:43.000Z</time>
      </trkpt>
      <trkpt lat="43.30251" lon="3.42515">
        <ele>49</ele>
        <time>2021-07-01T11:20:45.000Z</time>
      </trkpt>
      <trkpt lat="43.30253" lon="3.42529">
        <ele>48</ele>
        <time>2021-07-01T11:20:47.000Z</time>
      </trkpt>
      <trkpt lat="43.30254" lon="3.42546">
        <ele>48</ele>
        <time>2021-07-01T11:20:50.000Z</time>
      </trkpt>
      <trkpt lat="43.30255" lon="3.42565">
        <ele>48</ele>
        <time>2021-07-01T11:20:53.000Z</time>
      </trkpt>
      <trkpt lat="43.30255" lon="3.42584">
        <ele>47</ele>
        <time>2021-07-01T11:20:56.000Z</time>
      </trkpt>
      <trkpt lat="43.30256" lon="3.42596">
        <ele>47</ele>
        <time>2021-07-01T11:20:58.000Z</time>
      </trkpt>
      <trkpt lat="43.30256" lon="3.4261">
        <ele>47</ele>
        <time>2021-07-01T11:21:00.000Z</time>
      </trkpt>
      <trkpt lat="43.30258" lon="3.42629">
        <ele>47</ele>
        <time>2021-07-01T11:21:03.000Z</time>
      </trkpt>
      <trkpt lat="43.30258" lon="3.42643">
        <ele>48</ele>
        <time>2021-07-01T11:21:05.000Z</time>
      </trkpt>
      <trkpt lat="43.3026" lon="3.42657">
        <ele>48</ele>
        <time>2021-07-01T11:21:07.000Z</time>
      </trkpt>
      <trkpt lat="43.30261" lon="3.42671">
        <ele>48</ele>
        <time>2021-07-01T11:21:09.000Z</time>
      </trkpt>
      <trkpt lat="43.30262" lon="3.42685">
        <ele>49</ele>
        <time>2021-07-01T11:21:11.000Z</time>
      </trkpt>
      <trkpt lat="43.30263" lon="3.42698">
        <ele>48</ele>
        <time>2021-07-01T11:21:13.000Z</time>
      </trkpt>
      <trkpt lat="43.30264" lon="3.42712">
        <ele>49</ele>
        <time>2021-07-01T11:21:15.000Z</time>
      </trkpt>
      <trkpt lat="43.30265" lon="3.42726">
        <ele>49</ele>
        <time>2021-07-01T11:21:17.000Z</time>
      </trkpt>
      <trkpt lat="43.30266" lon="3.42739">
        <ele>49</ele>
        <time>2021-07-01T11:21:19.000Z</time>
      </trkpt>
      <trkpt lat="43.30267" lon="3.42752">
        <ele>49</ele>
        <time>2021-07-01T11:21:21.000Z</time>
      </trkpt>
      <trkpt lat="43.30268" lon="3.42767">
        <ele>50</ele>
        <time>2021-07-01T11:21:23.000Z</time>
      </trkpt>
      <trkpt lat="43.30269" lon="3.4278">
        <ele>49</ele>
        <time>2021-07-01T11:21:25.000Z</time>
      </trkpt>
      <trkpt lat="43.30269" lon="3.42794">
        <ele>49</ele>
        <time>2021-07-01T11:21:27.000Z</time>
      </trkpt>
      <trkpt lat="43.30271" lon="3.42814">
        <ele>49</ele>
        <time>2021-07-01T11:21:30.000Z</time>
      </trkpt>
      <trkpt lat="43.30272" lon="3.42828">
        <ele>50</ele>
        <time>2021-07-01T11:21:32.000Z</time>
      </trkpt>
      <trkpt lat="43.30273" lon="3.42848">
        <ele>50</ele>
        <time>2021-07-01T11:21:35.000Z</time>
      </trkpt>
      <trkpt lat="43.30275" lon="3.42861">
        <ele>50</ele>
        <time>2021-07-01T11:21:37.000Z</time>
      </trkpt>
      <trkpt lat="43.30275" lon="3.42874">
        <ele>50</ele>
        <time>2021-07-01T11:21:39.000Z</time>
      </trkpt>
      <trkpt lat="43.30274" lon="3.42893">
        <ele>50</ele>
        <time>2021-07-01T11:21:42.000Z</time>
      </trkpt>
      <trkpt lat="43.3027" lon="3.42922">
        <ele>48</ele>
        <time>2021-07-01T11:21:46.000Z</time>
      </trkpt>
      <trkpt lat="43.30267" lon="3.42935">
        <ele>49</ele>
        <time>2021-07-01T11:21:48.000Z</time>
      </trkpt>
      <trkpt lat="43.30267" lon="3.42948">
        <ele>49</ele>
        <time>2021-07-01T11:21:50.000Z</time>
      </trkpt>
      <trkpt lat="43.30267" lon="3.42961">
        <ele>49</ele>
        <time>2021-07-01T11:21:52.000Z</time>
      </trkpt>
      <trkpt lat="43.30268" lon="3.42979">
        <ele>49</ele>
        <time>2021-07-01T11:21:55.000Z</time>
      </trkpt>
      <trkpt lat="43.30269" lon="3.42994">
        <ele>48</ele>
        <time>2021-07-01T11:21:57.000Z</time>
      </trkpt>
      <trkpt lat="43.30269" lon="3.43011">
        <ele>48</ele>
        <time>2021-07-01T11:22:00.000Z</time>
      </trkpt>
      <trkpt lat="43.30271" lon="3.43024">
        <ele>47</ele>
        <time>2021-07-01T11:22:02.000Z</time>
      </trkpt>
      <trkpt lat="43.30271" lon="3.43037">
        <ele>47</ele>
        <time>2021-07-01T11:22:04.000Z</time>
      </trkpt>
      <trkpt lat="43.30271" lon="3.43054">
        <ele>46</ele>
        <time>2021-07-01T11:22:06.000Z</time>
      </trkpt>
      <trkpt lat="43.30267" lon="3.43067">
        <ele>46</ele>
        <time>2021-07-01T11:22:08.000Z</time>
      </trkpt>
      <trkpt lat="43.30259" lon="3.43075">
        <ele>46</ele>
        <time>2021-07-01T11:22:10.000Z</time>
      </trkpt>
      <trkpt lat="43.3025" lon="3.4308">
        <ele>46</ele>
        <time>2021-07-01T11:22:12.000Z</time>
      </trkpt>
      <trkpt lat="43.30241" lon="3.43085">
        <ele>46</ele>
        <time>2021-07-01T11:22:14.000Z</time>
      </trkpt>
      <trkpt lat="43.30232" lon="3.43091">
        <ele>46</ele>
        <time>2021-07-01T11:22:16.000Z</time>
      </trkpt>
      <trkpt lat="43.30224" lon="3.43098">
        <ele>46</ele>
        <time>2021-07-01T11:22:18.000Z</time>
      </trkpt>
      <trkpt lat="43.30216" lon="3.43106">
        <ele>47</ele>
        <time>2021-07-01T11:22:20.000Z</time>
      </trkpt>
      <trkpt lat="43.3021" lon="3.43116">
        <ele>47</ele>
        <time>2021-07-01T11:22:22.000Z</time>
      </trkpt>
      <trkpt lat="43.30204" lon="3.43127">
        <ele>47</ele>
        <time>2021-07-01T11:22:24.000Z</time>
      </trkpt>
      <trkpt lat="43.30198" lon="3.43137">
        <ele>47</ele>
        <time>2021-07-01T11:22:26.000Z</time>
      </trkpt>
      <trkpt lat="43.30191" lon="3.43148">
        <ele>47</ele>
        <time>2021-07-01T11:22:28.000Z</time>
      </trkpt>
      <trkpt lat="43.30185" lon="3.43159">
        <ele>46</ele>
        <time>2021-07-01T11:22:30.000Z</time>
      </trkpt>
      <trkpt lat="43.30178" lon="3.43168">
        <ele>47</ele>
        <time>2021-07-01T11:22:32.000Z</time>
      </trkpt>
      <trkpt lat="43.30173" lon="3.4318">
        <ele>47</ele>
        <time>2021-07-01T11:22:34.000Z</time>
      </trkpt>
      <trkpt lat="43.30165" lon="3.43197">
        <ele>47</ele>
        <time>2021-07-01T11:22:37.000Z</time>
      </trkpt>
      <trkpt lat="43.3016" lon="3.43208">
        <ele>47</ele>
        <time>2021-07-01T11:22:39.000Z</time>
      </trkpt>
      <trkpt lat="43.30154" lon="3.43219">
        <ele>47</ele>
        <time>2021-07-01T11:22:41.000Z</time>
      </trkpt>
      <trkpt lat="43.30149" lon="3.4323">
        <ele>47</ele>
        <time>2021-07-01T11:22:43.000Z</time>
      </trkpt>
      <trkpt lat="43.3014" lon="3.43246">
        <ele>47</ele>
        <time>2021-07-01T11:22:46.000Z</time>
      </trkpt>
      <trkpt lat="43.30133" lon="3.43263">
        <ele>48</ele>
        <time>2021-07-01T11:22:49.000Z</time>
      </trkpt>
      <trkpt lat="43.30128" lon="3.43275">
        <ele>47</ele>
        <time>2021-07-01T11:22:51.000Z</time>
      </trkpt>
      <trkpt lat="43.30118" lon="3.43297">
        <ele>47</ele>
        <time>2021-07-01T11:22:55.000Z</time>
      </trkpt>
      <trkpt lat="43.3011" lon="3.43313">
        <ele>47</ele>
        <time>2021-07-01T11:22:58.000Z</time>
      </trkpt>
      <trkpt lat="43.30104" lon="3.43324">
        <ele>47</ele>
        <time>2021-07-01T11:23:00.000Z</time>
      </trkpt>
      <trkpt lat="43.30099" lon="3.43334">
        <ele>47</ele>
        <time>2021-07-01T11:23:02.000Z</time>
      </trkpt>
      <trkpt lat="43.30092" lon="3.43345">
        <ele>48</ele>
        <time>2021-07-01T11:23:04.000Z</time>
      </trkpt>
      <trkpt lat="43.30086" lon="3.43355">
        <ele>48</ele>
        <time>2021-07-01T11:23:06.000Z</time>
      </trkpt>
      <trkpt lat="43.3008" lon="3.43366">
        <ele>48</ele>
        <time>2021-07-01T11:23:08.000Z</time>
      </trkpt>
      <trkpt lat="43.30066" lon="3.43386">
        <ele>48</ele>
        <time>2021-07-01T11:23:12.000Z</time>
      </trkpt>
      <trkpt lat="43.3006" lon="3.43395">
        <ele>48</ele>
        <time>2021-07-01T11:23:14.000Z</time>
      </trkpt>
      <trkpt lat="43.30052" lon="3.43403">
        <ele>48</ele>
        <time>2021-07-01T11:23:16.000Z</time>
      </trkpt>
      <trkpt lat="43.30045" lon="3.43412">
        <ele>48</ele>
        <time>2021-07-01T11:23:18.000Z</time>
      </trkpt>
      <trkpt lat="43.30038" lon="3.43421">
        <ele>48</ele>
        <time>2021-07-01T11:23:20.000Z</time>
      </trkpt>
      <trkpt lat="43.3003" lon="3.43432">
        <ele>47</ele>
        <time>2021-07-01T11:23:22.000Z</time>
      </trkpt>
      <trkpt lat="43.30025" lon="3.43443">
        <ele>48</ele>
        <time>2021-07-01T11:23:24.000Z</time>
      </trkpt>
      <trkpt lat="43.3002" lon="3.43454">
        <ele>47</ele>
        <time>2021-07-01T11:23:26.000Z</time>
      </trkpt>
      <trkpt lat="43.30015" lon="3.43466">
        <ele>47</ele>
        <time>2021-07-01T11:23:28.000Z</time>
      </trkpt>
      <trkpt lat="43.30006" lon="3.43481">
        <ele>46</ele>
        <time>2021-07-01T11:23:31.000Z</time>
      </trkpt>
      <trkpt lat="43.29999" lon="3.43491">
        <ele>47</ele>
        <time>2021-07-01T11:23:33.000Z</time>
      </trkpt>
      <trkpt lat="43.29993" lon="3.43502">
        <ele>47</ele>
        <time>2021-07-01T11:23:35.000Z</time>
      </trkpt>
      <trkpt lat="43.29986" lon="3.43513">
        <ele>47</ele>
        <time>2021-07-01T11:23:37.000Z</time>
      </trkpt>
      <trkpt lat="43.29979" lon="3.43521">
        <ele>48</ele>
        <time>2021-07-01T11:23:39.000Z</time>
      </trkpt>
      <trkpt lat="43.29971" lon="3.43536">
        <ele>48</ele>
        <time>2021-07-01T11:23:42.000Z</time>
      </trkpt>
      <trkpt lat="43.29961" lon="3.43551">
        <ele>48</ele>
        <time>2021-07-01T11:23:45.000Z</time>
      </trkpt>
      <trkpt lat="43.29955" lon="3.43562">
        <ele>47</ele>
        <time>2021-07-01T11:23:47.000Z</time>
      </trkpt>
      <trkpt lat="43.29949" lon="3.43572">
        <ele>47</ele>
        <time>2021-07-01T11:23:49.000Z</time>
      </trkpt>
      <trkpt lat="43.29942" lon="3.43583">
        <ele>47</ele>
        <time>2021-07-01T11:23:51.000Z</time>
      </trkpt>
      <trkpt lat="43.29933" lon="3.43599">
        <ele>45</ele>
        <time>2021-07-01T11:23:54.000Z</time>
      </trkpt>
      <trkpt lat="43.29925" lon="3.43613">
        <ele>44</ele>
        <time>2021-07-01T11:23:57.000Z</time>
      </trkpt>
      <trkpt lat="43.29917" lon="3.43623">
        <ele>45</ele>
        <time>2021-07-01T11:23:59.000Z</time>
      </trkpt>
      <trkpt lat="43.2991" lon="3.43634">
        <ele>45</ele>
        <time>2021-07-01T11:24:01.000Z</time>
      </trkpt>
      <trkpt lat="43.29903" lon="3.43645">
        <ele>44</ele>
        <time>2021-07-01T11:24:03.000Z</time>
      </trkpt>
      <trkpt lat="43.29893" lon="3.43657">
        <ele>44</ele>
        <time>2021-07-01T11:24:06.000Z</time>
      </trkpt>
      <trkpt lat="43.29888" lon="3.4367">
        <ele>45</ele>
        <time>2021-07-01T11:24:08.000Z</time>
      </trkpt>
      <trkpt lat="43.29878" lon="3.43687">
        <ele>42</ele>
        <time>2021-07-01T11:24:11.000Z</time>
      </trkpt>
      <trkpt lat="43.29871" lon="3.43698">
        <ele>43</ele>
        <time>2021-07-01T11:24:14.000Z</time>
      </trkpt>
      <trkpt lat="43.29864" lon="3.4371">
        <ele>44</ele>
        <time>2021-07-01T11:24:16.000Z</time>
      </trkpt>
      <trkpt lat="43.29854" lon="3.43727">
        <ele>45</ele>
        <time>2021-07-01T11:24:19.000Z</time>
      </trkpt>
      <trkpt lat="43.29846" lon="3.43737">
        <ele>45</ele>
        <time>2021-07-01T11:24:21.000Z</time>
      </trkpt>
      <trkpt lat="43.29839" lon="3.43749">
        <ele>45</ele>
        <time>2021-07-01T11:24:23.000Z</time>
      </trkpt>
      <trkpt lat="43.29832" lon="3.43758">
        <ele>46</ele>
        <time>2021-07-01T11:24:25.000Z</time>
      </trkpt>
      <trkpt lat="43.29826" lon="3.43767">
        <ele>48</ele>
        <time>2021-07-01T11:24:27.000Z</time>
      </trkpt>
      <trkpt lat="43.2982" lon="3.43777">
        <ele>47</ele>
        <time>2021-07-01T11:24:29.000Z</time>
      </trkpt>
      <trkpt lat="43.29813" lon="3.43787">
        <ele>48</ele>
        <time>2021-07-01T11:24:31.000Z</time>
      </trkpt>
      <trkpt lat="43.29805" lon="3.43796">
        <ele>48</ele>
        <time>2021-07-01T11:24:33.000Z</time>
      </trkpt>
      <trkpt lat="43.29798" lon="3.43805">
        <ele>48</ele>
        <time>2021-07-01T11:24:35.000Z</time>
      </trkpt>
      <trkpt lat="43.29791" lon="3.43814">
        <ele>48</ele>
        <time>2021-07-01T11:24:37.000Z</time>
      </trkpt>
      <trkpt lat="43.29784" lon="3.43823">
        <ele>48</ele>
        <time>2021-07-01T11:24:39.000Z</time>
      </trkpt>
      <trkpt lat="43.29778" lon="3.43833">
        <ele>47</ele>
        <time>2021-07-01T11:24:41.000Z</time>
      </trkpt>
      <trkpt lat="43.2978" lon="3.43856">
        <ele>48</ele>
        <time>2021-07-01T11:24:45.000Z</time>
      </trkpt>
      <trkpt lat="43.29785" lon="3.43868">
        <ele>47</ele>
        <time>2021-07-01T11:24:47.000Z</time>
      </trkpt>
      <trkpt lat="43.2979" lon="3.43879">
        <ele>48</ele>
        <time>2021-07-01T11:24:49.000Z</time>
      </trkpt>
      <trkpt lat="43.29796" lon="3.4389">
        <ele>48</ele>
        <time>2021-07-01T11:24:51.000Z</time>
      </trkpt>
      <trkpt lat="43.29801" lon="3.43909">
        <ele>48</ele>
        <time>2021-07-01T11:24:54.000Z</time>
      </trkpt>
      <trkpt lat="43.29801" lon="3.43923">
        <ele>48</ele>
        <time>2021-07-01T11:24:56.000Z</time>
      </trkpt>
      <trkpt lat="43.29801" lon="3.43936">
        <ele>48</ele>
        <time>2021-07-01T11:24:58.000Z</time>
      </trkpt>
      <trkpt lat="43.29802" lon="3.4395">
        <ele>47</ele>
        <time>2021-07-01T11:25:00.000Z</time>
      </trkpt>
      <trkpt lat="43.29807" lon="3.4397">
        <ele>46</ele>
        <time>2021-07-01T11:25:03.000Z</time>
      </trkpt>
      <trkpt lat="43.29812" lon="3.43982">
        <ele>46</ele>
        <time>2021-07-01T11:25:05.000Z</time>
      </trkpt>
      <trkpt lat="43.29815" lon="3.43996">
        <ele>46</ele>
        <time>2021-07-01T11:25:07.000Z</time>
      </trkpt>
      <trkpt lat="43.29819" lon="3.4401">
        <ele>46</ele>
        <time>2021-07-01T11:25:09.000Z</time>
      </trkpt>
      <trkpt lat="43.29826" lon="3.4403">
        <ele>46</ele>
        <time>2021-07-01T11:25:12.000Z</time>
      </trkpt>
      <trkpt lat="43.2983" lon="3.44042">
        <ele>46</ele>
        <time>2021-07-01T11:25:14.000Z</time>
      </trkpt>
      <trkpt lat="43.29834" lon="3.44055">
        <ele>46</ele>
        <time>2021-07-01T11:25:16.000Z</time>
      </trkpt>
      <trkpt lat="43.29837" lon="3.44069">
        <ele>46</ele>
        <time>2021-07-01T11:25:18.000Z</time>
      </trkpt>
      <trkpt lat="43.2984" lon="3.44084">
        <ele>45</ele>
        <time>2021-07-01T11:25:20.000Z</time>
      </trkpt>
      <trkpt lat="43.29844" lon="3.44098">
        <ele>45</ele>
        <time>2021-07-01T11:25:22.000Z</time>
      </trkpt>
      <trkpt lat="43.29845" lon="3.44112">
        <ele>45</ele>
        <time>2021-07-01T11:25:24.000Z</time>
      </trkpt>
      <trkpt lat="43.29847" lon="3.44131">
        <ele>46</ele>
        <time>2021-07-01T11:25:27.000Z</time>
      </trkpt>
      <trkpt lat="43.29849" lon="3.44145">
        <ele>46</ele>
        <time>2021-07-01T11:25:29.000Z</time>
      </trkpt>
      <trkpt lat="43.29851" lon="3.44158">
        <ele>46</ele>
        <time>2021-07-01T11:25:31.000Z</time>
      </trkpt>
      <trkpt lat="43.29852" lon="3.44171">
        <ele>46</ele>
        <time>2021-07-01T11:25:33.000Z</time>
      </trkpt>
      <trkpt lat="43.29854" lon="3.44185">
        <ele>46</ele>
        <time>2021-07-01T11:25:35.000Z</time>
      </trkpt>
      <trkpt lat="43.29858" lon="3.44199">
        <ele>46</ele>
        <time>2021-07-01T11:25:37.000Z</time>
      </trkpt>
      <trkpt lat="43.29863" lon="3.44211">
        <ele>45</ele>
        <time>2021-07-01T11:25:39.000Z</time>
      </trkpt>
      <trkpt lat="43.29868" lon="3.44224">
        <ele>45</ele>
        <time>2021-07-01T11:25:41.000Z</time>
      </trkpt>
      <trkpt lat="43.29873" lon="3.44236">
        <ele>45</ele>
        <time>2021-07-01T11:25:43.000Z</time>
      </trkpt>
      <trkpt lat="43.29878" lon="3.44249">
        <ele>45</ele>
        <time>2021-07-01T11:25:46.000Z</time>
      </trkpt>
      <trkpt lat="43.29886" lon="3.44257">
        <ele>46</ele>
        <time>2021-07-01T11:25:49.000Z</time>
      </trkpt>
      <trkpt lat="43.29896" lon="3.44262">
        <ele>47</ele>
        <time>2021-07-01T11:25:52.000Z</time>
      </trkpt>
      <trkpt lat="43.29903" lon="3.44276">
        <ele>45</ele>
        <time>2021-07-01T11:25:55.000Z</time>
      </trkpt>
      <trkpt lat="43.29907" lon="3.44291">
        <ele>45</ele>
        <time>2021-07-01T11:25:58.000Z</time>
      </trkpt>
      <trkpt lat="43.2991" lon="3.44304">
        <ele>45</ele>
        <time>2021-07-01T11:26:00.000Z</time>
      </trkpt>
      <trkpt lat="43.29914" lon="3.44329">
        <ele>43</ele>
        <time>2021-07-01T11:26:04.000Z</time>
      </trkpt>
      <trkpt lat="43.29917" lon="3.44342">
        <ele>45</ele>
        <time>2021-07-01T11:26:06.000Z</time>
      </trkpt>
      <trkpt lat="43.29922" lon="3.44359">
        <ele>45</ele>
        <time>2021-07-01T11:26:09.000Z</time>
      </trkpt>
      <trkpt lat="43.29928" lon="3.44376">
        <ele>45</ele>
        <time>2021-07-01T11:26:12.000Z</time>
      </trkpt>
      <trkpt lat="43.29932" lon="3.44389">
        <ele>44</ele>
        <time>2021-07-01T11:26:14.000Z</time>
      </trkpt>
      <trkpt lat="43.29936" lon="3.44406">
        <ele>44</ele>
        <time>2021-07-01T11:26:17.000Z</time>
      </trkpt>
      <trkpt lat="43.29939" lon="3.44418">
        <ele>44</ele>
        <time>2021-07-01T11:26:19.000Z</time>
      </trkpt>
      <trkpt lat="43.29944" lon="3.4443">
        <ele>43</ele>
        <time>2021-07-01T11:26:21.000Z</time>
      </trkpt>
      <trkpt lat="43.29949" lon="3.44442">
        <ele>43</ele>
        <time>2021-07-01T11:26:23.000Z</time>
      </trkpt>
      <trkpt lat="43.29953" lon="3.44454">
        <ele>44</ele>
        <time>2021-07-01T11:26:25.000Z</time>
      </trkpt>
      <trkpt lat="43.29957" lon="3.44467">
        <ele>44</ele>
        <time>2021-07-01T11:26:27.000Z</time>
      </trkpt>
      <trkpt lat="43.29961" lon="3.44479">
        <ele>44</ele>
        <time>2021-07-01T11:26:29.000Z</time>
      </trkpt>
      <trkpt lat="43.29966" lon="3.44491">
        <ele>44</ele>
        <time>2021-07-01T11:26:31.000Z</time>
      </trkpt>
      <trkpt lat="43.2997" lon="3.44502">
        <ele>44</ele>
        <time>2021-07-01T11:26:33.000Z</time>
      </trkpt>
      <trkpt lat="43.29975" lon="3.44515">
        <ele>45</ele>
        <time>2021-07-01T11:26:35.000Z</time>
      </trkpt>
      <trkpt lat="43.29981" lon="3.44526">
        <ele>45</ele>
        <time>2021-07-01T11:26:37.000Z</time>
      </trkpt>
      <trkpt lat="43.29987" lon="3.44537">
        <ele>45</ele>
        <time>2021-07-01T11:26:39.000Z</time>
      </trkpt>
      <trkpt lat="43.29993" lon="3.44547">
        <ele>45</ele>
        <time>2021-07-01T11:26:41.000Z</time>
      </trkpt>
      <trkpt lat="43.29999" lon="3.44557">
        <ele>45</ele>
        <time>2021-07-01T11:26:43.000Z</time>
      </trkpt>
      <trkpt lat="43.30006" lon="3.44566">
        <ele>46</ele>
        <time>2021-07-01T11:26:45.000Z</time>
      </trkpt>
      <trkpt lat="43.30015" lon="3.4458">
        <ele>47</ele>
        <time>2021-07-01T11:26:48.000Z</time>
      </trkpt>
      <trkpt lat="43.30021" lon="3.4459">
        <ele>46</ele>
        <time>2021-07-01T11:26:50.000Z</time>
      </trkpt>
      <trkpt lat="43.30029" lon="3.44601">
        <ele>46</ele>
        <time>2021-07-01T11:26:52.000Z</time>
      </trkpt>
      <trkpt lat="43.30039" lon="3.44616">
        <ele>47</ele>
        <time>2021-07-01T11:26:55.000Z</time>
      </trkpt>
      <trkpt lat="43.30045" lon="3.44626">
        <ele>46</ele>
        <time>2021-07-01T11:26:57.000Z</time>
      </trkpt>
      <trkpt lat="43.3005" lon="3.44637">
        <ele>45</ele>
        <time>2021-07-01T11:26:59.000Z</time>
      </trkpt>
      <trkpt lat="43.30056" lon="3.44656">
        <ele>45</ele>
        <time>2021-07-01T11:27:02.000Z</time>
      </trkpt>
      <trkpt lat="43.30059" lon="3.44669">
        <ele>44</ele>
        <time>2021-07-01T11:27:04.000Z</time>
      </trkpt>
      <trkpt lat="43.30062" lon="3.44682">
        <ele>44</ele>
        <time>2021-07-01T11:27:06.000Z</time>
      </trkpt>
      <trkpt lat="43.30064" lon="3.44697">
        <ele>45</ele>
        <time>2021-07-01T11:27:08.000Z</time>
      </trkpt>
      <trkpt lat="43.30065" lon="3.4471">
        <ele>45</ele>
        <time>2021-07-01T11:27:10.000Z</time>
      </trkpt>
      <trkpt lat="43.30067" lon="3.44724">
        <ele>45</ele>
        <time>2021-07-01T11:27:12.000Z</time>
      </trkpt>
      <trkpt lat="43.30069" lon="3.44736">
        <ele>44</ele>
        <time>2021-07-01T11:27:14.000Z</time>
      </trkpt>
      <trkpt lat="43.3007" lon="3.44749">
        <ele>46</ele>
        <time>2021-07-01T11:27:16.000Z</time>
      </trkpt>
      <trkpt lat="43.30072" lon="3.44762">
        <ele>46</ele>
        <time>2021-07-01T11:27:18.000Z</time>
      </trkpt>
      <trkpt lat="43.30074" lon="3.44776">
        <ele>45</ele>
        <time>2021-07-01T11:27:20.000Z</time>
      </trkpt>
      <trkpt lat="43.30076" lon="3.4479">
        <ele>45</ele>
        <time>2021-07-01T11:27:22.000Z</time>
      </trkpt>
      <trkpt lat="43.3008" lon="3.44803">
        <ele>46</ele>
        <time>2021-07-01T11:27:24.000Z</time>
      </trkpt>
      <trkpt lat="43.30081" lon="3.44817">
        <ele>46</ele>
        <time>2021-07-01T11:27:26.000Z</time>
      </trkpt>
      <trkpt lat="43.30083" lon="3.44831">
        <ele>46</ele>
        <time>2021-07-01T11:27:28.000Z</time>
      </trkpt>
      <trkpt lat="43.30085" lon="3.44846">
        <ele>46</ele>
        <time>2021-07-01T11:27:30.000Z</time>
      </trkpt>
      <trkpt lat="43.30087" lon="3.4486">
        <ele>46</ele>
        <time>2021-07-01T11:27:32.000Z</time>
      </trkpt>
      <trkpt lat="43.30088" lon="3.44873">
        <ele>46</ele>
        <time>2021-07-01T11:27:34.000Z</time>
      </trkpt>
      <trkpt lat="43.3009" lon="3.44886">
        <ele>46</ele>
        <time>2021-07-01T11:27:36.000Z</time>
      </trkpt>
      <trkpt lat="43.30093" lon="3.44899">
        <ele>46</ele>
        <time>2021-07-01T11:27:38.000Z</time>
      </trkpt>
      <trkpt lat="43.30095" lon="3.44914">
        <ele>45</ele>
        <time>2021-07-01T11:27:40.000Z</time>
      </trkpt>
      <trkpt lat="43.30097" lon="3.44927">
        <ele>46</ele>
        <time>2021-07-01T11:27:42.000Z</time>
      </trkpt>
      <trkpt lat="43.30099" lon="3.44939">
        <ele>46</ele>
        <time>2021-07-01T11:27:44.000Z</time>
      </trkpt>
      <trkpt lat="43.30102" lon="3.44953">
        <ele>45</ele>
        <time>2021-07-01T11:27:46.000Z</time>
      </trkpt>
      <trkpt lat="43.30105" lon="3.44966">
        <ele>45</ele>
        <time>2021-07-01T11:27:48.000Z</time>
      </trkpt>
      <trkpt lat="43.30108" lon="3.44978">
        <ele>44</ele>
        <time>2021-07-01T11:27:50.000Z</time>
      </trkpt>
      <trkpt lat="43.3011" lon="3.44991">
        <ele>45</ele>
        <time>2021-07-01T11:27:52.000Z</time>
      </trkpt>
      <trkpt lat="43.30113" lon="3.45011">
        <ele>45</ele>
        <time>2021-07-01T11:27:55.000Z</time>
      </trkpt>
      <trkpt lat="43.30117" lon="3.45026">
        <ele>44</ele>
        <time>2021-07-01T11:27:57.000Z</time>
      </trkpt>
      <trkpt lat="43.3012" lon="3.45038">
        <ele>45</ele>
        <time>2021-07-01T11:27:59.000Z</time>
      </trkpt>
      <trkpt lat="43.30123" lon="3.45052">
        <ele>45</ele>
        <time>2021-07-01T11:28:01.000Z</time>
      </trkpt>
      <trkpt lat="43.30127" lon="3.45072">
        <ele>44</ele>
        <time>2021-07-01T11:28:04.000Z</time>
      </trkpt>
      <trkpt lat="43.30129" lon="3.45084">
        <ele>45</ele>
        <time>2021-07-01T11:28:06.000Z</time>
      </trkpt>
      <trkpt lat="43.30131" lon="3.45098">
        <ele>45</ele>
        <time>2021-07-01T11:28:08.000Z</time>
      </trkpt>
      <trkpt lat="43.30134" lon="3.45112">
        <ele>45</ele>
        <time>2021-07-01T11:28:10.000Z</time>
      </trkpt>
      <trkpt lat="43.30136" lon="3.45125">
        <ele>45</ele>
        <time>2021-07-01T11:28:12.000Z</time>
      </trkpt>
      <trkpt lat="43.30139" lon="3.45138">
        <ele>45</ele>
        <time>2021-07-01T11:28:14.000Z</time>
      </trkpt>
      <trkpt lat="43.30141" lon="3.45152">
        <ele>44</ele>
        <time>2021-07-01T11:28:16.000Z</time>
      </trkpt>
      <trkpt lat="43.30143" lon="3.45165">
        <ele>44</ele>
        <time>2021-07-01T11:28:18.000Z</time>
      </trkpt>
      <trkpt lat="43.30145" lon="3.45179">
        <ele>45</ele>
        <time>2021-07-01T11:28:20.000Z</time>
      </trkpt>
      <trkpt lat="43.30148" lon="3.45192">
        <ele>45</ele>
        <time>2021-07-01T11:28:22.000Z</time>
      </trkpt>
      <trkpt lat="43.3015" lon="3.45205">
        <ele>45</ele>
        <time>2021-07-01T11:28:24.000Z</time>
      </trkpt>
      <trkpt lat="43.30152" lon="3.45218">
        <ele>45</ele>
        <time>2021-07-01T11:28:26.000Z</time>
      </trkpt>
      <trkpt lat="43.30155" lon="3.45231">
        <ele>45</ele>
        <time>2021-07-01T11:28:28.000Z</time>
      </trkpt>
      <trkpt lat="43.30158" lon="3.45244">
        <ele>45</ele>
        <time>2021-07-01T11:28:30.000Z</time>
      </trkpt>
      <trkpt lat="43.3016" lon="3.45257">
        <ele>44</ele>
        <time>2021-07-01T11:28:32.000Z</time>
      </trkpt>
      <trkpt lat="43.30164" lon="3.4527">
        <ele>44</ele>
        <time>2021-07-01T11:28:34.000Z</time>
      </trkpt>
      <trkpt lat="43.30167" lon="3.45283">
        <ele>44</ele>
        <time>2021-07-01T11:28:36.000Z</time>
      </trkpt>
      <trkpt lat="43.3017" lon="3.45296">
        <ele>45</ele>
        <time>2021-07-01T11:28:38.000Z</time>
      </trkpt>
      <trkpt lat="43.30174" lon="3.45308">
        <ele>44</ele>
        <time>2021-07-01T11:28:40.000Z</time>
      </trkpt>
      <trkpt lat="43.30178" lon="3.45321">
        <ele>45</ele>
        <time>2021-07-01T11:28:42.000Z</time>
      </trkpt>
      <trkpt lat="43.30181" lon="3.45334">
        <ele>45</ele>
        <time>2021-07-01T11:28:44.000Z</time>
      </trkpt>
      <trkpt lat="43.30186" lon="3.45348">
        <ele>44</ele>
        <time>2021-07-01T11:28:46.000Z</time>
      </trkpt>
      <trkpt lat="43.30189" lon="3.45362">
        <ele>43</ele>
        <time>2021-07-01T11:28:48.000Z</time>
      </trkpt>
      <trkpt lat="43.30192" lon="3.45374">
        <ele>44</ele>
        <time>2021-07-01T11:28:50.000Z</time>
      </trkpt>
      <trkpt lat="43.30197" lon="3.45386">
        <ele>45</ele>
        <time>2021-07-01T11:28:52.000Z</time>
      </trkpt>
      <trkpt lat="43.30205" lon="3.45407">
        <ele>45</ele>
        <time>2021-07-01T11:28:56.000Z</time>
      </trkpt>
      <trkpt lat="43.30209" lon="3.45419">
        <ele>45</ele>
        <time>2021-07-01T11:28:58.000Z</time>
      </trkpt>
      <trkpt lat="43.30214" lon="3.45435">
        <ele>45</ele>
        <time>2021-07-01T11:29:01.000Z</time>
      </trkpt>
      <trkpt lat="43.3022" lon="3.45449">
        <ele>45</ele>
        <time>2021-07-01T11:29:04.000Z</time>
      </trkpt>
      <trkpt lat="43.30224" lon="3.4546">
        <ele>45</ele>
        <time>2021-07-01T11:29:07.000Z</time>
      </trkpt>
      <trkpt lat="43.30227" lon="3.45473">
        <ele>45</ele>
        <time>2021-07-01T11:29:13.000Z</time>
      </trkpt>
      <trkpt lat="43.30231" lon="3.45484">
        <ele>44</ele>
        <time>2021-07-01T11:29:16.000Z</time>
      </trkpt>
      <trkpt lat="43.30238" lon="3.45499">
        <ele>45</ele>
        <time>2021-07-01T11:29:19.000Z</time>
      </trkpt>
      <trkpt lat="43.30243" lon="3.45514">
        <ele>44</ele>
        <time>2021-07-01T11:29:22.000Z</time>
      </trkpt>
      <trkpt lat="43.3025" lon="3.4553">
        <ele>44</ele>
        <time>2021-07-01T11:29:25.000Z</time>
      </trkpt>
      <trkpt lat="43.30254" lon="3.45542">
        <ele>44</ele>
        <time>2021-07-01T11:29:27.000Z</time>
      </trkpt>
      <trkpt lat="43.30258" lon="3.45553">
        <ele>43</ele>
        <time>2021-07-01T11:29:29.000Z</time>
      </trkpt>
      <trkpt lat="43.30263" lon="3.45563">
        <ele>42</ele>
        <time>2021-07-01T11:29:31.000Z</time>
      </trkpt>
      <trkpt lat="43.30269" lon="3.45577">
        <ele>43</ele>
        <time>2021-07-01T11:29:34.000Z</time>
      </trkpt>
      <trkpt lat="43.30277" lon="3.45602">
        <ele>43</ele>
        <time>2021-07-01T11:29:39.000Z</time>
      </trkpt>
      <trkpt lat="43.30284" lon="3.45615">
        <ele>45</ele>
        <time>2021-07-01T11:29:42.000Z</time>
      </trkpt>
      <trkpt lat="43.30297" lon="3.45627">
        <ele>45</ele>
        <time>2021-07-01T11:29:46.000Z</time>
      </trkpt>
      <trkpt lat="43.30305" lon="3.45634">
        <ele>45</ele>
        <time>2021-07-01T11:29:50.000Z</time>
      </trkpt>
      <trkpt lat="43.30295" lon="3.45627">
        <ele>46</ele>
        <time>2021-07-01T11:30:08.000Z</time>
      </trkpt>
      <trkpt lat="43.30287" lon="3.4562">
        <ele>46</ele>
        <time>2021-07-01T11:30:11.000Z</time>
      </trkpt>
      <trkpt lat="43.3028" lon="3.45608">
        <ele>45</ele>
        <time>2021-07-01T11:30:15.000Z</time>
      </trkpt>
      <trkpt lat="43.30275" lon="3.45593">
        <ele>46</ele>
        <time>2021-07-01T11:30:18.000Z</time>
      </trkpt>
      <trkpt lat="43.30269" lon="3.45579">
        <ele>46</ele>
        <time>2021-07-01T11:30:21.000Z</time>
      </trkpt>
      <trkpt lat="43.30264" lon="3.45564">
        <ele>45</ele>
        <time>2021-07-01T11:30:24.000Z</time>
      </trkpt>
      <trkpt lat="43.30257" lon="3.4555">
        <ele>46</ele>
        <time>2021-07-01T11:30:27.000Z</time>
      </trkpt>
      <trkpt lat="43.30252" lon="3.45534">
        <ele>45</ele>
        <time>2021-07-01T11:30:30.000Z</time>
      </trkpt>
      <trkpt lat="43.30246" lon="3.45519">
        <ele>45</ele>
        <time>2021-07-01T11:30:33.000Z</time>
      </trkpt>
      <trkpt lat="43.30241" lon="3.45507">
        <ele>46</ele>
        <time>2021-07-01T11:30:36.000Z</time>
      </trkpt>
      <trkpt lat="43.30236" lon="3.45495">
        <ele>45</ele>
        <time>2021-07-01T11:30:39.000Z</time>
      </trkpt>
      <trkpt lat="43.30245" lon="3.4549">
        <ele>46</ele>
        <time>2021-07-01T11:30:43.000Z</time>
      </trkpt>
      <trkpt lat="43.30258" lon="3.45494">
        <ele>47</ele>
        <time>2021-07-01T11:30:46.000Z</time>
      </trkpt>
      <trkpt lat="43.30266" lon="3.45499">
        <ele>47</ele>
        <time>2021-07-01T11:30:48.000Z</time>
      </trkpt>
      <trkpt lat="43.30278" lon="3.45504">
        <ele>47</ele>
        <time>2021-07-01T11:30:51.000Z</time>
      </trkpt>
      <trkpt lat="43.30295" lon="3.45511">
        <ele>47</ele>
        <time>2021-07-01T11:30:55.000Z</time>
      </trkpt>
      <trkpt lat="43.30307" lon="3.45517">
        <ele>45</ele>
        <time>2021-07-01T11:30:58.000Z</time>
      </trkpt>
      <trkpt lat="43.30319" lon="3.45525">
        <ele>46</ele>
        <time>2021-07-01T11:31:01.000Z</time>
      </trkpt>
      <trkpt lat="43.30327" lon="3.4553">
        <ele>46</ele>
        <time>2021-07-01T11:31:03.000Z</time>
      </trkpt>
      <trkpt lat="43.30339" lon="3.4554">
        <ele>46</ele>
        <time>2021-07-01T11:31:06.000Z</time>
      </trkpt>
      <trkpt lat="43.30351" lon="3.45546">
        <ele>46</ele>
        <time>2021-07-01T11:31:09.000Z</time>
      </trkpt>
      <trkpt lat="43.30362" lon="3.45555">
        <ele>46</ele>
        <time>2021-07-01T11:31:12.000Z</time>
      </trkpt>
      <trkpt lat="43.3037" lon="3.45561">
        <ele>46</ele>
        <time>2021-07-01T11:31:14.000Z</time>
      </trkpt>
      <trkpt lat="43.30381" lon="3.45572">
        <ele>45</ele>
        <time>2021-07-01T11:31:17.000Z</time>
      </trkpt>
      <trkpt lat="43.30392" lon="3.45584">
        <ele>45</ele>
        <time>2021-07-01T11:31:20.000Z</time>
      </trkpt>
      <trkpt lat="43.30401" lon="3.45591">
        <ele>43</ele>
        <time>2021-07-01T11:31:22.000Z</time>
      </trkpt>
      <trkpt lat="43.3041" lon="3.45599">
        <ele>43</ele>
        <time>2021-07-01T11:31:24.000Z</time>
      </trkpt>
      <trkpt lat="43.30418" lon="3.45607">
        <ele>43</ele>
        <time>2021-07-01T11:31:26.000Z</time>
      </trkpt>
      <trkpt lat="43.30425" lon="3.45615">
        <ele>44</ele>
        <time>2021-07-01T11:31:28.000Z</time>
      </trkpt>
      <trkpt lat="43.30433" lon="3.45625">
        <ele>43</ele>
        <time>2021-07-01T11:31:30.000Z</time>
      </trkpt>
      <trkpt lat="43.3044" lon="3.45633">
        <ele>42</ele>
        <time>2021-07-01T11:31:32.000Z</time>
      </trkpt>
      <trkpt lat="43.30447" lon="3.45644">
        <ele>42</ele>
        <time>2021-07-01T11:31:34.000Z</time>
      </trkpt>
      <trkpt lat="43.30454" lon="3.45654">
        <ele>43</ele>
        <time>2021-07-01T11:31:36.000Z</time>
      </trkpt>
      <trkpt lat="43.30461" lon="3.45664">
        <ele>43</ele>
        <time>2021-07-01T11:31:38.000Z</time>
      </trkpt>
      <trkpt lat="43.30468" lon="3.45674">
        <ele>43</ele>
        <time>2021-07-01T11:31:40.000Z</time>
      </trkpt>
      <trkpt lat="43.30475" lon="3.45684">
        <ele>43</ele>
        <time>2021-07-01T11:31:42.000Z</time>
      </trkpt>
      <trkpt lat="43.30481" lon="3.45695">
        <ele>44</ele>
        <time>2021-07-01T11:31:44.000Z</time>
      </trkpt>
      <trkpt lat="43.30487" lon="3.45706">
        <ele>45</ele>
        <time>2021-07-01T11:31:46.000Z</time>
      </trkpt>
      <trkpt lat="43.30493" lon="3.45716">
        <ele>44</ele>
        <time>2021-07-01T11:31:48.000Z</time>
      </trkpt>
      <trkpt lat="43.30498" lon="3.45727">
        <ele>45</ele>
        <time>2021-07-01T11:31:50.000Z</time>
      </trkpt>
      <trkpt lat="43.30504" lon="3.45738">
        <ele>45</ele>
        <time>2021-07-01T11:31:52.000Z</time>
      </trkpt>
      <trkpt lat="43.3051" lon="3.45749">
        <ele>45</ele>
        <time>2021-07-01T11:31:54.000Z</time>
      </trkpt>
      <trkpt lat="43.30517" lon="3.4576">
        <ele>44</ele>
        <time>2021-07-01T11:31:56.000Z</time>
      </trkpt>
      <trkpt lat="43.30528" lon="3.45757">
        <ele>45</ele>
        <time>2021-07-01T11:32:00.000Z</time>
      </trkpt>
      <trkpt lat="43.30527" lon="3.45742">
        <ele>45</ele>
        <time>2021-07-01T11:32:03.000Z</time>
      </trkpt>
      <trkpt lat="43.30524" lon="3.45727">
        <ele>45</ele>
        <time>2021-07-01T11:32:06.000Z</time>
      </trkpt>
      <trkpt lat="43.30518" lon="3.45714">
        <ele>45</ele>
        <time>2021-07-01T11:32:10.000Z</time>
      </trkpt>
      <trkpt lat="43.30518" lon="3.45702">
        <ele>44</ele>
        <time>2021-07-01T11:32:14.000Z</time>
      </trkpt>
      <trkpt lat="43.30521" lon="3.45715">
        <ele>49</ele>
        <time>2021-07-01T11:35:15.000Z</time>
      </trkpt>
      <trkpt lat="43.30523" lon="3.4573">
        <ele>48</ele>
        <time>2021-07-01T11:35:19.000Z</time>
      </trkpt>
      <trkpt lat="43.30523" lon="3.45746">
        <ele>48</ele>
        <time>2021-07-01T11:35:24.000Z</time>
      </trkpt>
      <trkpt lat="43.30522" lon="3.4576">
        <ele>48</ele>
        <time>2021-07-01T11:35:27.000Z</time>
      </trkpt>
      <trkpt lat="43.30526" lon="3.45775">
        <ele>47</ele>
        <time>2021-07-01T11:35:30.000Z</time>
      </trkpt>
      <trkpt lat="43.30532" lon="3.45788">
        <ele>45</ele>
        <time>2021-07-01T11:35:33.000Z</time>
      </trkpt>
      <trkpt lat="43.30541" lon="3.45802">
        <ele>46</ele>
        <time>2021-07-01T11:35:36.000Z</time>
      </trkpt>
      <trkpt lat="43.30547" lon="3.45813">
        <ele>46</ele>
        <time>2021-07-01T11:35:38.000Z</time>
      </trkpt>
      <trkpt lat="43.30554" lon="3.45824">
        <ele>43</ele>
        <time>2021-07-01T11:35:40.000Z</time>
      </trkpt>
      <trkpt lat="43.3056" lon="3.45836">
        <ele>43</ele>
        <time>2021-07-01T11:35:42.000Z</time>
      </trkpt>
      <trkpt lat="43.30566" lon="3.45849">
        <ele>43</ele>
        <time>2021-07-01T11:35:44.000Z</time>
      </trkpt>
      <trkpt lat="43.30571" lon="3.45859">
        <ele>43</ele>
        <time>2021-07-01T11:35:46.000Z</time>
      </trkpt>
      <trkpt lat="43.30577" lon="3.4587">
        <ele>43</ele>
        <time>2021-07-01T11:35:48.000Z</time>
      </trkpt>
      <trkpt lat="43.30583" lon="3.45882">
        <ele>43</ele>
        <time>2021-07-01T11:35:50.000Z</time>
      </trkpt>
      <trkpt lat="43.30588" lon="3.45892">
        <ele>43</ele>
        <time>2021-07-01T11:35:52.000Z</time>
      </trkpt>
      <trkpt lat="43.30594" lon="3.45903">
        <ele>43</ele>
        <time>2021-07-01T11:35:54.000Z</time>
      </trkpt>
      <trkpt lat="43.30602" lon="3.45919">
        <ele>42</ele>
        <time>2021-07-01T11:35:57.000Z</time>
      </trkpt>
      <trkpt lat="43.30609" lon="3.45931">
        <ele>42</ele>
        <time>2021-07-01T11:35:59.000Z</time>
      </trkpt>
      <trkpt lat="43.30615" lon="3.45942">
        <ele>43</ele>
        <time>2021-07-01T11:36:01.000Z</time>
      </trkpt>
      <trkpt lat="43.30622" lon="3.45952">
        <ele>43</ele>
        <time>2021-07-01T11:36:03.000Z</time>
      </trkpt>
      <trkpt lat="43.30632" lon="3.45967">
        <ele>42</ele>
        <time>2021-07-01T11:36:06.000Z</time>
      </trkpt>
      <trkpt lat="43.30638" lon="3.45979">
        <ele>42</ele>
        <time>2021-07-01T11:36:08.000Z</time>
      </trkpt>
      <trkpt lat="43.30645" lon="3.45988">
        <ele>43</ele>
        <time>2021-07-01T11:36:10.000Z</time>
      </trkpt>
      <trkpt lat="43.30652" lon="3.45999">
        <ele>43</ele>
        <time>2021-07-01T11:36:12.000Z</time>
      </trkpt>
      <trkpt lat="43.30659" lon="3.46009">
        <ele>42</ele>
        <time>2021-07-01T11:36:14.000Z</time>
      </trkpt>
      <trkpt lat="43.30666" lon="3.46019">
        <ele>43</ele>
        <time>2021-07-01T11:36:16.000Z</time>
      </trkpt>
      <trkpt lat="43.30673" lon="3.46029">
        <ele>43</ele>
        <time>2021-07-01T11:36:18.000Z</time>
      </trkpt>
      <trkpt lat="43.30679" lon="3.4604">
        <ele>43</ele>
        <time>2021-07-01T11:36:20.000Z</time>
      </trkpt>
      <trkpt lat="43.3069" lon="3.46056">
        <ele>43</ele>
        <time>2021-07-01T11:36:23.000Z</time>
      </trkpt>
      <trkpt lat="43.30697" lon="3.46067">
        <ele>44</ele>
        <time>2021-07-01T11:36:25.000Z</time>
      </trkpt>
      <trkpt lat="43.30705" lon="3.46078">
        <ele>45</ele>
        <time>2021-07-01T11:36:27.000Z</time>
      </trkpt>
      <trkpt lat="43.30716" lon="3.46093">
        <ele>44</ele>
        <time>2021-07-01T11:36:30.000Z</time>
      </trkpt>
      <trkpt lat="43.30722" lon="3.46103">
        <ele>44</ele>
        <time>2021-07-01T11:36:32.000Z</time>
      </trkpt>
      <trkpt lat="43.30729" lon="3.46114">
        <ele>45</ele>
        <time>2021-07-01T11:36:34.000Z</time>
      </trkpt>
      <trkpt lat="43.30736" lon="3.46124">
        <ele>45</ele>
        <time>2021-07-01T11:36:36.000Z</time>
      </trkpt>
      <trkpt lat="43.30743" lon="3.46135">
        <ele>45</ele>
        <time>2021-07-01T11:36:38.000Z</time>
      </trkpt>
      <trkpt lat="43.30753" lon="3.46151">
        <ele>44</ele>
        <time>2021-07-01T11:36:41.000Z</time>
      </trkpt>
      <trkpt lat="43.30761" lon="3.46161">
        <ele>44</ele>
        <time>2021-07-01T11:36:43.000Z</time>
      </trkpt>
      <trkpt lat="43.30768" lon="3.46172">
        <ele>45</ele>
        <time>2021-07-01T11:36:45.000Z</time>
      </trkpt>
      <trkpt lat="43.30775" lon="3.46182">
        <ele>45</ele>
        <time>2021-07-01T11:36:47.000Z</time>
      </trkpt>
      <trkpt lat="43.30783" lon="3.46193">
        <ele>45</ele>
        <time>2021-07-01T11:36:49.000Z</time>
      </trkpt>
      <trkpt lat="43.30789" lon="3.46204">
        <ele>45</ele>
        <time>2021-07-01T11:36:51.000Z</time>
      </trkpt>
      <trkpt lat="43.30796" lon="3.46214">
        <ele>46</ele>
        <time>2021-07-01T11:36:53.000Z</time>
      </trkpt>
      <trkpt lat="43.30803" lon="3.46225">
        <ele>46</ele>
        <time>2021-07-01T11:36:55.000Z</time>
      </trkpt>
      <trkpt lat="43.30812" lon="3.46234">
        <ele>46</ele>
        <time>2021-07-01T11:36:57.000Z</time>
      </trkpt>
      <trkpt lat="43.30819" lon="3.46245">
        <ele>46</ele>
        <time>2021-07-01T11:36:59.000Z</time>
      </trkpt>
      <trkpt lat="43.30826" lon="3.46256">
        <ele>47</ele>
        <time>2021-07-01T11:37:01.000Z</time>
      </trkpt>
      <trkpt lat="43.30832" lon="3.46267">
        <ele>47</ele>
        <time>2021-07-01T11:37:03.000Z</time>
      </trkpt>
      <trkpt lat="43.30838" lon="3.46277">
        <ele>46</ele>
        <time>2021-07-01T11:37:05.000Z</time>
      </trkpt>
      <trkpt lat="43.30848" lon="3.46291">
        <ele>47</ele>
        <time>2021-07-01T11:37:08.000Z</time>
      </trkpt>
      <trkpt lat="43.30855" lon="3.46303">
        <ele>48</ele>
        <time>2021-07-01T11:37:10.000Z</time>
      </trkpt>
      <trkpt lat="43.30863" lon="3.46314">
        <ele>48</ele>
        <time>2021-07-01T11:37:12.000Z</time>
      </trkpt>
      <trkpt lat="43.30873" lon="3.4633">
        <ele>47</ele>
        <time>2021-07-01T11:37:15.000Z</time>
      </trkpt>
      <trkpt lat="43.30881" lon="3.4634">
        <ele>47</ele>
        <time>2021-07-01T11:37:17.000Z</time>
      </trkpt>
      <trkpt lat="43.30888" lon="3.46349">
        <ele>48</ele>
        <time>2021-07-01T11:37:19.000Z</time>
      </trkpt>
      <trkpt lat="43.30897" lon="3.46358">
        <ele>47</ele>
        <time>2021-07-01T11:37:21.000Z</time>
      </trkpt>
      <trkpt lat="43.30905" lon="3.46366">
        <ele>47</ele>
        <time>2021-07-01T11:37:23.000Z</time>
      </trkpt>
      <trkpt lat="43.30914" lon="3.46373">
        <ele>48</ele>
        <time>2021-07-01T11:37:25.000Z</time>
      </trkpt>
      <trkpt lat="43.30925" lon="3.46377">
        <ele>48</ele>
        <time>2021-07-01T11:37:27.000Z</time>
      </trkpt>
      <trkpt lat="43.30935" lon="3.46382">
        <ele>48</ele>
        <time>2021-07-01T11:37:29.000Z</time>
      </trkpt>
      <trkpt lat="43.30945" lon="3.46386">
        <ele>48</ele>
        <time>2021-07-01T11:37:31.000Z</time>
      </trkpt>
      <trkpt lat="43.30955" lon="3.46389">
        <ele>48</ele>
        <time>2021-07-01T11:37:33.000Z</time>
      </trkpt>
      <trkpt lat="43.30966" lon="3.46392">
        <ele>47</ele>
        <time>2021-07-01T11:37:35.000Z</time>
      </trkpt>
      <trkpt lat="43.30976" lon="3.46394">
        <ele>47</ele>
        <time>2021-07-01T11:37:37.000Z</time>
      </trkpt>
      <trkpt lat="43.30993" lon="3.46397">
        <ele>46</ele>
        <time>2021-07-01T11:37:40.000Z</time>
      </trkpt>
      <trkpt lat="43.31003" lon="3.46399">
        <ele>47</ele>
        <time>2021-07-01T11:37:42.000Z</time>
      </trkpt>
      <trkpt lat="43.31013" lon="3.46401">
        <ele>47</ele>
        <time>2021-07-01T11:37:44.000Z</time>
      </trkpt>
      <trkpt lat="43.31023" lon="3.46404">
        <ele>47</ele>
        <time>2021-07-01T11:37:46.000Z</time>
      </trkpt>
      <trkpt lat="43.31033" lon="3.46406">
        <ele>48</ele>
        <time>2021-07-01T11:37:48.000Z</time>
      </trkpt>
      <trkpt lat="43.31043" lon="3.4641">
        <ele>49</ele>
        <time>2021-07-01T11:37:50.000Z</time>
      </trkpt>
      <trkpt lat="43.31053" lon="3.46414">
        <ele>49</ele>
        <time>2021-07-01T11:37:52.000Z</time>
      </trkpt>
      <trkpt lat="43.31062" lon="3.46418">
        <ele>49</ele>
        <time>2021-07-01T11:37:54.000Z</time>
      </trkpt>
      <trkpt lat="43.31081" lon="3.46432">
        <ele>50</ele>
        <time>2021-07-01T11:37:58.000Z</time>
      </trkpt>
      <trkpt lat="43.31091" lon="3.46437">
        <ele>50</ele>
        <time>2021-07-01T11:38:00.000Z</time>
      </trkpt>
      <trkpt lat="43.311" lon="3.46443">
        <ele>50</ele>
        <time>2021-07-01T11:38:02.000Z</time>
      </trkpt>
      <trkpt lat="43.31113" lon="3.46451">
        <ele>49</ele>
        <time>2021-07-01T11:38:05.000Z</time>
      </trkpt>
      <trkpt lat="43.31125" lon="3.46459">
        <ele>48</ele>
        <time>2021-07-01T11:38:08.000Z</time>
      </trkpt>
      <trkpt lat="43.31134" lon="3.46463">
        <ele>48</ele>
        <time>2021-07-01T11:38:10.000Z</time>
      </trkpt>
      <trkpt lat="43.3115" lon="3.46476">
        <ele>48</ele>
        <time>2021-07-01T11:38:14.000Z</time>
      </trkpt>
      <trkpt lat="43.31159" lon="3.4648">
        <ele>49</ele>
        <time>2021-07-01T11:38:16.000Z</time>
      </trkpt>
      <trkpt lat="43.3117" lon="3.46487">
        <ele>50</ele>
        <time>2021-07-01T11:38:19.000Z</time>
      </trkpt>
      <trkpt lat="43.31181" lon="3.46497">
        <ele>51</ele>
        <time>2021-07-01T11:38:22.000Z</time>
      </trkpt>
      <trkpt lat="43.31193" lon="3.46506">
        <ele>52</ele>
        <time>2021-07-01T11:38:25.000Z</time>
      </trkpt>
      <trkpt lat="43.31202" lon="3.46511">
        <ele>52</ele>
        <time>2021-07-01T11:38:27.000Z</time>
      </trkpt>
      <trkpt lat="43.31213" lon="3.46521">
        <ele>52</ele>
        <time>2021-07-01T11:38:30.000Z</time>
      </trkpt>
      <trkpt lat="43.31222" lon="3.46528">
        <ele>51</ele>
        <time>2021-07-01T11:38:32.000Z</time>
      </trkpt>
      <trkpt lat="43.3123" lon="3.46534">
        <ele>51</ele>
        <time>2021-07-01T11:38:34.000Z</time>
      </trkpt>
      <trkpt lat="43.3124" lon="3.46545">
        <ele>53</ele>
        <time>2021-07-01T11:38:37.000Z</time>
      </trkpt>
      <trkpt lat="43.31248" lon="3.46553">
        <ele>52</ele>
        <time>2021-07-01T11:38:39.000Z</time>
      </trkpt>
      <trkpt lat="43.31258" lon="3.46563">
        <ele>54</ele>
        <time>2021-07-01T11:38:42.000Z</time>
      </trkpt>
      <trkpt lat="43.31266" lon="3.46572">
        <ele>54</ele>
        <time>2021-07-01T11:38:44.000Z</time>
      </trkpt>
      <trkpt lat="43.31273" lon="3.4658">
        <ele>53</ele>
        <time>2021-07-01T11:38:46.000Z</time>
      </trkpt>
      <trkpt lat="43.3128" lon="3.46588">
        <ele>53</ele>
        <time>2021-07-01T11:38:48.000Z</time>
      </trkpt>
      <trkpt lat="43.31291" lon="3.46598">
        <ele>52</ele>
        <time>2021-07-01T11:38:51.000Z</time>
      </trkpt>
      <trkpt lat="43.31299" lon="3.46606">
        <ele>53</ele>
        <time>2021-07-01T11:38:53.000Z</time>
      </trkpt>
      <trkpt lat="43.31311" lon="3.46618">
        <ele>52</ele>
        <time>2021-07-01T11:38:56.000Z</time>
      </trkpt>
      <trkpt lat="43.31322" lon="3.46629">
        <ele>49</ele>
        <time>2021-07-01T11:39:00.000Z</time>
      </trkpt>
      <trkpt lat="43.31333" lon="3.4664">
        <ele>51</ele>
        <time>2021-07-01T11:39:02.000Z</time>
      </trkpt>
      <trkpt lat="43.31346" lon="3.46652">
        <ele>51</ele>
        <time>2021-07-01T11:39:05.000Z</time>
      </trkpt>
      <trkpt lat="43.31355" lon="3.46658">
        <ele>49</ele>
        <time>2021-07-01T11:39:07.000Z</time>
      </trkpt>
      <trkpt lat="43.31362" lon="3.46668">
        <ele>49</ele>
        <time>2021-07-01T11:39:09.000Z</time>
      </trkpt>
      <trkpt lat="43.3137" lon="3.46675">
        <ele>49</ele>
        <time>2021-07-01T11:39:11.000Z</time>
      </trkpt>
      <trkpt lat="43.31378" lon="3.46682">
        <ele>49</ele>
        <time>2021-07-01T11:39:13.000Z</time>
      </trkpt>
      <trkpt lat="43.31389" lon="3.46688">
        <ele>48</ele>
        <time>2021-07-01T11:39:16.000Z</time>
      </trkpt>
      <trkpt lat="43.31397" lon="3.46698">
        <ele>47</ele>
        <time>2021-07-01T11:39:18.000Z</time>
      </trkpt>
      <trkpt lat="43.31405" lon="3.46707">
        <ele>48</ele>
        <time>2021-07-01T11:39:20.000Z</time>
      </trkpt>
      <trkpt lat="43.31413" lon="3.46716">
        <ele>47</ele>
        <time>2021-07-01T11:39:22.000Z</time>
      </trkpt>
      <trkpt lat="43.31421" lon="3.46724">
        <ele>47</ele>
        <time>2021-07-01T11:39:24.000Z</time>
      </trkpt>
      <trkpt lat="43.31427" lon="3.46735">
        <ele>48</ele>
        <time>2021-07-01T11:39:26.000Z</time>
      </trkpt>
      <trkpt lat="43.31436" lon="3.46748">
        <ele>49</ele>
        <time>2021-07-01T11:39:29.000Z</time>
      </trkpt>
      <trkpt lat="43.31443" lon="3.46755">
        <ele>47</ele>
        <time>2021-07-01T11:39:31.000Z</time>
      </trkpt>
      <trkpt lat="43.31452" lon="3.46766">
        <ele>47</ele>
        <time>2021-07-01T11:39:34.000Z</time>
      </trkpt>
      <trkpt lat="43.3146" lon="3.46777">
        <ele>49</ele>
        <time>2021-07-01T11:39:37.000Z</time>
      </trkpt>
      <trkpt lat="43.31468" lon="3.46792">
        <ele>49</ele>
        <time>2021-07-01T11:39:41.000Z</time>
      </trkpt>
      <trkpt lat="43.31476" lon="3.46804">
        <ele>50</ele>
        <time>2021-07-01T11:39:45.000Z</time>
      </trkpt>
      <trkpt lat="43.31487" lon="3.46813">
        <ele>52</ele>
        <time>2021-07-01T11:39:49.000Z</time>
      </trkpt>
      <trkpt lat="43.31495" lon="3.46819">
        <ele>54</ele>
        <time>2021-07-01T11:39:52.000Z</time>
      </trkpt>
      <trkpt lat="43.31504" lon="3.46829">
        <ele>55</ele>
        <time>2021-07-01T11:39:55.000Z</time>
      </trkpt>
      <trkpt lat="43.31511" lon="3.46848">
        <ele>55</ele>
        <time>2021-07-01T11:39:59.000Z</time>
      </trkpt>
      <trkpt lat="43.31513" lon="3.46864">
        <ele>54</ele>
        <time>2021-07-01T11:40:02.000Z</time>
      </trkpt>
      <trkpt lat="43.31507" lon="3.46882">
        <ele>54</ele>
        <time>2021-07-01T11:40:06.000Z</time>
      </trkpt>
      <trkpt lat="43.31502" lon="3.46895">
        <ele>54</ele>
        <time>2021-07-01T11:40:09.000Z</time>
      </trkpt>
      <trkpt lat="43.31497" lon="3.46909">
        <ele>54</ele>
        <time>2021-07-01T11:40:12.000Z</time>
      </trkpt>
      <trkpt lat="43.31492" lon="3.46924">
        <ele>53</ele>
        <time>2021-07-01T11:40:15.000Z</time>
      </trkpt>
      <trkpt lat="43.31486" lon="3.46939">
        <ele>53</ele>
        <time>2021-07-01T11:40:18.000Z</time>
      </trkpt>
      <trkpt lat="43.3148" lon="3.46953">
        <ele>53</ele>
        <time>2021-07-01T11:40:21.000Z</time>
      </trkpt>
      <trkpt lat="43.31475" lon="3.46968">
        <ele>53</ele>
        <time>2021-07-01T11:40:24.000Z</time>
      </trkpt>
      <trkpt lat="43.31474" lon="3.46985">
        <ele>53</ele>
        <time>2021-07-01T11:40:27.000Z</time>
      </trkpt>
      <trkpt lat="43.31478" lon="3.47">
        <ele>51</ele>
        <time>2021-07-01T11:40:29.000Z</time>
      </trkpt>
      <trkpt lat="43.31484" lon="3.47013">
        <ele>50</ele>
        <time>2021-07-01T11:40:31.000Z</time>
      </trkpt>
      <trkpt lat="43.31491" lon="3.47025">
        <ele>49</ele>
        <time>2021-07-01T11:40:33.000Z</time>
      </trkpt>
      <trkpt lat="43.31499" lon="3.47038">
        <ele>49</ele>
        <time>2021-07-01T11:40:35.000Z</time>
      </trkpt>
      <trkpt lat="43.31507" lon="3.47049">
        <ele>49</ele>
        <time>2021-07-01T11:40:37.000Z</time>
      </trkpt>
      <trkpt lat="43.31514" lon="3.4706">
        <ele>49</ele>
        <time>2021-07-01T11:40:39.000Z</time>
      </trkpt>
      <trkpt lat="43.3152" lon="3.47071">
        <ele>49</ele>
        <time>2021-07-01T11:40:41.000Z</time>
      </trkpt>
      <trkpt lat="43.31521" lon="3.47086">
        <ele>48</ele>
        <time>2021-07-01T11:40:45.000Z</time>
      </trkpt>
      <trkpt lat="43.31514" lon="3.47095">
        <ele>48</ele>
        <time>2021-07-01T11:40:49.000Z</time>
      </trkpt>
      <trkpt lat="43.31509" lon="3.47106">
        <ele>48</ele>
        <time>2021-07-01T11:40:55.000Z</time>
      </trkpt>
      <trkpt lat="43.31506" lon="3.47093">
        <ele>49</ele>
        <time>2021-07-01T11:41:02.000Z</time>
      </trkpt>
      <trkpt lat="43.31497" lon="3.4709">
        <ele>47</ele>
        <time>2021-07-01T11:43:00.000Z</time>
      </trkpt>
      <trkpt lat="43.31507" lon="3.47091">
        <ele>47</ele>
        <time>2021-07-01T11:46:44.000Z</time>
      </trkpt>
      <trkpt lat="43.31497" lon="3.4709">
        <ele>49</ele>
        <time>2021-07-01T11:48:18.000Z</time>
      </trkpt>
      <trkpt lat="43.31486" lon="3.47092">
        <ele>42</ele>
        <time>2021-07-01T11:48:52.000Z</time>
      </trkpt>
      <trkpt lat="43.31496" lon="3.47091">
        <ele>44</ele>
        <time>2021-07-01T11:49:42.000Z</time>
      </trkpt>
      <trkpt lat="43.31505" lon="3.47092">
        <ele>48</ele>
        <time>2021-07-01T11:50:54.000Z</time>
      </trkpt>
      <trkpt lat="43.31496" lon="3.47091">
        <ele>45</ele>
        <time>2021-07-01T11:52:44.000Z</time>
      </trkpt>
      <trkpt lat="43.31505" lon="3.47093">
        <ele>50</ele>
        <time>2021-07-01T11:54:36.000Z</time>
      </trkpt>
      <trkpt lat="43.31501" lon="3.47082">
        <ele>47</ele>
        <time>2021-07-01T12:00:19.000Z</time>
      </trkpt>
      <trkpt lat="43.31494" lon="3.47071">
        <ele>51</ele>
        <time>2021-07-01T12:01:24.000Z</time>
      </trkpt>
      <trkpt lat="43.31488" lon="3.47061">
        <ele>51</ele>
        <time>2021-07-01T12:01:28.000Z</time>
      </trkpt>
      <trkpt lat="43.31478" lon="3.47048">
        <ele>52</ele>
        <time>2021-07-01T12:01:34.000Z</time>
      </trkpt>
      <trkpt lat="43.3147" lon="3.47037">
        <ele>52</ele>
        <time>2021-07-01T12:01:38.000Z</time>
      </trkpt>
      <trkpt lat="43.31463" lon="3.47027">
        <ele>55</ele>
        <time>2021-07-01T12:01:44.000Z</time>
      </trkpt>
      <trkpt lat="43.31456" lon="3.47017">
        <ele>56</ele>
        <time>2021-07-01T12:01:49.000Z</time>
      </trkpt>
      <trkpt lat="43.31449" lon="3.47005">
        <ele>55</ele>
        <time>2021-07-01T12:01:53.000Z</time>
      </trkpt>
      <trkpt lat="43.31444" lon="3.46992">
        <ele>54</ele>
        <time>2021-07-01T12:01:57.000Z</time>
      </trkpt>
      <trkpt lat="43.31436" lon="3.46983">
        <ele>54</ele>
        <time>2021-07-01T12:02:03.000Z</time>
      </trkpt>
      <trkpt lat="43.31427" lon="3.46978">
        <ele>55</ele>
        <time>2021-07-01T12:02:08.000Z</time>
      </trkpt>
      <trkpt lat="43.31417" lon="3.46974">
        <ele>53</ele>
        <time>2021-07-01T12:02:11.000Z</time>
      </trkpt>
      <trkpt lat="43.31412" lon="3.46963">
        <ele>53</ele>
        <time>2021-07-01T12:02:17.000Z</time>
      </trkpt>
      <trkpt lat="43.31406" lon="3.46953">
        <ele>51</ele>
        <time>2021-07-01T12:02:29.000Z</time>
      </trkpt>
      <trkpt lat="43.31399" lon="3.46941">
        <ele>53</ele>
        <time>2021-07-01T12:02:34.000Z</time>
      </trkpt>
      <trkpt lat="43.31392" lon="3.46929">
        <ele>55</ele>
        <time>2021-07-01T12:02:40.000Z</time>
      </trkpt>
      <trkpt lat="43.31386" lon="3.46915">
        <ele>55</ele>
        <time>2021-07-01T12:02:46.000Z</time>
      </trkpt>
      <trkpt lat="43.31381" lon="3.46902">
        <ele>54</ele>
        <time>2021-07-01T12:02:51.000Z</time>
      </trkpt>
      <trkpt lat="43.31373" lon="3.46893">
        <ele>54</ele>
        <time>2021-07-01T12:02:56.000Z</time>
      </trkpt>
      <trkpt lat="43.31364" lon="3.46898">
        <ele>55</ele>
        <time>2021-07-01T12:03:09.000Z</time>
      </trkpt>
      <trkpt lat="43.31356" lon="3.46904">
        <ele>56</ele>
        <time>2021-07-01T12:03:24.000Z</time>
      </trkpt>
      <trkpt lat="43.3135" lon="3.46914">
        <ele>57</ele>
        <time>2021-07-01T12:04:42.000Z</time>
      </trkpt>
      <trkpt lat="43.31344" lon="3.46924">
        <ele>58</ele>
        <time>2021-07-01T12:04:46.000Z</time>
      </trkpt>
      <trkpt lat="43.31338" lon="3.46932">
        <ele>60</ele>
        <time>2021-07-01T12:04:50.000Z</time>
      </trkpt>
      <trkpt lat="43.31329" lon="3.46939">
        <ele>60</ele>
        <time>2021-07-01T12:04:56.000Z</time>
      </trkpt>
      <trkpt lat="43.31321" lon="3.46951">
        <ele>59</ele>
        <time>2021-07-01T12:05:41.000Z</time>
      </trkpt>
      <trkpt lat="43.31314" lon="3.46963">
        <ele>58</ele>
        <time>2021-07-01T12:05:45.000Z</time>
      </trkpt>
      <trkpt lat="43.31318" lon="3.46975">
        <ele>59</ele>
        <time>2021-07-01T12:05:49.000Z</time>
      </trkpt>
      <trkpt lat="43.31318" lon="3.46988">
        <ele>59</ele>
        <time>2021-07-01T12:05:54.000Z</time>
      </trkpt>
      <trkpt lat="43.31309" lon="3.46991">
        <ele>59</ele>
        <time>2021-07-01T12:05:59.000Z</time>
      </trkpt>
      <trkpt lat="43.31298" lon="3.46994">
        <ele>60</ele>
        <time>2021-07-01T12:06:08.000Z</time>
      </trkpt>
      <trkpt lat="43.31291" lon="3.47002">
        <ele>62</ele>
        <time>2021-07-01T12:06:17.000Z</time>
      </trkpt>
      <trkpt lat="43.31284" lon="3.47015">
        <ele>60</ele>
        <time>2021-07-01T12:06:23.000Z</time>
      </trkpt>
      <trkpt lat="43.31278" lon="3.47026">
        <ele>60</ele>
        <time>2021-07-01T12:06:27.000Z</time>
      </trkpt>
      <trkpt lat="43.31274" lon="3.47038">
        <ele>59</ele>
        <time>2021-07-01T12:06:31.000Z</time>
      </trkpt>
      <trkpt lat="43.31261" lon="3.4704">
        <ele>60</ele>
        <time>2021-07-01T12:06:38.000Z</time>
      </trkpt>
      <trkpt lat="43.31253" lon="3.47049">
        <ele>62</ele>
        <time>2021-07-01T12:06:51.000Z</time>
      </trkpt>
      <trkpt lat="43.31246" lon="3.4706">
        <ele>61</ele>
        <time>2021-07-01T12:06:57.000Z</time>
      </trkpt>
      <trkpt lat="43.31247" lon="3.47073">
        <ele>63</ele>
        <time>2021-07-01T12:07:04.000Z</time>
      </trkpt>
      <trkpt lat="43.31253" lon="3.47084">
        <ele>64</ele>
        <time>2021-07-01T12:07:11.000Z</time>
      </trkpt>
      <trkpt lat="43.31261" lon="3.47091">
        <ele>62</ele>
        <time>2021-07-01T12:07:17.000Z</time>
      </trkpt>
      <trkpt lat="43.31268" lon="3.47101">
        <ele>63</ele>
        <time>2021-07-01T12:07:23.000Z</time>
      </trkpt>
      <trkpt lat="43.31273" lon="3.47111">
        <ele>64</ele>
        <time>2021-07-01T12:07:31.000Z</time>
      </trkpt>
      <trkpt lat="43.31281" lon="3.47117">
        <ele>65</ele>
        <time>2021-07-01T12:07:37.000Z</time>
      </trkpt>
      <trkpt lat="43.31285" lon="3.4713">
        <ele>62</ele>
        <time>2021-07-01T12:09:02.000Z</time>
      </trkpt>
      <trkpt lat="43.31294" lon="3.47137">
        <ele>54</ele>
        <time>2021-07-01T12:09:59.000Z</time>
      </trkpt>
      <trkpt lat="43.31293" lon="3.47123">
        <ele>59</ele>
        <time>2021-07-01T12:10:16.000Z</time>
      </trkpt>
      <trkpt lat="43.31287" lon="3.47113">
        <ele>64</ele>
        <time>2021-07-01T12:10:22.000Z</time>
      </trkpt>
      <trkpt lat="43.31281" lon="3.47101">
        <ele>66</ele>
        <time>2021-07-01T12:10:28.000Z</time>
      </trkpt>
      <trkpt lat="43.31271" lon="3.47094">
        <ele>67</ele>
        <time>2021-07-01T12:10:33.000Z</time>
      </trkpt>
      <trkpt lat="43.31264" lon="3.47084">
        <ele>67</ele>
        <time>2021-07-01T12:10:38.000Z</time>
      </trkpt>
      <trkpt lat="43.31256" lon="3.47076">
        <ele>67</ele>
        <time>2021-07-01T12:10:42.000Z</time>
      </trkpt>
      <trkpt lat="43.31248" lon="3.47067">
        <ele>67</ele>
        <time>2021-07-01T12:10:47.000Z</time>
      </trkpt>
      <trkpt lat="43.31239" lon="3.4706">
        <ele>65</ele>
        <time>2021-07-01T12:10:51.000Z</time>
      </trkpt>
      <trkpt lat="43.31229" lon="3.4706">
        <ele>64</ele>
        <time>2021-07-01T12:10:55.000Z</time>
      </trkpt>
      <trkpt lat="43.3122" lon="3.47062">
        <ele>64</ele>
        <time>2021-07-01T12:10:59.000Z</time>
      </trkpt>
      <trkpt lat="43.31211" lon="3.47068">
        <ele>64</ele>
        <time>2021-07-01T12:11:04.000Z</time>
      </trkpt>
      <trkpt lat="43.31201" lon="3.47068">
        <ele>64</ele>
        <time>2021-07-01T12:11:09.000Z</time>
      </trkpt>
      <trkpt lat="43.31192" lon="3.47067">
        <ele>64</ele>
        <time>2021-07-01T12:11:16.000Z</time>
      </trkpt>
      <trkpt lat="43.31182" lon="3.47066">
        <ele>66</ele>
        <time>2021-07-01T12:11:22.000Z</time>
      </trkpt>
      <trkpt lat="43.31172" lon="3.47062">
        <ele>68</ele>
        <time>2021-07-01T12:11:28.000Z</time>
      </trkpt>
      <trkpt lat="43.31163" lon="3.47058">
        <ele>68</ele>
        <time>2021-07-01T12:11:32.000Z</time>
      </trkpt>
      <trkpt lat="43.31154" lon="3.47056">
        <ele>68</ele>
        <time>2021-07-01T12:11:37.000Z</time>
      </trkpt>
      <trkpt lat="43.31144" lon="3.47055">
        <ele>67</ele>
        <time>2021-07-01T12:11:41.000Z</time>
      </trkpt>
      <trkpt lat="43.31135" lon="3.47054">
        <ele>66</ele>
        <time>2021-07-01T12:11:45.000Z</time>
      </trkpt>
      <trkpt lat="43.31124" lon="3.47052">
        <ele>65</ele>
        <time>2021-07-01T12:11:50.000Z</time>
      </trkpt>
      <trkpt lat="43.31115" lon="3.4705">
        <ele>66</ele>
        <time>2021-07-01T12:11:54.000Z</time>
      </trkpt>
      <trkpt lat="43.31106" lon="3.47047">
        <ele>63</ele>
        <time>2021-07-01T12:12:01.000Z</time>
      </trkpt>
      <trkpt lat="43.311" lon="3.47033">
        <ele>58</ele>
        <time>2021-07-01T12:12:50.000Z</time>
      </trkpt>
      <trkpt lat="43.31103" lon="3.4702">
        <ele>57</ele>
        <time>2021-07-01T12:12:54.000Z</time>
      </trkpt>
      <trkpt lat="43.31109" lon="3.47009">
        <ele>56</ele>
        <time>2021-07-01T12:13:02.000Z</time>
      </trkpt>
      <trkpt lat="43.31122" lon="3.4701">
        <ele>57</ele>
        <time>2021-07-01T12:13:10.000Z</time>
      </trkpt>
      <trkpt lat="43.31133" lon="3.47013">
        <ele>58</ele>
        <time>2021-07-01T12:13:15.000Z</time>
      </trkpt>
      <trkpt lat="43.31143" lon="3.47012">
        <ele>59</ele>
        <time>2021-07-01T12:13:20.000Z</time>
      </trkpt>
      <trkpt lat="43.31155" lon="3.47011">
        <ele>59</ele>
        <time>2021-07-01T12:13:26.000Z</time>
      </trkpt>
      <trkpt lat="43.31166" lon="3.47016">
        <ele>60</ele>
        <time>2021-07-01T12:13:32.000Z</time>
      </trkpt>
      <trkpt lat="43.31175" lon="3.47021">
        <ele>59</ele>
        <time>2021-07-01T12:13:36.000Z</time>
      </trkpt>
      <trkpt lat="43.31182" lon="3.47033">
        <ele>58</ele>
        <time>2021-07-01T12:13:41.000Z</time>
      </trkpt>
      <trkpt lat="43.31188" lon="3.47042">
        <ele>60</ele>
        <time>2021-07-01T12:13:45.000Z</time>
      </trkpt>
      <trkpt lat="43.31197" lon="3.47042">
        <ele>58</ele>
        <time>2021-07-01T12:13:53.000Z</time>
      </trkpt>
      <trkpt lat="43.31207" lon="3.47043">
        <ele>58</ele>
        <time>2021-07-01T12:13:57.000Z</time>
      </trkpt>
      <trkpt lat="43.31215" lon="3.47049">
        <ele>57</ele>
        <time>2021-07-01T12:14:23.000Z</time>
      </trkpt>
      <trkpt lat="43.31224" lon="3.47049">
        <ele>59</ele>
        <time>2021-07-01T12:19:10.000Z</time>
      </trkpt>
      <trkpt lat="43.31217" lon="3.47058">
        <ele>55</ele>
        <time>2021-07-01T12:23:12.000Z</time>
      </trkpt>
      <trkpt lat="43.31209" lon="3.47065">
        <ele>59</ele>
        <time>2021-07-01T12:23:19.000Z</time>
      </trkpt>
      <trkpt lat="43.31199" lon="3.47066">
        <ele>60</ele>
        <time>2021-07-01T12:23:26.000Z</time>
      </trkpt>
      <trkpt lat="43.3119" lon="3.47068">
        <ele>59</ele>
        <time>2021-07-01T12:24:20.000Z</time>
      </trkpt>
      <trkpt lat="43.31188" lon="3.47056">
        <ele>60</ele>
        <time>2021-07-01T12:27:40.000Z</time>
      </trkpt>
      <trkpt lat="43.31191" lon="3.47044">
        <ele>59</ele>
        <time>2021-07-01T12:27:45.000Z</time>
      </trkpt>
      <trkpt lat="43.31185" lon="3.47034">
        <ele>61</ele>
        <time>2021-07-01T12:27:52.000Z</time>
      </trkpt>
      <trkpt lat="43.31176" lon="3.47027">
        <ele>62</ele>
        <time>2021-07-01T12:27:58.000Z</time>
      </trkpt>
      <trkpt lat="43.31169" lon="3.4702">
        <ele>61</ele>
        <time>2021-07-01T12:28:05.000Z</time>
      </trkpt>
      <trkpt lat="43.31167" lon="3.47006">
        <ele>56</ele>
        <time>2021-07-01T12:28:13.000Z</time>
      </trkpt>
      <trkpt lat="43.31169" lon="3.46992">
        <ele>55</ele>
        <time>2021-07-01T12:28:17.000Z</time>
      </trkpt>
      <trkpt lat="43.31173" lon="3.46979">
        <ele>55</ele>
        <time>2021-07-01T12:28:20.000Z</time>
      </trkpt>
      <trkpt lat="43.31179" lon="3.46965">
        <ele>59</ele>
        <time>2021-07-01T12:28:26.000Z</time>
      </trkpt>
      <trkpt lat="43.31185" lon="3.46955">
        <ele>60</ele>
        <time>2021-07-01T12:28:30.000Z</time>
      </trkpt>
      <trkpt lat="43.3119" lon="3.46941">
        <ele>60</ele>
        <time>2021-07-01T12:28:35.000Z</time>
      </trkpt>
      <trkpt lat="43.31199" lon="3.46936">
        <ele>60</ele>
        <time>2021-07-01T12:28:43.000Z</time>
      </trkpt>
      <trkpt lat="43.31212" lon="3.46937">
        <ele>61</ele>
        <time>2021-07-01T12:28:49.000Z</time>
      </trkpt>
      <trkpt lat="43.31223" lon="3.46933">
        <ele>61</ele>
        <time>2021-07-01T12:28:54.000Z</time>
      </trkpt>
      <trkpt lat="43.31232" lon="3.46927">
        <ele>59</ele>
        <time>2021-07-01T12:28:58.000Z</time>
      </trkpt>
      <trkpt lat="43.31241" lon="3.4693">
        <ele>55</ele>
        <time>2021-07-01T12:29:08.000Z</time>
      </trkpt>
      <trkpt lat="43.3125" lon="3.4693">
        <ele>54</ele>
        <time>2021-07-01T12:29:14.000Z</time>
      </trkpt>
      <trkpt lat="43.31258" lon="3.46922">
        <ele>53</ele>
        <time>2021-07-01T12:29:20.000Z</time>
      </trkpt>
      <trkpt lat="43.3126" lon="3.46907">
        <ele>54</ele>
        <time>2021-07-01T12:29:27.000Z</time>
      </trkpt>
      <trkpt lat="43.31267" lon="3.46898">
        <ele>54</ele>
        <time>2021-07-01T12:29:32.000Z</time>
      </trkpt>
      <trkpt lat="43.31275" lon="3.46889">
        <ele>53</ele>
        <time>2021-07-01T12:29:38.000Z</time>
      </trkpt>
      <trkpt lat="43.31282" lon="3.46878">
        <ele>52</ele>
        <time>2021-07-01T12:29:43.000Z</time>
      </trkpt>
      <trkpt lat="43.31288" lon="3.46867">
        <ele>50</ele>
        <time>2021-07-01T12:29:49.000Z</time>
      </trkpt>
      <trkpt lat="43.31295" lon="3.46859">
        <ele>48</ele>
        <time>2021-07-01T12:29:55.000Z</time>
      </trkpt>
      <trkpt lat="43.31302" lon="3.4685">
        <ele>48</ele>
        <time>2021-07-01T12:30:04.000Z</time>
      </trkpt>
      <trkpt lat="43.31309" lon="3.46843">
        <ele>50</ele>
        <time>2021-07-01T12:30:09.000Z</time>
      </trkpt>
      <trkpt lat="43.31306" lon="3.46831">
        <ele>50</ele>
        <time>2021-07-01T12:30:13.000Z</time>
      </trkpt>
      <trkpt lat="43.3131" lon="3.46817">
        <ele>50</ele>
        <time>2021-07-01T12:30:20.000Z</time>
      </trkpt>
      <trkpt lat="43.31315" lon="3.46806">
        <ele>51</ele>
        <time>2021-07-01T12:30:25.000Z</time>
      </trkpt>
      <trkpt lat="43.31324" lon="3.46799">
        <ele>50</ele>
        <time>2021-07-01T12:30:29.000Z</time>
      </trkpt>
      <trkpt lat="43.31332" lon="3.46791">
        <ele>49</ele>
        <time>2021-07-01T12:30:33.000Z</time>
      </trkpt>
      <trkpt lat="43.3134" lon="3.46784">
        <ele>46</ele>
        <time>2021-07-01T12:30:50.000Z</time>
      </trkpt>
      <trkpt lat="43.31348" lon="3.46793">
        <ele>47</ele>
        <time>2021-07-01T12:30:53.000Z</time>
      </trkpt>
      <trkpt lat="43.31358" lon="3.46803">
        <ele>46</ele>
        <time>2021-07-01T12:30:57.000Z</time>
      </trkpt>
      <trkpt lat="43.31368" lon="3.4681">
        <ele>47</ele>
        <time>2021-07-01T12:31:01.000Z</time>
      </trkpt>
      <trkpt lat="43.31375" lon="3.46817">
        <ele>49</ele>
        <time>2021-07-01T12:31:05.000Z</time>
      </trkpt>
      <trkpt lat="43.31383" lon="3.46824">
        <ele>50</ele>
        <time>2021-07-01T12:31:09.000Z</time>
      </trkpt>
      <trkpt lat="43.3139" lon="3.46836">
        <ele>50</ele>
        <time>2021-07-01T12:31:14.000Z</time>
      </trkpt>
      <trkpt lat="43.31399" lon="3.46846">
        <ele>52</ele>
        <time>2021-07-01T12:31:20.000Z</time>
      </trkpt>
      <trkpt lat="43.31401" lon="3.46858">
        <ele>52</ele>
        <time>2021-07-01T12:31:25.000Z</time>
      </trkpt>
      <trkpt lat="43.3141" lon="3.46869">
        <ele>53</ele>
        <time>2021-07-01T12:31:29.000Z</time>
      </trkpt>
      <trkpt lat="43.31417" lon="3.4688">
        <ele>55</ele>
        <time>2021-07-01T12:31:33.000Z</time>
      </trkpt>
      <trkpt lat="43.31425" lon="3.46889">
        <ele>55</ele>
        <time>2021-07-01T12:31:37.000Z</time>
      </trkpt>
      <trkpt lat="43.31432" lon="3.469">
        <ele>54</ele>
        <time>2021-07-01T12:31:42.000Z</time>
      </trkpt>
      <trkpt lat="43.31438" lon="3.46911">
        <ele>55</ele>
        <time>2021-07-01T12:31:46.000Z</time>
      </trkpt>
      <trkpt lat="43.31445" lon="3.46923">
        <ele>55</ele>
        <time>2021-07-01T12:31:50.000Z</time>
      </trkpt>
      <trkpt lat="43.31453" lon="3.46932">
        <ele>55</ele>
        <time>2021-07-01T12:31:53.000Z</time>
      </trkpt>
      <trkpt lat="43.31461" lon="3.46944">
        <ele>52</ele>
        <time>2021-07-01T12:31:56.000Z</time>
      </trkpt>
      <trkpt lat="43.31468" lon="3.46956">
        <ele>50</ele>
        <time>2021-07-01T12:31:59.000Z</time>
      </trkpt>
      <trkpt lat="43.31475" lon="3.4697">
        <ele>49</ele>
        <time>2021-07-01T12:32:04.000Z</time>
      </trkpt>
      <trkpt lat="43.31483" lon="3.46976">
        <ele>28</ele>
        <time>2021-07-01T12:33:52.000Z</time>
      </trkpt>
      <trkpt lat="43.31474" lon="3.46976">
        <ele>23</ele>
        <time>2021-07-01T12:35:34.000Z</time>
      </trkpt>
      <trkpt lat="43.31465" lon="3.46981">
        <ele>25</ele>
        <time>2021-07-01T12:40:34.000Z</time>
      </trkpt>
      <trkpt lat="43.31455" lon="3.46986">
        <ele>24</ele>
        <time>2021-07-01T12:40:59.000Z</time>
      </trkpt>
      <trkpt lat="43.31465" lon="3.46988">
        <ele>31</ele>
        <time>2021-07-01T12:42:52.000Z</time>
      </trkpt>
      <trkpt lat="43.31471" lon="3.46979">
        <ele>27</ele>
        <time>2021-07-01T12:43:17.000Z</time>
      </trkpt>
      <trkpt lat="43.3148" lon="3.46974">
        <ele>30</ele>
        <time>2021-07-01T12:44:45.000Z</time>
      </trkpt>
      <trkpt lat="43.31471" lon="3.46977">
        <ele>26</ele>
        <time>2021-07-01T12:47:17.000Z</time>
      </trkpt>
      <trkpt lat="43.31481" lon="3.46978">
        <ele>25</ele>
        <time>2021-07-01T12:47:37.000Z</time>
      </trkpt>
      <trkpt lat="43.31472" lon="3.46984">
        <ele>30</ele>
        <time>2021-07-01T12:49:08.000Z</time>
      </trkpt>
      <trkpt lat="43.3148" lon="3.46977">
        <ele>25</ele>
        <time>2021-07-01T12:50:32.000Z</time>
      </trkpt>
      <trkpt lat="43.31471" lon="3.46981">
        <ele>28</ele>
        <time>2021-07-01T12:51:23.000Z</time>
      </trkpt>
      <trkpt lat="43.31478" lon="3.46971">
        <ele>25</ele>
        <time>2021-07-01T12:52:20.000Z</time>
      </trkpt>
      <trkpt lat="43.31469" lon="3.46976">
        <ele>25</ele>
        <time>2021-07-01T12:52:36.000Z</time>
      </trkpt>
      <trkpt lat="43.3146" lon="3.46977">
        <ele>22</ele>
        <time>2021-07-01T12:53:24.000Z</time>
      </trkpt>
      <trkpt lat="43.3147" lon="3.46979">
        <ele>21</ele>
        <time>2021-07-01T12:54:46.000Z</time>
      </trkpt>
      <trkpt lat="43.3148" lon="3.46974">
        <ele>23</ele>
        <time>2021-07-01T12:55:06.000Z</time>
      </trkpt>
      <trkpt lat="43.31487" lon="3.46965">
        <ele>25</ele>
        <time>2021-07-01T12:55:23.000Z</time>
      </trkpt>
      <trkpt lat="43.31481" lon="3.46975">
        <ele>26</ele>
        <time>2021-07-01T12:55:48.000Z</time>
      </trkpt>
      <trkpt lat="43.31472" lon="3.46979">
        <ele>29</ele>
        <time>2021-07-01T12:56:07.000Z</time>
      </trkpt>
      <trkpt lat="43.31477" lon="3.46968">
        <ele>26</ele>
        <time>2021-07-01T12:58:58.000Z</time>
      </trkpt>
      <trkpt lat="43.31472" lon="3.4698">
        <ele>27</ele>
        <time>2021-07-01T12:59:31.000Z</time>
      </trkpt>
      <trkpt lat="43.31463" lon="3.46976">
        <ele>27</ele>
        <time>2021-07-01T12:59:42.000Z</time>
      </trkpt>
      <trkpt lat="43.31472" lon="3.46973">
        <ele>35</ele>
        <time>2021-07-01T13:00:55.000Z</time>
      </trkpt>
      <trkpt lat="43.31482" lon="3.46978">
        <ele>34</ele>
        <time>2021-07-01T13:01:31.000Z</time>
      </trkpt>
      <trkpt lat="43.31474" lon="3.46985">
        <ele>29</ele>
        <time>2021-07-01T13:02:00.000Z</time>
      </trkpt>
      <trkpt lat="43.31467" lon="3.46977">
        <ele>28</ele>
        <time>2021-07-01T13:02:25.000Z</time>
      </trkpt>
      <trkpt lat="43.31476" lon="3.46982">
        <ele>23</ele>
        <time>2021-07-01T13:04:12.000Z</time>
      </trkpt>
      <trkpt lat="43.31467" lon="3.4698">
        <ele>17</ele>
        <time>2021-07-01T13:04:34.000Z</time>
      </trkpt>
      <trkpt lat="43.31475" lon="3.46975">
        <ele>24</ele>
        <time>2021-07-01T13:05:05.000Z</time>
      </trkpt>
      <trkpt lat="43.31466" lon="3.46972">
        <ele>23</ele>
        <time>2021-07-01T13:05:39.000Z</time>
      </trkpt>
      <trkpt lat="43.31457" lon="3.46972">
        <ele>20</ele>
        <time>2021-07-01T13:06:18.000Z</time>
      </trkpt>
      <trkpt lat="43.31465" lon="3.46978">
        <ele>26</ele>
        <time>2021-07-01T13:07:55.000Z</time>
      </trkpt>
      <trkpt lat="43.31457" lon="3.46987">
        <ele>25</ele>
        <time>2021-07-01T13:12:52.000Z</time>
      </trkpt>
      <trkpt lat="43.31583" lon="3.46776">
        <ele>50</ele>
        <time>2021-07-01T13:22:09.005Z</time>
      </trkpt>
      <trkpt lat="43.3159" lon="3.46762">
        <ele>60</ele>
        <time>2021-07-01T13:22:09.984Z</time>
      </trkpt>
      <trkpt lat="43.31601" lon="3.46769">
        <ele>65</ele>
        <time>2021-07-01T13:22:15.000Z</time>
      </trkpt>
      <trkpt lat="43.31609" lon="3.46774">
        <ele>66</ele>
        <time>2021-07-01T13:22:18.000Z</time>
      </trkpt>
      <trkpt lat="43.31617" lon="3.46781">
        <ele>66</ele>
        <time>2021-07-01T13:22:22.000Z</time>
      </trkpt>
      <trkpt lat="43.31626" lon="3.4679">
        <ele>64</ele>
        <time>2021-07-01T13:22:26.000Z</time>
      </trkpt>
      <trkpt lat="43.31637" lon="3.46801">
        <ele>63</ele>
        <time>2021-07-01T13:22:31.000Z</time>
      </trkpt>
      <trkpt lat="43.31645" lon="3.46809">
        <ele>60</ele>
        <time>2021-07-01T13:22:36.000Z</time>
      </trkpt>
      <trkpt lat="43.31653" lon="3.46819">
        <ele>61</ele>
        <time>2021-07-01T13:22:41.000Z</time>
      </trkpt>
      <trkpt lat="43.31663" lon="3.46822">
        <ele>60</ele>
        <time>2021-07-01T13:22:45.000Z</time>
      </trkpt>
      <trkpt lat="43.31675" lon="3.46822">
        <ele>59</ele>
        <time>2021-07-01T13:22:49.000Z</time>
      </trkpt>
      <trkpt lat="43.31684" lon="3.46821">
        <ele>58</ele>
        <time>2021-07-01T13:22:52.000Z</time>
      </trkpt>
      <trkpt lat="43.31693" lon="3.46819">
        <ele>58</ele>
        <time>2021-07-01T13:22:55.000Z</time>
      </trkpt>
      <trkpt lat="43.31704" lon="3.46814">
        <ele>56</ele>
        <time>2021-07-01T13:22:59.000Z</time>
      </trkpt>
      <trkpt lat="43.31718" lon="3.46812">
        <ele>57</ele>
        <time>2021-07-01T13:23:03.000Z</time>
      </trkpt>
      <trkpt lat="43.31727" lon="3.46811">
        <ele>57</ele>
        <time>2021-07-01T13:23:06.000Z</time>
      </trkpt>
      <trkpt lat="43.31737" lon="3.46809">
        <ele>57</ele>
        <time>2021-07-01T13:23:09.000Z</time>
      </trkpt>
      <trkpt lat="43.31748" lon="3.46805">
        <ele>56</ele>
        <time>2021-07-01T13:23:12.000Z</time>
      </trkpt>
      <trkpt lat="43.31759" lon="3.46802">
        <ele>56</ele>
        <time>2021-07-01T13:23:16.000Z</time>
      </trkpt>
      <trkpt lat="43.31769" lon="3.46801">
        <ele>57</ele>
        <time>2021-07-01T13:23:19.000Z</time>
      </trkpt>
      <trkpt lat="43.31779" lon="3.46799">
        <ele>56</ele>
        <time>2021-07-01T13:23:22.000Z</time>
      </trkpt>
      <trkpt lat="43.31796" lon="3.46793">
        <ele>54</ele>
        <time>2021-07-01T13:23:26.000Z</time>
      </trkpt>
      <trkpt lat="43.31805" lon="3.4679">
        <ele>53</ele>
        <time>2021-07-01T13:23:28.000Z</time>
      </trkpt>
      <trkpt lat="43.31814" lon="3.46787">
        <ele>53</ele>
        <time>2021-07-01T13:23:30.000Z</time>
      </trkpt>
      <trkpt lat="43.31825" lon="3.46785">
        <ele>52</ele>
        <time>2021-07-01T13:23:32.000Z</time>
      </trkpt>
      <trkpt lat="43.31835" lon="3.46781">
        <ele>51</ele>
        <time>2021-07-01T13:23:34.000Z</time>
      </trkpt>
      <trkpt lat="43.31845" lon="3.46779">
        <ele>52</ele>
        <time>2021-07-01T13:23:36.000Z</time>
      </trkpt>
      <trkpt lat="43.31855" lon="3.46775">
        <ele>52</ele>
        <time>2021-07-01T13:23:38.000Z</time>
      </trkpt>
      <trkpt lat="43.31865" lon="3.46772">
        <ele>52</ele>
        <time>2021-07-01T13:23:40.000Z</time>
      </trkpt>
      <trkpt lat="43.31875" lon="3.46767">
        <ele>52</ele>
        <time>2021-07-01T13:23:42.000Z</time>
      </trkpt>
      <trkpt lat="43.31885" lon="3.46764">
        <ele>51</ele>
        <time>2021-07-01T13:23:44.000Z</time>
      </trkpt>
      <trkpt lat="43.31895" lon="3.46761">
        <ele>51</ele>
        <time>2021-07-01T13:23:46.000Z</time>
      </trkpt>
      <trkpt lat="43.31905" lon="3.46759">
        <ele>51</ele>
        <time>2021-07-01T13:23:48.000Z</time>
      </trkpt>
      <trkpt lat="43.31916" lon="3.46756">
        <ele>52</ele>
        <time>2021-07-01T13:23:51.000Z</time>
      </trkpt>
      <trkpt lat="43.31926" lon="3.46753">
        <ele>51</ele>
        <time>2021-07-01T13:23:53.000Z</time>
      </trkpt>
      <trkpt lat="43.31935" lon="3.46751">
        <ele>53</ele>
        <time>2021-07-01T13:23:55.000Z</time>
      </trkpt>
      <trkpt lat="43.31945" lon="3.46747">
        <ele>52</ele>
        <time>2021-07-01T13:23:57.000Z</time>
      </trkpt>
      <trkpt lat="43.31954" lon="3.46743">
        <ele>51</ele>
        <time>2021-07-01T13:23:59.000Z</time>
      </trkpt>
      <trkpt lat="43.31966" lon="3.46739">
        <ele>51</ele>
        <time>2021-07-01T13:24:02.000Z</time>
      </trkpt>
      <trkpt lat="43.31975" lon="3.46736">
        <ele>50</ele>
        <time>2021-07-01T13:24:04.000Z</time>
      </trkpt>
      <trkpt lat="43.31986" lon="3.46737">
        <ele>51</ele>
        <time>2021-07-01T13:24:10.000Z</time>
      </trkpt>
      <trkpt lat="43.31993" lon="3.46748">
        <ele>51</ele>
        <time>2021-07-01T13:24:15.000Z</time>
      </trkpt>
      <trkpt lat="43.31998" lon="3.46759">
        <ele>53</ele>
        <time>2021-07-01T13:24:19.000Z</time>
      </trkpt>
      <trkpt lat="43.31998" lon="3.46773">
        <ele>56</ele>
        <time>2021-07-01T13:24:31.000Z</time>
      </trkpt>
      <trkpt lat="43.32002" lon="3.46784">
        <ele>52</ele>
        <time>2021-07-01T13:24:51.000Z</time>
      </trkpt>
      <trkpt lat="43.31996" lon="3.46772">
        <ele>50</ele>
        <time>2021-07-01T13:25:31.000Z</time>
      </trkpt>
      <trkpt lat="43.32006" lon="3.46772">
        <ele>45</ele>
        <time>2021-07-01T13:27:31.000Z</time>
      </trkpt>
      <trkpt lat="43.31997" lon="3.4677">
        <ele>52</ele>
        <time>2021-07-01T13:29:26.000Z</time>
      </trkpt>
      <trkpt lat="43.31991" lon="3.46759">
        <ele>54</ele>
        <time>2021-07-01T13:29:30.000Z</time>
      </trkpt>
      <trkpt lat="43.31982" lon="3.46751">
        <ele>54</ele>
        <time>2021-07-01T13:29:34.000Z</time>
      </trkpt>
      <trkpt lat="43.31989" lon="3.46741">
        <ele>57</ele>
        <time>2021-07-01T13:29:41.000Z</time>
      </trkpt>
      <trkpt lat="43.31998" lon="3.46734">
        <ele>58</ele>
        <time>2021-07-01T13:29:45.000Z</time>
      </trkpt>
      <trkpt lat="43.32006" lon="3.46729">
        <ele>57</ele>
        <time>2021-07-01T13:29:51.000Z</time>
      </trkpt>
      <trkpt lat="43.32016" lon="3.46724">
        <ele>55</ele>
        <time>2021-07-01T13:30:14.000Z</time>
      </trkpt>
      <trkpt lat="43.32025" lon="3.46721">
        <ele>56</ele>
        <time>2021-07-01T13:30:18.000Z</time>
      </trkpt>
      <trkpt lat="43.32035" lon="3.46722">
        <ele>58</ele>
        <time>2021-07-01T13:30:24.000Z</time>
      </trkpt>
      <trkpt lat="43.32043" lon="3.46729">
        <ele>58</ele>
        <time>2021-07-01T13:30:28.000Z</time>
      </trkpt>
      <trkpt lat="43.32047" lon="3.46742">
        <ele>59</ele>
        <time>2021-07-01T13:30:31.000Z</time>
      </trkpt>
      <trkpt lat="43.32049" lon="3.46757">
        <ele>59</ele>
        <time>2021-07-01T13:30:34.000Z</time>
      </trkpt>
      <trkpt lat="43.32051" lon="3.46769">
        <ele>59</ele>
        <time>2021-07-01T13:30:37.000Z</time>
      </trkpt>
      <trkpt lat="43.32048" lon="3.46784">
        <ele>59</ele>
        <time>2021-07-01T13:30:41.000Z</time>
      </trkpt>
      <trkpt lat="43.32041" lon="3.46794">
        <ele>59</ele>
        <time>2021-07-01T13:30:47.000Z</time>
      </trkpt>
      <trkpt lat="43.32032" lon="3.46795">
        <ele>58</ele>
        <time>2021-07-01T13:30:53.000Z</time>
      </trkpt>
      <trkpt lat="43.32041" lon="3.46793">
        <ele>54</ele>
        <time>2021-07-01T13:33:06.000Z</time>
      </trkpt>
      <trkpt lat="43.32051" lon="3.46787">
        <ele>53</ele>
        <time>2021-07-01T13:33:57.000Z</time>
      </trkpt>
      <trkpt lat="43.32051" lon="3.46772">
        <ele>53</ele>
        <time>2021-07-01T13:34:01.000Z</time>
      </trkpt>
      <trkpt lat="43.32049" lon="3.46758">
        <ele>52</ele>
        <time>2021-07-01T13:34:05.000Z</time>
      </trkpt>
      <trkpt lat="43.32046" lon="3.46745">
        <ele>52</ele>
        <time>2021-07-01T13:34:10.000Z</time>
      </trkpt>
      <trkpt lat="43.32042" lon="3.46732">
        <ele>53</ele>
        <time>2021-07-01T13:34:15.000Z</time>
      </trkpt>
      <trkpt lat="43.3204" lon="3.4672">
        <ele>54</ele>
        <time>2021-07-01T13:34:22.000Z</time>
      </trkpt>
      <trkpt lat="43.32031" lon="3.46713">
        <ele>56</ele>
        <time>2021-07-01T13:34:29.000Z</time>
      </trkpt>
      <trkpt lat="43.32019" lon="3.46716">
        <ele>56</ele>
        <time>2021-07-01T13:34:33.000Z</time>
      </trkpt>
      <trkpt lat="43.32009" lon="3.46719">
        <ele>57</ele>
        <time>2021-07-01T13:34:36.000Z</time>
      </trkpt>
      <trkpt lat="43.31999" lon="3.46723">
        <ele>57</ele>
        <time>2021-07-01T13:34:39.000Z</time>
      </trkpt>
      <trkpt lat="43.31988" lon="3.46727">
        <ele>58</ele>
        <time>2021-07-01T13:34:42.000Z</time>
      </trkpt>
      <trkpt lat="43.31975" lon="3.46731">
        <ele>58</ele>
        <time>2021-07-01T13:34:45.000Z</time>
      </trkpt>
      <trkpt lat="43.31966" lon="3.46734">
        <ele>58</ele>
        <time>2021-07-01T13:34:47.000Z</time>
      </trkpt>
      <trkpt lat="43.31951" lon="3.46738">
        <ele>59</ele>
        <time>2021-07-01T13:34:50.000Z</time>
      </trkpt>
      <trkpt lat="43.31941" lon="3.46742">
        <ele>59</ele>
        <time>2021-07-01T13:34:52.000Z</time>
      </trkpt>
      <trkpt lat="43.31926" lon="3.46745">
        <ele>59</ele>
        <time>2021-07-01T13:34:55.000Z</time>
      </trkpt>
      <trkpt lat="43.31911" lon="3.46749">
        <ele>59</ele>
        <time>2021-07-01T13:34:58.000Z</time>
      </trkpt>
      <trkpt lat="43.31901" lon="3.46753">
        <ele>58</ele>
        <time>2021-07-01T13:35:00.000Z</time>
      </trkpt>
      <trkpt lat="43.31886" lon="3.46758">
        <ele>58</ele>
        <time>2021-07-01T13:35:03.000Z</time>
      </trkpt>
      <trkpt lat="43.31876" lon="3.4676">
        <ele>58</ele>
        <time>2021-07-01T13:35:05.000Z</time>
      </trkpt>
      <trkpt lat="43.31866" lon="3.46764">
        <ele>59</ele>
        <time>2021-07-01T13:35:07.000Z</time>
      </trkpt>
      <trkpt lat="43.31857" lon="3.46766">
        <ele>60</ele>
        <time>2021-07-01T13:35:09.000Z</time>
      </trkpt>
      <trkpt lat="43.31842" lon="3.4677">
        <ele>60</ele>
        <time>2021-07-01T13:35:12.000Z</time>
      </trkpt>
      <trkpt lat="43.31829" lon="3.46774">
        <ele>60</ele>
        <time>2021-07-01T13:35:15.000Z</time>
      </trkpt>
      <trkpt lat="43.3182" lon="3.46777">
        <ele>60</ele>
        <time>2021-07-01T13:35:17.000Z</time>
      </trkpt>
      <trkpt lat="43.31803" lon="3.46782">
        <ele>60</ele>
        <time>2021-07-01T13:35:21.000Z</time>
      </trkpt>
      <trkpt lat="43.31792" lon="3.46783">
        <ele>59</ele>
        <time>2021-07-01T13:35:24.000Z</time>
      </trkpt>
      <trkpt lat="43.31782" lon="3.46786">
        <ele>60</ele>
        <time>2021-07-01T13:35:27.000Z</time>
      </trkpt>
      <trkpt lat="43.31771" lon="3.46789">
        <ele>60</ele>
        <time>2021-07-01T13:35:30.000Z</time>
      </trkpt>
      <trkpt lat="43.31761" lon="3.46793">
        <ele>60</ele>
        <time>2021-07-01T13:35:33.000Z</time>
      </trkpt>
      <trkpt lat="43.3175" lon="3.46796">
        <ele>59</ele>
        <time>2021-07-01T13:35:36.000Z</time>
      </trkpt>
      <trkpt lat="43.31739" lon="3.46799">
        <ele>59</ele>
        <time>2021-07-01T13:35:39.000Z</time>
      </trkpt>
      <trkpt lat="43.31729" lon="3.46802">
        <ele>58</ele>
        <time>2021-07-01T13:35:42.000Z</time>
      </trkpt>
      <trkpt lat="43.3172" lon="3.46805">
        <ele>59</ele>
        <time>2021-07-01T13:35:45.000Z</time>
      </trkpt>
      <trkpt lat="43.31711" lon="3.46805">
        <ele>58</ele>
        <time>2021-07-01T13:35:48.000Z</time>
      </trkpt>
      <trkpt lat="43.31708" lon="3.46792">
        <ele>59</ele>
        <time>2021-07-01T13:35:51.000Z</time>
      </trkpt>
      <trkpt lat="43.31707" lon="3.46779">
        <ele>58</ele>
        <time>2021-07-01T13:35:53.000Z</time>
      </trkpt>
      <trkpt lat="43.31706" lon="3.46758">
        <ele>57</ele>
        <time>2021-07-01T13:35:56.000Z</time>
      </trkpt>
      <trkpt lat="43.31705" lon="3.4674">
        <ele>57</ele>
        <time>2021-07-01T13:35:59.000Z</time>
      </trkpt>
      <trkpt lat="43.31702" lon="3.46727">
        <ele>57</ele>
        <time>2021-07-01T13:36:01.000Z</time>
      </trkpt>
      <trkpt lat="43.317" lon="3.4671">
        <ele>56</ele>
        <time>2021-07-01T13:36:04.000Z</time>
      </trkpt>
      <trkpt lat="43.31696" lon="3.46694">
        <ele>57</ele>
        <time>2021-07-01T13:36:07.000Z</time>
      </trkpt>
      <trkpt lat="43.31694" lon="3.4668">
        <ele>56</ele>
        <time>2021-07-01T13:36:10.000Z</time>
      </trkpt>
      <trkpt lat="43.31683" lon="3.46683">
        <ele>58</ele>
        <time>2021-07-01T13:36:16.000Z</time>
      </trkpt>
      <trkpt lat="43.31673" lon="3.46692">
        <ele>58</ele>
        <time>2021-07-01T13:36:19.000Z</time>
      </trkpt>
      <trkpt lat="43.31663" lon="3.46701">
        <ele>60</ele>
        <time>2021-07-01T13:36:22.000Z</time>
      </trkpt>
      <trkpt lat="43.31653" lon="3.46711">
        <ele>61</ele>
        <time>2021-07-01T13:36:25.000Z</time>
      </trkpt>
      <trkpt lat="43.31639" lon="3.46724">
        <ele>62</ele>
        <time>2021-07-01T13:36:29.000Z</time>
      </trkpt>
      <trkpt lat="43.31631" lon="3.46736">
        <ele>62</ele>
        <time>2021-07-01T13:36:32.000Z</time>
      </trkpt>
      <trkpt lat="43.31622" lon="3.46747">
        <ele>62</ele>
        <time>2021-07-01T13:36:35.000Z</time>
      </trkpt>
      <trkpt lat="43.31615" lon="3.46756">
        <ele>62</ele>
        <time>2021-07-01T13:36:38.000Z</time>
      </trkpt>
      <trkpt lat="43.31606" lon="3.46762">
        <ele>63</ele>
        <time>2021-07-01T13:36:42.000Z</time>
      </trkpt>
      <trkpt lat="43.31597" lon="3.46763">
        <ele>63</ele>
        <time>2021-07-01T13:36:49.000Z</time>
      </trkpt>
      <trkpt lat="43.31582" lon="3.46769">
        <ele>61</ele>
        <time>2021-07-01T13:36:56.000Z</time>
      </trkpt>
      <trkpt lat="43.31573" lon="3.46777">
        <ele>61</ele>
        <time>2021-07-01T13:37:00.000Z</time>
      </trkpt>
      <trkpt lat="43.31564" lon="3.46785">
        <ele>62</ele>
        <time>2021-07-01T13:37:04.000Z</time>
      </trkpt>
      <trkpt lat="43.31557" lon="3.46793">
        <ele>63</ele>
        <time>2021-07-01T13:37:07.000Z</time>
      </trkpt>
      <trkpt lat="43.31549" lon="3.46803">
        <ele>66</ele>
        <time>2021-07-01T13:37:10.000Z</time>
      </trkpt>
      <trkpt lat="43.31542" lon="3.46814">
        <ele>66</ele>
        <time>2021-07-01T13:37:15.000Z</time>
      </trkpt>
      <trkpt lat="43.31536" lon="3.46824">
        <ele>68</ele>
        <time>2021-07-01T13:37:19.000Z</time>
      </trkpt>
      <trkpt lat="43.31527" lon="3.46832">
        <ele>68</ele>
        <time>2021-07-01T13:37:25.000Z</time>
      </trkpt>
      <trkpt lat="43.3152" lon="3.46841">
        <ele>67</ele>
        <time>2021-07-01T13:37:29.000Z</time>
      </trkpt>
      <trkpt lat="43.31513" lon="3.46854">
        <ele>65</ele>
        <time>2021-07-01T13:37:33.000Z</time>
      </trkpt>
      <trkpt lat="43.31521" lon="3.46864">
        <ele>63</ele>
        <time>2021-07-01T13:37:37.000Z</time>
      </trkpt>
      <trkpt lat="43.31531" lon="3.46865">
        <ele>61</ele>
        <time>2021-07-01T13:37:41.000Z</time>
      </trkpt>
      <trkpt lat="43.31543" lon="3.46866">
        <ele>59</ele>
        <time>2021-07-01T13:37:46.000Z</time>
      </trkpt>
      <trkpt lat="43.3155" lon="3.46875">
        <ele>58</ele>
        <time>2021-07-01T13:37:52.000Z</time>
      </trkpt>
      <trkpt lat="43.31553" lon="3.46891">
        <ele>56</ele>
        <time>2021-07-01T13:37:56.000Z</time>
      </trkpt>
      <trkpt lat="43.31553" lon="3.46905">
        <ele>56</ele>
        <time>2021-07-01T13:38:01.000Z</time>
      </trkpt>
      <trkpt lat="43.31555" lon="3.46922">
        <ele>54</ele>
        <time>2021-07-01T13:38:05.000Z</time>
      </trkpt>
      <trkpt lat="43.31564" lon="3.46932">
        <ele>55</ele>
        <time>2021-07-01T13:38:09.000Z</time>
      </trkpt>
      <trkpt lat="43.31574" lon="3.46941">
        <ele>55</ele>
        <time>2021-07-01T13:38:12.000Z</time>
      </trkpt>
      <trkpt lat="43.31584" lon="3.4695">
        <ele>55</ele>
        <time>2021-07-01T13:38:15.000Z</time>
      </trkpt>
      <trkpt lat="43.31593" lon="3.46959">
        <ele>58</ele>
        <time>2021-07-01T13:38:18.000Z</time>
      </trkpt>
      <trkpt lat="43.31598" lon="3.46975">
        <ele>59</ele>
        <time>2021-07-01T13:38:21.000Z</time>
      </trkpt>
      <trkpt lat="43.31595" lon="3.46988">
        <ele>58</ele>
        <time>2021-07-01T13:38:24.000Z</time>
      </trkpt>
      <trkpt lat="43.31591" lon="3.47007">
        <ele>58</ele>
        <time>2021-07-01T13:38:28.000Z</time>
      </trkpt>
      <trkpt lat="43.31594" lon="3.47022">
        <ele>57</ele>
        <time>2021-07-01T13:38:31.000Z</time>
      </trkpt>
      <trkpt lat="43.31598" lon="3.47033">
        <ele>56</ele>
        <time>2021-07-01T13:38:33.000Z</time>
      </trkpt>
      <trkpt lat="43.31603" lon="3.47043">
        <ele>55</ele>
        <time>2021-07-01T13:38:35.000Z</time>
      </trkpt>
      <trkpt lat="43.31611" lon="3.47055">
        <ele>53</ele>
        <time>2021-07-01T13:38:37.000Z</time>
      </trkpt>
      <trkpt lat="43.31616" lon="3.47065">
        <ele>52</ele>
        <time>2021-07-01T13:38:39.000Z</time>
      </trkpt>
      <trkpt lat="43.31626" lon="3.47075">
        <ele>51</ele>
        <time>2021-07-01T13:38:42.000Z</time>
      </trkpt>
      <trkpt lat="43.31639" lon="3.4708">
        <ele>50</ele>
        <time>2021-07-01T13:38:45.000Z</time>
      </trkpt>
      <trkpt lat="43.3165" lon="3.47083">
        <ele>49</ele>
        <time>2021-07-01T13:38:48.000Z</time>
      </trkpt>
      <trkpt lat="43.3166" lon="3.47086">
        <ele>49</ele>
        <time>2021-07-01T13:38:51.000Z</time>
      </trkpt>
      <trkpt lat="43.31673" lon="3.47091">
        <ele>49</ele>
        <time>2021-07-01T13:38:55.000Z</time>
      </trkpt>
      <trkpt lat="43.31682" lon="3.47092">
        <ele>49</ele>
        <time>2021-07-01T13:38:58.000Z</time>
      </trkpt>
      <trkpt lat="43.31693" lon="3.47089">
        <ele>49</ele>
        <time>2021-07-01T13:39:00.000Z</time>
      </trkpt>
      <trkpt lat="43.31704" lon="3.47085">
        <ele>50</ele>
        <time>2021-07-01T13:39:03.000Z</time>
      </trkpt>
      <trkpt lat="43.31714" lon="3.4708">
        <ele>50</ele>
        <time>2021-07-01T13:39:06.000Z</time>
      </trkpt>
      <trkpt lat="43.31726" lon="3.47076">
        <ele>50</ele>
        <time>2021-07-01T13:39:09.000Z</time>
      </trkpt>
      <trkpt lat="43.31741" lon="3.47073">
        <ele>50</ele>
        <time>2021-07-01T13:39:13.000Z</time>
      </trkpt>
      <trkpt lat="43.31752" lon="3.47072">
        <ele>49</ele>
        <time>2021-07-01T13:39:16.000Z</time>
      </trkpt>
      <trkpt lat="43.31762" lon="3.47074">
        <ele>50</ele>
        <time>2021-07-01T13:39:19.000Z</time>
      </trkpt>
      <trkpt lat="43.31773" lon="3.4708">
        <ele>50</ele>
        <time>2021-07-01T13:39:22.000Z</time>
      </trkpt>
      <trkpt lat="43.31782" lon="3.4709">
        <ele>51</ele>
        <time>2021-07-01T13:39:26.000Z</time>
      </trkpt>
      <trkpt lat="43.31791" lon="3.47087">
        <ele>51</ele>
        <time>2021-07-01T13:39:34.000Z</time>
      </trkpt>
      <trkpt lat="43.31792" lon="3.47074">
        <ele>53</ele>
        <time>2021-07-01T13:39:43.000Z</time>
      </trkpt>
      <trkpt lat="43.31782" lon="3.4707">
        <ele>54</ele>
        <time>2021-07-01T13:39:50.000Z</time>
      </trkpt>
      <trkpt lat="43.31773" lon="3.47065">
        <ele>55</ele>
        <time>2021-07-01T13:39:55.000Z</time>
      </trkpt>
      <trkpt lat="43.31778" lon="3.47053">
        <ele>56</ele>
        <time>2021-07-01T13:40:04.000Z</time>
      </trkpt>
      <trkpt lat="43.31782" lon="3.4704">
        <ele>57</ele>
        <time>2021-07-01T13:40:10.000Z</time>
      </trkpt>
      <trkpt lat="43.31778" lon="3.47023">
        <ele>58</ele>
        <time>2021-07-01T13:40:15.000Z</time>
      </trkpt>
      <trkpt lat="43.31777" lon="3.47008">
        <ele>58</ele>
        <time>2021-07-01T13:40:19.000Z</time>
      </trkpt>
      <trkpt lat="43.31776" lon="3.46995">
        <ele>59</ele>
        <time>2021-07-01T13:40:22.000Z</time>
      </trkpt>
      <trkpt lat="43.31774" lon="3.46979">
        <ele>59</ele>
        <time>2021-07-01T13:40:26.000Z</time>
      </trkpt>
      <trkpt lat="43.31773" lon="3.46965">
        <ele>58</ele>
        <time>2021-07-01T13:40:29.000Z</time>
      </trkpt>
      <trkpt lat="43.31772" lon="3.46951">
        <ele>56</ele>
        <time>2021-07-01T13:40:32.000Z</time>
      </trkpt>
      <trkpt lat="43.31771" lon="3.46937">
        <ele>58</ele>
        <time>2021-07-01T13:40:35.000Z</time>
      </trkpt>
      <trkpt lat="43.31769" lon="3.46919">
        <ele>58</ele>
        <time>2021-07-01T13:40:39.000Z</time>
      </trkpt>
      <trkpt lat="43.31766" lon="3.46906">
        <ele>57</ele>
        <time>2021-07-01T13:40:42.000Z</time>
      </trkpt>
      <trkpt lat="43.3176" lon="3.46894">
        <ele>57</ele>
        <time>2021-07-01T13:40:46.000Z</time>
      </trkpt>
      <trkpt lat="43.3175" lon="3.46895">
        <ele>55</ele>
        <time>2021-07-01T13:41:05.000Z</time>
      </trkpt>
      <trkpt lat="43.31748" lon="3.46909">
        <ele>56</ele>
        <time>2021-07-01T13:41:09.000Z</time>
      </trkpt>
      <trkpt lat="43.31748" lon="3.46925">
        <ele>58</ele>
        <time>2021-07-01T13:41:13.000Z</time>
      </trkpt>
      <trkpt lat="43.31748" lon="3.46939">
        <ele>57</ele>
        <time>2021-07-01T13:41:17.000Z</time>
      </trkpt>
      <trkpt lat="43.31758" lon="3.46946">
        <ele>57</ele>
        <time>2021-07-01T13:41:20.000Z</time>
      </trkpt>
      <trkpt lat="43.31767" lon="3.46953">
        <ele>56</ele>
        <time>2021-07-01T13:41:23.000Z</time>
      </trkpt>
      <trkpt lat="43.31771" lon="3.46966">
        <ele>56</ele>
        <time>2021-07-01T13:41:26.000Z</time>
      </trkpt>
      <trkpt lat="43.31771" lon="3.46984">
        <ele>56</ele>
        <time>2021-07-01T13:41:30.000Z</time>
      </trkpt>
      <trkpt lat="43.31774" lon="3.47001">
        <ele>55</ele>
        <time>2021-07-01T13:41:33.000Z</time>
      </trkpt>
      <trkpt lat="43.31777" lon="3.47016">
        <ele>54</ele>
        <time>2021-07-01T13:41:36.000Z</time>
      </trkpt>
      <trkpt lat="43.31779" lon="3.47029">
        <ele>55</ele>
        <time>2021-07-01T13:41:39.000Z</time>
      </trkpt>
      <trkpt lat="43.3178" lon="3.47042">
        <ele>56</ele>
        <time>2021-07-01T13:41:42.000Z</time>
      </trkpt>
      <trkpt lat="43.31771" lon="3.47056">
        <ele>57</ele>
        <time>2021-07-01T13:41:47.000Z</time>
      </trkpt>
      <trkpt lat="43.31761" lon="3.47058">
        <ele>59</ele>
        <time>2021-07-01T13:41:51.000Z</time>
      </trkpt>
      <trkpt lat="43.31756" lon="3.4707">
        <ele>59</ele>
        <time>2021-07-01T13:41:57.000Z</time>
      </trkpt>
      <trkpt lat="43.31747" lon="3.47076">
        <ele>59</ele>
        <time>2021-07-01T13:42:03.000Z</time>
      </trkpt>
      <trkpt lat="43.31748" lon="3.47089">
        <ele>60</ele>
        <time>2021-07-01T13:42:10.000Z</time>
      </trkpt>
      <trkpt lat="43.31749" lon="3.47102">
        <ele>61</ele>
        <time>2021-07-01T13:42:14.000Z</time>
      </trkpt>
      <trkpt lat="43.31744" lon="3.47117">
        <ele>61</ele>
        <time>2021-07-01T13:42:18.000Z</time>
      </trkpt>
      <trkpt lat="43.31743" lon="3.47134">
        <ele>61</ele>
        <time>2021-07-01T13:42:23.000Z</time>
      </trkpt>
      <trkpt lat="43.31742" lon="3.47121">
        <ele>59</ele>
        <time>2021-07-01T13:42:34.000Z</time>
      </trkpt>
      <trkpt lat="43.31748" lon="3.47112">
        <ele>60</ele>
        <time>2021-07-01T13:42:37.000Z</time>
      </trkpt>
      <trkpt lat="43.31753" lon="3.47101">
        <ele>60</ele>
        <time>2021-07-01T13:42:40.000Z</time>
      </trkpt>
      <trkpt lat="43.31759" lon="3.4709">
        <ele>60</ele>
        <time>2021-07-01T13:42:44.000Z</time>
      </trkpt>
      <trkpt lat="43.31766" lon="3.47081">
        <ele>59</ele>
        <time>2021-07-01T13:42:49.000Z</time>
      </trkpt>
      <trkpt lat="43.31777" lon="3.47088">
        <ele>59</ele>
        <time>2021-07-01T13:42:55.000Z</time>
      </trkpt>
      <trkpt lat="43.31786" lon="3.47097">
        <ele>58</ele>
        <time>2021-07-01T13:42:59.000Z</time>
      </trkpt>
      <trkpt lat="43.3178" lon="3.47085">
        <ele>47</ele>
        <time>2021-07-01T13:44:18.000Z</time>
      </trkpt>
      <trkpt lat="43.3177" lon="3.47079">
        <ele>54</ele>
        <time>2021-07-01T13:44:51.000Z</time>
      </trkpt>
      <trkpt lat="43.3176" lon="3.47079">
        <ele>60</ele>
        <time>2021-07-01T13:44:56.000Z</time>
      </trkpt>
      <trkpt lat="43.3175" lon="3.47079">
        <ele>60</ele>
        <time>2021-07-01T13:44:59.000Z</time>
      </trkpt>
      <trkpt lat="43.31739" lon="3.47078">
        <ele>62</ele>
        <time>2021-07-01T13:45:02.000Z</time>
      </trkpt>
      <trkpt lat="43.31729" lon="3.47079">
        <ele>63</ele>
        <time>2021-07-01T13:45:05.000Z</time>
      </trkpt>
      <trkpt lat="43.31718" lon="3.47082">
        <ele>61</ele>
        <time>2021-07-01T13:45:08.000Z</time>
      </trkpt>
      <trkpt lat="43.31707" lon="3.47085">
        <ele>62</ele>
        <time>2021-07-01T13:45:11.000Z</time>
      </trkpt>
      <trkpt lat="43.31696" lon="3.47088">
        <ele>61</ele>
        <time>2021-07-01T13:45:14.000Z</time>
      </trkpt>
      <trkpt lat="43.31685" lon="3.4709">
        <ele>62</ele>
        <time>2021-07-01T13:45:17.000Z</time>
      </trkpt>
      <trkpt lat="43.31675" lon="3.47089">
        <ele>61</ele>
        <time>2021-07-01T13:45:20.000Z</time>
      </trkpt>
      <trkpt lat="43.31665" lon="3.47086">
        <ele>61</ele>
        <time>2021-07-01T13:45:23.000Z</time>
      </trkpt>
      <trkpt lat="43.31654" lon="3.47083">
        <ele>60</ele>
        <time>2021-07-01T13:45:26.000Z</time>
      </trkpt>
      <trkpt lat="43.31641" lon="3.4708">
        <ele>57</ele>
        <time>2021-07-01T13:45:29.000Z</time>
      </trkpt>
      <trkpt lat="43.31631" lon="3.47077">
        <ele>56</ele>
        <time>2021-07-01T13:45:32.000Z</time>
      </trkpt>
      <trkpt lat="43.31621" lon="3.47069">
        <ele>53</ele>
        <time>2021-07-01T13:45:35.000Z</time>
      </trkpt>
      <trkpt lat="43.31613" lon="3.47058">
        <ele>53</ele>
        <time>2021-07-01T13:45:38.000Z</time>
      </trkpt>
      <trkpt lat="43.31605" lon="3.47044">
        <ele>53</ele>
        <time>2021-07-01T13:45:41.000Z</time>
      </trkpt>
      <trkpt lat="43.31598" lon="3.47031">
        <ele>52</ele>
        <time>2021-07-01T13:45:44.000Z</time>
      </trkpt>
      <trkpt lat="43.31593" lon="3.47017">
        <ele>52</ele>
        <time>2021-07-01T13:45:47.000Z</time>
      </trkpt>
      <trkpt lat="43.31593" lon="3.47005">
        <ele>53</ele>
        <time>2021-07-01T13:45:50.000Z</time>
      </trkpt>
      <trkpt lat="43.31596" lon="3.4699">
        <ele>54</ele>
        <time>2021-07-01T13:45:53.000Z</time>
      </trkpt>
      <trkpt lat="43.31599" lon="3.46975">
        <ele>55</ele>
        <time>2021-07-01T13:45:56.000Z</time>
      </trkpt>
      <trkpt lat="43.31596" lon="3.4696">
        <ele>55</ele>
        <time>2021-07-01T13:45:59.000Z</time>
      </trkpt>
      <trkpt lat="43.31588" lon="3.46953">
        <ele>56</ele>
        <time>2021-07-01T13:46:02.000Z</time>
      </trkpt>
      <trkpt lat="43.3158" lon="3.46946">
        <ele>56</ele>
        <time>2021-07-01T13:46:05.000Z</time>
      </trkpt>
      <trkpt lat="43.31573" lon="3.46938">
        <ele>55</ele>
        <time>2021-07-01T13:46:10.000Z</time>
      </trkpt>
      <trkpt lat="43.31565" lon="3.46932">
        <ele>54</ele>
        <time>2021-07-01T13:46:14.000Z</time>
      </trkpt>
      <trkpt lat="43.31558" lon="3.46923">
        <ele>55</ele>
        <time>2021-07-01T13:46:18.000Z</time>
      </trkpt>
      <trkpt lat="43.31554" lon="3.46908">
        <ele>55</ele>
        <time>2021-07-01T13:46:24.000Z</time>
      </trkpt>
      <trkpt lat="43.31551" lon="3.46893">
        <ele>56</ele>
        <time>2021-07-01T13:46:30.000Z</time>
      </trkpt>
      <trkpt lat="43.31549" lon="3.46878">
        <ele>56</ele>
        <time>2021-07-01T13:46:34.000Z</time>
      </trkpt>
      <trkpt lat="43.31542" lon="3.46868">
        <ele>57</ele>
        <time>2021-07-01T13:46:39.000Z</time>
      </trkpt>
      <trkpt lat="43.31534" lon="3.46863">
        <ele>57</ele>
        <time>2021-07-01T13:46:43.000Z</time>
      </trkpt>
      <trkpt lat="43.31528" lon="3.46852">
        <ele>57</ele>
        <time>2021-07-01T13:46:47.000Z</time>
      </trkpt>
      <trkpt lat="43.31518" lon="3.46851">
        <ele>58</ele>
        <time>2021-07-01T13:46:53.000Z</time>
      </trkpt>
      <trkpt lat="43.31513" lon="3.46863">
        <ele>58</ele>
        <time>2021-07-01T13:46:56.000Z</time>
      </trkpt>
      <trkpt lat="43.31509" lon="3.46877">
        <ele>58</ele>
        <time>2021-07-01T13:46:59.000Z</time>
      </trkpt>
      <trkpt lat="43.31504" lon="3.46889">
        <ele>58</ele>
        <time>2021-07-01T13:47:02.000Z</time>
      </trkpt>
      <trkpt lat="43.31499" lon="3.46902">
        <ele>58</ele>
        <time>2021-07-01T13:47:05.000Z</time>
      </trkpt>
      <trkpt lat="43.31494" lon="3.46914">
        <ele>59</ele>
        <time>2021-07-01T13:47:08.000Z</time>
      </trkpt>
      <trkpt lat="43.31489" lon="3.46928">
        <ele>58</ele>
        <time>2021-07-01T13:47:11.000Z</time>
      </trkpt>
      <trkpt lat="43.31484" lon="3.46942">
        <ele>57</ele>
        <time>2021-07-01T13:47:14.000Z</time>
      </trkpt>
      <trkpt lat="43.31478" lon="3.46956">
        <ele>56</ele>
        <time>2021-07-01T13:47:17.000Z</time>
      </trkpt>
      <trkpt lat="43.31473" lon="3.4697">
        <ele>56</ele>
        <time>2021-07-01T13:47:20.000Z</time>
      </trkpt>
      <trkpt lat="43.31482" lon="3.46967">
        <ele>57</ele>
        <time>2021-07-01T13:47:33.000Z</time>
      </trkpt>
      <trkpt lat="43.31488" lon="3.46955">
        <ele>57</ele>
        <time>2021-07-01T13:47:36.000Z</time>
      </trkpt>
      <trkpt lat="43.31494" lon="3.46942">
        <ele>57</ele>
        <time>2021-07-01T13:47:40.000Z</time>
      </trkpt>
      <trkpt lat="43.31484" lon="3.4694">
        <ele>58</ele>
        <time>2021-07-01T13:48:43.000Z</time>
      </trkpt>
      <trkpt lat="43.31478" lon="3.46953">
        <ele>57</ele>
        <time>2021-07-01T13:48:46.000Z</time>
      </trkpt>
      <trkpt lat="43.31474" lon="3.46965">
        <ele>56</ele>
        <time>2021-07-01T13:48:49.000Z</time>
      </trkpt>
      <trkpt lat="43.31469" lon="3.46976">
        <ele>56</ele>
        <time>2021-07-01T13:48:53.000Z</time>
      </trkpt>
      <trkpt lat="43.31469" lon="3.4699">
        <ele>52</ele>
        <time>2021-07-01T13:54:45.000Z</time>
      </trkpt>
      <trkpt lat="43.31475" lon="3.47002">
        <ele>52</ele>
        <time>2021-07-01T13:54:48.000Z</time>
      </trkpt>
      <trkpt lat="43.3148" lon="3.47012">
        <ele>52</ele>
        <time>2021-07-01T13:54:50.000Z</time>
      </trkpt>
      <trkpt lat="43.31488" lon="3.47027">
        <ele>53</ele>
        <time>2021-07-01T13:54:53.000Z</time>
      </trkpt>
      <trkpt lat="43.31495" lon="3.47037">
        <ele>53</ele>
        <time>2021-07-01T13:54:55.000Z</time>
      </trkpt>
      <trkpt lat="43.31501" lon="3.47047">
        <ele>53</ele>
        <time>2021-07-01T13:54:57.000Z</time>
      </trkpt>
      <trkpt lat="43.31509" lon="3.47058">
        <ele>52</ele>
        <time>2021-07-01T13:55:00.000Z</time>
      </trkpt>
      <trkpt lat="43.31517" lon="3.47069">
        <ele>52</ele>
        <time>2021-07-01T13:55:04.000Z</time>
      </trkpt>
      <trkpt lat="43.31513" lon="3.47082">
        <ele>53</ele>
        <time>2021-07-01T13:55:10.000Z</time>
      </trkpt>
      <trkpt lat="43.31505" lon="3.47091">
        <ele>52</ele>
        <time>2021-07-01T13:55:16.000Z</time>
      </trkpt>
      <trkpt lat="43.31504" lon="3.47105">
        <ele>53</ele>
        <time>2021-07-01T13:55:20.000Z</time>
      </trkpt>
      <trkpt lat="43.31503" lon="3.47118">
        <ele>53</ele>
        <time>2021-07-01T13:55:24.000Z</time>
      </trkpt>
      <trkpt lat="43.31502" lon="3.47135">
        <ele>53</ele>
        <time>2021-07-01T13:55:28.000Z</time>
      </trkpt>
      <trkpt lat="43.31497" lon="3.47146">
        <ele>52</ele>
        <time>2021-07-01T13:55:31.000Z</time>
      </trkpt>
      <trkpt lat="43.31487" lon="3.47154">
        <ele>53</ele>
        <time>2021-07-01T13:55:34.000Z</time>
      </trkpt>
      <trkpt lat="43.31478" lon="3.47164">
        <ele>52</ele>
        <time>2021-07-01T13:55:37.000Z</time>
      </trkpt>
      <trkpt lat="43.31469" lon="3.4717">
        <ele>51</ele>
        <time>2021-07-01T13:55:40.000Z</time>
      </trkpt>
      <trkpt lat="43.3146" lon="3.47179">
        <ele>52</ele>
        <time>2021-07-01T13:55:43.000Z</time>
      </trkpt>
      <trkpt lat="43.31451" lon="3.47188">
        <ele>52</ele>
        <time>2021-07-01T13:55:46.000Z</time>
      </trkpt>
      <trkpt lat="43.31441" lon="3.47196">
        <ele>51</ele>
        <time>2021-07-01T13:55:49.000Z</time>
      </trkpt>
      <trkpt lat="43.31431" lon="3.472">
        <ele>52</ele>
        <time>2021-07-01T13:55:52.000Z</time>
      </trkpt>
      <trkpt lat="43.31419" lon="3.47201">
        <ele>52</ele>
        <time>2021-07-01T13:55:55.000Z</time>
      </trkpt>
      <trkpt lat="43.31408" lon="3.47203">
        <ele>54</ele>
        <time>2021-07-01T13:55:58.000Z</time>
      </trkpt>
      <trkpt lat="43.31398" lon="3.47205">
        <ele>56</ele>
        <time>2021-07-01T13:56:01.000Z</time>
      </trkpt>
      <trkpt lat="43.31386" lon="3.47209">
        <ele>56</ele>
        <time>2021-07-01T13:56:04.000Z</time>
      </trkpt>
      <trkpt lat="43.31376" lon="3.47212">
        <ele>57</ele>
        <time>2021-07-01T13:56:07.000Z</time>
      </trkpt>
      <trkpt lat="43.3136" lon="3.47214">
        <ele>58</ele>
        <time>2021-07-01T13:56:13.000Z</time>
      </trkpt>
      <trkpt lat="43.3135" lon="3.47212">
        <ele>59</ele>
        <time>2021-07-01T13:56:17.000Z</time>
      </trkpt>
      <trkpt lat="43.3134" lon="3.47214">
        <ele>59</ele>
        <time>2021-07-01T13:56:20.000Z</time>
      </trkpt>
      <trkpt lat="43.31335" lon="3.47229">
        <ele>58</ele>
        <time>2021-07-01T13:56:24.000Z</time>
      </trkpt>
      <trkpt lat="43.31329" lon="3.47243">
        <ele>59</ele>
        <time>2021-07-01T13:56:27.000Z</time>
      </trkpt>
      <trkpt lat="43.31322" lon="3.47255">
        <ele>57</ele>
        <time>2021-07-01T13:56:30.000Z</time>
      </trkpt>
      <trkpt lat="43.31315" lon="3.47266">
        <ele>56</ele>
        <time>2021-07-01T13:56:33.000Z</time>
      </trkpt>
      <trkpt lat="43.3131" lon="3.4728">
        <ele>56</ele>
        <time>2021-07-01T13:56:36.000Z</time>
      </trkpt>
      <trkpt lat="43.31303" lon="3.47298">
        <ele>56</ele>
        <time>2021-07-01T13:56:40.000Z</time>
      </trkpt>
      <trkpt lat="43.31298" lon="3.47312">
        <ele>55</ele>
        <time>2021-07-01T13:56:43.000Z</time>
      </trkpt>
      <trkpt lat="43.31292" lon="3.47325">
        <ele>54</ele>
        <time>2021-07-01T13:56:46.000Z</time>
      </trkpt>
      <trkpt lat="43.31286" lon="3.47338">
        <ele>55</ele>
        <time>2021-07-01T13:56:49.000Z</time>
      </trkpt>
      <trkpt lat="43.31283" lon="3.47352">
        <ele>57</ele>
        <time>2021-07-01T13:56:52.000Z</time>
      </trkpt>
      <trkpt lat="43.31278" lon="3.47366">
        <ele>56</ele>
        <time>2021-07-01T13:56:55.000Z</time>
      </trkpt>
      <trkpt lat="43.31272" lon="3.47379">
        <ele>56</ele>
        <time>2021-07-01T13:56:58.000Z</time>
      </trkpt>
      <trkpt lat="43.31267" lon="3.47393">
        <ele>55</ele>
        <time>2021-07-01T13:57:01.000Z</time>
      </trkpt>
      <trkpt lat="43.3126" lon="3.47409">
        <ele>56</ele>
        <time>2021-07-01T13:57:05.000Z</time>
      </trkpt>
      <trkpt lat="43.31254" lon="3.47424">
        <ele>58</ele>
        <time>2021-07-01T13:57:08.000Z</time>
      </trkpt>
      <trkpt lat="43.31248" lon="3.47437">
        <ele>58</ele>
        <time>2021-07-01T13:57:11.000Z</time>
      </trkpt>
      <trkpt lat="43.31245" lon="3.47453">
        <ele>57</ele>
        <time>2021-07-01T13:57:14.000Z</time>
      </trkpt>
      <trkpt lat="43.31239" lon="3.47466">
        <ele>57</ele>
        <time>2021-07-01T13:57:17.000Z</time>
      </trkpt>
      <trkpt lat="43.31231" lon="3.47482">
        <ele>56</ele>
        <time>2021-07-01T13:57:21.000Z</time>
      </trkpt>
      <trkpt lat="43.31226" lon="3.47495">
        <ele>57</ele>
        <time>2021-07-01T13:57:24.000Z</time>
      </trkpt>
      <trkpt lat="43.31221" lon="3.4751">
        <ele>56</ele>
        <time>2021-07-01T13:57:27.000Z</time>
      </trkpt>
      <trkpt lat="43.31214" lon="3.47523">
        <ele>55</ele>
        <time>2021-07-01T13:57:30.000Z</time>
      </trkpt>
      <trkpt lat="43.31207" lon="3.47537">
        <ele>55</ele>
        <time>2021-07-01T13:57:33.000Z</time>
      </trkpt>
      <trkpt lat="43.31201" lon="3.47552">
        <ele>55</ele>
        <time>2021-07-01T13:57:36.000Z</time>
      </trkpt>
      <trkpt lat="43.31192" lon="3.4757">
        <ele>53</ele>
        <time>2021-07-01T13:57:40.000Z</time>
      </trkpt>
      <trkpt lat="43.31187" lon="3.47584">
        <ele>54</ele>
        <time>2021-07-01T13:57:43.000Z</time>
      </trkpt>
      <trkpt lat="43.31182" lon="3.47598">
        <ele>55</ele>
        <time>2021-07-01T13:57:46.000Z</time>
      </trkpt>
      <trkpt lat="43.31174" lon="3.47612">
        <ele>55</ele>
        <time>2021-07-01T13:57:49.000Z</time>
      </trkpt>
      <trkpt lat="43.31169" lon="3.47628">
        <ele>56</ele>
        <time>2021-07-01T13:57:52.000Z</time>
      </trkpt>
      <trkpt lat="43.31164" lon="3.47642">
        <ele>56</ele>
        <time>2021-07-01T13:57:55.000Z</time>
      </trkpt>
      <trkpt lat="43.31159" lon="3.47655">
        <ele>56</ele>
        <time>2021-07-01T13:57:58.000Z</time>
      </trkpt>
      <trkpt lat="43.31154" lon="3.4767">
        <ele>57</ele>
        <time>2021-07-01T13:58:01.000Z</time>
      </trkpt>
      <trkpt lat="43.31149" lon="3.47684">
        <ele>56</ele>
        <time>2021-07-01T13:58:04.000Z</time>
      </trkpt>
      <trkpt lat="43.31143" lon="3.47698">
        <ele>56</ele>
        <time>2021-07-01T13:58:07.000Z</time>
      </trkpt>
      <trkpt lat="43.31134" lon="3.4771">
        <ele>57</ele>
        <time>2021-07-01T13:58:10.000Z</time>
      </trkpt>
      <trkpt lat="43.31127" lon="3.47724">
        <ele>57</ele>
        <time>2021-07-01T13:58:13.000Z</time>
      </trkpt>
      <trkpt lat="43.31123" lon="3.47742">
        <ele>57</ele>
        <time>2021-07-01T13:58:16.000Z</time>
      </trkpt>
      <trkpt lat="43.31121" lon="3.4776">
        <ele>57</ele>
        <time>2021-07-01T13:58:19.000Z</time>
      </trkpt>
      <trkpt lat="43.3112" lon="3.47775">
        <ele>58</ele>
        <time>2021-07-01T13:58:22.000Z</time>
      </trkpt>
      <trkpt lat="43.3112" lon="3.47791">
        <ele>59</ele>
        <time>2021-07-01T13:58:25.000Z</time>
      </trkpt>
      <trkpt lat="43.31117" lon="3.47805">
        <ele>59</ele>
        <time>2021-07-01T13:58:28.000Z</time>
      </trkpt>
      <trkpt lat="43.31111" lon="3.47815">
        <ele>60</ele>
        <time>2021-07-01T13:58:31.000Z</time>
      </trkpt>
      <trkpt lat="43.31099" lon="3.47814">
        <ele>61</ele>
        <time>2021-07-01T13:58:34.000Z</time>
      </trkpt>
      <trkpt lat="43.31091" lon="3.47808">
        <ele>62</ele>
        <time>2021-07-01T13:58:36.000Z</time>
      </trkpt>
      <trkpt lat="43.31081" lon="3.47803">
        <ele>61</ele>
        <time>2021-07-01T13:58:38.000Z</time>
      </trkpt>
      <trkpt lat="43.31072" lon="3.47797">
        <ele>62</ele>
        <time>2021-07-01T13:58:40.000Z</time>
      </trkpt>
      <trkpt lat="43.31063" lon="3.47794">
        <ele>64</ele>
        <time>2021-07-01T13:58:42.000Z</time>
      </trkpt>
      <trkpt lat="43.31053" lon="3.47793">
        <ele>64</ele>
        <time>2021-07-01T13:58:44.000Z</time>
      </trkpt>
      <trkpt lat="43.31041" lon="3.47792">
        <ele>63</ele>
        <time>2021-07-01T13:58:47.000Z</time>
      </trkpt>
      <trkpt lat="43.31028" lon="3.47788">
        <ele>63</ele>
        <time>2021-07-01T13:58:50.000Z</time>
      </trkpt>
      <trkpt lat="43.31015" lon="3.47782">
        <ele>63</ele>
        <time>2021-07-01T13:58:53.000Z</time>
      </trkpt>
      <trkpt lat="43.31002" lon="3.47776">
        <ele>62</ele>
        <time>2021-07-01T13:58:56.000Z</time>
      </trkpt>
      <trkpt lat="43.30989" lon="3.47769">
        <ele>62</ele>
        <time>2021-07-01T13:58:59.000Z</time>
      </trkpt>
      <trkpt lat="43.3098" lon="3.47764">
        <ele>62</ele>
        <time>2021-07-01T13:59:01.000Z</time>
      </trkpt>
      <trkpt lat="43.30971" lon="3.4776">
        <ele>63</ele>
        <time>2021-07-01T13:59:03.000Z</time>
      </trkpt>
      <trkpt lat="43.30959" lon="3.47754">
        <ele>62</ele>
        <time>2021-07-01T13:59:06.000Z</time>
      </trkpt>
      <trkpt lat="43.30951" lon="3.47749">
        <ele>62</ele>
        <time>2021-07-01T13:59:08.000Z</time>
      </trkpt>
      <trkpt lat="43.3094" lon="3.4774">
        <ele>63</ele>
        <time>2021-07-01T13:59:11.000Z</time>
      </trkpt>
      <trkpt lat="43.30932" lon="3.47733">
        <ele>62</ele>
        <time>2021-07-01T13:59:13.000Z</time>
      </trkpt>
      <trkpt lat="43.30921" lon="3.47725">
        <ele>63</ele>
        <time>2021-07-01T13:59:16.000Z</time>
      </trkpt>
      <trkpt lat="43.30912" lon="3.47714">
        <ele>63</ele>
        <time>2021-07-01T13:59:19.000Z</time>
      </trkpt>
      <trkpt lat="43.30904" lon="3.47705">
        <ele>63</ele>
        <time>2021-07-01T13:59:22.000Z</time>
      </trkpt>
      <trkpt lat="43.30896" lon="3.47696">
        <ele>63</ele>
        <time>2021-07-01T13:59:26.000Z</time>
      </trkpt>
      <trkpt lat="43.30889" lon="3.47685">
        <ele>63</ele>
        <time>2021-07-01T13:59:30.000Z</time>
      </trkpt>
      <trkpt lat="43.30884" lon="3.47674">
        <ele>62</ele>
        <time>2021-07-01T13:59:33.000Z</time>
      </trkpt>
      <trkpt lat="43.30874" lon="3.47667">
        <ele>62</ele>
        <time>2021-07-01T13:59:36.000Z</time>
      </trkpt>
      <trkpt lat="43.30864" lon="3.47656">
        <ele>63</ele>
        <time>2021-07-01T13:59:39.000Z</time>
      </trkpt>
      <trkpt lat="43.30858" lon="3.47646">
        <ele>64</ele>
        <time>2021-07-01T13:59:41.000Z</time>
      </trkpt>
      <trkpt lat="43.30847" lon="3.4763">
        <ele>65</ele>
        <time>2021-07-01T13:59:45.000Z</time>
      </trkpt>
      <trkpt lat="43.30839" lon="3.47618">
        <ele>64</ele>
        <time>2021-07-01T13:59:48.000Z</time>
      </trkpt>
      <trkpt lat="43.30831" lon="3.47606">
        <ele>64</ele>
        <time>2021-07-01T13:59:51.000Z</time>
      </trkpt>
      <trkpt lat="43.30827" lon="3.47589">
        <ele>64</ele>
        <time>2021-07-01T13:59:54.000Z</time>
      </trkpt>
      <trkpt lat="43.30822" lon="3.47579">
        <ele>64</ele>
        <time>2021-07-01T13:59:56.000Z</time>
      </trkpt>
      <trkpt lat="43.30817" lon="3.47568">
        <ele>64</ele>
        <time>2021-07-01T13:59:58.000Z</time>
      </trkpt>
      <trkpt lat="43.3081" lon="3.47554">
        <ele>64</ele>
        <time>2021-07-01T14:00:01.000Z</time>
      </trkpt>
      <trkpt lat="43.30802" lon="3.47535">
        <ele>64</ele>
        <time>2021-07-01T14:00:05.000Z</time>
      </trkpt>
      <trkpt lat="43.30797" lon="3.47523">
        <ele>65</ele>
        <time>2021-07-01T14:00:08.000Z</time>
      </trkpt>
      <trkpt lat="43.30795" lon="3.47509">
        <ele>65</ele>
        <time>2021-07-01T14:00:11.000Z</time>
      </trkpt>
      <trkpt lat="43.30788" lon="3.47494">
        <ele>64</ele>
        <time>2021-07-01T14:00:14.000Z</time>
      </trkpt>
      <trkpt lat="43.30782" lon="3.47482">
        <ele>65</ele>
        <time>2021-07-01T14:00:17.000Z</time>
      </trkpt>
      <trkpt lat="43.30774" lon="3.47471">
        <ele>65</ele>
        <time>2021-07-01T14:00:20.000Z</time>
      </trkpt>
      <trkpt lat="43.30767" lon="3.47456">
        <ele>64</ele>
        <time>2021-07-01T14:00:23.000Z</time>
      </trkpt>
      <trkpt lat="43.30763" lon="3.47442">
        <ele>65</ele>
        <time>2021-07-01T14:00:26.000Z</time>
      </trkpt>
      <trkpt lat="43.30758" lon="3.47428">
        <ele>65</ele>
        <time>2021-07-01T14:00:29.000Z</time>
      </trkpt>
      <trkpt lat="43.30752" lon="3.47412">
        <ele>64</ele>
        <time>2021-07-01T14:00:32.000Z</time>
      </trkpt>
      <trkpt lat="43.30746" lon="3.47396">
        <ele>64</ele>
        <time>2021-07-01T14:00:35.000Z</time>
      </trkpt>
      <trkpt lat="43.30743" lon="3.47385">
        <ele>64</ele>
        <time>2021-07-01T14:00:37.000Z</time>
      </trkpt>
      <trkpt lat="43.30737" lon="3.47366">
        <ele>62</ele>
        <time>2021-07-01T14:00:40.000Z</time>
      </trkpt>
      <trkpt lat="43.30733" lon="3.47355">
        <ele>63</ele>
        <time>2021-07-01T14:00:42.000Z</time>
      </trkpt>
      <trkpt lat="43.3073" lon="3.47337">
        <ele>64</ele>
        <time>2021-07-01T14:00:45.000Z</time>
      </trkpt>
      <trkpt lat="43.30726" lon="3.47326">
        <ele>64</ele>
        <time>2021-07-01T14:00:47.000Z</time>
      </trkpt>
      <trkpt lat="43.30722" lon="3.47314">
        <ele>64</ele>
        <time>2021-07-01T14:00:49.000Z</time>
      </trkpt>
      <trkpt lat="43.30718" lon="3.47297">
        <ele>64</ele>
        <time>2021-07-01T14:00:52.000Z</time>
      </trkpt>
      <trkpt lat="43.30714" lon="3.47279">
        <ele>64</ele>
        <time>2021-07-01T14:00:55.000Z</time>
      </trkpt>
      <trkpt lat="43.30713" lon="3.47262">
        <ele>63</ele>
        <time>2021-07-01T14:00:58.000Z</time>
      </trkpt>
      <trkpt lat="43.30709" lon="3.47248">
        <ele>64</ele>
        <time>2021-07-01T14:01:01.000Z</time>
      </trkpt>
      <trkpt lat="43.30705" lon="3.47236">
        <ele>64</ele>
        <time>2021-07-01T14:01:03.000Z</time>
      </trkpt>
      <trkpt lat="43.30701" lon="3.4722">
        <ele>64</ele>
        <time>2021-07-01T14:01:06.000Z</time>
      </trkpt>
      <trkpt lat="43.30697" lon="3.47207">
        <ele>65</ele>
        <time>2021-07-01T14:01:08.000Z</time>
      </trkpt>
      <trkpt lat="43.30695" lon="3.47194">
        <ele>65</ele>
        <time>2021-07-01T14:01:10.000Z</time>
      </trkpt>
      <trkpt lat="43.30693" lon="3.47182">
        <ele>65</ele>
        <time>2021-07-01T14:01:12.000Z</time>
      </trkpt>
      <trkpt lat="43.30691" lon="3.47168">
        <ele>66</ele>
        <time>2021-07-01T14:01:14.000Z</time>
      </trkpt>
      <trkpt lat="43.30689" lon="3.47154">
        <ele>66</ele>
        <time>2021-07-01T14:01:16.000Z</time>
      </trkpt>
      <trkpt lat="43.30687" lon="3.4714">
        <ele>66</ele>
        <time>2021-07-01T14:01:18.000Z</time>
      </trkpt>
      <trkpt lat="43.30685" lon="3.47126">
        <ele>66</ele>
        <time>2021-07-01T14:01:20.000Z</time>
      </trkpt>
      <trkpt lat="43.30683" lon="3.47105">
        <ele>64</ele>
        <time>2021-07-01T14:01:23.000Z</time>
      </trkpt>
      <trkpt lat="43.30681" lon="3.47091">
        <ele>64</ele>
        <time>2021-07-01T14:01:25.000Z</time>
      </trkpt>
      <trkpt lat="43.30679" lon="3.47078">
        <ele>63</ele>
        <time>2021-07-01T14:01:27.000Z</time>
      </trkpt>
      <trkpt lat="43.30675" lon="3.47057">
        <ele>63</ele>
        <time>2021-07-01T14:01:30.000Z</time>
      </trkpt>
      <trkpt lat="43.30674" lon="3.47043">
        <ele>63</ele>
        <time>2021-07-01T14:01:32.000Z</time>
      </trkpt>
      <trkpt lat="43.30673" lon="3.47028">
        <ele>62</ele>
        <time>2021-07-01T14:01:34.000Z</time>
      </trkpt>
      <trkpt lat="43.3067" lon="3.47013">
        <ele>62</ele>
        <time>2021-07-01T14:01:36.000Z</time>
      </trkpt>
      <trkpt lat="43.30669" lon="3.46988">
        <ele>61</ele>
        <time>2021-07-01T14:01:39.000Z</time>
      </trkpt>
      <trkpt lat="43.30668" lon="3.46973">
        <ele>61</ele>
        <time>2021-07-01T14:01:41.000Z</time>
      </trkpt>
      <trkpt lat="43.30666" lon="3.46958">
        <ele>61</ele>
        <time>2021-07-01T14:01:43.000Z</time>
      </trkpt>
      <trkpt lat="43.30664" lon="3.46944">
        <ele>60</ele>
        <time>2021-07-01T14:01:45.000Z</time>
      </trkpt>
      <trkpt lat="43.30664" lon="3.46929">
        <ele>59</ele>
        <time>2021-07-01T14:01:48.000Z</time>
      </trkpt>
      <trkpt lat="43.30663" lon="3.46915">
        <ele>57</ele>
        <time>2021-07-01T14:01:51.000Z</time>
      </trkpt>
      <trkpt lat="43.30661" lon="3.469">
        <ele>57</ele>
        <time>2021-07-01T14:01:54.000Z</time>
      </trkpt>
      <trkpt lat="43.30661" lon="3.46887">
        <ele>56</ele>
        <time>2021-07-01T14:01:56.000Z</time>
      </trkpt>
      <trkpt lat="43.30662" lon="3.46873">
        <ele>55</ele>
        <time>2021-07-01T14:01:58.000Z</time>
      </trkpt>
      <trkpt lat="43.30662" lon="3.46859">
        <ele>55</ele>
        <time>2021-07-01T14:02:00.000Z</time>
      </trkpt>
      <trkpt lat="43.30663" lon="3.46845">
        <ele>55</ele>
        <time>2021-07-01T14:02:02.000Z</time>
      </trkpt>
      <trkpt lat="43.30665" lon="3.46823">
        <ele>55</ele>
        <time>2021-07-01T14:02:05.000Z</time>
      </trkpt>
      <trkpt lat="43.30668" lon="3.46808">
        <ele>56</ele>
        <time>2021-07-01T14:02:07.000Z</time>
      </trkpt>
      <trkpt lat="43.30669" lon="3.46792">
        <ele>56</ele>
        <time>2021-07-01T14:02:09.000Z</time>
      </trkpt>
      <trkpt lat="43.30671" lon="3.46777">
        <ele>55</ele>
        <time>2021-07-01T14:02:11.000Z</time>
      </trkpt>
      <trkpt lat="43.30676" lon="3.46755">
        <ele>54</ele>
        <time>2021-07-01T14:02:14.000Z</time>
      </trkpt>
      <trkpt lat="43.30679" lon="3.46741">
        <ele>54</ele>
        <time>2021-07-01T14:02:16.000Z</time>
      </trkpt>
      <trkpt lat="43.30683" lon="3.46729">
        <ele>53</ele>
        <time>2021-07-01T14:02:18.000Z</time>
      </trkpt>
      <trkpt lat="43.30685" lon="3.46717">
        <ele>52</ele>
        <time>2021-07-01T14:02:20.000Z</time>
      </trkpt>
      <trkpt lat="43.30687" lon="3.46705">
        <ele>52</ele>
        <time>2021-07-01T14:02:22.000Z</time>
      </trkpt>
      <trkpt lat="43.30689" lon="3.46688">
        <ele>53</ele>
        <time>2021-07-01T14:02:25.000Z</time>
      </trkpt>
      <trkpt lat="43.30691" lon="3.46675">
        <ele>52</ele>
        <time>2021-07-01T14:02:27.000Z</time>
      </trkpt>
      <trkpt lat="43.30694" lon="3.46663">
        <ele>53</ele>
        <time>2021-07-01T14:02:29.000Z</time>
      </trkpt>
      <trkpt lat="43.30696" lon="3.4665">
        <ele>53</ele>
        <time>2021-07-01T14:02:31.000Z</time>
      </trkpt>
      <trkpt lat="43.30697" lon="3.46633">
        <ele>53</ele>
        <time>2021-07-01T14:02:34.000Z</time>
      </trkpt>
      <trkpt lat="43.30699" lon="3.46619">
        <ele>54</ele>
        <time>2021-07-01T14:02:37.000Z</time>
      </trkpt>
      <trkpt lat="43.30701" lon="3.46605">
        <ele>55</ele>
        <time>2021-07-01T14:02:40.000Z</time>
      </trkpt>
      <trkpt lat="43.30703" lon="3.46592">
        <ele>54</ele>
        <time>2021-07-01T14:02:43.000Z</time>
      </trkpt>
      <trkpt lat="43.3071" lon="3.46576">
        <ele>53</ele>
        <time>2021-07-01T14:02:47.000Z</time>
      </trkpt>
      <trkpt lat="43.30718" lon="3.46567">
        <ele>53</ele>
        <time>2021-07-01T14:02:50.000Z</time>
      </trkpt>
      <trkpt lat="43.30721" lon="3.46554">
        <ele>53</ele>
        <time>2021-07-01T14:02:54.000Z</time>
      </trkpt>
      <trkpt lat="43.3072" lon="3.46539">
        <ele>53</ele>
        <time>2021-07-01T14:02:59.000Z</time>
      </trkpt>
      <trkpt lat="43.30709" lon="3.46536">
        <ele>52</ele>
        <time>2021-07-01T14:03:03.000Z</time>
      </trkpt>
      <trkpt lat="43.30691" lon="3.46537">
        <ele>52</ele>
        <time>2021-07-01T14:03:07.000Z</time>
      </trkpt>
      <trkpt lat="43.30682" lon="3.46538">
        <ele>52</ele>
        <time>2021-07-01T14:03:09.000Z</time>
      </trkpt>
      <trkpt lat="43.30666" lon="3.46536">
        <ele>50</ele>
        <time>2021-07-01T14:03:13.000Z</time>
      </trkpt>
      <trkpt lat="43.30654" lon="3.46537">
        <ele>50</ele>
        <time>2021-07-01T14:03:16.000Z</time>
      </trkpt>
      <trkpt lat="43.30642" lon="3.46537">
        <ele>50</ele>
        <time>2021-07-01T14:03:19.000Z</time>
      </trkpt>
      <trkpt lat="43.30628" lon="3.46538">
        <ele>49</ele>
        <time>2021-07-01T14:03:22.000Z</time>
      </trkpt>
      <trkpt lat="43.30618" lon="3.46536">
        <ele>47</ele>
        <time>2021-07-01T14:03:25.000Z</time>
      </trkpt>
      <trkpt lat="43.30605" lon="3.46537">
        <ele>48</ele>
        <time>2021-07-01T14:03:28.000Z</time>
      </trkpt>
      <trkpt lat="43.30594" lon="3.46539">
        <ele>49</ele>
        <time>2021-07-01T14:03:30.000Z</time>
      </trkpt>
      <trkpt lat="43.30585" lon="3.4654">
        <ele>48</ele>
        <time>2021-07-01T14:03:32.000Z</time>
      </trkpt>
      <trkpt lat="43.30573" lon="3.46541">
        <ele>49</ele>
        <time>2021-07-01T14:03:35.000Z</time>
      </trkpt>
      <trkpt lat="43.30564" lon="3.4654">
        <ele>50</ele>
        <time>2021-07-01T14:03:37.000Z</time>
      </trkpt>
      <trkpt lat="43.30551" lon="3.46543">
        <ele>48</ele>
        <time>2021-07-01T14:03:40.000Z</time>
      </trkpt>
      <trkpt lat="43.30539" lon="3.46543">
        <ele>49</ele>
        <time>2021-07-01T14:03:43.000Z</time>
      </trkpt>
      <trkpt lat="43.30529" lon="3.46543">
        <ele>49</ele>
        <time>2021-07-01T14:03:45.000Z</time>
      </trkpt>
      <trkpt lat="43.30515" lon="3.46543">
        <ele>49</ele>
        <time>2021-07-01T14:03:48.000Z</time>
      </trkpt>
      <trkpt lat="43.30503" lon="3.46543">
        <ele>50</ele>
        <time>2021-07-01T14:03:51.000Z</time>
      </trkpt>
      <trkpt lat="43.3049" lon="3.46542">
        <ele>51</ele>
        <time>2021-07-01T14:03:54.000Z</time>
      </trkpt>
      <trkpt lat="43.30478" lon="3.46543">
        <ele>51</ele>
        <time>2021-07-01T14:03:57.000Z</time>
      </trkpt>
      <trkpt lat="43.30466" lon="3.46544">
        <ele>52</ele>
        <time>2021-07-01T14:04:00.000Z</time>
      </trkpt>
      <trkpt lat="43.30456" lon="3.46543">
        <ele>52</ele>
        <time>2021-07-01T14:04:02.000Z</time>
      </trkpt>
      <trkpt lat="43.30438" lon="3.46541">
        <ele>50</ele>
        <time>2021-07-01T14:04:06.000Z</time>
      </trkpt>
      <trkpt lat="43.30426" lon="3.46537">
        <ele>51</ele>
        <time>2021-07-01T14:04:09.000Z</time>
      </trkpt>
      <trkpt lat="43.30416" lon="3.46535">
        <ele>51</ele>
        <time>2021-07-01T14:04:11.000Z</time>
      </trkpt>
      <trkpt lat="43.30402" lon="3.46531">
        <ele>51</ele>
        <time>2021-07-01T14:04:14.000Z</time>
      </trkpt>
      <trkpt lat="43.30393" lon="3.46528">
        <ele>51</ele>
        <time>2021-07-01T14:04:16.000Z</time>
      </trkpt>
      <trkpt lat="43.3038" lon="3.46524">
        <ele>51</ele>
        <time>2021-07-01T14:04:19.000Z</time>
      </trkpt>
      <trkpt lat="43.30367" lon="3.46518">
        <ele>51</ele>
        <time>2021-07-01T14:04:22.000Z</time>
      </trkpt>
      <trkpt lat="43.30358" lon="3.46514">
        <ele>51</ele>
        <time>2021-07-01T14:04:24.000Z</time>
      </trkpt>
      <trkpt lat="43.30347" lon="3.4651">
        <ele>50</ele>
        <time>2021-07-01T14:04:27.000Z</time>
      </trkpt>
      <trkpt lat="43.30335" lon="3.46507">
        <ele>51</ele>
        <time>2021-07-01T14:04:29.000Z</time>
      </trkpt>
      <trkpt lat="43.30326" lon="3.46504">
        <ele>51</ele>
        <time>2021-07-01T14:04:31.000Z</time>
      </trkpt>
      <trkpt lat="43.30317" lon="3.46501">
        <ele>50</ele>
        <time>2021-07-01T14:04:33.000Z</time>
      </trkpt>
      <trkpt lat="43.30308" lon="3.46497">
        <ele>49</ele>
        <time>2021-07-01T14:04:35.000Z</time>
      </trkpt>
      <trkpt lat="43.30298" lon="3.46495">
        <ele>50</ele>
        <time>2021-07-01T14:04:37.000Z</time>
      </trkpt>
      <trkpt lat="43.30289" lon="3.46492">
        <ele>50</ele>
        <time>2021-07-01T14:04:39.000Z</time>
      </trkpt>
      <trkpt lat="43.30277" lon="3.46488">
        <ele>50</ele>
        <time>2021-07-01T14:04:42.000Z</time>
      </trkpt>
      <trkpt lat="43.30267" lon="3.46485">
        <ele>51</ele>
        <time>2021-07-01T14:04:44.000Z</time>
      </trkpt>
      <trkpt lat="43.30258" lon="3.46482">
        <ele>51</ele>
        <time>2021-07-01T14:04:46.000Z</time>
      </trkpt>
      <trkpt lat="43.30245" lon="3.46477">
        <ele>51</ele>
        <time>2021-07-01T14:04:49.000Z</time>
      </trkpt>
      <trkpt lat="43.30236" lon="3.46474">
        <ele>51</ele>
        <time>2021-07-01T14:04:51.000Z</time>
      </trkpt>
      <trkpt lat="43.30226" lon="3.46471">
        <ele>52</ele>
        <time>2021-07-01T14:04:53.000Z</time>
      </trkpt>
      <trkpt lat="43.30217" lon="3.46468">
        <ele>52</ele>
        <time>2021-07-01T14:04:55.000Z</time>
      </trkpt>
      <trkpt lat="43.30205" lon="3.46465">
        <ele>52</ele>
        <time>2021-07-01T14:04:58.000Z</time>
      </trkpt>
      <trkpt lat="43.30196" lon="3.46462">
        <ele>51</ele>
        <time>2021-07-01T14:05:00.000Z</time>
      </trkpt>
      <trkpt lat="43.30186" lon="3.46458">
        <ele>52</ele>
        <time>2021-07-01T14:05:02.000Z</time>
      </trkpt>
      <trkpt lat="43.3017" lon="3.46452">
        <ele>52</ele>
        <time>2021-07-01T14:05:05.000Z</time>
      </trkpt>
      <trkpt lat="43.30162" lon="3.46449">
        <ele>51</ele>
        <time>2021-07-01T14:05:07.000Z</time>
      </trkpt>
      <trkpt lat="43.30151" lon="3.46445">
        <ele>51</ele>
        <time>2021-07-01T14:05:09.000Z</time>
      </trkpt>
      <trkpt lat="43.30138" lon="3.4644">
        <ele>51</ele>
        <time>2021-07-01T14:05:12.000Z</time>
      </trkpt>
      <trkpt lat="43.30128" lon="3.46437">
        <ele>51</ele>
        <time>2021-07-01T14:05:14.000Z</time>
      </trkpt>
      <trkpt lat="43.30119" lon="3.46431">
        <ele>50</ele>
        <time>2021-07-01T14:05:16.000Z</time>
      </trkpt>
      <trkpt lat="43.3011" lon="3.46426">
        <ele>50</ele>
        <time>2021-07-01T14:05:18.000Z</time>
      </trkpt>
      <trkpt lat="43.30096" lon="3.46417">
        <ele>49</ele>
        <time>2021-07-01T14:05:21.000Z</time>
      </trkpt>
      <trkpt lat="43.30086" lon="3.46413">
        <ele>49</ele>
        <time>2021-07-01T14:05:23.000Z</time>
      </trkpt>
      <trkpt lat="43.30076" lon="3.4641">
        <ele>48</ele>
        <time>2021-07-01T14:05:25.000Z</time>
      </trkpt>
      <trkpt lat="43.30068" lon="3.46402">
        <ele>48</ele>
        <time>2021-07-01T14:05:27.000Z</time>
      </trkpt>
      <trkpt lat="43.30054" lon="3.46393">
        <ele>47</ele>
        <time>2021-07-01T14:05:30.000Z</time>
      </trkpt>
      <trkpt lat="43.30045" lon="3.46386">
        <ele>47</ele>
        <time>2021-07-01T14:05:32.000Z</time>
      </trkpt>
      <trkpt lat="43.30036" lon="3.4638">
        <ele>48</ele>
        <time>2021-07-01T14:05:34.000Z</time>
      </trkpt>
      <trkpt lat="43.30027" lon="3.46374">
        <ele>48</ele>
        <time>2021-07-01T14:05:36.000Z</time>
      </trkpt>
      <trkpt lat="43.30019" lon="3.46367">
        <ele>49</ele>
        <time>2021-07-01T14:05:38.000Z</time>
      </trkpt>
      <trkpt lat="43.30008" lon="3.46356">
        <ele>49</ele>
        <time>2021-07-01T14:05:41.000Z</time>
      </trkpt>
      <trkpt lat="43.29995" lon="3.46353">
        <ele>49</ele>
        <time>2021-07-01T14:05:44.000Z</time>
      </trkpt>
      <trkpt lat="43.29984" lon="3.46357">
        <ele>48</ele>
        <time>2021-07-01T14:05:47.000Z</time>
      </trkpt>
      <trkpt lat="43.29975" lon="3.46343">
        <ele>48</ele>
        <time>2021-07-01T14:05:50.000Z</time>
      </trkpt>
      <trkpt lat="43.29968" lon="3.46329">
        <ele>48</ele>
        <time>2021-07-01T14:05:52.000Z</time>
      </trkpt>
      <trkpt lat="43.29962" lon="3.46317">
        <ele>48</ele>
        <time>2021-07-01T14:05:54.000Z</time>
      </trkpt>
      <trkpt lat="43.29957" lon="3.46304">
        <ele>47</ele>
        <time>2021-07-01T14:05:56.000Z</time>
      </trkpt>
      <trkpt lat="43.29952" lon="3.46293">
        <ele>48</ele>
        <time>2021-07-01T14:05:58.000Z</time>
      </trkpt>
      <trkpt lat="43.29947" lon="3.46282">
        <ele>48</ele>
        <time>2021-07-01T14:06:00.000Z</time>
      </trkpt>
      <trkpt lat="43.29942" lon="3.4627">
        <ele>47</ele>
        <time>2021-07-01T14:06:02.000Z</time>
      </trkpt>
      <trkpt lat="43.29935" lon="3.46253">
        <ele>47</ele>
        <time>2021-07-01T14:06:05.000Z</time>
      </trkpt>
      <trkpt lat="43.2993" lon="3.46241">
        <ele>46</ele>
        <time>2021-07-01T14:06:07.000Z</time>
      </trkpt>
      <trkpt lat="43.29923" lon="3.46224">
        <ele>47</ele>
        <time>2021-07-01T14:06:10.000Z</time>
      </trkpt>
      <trkpt lat="43.29916" lon="3.46205">
        <ele>47</ele>
        <time>2021-07-01T14:06:13.000Z</time>
      </trkpt>
      <trkpt lat="43.29912" lon="3.46193">
        <ele>47</ele>
        <time>2021-07-01T14:06:15.000Z</time>
      </trkpt>
      <trkpt lat="43.29909" lon="3.46181">
        <ele>47</ele>
        <time>2021-07-01T14:06:17.000Z</time>
      </trkpt>
      <trkpt lat="43.29907" lon="3.46168">
        <ele>48</ele>
        <time>2021-07-01T14:06:19.000Z</time>
      </trkpt>
      <trkpt lat="43.29904" lon="3.46154">
        <ele>47</ele>
        <time>2021-07-01T14:06:21.000Z</time>
      </trkpt>
      <trkpt lat="43.29903" lon="3.46142">
        <ele>47</ele>
        <time>2021-07-01T14:06:23.000Z</time>
      </trkpt>
      <trkpt lat="43.29903" lon="3.46128">
        <ele>48</ele>
        <time>2021-07-01T14:06:25.000Z</time>
      </trkpt>
      <trkpt lat="43.29902" lon="3.46115">
        <ele>48</ele>
        <time>2021-07-01T14:06:27.000Z</time>
      </trkpt>
      <trkpt lat="43.29902" lon="3.46101">
        <ele>48</ele>
        <time>2021-07-01T14:06:29.000Z</time>
      </trkpt>
      <trkpt lat="43.29902" lon="3.46088">
        <ele>48</ele>
        <time>2021-07-01T14:06:31.000Z</time>
      </trkpt>
      <trkpt lat="43.29901" lon="3.46075">
        <ele>48</ele>
        <time>2021-07-01T14:06:33.000Z</time>
      </trkpt>
      <trkpt lat="43.29901" lon="3.46061">
        <ele>48</ele>
        <time>2021-07-01T14:06:35.000Z</time>
      </trkpt>
      <trkpt lat="43.29899" lon="3.46047">
        <ele>49</ele>
        <time>2021-07-01T14:06:37.000Z</time>
      </trkpt>
      <trkpt lat="43.29897" lon="3.46034">
        <ele>48</ele>
        <time>2021-07-01T14:06:39.000Z</time>
      </trkpt>
      <trkpt lat="43.29896" lon="3.4602">
        <ele>48</ele>
        <time>2021-07-01T14:06:41.000Z</time>
      </trkpt>
      <trkpt lat="43.29897" lon="3.46006">
        <ele>48</ele>
        <time>2021-07-01T14:06:43.000Z</time>
      </trkpt>
      <trkpt lat="43.29895" lon="3.45984">
        <ele>48</ele>
        <time>2021-07-01T14:06:46.000Z</time>
      </trkpt>
      <trkpt lat="43.29894" lon="3.4597">
        <ele>48</ele>
        <time>2021-07-01T14:06:48.000Z</time>
      </trkpt>
      <trkpt lat="43.29891" lon="3.45956">
        <ele>49</ele>
        <time>2021-07-01T14:06:50.000Z</time>
      </trkpt>
      <trkpt lat="43.29891" lon="3.45943">
        <ele>48</ele>
        <time>2021-07-01T14:06:52.000Z</time>
      </trkpt>
      <trkpt lat="43.2989" lon="3.4593">
        <ele>48</ele>
        <time>2021-07-01T14:06:54.000Z</time>
      </trkpt>
      <trkpt lat="43.2989" lon="3.45917">
        <ele>48</ele>
        <time>2021-07-01T14:06:56.000Z</time>
      </trkpt>
      <trkpt lat="43.29888" lon="3.45903">
        <ele>48</ele>
        <time>2021-07-01T14:06:58.000Z</time>
      </trkpt>
      <trkpt lat="43.29888" lon="3.45889">
        <ele>49</ele>
        <time>2021-07-01T14:07:00.000Z</time>
      </trkpt>
      <trkpt lat="43.29886" lon="3.45875">
        <ele>49</ele>
        <time>2021-07-01T14:07:02.000Z</time>
      </trkpt>
      <trkpt lat="43.29884" lon="3.45861">
        <ele>49</ele>
        <time>2021-07-01T14:07:04.000Z</time>
      </trkpt>
      <trkpt lat="43.29881" lon="3.45847">
        <ele>49</ele>
        <time>2021-07-01T14:07:06.000Z</time>
      </trkpt>
      <trkpt lat="43.29878" lon="3.45833">
        <ele>49</ele>
        <time>2021-07-01T14:07:08.000Z</time>
      </trkpt>
      <trkpt lat="43.29874" lon="3.45819">
        <ele>49</ele>
        <time>2021-07-01T14:07:10.000Z</time>
      </trkpt>
      <trkpt lat="43.29868" lon="3.45797">
        <ele>47</ele>
        <time>2021-07-01T14:07:13.000Z</time>
      </trkpt>
      <trkpt lat="43.29865" lon="3.45783">
        <ele>48</ele>
        <time>2021-07-01T14:07:15.000Z</time>
      </trkpt>
      <trkpt lat="43.29861" lon="3.45769">
        <ele>48</ele>
        <time>2021-07-01T14:07:17.000Z</time>
      </trkpt>
      <trkpt lat="43.29858" lon="3.45755">
        <ele>47</ele>
        <time>2021-07-01T14:07:19.000Z</time>
      </trkpt>
      <trkpt lat="43.29854" lon="3.4574">
        <ele>48</ele>
        <time>2021-07-01T14:07:21.000Z</time>
      </trkpt>
      <trkpt lat="43.2985" lon="3.45727">
        <ele>47</ele>
        <time>2021-07-01T14:07:23.000Z</time>
      </trkpt>
      <trkpt lat="43.29846" lon="3.45713">
        <ele>46</ele>
        <time>2021-07-01T14:07:25.000Z</time>
      </trkpt>
      <trkpt lat="43.29841" lon="3.45692">
        <ele>47</ele>
        <time>2021-07-01T14:07:28.000Z</time>
      </trkpt>
      <trkpt lat="43.29837" lon="3.45679">
        <ele>47</ele>
        <time>2021-07-01T14:07:30.000Z</time>
      </trkpt>
      <trkpt lat="43.29832" lon="3.45666">
        <ele>47</ele>
        <time>2021-07-01T14:07:32.000Z</time>
      </trkpt>
      <trkpt lat="43.29827" lon="3.45653">
        <ele>46</ele>
        <time>2021-07-01T14:07:34.000Z</time>
      </trkpt>
      <trkpt lat="43.29823" lon="3.4564">
        <ele>46</ele>
        <time>2021-07-01T14:07:36.000Z</time>
      </trkpt>
      <trkpt lat="43.29818" lon="3.45626">
        <ele>47</ele>
        <time>2021-07-01T14:07:38.000Z</time>
      </trkpt>
      <trkpt lat="43.29813" lon="3.45614">
        <ele>47</ele>
        <time>2021-07-01T14:07:40.000Z</time>
      </trkpt>
      <trkpt lat="43.29808" lon="3.456">
        <ele>47</ele>
        <time>2021-07-01T14:07:42.000Z</time>
      </trkpt>
      <trkpt lat="43.298" lon="3.45581">
        <ele>47</ele>
        <time>2021-07-01T14:07:45.000Z</time>
      </trkpt>
      <trkpt lat="43.29795" lon="3.45568">
        <ele>47</ele>
        <time>2021-07-01T14:07:47.000Z</time>
      </trkpt>
      <trkpt lat="43.2979" lon="3.45555">
        <ele>47</ele>
        <time>2021-07-01T14:07:49.000Z</time>
      </trkpt>
      <trkpt lat="43.29785" lon="3.45543">
        <ele>47</ele>
        <time>2021-07-01T14:07:51.000Z</time>
      </trkpt>
      <trkpt lat="43.29779" lon="3.4553">
        <ele>47</ele>
        <time>2021-07-01T14:07:53.000Z</time>
      </trkpt>
      <trkpt lat="43.29771" lon="3.45511">
        <ele>47</ele>
        <time>2021-07-01T14:07:56.000Z</time>
      </trkpt>
      <trkpt lat="43.29766" lon="3.45498">
        <ele>48</ele>
        <time>2021-07-01T14:07:58.000Z</time>
      </trkpt>
      <trkpt lat="43.29761" lon="3.45485">
        <ele>47</ele>
        <time>2021-07-01T14:08:00.000Z</time>
      </trkpt>
      <trkpt lat="43.29756" lon="3.45474">
        <ele>48</ele>
        <time>2021-07-01T14:08:02.000Z</time>
      </trkpt>
      <trkpt lat="43.29748" lon="3.45456">
        <ele>47</ele>
        <time>2021-07-01T14:08:05.000Z</time>
      </trkpt>
      <trkpt lat="43.29743" lon="3.45443">
        <ele>47</ele>
        <time>2021-07-01T14:08:07.000Z</time>
      </trkpt>
      <trkpt lat="43.29738" lon="3.4543">
        <ele>47</ele>
        <time>2021-07-01T14:08:09.000Z</time>
      </trkpt>
      <trkpt lat="43.2973" lon="3.45411">
        <ele>46</ele>
        <time>2021-07-01T14:08:12.000Z</time>
      </trkpt>
      <trkpt lat="43.29724" lon="3.45397">
        <ele>45</ele>
        <time>2021-07-01T14:08:14.000Z</time>
      </trkpt>
      <trkpt lat="43.2972" lon="3.45384">
        <ele>45</ele>
        <time>2021-07-01T14:08:16.000Z</time>
      </trkpt>
      <trkpt lat="43.29714" lon="3.45373">
        <ele>45</ele>
        <time>2021-07-01T14:08:18.000Z</time>
      </trkpt>
      <trkpt lat="43.29708" lon="3.45361">
        <ele>45</ele>
        <time>2021-07-01T14:08:20.000Z</time>
      </trkpt>
      <trkpt lat="43.29701" lon="3.4535">
        <ele>46</ele>
        <time>2021-07-01T14:08:22.000Z</time>
      </trkpt>
      <trkpt lat="43.29695" lon="3.45339">
        <ele>46</ele>
        <time>2021-07-01T14:08:24.000Z</time>
      </trkpt>
      <trkpt lat="43.29689" lon="3.45329">
        <ele>47</ele>
        <time>2021-07-01T14:08:26.000Z</time>
      </trkpt>
      <trkpt lat="43.29682" lon="3.45319">
        <ele>47</ele>
        <time>2021-07-01T14:08:28.000Z</time>
      </trkpt>
      <trkpt lat="43.29671" lon="3.45303">
        <ele>46</ele>
        <time>2021-07-01T14:08:31.000Z</time>
      </trkpt>
      <trkpt lat="43.29665" lon="3.45293">
        <ele>47</ele>
        <time>2021-07-01T14:08:33.000Z</time>
      </trkpt>
      <trkpt lat="43.2966" lon="3.45282">
        <ele>48</ele>
        <time>2021-07-01T14:08:35.000Z</time>
      </trkpt>
      <trkpt lat="43.29652" lon="3.45271">
        <ele>48</ele>
        <time>2021-07-01T14:08:38.000Z</time>
      </trkpt>
      <trkpt lat="43.29643" lon="3.45253">
        <ele>50</ele>
        <time>2021-07-01T14:08:42.000Z</time>
      </trkpt>
      <trkpt lat="43.29637" lon="3.45242">
        <ele>50</ele>
        <time>2021-07-01T14:08:44.000Z</time>
      </trkpt>
      <trkpt lat="43.29628" lon="3.45228">
        <ele>49</ele>
        <time>2021-07-01T14:08:47.000Z</time>
      </trkpt>
      <trkpt lat="43.29621" lon="3.45218">
        <ele>49</ele>
        <time>2021-07-01T14:08:49.000Z</time>
      </trkpt>
      <trkpt lat="43.29615" lon="3.45209">
        <ele>49</ele>
        <time>2021-07-01T14:08:51.000Z</time>
      </trkpt>
      <trkpt lat="43.29609" lon="3.45199">
        <ele>49</ele>
        <time>2021-07-01T14:08:53.000Z</time>
      </trkpt>
      <trkpt lat="43.29596" lon="3.45177">
        <ele>48</ele>
        <time>2021-07-01T14:08:57.000Z</time>
      </trkpt>
      <trkpt lat="43.2959" lon="3.45167">
        <ele>48</ele>
        <time>2021-07-01T14:08:59.000Z</time>
      </trkpt>
      <trkpt lat="43.29584" lon="3.45157">
        <ele>48</ele>
        <time>2021-07-01T14:09:01.000Z</time>
      </trkpt>
      <trkpt lat="43.29573" lon="3.45141">
        <ele>48</ele>
        <time>2021-07-01T14:09:04.000Z</time>
      </trkpt>
      <trkpt lat="43.29566" lon="3.4513">
        <ele>48</ele>
        <time>2021-07-01T14:09:06.000Z</time>
      </trkpt>
      <trkpt lat="43.2956" lon="3.4512">
        <ele>49</ele>
        <time>2021-07-01T14:09:08.000Z</time>
      </trkpt>
      <trkpt lat="43.29554" lon="3.4511">
        <ele>50</ele>
        <time>2021-07-01T14:09:10.000Z</time>
      </trkpt>
      <trkpt lat="43.29547" lon="3.451">
        <ele>49</ele>
        <time>2021-07-01T14:09:12.000Z</time>
      </trkpt>
      <trkpt lat="43.29539" lon="3.4509">
        <ele>49</ele>
        <time>2021-07-01T14:09:14.000Z</time>
      </trkpt>
      <trkpt lat="43.29531" lon="3.4508">
        <ele>48</ele>
        <time>2021-07-01T14:09:16.000Z</time>
      </trkpt>
      <trkpt lat="43.29523" lon="3.45071">
        <ele>49</ele>
        <time>2021-07-01T14:09:18.000Z</time>
      </trkpt>
      <trkpt lat="43.29515" lon="3.45062">
        <ele>49</ele>
        <time>2021-07-01T14:09:20.000Z</time>
      </trkpt>
      <trkpt lat="43.29506" lon="3.45053">
        <ele>48</ele>
        <time>2021-07-01T14:09:22.000Z</time>
      </trkpt>
      <trkpt lat="43.29497" lon="3.45043">
        <ele>48</ele>
        <time>2021-07-01T14:09:24.000Z</time>
      </trkpt>
      <trkpt lat="43.29489" lon="3.45034">
        <ele>49</ele>
        <time>2021-07-01T14:09:26.000Z</time>
      </trkpt>
      <trkpt lat="43.29476" lon="3.45021">
        <ele>49</ele>
        <time>2021-07-01T14:09:29.000Z</time>
      </trkpt>
      <trkpt lat="43.29465" lon="3.45013">
        <ele>47</ele>
        <time>2021-07-01T14:09:31.000Z</time>
      </trkpt>
      <trkpt lat="43.29456" lon="3.45005">
        <ele>46</ele>
        <time>2021-07-01T14:09:33.000Z</time>
      </trkpt>
      <trkpt lat="43.29448" lon="3.44995">
        <ele>47</ele>
        <time>2021-07-01T14:09:35.000Z</time>
      </trkpt>
      <trkpt lat="43.29436" lon="3.44982">
        <ele>47</ele>
        <time>2021-07-01T14:09:38.000Z</time>
      </trkpt>
      <trkpt lat="43.29427" lon="3.44974">
        <ele>45</ele>
        <time>2021-07-01T14:09:40.000Z</time>
      </trkpt>
      <trkpt lat="43.29416" lon="3.44964">
        <ele>47</ele>
        <time>2021-07-01T14:09:43.000Z</time>
      </trkpt>
      <trkpt lat="43.29407" lon="3.44957">
        <ele>47</ele>
        <time>2021-07-01T14:09:45.000Z</time>
      </trkpt>
      <trkpt lat="43.29399" lon="3.4495">
        <ele>47</ele>
        <time>2021-07-01T14:09:47.000Z</time>
      </trkpt>
      <trkpt lat="43.29387" lon="3.44938">
        <ele>47</ele>
        <time>2021-07-01T14:09:50.000Z</time>
      </trkpt>
      <trkpt lat="43.2938" lon="3.4493">
        <ele>47</ele>
        <time>2021-07-01T14:09:52.000Z</time>
      </trkpt>
      <trkpt lat="43.29372" lon="3.44922">
        <ele>47</ele>
        <time>2021-07-01T14:09:54.000Z</time>
      </trkpt>
      <trkpt lat="43.29365" lon="3.44915">
        <ele>47</ele>
        <time>2021-07-01T14:09:56.000Z</time>
      </trkpt>
      <trkpt lat="43.29357" lon="3.44909">
        <ele>47</ele>
        <time>2021-07-01T14:09:58.000Z</time>
      </trkpt>
      <trkpt lat="43.29349" lon="3.449">
        <ele>48</ele>
        <time>2021-07-01T14:10:00.000Z</time>
      </trkpt>
      <trkpt lat="43.29341" lon="3.44892">
        <ele>48</ele>
        <time>2021-07-01T14:10:02.000Z</time>
      </trkpt>
      <trkpt lat="43.29325" lon="3.44876">
        <ele>48</ele>
        <time>2021-07-01T14:10:06.000Z</time>
      </trkpt>
      <trkpt lat="43.29317" lon="3.4487">
        <ele>48</ele>
        <time>2021-07-01T14:10:08.000Z</time>
      </trkpt>
      <trkpt lat="43.29308" lon="3.44862">
        <ele>48</ele>
        <time>2021-07-01T14:10:10.000Z</time>
      </trkpt>
      <trkpt lat="43.293" lon="3.44852">
        <ele>49</ele>
        <time>2021-07-01T14:10:12.000Z</time>
      </trkpt>
      <trkpt lat="43.29292" lon="3.44844">
        <ele>48</ele>
        <time>2021-07-01T14:10:14.000Z</time>
      </trkpt>
      <trkpt lat="43.29284" lon="3.44836">
        <ele>48</ele>
        <time>2021-07-01T14:10:16.000Z</time>
      </trkpt>
      <trkpt lat="43.29276" lon="3.44828">
        <ele>48</ele>
        <time>2021-07-01T14:10:18.000Z</time>
      </trkpt>
      <trkpt lat="43.29268" lon="3.4482">
        <ele>48</ele>
        <time>2021-07-01T14:10:20.000Z</time>
      </trkpt>
      <trkpt lat="43.29259" lon="3.44812">
        <ele>48</ele>
        <time>2021-07-01T14:10:22.000Z</time>
      </trkpt>
      <trkpt lat="43.29251" lon="3.44804">
        <ele>48</ele>
        <time>2021-07-01T14:10:24.000Z</time>
      </trkpt>
      <trkpt lat="43.29243" lon="3.44796">
        <ele>49</ele>
        <time>2021-07-01T14:10:26.000Z</time>
      </trkpt>
      <trkpt lat="43.29236" lon="3.44788">
        <ele>50</ele>
        <time>2021-07-01T14:10:28.000Z</time>
      </trkpt>
      <trkpt lat="43.29229" lon="3.44779">
        <ele>50</ele>
        <time>2021-07-01T14:10:30.000Z</time>
      </trkpt>
      <trkpt lat="43.2922" lon="3.44771">
        <ele>50</ele>
        <time>2021-07-01T14:10:32.000Z</time>
      </trkpt>
      <trkpt lat="43.29213" lon="3.44762">
        <ele>50</ele>
        <time>2021-07-01T14:10:34.000Z</time>
      </trkpt>
      <trkpt lat="43.29206" lon="3.44754">
        <ele>50</ele>
        <time>2021-07-01T14:10:36.000Z</time>
      </trkpt>
      <trkpt lat="43.29193" lon="3.44742">
        <ele>51</ele>
        <time>2021-07-01T14:10:39.000Z</time>
      </trkpt>
      <trkpt lat="43.29185" lon="3.44732">
        <ele>51</ele>
        <time>2021-07-01T14:10:41.000Z</time>
      </trkpt>
      <trkpt lat="43.29177" lon="3.44724">
        <ele>52</ele>
        <time>2021-07-01T14:10:43.000Z</time>
      </trkpt>
      <trkpt lat="43.29168" lon="3.44715">
        <ele>51</ele>
        <time>2021-07-01T14:10:45.000Z</time>
      </trkpt>
      <trkpt lat="43.29154" lon="3.44703">
        <ele>51</ele>
        <time>2021-07-01T14:10:48.000Z</time>
      </trkpt>
      <trkpt lat="43.29146" lon="3.44695">
        <ele>50</ele>
        <time>2021-07-01T14:10:50.000Z</time>
      </trkpt>
      <trkpt lat="43.29139" lon="3.44688">
        <ele>51</ele>
        <time>2021-07-01T14:10:52.000Z</time>
      </trkpt>
      <trkpt lat="43.2913" lon="3.44679">
        <ele>51</ele>
        <time>2021-07-01T14:10:54.000Z</time>
      </trkpt>
      <trkpt lat="43.29122" lon="3.4467">
        <ele>50</ele>
        <time>2021-07-01T14:10:56.000Z</time>
      </trkpt>
      <trkpt lat="43.29108" lon="3.4466">
        <ele>49</ele>
        <time>2021-07-01T14:10:59.000Z</time>
      </trkpt>
      <trkpt lat="43.291" lon="3.44652">
        <ele>50</ele>
        <time>2021-07-01T14:11:01.000Z</time>
      </trkpt>
      <trkpt lat="43.29093" lon="3.44644">
        <ele>50</ele>
        <time>2021-07-01T14:11:03.000Z</time>
      </trkpt>
      <trkpt lat="43.29085" lon="3.44636">
        <ele>49</ele>
        <time>2021-07-01T14:11:05.000Z</time>
      </trkpt>
      <trkpt lat="43.29077" lon="3.44628">
        <ele>49</ele>
        <time>2021-07-01T14:11:07.000Z</time>
      </trkpt>
      <trkpt lat="43.29069" lon="3.44622">
        <ele>50</ele>
        <time>2021-07-01T14:11:09.000Z</time>
      </trkpt>
      <trkpt lat="43.29058" lon="3.44613">
        <ele>49</ele>
        <time>2021-07-01T14:11:12.000Z</time>
      </trkpt>
      <trkpt lat="43.29046" lon="3.44602">
        <ele>48</ele>
        <time>2021-07-01T14:11:15.000Z</time>
      </trkpt>
      <trkpt lat="43.29039" lon="3.4459">
        <ele>49</ele>
        <time>2021-07-01T14:11:18.000Z</time>
      </trkpt>
      <trkpt lat="43.29029" lon="3.44581">
        <ele>49</ele>
        <time>2021-07-01T14:11:21.000Z</time>
      </trkpt>
      <trkpt lat="43.29019" lon="3.44575">
        <ele>47</ele>
        <time>2021-07-01T14:11:24.000Z</time>
      </trkpt>
      <trkpt lat="43.29009" lon="3.44569">
        <ele>49</ele>
        <time>2021-07-01T14:11:26.000Z</time>
      </trkpt>
      <trkpt lat="43.29" lon="3.44564">
        <ele>49</ele>
        <time>2021-07-01T14:11:28.000Z</time>
      </trkpt>
      <trkpt lat="43.2899" lon="3.44559">
        <ele>50</ele>
        <time>2021-07-01T14:11:30.000Z</time>
      </trkpt>
      <trkpt lat="43.28982" lon="3.44552">
        <ele>49</ele>
        <time>2021-07-01T14:11:32.000Z</time>
      </trkpt>
      <trkpt lat="43.28974" lon="3.44547">
        <ele>49</ele>
        <time>2021-07-01T14:11:34.000Z</time>
      </trkpt>
      <trkpt lat="43.28965" lon="3.44541">
        <ele>50</ele>
        <time>2021-07-01T14:11:36.000Z</time>
      </trkpt>
      <trkpt lat="43.28953" lon="3.44532">
        <ele>51</ele>
        <time>2021-07-01T14:11:39.000Z</time>
      </trkpt>
      <trkpt lat="43.28939" lon="3.44523">
        <ele>52</ele>
        <time>2021-07-01T14:11:42.000Z</time>
      </trkpt>
      <trkpt lat="43.28931" lon="3.44516">
        <ele>53</ele>
        <time>2021-07-01T14:11:44.000Z</time>
      </trkpt>
      <trkpt lat="43.28923" lon="3.4451">
        <ele>52</ele>
        <time>2021-07-01T14:11:46.000Z</time>
      </trkpt>
      <trkpt lat="43.28908" lon="3.44501">
        <ele>53</ele>
        <time>2021-07-01T14:11:50.000Z</time>
      </trkpt>
      <trkpt lat="43.28896" lon="3.44502">
        <ele>52</ele>
        <time>2021-07-01T14:11:53.000Z</time>
      </trkpt>
      <trkpt lat="43.28886" lon="3.44501">
        <ele>52</ele>
        <time>2021-07-01T14:11:56.000Z</time>
      </trkpt>
      <trkpt lat="43.28877" lon="3.445">
        <ele>52</ele>
        <time>2021-07-01T14:11:59.000Z</time>
      </trkpt>
      <trkpt lat="43.28866" lon="3.445">
        <ele>52</ele>
        <time>2021-07-01T14:12:02.000Z</time>
      </trkpt>
      <trkpt lat="43.28855" lon="3.44498">
        <ele>51</ele>
        <time>2021-07-01T14:12:05.000Z</time>
      </trkpt>
      <trkpt lat="43.28844" lon="3.44497">
        <ele>52</ele>
        <time>2021-07-01T14:12:08.000Z</time>
      </trkpt>
      <trkpt lat="43.28832" lon="3.44496">
        <ele>52</ele>
        <time>2021-07-01T14:12:11.000Z</time>
      </trkpt>
      <trkpt lat="43.28819" lon="3.44496">
        <ele>52</ele>
        <time>2021-07-01T14:12:14.000Z</time>
      </trkpt>
      <trkpt lat="43.28807" lon="3.44495">
        <ele>52</ele>
        <time>2021-07-01T14:12:17.000Z</time>
      </trkpt>
      <trkpt lat="43.28796" lon="3.44495">
        <ele>52</ele>
        <time>2021-07-01T14:12:20.000Z</time>
      </trkpt>
      <trkpt lat="43.28781" lon="3.44495">
        <ele>50</ele>
        <time>2021-07-01T14:12:24.000Z</time>
      </trkpt>
      <trkpt lat="43.28769" lon="3.44493">
        <ele>50</ele>
        <time>2021-07-01T14:12:27.000Z</time>
      </trkpt>
      <trkpt lat="43.28759" lon="3.44492">
        <ele>50</ele>
        <time>2021-07-01T14:12:29.000Z</time>
      </trkpt>
      <trkpt lat="43.2875" lon="3.44492">
        <ele>50</ele>
        <time>2021-07-01T14:12:31.000Z</time>
      </trkpt>
      <trkpt lat="43.28738" lon="3.44491">
        <ele>49</ele>
        <time>2021-07-01T14:12:34.000Z</time>
      </trkpt>
      <trkpt lat="43.28726" lon="3.44491">
        <ele>50</ele>
        <time>2021-07-01T14:12:37.000Z</time>
      </trkpt>
      <trkpt lat="43.28712" lon="3.44492">
        <ele>49</ele>
        <time>2021-07-01T14:12:40.000Z</time>
      </trkpt>
      <trkpt lat="43.28702" lon="3.4449">
        <ele>48</ele>
        <time>2021-07-01T14:12:43.000Z</time>
      </trkpt>
      <trkpt lat="43.28691" lon="3.44491">
        <ele>49</ele>
        <time>2021-07-01T14:12:46.000Z</time>
      </trkpt>
      <trkpt lat="43.28679" lon="3.44492">
        <ele>48</ele>
        <time>2021-07-01T14:12:49.000Z</time>
      </trkpt>
      <trkpt lat="43.28668" lon="3.44489">
        <ele>49</ele>
        <time>2021-07-01T14:12:52.000Z</time>
      </trkpt>
      <trkpt lat="43.28655" lon="3.44489">
        <ele>50</ele>
        <time>2021-07-01T14:12:55.000Z</time>
      </trkpt>
      <trkpt lat="43.28646" lon="3.44492">
        <ele>49</ele>
        <time>2021-07-01T14:12:58.000Z</time>
      </trkpt>
      <trkpt lat="43.28636" lon="3.44492">
        <ele>49</ele>
        <time>2021-07-01T14:13:01.000Z</time>
      </trkpt>
      <trkpt lat="43.28626" lon="3.44489">
        <ele>48</ele>
        <time>2021-07-01T14:13:03.000Z</time>
      </trkpt>
      <trkpt lat="43.28614" lon="3.44489">
        <ele>48</ele>
        <time>2021-07-01T14:13:06.000Z</time>
      </trkpt>
      <trkpt lat="43.28604" lon="3.44489">
        <ele>48</ele>
        <time>2021-07-01T14:13:09.000Z</time>
      </trkpt>
      <trkpt lat="43.28594" lon="3.44488">
        <ele>48</ele>
        <time>2021-07-01T14:13:12.000Z</time>
      </trkpt>
      <trkpt lat="43.28584" lon="3.44488">
        <ele>46</ele>
        <time>2021-07-01T14:13:15.000Z</time>
      </trkpt>
      <trkpt lat="43.28573" lon="3.44487">
        <ele>47</ele>
        <time>2021-07-01T14:13:19.000Z</time>
      </trkpt>
      <trkpt lat="43.28564" lon="3.44486">
        <ele>47</ele>
        <time>2021-07-01T14:13:24.000Z</time>
      </trkpt>
      <trkpt lat="43.28554" lon="3.44481">
        <ele>49</ele>
        <time>2021-07-01T14:13:30.000Z</time>
      </trkpt>
      <trkpt lat="43.28545" lon="3.44484">
        <ele>49</ele>
        <time>2021-07-01T14:14:15.000Z</time>
      </trkpt>
      <trkpt lat="43.28535" lon="3.44481">
        <ele>48</ele>
        <time>2021-07-01T14:14:22.000Z</time>
      </trkpt>
      <trkpt lat="43.28526" lon="3.44482">
        <ele>49</ele>
        <time>2021-07-01T14:14:26.000Z</time>
      </trkpt>
      <trkpt lat="43.28516" lon="3.44482">
        <ele>49</ele>
        <time>2021-07-01T14:14:30.000Z</time>
      </trkpt>
      <trkpt lat="43.28504" lon="3.44481">
        <ele>50</ele>
        <time>2021-07-01T14:14:34.000Z</time>
      </trkpt>
      <trkpt lat="43.28494" lon="3.44481">
        <ele>48</ele>
        <time>2021-07-01T14:14:38.000Z</time>
      </trkpt>
      <trkpt lat="43.28485" lon="3.44481">
        <ele>44</ele>
        <time>2021-07-01T14:15:40.000Z</time>
      </trkpt>
      <trkpt lat="43.28476" lon="3.44481">
        <ele>44</ele>
        <time>2021-07-01T14:15:44.000Z</time>
      </trkpt>
      <trkpt lat="43.28466" lon="3.44481">
        <ele>45</ele>
        <time>2021-07-01T14:15:48.000Z</time>
      </trkpt>
      <trkpt lat="43.28455" lon="3.4448">
        <ele>46</ele>
        <time>2021-07-01T14:15:52.000Z</time>
      </trkpt>
      <trkpt lat="43.28443" lon="3.44479">
        <ele>47</ele>
        <time>2021-07-01T14:15:56.000Z</time>
      </trkpt>
      <trkpt lat="43.28432" lon="3.44478">
        <ele>48</ele>
        <time>2021-07-01T14:16:01.000Z</time>
      </trkpt>
      <trkpt lat="43.28422" lon="3.44478">
        <ele>49</ele>
        <time>2021-07-01T14:16:05.000Z</time>
      </trkpt>
      <trkpt lat="43.28413" lon="3.44481">
        <ele>48</ele>
        <time>2021-07-01T14:16:11.000Z</time>
      </trkpt>
      <trkpt lat="43.28402" lon="3.44478">
        <ele>49</ele>
        <time>2021-07-01T14:16:15.000Z</time>
      </trkpt>
      <trkpt lat="43.28391" lon="3.44479">
        <ele>49</ele>
        <time>2021-07-01T14:16:19.000Z</time>
      </trkpt>
      <trkpt lat="43.28382" lon="3.44477">
        <ele>50</ele>
        <time>2021-07-01T14:16:23.000Z</time>
      </trkpt>
      <trkpt lat="43.28372" lon="3.44478">
        <ele>49</ele>
        <time>2021-07-01T14:16:27.000Z</time>
      </trkpt>
      <trkpt lat="43.28363" lon="3.44475">
        <ele>50</ele>
        <time>2021-07-01T14:16:32.000Z</time>
      </trkpt>
      <trkpt lat="43.28353" lon="3.44477">
        <ele>50</ele>
        <time>2021-07-01T14:16:39.000Z</time>
      </trkpt>
      <trkpt lat="43.28344" lon="3.44474">
        <ele>50</ele>
        <time>2021-07-01T14:16:47.000Z</time>
      </trkpt>
      <trkpt lat="43.28334" lon="3.44474">
        <ele>51</ele>
        <time>2021-07-01T14:16:58.000Z</time>
      </trkpt>
      <trkpt lat="43.28324" lon="3.44474">
        <ele>51</ele>
        <time>2021-07-01T14:17:05.000Z</time>
      </trkpt>
      <trkpt lat="43.28311" lon="3.44473">
        <ele>52</ele>
        <time>2021-07-01T14:17:10.000Z</time>
      </trkpt>
      <trkpt lat="43.28302" lon="3.4447">
        <ele>53</ele>
        <time>2021-07-01T14:17:14.000Z</time>
      </trkpt>
      <trkpt lat="43.28291" lon="3.44465">
        <ele>53</ele>
        <time>2021-07-01T14:17:18.000Z</time>
      </trkpt>
      <trkpt lat="43.2828" lon="3.44462">
        <ele>53</ele>
        <time>2021-07-01T14:17:23.000Z</time>
      </trkpt>
      <trkpt lat="43.28269" lon="3.44459">
        <ele>52</ele>
        <time>2021-07-01T14:17:28.000Z</time>
      </trkpt>
      <trkpt lat="43.28261" lon="3.44456">
        <ele>52</ele>
        <time>2021-07-01T14:17:32.000Z</time>
      </trkpt>
      <trkpt lat="43.28251" lon="3.44454">
        <ele>51</ele>
        <time>2021-07-01T14:17:36.000Z</time>
      </trkpt>
      <trkpt lat="43.2824" lon="3.44453">
        <ele>50</ele>
        <time>2021-07-01T14:17:40.000Z</time>
      </trkpt>
      <trkpt lat="43.28229" lon="3.44451">
        <ele>49</ele>
        <time>2021-07-01T14:17:45.000Z</time>
      </trkpt>
      <trkpt lat="43.2822" lon="3.44448">
        <ele>50</ele>
        <time>2021-07-01T14:17:50.000Z</time>
      </trkpt>
      <trkpt lat="43.28209" lon="3.44447">
        <ele>48</ele>
        <time>2021-07-01T14:17:57.000Z</time>
      </trkpt>
      <trkpt lat="43.282" lon="3.44445">
        <ele>47</ele>
        <time>2021-07-01T14:18:02.000Z</time>
      </trkpt>
      <trkpt lat="43.2819" lon="3.44442">
        <ele>46</ele>
        <time>2021-07-01T14:18:07.000Z</time>
      </trkpt>
      <trkpt lat="43.2818" lon="3.44441">
        <ele>43</ele>
        <time>2021-07-01T14:18:11.000Z</time>
      </trkpt>
      <trkpt lat="43.28168" lon="3.4444">
        <ele>43</ele>
        <time>2021-07-01T14:18:17.000Z</time>
      </trkpt>
      <trkpt lat="43.28159" lon="3.44438">
        <ele>43</ele>
        <time>2021-07-01T14:18:21.000Z</time>
      </trkpt>
      <trkpt lat="43.28149" lon="3.44435">
        <ele>44</ele>
        <time>2021-07-01T14:18:25.000Z</time>
      </trkpt>
      <trkpt lat="43.2814" lon="3.4443">
        <ele>44</ele>
        <time>2021-07-01T14:18:29.000Z</time>
      </trkpt>
      <trkpt lat="43.28129" lon="3.44427">
        <ele>45</ele>
        <time>2021-07-01T14:18:34.000Z</time>
      </trkpt>
      <trkpt lat="43.28119" lon="3.44426">
        <ele>45</ele>
        <time>2021-07-01T14:18:39.000Z</time>
      </trkpt>
      <trkpt lat="43.28109" lon="3.44422">
        <ele>44</ele>
        <time>2021-07-01T14:18:43.000Z</time>
      </trkpt>
      <trkpt lat="43.28099" lon="3.4442">
        <ele>44</ele>
        <time>2021-07-01T14:18:47.000Z</time>
      </trkpt>
      <trkpt lat="43.2809" lon="3.44418">
        <ele>44</ele>
        <time>2021-07-01T14:18:51.000Z</time>
      </trkpt>
      <trkpt lat="43.2808" lon="3.44415">
        <ele>43</ele>
        <time>2021-07-01T14:18:55.000Z</time>
      </trkpt>
      <trkpt lat="43.2807" lon="3.44414">
        <ele>44</ele>
        <time>2021-07-01T14:18:59.000Z</time>
      </trkpt>
      <trkpt lat="43.2806" lon="3.44413">
        <ele>44</ele>
        <time>2021-07-01T14:19:04.000Z</time>
      </trkpt>
      <trkpt lat="43.28051" lon="3.44411">
        <ele>45</ele>
        <time>2021-07-01T14:19:08.000Z</time>
      </trkpt>
      <trkpt lat="43.28041" lon="3.4441">
        <ele>45</ele>
        <time>2021-07-01T14:19:12.000Z</time>
      </trkpt>
      <trkpt lat="43.28032" lon="3.44406">
        <ele>46</ele>
        <time>2021-07-01T14:19:16.000Z</time>
      </trkpt>
      <trkpt lat="43.28022" lon="3.44404">
        <ele>45</ele>
        <time>2021-07-01T14:19:20.000Z</time>
      </trkpt>
      <trkpt lat="43.2801" lon="3.44401">
        <ele>45</ele>
        <time>2021-07-01T14:19:26.000Z</time>
      </trkpt>
      <trkpt lat="43.28" lon="3.44399">
        <ele>46</ele>
        <time>2021-07-01T14:19:32.000Z</time>
      </trkpt>
      <trkpt lat="43.27991" lon="3.44397">
        <ele>45</ele>
        <time>2021-07-01T14:19:37.000Z</time>
      </trkpt>
      <trkpt lat="43.27981" lon="3.44393">
        <ele>45</ele>
        <time>2021-07-01T14:19:44.000Z</time>
      </trkpt>
      <trkpt lat="43.27972" lon="3.44387">
        <ele>47</ele>
        <time>2021-07-01T14:20:40.000Z</time>
      </trkpt>
      <trkpt lat="43.27981" lon="3.44394">
        <ele>51</ele>
        <time>2021-07-01T14:22:12.000Z</time>
      </trkpt>
      <trkpt lat="43.27992" lon="3.44395">
        <ele>51</ele>
        <time>2021-07-01T14:28:05.000Z</time>
      </trkpt>
      <trkpt lat="43.28002" lon="3.44398">
        <ele>50</ele>
        <time>2021-07-01T14:28:09.000Z</time>
      </trkpt>
      <trkpt lat="43.28012" lon="3.444">
        <ele>50</ele>
        <time>2021-07-01T14:28:13.000Z</time>
      </trkpt>
      <trkpt lat="43.28023" lon="3.44402">
        <ele>50</ele>
        <time>2021-07-01T14:28:17.000Z</time>
      </trkpt>
      <trkpt lat="43.28033" lon="3.44405">
        <ele>50</ele>
        <time>2021-07-01T14:28:21.000Z</time>
      </trkpt>
      <trkpt lat="43.28044" lon="3.44408">
        <ele>50</ele>
        <time>2021-07-01T14:28:25.000Z</time>
      </trkpt>
      <trkpt lat="43.28055" lon="3.4441">
        <ele>50</ele>
        <time>2021-07-01T14:28:29.000Z</time>
      </trkpt>
      <trkpt lat="43.28066" lon="3.44414">
        <ele>50</ele>
        <time>2021-07-01T14:28:33.000Z</time>
      </trkpt>
      <trkpt lat="43.28078" lon="3.44416">
        <ele>50</ele>
        <time>2021-07-01T14:28:37.000Z</time>
      </trkpt>
      <trkpt lat="43.2809" lon="3.44419">
        <ele>51</ele>
        <time>2021-07-01T14:28:41.000Z</time>
      </trkpt>
      <trkpt lat="43.28099" lon="3.44422">
        <ele>50</ele>
        <time>2021-07-01T14:28:44.000Z</time>
      </trkpt>
      <trkpt lat="43.28111" lon="3.44424">
        <ele>50</ele>
        <time>2021-07-01T14:28:48.000Z</time>
      </trkpt>
      <trkpt lat="43.28123" lon="3.44427">
        <ele>47</ele>
        <time>2021-07-01T14:28:52.000Z</time>
      </trkpt>
      <trkpt lat="43.28135" lon="3.44428">
        <ele>45</ele>
        <time>2021-07-01T14:28:56.000Z</time>
      </trkpt>
      <trkpt lat="43.28145" lon="3.4443">
        <ele>43</ele>
        <time>2021-07-01T14:28:59.000Z</time>
      </trkpt>
      <trkpt lat="43.28157" lon="3.44435">
        <ele>43</ele>
        <time>2021-07-01T14:29:03.000Z</time>
      </trkpt>
      <trkpt lat="43.28167" lon="3.44438">
        <ele>44</ele>
        <time>2021-07-01T14:29:06.000Z</time>
      </trkpt>
      <trkpt lat="43.28177" lon="3.44441">
        <ele>42</ele>
        <time>2021-07-01T14:29:09.000Z</time>
      </trkpt>
      <trkpt lat="43.28189" lon="3.4444">
        <ele>43</ele>
        <time>2021-07-01T14:29:13.000Z</time>
      </trkpt>
      <trkpt lat="43.28201" lon="3.44444">
        <ele>45</ele>
        <time>2021-07-01T14:29:17.000Z</time>
      </trkpt>
      <trkpt lat="43.28211" lon="3.44446">
        <ele>45</ele>
        <time>2021-07-01T14:29:20.000Z</time>
      </trkpt>
      <trkpt lat="43.28221" lon="3.44448">
        <ele>46</ele>
        <time>2021-07-01T14:29:23.000Z</time>
      </trkpt>
      <trkpt lat="43.2823" lon="3.44451">
        <ele>46</ele>
        <time>2021-07-01T14:29:26.000Z</time>
      </trkpt>
      <trkpt lat="43.2824" lon="3.44454">
        <ele>46</ele>
        <time>2021-07-01T14:29:29.000Z</time>
      </trkpt>
      <trkpt lat="43.28251" lon="3.44457">
        <ele>47</ele>
        <time>2021-07-01T14:29:32.000Z</time>
      </trkpt>
      <trkpt lat="43.28261" lon="3.44459">
        <ele>47</ele>
        <time>2021-07-01T14:29:35.000Z</time>
      </trkpt>
      <trkpt lat="43.2827" lon="3.44463">
        <ele>47</ele>
        <time>2021-07-01T14:29:38.000Z</time>
      </trkpt>
      <trkpt lat="43.28277" lon="3.44474">
        <ele>47</ele>
        <time>2021-07-01T14:29:42.000Z</time>
      </trkpt>
      <trkpt lat="43.28279" lon="3.44487">
        <ele>46</ele>
        <time>2021-07-01T14:29:45.000Z</time>
      </trkpt>
      <trkpt lat="43.28276" lon="3.44501">
        <ele>47</ele>
        <time>2021-07-01T14:29:49.000Z</time>
      </trkpt>
      <trkpt lat="43.28275" lon="3.44516">
        <ele>47</ele>
        <time>2021-07-01T14:29:53.000Z</time>
      </trkpt>
      <trkpt lat="43.28275" lon="3.44532">
        <ele>47</ele>
        <time>2021-07-01T14:29:57.000Z</time>
      </trkpt>
      <trkpt lat="43.28275" lon="3.44546">
        <ele>47</ele>
        <time>2021-07-01T14:30:00.000Z</time>
      </trkpt>
      <trkpt lat="43.28275" lon="3.44561">
        <ele>47</ele>
        <time>2021-07-01T14:30:04.000Z</time>
      </trkpt>
      <trkpt lat="43.28278" lon="3.44574">
        <ele>48</ele>
        <time>2021-07-01T14:30:08.000Z</time>
      </trkpt>
      <trkpt lat="43.28286" lon="3.4458">
        <ele>48</ele>
        <time>2021-07-01T14:30:12.000Z</time>
      </trkpt>
      <trkpt lat="43.28295" lon="3.44579">
        <ele>46</ele>
        <time>2021-07-01T14:30:18.000Z</time>
      </trkpt>
      <trkpt lat="43.28303" lon="3.44586">
        <ele>49</ele>
        <time>2021-07-01T14:30:34.000Z</time>
      </trkpt>
      <trkpt lat="43.28305" lon="3.44601">
        <ele>49</ele>
        <time>2021-07-01T14:30:37.000Z</time>
      </trkpt>
      <trkpt lat="43.28303" lon="3.44616">
        <ele>49</ele>
        <time>2021-07-01T14:30:40.000Z</time>
      </trkpt>
      <trkpt lat="43.28304" lon="3.4463">
        <ele>50</ele>
        <time>2021-07-01T14:30:43.000Z</time>
      </trkpt>
      <trkpt lat="43.28304" lon="3.44644">
        <ele>51</ele>
        <time>2021-07-01T14:30:46.000Z</time>
      </trkpt>
      <trkpt lat="43.28301" lon="3.44658">
        <ele>53</ele>
        <time>2021-07-01T14:30:49.000Z</time>
      </trkpt>
      <trkpt lat="43.28302" lon="3.44674">
        <ele>53</ele>
        <time>2021-07-01T14:30:52.000Z</time>
      </trkpt>
      <trkpt lat="43.283" lon="3.44687">
        <ele>52</ele>
        <time>2021-07-01T14:30:55.000Z</time>
      </trkpt>
      <trkpt lat="43.283" lon="3.44701">
        <ele>53</ele>
        <time>2021-07-01T14:30:59.000Z</time>
      </trkpt>
      <trkpt lat="43.283" lon="3.44715">
        <ele>51</ele>
        <time>2021-07-01T14:31:02.000Z</time>
      </trkpt>
      <trkpt lat="43.28301" lon="3.44729">
        <ele>52</ele>
        <time>2021-07-01T14:31:05.000Z</time>
      </trkpt>
      <trkpt lat="43.283" lon="3.44741">
        <ele>53</ele>
        <time>2021-07-01T14:31:08.000Z</time>
      </trkpt>
      <trkpt lat="43.28301" lon="3.44755">
        <ele>54</ele>
        <time>2021-07-01T14:31:12.000Z</time>
      </trkpt>
      <trkpt lat="43.283" lon="3.4477">
        <ele>54</ele>
        <time>2021-07-01T14:31:16.000Z</time>
      </trkpt>
      <trkpt lat="43.28299" lon="3.44784">
        <ele>54</ele>
        <time>2021-07-01T14:31:20.000Z</time>
      </trkpt>
      <trkpt lat="43.28299" lon="3.44803">
        <ele>55</ele>
        <time>2021-07-01T14:31:26.000Z</time>
      </trkpt>
      <trkpt lat="43.28299" lon="3.44816">
        <ele>55</ele>
        <time>2021-07-01T14:31:31.000Z</time>
      </trkpt>
      <trkpt lat="43.28298" lon="3.44831">
        <ele>58</ele>
        <time>2021-07-01T14:31:36.000Z</time>
      </trkpt>
      <trkpt lat="43.28297" lon="3.44843">
        <ele>58</ele>
        <time>2021-07-01T14:31:39.000Z</time>
      </trkpt>
      <trkpt lat="43.28296" lon="3.44861">
        <ele>58</ele>
        <time>2021-07-01T14:31:44.000Z</time>
      </trkpt>
      <trkpt lat="43.28295" lon="3.44875">
        <ele>60</ele>
        <time>2021-07-01T14:31:47.000Z</time>
      </trkpt>
      <trkpt lat="43.28294" lon="3.44894">
        <ele>60</ele>
        <time>2021-07-01T14:31:51.000Z</time>
      </trkpt>
      <trkpt lat="43.28294" lon="3.44907">
        <ele>60</ele>
        <time>2021-07-01T14:31:54.000Z</time>
      </trkpt>
      <trkpt lat="43.28293" lon="3.44919">
        <ele>60</ele>
        <time>2021-07-01T14:31:57.000Z</time>
      </trkpt>
      <trkpt lat="43.28293" lon="3.44933">
        <ele>58</ele>
        <time>2021-07-01T14:32:02.000Z</time>
      </trkpt>
      <trkpt lat="43.28294" lon="3.44948">
        <ele>57</ele>
        <time>2021-07-01T14:32:10.000Z</time>
      </trkpt>
      <trkpt lat="43.28291" lon="3.44961">
        <ele>56</ele>
        <time>2021-07-01T14:32:14.000Z</time>
      </trkpt>
      <trkpt lat="43.2829" lon="3.44974">
        <ele>54</ele>
        <time>2021-07-01T14:32:18.000Z</time>
      </trkpt>
      <trkpt lat="43.28288" lon="3.4499">
        <ele>54</ele>
        <time>2021-07-01T14:32:22.000Z</time>
      </trkpt>
      <trkpt lat="43.28292" lon="3.45003">
        <ele>51</ele>
        <time>2021-07-01T14:32:26.000Z</time>
      </trkpt>
      <trkpt lat="43.28301" lon="3.4501">
        <ele>52</ele>
        <time>2021-07-01T14:32:33.000Z</time>
      </trkpt>
      <trkpt lat="43.28326" lon="3.4504">
        <ele>62</ele>
        <time>2021-07-01T14:32:39.000Z</time>
      </trkpt>
      <trkpt lat="43.28305" lon="3.4504">
        <ele>62</ele>
        <time>2021-07-01T14:32:40.000Z</time>
      </trkpt>
      <trkpt lat="43.28298" lon="3.45053">
        <ele>61</ele>
        <time>2021-07-01T14:32:43.000Z</time>
      </trkpt>
      <trkpt lat="43.28297" lon="3.45066">
        <ele>65</ele>
        <time>2021-07-01T14:32:46.000Z</time>
      </trkpt>
      <trkpt lat="43.28296" lon="3.45082">
        <ele>63</ele>
        <time>2021-07-01T14:32:49.000Z</time>
      </trkpt>
      <trkpt lat="43.28295" lon="3.45095">
        <ele>63</ele>
        <time>2021-07-01T14:32:51.000Z</time>
      </trkpt>
      <trkpt lat="43.28293" lon="3.45111">
        <ele>62</ele>
        <time>2021-07-01T14:32:54.000Z</time>
      </trkpt>
      <trkpt lat="43.28289" lon="3.45125">
        <ele>62</ele>
        <time>2021-07-01T14:32:57.000Z</time>
      </trkpt>
      <trkpt lat="43.28279" lon="3.45128">
        <ele>60</ele>
        <time>2021-07-01T14:33:02.000Z</time>
      </trkpt>
      <trkpt lat="43.28276" lon="3.45141">
        <ele>57</ele>
        <time>2021-07-01T14:33:06.000Z</time>
      </trkpt>
      <trkpt lat="43.28275" lon="3.45154">
        <ele>57</ele>
        <time>2021-07-01T14:33:09.000Z</time>
      </trkpt>
      <trkpt lat="43.28273" lon="3.45167">
        <ele>56</ele>
        <time>2021-07-01T14:33:12.000Z</time>
      </trkpt>
      <trkpt lat="43.28272" lon="3.45181">
        <ele>56</ele>
        <time>2021-07-01T14:33:15.000Z</time>
      </trkpt>
      <trkpt lat="43.28271" lon="3.45194">
        <ele>54</ele>
        <time>2021-07-01T14:33:18.000Z</time>
      </trkpt>
      <trkpt lat="43.28269" lon="3.45209">
        <ele>54</ele>
        <time>2021-07-01T14:33:21.000Z</time>
      </trkpt>
      <trkpt lat="43.28266" lon="3.45229">
        <ele>53</ele>
        <time>2021-07-01T14:33:25.000Z</time>
      </trkpt>
      <trkpt lat="43.28266" lon="3.45243">
        <ele>52</ele>
        <time>2021-07-01T14:33:28.000Z</time>
      </trkpt>
      <trkpt lat="43.28263" lon="3.45257">
        <ele>52</ele>
        <time>2021-07-01T14:33:31.000Z</time>
      </trkpt>
      <trkpt lat="43.28262" lon="3.45273">
        <ele>52</ele>
        <time>2021-07-01T14:33:34.000Z</time>
      </trkpt>
      <trkpt lat="43.2826" lon="3.45288">
        <ele>51</ele>
        <time>2021-07-01T14:33:37.000Z</time>
      </trkpt>
      <trkpt lat="43.28259" lon="3.45303">
        <ele>51</ele>
        <time>2021-07-01T14:33:40.000Z</time>
      </trkpt>
      <trkpt lat="43.28257" lon="3.45318">
        <ele>51</ele>
        <time>2021-07-01T14:33:43.000Z</time>
      </trkpt>
      <trkpt lat="43.28255" lon="3.45334">
        <ele>50</ele>
        <time>2021-07-01T14:33:46.000Z</time>
      </trkpt>
      <trkpt lat="43.28253" lon="3.45348">
        <ele>51</ele>
        <time>2021-07-01T14:33:49.000Z</time>
      </trkpt>
      <trkpt lat="43.28254" lon="3.45361">
        <ele>51</ele>
        <time>2021-07-01T14:33:54.000Z</time>
      </trkpt>
      <trkpt lat="43.28263" lon="3.45361">
        <ele>51</ele>
        <time>2021-07-01T14:34:03.000Z</time>
      </trkpt>
      <trkpt lat="43.28273" lon="3.45359">
        <ele>49</ele>
        <time>2021-07-01T14:34:12.000Z</time>
      </trkpt>
      <trkpt lat="43.28284" lon="3.45362">
        <ele>49</ele>
        <time>2021-07-01T14:34:15.000Z</time>
      </trkpt>
      <trkpt lat="43.28297" lon="3.4536">
        <ele>49</ele>
        <time>2021-07-01T14:34:18.000Z</time>
      </trkpt>
      <trkpt lat="43.2831" lon="3.45359">
        <ele>51</ele>
        <time>2021-07-01T14:34:21.000Z</time>
      </trkpt>
      <trkpt lat="43.28319" lon="3.4536">
        <ele>51</ele>
        <time>2021-07-01T14:34:23.000Z</time>
      </trkpt>
      <trkpt lat="43.28331" lon="3.45361">
        <ele>52</ele>
        <time>2021-07-01T14:34:26.000Z</time>
      </trkpt>
      <trkpt lat="43.28343" lon="3.45361">
        <ele>52</ele>
        <time>2021-07-01T14:34:29.000Z</time>
      </trkpt>
      <trkpt lat="43.28354" lon="3.45361">
        <ele>52</ele>
        <time>2021-07-01T14:34:32.000Z</time>
      </trkpt>
      <trkpt lat="43.28369" lon="3.45362">
        <ele>52</ele>
        <time>2021-07-01T14:34:36.000Z</time>
      </trkpt>
      <trkpt lat="43.2838" lon="3.45362">
        <ele>53</ele>
        <time>2021-07-01T14:34:40.000Z</time>
      </trkpt>
      <trkpt lat="43.28392" lon="3.45362">
        <ele>53</ele>
        <time>2021-07-01T14:34:44.000Z</time>
      </trkpt>
      <trkpt lat="43.28403" lon="3.45363">
        <ele>53</ele>
        <time>2021-07-01T14:34:47.000Z</time>
      </trkpt>
      <trkpt lat="43.28403" lon="3.45381">
        <ele>53</ele>
        <time>2021-07-01T14:34:52.000Z</time>
      </trkpt>
      <trkpt lat="43.28398" lon="3.45395">
        <ele>53</ele>
        <time>2021-07-01T14:34:55.000Z</time>
      </trkpt>
      <trkpt lat="43.28393" lon="3.45407">
        <ele>52</ele>
        <time>2021-07-01T14:34:58.000Z</time>
      </trkpt>
      <trkpt lat="43.28387" lon="3.45421">
        <ele>51</ele>
        <time>2021-07-01T14:35:01.000Z</time>
      </trkpt>
      <trkpt lat="43.2838" lon="3.45436">
        <ele>50</ele>
        <time>2021-07-01T14:35:04.000Z</time>
      </trkpt>
      <trkpt lat="43.28374" lon="3.4545">
        <ele>50</ele>
        <time>2021-07-01T14:35:07.000Z</time>
      </trkpt>
      <trkpt lat="43.28368" lon="3.4546">
        <ele>48</ele>
        <time>2021-07-01T14:35:09.000Z</time>
      </trkpt>
      <trkpt lat="43.2836" lon="3.45474">
        <ele>48</ele>
        <time>2021-07-01T14:35:12.000Z</time>
      </trkpt>
      <trkpt lat="43.28354" lon="3.45489">
        <ele>48</ele>
        <time>2021-07-01T14:35:15.000Z</time>
      </trkpt>
      <trkpt lat="43.28347" lon="3.45504">
        <ele>47</ele>
        <time>2021-07-01T14:35:18.000Z</time>
      </trkpt>
      <trkpt lat="43.28339" lon="3.45515">
        <ele>46</ele>
        <time>2021-07-01T14:35:21.000Z</time>
      </trkpt>
      <trkpt lat="43.2833" lon="3.45527">
        <ele>46</ele>
        <time>2021-07-01T14:35:24.000Z</time>
      </trkpt>
      <trkpt lat="43.28322" lon="3.45538">
        <ele>46</ele>
        <time>2021-07-01T14:35:27.000Z</time>
      </trkpt>
      <trkpt lat="43.28312" lon="3.45547">
        <ele>47</ele>
        <time>2021-07-01T14:35:30.000Z</time>
      </trkpt>
      <trkpt lat="43.28299" lon="3.45552">
        <ele>47</ele>
        <time>2021-07-01T14:35:33.000Z</time>
      </trkpt>
      <trkpt lat="43.28288" lon="3.4556">
        <ele>46</ele>
        <time>2021-07-01T14:35:36.000Z</time>
      </trkpt>
      <trkpt lat="43.28278" lon="3.45569">
        <ele>46</ele>
        <time>2021-07-01T14:35:39.000Z</time>
      </trkpt>
      <trkpt lat="43.28266" lon="3.45586">
        <ele>47</ele>
        <time>2021-07-01T14:35:43.000Z</time>
      </trkpt>
      <trkpt lat="43.28256" lon="3.45597">
        <ele>47</ele>
        <time>2021-07-01T14:35:46.000Z</time>
      </trkpt>
      <trkpt lat="43.28248" lon="3.45607">
        <ele>47</ele>
        <time>2021-07-01T14:35:49.000Z</time>
      </trkpt>
      <trkpt lat="43.28237" lon="3.45622">
        <ele>46</ele>
        <time>2021-07-01T14:35:53.000Z</time>
      </trkpt>
      <trkpt lat="43.28232" lon="3.45633">
        <ele>47</ele>
        <time>2021-07-01T14:35:55.000Z</time>
      </trkpt>
      <trkpt lat="43.28226" lon="3.45648">
        <ele>48</ele>
        <time>2021-07-01T14:35:58.000Z</time>
      </trkpt>
      <trkpt lat="43.28219" lon="3.45665">
        <ele>47</ele>
        <time>2021-07-01T14:36:01.000Z</time>
      </trkpt>
      <trkpt lat="43.28214" lon="3.45678">
        <ele>47</ele>
        <time>2021-07-01T14:36:03.000Z</time>
      </trkpt>
      <trkpt lat="43.28207" lon="3.45692">
        <ele>49</ele>
        <time>2021-07-01T14:36:06.000Z</time>
      </trkpt>
      <trkpt lat="43.28201" lon="3.45706">
        <ele>47</ele>
        <time>2021-07-01T14:36:09.000Z</time>
      </trkpt>
      <trkpt lat="43.28193" lon="3.45718">
        <ele>49</ele>
        <time>2021-07-01T14:36:12.000Z</time>
      </trkpt>
      <trkpt lat="43.28184" lon="3.45731">
        <ele>49</ele>
        <time>2021-07-01T14:36:15.000Z</time>
      </trkpt>
      <trkpt lat="43.28176" lon="3.45744">
        <ele>48</ele>
        <time>2021-07-01T14:36:18.000Z</time>
      </trkpt>
      <trkpt lat="43.2817" lon="3.4576">
        <ele>45</ele>
        <time>2021-07-01T14:36:21.000Z</time>
      </trkpt>
      <trkpt lat="43.28164" lon="3.45775">
        <ele>47</ele>
        <time>2021-07-01T14:36:24.000Z</time>
      </trkpt>
      <trkpt lat="43.2816" lon="3.45786">
        <ele>47</ele>
        <time>2021-07-01T14:36:26.000Z</time>
      </trkpt>
      <trkpt lat="43.28156" lon="3.45797">
        <ele>47</ele>
        <time>2021-07-01T14:36:28.000Z</time>
      </trkpt>
      <trkpt lat="43.28151" lon="3.45808">
        <ele>47</ele>
        <time>2021-07-01T14:36:30.000Z</time>
      </trkpt>
      <trkpt lat="43.28145" lon="3.45824">
        <ele>48</ele>
        <time>2021-07-01T14:36:33.000Z</time>
      </trkpt>
      <trkpt lat="43.28139" lon="3.4584">
        <ele>49</ele>
        <time>2021-07-01T14:36:36.000Z</time>
      </trkpt>
      <trkpt lat="43.28135" lon="3.4585">
        <ele>49</ele>
        <time>2021-07-01T14:36:38.000Z</time>
      </trkpt>
      <trkpt lat="43.28128" lon="3.45866">
        <ele>49</ele>
        <time>2021-07-01T14:36:41.000Z</time>
      </trkpt>
      <trkpt lat="43.28121" lon="3.45881">
        <ele>49</ele>
        <time>2021-07-01T14:36:44.000Z</time>
      </trkpt>
      <trkpt lat="43.28117" lon="3.45893">
        <ele>49</ele>
        <time>2021-07-01T14:36:46.000Z</time>
      </trkpt>
      <trkpt lat="43.28113" lon="3.45903">
        <ele>49</ele>
        <time>2021-07-01T14:36:48.000Z</time>
      </trkpt>
      <trkpt lat="43.28108" lon="3.45914">
        <ele>49</ele>
        <time>2021-07-01T14:36:50.000Z</time>
      </trkpt>
      <trkpt lat="43.28104" lon="3.45926">
        <ele>49</ele>
        <time>2021-07-01T14:36:52.000Z</time>
      </trkpt>
      <trkpt lat="43.28099" lon="3.45937">
        <ele>49</ele>
        <time>2021-07-01T14:36:54.000Z</time>
      </trkpt>
      <trkpt lat="43.28095" lon="3.45948">
        <ele>49</ele>
        <time>2021-07-01T14:36:56.000Z</time>
      </trkpt>
      <trkpt lat="43.2809" lon="3.45959">
        <ele>49</ele>
        <time>2021-07-01T14:36:58.000Z</time>
      </trkpt>
      <trkpt lat="43.28085" lon="3.4597">
        <ele>48</ele>
        <time>2021-07-01T14:37:00.000Z</time>
      </trkpt>
      <trkpt lat="43.2808" lon="3.45982">
        <ele>48</ele>
        <time>2021-07-01T14:37:02.000Z</time>
      </trkpt>
      <trkpt lat="43.28076" lon="3.45994">
        <ele>48</ele>
        <time>2021-07-01T14:37:04.000Z</time>
      </trkpt>
      <trkpt lat="43.28071" lon="3.46005">
        <ele>48</ele>
        <time>2021-07-01T14:37:06.000Z</time>
      </trkpt>
      <trkpt lat="43.28067" lon="3.46017">
        <ele>47</ele>
        <time>2021-07-01T14:37:08.000Z</time>
      </trkpt>
      <trkpt lat="43.28063" lon="3.4603">
        <ele>45</ele>
        <time>2021-07-01T14:37:10.000Z</time>
      </trkpt>
      <trkpt lat="43.28059" lon="3.46042">
        <ele>45</ele>
        <time>2021-07-01T14:37:12.000Z</time>
      </trkpt>
      <trkpt lat="43.28054" lon="3.46054">
        <ele>46</ele>
        <time>2021-07-01T14:37:14.000Z</time>
      </trkpt>
      <trkpt lat="43.28047" lon="3.4607">
        <ele>46</ele>
        <time>2021-07-01T14:37:17.000Z</time>
      </trkpt>
      <trkpt lat="43.28041" lon="3.46088">
        <ele>46</ele>
        <time>2021-07-01T14:37:20.000Z</time>
      </trkpt>
      <trkpt lat="43.28038" lon="3.461">
        <ele>46</ele>
        <time>2021-07-01T14:37:22.000Z</time>
      </trkpt>
      <trkpt lat="43.28035" lon="3.46112">
        <ele>47</ele>
        <time>2021-07-01T14:37:24.000Z</time>
      </trkpt>
      <trkpt lat="43.2803" lon="3.46131">
        <ele>46</ele>
        <time>2021-07-01T14:37:27.000Z</time>
      </trkpt>
      <trkpt lat="43.28025" lon="3.46142">
        <ele>44</ele>
        <time>2021-07-01T14:37:29.000Z</time>
      </trkpt>
      <trkpt lat="43.28022" lon="3.46154">
        <ele>46</ele>
        <time>2021-07-01T14:37:31.000Z</time>
      </trkpt>
      <trkpt lat="43.28016" lon="3.46172">
        <ele>47</ele>
        <time>2021-07-01T14:37:34.000Z</time>
      </trkpt>
      <trkpt lat="43.28011" lon="3.46185">
        <ele>45</ele>
        <time>2021-07-01T14:37:36.000Z</time>
      </trkpt>
      <trkpt lat="43.28007" lon="3.46197">
        <ele>46</ele>
        <time>2021-07-01T14:37:38.000Z</time>
      </trkpt>
      <trkpt lat="43.28003" lon="3.46208">
        <ele>46</ele>
        <time>2021-07-01T14:37:40.000Z</time>
      </trkpt>
      <trkpt lat="43.27998" lon="3.46219">
        <ele>46</ele>
        <time>2021-07-01T14:37:42.000Z</time>
      </trkpt>
      <trkpt lat="43.27991" lon="3.46235">
        <ele>43</ele>
        <time>2021-07-01T14:37:45.000Z</time>
      </trkpt>
      <trkpt lat="43.27986" lon="3.46247">
        <ele>44</ele>
        <time>2021-07-01T14:37:47.000Z</time>
      </trkpt>
      <trkpt lat="43.27981" lon="3.46259">
        <ele>44</ele>
        <time>2021-07-01T14:37:49.000Z</time>
      </trkpt>
      <trkpt lat="43.27977" lon="3.46271">
        <ele>45</ele>
        <time>2021-07-01T14:37:51.000Z</time>
      </trkpt>
      <trkpt lat="43.27973" lon="3.46283">
        <ele>44</ele>
        <time>2021-07-01T14:37:53.000Z</time>
      </trkpt>
      <trkpt lat="43.27968" lon="3.46296">
        <ele>45</ele>
        <time>2021-07-01T14:37:55.000Z</time>
      </trkpt>
      <trkpt lat="43.27963" lon="3.46308">
        <ele>45</ele>
        <time>2021-07-01T14:37:57.000Z</time>
      </trkpt>
      <trkpt lat="43.27959" lon="3.4632">
        <ele>45</ele>
        <time>2021-07-01T14:37:59.000Z</time>
      </trkpt>
      <trkpt lat="43.27953" lon="3.46337">
        <ele>45</ele>
        <time>2021-07-01T14:38:02.000Z</time>
      </trkpt>
      <trkpt lat="43.27947" lon="3.4635">
        <ele>43</ele>
        <time>2021-07-01T14:38:04.000Z</time>
      </trkpt>
      <trkpt lat="43.27943" lon="3.46362">
        <ele>43</ele>
        <time>2021-07-01T14:38:06.000Z</time>
      </trkpt>
      <trkpt lat="43.27937" lon="3.46373">
        <ele>43</ele>
        <time>2021-07-01T14:38:08.000Z</time>
      </trkpt>
      <trkpt lat="43.27931" lon="3.46383">
        <ele>44</ele>
        <time>2021-07-01T14:38:10.000Z</time>
      </trkpt>
      <trkpt lat="43.27924" lon="3.4639">
        <ele>44</ele>
        <time>2021-07-01T14:38:12.000Z</time>
      </trkpt>
      <trkpt lat="43.27917" lon="3.46399">
        <ele>44</ele>
        <time>2021-07-01T14:38:14.000Z</time>
      </trkpt>
      <trkpt lat="43.2791" lon="3.46408">
        <ele>45</ele>
        <time>2021-07-01T14:38:16.000Z</time>
      </trkpt>
      <trkpt lat="43.27904" lon="3.46419">
        <ele>46</ele>
        <time>2021-07-01T14:38:18.000Z</time>
      </trkpt>
      <trkpt lat="43.27898" lon="3.46428">
        <ele>46</ele>
        <time>2021-07-01T14:38:20.000Z</time>
      </trkpt>
      <trkpt lat="43.27891" lon="3.46438">
        <ele>46</ele>
        <time>2021-07-01T14:38:22.000Z</time>
      </trkpt>
      <trkpt lat="43.27885" lon="3.46448">
        <ele>46</ele>
        <time>2021-07-01T14:38:24.000Z</time>
      </trkpt>
      <trkpt lat="43.27878" lon="3.46456">
        <ele>46</ele>
        <time>2021-07-01T14:38:26.000Z</time>
      </trkpt>
      <trkpt lat="43.27867" lon="3.46467">
        <ele>47</ele>
        <time>2021-07-01T14:38:29.000Z</time>
      </trkpt>
      <trkpt lat="43.27859" lon="3.46475">
        <ele>48</ele>
        <time>2021-07-01T14:38:31.000Z</time>
      </trkpt>
      <trkpt lat="43.27851" lon="3.46483">
        <ele>48</ele>
        <time>2021-07-01T14:38:33.000Z</time>
      </trkpt>
      <trkpt lat="43.27844" lon="3.46494">
        <ele>48</ele>
        <time>2021-07-01T14:38:35.000Z</time>
      </trkpt>
      <trkpt lat="43.27838" lon="3.46506">
        <ele>48</ele>
        <time>2021-07-01T14:38:37.000Z</time>
      </trkpt>
      <trkpt lat="43.27833" lon="3.46517">
        <ele>48</ele>
        <time>2021-07-01T14:38:39.000Z</time>
      </trkpt>
      <trkpt lat="43.27828" lon="3.46528">
        <ele>48</ele>
        <time>2021-07-01T14:38:41.000Z</time>
      </trkpt>
      <trkpt lat="43.27823" lon="3.46539">
        <ele>47</ele>
        <time>2021-07-01T14:38:43.000Z</time>
      </trkpt>
      <trkpt lat="43.27818" lon="3.46551">
        <ele>47</ele>
        <time>2021-07-01T14:38:45.000Z</time>
      </trkpt>
      <trkpt lat="43.27813" lon="3.46562">
        <ele>47</ele>
        <time>2021-07-01T14:38:47.000Z</time>
      </trkpt>
      <trkpt lat="43.27809" lon="3.46574">
        <ele>47</ele>
        <time>2021-07-01T14:38:49.000Z</time>
      </trkpt>
      <trkpt lat="43.27805" lon="3.46587">
        <ele>47</ele>
        <time>2021-07-01T14:38:51.000Z</time>
      </trkpt>
      <trkpt lat="43.27803" lon="3.466">
        <ele>48</ele>
        <time>2021-07-01T14:38:53.000Z</time>
      </trkpt>
      <trkpt lat="43.27803" lon="3.46613">
        <ele>48</ele>
        <time>2021-07-01T14:38:55.000Z</time>
      </trkpt>
      <trkpt lat="43.27803" lon="3.46626">
        <ele>49</ele>
        <time>2021-07-01T14:38:57.000Z</time>
      </trkpt>
      <trkpt lat="43.278" lon="3.46638">
        <ele>49</ele>
        <time>2021-07-01T14:38:59.000Z</time>
      </trkpt>
      <trkpt lat="43.27797" lon="3.46654">
        <ele>48</ele>
        <time>2021-07-01T14:39:02.000Z</time>
      </trkpt>
      <trkpt lat="43.27793" lon="3.46666">
        <ele>50</ele>
        <time>2021-07-01T14:39:04.000Z</time>
      </trkpt>
      <trkpt lat="43.27789" lon="3.46679">
        <ele>50</ele>
        <time>2021-07-01T14:39:06.000Z</time>
      </trkpt>
      <trkpt lat="43.27785" lon="3.46691">
        <ele>49</ele>
        <time>2021-07-01T14:39:08.000Z</time>
      </trkpt>
      <trkpt lat="43.2778" lon="3.46709">
        <ele>49</ele>
        <time>2021-07-01T14:39:11.000Z</time>
      </trkpt>
      <trkpt lat="43.27775" lon="3.46725">
        <ele>50</ele>
        <time>2021-07-01T14:39:14.000Z</time>
      </trkpt>
      <trkpt lat="43.2777" lon="3.46742">
        <ele>50</ele>
        <time>2021-07-01T14:39:17.000Z</time>
      </trkpt>
      <trkpt lat="43.27766" lon="3.46754">
        <ele>50</ele>
        <time>2021-07-01T14:39:19.000Z</time>
      </trkpt>
      <trkpt lat="43.27761" lon="3.46765">
        <ele>50</ele>
        <time>2021-07-01T14:39:21.000Z</time>
      </trkpt>
      <trkpt lat="43.27756" lon="3.46777">
        <ele>50</ele>
        <time>2021-07-01T14:39:23.000Z</time>
      </trkpt>
      <trkpt lat="43.27751" lon="3.46787">
        <ele>50</ele>
        <time>2021-07-01T14:39:25.000Z</time>
      </trkpt>
      <trkpt lat="43.27743" lon="3.46803">
        <ele>50</ele>
        <time>2021-07-01T14:39:28.000Z</time>
      </trkpt>
      <trkpt lat="43.27737" lon="3.46819">
        <ele>50</ele>
        <time>2021-07-01T14:39:31.000Z</time>
      </trkpt>
      <trkpt lat="43.2773" lon="3.46835">
        <ele>50</ele>
        <time>2021-07-01T14:39:34.000Z</time>
      </trkpt>
      <trkpt lat="43.27725" lon="3.46852">
        <ele>50</ele>
        <time>2021-07-01T14:39:37.000Z</time>
      </trkpt>
      <trkpt lat="43.27721" lon="3.46869">
        <ele>50</ele>
        <time>2021-07-01T14:39:40.000Z</time>
      </trkpt>
      <trkpt lat="43.27719" lon="3.46888">
        <ele>50</ele>
        <time>2021-07-01T14:39:43.000Z</time>
      </trkpt>
      <trkpt lat="43.27718" lon="3.46906">
        <ele>50</ele>
        <time>2021-07-01T14:39:46.000Z</time>
      </trkpt>
      <trkpt lat="43.27718" lon="3.46919">
        <ele>50</ele>
        <time>2021-07-01T14:39:48.000Z</time>
      </trkpt>
      <trkpt lat="43.27718" lon="3.46951">
        <ele>50</ele>
        <time>2021-07-01T14:39:53.000Z</time>
      </trkpt>
      <trkpt lat="43.27717" lon="3.46963">
        <ele>51</ele>
        <time>2021-07-01T14:39:55.000Z</time>
      </trkpt>
      <trkpt lat="43.27716" lon="3.46976">
        <ele>50</ele>
        <time>2021-07-01T14:39:57.000Z</time>
      </trkpt>
      <trkpt lat="43.27717" lon="3.46989">
        <ele>50</ele>
        <time>2021-07-01T14:39:59.000Z</time>
      </trkpt>
      <trkpt lat="43.27719" lon="3.47002">
        <ele>50</ele>
        <time>2021-07-01T14:40:01.000Z</time>
      </trkpt>
      <trkpt lat="43.27723" lon="3.47019">
        <ele>49</ele>
        <time>2021-07-01T14:40:04.000Z</time>
      </trkpt>
      <trkpt lat="43.27726" lon="3.47031">
        <ele>50</ele>
        <time>2021-07-01T14:40:06.000Z</time>
      </trkpt>
      <trkpt lat="43.27729" lon="3.47044">
        <ele>50</ele>
        <time>2021-07-01T14:40:08.000Z</time>
      </trkpt>
      <trkpt lat="43.27732" lon="3.47062">
        <ele>49</ele>
        <time>2021-07-01T14:40:11.000Z</time>
      </trkpt>
      <trkpt lat="43.27734" lon="3.47074">
        <ele>49</ele>
        <time>2021-07-01T14:40:14.000Z</time>
      </trkpt>
      <trkpt lat="43.27739" lon="3.4709">
        <ele>50</ele>
        <time>2021-07-01T14:40:19.000Z</time>
      </trkpt>
      <trkpt lat="43.27746" lon="3.47099">
        <ele>50</ele>
        <time>2021-07-01T14:40:23.000Z</time>
      </trkpt>
      <trkpt lat="43.27756" lon="3.47106">
        <ele>51</ele>
        <time>2021-07-01T14:40:26.000Z</time>
      </trkpt>
      <trkpt lat="43.27769" lon="3.47114">
        <ele>51</ele>
        <time>2021-07-01T14:40:29.000Z</time>
      </trkpt>
      <trkpt lat="43.27778" lon="3.47121">
        <ele>52</ele>
        <time>2021-07-01T14:40:31.000Z</time>
      </trkpt>
      <trkpt lat="43.27785" lon="3.47129">
        <ele>53</ele>
        <time>2021-07-01T14:40:33.000Z</time>
      </trkpt>
      <trkpt lat="43.27796" lon="3.47138">
        <ele>54</ele>
        <time>2021-07-01T14:40:36.000Z</time>
      </trkpt>
      <trkpt lat="43.27807" lon="3.47148">
        <ele>54</ele>
        <time>2021-07-01T14:40:39.000Z</time>
      </trkpt>
      <trkpt lat="43.27815" lon="3.47155">
        <ele>54</ele>
        <time>2021-07-01T14:40:41.000Z</time>
      </trkpt>
      <trkpt lat="43.27827" lon="3.47165">
        <ele>54</ele>
        <time>2021-07-01T14:40:44.000Z</time>
      </trkpt>
      <trkpt lat="43.27835" lon="3.47172">
        <ele>54</ele>
        <time>2021-07-01T14:40:46.000Z</time>
      </trkpt>
      <trkpt lat="43.27843" lon="3.47179">
        <ele>55</ele>
        <time>2021-07-01T14:40:48.000Z</time>
      </trkpt>
      <trkpt lat="43.27853" lon="3.47187">
        <ele>54</ele>
        <time>2021-07-01T14:40:50.000Z</time>
      </trkpt>
      <trkpt lat="43.27861" lon="3.47194">
        <ele>54</ele>
        <time>2021-07-01T14:40:52.000Z</time>
      </trkpt>
      <trkpt lat="43.27869" lon="3.47202">
        <ele>53</ele>
        <time>2021-07-01T14:40:54.000Z</time>
      </trkpt>
      <trkpt lat="43.27877" lon="3.47209">
        <ele>54</ele>
        <time>2021-07-01T14:40:56.000Z</time>
      </trkpt>
      <trkpt lat="43.27885" lon="3.47216">
        <ele>54</ele>
        <time>2021-07-01T14:40:58.000Z</time>
      </trkpt>
      <trkpt lat="43.27898" lon="3.47226">
        <ele>54</ele>
        <time>2021-07-01T14:41:01.000Z</time>
      </trkpt>
      <trkpt lat="43.27906" lon="3.47233">
        <ele>54</ele>
        <time>2021-07-01T14:41:03.000Z</time>
      </trkpt>
      <trkpt lat="43.27913" lon="3.47241">
        <ele>54</ele>
        <time>2021-07-01T14:41:05.000Z</time>
      </trkpt>
      <trkpt lat="43.27921" lon="3.47248">
        <ele>54</ele>
        <time>2021-07-01T14:41:07.000Z</time>
      </trkpt>
      <trkpt lat="43.27933" lon="3.47259">
        <ele>54</ele>
        <time>2021-07-01T14:41:10.000Z</time>
      </trkpt>
      <trkpt lat="43.27945" lon="3.4727">
        <ele>54</ele>
        <time>2021-07-01T14:41:13.000Z</time>
      </trkpt>
      <trkpt lat="43.27952" lon="3.47276">
        <ele>55</ele>
        <time>2021-07-01T14:41:15.000Z</time>
      </trkpt>
      <trkpt lat="43.2796" lon="3.47284">
        <ele>55</ele>
        <time>2021-07-01T14:41:17.000Z</time>
      </trkpt>
      <trkpt lat="43.27973" lon="3.47295">
        <ele>55</ele>
        <time>2021-07-01T14:41:20.000Z</time>
      </trkpt>
      <trkpt lat="43.27981" lon="3.47302">
        <ele>55</ele>
        <time>2021-07-01T14:41:22.000Z</time>
      </trkpt>
      <trkpt lat="43.27993" lon="3.47309">
        <ele>54</ele>
        <time>2021-07-01T14:41:25.000Z</time>
      </trkpt>
      <trkpt lat="43.28002" lon="3.47314">
        <ele>54</ele>
        <time>2021-07-01T14:41:27.000Z</time>
      </trkpt>
      <trkpt lat="43.28011" lon="3.4732">
        <ele>53</ele>
        <time>2021-07-01T14:41:29.000Z</time>
      </trkpt>
      <trkpt lat="43.28023" lon="3.47328">
        <ele>54</ele>
        <time>2021-07-01T14:41:32.000Z</time>
      </trkpt>
      <trkpt lat="43.28041" lon="3.47333">
        <ele>54</ele>
        <time>2021-07-01T14:41:36.000Z</time>
      </trkpt>
      <trkpt lat="43.2805" lon="3.47332">
        <ele>54</ele>
        <time>2021-07-01T14:41:38.000Z</time>
      </trkpt>
      <trkpt lat="43.28059" lon="3.47333">
        <ele>55</ele>
        <time>2021-07-01T14:41:40.000Z</time>
      </trkpt>
      <trkpt lat="43.28076" lon="3.47344">
        <ele>55</ele>
        <time>2021-07-01T14:41:44.000Z</time>
      </trkpt>
      <trkpt lat="43.28084" lon="3.4735">
        <ele>55</ele>
        <time>2021-07-01T14:41:46.000Z</time>
      </trkpt>
      <trkpt lat="43.28095" lon="3.47356">
        <ele>57</ele>
        <time>2021-07-01T14:41:49.000Z</time>
      </trkpt>
      <trkpt lat="43.28104" lon="3.47362">
        <ele>57</ele>
        <time>2021-07-01T14:41:51.000Z</time>
      </trkpt>
      <trkpt lat="43.28116" lon="3.47369">
        <ele>56</ele>
        <time>2021-07-01T14:41:54.000Z</time>
      </trkpt>
      <trkpt lat="43.28125" lon="3.47374">
        <ele>56</ele>
        <time>2021-07-01T14:41:56.000Z</time>
      </trkpt>
      <trkpt lat="43.28137" lon="3.47382">
        <ele>55</ele>
        <time>2021-07-01T14:41:59.000Z</time>
      </trkpt>
      <trkpt lat="43.28147" lon="3.47391">
        <ele>55</ele>
        <time>2021-07-01T14:42:02.000Z</time>
      </trkpt>
      <trkpt lat="43.28156" lon="3.47401">
        <ele>56</ele>
        <time>2021-07-01T14:42:05.000Z</time>
      </trkpt>
      <trkpt lat="43.28166" lon="3.4741">
        <ele>56</ele>
        <time>2021-07-01T14:42:08.000Z</time>
      </trkpt>
      <trkpt lat="43.28177" lon="3.47418">
        <ele>56</ele>
        <time>2021-07-01T14:42:11.000Z</time>
      </trkpt>
      <trkpt lat="43.28188" lon="3.47423">
        <ele>57</ele>
        <time>2021-07-01T14:42:14.000Z</time>
      </trkpt>
      <trkpt lat="43.282" lon="3.47424">
        <ele>56</ele>
        <time>2021-07-01T14:42:17.000Z</time>
      </trkpt>
      <trkpt lat="43.28211" lon="3.47418">
        <ele>56</ele>
        <time>2021-07-01T14:42:20.000Z</time>
      </trkpt>
      <trkpt lat="43.28217" lon="3.47404">
        <ele>57</ele>
        <time>2021-07-01T14:42:23.000Z</time>
      </trkpt>
      <trkpt lat="43.28227" lon="3.47387">
        <ele>57</ele>
        <time>2021-07-01T14:42:27.000Z</time>
      </trkpt>
      <trkpt lat="43.28236" lon="3.47375">
        <ele>57</ele>
        <time>2021-07-01T14:42:30.000Z</time>
      </trkpt>
      <trkpt lat="43.28248" lon="3.47367">
        <ele>57</ele>
        <time>2021-07-01T14:42:33.000Z</time>
      </trkpt>
      <trkpt lat="43.28257" lon="3.47366">
        <ele>57</ele>
        <time>2021-07-01T14:42:35.000Z</time>
      </trkpt>
      <trkpt lat="43.2827" lon="3.47366">
        <ele>57</ele>
        <time>2021-07-01T14:42:38.000Z</time>
      </trkpt>
      <trkpt lat="43.28279" lon="3.47368">
        <ele>58</ele>
        <time>2021-07-01T14:42:40.000Z</time>
      </trkpt>
      <trkpt lat="43.28296" lon="3.47371">
        <ele>58</ele>
        <time>2021-07-01T14:42:44.000Z</time>
      </trkpt>
      <trkpt lat="43.28307" lon="3.4737">
        <ele>58</ele>
        <time>2021-07-01T14:42:47.000Z</time>
      </trkpt>
      <trkpt lat="43.28316" lon="3.47372">
        <ele>59</ele>
        <time>2021-07-01T14:42:49.000Z</time>
      </trkpt>
      <trkpt lat="43.28326" lon="3.47375">
        <ele>59</ele>
        <time>2021-07-01T14:42:51.000Z</time>
      </trkpt>
      <trkpt lat="43.28338" lon="3.47381">
        <ele>59</ele>
        <time>2021-07-01T14:42:54.000Z</time>
      </trkpt>
      <trkpt lat="43.2835" lon="3.47388">
        <ele>57</ele>
        <time>2021-07-01T14:42:57.000Z</time>
      </trkpt>
      <trkpt lat="43.28358" lon="3.47392">
        <ele>58</ele>
        <time>2021-07-01T14:42:59.000Z</time>
      </trkpt>
      <trkpt lat="43.28372" lon="3.47399">
        <ele>58</ele>
        <time>2021-07-01T14:43:02.000Z</time>
      </trkpt>
      <trkpt lat="43.28384" lon="3.47405">
        <ele>58</ele>
        <time>2021-07-01T14:43:05.000Z</time>
      </trkpt>
      <trkpt lat="43.28397" lon="3.4741">
        <ele>58</ele>
        <time>2021-07-01T14:43:08.000Z</time>
      </trkpt>
      <trkpt lat="43.28406" lon="3.47414">
        <ele>58</ele>
        <time>2021-07-01T14:43:10.000Z</time>
      </trkpt>
      <trkpt lat="43.28415" lon="3.47418">
        <ele>58</ele>
        <time>2021-07-01T14:43:12.000Z</time>
      </trkpt>
      <trkpt lat="43.28428" lon="3.47424">
        <ele>59</ele>
        <time>2021-07-01T14:43:15.000Z</time>
      </trkpt>
      <trkpt lat="43.28436" lon="3.4743">
        <ele>59</ele>
        <time>2021-07-01T14:43:17.000Z</time>
      </trkpt>
      <trkpt lat="43.28452" lon="3.47442">
        <ele>59</ele>
        <time>2021-07-01T14:43:21.000Z</time>
      </trkpt>
      <trkpt lat="43.28462" lon="3.47451">
        <ele>60</ele>
        <time>2021-07-01T14:43:24.000Z</time>
      </trkpt>
      <trkpt lat="43.28474" lon="3.47463">
        <ele>60</ele>
        <time>2021-07-01T14:43:28.000Z</time>
      </trkpt>
      <trkpt lat="43.28483" lon="3.47473">
        <ele>61</ele>
        <time>2021-07-01T14:43:31.000Z</time>
      </trkpt>
      <trkpt lat="43.28492" lon="3.47481">
        <ele>62</ele>
        <time>2021-07-01T14:43:34.000Z</time>
      </trkpt>
      <trkpt lat="43.28489" lon="3.47499">
        <ele>61</ele>
        <time>2021-07-01T14:43:38.000Z</time>
      </trkpt>
      <trkpt lat="43.28479" lon="3.47512">
        <ele>59</ele>
        <time>2021-07-01T14:43:41.000Z</time>
      </trkpt>
      <trkpt lat="43.28471" lon="3.47525">
        <ele>59</ele>
        <time>2021-07-01T14:43:44.000Z</time>
      </trkpt>
      <trkpt lat="43.28462" lon="3.47535">
        <ele>58</ele>
        <time>2021-07-01T14:43:47.000Z</time>
      </trkpt>
      <trkpt lat="43.28453" lon="3.47544">
        <ele>58</ele>
        <time>2021-07-01T14:43:50.000Z</time>
      </trkpt>
      <trkpt lat="43.28444" lon="3.47554">
        <ele>58</ele>
        <time>2021-07-01T14:43:53.000Z</time>
      </trkpt>
      <trkpt lat="43.28434" lon="3.47564">
        <ele>58</ele>
        <time>2021-07-01T14:43:56.000Z</time>
      </trkpt>
      <trkpt lat="43.28426" lon="3.4757">
        <ele>59</ele>
        <time>2021-07-01T14:43:58.000Z</time>
      </trkpt>
      <trkpt lat="43.28415" lon="3.47579">
        <ele>59</ele>
        <time>2021-07-01T14:44:01.000Z</time>
      </trkpt>
      <trkpt lat="43.28404" lon="3.4759">
        <ele>59</ele>
        <time>2021-07-01T14:44:04.000Z</time>
      </trkpt>
      <trkpt lat="43.28396" lon="3.47597">
        <ele>59</ele>
        <time>2021-07-01T14:44:06.000Z</time>
      </trkpt>
      <trkpt lat="43.28389" lon="3.47605">
        <ele>59</ele>
        <time>2021-07-01T14:44:08.000Z</time>
      </trkpt>
      <trkpt lat="43.28377" lon="3.47615">
        <ele>58</ele>
        <time>2021-07-01T14:44:11.000Z</time>
      </trkpt>
      <trkpt lat="43.28366" lon="3.47623">
        <ele>57</ele>
        <time>2021-07-01T14:44:14.000Z</time>
      </trkpt>
      <trkpt lat="43.28349" lon="3.47631">
        <ele>57</ele>
        <time>2021-07-01T14:44:18.000Z</time>
      </trkpt>
      <trkpt lat="43.28339" lon="3.47634">
        <ele>56</ele>
        <time>2021-07-01T14:44:20.000Z</time>
      </trkpt>
      <trkpt lat="43.28329" lon="3.47638">
        <ele>56</ele>
        <time>2021-07-01T14:44:22.000Z</time>
      </trkpt>
      <trkpt lat="43.28319" lon="3.47644">
        <ele>56</ele>
        <time>2021-07-01T14:44:24.000Z</time>
      </trkpt>
      <trkpt lat="43.28311" lon="3.47652">
        <ele>56</ele>
        <time>2021-07-01T14:44:26.000Z</time>
      </trkpt>
      <trkpt lat="43.28304" lon="3.4766">
        <ele>55</ele>
        <time>2021-07-01T14:44:28.000Z</time>
      </trkpt>
      <trkpt lat="43.28294" lon="3.47673">
        <ele>55</ele>
        <time>2021-07-01T14:44:31.000Z</time>
      </trkpt>
      <trkpt lat="43.28287" lon="3.47682">
        <ele>56</ele>
        <time>2021-07-01T14:44:33.000Z</time>
      </trkpt>
      <trkpt lat="43.28279" lon="3.47691">
        <ele>55</ele>
        <time>2021-07-01T14:44:35.000Z</time>
      </trkpt>
      <trkpt lat="43.2827" lon="3.47699">
        <ele>55</ele>
        <time>2021-07-01T14:44:37.000Z</time>
      </trkpt>
      <trkpt lat="43.28261" lon="3.47703">
        <ele>55</ele>
        <time>2021-07-01T14:44:39.000Z</time>
      </trkpt>
      <trkpt lat="43.28252" lon="3.47704">
        <ele>54</ele>
        <time>2021-07-01T14:44:41.000Z</time>
      </trkpt>
      <trkpt lat="43.28239" lon="3.47706">
        <ele>54</ele>
        <time>2021-07-01T14:44:44.000Z</time>
      </trkpt>
      <trkpt lat="43.28227" lon="3.47712">
        <ele>54</ele>
        <time>2021-07-01T14:44:47.000Z</time>
      </trkpt>
      <trkpt lat="43.28219" lon="3.47726">
        <ele>54</ele>
        <time>2021-07-01T14:44:50.000Z</time>
      </trkpt>
      <trkpt lat="43.28211" lon="3.47746">
        <ele>53</ele>
        <time>2021-07-01T14:44:54.000Z</time>
      </trkpt>
      <trkpt lat="43.28206" lon="3.47765">
        <ele>55</ele>
        <time>2021-07-01T14:44:57.000Z</time>
      </trkpt>
      <trkpt lat="43.28202" lon="3.47777">
        <ele>55</ele>
        <time>2021-07-01T14:44:59.000Z</time>
      </trkpt>
      <trkpt lat="43.28198" lon="3.4779">
        <ele>54</ele>
        <time>2021-07-01T14:45:01.000Z</time>
      </trkpt>
      <trkpt lat="43.28193" lon="3.47802">
        <ele>53</ele>
        <time>2021-07-01T14:45:03.000Z</time>
      </trkpt>
      <trkpt lat="43.28189" lon="3.47814">
        <ele>52</ele>
        <time>2021-07-01T14:45:05.000Z</time>
      </trkpt>
      <trkpt lat="43.28185" lon="3.47827">
        <ele>51</ele>
        <time>2021-07-01T14:45:07.000Z</time>
      </trkpt>
      <trkpt lat="43.28181" lon="3.47838">
        <ele>51</ele>
        <time>2021-07-01T14:45:09.000Z</time>
      </trkpt>
      <trkpt lat="43.28174" lon="3.47856">
        <ele>51</ele>
        <time>2021-07-01T14:45:12.000Z</time>
      </trkpt>
      <trkpt lat="43.28169" lon="3.47872">
        <ele>51</ele>
        <time>2021-07-01T14:45:15.000Z</time>
      </trkpt>
      <trkpt lat="43.28165" lon="3.47889">
        <ele>50</ele>
        <time>2021-07-01T14:45:18.000Z</time>
      </trkpt>
      <trkpt lat="43.28162" lon="3.47904">
        <ele>51</ele>
        <time>2021-07-01T14:45:21.000Z</time>
      </trkpt>
      <trkpt lat="43.28156" lon="3.4792">
        <ele>51</ele>
        <time>2021-07-01T14:45:24.000Z</time>
      </trkpt>
      <trkpt lat="43.28151" lon="3.47932">
        <ele>51</ele>
        <time>2021-07-01T14:45:26.000Z</time>
      </trkpt>
      <trkpt lat="43.28146" lon="3.47943">
        <ele>51</ele>
        <time>2021-07-01T14:45:28.000Z</time>
      </trkpt>
      <trkpt lat="43.28142" lon="3.47954">
        <ele>52</ele>
        <time>2021-07-01T14:45:30.000Z</time>
      </trkpt>
      <trkpt lat="43.28138" lon="3.47966">
        <ele>52</ele>
        <time>2021-07-01T14:45:32.000Z</time>
      </trkpt>
      <trkpt lat="43.28133" lon="3.47978">
        <ele>53</ele>
        <time>2021-07-01T14:45:34.000Z</time>
      </trkpt>
      <trkpt lat="43.28129" lon="3.4799">
        <ele>53</ele>
        <time>2021-07-01T14:45:36.000Z</time>
      </trkpt>
      <trkpt lat="43.28124" lon="3.48006">
        <ele>53</ele>
        <time>2021-07-01T14:45:39.000Z</time>
      </trkpt>
      <trkpt lat="43.28119" lon="3.48018">
        <ele>53</ele>
        <time>2021-07-01T14:45:41.000Z</time>
      </trkpt>
      <trkpt lat="43.28114" lon="3.48029">
        <ele>54</ele>
        <time>2021-07-01T14:45:43.000Z</time>
      </trkpt>
      <trkpt lat="43.28107" lon="3.48046">
        <ele>53</ele>
        <time>2021-07-01T14:45:46.000Z</time>
      </trkpt>
      <trkpt lat="43.28101" lon="3.48056">
        <ele>53</ele>
        <time>2021-07-01T14:45:48.000Z</time>
      </trkpt>
      <trkpt lat="43.28096" lon="3.48068">
        <ele>54</ele>
        <time>2021-07-01T14:45:50.000Z</time>
      </trkpt>
      <trkpt lat="43.28091" lon="3.48079">
        <ele>53</ele>
        <time>2021-07-01T14:45:52.000Z</time>
      </trkpt>
      <trkpt lat="43.28086" lon="3.4809">
        <ele>53</ele>
        <time>2021-07-01T14:45:54.000Z</time>
      </trkpt>
      <trkpt lat="43.28081" lon="3.48101">
        <ele>52</ele>
        <time>2021-07-01T14:45:56.000Z</time>
      </trkpt>
      <trkpt lat="43.28073" lon="3.48121">
        <ele>52</ele>
        <time>2021-07-01T14:46:00.000Z</time>
      </trkpt>
      <trkpt lat="43.28067" lon="3.48137">
        <ele>52</ele>
        <time>2021-07-01T14:46:04.000Z</time>
      </trkpt>
      <trkpt lat="43.28057" lon="3.48143">
        <ele>51</ele>
        <time>2021-07-01T14:46:09.000Z</time>
      </trkpt>
      <trkpt lat="43.28047" lon="3.48137">
        <ele>52</ele>
        <time>2021-07-01T14:46:12.000Z</time>
      </trkpt>
      <trkpt lat="43.28038" lon="3.48127">
        <ele>53</ele>
        <time>2021-07-01T14:46:15.000Z</time>
      </trkpt>
      <trkpt lat="43.28029" lon="3.48119">
        <ele>53</ele>
        <time>2021-07-01T14:46:18.000Z</time>
      </trkpt>
      <trkpt lat="43.28018" lon="3.4811">
        <ele>53</ele>
        <time>2021-07-01T14:46:21.000Z</time>
      </trkpt>
      <trkpt lat="43.28005" lon="3.48106">
        <ele>53</ele>
        <time>2021-07-01T14:46:24.000Z</time>
      </trkpt>
      <trkpt lat="43.27993" lon="3.48106">
        <ele>53</ele>
        <time>2021-07-01T14:46:27.000Z</time>
      </trkpt>
      <trkpt lat="43.2798" lon="3.48108">
        <ele>53</ele>
        <time>2021-07-01T14:46:30.000Z</time>
      </trkpt>
      <trkpt lat="43.27968" lon="3.48111">
        <ele>54</ele>
        <time>2021-07-01T14:46:33.000Z</time>
      </trkpt>
      <trkpt lat="43.27951" lon="3.48115">
        <ele>54</ele>
        <time>2021-07-01T14:46:37.000Z</time>
      </trkpt>
      <trkpt lat="43.27939" lon="3.48117">
        <ele>54</ele>
        <time>2021-07-01T14:46:40.000Z</time>
      </trkpt>
      <trkpt lat="43.27922" lon="3.48118">
        <ele>54</ele>
        <time>2021-07-01T14:46:44.000Z</time>
      </trkpt>
      <trkpt lat="43.27912" lon="3.48116">
        <ele>54</ele>
        <time>2021-07-01T14:46:46.000Z</time>
      </trkpt>
      <trkpt lat="43.279" lon="3.48115">
        <ele>54</ele>
        <time>2021-07-01T14:46:49.000Z</time>
      </trkpt>
      <trkpt lat="43.27888" lon="3.48114">
        <ele>55</ele>
        <time>2021-07-01T14:46:52.000Z</time>
      </trkpt>
      <trkpt lat="43.27877" lon="3.48114">
        <ele>54</ele>
        <time>2021-07-01T14:46:55.000Z</time>
      </trkpt>
      <trkpt lat="43.27866" lon="3.48115">
        <ele>54</ele>
        <time>2021-07-01T14:46:59.000Z</time>
      </trkpt>
      <trkpt lat="43.27856" lon="3.48119">
        <ele>55</ele>
        <time>2021-07-01T14:47:03.000Z</time>
      </trkpt>
      <trkpt lat="43.27846" lon="3.4812">
        <ele>55</ele>
        <time>2021-07-01T14:47:08.000Z</time>
      </trkpt>
      <trkpt lat="43.27837" lon="3.48117">
        <ele>54</ele>
        <time>2021-07-01T14:47:11.000Z</time>
      </trkpt>
      <trkpt lat="43.27827" lon="3.48118">
        <ele>54</ele>
        <time>2021-07-01T14:47:14.000Z</time>
      </trkpt>
      <trkpt lat="43.27817" lon="3.48128">
        <ele>54</ele>
        <time>2021-07-01T14:47:17.000Z</time>
      </trkpt>
      <trkpt lat="43.27808" lon="3.4814">
        <ele>54</ele>
        <time>2021-07-01T14:47:20.000Z</time>
      </trkpt>
      <trkpt lat="43.27795" lon="3.48146">
        <ele>53</ele>
        <time>2021-07-01T14:47:23.000Z</time>
      </trkpt>
      <trkpt lat="43.27786" lon="3.48145">
        <ele>52</ele>
        <time>2021-07-01T14:47:25.000Z</time>
      </trkpt>
      <trkpt lat="43.27773" lon="3.48143">
        <ele>52</ele>
        <time>2021-07-01T14:47:28.000Z</time>
      </trkpt>
      <trkpt lat="43.27762" lon="3.48143">
        <ele>50</ele>
        <time>2021-07-01T14:47:31.000Z</time>
      </trkpt>
      <trkpt lat="43.27748" lon="3.48141">
        <ele>50</ele>
        <time>2021-07-01T14:47:34.000Z</time>
      </trkpt>
      <trkpt lat="43.27735" lon="3.48139">
        <ele>50</ele>
        <time>2021-07-01T14:47:37.000Z</time>
      </trkpt>
      <trkpt lat="43.27722" lon="3.48136">
        <ele>50</ele>
        <time>2021-07-01T14:47:40.000Z</time>
      </trkpt>
      <trkpt lat="43.27709" lon="3.48132">
        <ele>51</ele>
        <time>2021-07-01T14:47:43.000Z</time>
      </trkpt>
      <trkpt lat="43.277" lon="3.48131">
        <ele>50</ele>
        <time>2021-07-01T14:47:45.000Z</time>
      </trkpt>
      <trkpt lat="43.27688" lon="3.48131">
        <ele>50</ele>
        <time>2021-07-01T14:47:48.000Z</time>
      </trkpt>
      <trkpt lat="43.27675" lon="3.48126">
        <ele>52</ele>
        <time>2021-07-01T14:47:51.000Z</time>
      </trkpt>
      <trkpt lat="43.27662" lon="3.48127">
        <ele>51</ele>
        <time>2021-07-01T14:47:54.000Z</time>
      </trkpt>
      <trkpt lat="43.2765" lon="3.48124">
        <ele>52</ele>
        <time>2021-07-01T14:47:57.000Z</time>
      </trkpt>
      <trkpt lat="43.27641" lon="3.48125">
        <ele>53</ele>
        <time>2021-07-01T14:47:59.000Z</time>
      </trkpt>
      <trkpt lat="43.27629" lon="3.48128">
        <ele>52</ele>
        <time>2021-07-01T14:48:02.000Z</time>
      </trkpt>
      <trkpt lat="43.27617" lon="3.48136">
        <ele>53</ele>
        <time>2021-07-01T14:48:05.000Z</time>
      </trkpt>
      <trkpt lat="43.27605" lon="3.48144">
        <ele>54</ele>
        <time>2021-07-01T14:48:08.000Z</time>
      </trkpt>
      <trkpt lat="43.27596" lon="3.4815">
        <ele>54</ele>
        <time>2021-07-01T14:48:11.000Z</time>
      </trkpt>
      <trkpt lat="43.27597" lon="3.48165">
        <ele>55</ele>
        <time>2021-07-01T14:48:16.000Z</time>
      </trkpt>
      <trkpt lat="43.27592" lon="3.48181">
        <ele>53</ele>
        <time>2021-07-01T14:48:19.000Z</time>
      </trkpt>
      <trkpt lat="43.27589" lon="3.48195">
        <ele>53</ele>
        <time>2021-07-01T14:48:22.000Z</time>
      </trkpt>
      <trkpt lat="43.27583" lon="3.48211">
        <ele>52</ele>
        <time>2021-07-01T14:48:25.000Z</time>
      </trkpt>
      <trkpt lat="43.27577" lon="3.48227">
        <ele>51</ele>
        <time>2021-07-01T14:48:28.000Z</time>
      </trkpt>
      <trkpt lat="43.27573" lon="3.48239">
        <ele>50</ele>
        <time>2021-07-01T14:48:30.000Z</time>
      </trkpt>
      <trkpt lat="43.27569" lon="3.48251">
        <ele>50</ele>
        <time>2021-07-01T14:48:32.000Z</time>
      </trkpt>
      <trkpt lat="43.27564" lon="3.48264">
        <ele>50</ele>
        <time>2021-07-01T14:48:34.000Z</time>
      </trkpt>
      <trkpt lat="43.27561" lon="3.48277">
        <ele>49</ele>
        <time>2021-07-01T14:48:36.000Z</time>
      </trkpt>
      <trkpt lat="43.27561" lon="3.48291">
        <ele>49</ele>
        <time>2021-07-01T14:48:38.000Z</time>
      </trkpt>
      <trkpt lat="43.27564" lon="3.48304">
        <ele>49</ele>
        <time>2021-07-01T14:48:40.000Z</time>
      </trkpt>
      <trkpt lat="43.27568" lon="3.48316">
        <ele>49</ele>
        <time>2021-07-01T14:48:42.000Z</time>
      </trkpt>
      <trkpt lat="43.27574" lon="3.48325">
        <ele>50</ele>
        <time>2021-07-01T14:48:44.000Z</time>
      </trkpt>
      <trkpt lat="43.27583" lon="3.48338">
        <ele>50</ele>
        <time>2021-07-01T14:48:47.000Z</time>
      </trkpt>
      <trkpt lat="43.27593" lon="3.48351">
        <ele>50</ele>
        <time>2021-07-01T14:48:50.000Z</time>
      </trkpt>
      <trkpt lat="43.27601" lon="3.48363">
        <ele>51</ele>
        <time>2021-07-01T14:48:53.000Z</time>
      </trkpt>
      <trkpt lat="43.2761" lon="3.48375">
        <ele>51</ele>
        <time>2021-07-01T14:48:56.000Z</time>
      </trkpt>
      <trkpt lat="43.27616" lon="3.48384">
        <ele>51</ele>
        <time>2021-07-01T14:48:58.000Z</time>
      </trkpt>
      <trkpt lat="43.27622" lon="3.48398">
        <ele>52</ele>
        <time>2021-07-01T14:49:01.000Z</time>
      </trkpt>
      <trkpt lat="43.27621" lon="3.48412">
        <ele>54</ele>
        <time>2021-07-01T14:49:05.000Z</time>
      </trkpt>
      <trkpt lat="43.27625" lon="3.48424">
        <ele>55</ele>
        <time>2021-07-01T14:49:09.000Z</time>
      </trkpt>
      <trkpt lat="43.27635" lon="3.48428">
        <ele>55</ele>
        <time>2021-07-01T14:49:13.000Z</time>
      </trkpt>
      <trkpt lat="43.27647" lon="3.48429">
        <ele>56</ele>
        <time>2021-07-01T14:49:17.000Z</time>
      </trkpt>
      <trkpt lat="43.27656" lon="3.48437">
        <ele>56</ele>
        <time>2021-07-01T14:49:20.000Z</time>
      </trkpt>
      <trkpt lat="43.27665" lon="3.48447">
        <ele>56</ele>
        <time>2021-07-01T14:49:23.000Z</time>
      </trkpt>
      <trkpt lat="43.27671" lon="3.48461">
        <ele>56</ele>
        <time>2021-07-01T14:49:27.000Z</time>
      </trkpt>
      <trkpt lat="43.2768" lon="3.48473">
        <ele>56</ele>
        <time>2021-07-01T14:49:31.000Z</time>
      </trkpt>
      <trkpt lat="43.2769" lon="3.48488">
        <ele>56</ele>
        <time>2021-07-01T14:49:36.000Z</time>
      </trkpt>
      <trkpt lat="43.27694" lon="3.48503">
        <ele>56</ele>
        <time>2021-07-01T14:49:40.000Z</time>
      </trkpt>
      <trkpt lat="43.27689" lon="3.48517">
        <ele>55</ele>
        <time>2021-07-01T14:49:43.000Z</time>
      </trkpt>
      <trkpt lat="43.27682" lon="3.48529">
        <ele>55</ele>
        <time>2021-07-01T14:49:46.000Z</time>
      </trkpt>
      <trkpt lat="43.27673" lon="3.48539">
        <ele>54</ele>
        <time>2021-07-01T14:49:49.000Z</time>
      </trkpt>
      <trkpt lat="43.27665" lon="3.48548">
        <ele>54</ele>
        <time>2021-07-01T14:49:52.000Z</time>
      </trkpt>
      <trkpt lat="43.27654" lon="3.48562">
        <ele>53</ele>
        <time>2021-07-01T14:49:56.000Z</time>
      </trkpt>
      <trkpt lat="43.27648" lon="3.48571">
        <ele>52</ele>
        <time>2021-07-01T14:49:58.000Z</time>
      </trkpt>
      <trkpt lat="43.27636" lon="3.48585">
        <ele>50</ele>
        <time>2021-07-01T14:50:02.000Z</time>
      </trkpt>
      <trkpt lat="43.27629" lon="3.48597">
        <ele>50</ele>
        <time>2021-07-01T14:50:05.000Z</time>
      </trkpt>
      <trkpt lat="43.2763" lon="3.48615">
        <ele>50</ele>
        <time>2021-07-01T14:50:08.000Z</time>
      </trkpt>
      <trkpt lat="43.27632" lon="3.48638">
        <ele>50</ele>
        <time>2021-07-01T14:50:12.000Z</time>
      </trkpt>
      <trkpt lat="43.27631" lon="3.48652">
        <ele>51</ele>
        <time>2021-07-01T14:50:15.000Z</time>
      </trkpt>
      <trkpt lat="43.27631" lon="3.48669">
        <ele>51</ele>
        <time>2021-07-01T14:50:18.000Z</time>
      </trkpt>
      <trkpt lat="43.27631" lon="3.48686">
        <ele>51</ele>
        <time>2021-07-01T14:50:21.000Z</time>
      </trkpt>
      <trkpt lat="43.27631" lon="3.4871">
        <ele>51</ele>
        <time>2021-07-01T14:50:25.000Z</time>
      </trkpt>
      <trkpt lat="43.27631" lon="3.48728">
        <ele>51</ele>
        <time>2021-07-01T14:50:28.000Z</time>
      </trkpt>
      <trkpt lat="43.27631" lon="3.48744">
        <ele>51</ele>
        <time>2021-07-01T14:50:31.000Z</time>
      </trkpt>
      <trkpt lat="43.27631" lon="3.48761">
        <ele>51</ele>
        <time>2021-07-01T14:50:34.000Z</time>
      </trkpt>
      <trkpt lat="43.27631" lon="3.4878">
        <ele>51</ele>
        <time>2021-07-01T14:50:38.000Z</time>
      </trkpt>
      <trkpt lat="43.27633" lon="3.48794">
        <ele>51</ele>
        <time>2021-07-01T14:50:41.000Z</time>
      </trkpt>
      <trkpt lat="43.27636" lon="3.48807">
        <ele>51</ele>
        <time>2021-07-01T14:50:44.000Z</time>
      </trkpt>
      <trkpt lat="43.27638" lon="3.48821">
        <ele>51</ele>
        <time>2021-07-01T14:50:47.000Z</time>
      </trkpt>
      <trkpt lat="43.27638" lon="3.48834">
        <ele>51</ele>
        <time>2021-07-01T14:50:50.000Z</time>
      </trkpt>
      <trkpt lat="43.27639" lon="3.4885">
        <ele>51</ele>
        <time>2021-07-01T14:50:54.000Z</time>
      </trkpt>
      <trkpt lat="43.27641" lon="3.48866">
        <ele>51</ele>
        <time>2021-07-01T14:50:58.000Z</time>
      </trkpt>
      <trkpt lat="43.27642" lon="3.48879">
        <ele>52</ele>
        <time>2021-07-01T14:51:02.000Z</time>
      </trkpt>
      <trkpt lat="43.27649" lon="3.4889">
        <ele>52</ele>
        <time>2021-07-01T14:51:07.000Z</time>
      </trkpt>
      <trkpt lat="43.27658" lon="3.48891">
        <ele>53</ele>
        <time>2021-07-01T14:51:11.000Z</time>
      </trkpt>
      <trkpt lat="43.27664" lon="3.48902">
        <ele>54</ele>
        <time>2021-07-01T14:51:17.000Z</time>
      </trkpt>
      <trkpt lat="43.27664" lon="3.48916">
        <ele>55</ele>
        <time>2021-07-01T14:51:23.000Z</time>
      </trkpt>
      <trkpt lat="43.27671" lon="3.48924">
        <ele>50</ele>
        <time>2021-07-01T14:52:04.000Z</time>
      </trkpt>
      <trkpt lat="43.27662" lon="3.48922">
        <ele>50</ele>
        <time>2021-07-01T14:52:17.000Z</time>
      </trkpt>
      <trkpt lat="43.27665" lon="3.48909">
        <ele>50</ele>
        <time>2021-07-01T14:52:24.000Z</time>
      </trkpt>
      <trkpt lat="43.2766" lon="3.48898">
        <ele>50</ele>
        <time>2021-07-01T14:52:29.000Z</time>
      </trkpt>
      <trkpt lat="43.2765" lon="3.48898">
        <ele>50</ele>
        <time>2021-07-01T14:52:46.000Z</time>
      </trkpt>
      <trkpt lat="43.27644" lon="3.48906">
        <ele>48</ele>
        <time>2021-07-01T14:53:13.000Z</time>
      </trkpt>
      <trkpt lat="43.27635" lon="3.48914">
        <ele>48</ele>
        <time>2021-07-01T14:53:25.000Z</time>
      </trkpt>
      <trkpt lat="43.2762" lon="3.48912">
        <ele>45</ele>
        <time>2021-07-01T14:53:30.000Z</time>
      </trkpt>
      <trkpt lat="43.27612" lon="3.48919">
        <ele>44</ele>
        <time>2021-07-01T14:53:33.000Z</time>
      </trkpt>
      <trkpt lat="43.27612" lon="3.48934">
        <ele>45</ele>
        <time>2021-07-01T14:53:37.000Z</time>
      </trkpt>
      <trkpt lat="43.27611" lon="3.4895">
        <ele>46</ele>
        <time>2021-07-01T14:53:41.000Z</time>
      </trkpt>
      <trkpt lat="43.27605" lon="3.48961">
        <ele>46</ele>
        <time>2021-07-01T14:53:44.000Z</time>
      </trkpt>
      <trkpt lat="43.27594" lon="3.48965">
        <ele>47</ele>
        <time>2021-07-01T14:53:47.000Z</time>
      </trkpt>
      <trkpt lat="43.27582" lon="3.48965">
        <ele>47</ele>
        <time>2021-07-01T14:53:50.000Z</time>
      </trkpt>
      <trkpt lat="43.27572" lon="3.48962">
        <ele>47</ele>
        <time>2021-07-01T14:53:53.000Z</time>
      </trkpt>
      <trkpt lat="43.27563" lon="3.4896">
        <ele>48</ele>
        <time>2021-07-01T14:53:56.000Z</time>
      </trkpt>
      <trkpt lat="43.27553" lon="3.48957">
        <ele>48</ele>
        <time>2021-07-01T14:54:01.000Z</time>
      </trkpt>
      <trkpt lat="43.27547" lon="3.4897">
        <ele>48</ele>
        <time>2021-07-01T14:54:06.000Z</time>
      </trkpt>
      <trkpt lat="43.27547" lon="3.48982">
        <ele>48</ele>
        <time>2021-07-01T14:54:09.000Z</time>
      </trkpt>
      <trkpt lat="43.27548" lon="3.49002">
        <ele>48</ele>
        <time>2021-07-01T14:54:14.000Z</time>
      </trkpt>
      <trkpt lat="43.27548" lon="3.49015">
        <ele>48</ele>
        <time>2021-07-01T14:54:17.000Z</time>
      </trkpt>
      <trkpt lat="43.27548" lon="3.49034">
        <ele>48</ele>
        <time>2021-07-01T14:54:21.000Z</time>
      </trkpt>
      <trkpt lat="43.27549" lon="3.4905">
        <ele>48</ele>
        <time>2021-07-01T14:54:24.000Z</time>
      </trkpt>
      <trkpt lat="43.27548" lon="3.49066">
        <ele>49</ele>
        <time>2021-07-01T14:54:27.000Z</time>
      </trkpt>
      <trkpt lat="43.27547" lon="3.49083">
        <ele>48</ele>
        <time>2021-07-01T14:54:30.000Z</time>
      </trkpt>
      <trkpt lat="43.27549" lon="3.49098">
        <ele>49</ele>
        <time>2021-07-01T14:54:33.000Z</time>
      </trkpt>
      <trkpt lat="43.2755" lon="3.49113">
        <ele>49</ele>
        <time>2021-07-01T14:54:36.000Z</time>
      </trkpt>
      <trkpt lat="43.27551" lon="3.49127">
        <ele>48</ele>
        <time>2021-07-01T14:54:39.000Z</time>
      </trkpt>
      <trkpt lat="43.27551" lon="3.49141">
        <ele>48</ele>
        <time>2021-07-01T14:54:42.000Z</time>
      </trkpt>
      <trkpt lat="43.2755" lon="3.49156">
        <ele>49</ele>
        <time>2021-07-01T14:54:45.000Z</time>
      </trkpt>
      <trkpt lat="43.27549" lon="3.49171">
        <ele>50</ele>
        <time>2021-07-01T14:54:48.000Z</time>
      </trkpt>
      <trkpt lat="43.27548" lon="3.49186">
        <ele>49</ele>
        <time>2021-07-01T14:54:51.000Z</time>
      </trkpt>
      <trkpt lat="43.27545" lon="3.49202">
        <ele>49</ele>
        <time>2021-07-01T14:54:54.000Z</time>
      </trkpt>
      <trkpt lat="43.27544" lon="3.49216">
        <ele>48</ele>
        <time>2021-07-01T14:54:57.000Z</time>
      </trkpt>
      <trkpt lat="43.27545" lon="3.49231">
        <ele>48</ele>
        <time>2021-07-01T14:55:00.000Z</time>
      </trkpt>
      <trkpt lat="43.27547" lon="3.49245">
        <ele>48</ele>
        <time>2021-07-01T14:55:03.000Z</time>
      </trkpt>
      <trkpt lat="43.27551" lon="3.49261">
        <ele>48</ele>
        <time>2021-07-01T14:55:07.000Z</time>
      </trkpt>
      <trkpt lat="43.27555" lon="3.49279">
        <ele>48</ele>
        <time>2021-07-01T14:55:11.000Z</time>
      </trkpt>
      <trkpt lat="43.27558" lon="3.49294">
        <ele>47</ele>
        <time>2021-07-01T14:55:14.000Z</time>
      </trkpt>
      <trkpt lat="43.2756" lon="3.4931">
        <ele>48</ele>
        <time>2021-07-01T14:55:17.000Z</time>
      </trkpt>
      <trkpt lat="43.27563" lon="3.49326">
        <ele>48</ele>
        <time>2021-07-01T14:55:20.000Z</time>
      </trkpt>
      <trkpt lat="43.27566" lon="3.49341">
        <ele>48</ele>
        <time>2021-07-01T14:55:23.000Z</time>
      </trkpt>
      <trkpt lat="43.27568" lon="3.49357">
        <ele>48</ele>
        <time>2021-07-01T14:55:26.000Z</time>
      </trkpt>
      <trkpt lat="43.2757" lon="3.49372">
        <ele>49</ele>
        <time>2021-07-01T14:55:29.000Z</time>
      </trkpt>
      <trkpt lat="43.27572" lon="3.49386">
        <ele>49</ele>
        <time>2021-07-01T14:55:32.000Z</time>
      </trkpt>
      <trkpt lat="43.27573" lon="3.494">
        <ele>48</ele>
        <time>2021-07-01T14:55:35.000Z</time>
      </trkpt>
      <trkpt lat="43.27573" lon="3.49416">
        <ele>49</ele>
        <time>2021-07-01T14:55:38.000Z</time>
      </trkpt>
      <trkpt lat="43.27576" lon="3.49431">
        <ele>48</ele>
        <time>2021-07-01T14:55:41.000Z</time>
      </trkpt>
      <trkpt lat="43.27577" lon="3.49446">
        <ele>49</ele>
        <time>2021-07-01T14:55:44.000Z</time>
      </trkpt>
      <trkpt lat="43.27577" lon="3.49463">
        <ele>49</ele>
        <time>2021-07-01T14:55:47.000Z</time>
      </trkpt>
      <trkpt lat="43.27576" lon="3.49481">
        <ele>49</ele>
        <time>2021-07-01T14:55:50.000Z</time>
      </trkpt>
      <trkpt lat="43.27576" lon="3.49497">
        <ele>49</ele>
        <time>2021-07-01T14:55:53.000Z</time>
      </trkpt>
      <trkpt lat="43.27575" lon="3.49514">
        <ele>47</ele>
        <time>2021-07-01T14:55:57.000Z</time>
      </trkpt>
      <trkpt lat="43.27577" lon="3.49526">
        <ele>48</ele>
        <time>2021-07-01T14:55:59.000Z</time>
      </trkpt>
      <trkpt lat="43.2758" lon="3.49538">
        <ele>48</ele>
        <time>2021-07-01T14:56:01.000Z</time>
      </trkpt>
      <trkpt lat="43.27584" lon="3.49557">
        <ele>48</ele>
        <time>2021-07-01T14:56:05.000Z</time>
      </trkpt>
      <trkpt lat="43.27588" lon="3.49571">
        <ele>49</ele>
        <time>2021-07-01T14:56:08.000Z</time>
      </trkpt>
      <trkpt lat="43.2759" lon="3.49591">
        <ele>49</ele>
        <time>2021-07-01T14:56:12.000Z</time>
      </trkpt>
      <trkpt lat="43.27592" lon="3.49605">
        <ele>50</ele>
        <time>2021-07-01T14:56:15.000Z</time>
      </trkpt>
      <trkpt lat="43.27592" lon="3.49618">
        <ele>50</ele>
        <time>2021-07-01T14:56:18.000Z</time>
      </trkpt>
      <trkpt lat="43.27595" lon="3.49635">
        <ele>50</ele>
        <time>2021-07-01T14:56:21.000Z</time>
      </trkpt>
      <trkpt lat="43.27598" lon="3.49647">
        <ele>51</ele>
        <time>2021-07-01T14:56:23.000Z</time>
      </trkpt>
      <trkpt lat="43.276" lon="3.49661">
        <ele>51</ele>
        <time>2021-07-01T14:56:26.000Z</time>
      </trkpt>
      <trkpt lat="43.27601" lon="3.49681">
        <ele>51</ele>
        <time>2021-07-01T14:56:30.000Z</time>
      </trkpt>
      <trkpt lat="43.27601" lon="3.497">
        <ele>51</ele>
        <time>2021-07-01T14:56:34.000Z</time>
      </trkpt>
      <trkpt lat="43.27601" lon="3.49715">
        <ele>50</ele>
        <time>2021-07-01T14:56:37.000Z</time>
      </trkpt>
      <trkpt lat="43.27604" lon="3.4973">
        <ele>50</ele>
        <time>2021-07-01T14:56:40.000Z</time>
      </trkpt>
      <trkpt lat="43.27603" lon="3.49745">
        <ele>50</ele>
        <time>2021-07-01T14:56:43.000Z</time>
      </trkpt>
      <trkpt lat="43.27603" lon="3.49766">
        <ele>51</ele>
        <time>2021-07-01T14:56:47.000Z</time>
      </trkpt>
      <trkpt lat="43.27602" lon="3.49782">
        <ele>51</ele>
        <time>2021-07-01T14:56:50.000Z</time>
      </trkpt>
      <trkpt lat="43.27602" lon="3.49797">
        <ele>51</ele>
        <time>2021-07-01T14:56:53.000Z</time>
      </trkpt>
      <trkpt lat="43.27604" lon="3.49812">
        <ele>50</ele>
        <time>2021-07-01T14:56:56.000Z</time>
      </trkpt>
      <trkpt lat="43.27605" lon="3.49828">
        <ele>50</ele>
        <time>2021-07-01T14:56:59.000Z</time>
      </trkpt>
      <trkpt lat="43.27607" lon="3.49844">
        <ele>51</ele>
        <time>2021-07-01T14:57:02.000Z</time>
      </trkpt>
      <trkpt lat="43.27608" lon="3.49858">
        <ele>52</ele>
        <time>2021-07-01T14:57:05.000Z</time>
      </trkpt>
      <trkpt lat="43.27609" lon="3.49875">
        <ele>52</ele>
        <time>2021-07-01T14:57:08.000Z</time>
      </trkpt>
      <trkpt lat="43.27607" lon="3.49898">
        <ele>52</ele>
        <time>2021-07-01T14:57:12.000Z</time>
      </trkpt>
      <trkpt lat="43.27607" lon="3.49912">
        <ele>52</ele>
        <time>2021-07-01T14:57:15.000Z</time>
      </trkpt>
      <trkpt lat="43.2761" lon="3.49927">
        <ele>52</ele>
        <time>2021-07-01T14:57:18.000Z</time>
      </trkpt>
      <trkpt lat="43.2761" lon="3.4994">
        <ele>51</ele>
        <time>2021-07-01T14:57:21.000Z</time>
      </trkpt>
      <trkpt lat="43.27609" lon="3.49958">
        <ele>51</ele>
        <time>2021-07-01T14:57:25.000Z</time>
      </trkpt>
      <trkpt lat="43.27605" lon="3.49972">
        <ele>50</ele>
        <time>2021-07-01T14:57:28.000Z</time>
      </trkpt>
      <trkpt lat="43.27598" lon="3.49984">
        <ele>51</ele>
        <time>2021-07-01T14:57:31.000Z</time>
      </trkpt>
      <trkpt lat="43.27592" lon="3.49997">
        <ele>51</ele>
        <time>2021-07-01T14:57:34.000Z</time>
      </trkpt>
      <trkpt lat="43.27581" lon="3.50013">
        <ele>51</ele>
        <time>2021-07-01T14:57:38.000Z</time>
      </trkpt>
      <trkpt lat="43.27573" lon="3.50025">
        <ele>51</ele>
        <time>2021-07-01T14:57:41.000Z</time>
      </trkpt>
      <trkpt lat="43.27566" lon="3.50037">
        <ele>51</ele>
        <time>2021-07-01T14:57:44.000Z</time>
      </trkpt>
      <trkpt lat="43.2756" lon="3.50053">
        <ele>51</ele>
        <time>2021-07-01T14:57:47.000Z</time>
      </trkpt>
      <trkpt lat="43.27555" lon="3.50066">
        <ele>51</ele>
        <time>2021-07-01T14:57:50.000Z</time>
      </trkpt>
      <trkpt lat="43.2755" lon="3.50081">
        <ele>51</ele>
        <time>2021-07-01T14:57:53.000Z</time>
      </trkpt>
      <trkpt lat="43.27546" lon="3.50098">
        <ele>50</ele>
        <time>2021-07-01T14:57:56.000Z</time>
      </trkpt>
      <trkpt lat="43.2754" lon="3.50112">
        <ele>50</ele>
        <time>2021-07-01T14:57:59.000Z</time>
      </trkpt>
      <trkpt lat="43.27535" lon="3.50126">
        <ele>50</ele>
        <time>2021-07-01T14:58:02.000Z</time>
      </trkpt>
      <trkpt lat="43.27526" lon="3.50151">
        <ele>50</ele>
        <time>2021-07-01T14:58:07.000Z</time>
      </trkpt>
      <trkpt lat="43.27521" lon="3.50166">
        <ele>50</ele>
        <time>2021-07-01T14:58:10.000Z</time>
      </trkpt>
      <trkpt lat="43.27516" lon="3.50181">
        <ele>50</ele>
        <time>2021-07-01T14:58:13.000Z</time>
      </trkpt>
      <trkpt lat="43.27509" lon="3.50195">
        <ele>50</ele>
        <time>2021-07-01T14:58:16.000Z</time>
      </trkpt>
      <trkpt lat="43.27504" lon="3.5021">
        <ele>51</ele>
        <time>2021-07-01T14:58:19.000Z</time>
      </trkpt>
      <trkpt lat="43.27501" lon="3.50225">
        <ele>51</ele>
        <time>2021-07-01T14:58:22.000Z</time>
      </trkpt>
      <trkpt lat="43.27502" lon="3.50239">
        <ele>51</ele>
        <time>2021-07-01T14:58:26.000Z</time>
      </trkpt>
      <trkpt lat="43.27508" lon="3.50249">
        <ele>51</ele>
        <time>2021-07-01T14:58:29.000Z</time>
      </trkpt>
      <trkpt lat="43.27517" lon="3.5026">
        <ele>50</ele>
        <time>2021-07-01T14:58:32.000Z</time>
      </trkpt>
      <trkpt lat="43.27527" lon="3.50271">
        <ele>50</ele>
        <time>2021-07-01T14:58:35.000Z</time>
      </trkpt>
      <trkpt lat="43.27533" lon="3.50283">
        <ele>50</ele>
        <time>2021-07-01T14:58:38.000Z</time>
      </trkpt>
      <trkpt lat="43.27531" lon="3.50297">
        <ele>50</ele>
        <time>2021-07-01T14:58:42.000Z</time>
      </trkpt>
      <trkpt lat="43.27525" lon="3.5031">
        <ele>50</ele>
        <time>2021-07-01T14:58:46.000Z</time>
      </trkpt>
      <trkpt lat="43.2752" lon="3.50323">
        <ele>50</ele>
        <time>2021-07-01T14:58:50.000Z</time>
      </trkpt>
      <trkpt lat="43.27516" lon="3.50334">
        <ele>51</ele>
        <time>2021-07-01T14:58:53.000Z</time>
      </trkpt>
      <trkpt lat="43.27505" lon="3.5035">
        <ele>51</ele>
        <time>2021-07-01T14:58:57.000Z</time>
      </trkpt>
      <trkpt lat="43.27497" lon="3.50362">
        <ele>49</ele>
        <time>2021-07-01T14:59:00.000Z</time>
      </trkpt>
      <trkpt lat="43.27488" lon="3.50375">
        <ele>50</ele>
        <time>2021-07-01T14:59:03.000Z</time>
      </trkpt>
      <trkpt lat="43.27481" lon="3.5039">
        <ele>50</ele>
        <time>2021-07-01T14:59:07.000Z</time>
      </trkpt>
      <trkpt lat="43.27475" lon="3.50402">
        <ele>49</ele>
        <time>2021-07-01T14:59:10.000Z</time>
      </trkpt>
      <trkpt lat="43.27471" lon="3.50416">
        <ele>48</ele>
        <time>2021-07-01T14:59:13.000Z</time>
      </trkpt>
      <trkpt lat="43.27466" lon="3.50429">
        <ele>48</ele>
        <time>2021-07-01T14:59:16.000Z</time>
      </trkpt>
      <trkpt lat="43.27461" lon="3.5044">
        <ele>48</ele>
        <time>2021-07-01T14:59:19.000Z</time>
      </trkpt>
      <trkpt lat="43.27452" lon="3.50447">
        <ele>48</ele>
        <time>2021-07-01T14:59:24.000Z</time>
      </trkpt>
      <trkpt lat="43.27441" lon="3.50447">
        <ele>48</ele>
        <time>2021-07-01T14:59:28.000Z</time>
      </trkpt>
      <trkpt lat="43.2743" lon="3.50446">
        <ele>48</ele>
        <time>2021-07-01T14:59:32.000Z</time>
      </trkpt>
      <trkpt lat="43.27421" lon="3.50448">
        <ele>47</ele>
        <time>2021-07-01T14:59:36.000Z</time>
      </trkpt>
      <trkpt lat="43.27431" lon="3.50456">
        <ele>49</ele>
        <time>2021-07-01T14:59:47.000Z</time>
      </trkpt>
      <trkpt lat="43.27441" lon="3.50458">
        <ele>48</ele>
        <time>2021-07-01T14:59:50.000Z</time>
      </trkpt>
      <trkpt lat="43.2745" lon="3.5046">
        <ele>48</ele>
        <time>2021-07-01T14:59:53.000Z</time>
      </trkpt>
      <trkpt lat="43.27462" lon="3.5045">
        <ele>46</ele>
        <time>2021-07-01T14:59:58.000Z</time>
      </trkpt>
      <trkpt lat="43.2747" lon="3.50435">
        <ele>46</ele>
        <time>2021-07-01T15:00:02.000Z</time>
      </trkpt>
      <trkpt lat="43.27474" lon="3.50418">
        <ele>45</ele>
        <time>2021-07-01T15:00:05.000Z</time>
      </trkpt>
      <trkpt lat="43.27482" lon="3.50405">
        <ele>46</ele>
        <time>2021-07-01T15:00:08.000Z</time>
      </trkpt>
      <trkpt lat="43.27491" lon="3.50391">
        <ele>47</ele>
        <time>2021-07-01T15:00:11.000Z</time>
      </trkpt>
      <trkpt lat="43.275" lon="3.50387">
        <ele>46</ele>
        <time>2021-07-01T15:00:13.000Z</time>
      </trkpt>
      <trkpt lat="43.27511" lon="3.50382">
        <ele>48</ele>
        <time>2021-07-01T15:00:16.000Z</time>
      </trkpt>
      <trkpt lat="43.27524" lon="3.50376">
        <ele>49</ele>
        <time>2021-07-01T15:00:19.000Z</time>
      </trkpt>
      <trkpt lat="43.27537" lon="3.50372">
        <ele>49</ele>
        <time>2021-07-01T15:00:22.000Z</time>
      </trkpt>
      <trkpt lat="43.27549" lon="3.50366">
        <ele>49</ele>
        <time>2021-07-01T15:00:25.000Z</time>
      </trkpt>
      <trkpt lat="43.27561" lon="3.50359">
        <ele>50</ele>
        <time>2021-07-01T15:00:28.000Z</time>
      </trkpt>
      <trkpt lat="43.27573" lon="3.50356">
        <ele>48</ele>
        <time>2021-07-01T15:00:31.000Z</time>
      </trkpt>
      <trkpt lat="43.27582" lon="3.50351">
        <ele>49</ele>
        <time>2021-07-01T15:00:34.000Z</time>
      </trkpt>
      <trkpt lat="43.27594" lon="3.50345">
        <ele>48</ele>
        <time>2021-07-01T15:00:37.000Z</time>
      </trkpt>
      <trkpt lat="43.27603" lon="3.50342">
        <ele>49</ele>
        <time>2021-07-01T15:00:39.000Z</time>
      </trkpt>
      <trkpt lat="43.27615" lon="3.50337">
        <ele>49</ele>
        <time>2021-07-01T15:00:42.000Z</time>
      </trkpt>
      <trkpt lat="43.27624" lon="3.50333">
        <ele>50</ele>
        <time>2021-07-01T15:00:44.000Z</time>
      </trkpt>
      <trkpt lat="43.27634" lon="3.50329">
        <ele>50</ele>
        <time>2021-07-01T15:00:46.000Z</time>
      </trkpt>
      <trkpt lat="43.27643" lon="3.50325">
        <ele>50</ele>
        <time>2021-07-01T15:00:48.000Z</time>
      </trkpt>
      <trkpt lat="43.27652" lon="3.5032">
        <ele>50</ele>
        <time>2021-07-01T15:00:50.000Z</time>
      </trkpt>
      <trkpt lat="43.27664" lon="3.50314">
        <ele>51</ele>
        <time>2021-07-01T15:00:53.000Z</time>
      </trkpt>
      <trkpt lat="43.27678" lon="3.50311">
        <ele>50</ele>
        <time>2021-07-01T15:00:57.000Z</time>
      </trkpt>
      <trkpt lat="43.27687" lon="3.50307">
        <ele>51</ele>
        <time>2021-07-01T15:01:00.000Z</time>
      </trkpt>
      <trkpt lat="43.27696" lon="3.50302">
        <ele>51</ele>
        <time>2021-07-01T15:01:03.000Z</time>
      </trkpt>
      <trkpt lat="43.27708" lon="3.50297">
        <ele>50</ele>
        <time>2021-07-01T15:01:06.000Z</time>
      </trkpt>
      <trkpt lat="43.27719" lon="3.50293">
        <ele>49</ele>
        <time>2021-07-01T15:01:08.000Z</time>
      </trkpt>
      <trkpt lat="43.2773" lon="3.50287">
        <ele>48</ele>
        <time>2021-07-01T15:01:10.000Z</time>
      </trkpt>
      <trkpt lat="43.27741" lon="3.50282">
        <ele>48</ele>
        <time>2021-07-01T15:01:12.000Z</time>
      </trkpt>
      <trkpt lat="43.27759" lon="3.50275">
        <ele>49</ele>
        <time>2021-07-01T15:01:15.000Z</time>
      </trkpt>
      <trkpt lat="43.2777" lon="3.50271">
        <ele>48</ele>
        <time>2021-07-01T15:01:17.000Z</time>
      </trkpt>
      <trkpt lat="43.27781" lon="3.50266">
        <ele>48</ele>
        <time>2021-07-01T15:01:19.000Z</time>
      </trkpt>
      <trkpt lat="43.27791" lon="3.50261">
        <ele>47</ele>
        <time>2021-07-01T15:01:21.000Z</time>
      </trkpt>
      <trkpt lat="43.27806" lon="3.50256">
        <ele>48</ele>
        <time>2021-07-01T15:01:24.000Z</time>
      </trkpt>
      <trkpt lat="43.27816" lon="3.50256">
        <ele>48</ele>
        <time>2021-07-01T15:01:27.000Z</time>
      </trkpt>
      <trkpt lat="43.27825" lon="3.50267">
        <ele>49</ele>
        <time>2021-07-01T15:01:30.000Z</time>
      </trkpt>
      <trkpt lat="43.27833" lon="3.50276">
        <ele>50</ele>
        <time>2021-07-01T15:01:33.000Z</time>
      </trkpt>
      <trkpt lat="43.2784" lon="3.50283">
        <ele>49</ele>
        <time>2021-07-01T15:01:36.000Z</time>
      </trkpt>
      <trkpt lat="43.27854" lon="3.50283">
        <ele>48</ele>
        <time>2021-07-01T15:01:41.000Z</time>
      </trkpt>
      <trkpt lat="43.27864" lon="3.50277">
        <ele>50</ele>
        <time>2021-07-01T15:01:47.000Z</time>
      </trkpt>
      <trkpt lat="43.27868" lon="3.50265">
        <ele>50</ele>
        <time>2021-07-01T15:01:50.000Z</time>
      </trkpt>
      <trkpt lat="43.27871" lon="3.50249">
        <ele>51</ele>
        <time>2021-07-01T15:01:53.000Z</time>
      </trkpt>
      <trkpt lat="43.27876" lon="3.5023">
        <ele>50</ele>
        <time>2021-07-01T15:01:57.000Z</time>
      </trkpt>
      <trkpt lat="43.27884" lon="3.50221">
        <ele>51</ele>
        <time>2021-07-01T15:02:00.000Z</time>
      </trkpt>
      <trkpt lat="43.27894" lon="3.50212">
        <ele>54</ele>
        <time>2021-07-01T15:02:03.000Z</time>
      </trkpt>
      <trkpt lat="43.27905" lon="3.502">
        <ele>54</ele>
        <time>2021-07-01T15:02:06.000Z</time>
      </trkpt>
      <trkpt lat="43.27912" lon="3.50192">
        <ele>53</ele>
        <time>2021-07-01T15:02:08.000Z</time>
      </trkpt>
      <trkpt lat="43.27923" lon="3.50182">
        <ele>52</ele>
        <time>2021-07-01T15:02:11.000Z</time>
      </trkpt>
      <trkpt lat="43.27931" lon="3.50172">
        <ele>50</ele>
        <time>2021-07-01T15:02:14.000Z</time>
      </trkpt>
      <trkpt lat="43.2794" lon="3.50162">
        <ele>51</ele>
        <time>2021-07-01T15:02:17.000Z</time>
      </trkpt>
      <trkpt lat="43.27949" lon="3.50156">
        <ele>51</ele>
        <time>2021-07-01T15:02:23.000Z</time>
      </trkpt>
      <trkpt lat="43.27957" lon="3.5015">
        <ele>51</ele>
        <time>2021-07-01T15:02:27.000Z</time>
      </trkpt>
      <trkpt lat="43.2797" lon="3.50144">
        <ele>52</ele>
        <time>2021-07-01T15:02:30.000Z</time>
      </trkpt>
      <trkpt lat="43.2798" lon="3.50135">
        <ele>53</ele>
        <time>2021-07-01T15:02:33.000Z</time>
      </trkpt>
      <trkpt lat="43.27989" lon="3.50122">
        <ele>53</ele>
        <time>2021-07-01T15:02:36.000Z</time>
      </trkpt>
      <trkpt lat="43.28" lon="3.50117">
        <ele>53</ele>
        <time>2021-07-01T15:02:39.000Z</time>
      </trkpt>
      <trkpt lat="43.28006" lon="3.50107">
        <ele>53</ele>
        <time>2021-07-01T15:02:42.000Z</time>
      </trkpt>
      <trkpt lat="43.28008" lon="3.50092">
        <ele>53</ele>
        <time>2021-07-01T15:02:45.000Z</time>
      </trkpt>
      <trkpt lat="43.28014" lon="3.50081">
        <ele>53</ele>
        <time>2021-07-01T15:02:48.000Z</time>
      </trkpt>
      <trkpt lat="43.28023" lon="3.50073">
        <ele>53</ele>
        <time>2021-07-01T15:02:51.000Z</time>
      </trkpt>
      <trkpt lat="43.28032" lon="3.50066">
        <ele>52</ele>
        <time>2021-07-01T15:02:54.000Z</time>
      </trkpt>
      <trkpt lat="43.2804" lon="3.50059">
        <ele>53</ele>
        <time>2021-07-01T15:02:57.000Z</time>
      </trkpt>
      <trkpt lat="43.28051" lon="3.50055">
        <ele>52</ele>
        <time>2021-07-01T15:03:01.000Z</time>
      </trkpt>
      <trkpt lat="43.28063" lon="3.50054">
        <ele>52</ele>
        <time>2021-07-01T15:03:04.000Z</time>
      </trkpt>
      <trkpt lat="43.28076" lon="3.50054">
        <ele>52</ele>
        <time>2021-07-01T15:03:07.000Z</time>
      </trkpt>
      <trkpt lat="43.28087" lon="3.50052">
        <ele>52</ele>
        <time>2021-07-01T15:03:10.000Z</time>
      </trkpt>
      <trkpt lat="43.28096" lon="3.50047">
        <ele>52</ele>
        <time>2021-07-01T15:03:14.000Z</time>
      </trkpt>
      <trkpt lat="43.28106" lon="3.50039">
        <ele>52</ele>
        <time>2021-07-01T15:03:17.000Z</time>
      </trkpt>
      <trkpt lat="43.28113" lon="3.50031">
        <ele>52</ele>
        <time>2021-07-01T15:03:20.000Z</time>
      </trkpt>
      <trkpt lat="43.28122" lon="3.50024">
        <ele>52</ele>
        <time>2021-07-01T15:03:25.000Z</time>
      </trkpt>
      <trkpt lat="43.28132" lon="3.50016">
        <ele>52</ele>
        <time>2021-07-01T15:03:29.000Z</time>
      </trkpt>
      <trkpt lat="43.28141" lon="3.50009">
        <ele>51</ele>
        <time>2021-07-01T15:03:32.000Z</time>
      </trkpt>
      <trkpt lat="43.2815" lon="3.50001">
        <ele>52</ele>
        <time>2021-07-01T15:03:35.000Z</time>
      </trkpt>
      <trkpt lat="43.28158" lon="3.49992">
        <ele>52</ele>
        <time>2021-07-01T15:03:38.000Z</time>
      </trkpt>
      <trkpt lat="43.28166" lon="3.49984">
        <ele>52</ele>
        <time>2021-07-01T15:03:41.000Z</time>
      </trkpt>
      <trkpt lat="43.2817" lon="3.49973">
        <ele>52</ele>
        <time>2021-07-01T15:03:45.000Z</time>
      </trkpt>
      <trkpt lat="43.28177" lon="3.49964">
        <ele>52</ele>
        <time>2021-07-01T15:03:49.000Z</time>
      </trkpt>
      <trkpt lat="43.28187" lon="3.49957">
        <ele>53</ele>
        <time>2021-07-01T15:03:53.000Z</time>
      </trkpt>
      <trkpt lat="43.28198" lon="3.4995">
        <ele>53</ele>
        <time>2021-07-01T15:03:56.000Z</time>
      </trkpt>
      <trkpt lat="43.28207" lon="3.49945">
        <ele>52</ele>
        <time>2021-07-01T15:03:58.000Z</time>
      </trkpt>
      <trkpt lat="43.28216" lon="3.49943">
        <ele>51</ele>
        <time>2021-07-01T15:04:00.000Z</time>
      </trkpt>
      <trkpt lat="43.28227" lon="3.49944">
        <ele>50</ele>
        <time>2021-07-01T15:04:03.000Z</time>
      </trkpt>
      <trkpt lat="43.2824" lon="3.4995">
        <ele>50</ele>
        <time>2021-07-01T15:04:07.000Z</time>
      </trkpt>
      <trkpt lat="43.28249" lon="3.49954">
        <ele>50</ele>
        <time>2021-07-01T15:04:10.000Z</time>
      </trkpt>
      <trkpt lat="43.28258" lon="3.49962">
        <ele>50</ele>
        <time>2021-07-01T15:04:13.000Z</time>
      </trkpt>
      <trkpt lat="43.28269" lon="3.4997">
        <ele>50</ele>
        <time>2021-07-01T15:04:16.000Z</time>
      </trkpt>
      <trkpt lat="43.28279" lon="3.4998">
        <ele>50</ele>
        <time>2021-07-01T15:04:19.000Z</time>
      </trkpt>
      <trkpt lat="43.28288" lon="3.4999">
        <ele>50</ele>
        <time>2021-07-01T15:04:22.000Z</time>
      </trkpt>
      <trkpt lat="43.28296" lon="3.49997">
        <ele>50</ele>
        <time>2021-07-01T15:04:25.000Z</time>
      </trkpt>
      <trkpt lat="43.28305" lon="3.50006">
        <ele>51</ele>
        <time>2021-07-01T15:04:29.000Z</time>
      </trkpt>
      <trkpt lat="43.28311" lon="3.50016">
        <ele>51</ele>
        <time>2021-07-01T15:04:32.000Z</time>
      </trkpt>
      <trkpt lat="43.2832" lon="3.50027">
        <ele>52</ele>
        <time>2021-07-01T15:04:36.000Z</time>
      </trkpt>
      <trkpt lat="43.28328" lon="3.50038">
        <ele>52</ele>
        <time>2021-07-01T15:04:39.000Z</time>
      </trkpt>
      <trkpt lat="43.28334" lon="3.50051">
        <ele>52</ele>
        <time>2021-07-01T15:04:42.000Z</time>
      </trkpt>
      <trkpt lat="43.28341" lon="3.50063">
        <ele>51</ele>
        <time>2021-07-01T15:04:45.000Z</time>
      </trkpt>
      <trkpt lat="43.28347" lon="3.50079">
        <ele>51</ele>
        <time>2021-07-01T15:04:48.000Z</time>
      </trkpt>
      <trkpt lat="43.28354" lon="3.50093">
        <ele>51</ele>
        <time>2021-07-01T15:04:51.000Z</time>
      </trkpt>
      <trkpt lat="43.28359" lon="3.50108">
        <ele>51</ele>
        <time>2021-07-01T15:04:54.000Z</time>
      </trkpt>
      <trkpt lat="43.28363" lon="3.50126">
        <ele>51</ele>
        <time>2021-07-01T15:04:57.000Z</time>
      </trkpt>
      <trkpt lat="43.28367" lon="3.50142">
        <ele>51</ele>
        <time>2021-07-01T15:05:00.000Z</time>
      </trkpt>
      <trkpt lat="43.28371" lon="3.50159">
        <ele>51</ele>
        <time>2021-07-01T15:05:03.000Z</time>
      </trkpt>
      <trkpt lat="43.28373" lon="3.50171">
        <ele>51</ele>
        <time>2021-07-01T15:05:05.000Z</time>
      </trkpt>
      <trkpt lat="43.28377" lon="3.50188">
        <ele>51</ele>
        <time>2021-07-01T15:05:08.000Z</time>
      </trkpt>
      <trkpt lat="43.2838" lon="3.50204">
        <ele>51</ele>
        <time>2021-07-01T15:05:11.000Z</time>
      </trkpt>
      <trkpt lat="43.28384" lon="3.5022">
        <ele>49</ele>
        <time>2021-07-01T15:05:14.000Z</time>
      </trkpt>
      <trkpt lat="43.28388" lon="3.50234">
        <ele>49</ele>
        <time>2021-07-01T15:05:17.000Z</time>
      </trkpt>
      <trkpt lat="43.28391" lon="3.50247">
        <ele>49</ele>
        <time>2021-07-01T15:05:20.000Z</time>
      </trkpt>
      <trkpt lat="43.28396" lon="3.50262">
        <ele>49</ele>
        <time>2021-07-01T15:05:24.000Z</time>
      </trkpt>
      <trkpt lat="43.284" lon="3.50275">
        <ele>51</ele>
        <time>2021-07-01T15:05:28.000Z</time>
      </trkpt>
      <trkpt lat="43.28406" lon="3.50292">
        <ele>52</ele>
        <time>2021-07-01T15:05:32.000Z</time>
      </trkpt>
      <trkpt lat="43.28408" lon="3.50305">
        <ele>52</ele>
        <time>2021-07-01T15:05:34.000Z</time>
      </trkpt>
      <trkpt lat="43.28411" lon="3.50321">
        <ele>52</ele>
        <time>2021-07-01T15:05:37.000Z</time>
      </trkpt>
      <trkpt lat="43.28416" lon="3.50342">
        <ele>53</ele>
        <time>2021-07-01T15:05:41.000Z</time>
      </trkpt>
      <trkpt lat="43.28419" lon="3.50359">
        <ele>52</ele>
        <time>2021-07-01T15:05:44.000Z</time>
      </trkpt>
      <trkpt lat="43.28422" lon="3.50374">
        <ele>52</ele>
        <time>2021-07-01T15:05:47.000Z</time>
      </trkpt>
      <trkpt lat="43.28425" lon="3.50386">
        <ele>52</ele>
        <time>2021-07-01T15:05:50.000Z</time>
      </trkpt>
      <trkpt lat="43.2843" lon="3.50398">
        <ele>52</ele>
        <time>2021-07-01T15:05:53.000Z</time>
      </trkpt>
      <trkpt lat="43.28437" lon="3.50406">
        <ele>52</ele>
        <time>2021-07-01T15:05:56.000Z</time>
      </trkpt>
      <trkpt lat="43.28442" lon="3.50422">
        <ele>51</ele>
        <time>2021-07-01T15:06:00.000Z</time>
      </trkpt>
      <trkpt lat="43.28447" lon="3.50434">
        <ele>50</ele>
        <time>2021-07-01T15:06:03.000Z</time>
      </trkpt>
      <trkpt lat="43.28454" lon="3.50446">
        <ele>50</ele>
        <time>2021-07-01T15:06:06.000Z</time>
      </trkpt>
      <trkpt lat="43.28461" lon="3.5046">
        <ele>49</ele>
        <time>2021-07-01T15:06:09.000Z</time>
      </trkpt>
      <trkpt lat="43.28468" lon="3.50473">
        <ele>50</ele>
        <time>2021-07-01T15:06:12.000Z</time>
      </trkpt>
      <trkpt lat="43.28477" lon="3.5049">
        <ele>50</ele>
        <time>2021-07-01T15:06:15.000Z</time>
      </trkpt>
      <trkpt lat="43.28483" lon="3.505">
        <ele>51</ele>
        <time>2021-07-01T15:06:17.000Z</time>
      </trkpt>
      <trkpt lat="43.28488" lon="3.50511">
        <ele>51</ele>
        <time>2021-07-01T15:06:19.000Z</time>
      </trkpt>
      <trkpt lat="43.28496" lon="3.50523">
        <ele>52</ele>
        <time>2021-07-01T15:06:22.000Z</time>
      </trkpt>
      <trkpt lat="43.28504" lon="3.50536">
        <ele>52</ele>
        <time>2021-07-01T15:06:25.000Z</time>
      </trkpt>
      <trkpt lat="43.28514" lon="3.50547">
        <ele>52</ele>
        <time>2021-07-01T15:06:28.000Z</time>
      </trkpt>
      <trkpt lat="43.28525" lon="3.50558">
        <ele>52</ele>
        <time>2021-07-01T15:06:31.000Z</time>
      </trkpt>
      <trkpt lat="43.28534" lon="3.50564">
        <ele>52</ele>
        <time>2021-07-01T15:06:33.000Z</time>
      </trkpt>
      <trkpt lat="43.28543" lon="3.50573">
        <ele>52</ele>
        <time>2021-07-01T15:06:36.000Z</time>
      </trkpt>
      <trkpt lat="43.28553" lon="3.50581">
        <ele>54</ele>
        <time>2021-07-01T15:06:39.000Z</time>
      </trkpt>
      <trkpt lat="43.28563" lon="3.5059">
        <ele>55</ele>
        <time>2021-07-01T15:06:42.000Z</time>
      </trkpt>
      <trkpt lat="43.28574" lon="3.50599">
        <ele>55</ele>
        <time>2021-07-01T15:06:45.000Z</time>
      </trkpt>
      <trkpt lat="43.28586" lon="3.50614">
        <ele>52</ele>
        <time>2021-07-01T15:06:49.000Z</time>
      </trkpt>
      <trkpt lat="43.28598" lon="3.50622">
        <ele>53</ele>
        <time>2021-07-01T15:06:52.000Z</time>
      </trkpt>
      <trkpt lat="43.28607" lon="3.50631">
        <ele>53</ele>
        <time>2021-07-01T15:06:54.000Z</time>
      </trkpt>
      <trkpt lat="43.28616" lon="3.50641">
        <ele>54</ele>
        <time>2021-07-01T15:06:56.000Z</time>
      </trkpt>
      <trkpt lat="43.28623" lon="3.50649">
        <ele>55</ele>
        <time>2021-07-01T15:06:58.000Z</time>
      </trkpt>
      <trkpt lat="43.28631" lon="3.50662">
        <ele>55</ele>
        <time>2021-07-01T15:07:00.000Z</time>
      </trkpt>
      <trkpt lat="43.28637" lon="3.50674">
        <ele>56</ele>
        <time>2021-07-01T15:07:02.000Z</time>
      </trkpt>
      <trkpt lat="43.28643" lon="3.50687">
        <ele>56</ele>
        <time>2021-07-01T15:07:04.000Z</time>
      </trkpt>
      <trkpt lat="43.28649" lon="3.50701">
        <ele>55</ele>
        <time>2021-07-01T15:07:06.000Z</time>
      </trkpt>
      <trkpt lat="43.28654" lon="3.50714">
        <ele>54</ele>
        <time>2021-07-01T15:07:08.000Z</time>
      </trkpt>
      <trkpt lat="43.28656" lon="3.5073">
        <ele>54</ele>
        <time>2021-07-01T15:07:10.000Z</time>
      </trkpt>
      <trkpt lat="43.28658" lon="3.50749">
        <ele>52</ele>
        <time>2021-07-01T15:07:12.000Z</time>
      </trkpt>
      <trkpt lat="43.28659" lon="3.50767">
        <ele>51</ele>
        <time>2021-07-01T15:07:14.000Z</time>
      </trkpt>
      <trkpt lat="43.2866" lon="3.50786">
        <ele>51</ele>
        <time>2021-07-01T15:07:16.000Z</time>
      </trkpt>
      <trkpt lat="43.28661" lon="3.50806">
        <ele>51</ele>
        <time>2021-07-01T15:07:18.000Z</time>
      </trkpt>
      <trkpt lat="43.2866" lon="3.50824">
        <ele>51</ele>
        <time>2021-07-01T15:07:20.000Z</time>
      </trkpt>
      <trkpt lat="43.2866" lon="3.50841">
        <ele>51</ele>
        <time>2021-07-01T15:07:22.000Z</time>
      </trkpt>
      <trkpt lat="43.2866" lon="3.50856">
        <ele>51</ele>
        <time>2021-07-01T15:07:24.000Z</time>
      </trkpt>
      <trkpt lat="43.2866" lon="3.50869">
        <ele>52</ele>
        <time>2021-07-01T15:07:26.000Z</time>
      </trkpt>
      <trkpt lat="43.28663" lon="3.50883">
        <ele>52</ele>
        <time>2021-07-01T15:07:28.000Z</time>
      </trkpt>
      <trkpt lat="43.28664" lon="3.50897">
        <ele>52</ele>
        <time>2021-07-01T15:07:30.000Z</time>
      </trkpt>
      <trkpt lat="43.28665" lon="3.5091">
        <ele>53</ele>
        <time>2021-07-01T15:07:32.000Z</time>
      </trkpt>
      <trkpt lat="43.28666" lon="3.50923">
        <ele>54</ele>
        <time>2021-07-01T15:07:34.000Z</time>
      </trkpt>
      <trkpt lat="43.28668" lon="3.50935">
        <ele>53</ele>
        <time>2021-07-01T15:07:36.000Z</time>
      </trkpt>
      <trkpt lat="43.2867" lon="3.50948">
        <ele>53</ele>
        <time>2021-07-01T15:07:38.000Z</time>
      </trkpt>
      <trkpt lat="43.28671" lon="3.50965">
        <ele>54</ele>
        <time>2021-07-01T15:07:41.000Z</time>
      </trkpt>
      <trkpt lat="43.2867" lon="3.50984">
        <ele>54</ele>
        <time>2021-07-01T15:07:44.000Z</time>
      </trkpt>
      <trkpt lat="43.28666" lon="3.50996">
        <ele>54</ele>
        <time>2021-07-01T15:07:46.000Z</time>
      </trkpt>
      <trkpt lat="43.28662" lon="3.51008">
        <ele>54</ele>
        <time>2021-07-01T15:07:48.000Z</time>
      </trkpt>
      <trkpt lat="43.28656" lon="3.51018">
        <ele>54</ele>
        <time>2021-07-01T15:07:50.000Z</time>
      </trkpt>
      <trkpt lat="43.2865" lon="3.51029">
        <ele>54</ele>
        <time>2021-07-01T15:07:52.000Z</time>
      </trkpt>
      <trkpt lat="43.28646" lon="3.51043">
        <ele>54</ele>
        <time>2021-07-01T15:07:54.000Z</time>
      </trkpt>
      <trkpt lat="43.28645" lon="3.51056">
        <ele>54</ele>
        <time>2021-07-01T15:07:56.000Z</time>
      </trkpt>
      <trkpt lat="43.28642" lon="3.51068">
        <ele>53</ele>
        <time>2021-07-01T15:07:58.000Z</time>
      </trkpt>
      <trkpt lat="43.28639" lon="3.51081">
        <ele>52</ele>
        <time>2021-07-01T15:08:00.000Z</time>
      </trkpt>
      <trkpt lat="43.28636" lon="3.51095">
        <ele>52</ele>
        <time>2021-07-01T15:08:02.000Z</time>
      </trkpt>
      <trkpt lat="43.28633" lon="3.51107">
        <ele>52</ele>
        <time>2021-07-01T15:08:04.000Z</time>
      </trkpt>
      <trkpt lat="43.2863" lon="3.51125">
        <ele>52</ele>
        <time>2021-07-01T15:08:07.000Z</time>
      </trkpt>
      <trkpt lat="43.28626" lon="3.51137">
        <ele>51</ele>
        <time>2021-07-01T15:08:09.000Z</time>
      </trkpt>
      <trkpt lat="43.28622" lon="3.51149">
        <ele>51</ele>
        <time>2021-07-01T15:08:11.000Z</time>
      </trkpt>
      <trkpt lat="43.28616" lon="3.51167">
        <ele>52</ele>
        <time>2021-07-01T15:08:14.000Z</time>
      </trkpt>
      <trkpt lat="43.28612" lon="3.51178">
        <ele>51</ele>
        <time>2021-07-01T15:08:16.000Z</time>
      </trkpt>
      <trkpt lat="43.28608" lon="3.51191">
        <ele>51</ele>
        <time>2021-07-01T15:08:18.000Z</time>
      </trkpt>
      <trkpt lat="43.28604" lon="3.51203">
        <ele>52</ele>
        <time>2021-07-01T15:08:20.000Z</time>
      </trkpt>
      <trkpt lat="43.28596" lon="3.5122">
        <ele>51</ele>
        <time>2021-07-01T15:08:23.000Z</time>
      </trkpt>
      <trkpt lat="43.28592" lon="3.51232">
        <ele>52</ele>
        <time>2021-07-01T15:08:25.000Z</time>
      </trkpt>
      <trkpt lat="43.28586" lon="3.51247">
        <ele>52</ele>
        <time>2021-07-01T15:08:28.000Z</time>
      </trkpt>
      <trkpt lat="43.28578" lon="3.51262">
        <ele>53</ele>
        <time>2021-07-01T15:08:31.000Z</time>
      </trkpt>
      <trkpt lat="43.28571" lon="3.51277">
        <ele>52</ele>
        <time>2021-07-01T15:08:34.000Z</time>
      </trkpt>
      <trkpt lat="43.28562" lon="3.51289">
        <ele>52</ele>
        <time>2021-07-01T15:08:37.000Z</time>
      </trkpt>
      <trkpt lat="43.28553" lon="3.51299">
        <ele>52</ele>
        <time>2021-07-01T15:08:40.000Z</time>
      </trkpt>
      <trkpt lat="43.28546" lon="3.51308">
        <ele>52</ele>
        <time>2021-07-01T15:08:43.000Z</time>
      </trkpt>
      <trkpt lat="43.28537" lon="3.51321">
        <ele>52</ele>
        <time>2021-07-01T15:08:46.000Z</time>
      </trkpt>
      <trkpt lat="43.28529" lon="3.51328">
        <ele>51</ele>
        <time>2021-07-01T15:08:48.000Z</time>
      </trkpt>
      <trkpt lat="43.28519" lon="3.51338">
        <ele>52</ele>
        <time>2021-07-01T15:08:51.000Z</time>
      </trkpt>
      <trkpt lat="43.28511" lon="3.51346">
        <ele>52</ele>
        <time>2021-07-01T15:08:53.000Z</time>
      </trkpt>
      <trkpt lat="43.28503" lon="3.51355">
        <ele>52</ele>
        <time>2021-07-01T15:08:55.000Z</time>
      </trkpt>
      <trkpt lat="43.28493" lon="3.51365">
        <ele>53</ele>
        <time>2021-07-01T15:08:58.000Z</time>
      </trkpt>
      <trkpt lat="43.28482" lon="3.51375">
        <ele>54</ele>
        <time>2021-07-01T15:09:01.000Z</time>
      </trkpt>
      <trkpt lat="43.28471" lon="3.51384">
        <ele>54</ele>
        <time>2021-07-01T15:09:04.000Z</time>
      </trkpt>
      <trkpt lat="43.28456" lon="3.51397">
        <ele>53</ele>
        <time>2021-07-01T15:09:08.000Z</time>
      </trkpt>
      <trkpt lat="43.28449" lon="3.51404">
        <ele>53</ele>
        <time>2021-07-01T15:09:10.000Z</time>
      </trkpt>
      <trkpt lat="43.28441" lon="3.51412">
        <ele>52</ele>
        <time>2021-07-01T15:09:12.000Z</time>
      </trkpt>
      <trkpt lat="43.28433" lon="3.51419">
        <ele>51</ele>
        <time>2021-07-01T15:09:14.000Z</time>
      </trkpt>
      <trkpt lat="43.28425" lon="3.51427">
        <ele>52</ele>
        <time>2021-07-01T15:09:16.000Z</time>
      </trkpt>
      <trkpt lat="43.28417" lon="3.51434">
        <ele>51</ele>
        <time>2021-07-01T15:09:18.000Z</time>
      </trkpt>
      <trkpt lat="43.28408" lon="3.51439">
        <ele>51</ele>
        <time>2021-07-01T15:09:20.000Z</time>
      </trkpt>
      <trkpt lat="43.28391" lon="3.51449">
        <ele>51</ele>
        <time>2021-07-01T15:09:24.000Z</time>
      </trkpt>
      <trkpt lat="43.28383" lon="3.51454">
        <ele>51</ele>
        <time>2021-07-01T15:09:26.000Z</time>
      </trkpt>
      <trkpt lat="43.28374" lon="3.51458">
        <ele>51</ele>
        <time>2021-07-01T15:09:28.000Z</time>
      </trkpt>
      <trkpt lat="43.28365" lon="3.51464">
        <ele>51</ele>
        <time>2021-07-01T15:09:30.000Z</time>
      </trkpt>
      <trkpt lat="43.28353" lon="3.5147">
        <ele>51</ele>
        <time>2021-07-01T15:09:33.000Z</time>
      </trkpt>
      <trkpt lat="43.28344" lon="3.51476">
        <ele>51</ele>
        <time>2021-07-01T15:09:35.000Z</time>
      </trkpt>
      <trkpt lat="43.28336" lon="3.51484">
        <ele>52</ele>
        <time>2021-07-01T15:09:37.000Z</time>
      </trkpt>
      <trkpt lat="43.28327" lon="3.51488">
        <ele>51</ele>
        <time>2021-07-01T15:09:39.000Z</time>
      </trkpt>
      <trkpt lat="43.28314" lon="3.51493">
        <ele>51</ele>
        <time>2021-07-01T15:09:42.000Z</time>
      </trkpt>
      <trkpt lat="43.28305" lon="3.51497">
        <ele>50</ele>
        <time>2021-07-01T15:09:44.000Z</time>
      </trkpt>
      <trkpt lat="43.28295" lon="3.51501">
        <ele>51</ele>
        <time>2021-07-01T15:09:46.000Z</time>
      </trkpt>
      <trkpt lat="43.28286" lon="3.51504">
        <ele>50</ele>
        <time>2021-07-01T15:09:48.000Z</time>
      </trkpt>
      <trkpt lat="43.28274" lon="3.5151">
        <ele>50</ele>
        <time>2021-07-01T15:09:51.000Z</time>
      </trkpt>
      <trkpt lat="43.2826" lon="3.51513">
        <ele>50</ele>
        <time>2021-07-01T15:09:54.000Z</time>
      </trkpt>
      <trkpt lat="43.28246" lon="3.51516">
        <ele>49</ele>
        <time>2021-07-01T15:09:57.000Z</time>
      </trkpt>
      <trkpt lat="43.28236" lon="3.51523">
        <ele>48</ele>
        <time>2021-07-01T15:10:00.000Z</time>
      </trkpt>
      <trkpt lat="43.28223" lon="3.51524">
        <ele>50</ele>
        <time>2021-07-01T15:10:03.000Z</time>
      </trkpt>
      <trkpt lat="43.28209" lon="3.51525">
        <ele>48</ele>
        <time>2021-07-01T15:10:06.000Z</time>
      </trkpt>
      <trkpt lat="43.28197" lon="3.51529">
        <ele>48</ele>
        <time>2021-07-01T15:10:09.000Z</time>
      </trkpt>
      <trkpt lat="43.28186" lon="3.51535">
        <ele>49</ele>
        <time>2021-07-01T15:10:11.000Z</time>
      </trkpt>
      <trkpt lat="43.28174" lon="3.51541">
        <ele>51</ele>
        <time>2021-07-01T15:10:13.000Z</time>
      </trkpt>
      <trkpt lat="43.28165" lon="3.51544">
        <ele>50</ele>
        <time>2021-07-01T15:10:15.000Z</time>
      </trkpt>
      <trkpt lat="43.28156" lon="3.51548">
        <ele>50</ele>
        <time>2021-07-01T15:10:18.000Z</time>
      </trkpt>
      <trkpt lat="43.28146" lon="3.51545">
        <ele>50</ele>
        <time>2021-07-01T15:10:20.000Z</time>
      </trkpt>
      <trkpt lat="43.2813" lon="3.51539">
        <ele>49</ele>
        <time>2021-07-01T15:10:23.000Z</time>
      </trkpt>
      <trkpt lat="43.2812" lon="3.51529">
        <ele>47</ele>
        <time>2021-07-01T15:10:26.000Z</time>
      </trkpt>
      <trkpt lat="43.28107" lon="3.51526">
        <ele>47</ele>
        <time>2021-07-01T15:10:29.000Z</time>
      </trkpt>
      <trkpt lat="43.28098" lon="3.51521">
        <ele>47</ele>
        <time>2021-07-01T15:10:31.000Z</time>
      </trkpt>
      <trkpt lat="43.28087" lon="3.51516">
        <ele>46</ele>
        <time>2021-07-01T15:10:34.000Z</time>
      </trkpt>
      <trkpt lat="43.28077" lon="3.51513">
        <ele>45</ele>
        <time>2021-07-01T15:10:36.000Z</time>
      </trkpt>
      <trkpt lat="43.28066" lon="3.51506">
        <ele>46</ele>
        <time>2021-07-01T15:10:39.000Z</time>
      </trkpt>
      <trkpt lat="43.28055" lon="3.51497">
        <ele>47</ele>
        <time>2021-07-01T15:10:42.000Z</time>
      </trkpt>
      <trkpt lat="43.28046" lon="3.51489">
        <ele>48</ele>
        <time>2021-07-01T15:10:45.000Z</time>
      </trkpt>
      <trkpt lat="43.28036" lon="3.51489">
        <ele>48</ele>
        <time>2021-07-01T15:10:49.000Z</time>
      </trkpt>
      <trkpt lat="43.28031" lon="3.515">
        <ele>50</ele>
        <time>2021-07-01T15:10:53.000Z</time>
      </trkpt>
      <trkpt lat="43.28027" lon="3.51515">
        <ele>51</ele>
        <time>2021-07-01T15:10:56.000Z</time>
      </trkpt>
      <trkpt lat="43.28024" lon="3.51533">
        <ele>51</ele>
        <time>2021-07-01T15:10:59.000Z</time>
      </trkpt>
      <trkpt lat="43.28019" lon="3.51544">
        <ele>52</ele>
        <time>2021-07-01T15:11:01.000Z</time>
      </trkpt>
      <trkpt lat="43.28013" lon="3.51557">
        <ele>52</ele>
        <time>2021-07-01T15:11:04.000Z</time>
      </trkpt>
      <trkpt lat="43.28009" lon="3.51569">
        <ele>51</ele>
        <time>2021-07-01T15:11:08.000Z</time>
      </trkpt>
      <trkpt lat="43.27999" lon="3.51566">
        <ele>51</ele>
        <time>2021-07-01T15:11:11.000Z</time>
      </trkpt>
      <trkpt lat="43.27986" lon="3.51557">
        <ele>51</ele>
        <time>2021-07-01T15:11:15.000Z</time>
      </trkpt>
      <trkpt lat="43.27976" lon="3.5155">
        <ele>50</ele>
        <time>2021-07-01T15:11:18.000Z</time>
      </trkpt>
      <trkpt lat="43.27965" lon="3.51543">
        <ele>50</ele>
        <time>2021-07-01T15:11:21.000Z</time>
      </trkpt>
      <trkpt lat="43.27955" lon="3.51534">
        <ele>51</ele>
        <time>2021-07-01T15:11:24.000Z</time>
      </trkpt>
      <trkpt lat="43.27946" lon="3.51525">
        <ele>51</ele>
        <time>2021-07-01T15:11:27.000Z</time>
      </trkpt>
      <trkpt lat="43.27938" lon="3.51514">
        <ele>51</ele>
        <time>2021-07-01T15:11:30.000Z</time>
      </trkpt>
      <trkpt lat="43.2793" lon="3.51504">
        <ele>49</ele>
        <time>2021-07-01T15:11:33.000Z</time>
      </trkpt>
      <trkpt lat="43.27918" lon="3.51488">
        <ele>49</ele>
        <time>2021-07-01T15:11:37.000Z</time>
      </trkpt>
      <trkpt lat="43.27909" lon="3.51476">
        <ele>49</ele>
        <time>2021-07-01T15:11:40.000Z</time>
      </trkpt>
      <trkpt lat="43.27901" lon="3.51464">
        <ele>49</ele>
        <time>2021-07-01T15:11:43.000Z</time>
      </trkpt>
      <trkpt lat="43.27892" lon="3.51456">
        <ele>48</ele>
        <time>2021-07-01T15:11:46.000Z</time>
      </trkpt>
      <trkpt lat="43.27885" lon="3.51446">
        <ele>48</ele>
        <time>2021-07-01T15:11:49.000Z</time>
      </trkpt>
      <trkpt lat="43.27877" lon="3.51438">
        <ele>49</ele>
        <time>2021-07-01T15:11:53.000Z</time>
      </trkpt>
      <trkpt lat="43.27863" lon="3.51425">
        <ele>47</ele>
        <time>2021-07-01T15:12:07.000Z</time>
      </trkpt>
      <trkpt lat="43.27854" lon="3.51417">
        <ele>48</ele>
        <time>2021-07-01T15:12:10.000Z</time>
      </trkpt>
      <trkpt lat="43.27847" lon="3.51408">
        <ele>48</ele>
        <time>2021-07-01T15:12:14.000Z</time>
      </trkpt>
      <trkpt lat="43.27841" lon="3.5142">
        <ele>39</ele>
        <time>2021-07-01T15:16:27.000Z</time>
      </trkpt>
      <trkpt lat="43.27842" lon="3.51432">
        <ele>41</ele>
        <time>2021-07-01T15:16:29.000Z</time>
      </trkpt>
      <trkpt lat="43.27842" lon="3.51448">
        <ele>47</ele>
        <time>2021-07-01T15:16:31.000Z</time>
      </trkpt>
      <trkpt lat="43.27846" lon="3.51461">
        <ele>45</ele>
        <time>2021-07-01T15:16:34.000Z</time>
      </trkpt>
      <trkpt lat="43.27846" lon="3.51478">
        <ele>47</ele>
        <time>2021-07-01T15:16:37.000Z</time>
      </trkpt>
      <trkpt lat="43.27849" lon="3.51494">
        <ele>48</ele>
        <time>2021-07-01T15:16:40.000Z</time>
      </trkpt>
      <trkpt lat="43.27855" lon="3.51505">
        <ele>46</ele>
        <time>2021-07-01T15:16:42.000Z</time>
      </trkpt>
      <trkpt lat="43.27863" lon="3.51511">
        <ele>46</ele>
        <time>2021-07-01T15:16:44.000Z</time>
      </trkpt>
      <trkpt lat="43.27873" lon="3.51521">
        <ele>48</ele>
        <time>2021-07-01T15:16:47.000Z</time>
      </trkpt>
      <trkpt lat="43.27885" lon="3.5153">
        <ele>49</ele>
        <time>2021-07-01T15:16:50.000Z</time>
      </trkpt>
      <trkpt lat="43.27896" lon="3.51537">
        <ele>49</ele>
        <time>2021-07-01T15:16:53.000Z</time>
      </trkpt>
      <trkpt lat="43.27908" lon="3.51546">
        <ele>49</ele>
        <time>2021-07-01T15:16:56.000Z</time>
      </trkpt>
      <trkpt lat="43.27919" lon="3.51553">
        <ele>50</ele>
        <time>2021-07-01T15:16:59.000Z</time>
      </trkpt>
      <trkpt lat="43.27929" lon="3.51559">
        <ele>48</ele>
        <time>2021-07-01T15:17:02.000Z</time>
      </trkpt>
      <trkpt lat="43.27937" lon="3.51566">
        <ele>49</ele>
        <time>2021-07-01T15:17:04.000Z</time>
      </trkpt>
      <trkpt lat="43.2795" lon="3.51576">
        <ele>50</ele>
        <time>2021-07-01T15:17:07.000Z</time>
      </trkpt>
      <trkpt lat="43.27959" lon="3.51581">
        <ele>50</ele>
        <time>2021-07-01T15:17:09.000Z</time>
      </trkpt>
      <trkpt lat="43.27967" lon="3.51587">
        <ele>51</ele>
        <time>2021-07-01T15:17:11.000Z</time>
      </trkpt>
      <trkpt lat="43.27975" lon="3.51592">
        <ele>51</ele>
        <time>2021-07-01T15:17:13.000Z</time>
      </trkpt>
      <trkpt lat="43.27989" lon="3.51599">
        <ele>51</ele>
        <time>2021-07-01T15:17:16.000Z</time>
      </trkpt>
      <trkpt lat="43.27997" lon="3.51604">
        <ele>51</ele>
        <time>2021-07-01T15:17:18.000Z</time>
      </trkpt>
      <trkpt lat="43.28006" lon="3.51609">
        <ele>50</ele>
        <time>2021-07-01T15:17:20.000Z</time>
      </trkpt>
      <trkpt lat="43.28017" lon="3.51613">
        <ele>51</ele>
        <time>2021-07-01T15:17:22.000Z</time>
      </trkpt>
      <trkpt lat="43.28025" lon="3.51617">
        <ele>51</ele>
        <time>2021-07-01T15:17:24.000Z</time>
      </trkpt>
      <trkpt lat="43.28036" lon="3.5162">
        <ele>49</ele>
        <time>2021-07-01T15:17:26.000Z</time>
      </trkpt>
      <trkpt lat="43.28046" lon="3.5162">
        <ele>47</ele>
        <time>2021-07-01T15:17:28.000Z</time>
      </trkpt>
      <trkpt lat="43.28056" lon="3.51623">
        <ele>48</ele>
        <time>2021-07-01T15:17:30.000Z</time>
      </trkpt>
      <trkpt lat="43.28065" lon="3.51626">
        <ele>49</ele>
        <time>2021-07-01T15:17:32.000Z</time>
      </trkpt>
      <trkpt lat="43.28075" lon="3.51629">
        <ele>49</ele>
        <time>2021-07-01T15:17:34.000Z</time>
      </trkpt>
      <trkpt lat="43.28086" lon="3.51632">
        <ele>47</ele>
        <time>2021-07-01T15:17:36.000Z</time>
      </trkpt>
      <trkpt lat="43.28097" lon="3.51634">
        <ele>47</ele>
        <time>2021-07-01T15:17:38.000Z</time>
      </trkpt>
      <trkpt lat="43.28107" lon="3.51635">
        <ele>48</ele>
        <time>2021-07-01T15:17:40.000Z</time>
      </trkpt>
      <trkpt lat="43.28117" lon="3.51636">
        <ele>47</ele>
        <time>2021-07-01T15:17:42.000Z</time>
      </trkpt>
      <trkpt lat="43.28126" lon="3.51637">
        <ele>45</ele>
        <time>2021-07-01T15:17:44.000Z</time>
      </trkpt>
      <trkpt lat="43.2814" lon="3.51636">
        <ele>46</ele>
        <time>2021-07-01T15:17:47.000Z</time>
      </trkpt>
      <trkpt lat="43.28151" lon="3.51633">
        <ele>47</ele>
        <time>2021-07-01T15:17:49.000Z</time>
      </trkpt>
      <trkpt lat="43.28166" lon="3.51629">
        <ele>47</ele>
        <time>2021-07-01T15:17:52.000Z</time>
      </trkpt>
      <trkpt lat="43.28176" lon="3.51626">
        <ele>47</ele>
        <time>2021-07-01T15:17:54.000Z</time>
      </trkpt>
      <trkpt lat="43.28193" lon="3.5162">
        <ele>46</ele>
        <time>2021-07-01T15:17:58.000Z</time>
      </trkpt>
      <trkpt lat="43.28206" lon="3.51618">
        <ele>44</ele>
        <time>2021-07-01T15:18:01.000Z</time>
      </trkpt>
      <trkpt lat="43.28217" lon="3.51618">
        <ele>45</ele>
        <time>2021-07-01T15:18:03.000Z</time>
      </trkpt>
      <trkpt lat="43.28235" lon="3.51612">
        <ele>46</ele>
        <time>2021-07-01T15:18:07.000Z</time>
      </trkpt>
      <trkpt lat="43.28246" lon="3.51608">
        <ele>44</ele>
        <time>2021-07-01T15:18:09.000Z</time>
      </trkpt>
      <trkpt lat="43.28255" lon="3.51602">
        <ele>45</ele>
        <time>2021-07-01T15:18:11.000Z</time>
      </trkpt>
      <trkpt lat="43.28265" lon="3.516">
        <ele>45</ele>
        <time>2021-07-01T15:18:13.000Z</time>
      </trkpt>
      <trkpt lat="43.28276" lon="3.51597">
        <ele>43</ele>
        <time>2021-07-01T15:18:16.000Z</time>
      </trkpt>
      <trkpt lat="43.28289" lon="3.51593">
        <ele>43</ele>
        <time>2021-07-01T15:18:19.000Z</time>
      </trkpt>
      <trkpt lat="43.28299" lon="3.51588">
        <ele>43</ele>
        <time>2021-07-01T15:18:21.000Z</time>
      </trkpt>
      <trkpt lat="43.28314" lon="3.51581">
        <ele>45</ele>
        <time>2021-07-01T15:18:24.000Z</time>
      </trkpt>
      <trkpt lat="43.28324" lon="3.51577">
        <ele>45</ele>
        <time>2021-07-01T15:18:26.000Z</time>
      </trkpt>
      <trkpt lat="43.28334" lon="3.51573">
        <ele>46</ele>
        <time>2021-07-01T15:18:28.000Z</time>
      </trkpt>
      <trkpt lat="43.28344" lon="3.51569">
        <ele>46</ele>
        <time>2021-07-01T15:18:30.000Z</time>
      </trkpt>
      <trkpt lat="43.28354" lon="3.51565">
        <ele>46</ele>
        <time>2021-07-01T15:18:32.000Z</time>
      </trkpt>
      <trkpt lat="43.28364" lon="3.5156">
        <ele>46</ele>
        <time>2021-07-01T15:18:34.000Z</time>
      </trkpt>
      <trkpt lat="43.28373" lon="3.51555">
        <ele>47</ele>
        <time>2021-07-01T15:18:36.000Z</time>
      </trkpt>
      <trkpt lat="43.28383" lon="3.51549">
        <ele>47</ele>
        <time>2021-07-01T15:18:38.000Z</time>
      </trkpt>
      <trkpt lat="43.28392" lon="3.51543">
        <ele>47</ele>
        <time>2021-07-01T15:18:40.000Z</time>
      </trkpt>
      <trkpt lat="43.28402" lon="3.51542">
        <ele>45</ele>
        <time>2021-07-01T15:18:42.000Z</time>
      </trkpt>
      <trkpt lat="43.28411" lon="3.51539">
        <ele>46</ele>
        <time>2021-07-01T15:18:44.000Z</time>
      </trkpt>
      <trkpt lat="43.2842" lon="3.51534">
        <ele>46</ele>
        <time>2021-07-01T15:18:46.000Z</time>
      </trkpt>
      <trkpt lat="43.2843" lon="3.51527">
        <ele>47</ele>
        <time>2021-07-01T15:18:48.000Z</time>
      </trkpt>
      <trkpt lat="43.28439" lon="3.51521">
        <ele>46</ele>
        <time>2021-07-01T15:18:50.000Z</time>
      </trkpt>
      <trkpt lat="43.28448" lon="3.51512">
        <ele>46</ele>
        <time>2021-07-01T15:18:52.000Z</time>
      </trkpt>
      <trkpt lat="43.28458" lon="3.51502">
        <ele>46</ele>
        <time>2021-07-01T15:18:54.000Z</time>
      </trkpt>
      <trkpt lat="43.28468" lon="3.51494">
        <ele>47</ele>
        <time>2021-07-01T15:18:56.000Z</time>
      </trkpt>
      <trkpt lat="43.28477" lon="3.51487">
        <ele>47</ele>
        <time>2021-07-01T15:18:58.000Z</time>
      </trkpt>
      <trkpt lat="43.28487" lon="3.5148">
        <ele>44</ele>
        <time>2021-07-01T15:19:01.000Z</time>
      </trkpt>
      <trkpt lat="43.28496" lon="3.51472">
        <ele>44</ele>
        <time>2021-07-01T15:19:03.000Z</time>
      </trkpt>
      <trkpt lat="43.28504" lon="3.51463">
        <ele>45</ele>
        <time>2021-07-01T15:19:05.000Z</time>
      </trkpt>
      <trkpt lat="43.28511" lon="3.51456">
        <ele>46</ele>
        <time>2021-07-01T15:19:07.000Z</time>
      </trkpt>
      <trkpt lat="43.28521" lon="3.51445">
        <ele>47</ele>
        <time>2021-07-01T15:19:10.000Z</time>
      </trkpt>
      <trkpt lat="43.28529" lon="3.51438">
        <ele>47</ele>
        <time>2021-07-01T15:19:12.000Z</time>
      </trkpt>
      <trkpt lat="43.28537" lon="3.51431">
        <ele>47</ele>
        <time>2021-07-01T15:19:14.000Z</time>
      </trkpt>
      <trkpt lat="43.28552" lon="3.51423">
        <ele>48</ele>
        <time>2021-07-01T15:19:18.000Z</time>
      </trkpt>
      <trkpt lat="43.28561" lon="3.51417">
        <ele>47</ele>
        <time>2021-07-01T15:19:22.000Z</time>
      </trkpt>
      <trkpt lat="43.2857" lon="3.51414">
        <ele>46</ele>
        <time>2021-07-01T15:19:27.000Z</time>
      </trkpt>
      <trkpt lat="43.28578" lon="3.51418">
        <ele>46</ele>
        <time>2021-07-01T15:19:31.000Z</time>
      </trkpt>
      <trkpt lat="43.28588" lon="3.51419">
        <ele>46</ele>
        <time>2021-07-01T15:19:35.000Z</time>
      </trkpt>
      <trkpt lat="43.28598" lon="3.51413">
        <ele>49</ele>
        <time>2021-07-01T15:19:40.000Z</time>
      </trkpt>
      <trkpt lat="43.28602" lon="3.51401">
        <ele>48</ele>
        <time>2021-07-01T15:19:44.000Z</time>
      </trkpt>
      <trkpt lat="43.28605" lon="3.51386">
        <ele>49</ele>
        <time>2021-07-01T15:19:48.000Z</time>
      </trkpt>
      <trkpt lat="43.28609" lon="3.51374">
        <ele>47</ele>
        <time>2021-07-01T15:19:52.000Z</time>
      </trkpt>
      <trkpt lat="43.28612" lon="3.51362">
        <ele>48</ele>
        <time>2021-07-01T15:19:55.000Z</time>
      </trkpt>
      <trkpt lat="43.28614" lon="3.51349">
        <ele>48</ele>
        <time>2021-07-01T15:19:58.000Z</time>
      </trkpt>
      <trkpt lat="43.28619" lon="3.51335">
        <ele>45</ele>
        <time>2021-07-01T15:20:01.000Z</time>
      </trkpt>
      <trkpt lat="43.28625" lon="3.51316">
        <ele>49</ele>
        <time>2021-07-01T15:20:05.000Z</time>
      </trkpt>
      <trkpt lat="43.28634" lon="3.51308">
        <ele>48</ele>
        <time>2021-07-01T15:20:09.000Z</time>
      </trkpt>
      <trkpt lat="43.28645" lon="3.51308">
        <ele>49</ele>
        <time>2021-07-01T15:20:14.000Z</time>
      </trkpt>
      <trkpt lat="43.28648" lon="3.51322">
        <ele>48</ele>
        <time>2021-07-01T15:20:19.000Z</time>
      </trkpt>
      <trkpt lat="43.28644" lon="3.51338">
        <ele>48</ele>
        <time>2021-07-01T15:20:25.000Z</time>
      </trkpt>
      <trkpt lat="43.28648" lon="3.5135">
        <ele>47</ele>
        <time>2021-07-01T15:20:30.000Z</time>
      </trkpt>
      <trkpt lat="43.28657" lon="3.51356">
        <ele>48</ele>
        <time>2021-07-01T15:20:36.000Z</time>
      </trkpt>
      <trkpt lat="43.28658" lon="3.51369">
        <ele>44</ele>
        <time>2021-07-01T15:21:28.000Z</time>
      </trkpt>
      <trkpt lat="43.28653" lon="3.51381">
        <ele>46</ele>
        <time>2021-07-01T15:22:45.000Z</time>
      </trkpt>
      <trkpt lat="43.28647" lon="3.51391">
        <ele>50</ele>
        <time>2021-07-01T15:22:51.000Z</time>
      </trkpt>
      <trkpt lat="43.28643" lon="3.51405">
        <ele>49</ele>
        <time>2021-07-01T15:22:54.000Z</time>
      </trkpt>
      <trkpt lat="43.28641" lon="3.51423">
        <ele>50</ele>
        <time>2021-07-01T15:22:59.000Z</time>
      </trkpt>
      <trkpt lat="43.28642" lon="3.51436">
        <ele>51</ele>
        <time>2021-07-01T15:23:03.000Z</time>
      </trkpt>
      <trkpt lat="43.28645" lon="3.51448">
        <ele>52</ele>
        <time>2021-07-01T15:23:06.000Z</time>
      </trkpt>
      <trkpt lat="43.2865" lon="3.51463">
        <ele>50</ele>
        <time>2021-07-01T15:23:09.000Z</time>
      </trkpt>
      <trkpt lat="43.28656" lon="3.51473">
        <ele>51</ele>
        <time>2021-07-01T15:23:14.000Z</time>
      </trkpt>
      <trkpt lat="43.28665" lon="3.51474">
        <ele>52</ele>
        <time>2021-07-01T15:23:17.000Z</time>
      </trkpt>
      <trkpt lat="43.28677" lon="3.5147">
        <ele>50</ele>
        <time>2021-07-01T15:23:21.000Z</time>
      </trkpt>
      <trkpt lat="43.2869" lon="3.51468">
        <ele>50</ele>
        <time>2021-07-01T15:23:25.000Z</time>
      </trkpt>
      <trkpt lat="43.28701" lon="3.51468">
        <ele>51</ele>
        <time>2021-07-01T15:23:28.000Z</time>
      </trkpt>
      <trkpt lat="43.2871" lon="3.51468">
        <ele>52</ele>
        <time>2021-07-01T15:23:31.000Z</time>
      </trkpt>
      <trkpt lat="43.28721" lon="3.51472">
        <ele>50</ele>
        <time>2021-07-01T15:23:34.000Z</time>
      </trkpt>
      <trkpt lat="43.2873" lon="3.51475">
        <ele>50</ele>
        <time>2021-07-01T15:23:37.000Z</time>
      </trkpt>
      <trkpt lat="43.28745" lon="3.51478">
        <ele>51</ele>
        <time>2021-07-01T15:23:41.000Z</time>
      </trkpt>
      <trkpt lat="43.28756" lon="3.51484">
        <ele>49</ele>
        <time>2021-07-01T15:23:44.000Z</time>
      </trkpt>
      <trkpt lat="43.28765" lon="3.51489">
        <ele>51</ele>
        <time>2021-07-01T15:23:47.000Z</time>
      </trkpt>
      <trkpt lat="43.28775" lon="3.51489">
        <ele>53</ele>
        <time>2021-07-01T15:23:50.000Z</time>
      </trkpt>
      <trkpt lat="43.28786" lon="3.51487">
        <ele>51</ele>
        <time>2021-07-01T15:23:54.000Z</time>
      </trkpt>
      <trkpt lat="43.28795" lon="3.51481">
        <ele>52</ele>
        <time>2021-07-01T15:23:58.000Z</time>
      </trkpt>
      <trkpt lat="43.28805" lon="3.51481">
        <ele>51</ele>
        <time>2021-07-01T15:24:02.000Z</time>
      </trkpt>
      <trkpt lat="43.28816" lon="3.51487">
        <ele>52</ele>
        <time>2021-07-01T15:24:07.000Z</time>
      </trkpt>
      <trkpt lat="43.28829" lon="3.51492">
        <ele>50</ele>
        <time>2021-07-01T15:24:10.000Z</time>
      </trkpt>
      <trkpt lat="43.28838" lon="3.51497">
        <ele>50</ele>
        <time>2021-07-01T15:24:13.000Z</time>
      </trkpt>
      <trkpt lat="43.28846" lon="3.51507">
        <ele>52</ele>
        <time>2021-07-01T15:24:16.000Z</time>
      </trkpt>
      <trkpt lat="43.28858" lon="3.51515">
        <ele>51</ele>
        <time>2021-07-01T15:24:20.000Z</time>
      </trkpt>
      <trkpt lat="43.28869" lon="3.51526">
        <ele>52</ele>
        <time>2021-07-01T15:24:24.000Z</time>
      </trkpt>
      <trkpt lat="43.28877" lon="3.51536">
        <ele>53</ele>
        <time>2021-07-01T15:24:27.000Z</time>
      </trkpt>
      <trkpt lat="43.28884" lon="3.51546">
        <ele>53</ele>
        <time>2021-07-01T15:24:30.000Z</time>
      </trkpt>
      <trkpt lat="43.2889" lon="3.51556">
        <ele>54</ele>
        <time>2021-07-01T15:24:33.000Z</time>
      </trkpt>
      <trkpt lat="43.28897" lon="3.51563">
        <ele>50</ele>
        <time>2021-07-01T15:24:37.000Z</time>
      </trkpt>
      <trkpt lat="43.28906" lon="3.5156">
        <ele>52</ele>
        <time>2021-07-01T15:24:40.000Z</time>
      </trkpt>
      <trkpt lat="43.28916" lon="3.51557">
        <ele>51</ele>
        <time>2021-07-01T15:24:43.000Z</time>
      </trkpt>
      <trkpt lat="43.28927" lon="3.51551">
        <ele>52</ele>
        <time>2021-07-01T15:24:47.000Z</time>
      </trkpt>
      <trkpt lat="43.28939" lon="3.51551">
        <ele>53</ele>
        <time>2021-07-01T15:24:49.000Z</time>
      </trkpt>
      <trkpt lat="43.2895" lon="3.51547">
        <ele>52</ele>
        <time>2021-07-01T15:24:52.000Z</time>
      </trkpt>
      <trkpt lat="43.28961" lon="3.51544">
        <ele>53</ele>
        <time>2021-07-01T15:24:55.000Z</time>
      </trkpt>
      <trkpt lat="43.28977" lon="3.51537">
        <ele>54</ele>
        <time>2021-07-01T15:24:59.000Z</time>
      </trkpt>
      <trkpt lat="43.28987" lon="3.51532">
        <ele>52</ele>
        <time>2021-07-01T15:25:02.000Z</time>
      </trkpt>
      <trkpt lat="43.28997" lon="3.51528">
        <ele>52</ele>
        <time>2021-07-01T15:25:04.000Z</time>
      </trkpt>
      <trkpt lat="43.29007" lon="3.51522">
        <ele>52</ele>
        <time>2021-07-01T15:25:06.000Z</time>
      </trkpt>
      <trkpt lat="43.29016" lon="3.51517">
        <ele>52</ele>
        <time>2021-07-01T15:25:08.000Z</time>
      </trkpt>
      <trkpt lat="43.29025" lon="3.51512">
        <ele>52</ele>
        <time>2021-07-01T15:25:10.000Z</time>
      </trkpt>
      <trkpt lat="43.29033" lon="3.51508">
        <ele>52</ele>
        <time>2021-07-01T15:25:12.000Z</time>
      </trkpt>
      <trkpt lat="43.29043" lon="3.51504">
        <ele>52</ele>
        <time>2021-07-01T15:25:14.000Z</time>
      </trkpt>
      <trkpt lat="43.29058" lon="3.51503">
        <ele>52</ele>
        <time>2021-07-01T15:25:17.000Z</time>
      </trkpt>
      <trkpt lat="43.29067" lon="3.51511">
        <ele>51</ele>
        <time>2021-07-01T15:25:19.000Z</time>
      </trkpt>
      <trkpt lat="43.29071" lon="3.51523">
        <ele>51</ele>
        <time>2021-07-01T15:25:21.000Z</time>
      </trkpt>
      <trkpt lat="43.29077" lon="3.51532">
        <ele>52</ele>
        <time>2021-07-01T15:25:24.000Z</time>
      </trkpt>
      <trkpt lat="43.29067" lon="3.51524">
        <ele>49</ele>
        <time>2021-07-01T15:26:08.000Z</time>
      </trkpt>
      <trkpt lat="43.29061" lon="3.5151">
        <ele>49</ele>
        <time>2021-07-01T15:26:12.000Z</time>
      </trkpt>
      <trkpt lat="43.29053" lon="3.51502">
        <ele>52</ele>
        <time>2021-07-01T15:26:16.000Z</time>
      </trkpt>
      <trkpt lat="43.29042" lon="3.51502">
        <ele>52</ele>
        <time>2021-07-01T15:26:22.000Z</time>
      </trkpt>
      <trkpt lat="43.2903" lon="3.51509">
        <ele>54</ele>
        <time>2021-07-01T15:26:27.000Z</time>
      </trkpt>
      <trkpt lat="43.29018" lon="3.51513">
        <ele>55</ele>
        <time>2021-07-01T15:26:31.000Z</time>
      </trkpt>
      <trkpt lat="43.29009" lon="3.5152">
        <ele>54</ele>
        <time>2021-07-01T15:26:34.000Z</time>
      </trkpt>
      <trkpt lat="43.29001" lon="3.51528">
        <ele>55</ele>
        <time>2021-07-01T15:26:37.000Z</time>
      </trkpt>
      <trkpt lat="43.28993" lon="3.51535">
        <ele>56</ele>
        <time>2021-07-01T15:26:40.000Z</time>
      </trkpt>
      <trkpt lat="43.28984" lon="3.51538">
        <ele>57</ele>
        <time>2021-07-01T15:26:43.000Z</time>
      </trkpt>
      <trkpt lat="43.28974" lon="3.51542">
        <ele>58</ele>
        <time>2021-07-01T15:26:46.000Z</time>
      </trkpt>
      <trkpt lat="43.28965" lon="3.51546">
        <ele>58</ele>
        <time>2021-07-01T15:26:49.000Z</time>
      </trkpt>
      <trkpt lat="43.28955" lon="3.5155">
        <ele>55</ele>
        <time>2021-07-01T15:26:53.000Z</time>
      </trkpt>
      <trkpt lat="43.28946" lon="3.51553">
        <ele>56</ele>
        <time>2021-07-01T15:26:56.000Z</time>
      </trkpt>
      <trkpt lat="43.28933" lon="3.51558">
        <ele>56</ele>
        <time>2021-07-01T15:27:00.000Z</time>
      </trkpt>
      <trkpt lat="43.28921" lon="3.51561">
        <ele>57</ele>
        <time>2021-07-01T15:27:04.000Z</time>
      </trkpt>
      <trkpt lat="43.28911" lon="3.51564">
        <ele>57</ele>
        <time>2021-07-01T15:27:08.000Z</time>
      </trkpt>
      <trkpt lat="43.28902" lon="3.51567">
        <ele>58</ele>
        <time>2021-07-01T15:27:12.000Z</time>
      </trkpt>
      <trkpt lat="43.28892" lon="3.51569">
        <ele>58</ele>
        <time>2021-07-01T15:27:17.000Z</time>
      </trkpt>
      <trkpt lat="43.28908" lon="3.51562">
        <ele>58</ele>
        <time>2021-07-01T15:27:43.000Z</time>
      </trkpt>
      <trkpt lat="43.28919" lon="3.51559">
        <ele>57</ele>
        <time>2021-07-01T15:27:45.000Z</time>
      </trkpt>
      <trkpt lat="43.28931" lon="3.51555">
        <ele>56</ele>
        <time>2021-07-01T15:27:47.000Z</time>
      </trkpt>
      <trkpt lat="43.28944" lon="3.51549">
        <ele>57</ele>
        <time>2021-07-01T15:27:49.000Z</time>
      </trkpt>
      <trkpt lat="43.28971" lon="3.51538">
        <ele>59</ele>
        <time>2021-07-01T15:27:53.000Z</time>
      </trkpt>
      <trkpt lat="43.28986" lon="3.5153">
        <ele>58</ele>
        <time>2021-07-01T15:27:55.000Z</time>
      </trkpt>
      <trkpt lat="43.29" lon="3.51522">
        <ele>57</ele>
        <time>2021-07-01T15:27:57.000Z</time>
      </trkpt>
      <trkpt lat="43.29014" lon="3.51513">
        <ele>55</ele>
        <time>2021-07-01T15:27:59.000Z</time>
      </trkpt>
      <trkpt lat="43.2903" lon="3.51505">
        <ele>54</ele>
        <time>2021-07-01T15:28:01.000Z</time>
      </trkpt>
      <trkpt lat="43.29046" lon="3.51499">
        <ele>54</ele>
        <time>2021-07-01T15:28:03.000Z</time>
      </trkpt>
      <trkpt lat="43.29062" lon="3.515">
        <ele>53</ele>
        <time>2021-07-01T15:28:05.000Z</time>
      </trkpt>
      <trkpt lat="43.29082" lon="3.51513">
        <ele>54</ele>
        <time>2021-07-01T15:28:08.000Z</time>
      </trkpt>
      <trkpt lat="43.29096" lon="3.5152">
        <ele>53</ele>
        <time>2021-07-01T15:28:10.000Z</time>
      </trkpt>
      <trkpt lat="43.29111" lon="3.51519">
        <ele>53</ele>
        <time>2021-07-01T15:28:12.000Z</time>
      </trkpt>
      <trkpt lat="43.29123" lon="3.51509">
        <ele>53</ele>
        <time>2021-07-01T15:28:14.000Z</time>
      </trkpt>
      <trkpt lat="43.29131" lon="3.51483">
        <ele>53</ele>
        <time>2021-07-01T15:28:17.000Z</time>
      </trkpt>
      <trkpt lat="43.29129" lon="3.51463">
        <ele>53</ele>
        <time>2021-07-01T15:28:19.000Z</time>
      </trkpt>
      <trkpt lat="43.29124" lon="3.51445">
        <ele>53</ele>
        <time>2021-07-01T15:28:21.000Z</time>
      </trkpt>
      <trkpt lat="43.29116" lon="3.51429">
        <ele>53</ele>
        <time>2021-07-01T15:28:23.000Z</time>
      </trkpt>
      <trkpt lat="43.29108" lon="3.51416">
        <ele>52</ele>
        <time>2021-07-01T15:28:25.000Z</time>
      </trkpt>
      <trkpt lat="43.29098" lon="3.51404">
        <ele>52</ele>
        <time>2021-07-01T15:28:27.000Z</time>
      </trkpt>
      <trkpt lat="43.29087" lon="3.51392">
        <ele>54</ele>
        <time>2021-07-01T15:28:29.000Z</time>
      </trkpt>
      <trkpt lat="43.29077" lon="3.51381">
        <ele>54</ele>
        <time>2021-07-01T15:28:31.000Z</time>
      </trkpt>
      <trkpt lat="43.29067" lon="3.51369">
        <ele>54</ele>
        <time>2021-07-01T15:28:33.000Z</time>
      </trkpt>
      <trkpt lat="43.29058" lon="3.51357">
        <ele>54</ele>
        <time>2021-07-01T15:28:35.000Z</time>
      </trkpt>
      <trkpt lat="43.29051" lon="3.51344">
        <ele>54</ele>
        <time>2021-07-01T15:28:37.000Z</time>
      </trkpt>
      <trkpt lat="43.29045" lon="3.5133">
        <ele>53</ele>
        <time>2021-07-01T15:28:39.000Z</time>
      </trkpt>
      <trkpt lat="43.2904" lon="3.51315">
        <ele>53</ele>
        <time>2021-07-01T15:28:41.000Z</time>
      </trkpt>
      <trkpt lat="43.29032" lon="3.51292">
        <ele>53</ele>
        <time>2021-07-01T15:28:44.000Z</time>
      </trkpt>
      <trkpt lat="43.29028" lon="3.51278">
        <ele>53</ele>
        <time>2021-07-01T15:28:46.000Z</time>
      </trkpt>
      <trkpt lat="43.29023" lon="3.51265">
        <ele>53</ele>
        <time>2021-07-01T15:28:48.000Z</time>
      </trkpt>
      <trkpt lat="43.29016" lon="3.51243">
        <ele>53</ele>
        <time>2021-07-01T15:28:51.000Z</time>
      </trkpt>
      <trkpt lat="43.29011" lon="3.51226">
        <ele>54</ele>
        <time>2021-07-01T15:28:53.000Z</time>
      </trkpt>
      <trkpt lat="43.29007" lon="3.51212">
        <ele>54</ele>
        <time>2021-07-01T15:28:55.000Z</time>
      </trkpt>
      <trkpt lat="43.29003" lon="3.512">
        <ele>53</ele>
        <time>2021-07-01T15:28:57.000Z</time>
      </trkpt>
      <trkpt lat="43.28996" lon="3.51179">
        <ele>52</ele>
        <time>2021-07-01T15:29:00.000Z</time>
      </trkpt>
      <trkpt lat="43.28991" lon="3.51166">
        <ele>53</ele>
        <time>2021-07-01T15:29:02.000Z</time>
      </trkpt>
      <trkpt lat="43.28986" lon="3.51154">
        <ele>52</ele>
        <time>2021-07-01T15:29:04.000Z</time>
      </trkpt>
      <trkpt lat="43.28982" lon="3.51141">
        <ele>53</ele>
        <time>2021-07-01T15:29:06.000Z</time>
      </trkpt>
      <trkpt lat="43.28976" lon="3.51128">
        <ele>53</ele>
        <time>2021-07-01T15:29:08.000Z</time>
      </trkpt>
      <trkpt lat="43.28971" lon="3.51116">
        <ele>54</ele>
        <time>2021-07-01T15:29:10.000Z</time>
      </trkpt>
      <trkpt lat="43.28966" lon="3.51103">
        <ele>54</ele>
        <time>2021-07-01T15:29:12.000Z</time>
      </trkpt>
      <trkpt lat="43.28961" lon="3.5109">
        <ele>53</ele>
        <time>2021-07-01T15:29:14.000Z</time>
      </trkpt>
      <trkpt lat="43.28955" lon="3.51077">
        <ele>53</ele>
        <time>2021-07-01T15:29:16.000Z</time>
      </trkpt>
      <trkpt lat="43.28948" lon="3.5106">
        <ele>53</ele>
        <time>2021-07-01T15:29:19.000Z</time>
      </trkpt>
      <trkpt lat="43.28943" lon="3.51049">
        <ele>53</ele>
        <time>2021-07-01T15:29:21.000Z</time>
      </trkpt>
      <trkpt lat="43.28936" lon="3.51035">
        <ele>54</ele>
        <time>2021-07-01T15:29:24.000Z</time>
      </trkpt>
      <trkpt lat="43.2893" lon="3.51026">
        <ele>54</ele>
        <time>2021-07-01T15:29:27.000Z</time>
      </trkpt>
      <trkpt lat="43.28924" lon="3.51016">
        <ele>55</ele>
        <time>2021-07-01T15:29:32.000Z</time>
      </trkpt>
      <trkpt lat="43.28919" lon="3.50996">
        <ele>55</ele>
        <time>2021-07-01T15:29:36.000Z</time>
      </trkpt>
      <trkpt lat="43.2892" lon="3.50983">
        <ele>54</ele>
        <time>2021-07-01T15:29:38.000Z</time>
      </trkpt>
      <trkpt lat="43.28923" lon="3.50969">
        <ele>54</ele>
        <time>2021-07-01T15:29:40.000Z</time>
      </trkpt>
      <trkpt lat="43.28925" lon="3.50956">
        <ele>53</ele>
        <time>2021-07-01T15:29:42.000Z</time>
      </trkpt>
      <trkpt lat="43.28927" lon="3.50937">
        <ele>53</ele>
        <time>2021-07-01T15:29:45.000Z</time>
      </trkpt>
      <trkpt lat="43.28928" lon="3.50923">
        <ele>53</ele>
        <time>2021-07-01T15:29:47.000Z</time>
      </trkpt>
      <trkpt lat="43.28928" lon="3.50909">
        <ele>53</ele>
        <time>2021-07-01T15:29:49.000Z</time>
      </trkpt>
      <trkpt lat="43.28928" lon="3.50895">
        <ele>53</ele>
        <time>2021-07-01T15:29:51.000Z</time>
      </trkpt>
      <trkpt lat="43.28928" lon="3.50876">
        <ele>53</ele>
        <time>2021-07-01T15:29:54.000Z</time>
      </trkpt>
      <trkpt lat="43.28927" lon="3.50862">
        <ele>53</ele>
        <time>2021-07-01T15:29:56.000Z</time>
      </trkpt>
      <trkpt lat="43.28926" lon="3.50848">
        <ele>53</ele>
        <time>2021-07-01T15:29:58.000Z</time>
      </trkpt>
      <trkpt lat="43.28924" lon="3.50834">
        <ele>53</ele>
        <time>2021-07-01T15:30:00.000Z</time>
      </trkpt>
      <trkpt lat="43.28924" lon="3.5082">
        <ele>53</ele>
        <time>2021-07-01T15:30:02.000Z</time>
      </trkpt>
      <trkpt lat="43.28924" lon="3.50806">
        <ele>53</ele>
        <time>2021-07-01T15:30:04.000Z</time>
      </trkpt>
      <trkpt lat="43.28927" lon="3.50793">
        <ele>53</ele>
        <time>2021-07-01T15:30:06.000Z</time>
      </trkpt>
      <trkpt lat="43.2893" lon="3.50779">
        <ele>54</ele>
        <time>2021-07-01T15:30:08.000Z</time>
      </trkpt>
      <trkpt lat="43.28938" lon="3.50761">
        <ele>54</ele>
        <time>2021-07-01T15:30:11.000Z</time>
      </trkpt>
      <trkpt lat="43.28943" lon="3.50749">
        <ele>55</ele>
        <time>2021-07-01T15:30:13.000Z</time>
      </trkpt>
      <trkpt lat="43.28951" lon="3.5074">
        <ele>56</ele>
        <time>2021-07-01T15:30:15.000Z</time>
      </trkpt>
      <trkpt lat="43.28961" lon="3.50732">
        <ele>57</ele>
        <time>2021-07-01T15:30:17.000Z</time>
      </trkpt>
      <trkpt lat="43.28969" lon="3.50726">
        <ele>57</ele>
        <time>2021-07-01T15:30:19.000Z</time>
      </trkpt>
      <trkpt lat="43.28978" lon="3.5072">
        <ele>57</ele>
        <time>2021-07-01T15:30:21.000Z</time>
      </trkpt>
      <trkpt lat="43.28988" lon="3.50716">
        <ele>58</ele>
        <time>2021-07-01T15:30:23.000Z</time>
      </trkpt>
      <trkpt lat="43.28998" lon="3.50715">
        <ele>58</ele>
        <time>2021-07-01T15:30:25.000Z</time>
      </trkpt>
      <trkpt lat="43.29008" lon="3.50712">
        <ele>59</ele>
        <time>2021-07-01T15:30:27.000Z</time>
      </trkpt>
      <trkpt lat="43.29017" lon="3.50709">
        <ele>59</ele>
        <time>2021-07-01T15:30:29.000Z</time>
      </trkpt>
      <trkpt lat="43.29027" lon="3.50706">
        <ele>59</ele>
        <time>2021-07-01T15:30:31.000Z</time>
      </trkpt>
      <trkpt lat="43.29042" lon="3.507">
        <ele>60</ele>
        <time>2021-07-01T15:30:34.000Z</time>
      </trkpt>
      <trkpt lat="43.29052" lon="3.50696">
        <ele>59</ele>
        <time>2021-07-01T15:30:36.000Z</time>
      </trkpt>
      <trkpt lat="43.29062" lon="3.50692">
        <ele>60</ele>
        <time>2021-07-01T15:30:38.000Z</time>
      </trkpt>
      <trkpt lat="43.29072" lon="3.50688">
        <ele>60</ele>
        <time>2021-07-01T15:30:40.000Z</time>
      </trkpt>
      <trkpt lat="43.29082" lon="3.50684">
        <ele>60</ele>
        <time>2021-07-01T15:30:42.000Z</time>
      </trkpt>
      <trkpt lat="43.29091" lon="3.50679">
        <ele>60</ele>
        <time>2021-07-01T15:30:44.000Z</time>
      </trkpt>
      <trkpt lat="43.29101" lon="3.50675">
        <ele>60</ele>
        <time>2021-07-01T15:30:46.000Z</time>
      </trkpt>
      <trkpt lat="43.29111" lon="3.50669">
        <ele>60</ele>
        <time>2021-07-01T15:30:48.000Z</time>
      </trkpt>
      <trkpt lat="43.29121" lon="3.50665">
        <ele>61</ele>
        <time>2021-07-01T15:30:50.000Z</time>
      </trkpt>
      <trkpt lat="43.29136" lon="3.50657">
        <ele>61</ele>
        <time>2021-07-01T15:30:53.000Z</time>
      </trkpt>
      <trkpt lat="43.29146" lon="3.50653">
        <ele>60</ele>
        <time>2021-07-01T15:30:55.000Z</time>
      </trkpt>
      <trkpt lat="43.29156" lon="3.50647">
        <ele>61</ele>
        <time>2021-07-01T15:30:57.000Z</time>
      </trkpt>
      <trkpt lat="43.29166" lon="3.50641">
        <ele>61</ele>
        <time>2021-07-01T15:30:59.000Z</time>
      </trkpt>
      <trkpt lat="43.29175" lon="3.50633">
        <ele>60</ele>
        <time>2021-07-01T15:31:01.000Z</time>
      </trkpt>
      <trkpt lat="43.29184" lon="3.50623">
        <ele>60</ele>
        <time>2021-07-01T15:31:03.000Z</time>
      </trkpt>
      <trkpt lat="43.29193" lon="3.50619">
        <ele>60</ele>
        <time>2021-07-01T15:31:05.000Z</time>
      </trkpt>
      <trkpt lat="43.29205" lon="3.50613">
        <ele>60</ele>
        <time>2021-07-01T15:31:08.000Z</time>
      </trkpt>
      <trkpt lat="43.29214" lon="3.50608">
        <ele>60</ele>
        <time>2021-07-01T15:31:11.000Z</time>
      </trkpt>
      <trkpt lat="43.29222" lon="3.50601">
        <ele>59</ele>
        <time>2021-07-01T15:31:29.000Z</time>
      </trkpt>
      <trkpt lat="43.29232" lon="3.50605">
        <ele>63</ele>
        <time>2021-07-01T15:31:44.000Z</time>
      </trkpt>
      <trkpt lat="43.29242" lon="3.50602">
        <ele>64</ele>
        <time>2021-07-01T15:32:06.000Z</time>
      </trkpt>
      <trkpt lat="43.29253" lon="3.50597">
        <ele>65</ele>
        <time>2021-07-01T15:32:13.000Z</time>
      </trkpt>
      <trkpt lat="43.29263" lon="3.50593">
        <ele>65</ele>
        <time>2021-07-01T15:32:16.000Z</time>
      </trkpt>
      <trkpt lat="43.29274" lon="3.50591">
        <ele>65</ele>
        <time>2021-07-01T15:32:19.000Z</time>
      </trkpt>
      <trkpt lat="43.29285" lon="3.50588">
        <ele>65</ele>
        <time>2021-07-01T15:32:22.000Z</time>
      </trkpt>
      <trkpt lat="43.29299" lon="3.50589">
        <ele>65</ele>
        <time>2021-07-01T15:32:26.000Z</time>
      </trkpt>
      <trkpt lat="43.29309" lon="3.5059">
        <ele>65</ele>
        <time>2021-07-01T15:32:29.000Z</time>
      </trkpt>
      <trkpt lat="43.29318" lon="3.50591">
        <ele>65</ele>
        <time>2021-07-01T15:32:32.000Z</time>
      </trkpt>
      <trkpt lat="43.29331" lon="3.506">
        <ele>65</ele>
        <time>2021-07-01T15:32:37.000Z</time>
      </trkpt>
      <trkpt lat="43.29341" lon="3.50602">
        <ele>67</ele>
        <time>2021-07-01T15:32:41.000Z</time>
      </trkpt>
      <trkpt lat="43.29351" lon="3.506">
        <ele>67</ele>
        <time>2021-07-01T15:32:44.000Z</time>
      </trkpt>
      <trkpt lat="43.29359" lon="3.50594">
        <ele>67</ele>
        <time>2021-07-01T15:32:47.000Z</time>
      </trkpt>
      <trkpt lat="43.29369" lon="3.50591">
        <ele>67</ele>
        <time>2021-07-01T15:32:50.000Z</time>
      </trkpt>
      <trkpt lat="43.29384" lon="3.5059">
        <ele>67</ele>
        <time>2021-07-01T15:32:54.000Z</time>
      </trkpt>
      <trkpt lat="43.29395" lon="3.5059">
        <ele>69</ele>
        <time>2021-07-01T15:32:57.000Z</time>
      </trkpt>
      <trkpt lat="43.2941" lon="3.50595">
        <ele>70</ele>
        <time>2021-07-01T15:33:01.000Z</time>
      </trkpt>
      <trkpt lat="43.29419" lon="3.506">
        <ele>70</ele>
        <time>2021-07-01T15:33:04.000Z</time>
      </trkpt>
      <trkpt lat="43.29429" lon="3.50608">
        <ele>72</ele>
        <time>2021-07-01T15:33:07.000Z</time>
      </trkpt>
      <trkpt lat="43.29438" lon="3.5062">
        <ele>69</ele>
        <time>2021-07-01T15:33:10.000Z</time>
      </trkpt>
      <trkpt lat="43.29446" lon="3.50634">
        <ele>70</ele>
        <time>2021-07-01T15:33:13.000Z</time>
      </trkpt>
      <trkpt lat="43.29453" lon="3.50644">
        <ele>72</ele>
        <time>2021-07-01T15:33:15.000Z</time>
      </trkpt>
      <trkpt lat="43.29469" lon="3.50663">
        <ele>71</ele>
        <time>2021-07-01T15:33:19.000Z</time>
      </trkpt>
      <trkpt lat="43.29475" lon="3.50672">
        <ele>72</ele>
        <time>2021-07-01T15:33:21.000Z</time>
      </trkpt>
      <trkpt lat="43.29482" lon="3.50682">
        <ele>72</ele>
        <time>2021-07-01T15:33:23.000Z</time>
      </trkpt>
      <trkpt lat="43.29492" lon="3.50696">
        <ele>73</ele>
        <time>2021-07-01T15:33:26.000Z</time>
      </trkpt>
      <trkpt lat="43.29502" lon="3.50708">
        <ele>73</ele>
        <time>2021-07-01T15:33:29.000Z</time>
      </trkpt>
      <trkpt lat="43.29509" lon="3.50717">
        <ele>73</ele>
        <time>2021-07-01T15:33:31.000Z</time>
      </trkpt>
      <trkpt lat="43.29516" lon="3.50727">
        <ele>73</ele>
        <time>2021-07-01T15:33:33.000Z</time>
      </trkpt>
      <trkpt lat="43.29523" lon="3.50735">
        <ele>74</ele>
        <time>2021-07-01T15:33:35.000Z</time>
      </trkpt>
      <trkpt lat="43.29529" lon="3.50743">
        <ele>74</ele>
        <time>2021-07-01T15:33:37.000Z</time>
      </trkpt>
      <trkpt lat="43.29537" lon="3.5075">
        <ele>75</ele>
        <time>2021-07-01T15:33:39.000Z</time>
      </trkpt>
      <trkpt lat="43.29545" lon="3.50757">
        <ele>75</ele>
        <time>2021-07-01T15:33:41.000Z</time>
      </trkpt>
      <trkpt lat="43.29553" lon="3.50763">
        <ele>75</ele>
        <time>2021-07-01T15:33:43.000Z</time>
      </trkpt>
      <trkpt lat="43.29563" lon="3.50772">
        <ele>76</ele>
        <time>2021-07-01T15:33:46.000Z</time>
      </trkpt>
      <trkpt lat="43.29573" lon="3.50781">
        <ele>75</ele>
        <time>2021-07-01T15:33:49.000Z</time>
      </trkpt>
      <trkpt lat="43.29587" lon="3.50794">
        <ele>75</ele>
        <time>2021-07-01T15:33:53.000Z</time>
      </trkpt>
      <trkpt lat="43.29598" lon="3.50803">
        <ele>75</ele>
        <time>2021-07-01T15:33:56.000Z</time>
      </trkpt>
      <trkpt lat="43.29608" lon="3.50809">
        <ele>75</ele>
        <time>2021-07-01T15:33:59.000Z</time>
      </trkpt>
      <trkpt lat="43.29615" lon="3.50818">
        <ele>74</ele>
        <time>2021-07-01T15:34:14.000Z</time>
      </trkpt>
      <trkpt lat="43.29624" lon="3.50823">
        <ele>74</ele>
        <time>2021-07-01T15:34:18.000Z</time>
      </trkpt>
      <trkpt lat="43.29632" lon="3.50827">
        <ele>73</ele>
        <time>2021-07-01T15:34:52.000Z</time>
      </trkpt>
      <trkpt lat="43.29641" lon="3.5083">
        <ele>73</ele>
        <time>2021-07-01T15:34:55.000Z</time>
      </trkpt>
      <trkpt lat="43.2965" lon="3.50833">
        <ele>73</ele>
        <time>2021-07-01T15:34:58.000Z</time>
      </trkpt>
      <trkpt lat="43.2966" lon="3.50835">
        <ele>73</ele>
        <time>2021-07-01T15:35:01.000Z</time>
      </trkpt>
      <trkpt lat="43.29672" lon="3.50837">
        <ele>72</ele>
        <time>2021-07-01T15:35:04.000Z</time>
      </trkpt>
      <trkpt lat="43.29684" lon="3.50839">
        <ele>71</ele>
        <time>2021-07-01T15:35:07.000Z</time>
      </trkpt>
      <trkpt lat="43.29697" lon="3.50841">
        <ele>72</ele>
        <time>2021-07-01T15:35:10.000Z</time>
      </trkpt>
      <trkpt lat="43.29707" lon="3.50852">
        <ele>72</ele>
        <time>2021-07-01T15:35:13.000Z</time>
      </trkpt>
      <trkpt lat="43.29707" lon="3.50864">
        <ele>71</ele>
        <time>2021-07-01T15:35:15.000Z</time>
      </trkpt>
      <trkpt lat="43.29711" lon="3.50882">
        <ele>70</ele>
        <time>2021-07-01T15:35:18.000Z</time>
      </trkpt>
      <trkpt lat="43.29713" lon="3.50898">
        <ele>69</ele>
        <time>2021-07-01T15:35:21.000Z</time>
      </trkpt>
      <trkpt lat="43.29715" lon="3.50913">
        <ele>68</ele>
        <time>2021-07-01T15:35:24.000Z</time>
      </trkpt>
      <trkpt lat="43.29719" lon="3.50928">
        <ele>68</ele>
        <time>2021-07-01T15:35:27.000Z</time>
      </trkpt>
      <trkpt lat="43.29731" lon="3.5093">
        <ele>68</ele>
        <time>2021-07-01T15:35:30.000Z</time>
      </trkpt>
      <trkpt lat="43.29743" lon="3.50928">
        <ele>68</ele>
        <time>2021-07-01T15:35:33.000Z</time>
      </trkpt>
      <trkpt lat="43.29755" lon="3.50928">
        <ele>68</ele>
        <time>2021-07-01T15:35:36.000Z</time>
      </trkpt>
      <trkpt lat="43.29767" lon="3.50929">
        <ele>68</ele>
        <time>2021-07-01T15:35:39.000Z</time>
      </trkpt>
      <trkpt lat="43.29779" lon="3.50933">
        <ele>69</ele>
        <time>2021-07-01T15:35:42.000Z</time>
      </trkpt>
      <trkpt lat="43.29788" lon="3.50946">
        <ele>67</ele>
        <time>2021-07-01T15:35:45.000Z</time>
      </trkpt>
      <trkpt lat="43.29795" lon="3.5096">
        <ele>67</ele>
        <time>2021-07-01T15:35:48.000Z</time>
      </trkpt>
      <trkpt lat="43.29801" lon="3.50975">
        <ele>66</ele>
        <time>2021-07-01T15:35:51.000Z</time>
      </trkpt>
      <trkpt lat="43.29809" lon="3.50982">
        <ele>66</ele>
        <time>2021-07-01T15:35:53.000Z</time>
      </trkpt>
      <trkpt lat="43.29822" lon="3.50987">
        <ele>66</ele>
        <time>2021-07-01T15:35:56.000Z</time>
      </trkpt>
      <trkpt lat="43.29831" lon="3.50987">
        <ele>66</ele>
        <time>2021-07-01T15:35:58.000Z</time>
      </trkpt>
      <trkpt lat="43.29845" lon="3.50988">
        <ele>66</ele>
        <time>2021-07-01T15:36:01.000Z</time>
      </trkpt>
      <trkpt lat="43.29856" lon="3.50986">
        <ele>66</ele>
        <time>2021-07-01T15:36:04.000Z</time>
      </trkpt>
      <trkpt lat="43.2987" lon="3.50983">
        <ele>66</ele>
        <time>2021-07-01T15:36:07.000Z</time>
      </trkpt>
      <trkpt lat="43.29882" lon="3.50976">
        <ele>66</ele>
        <time>2021-07-01T15:36:10.000Z</time>
      </trkpt>
      <trkpt lat="43.29895" lon="3.50974">
        <ele>66</ele>
        <time>2021-07-01T15:36:13.000Z</time>
      </trkpt>
      <trkpt lat="43.29907" lon="3.50972">
        <ele>67</ele>
        <time>2021-07-01T15:36:16.000Z</time>
      </trkpt>
      <trkpt lat="43.29915" lon="3.50967">
        <ele>67</ele>
        <time>2021-07-01T15:36:43.000Z</time>
      </trkpt>
      <trkpt lat="43.29924" lon="3.50963">
        <ele>66</ele>
        <time>2021-07-01T15:37:02.000Z</time>
      </trkpt>
      <trkpt lat="43.29934" lon="3.50958">
        <ele>64</ele>
        <time>2021-07-01T15:37:06.000Z</time>
      </trkpt>
      <trkpt lat="43.29945" lon="3.50952">
        <ele>64</ele>
        <time>2021-07-01T15:37:09.000Z</time>
      </trkpt>
      <trkpt lat="43.29955" lon="3.50946">
        <ele>63</ele>
        <time>2021-07-01T15:37:12.000Z</time>
      </trkpt>
      <trkpt lat="43.29964" lon="3.5094">
        <ele>60</ele>
        <time>2021-07-01T15:37:14.000Z</time>
      </trkpt>
      <trkpt lat="43.29976" lon="3.50937">
        <ele>61</ele>
        <time>2021-07-01T15:37:17.000Z</time>
      </trkpt>
      <trkpt lat="43.29988" lon="3.50941">
        <ele>61</ele>
        <time>2021-07-01T15:37:21.000Z</time>
      </trkpt>
      <trkpt lat="43.29992" lon="3.5096">
        <ele>61</ele>
        <time>2021-07-01T15:37:27.000Z</time>
      </trkpt>
      <trkpt lat="43.29996" lon="3.50982">
        <ele>60</ele>
        <time>2021-07-01T15:37:31.000Z</time>
      </trkpt>
      <trkpt lat="43.29998" lon="3.50995">
        <ele>60</ele>
        <time>2021-07-01T15:37:33.000Z</time>
      </trkpt>
      <trkpt lat="43.3" lon="3.51009">
        <ele>60</ele>
        <time>2021-07-01T15:37:35.000Z</time>
      </trkpt>
      <trkpt lat="43.30003" lon="3.51022">
        <ele>59</ele>
        <time>2021-07-01T15:37:37.000Z</time>
      </trkpt>
      <trkpt lat="43.30005" lon="3.51034">
        <ele>58</ele>
        <time>2021-07-01T15:37:39.000Z</time>
      </trkpt>
      <trkpt lat="43.30008" lon="3.51047">
        <ele>58</ele>
        <time>2021-07-01T15:37:41.000Z</time>
      </trkpt>
      <trkpt lat="43.30012" lon="3.5106">
        <ele>58</ele>
        <time>2021-07-01T15:37:43.000Z</time>
      </trkpt>
      <trkpt lat="43.30015" lon="3.51074">
        <ele>56</ele>
        <time>2021-07-01T15:37:45.000Z</time>
      </trkpt>
      <trkpt lat="43.30019" lon="3.5109">
        <ele>55</ele>
        <time>2021-07-01T15:37:47.000Z</time>
      </trkpt>
      <trkpt lat="43.30023" lon="3.51106">
        <ele>54</ele>
        <time>2021-07-01T15:37:49.000Z</time>
      </trkpt>
      <trkpt lat="43.30026" lon="3.51119">
        <ele>55</ele>
        <time>2021-07-01T15:37:51.000Z</time>
      </trkpt>
      <trkpt lat="43.30029" lon="3.51134">
        <ele>54</ele>
        <time>2021-07-01T15:37:53.000Z</time>
      </trkpt>
      <trkpt lat="43.30032" lon="3.51147">
        <ele>54</ele>
        <time>2021-07-01T15:37:55.000Z</time>
      </trkpt>
      <trkpt lat="43.30037" lon="3.51161">
        <ele>53</ele>
        <time>2021-07-01T15:37:58.000Z</time>
      </trkpt>
      <trkpt lat="43.30047" lon="3.5116">
        <ele>53</ele>
        <time>2021-07-01T15:38:01.000Z</time>
      </trkpt>
      <trkpt lat="43.30058" lon="3.51152">
        <ele>54</ele>
        <time>2021-07-01T15:38:04.000Z</time>
      </trkpt>
      <trkpt lat="43.30069" lon="3.51142">
        <ele>54</ele>
        <time>2021-07-01T15:38:07.000Z</time>
      </trkpt>
      <trkpt lat="43.3008" lon="3.51149">
        <ele>53</ele>
        <time>2021-07-01T15:38:10.000Z</time>
      </trkpt>
      <trkpt lat="43.30086" lon="3.51162">
        <ele>52</ele>
        <time>2021-07-01T15:38:13.000Z</time>
      </trkpt>
      <trkpt lat="43.30095" lon="3.51161">
        <ele>52</ele>
        <time>2021-07-01T15:38:16.000Z</time>
      </trkpt>
      <trkpt lat="43.30108" lon="3.51146">
        <ele>50</ele>
        <time>2021-07-01T15:38:20.000Z</time>
      </trkpt>
      <trkpt lat="43.30116" lon="3.51139">
        <ele>50</ele>
        <time>2021-07-01T15:38:22.000Z</time>
      </trkpt>
      <trkpt lat="43.30123" lon="3.51128">
        <ele>51</ele>
        <time>2021-07-01T15:38:24.000Z</time>
      </trkpt>
      <trkpt lat="43.30131" lon="3.51117">
        <ele>52</ele>
        <time>2021-07-01T15:38:26.000Z</time>
      </trkpt>
      <trkpt lat="43.30139" lon="3.51108">
        <ele>52</ele>
        <time>2021-07-01T15:38:28.000Z</time>
      </trkpt>
      <trkpt lat="43.30147" lon="3.511">
        <ele>52</ele>
        <time>2021-07-01T15:38:30.000Z</time>
      </trkpt>
      <trkpt lat="43.30153" lon="3.51092">
        <ele>52</ele>
        <time>2021-07-01T15:38:32.000Z</time>
      </trkpt>
      <trkpt lat="43.30161" lon="3.51083">
        <ele>53</ele>
        <time>2021-07-01T15:38:34.000Z</time>
      </trkpt>
      <trkpt lat="43.30169" lon="3.51074">
        <ele>53</ele>
        <time>2021-07-01T15:38:36.000Z</time>
      </trkpt>
      <trkpt lat="43.30177" lon="3.51065">
        <ele>53</ele>
        <time>2021-07-01T15:38:38.000Z</time>
      </trkpt>
      <trkpt lat="43.30184" lon="3.51056">
        <ele>53</ele>
        <time>2021-07-01T15:38:40.000Z</time>
      </trkpt>
      <trkpt lat="43.30192" lon="3.51047">
        <ele>53</ele>
        <time>2021-07-01T15:38:42.000Z</time>
      </trkpt>
      <trkpt lat="43.302" lon="3.51038">
        <ele>54</ele>
        <time>2021-07-01T15:38:44.000Z</time>
      </trkpt>
      <trkpt lat="43.30213" lon="3.51023">
        <ele>52</ele>
        <time>2021-07-01T15:38:47.000Z</time>
      </trkpt>
      <trkpt lat="43.3022" lon="3.51013">
        <ele>52</ele>
        <time>2021-07-01T15:38:49.000Z</time>
      </trkpt>
      <trkpt lat="43.30227" lon="3.51003">
        <ele>53</ele>
        <time>2021-07-01T15:38:51.000Z</time>
      </trkpt>
      <trkpt lat="43.30238" lon="3.50989">
        <ele>53</ele>
        <time>2021-07-01T15:38:54.000Z</time>
      </trkpt>
      <trkpt lat="43.30246" lon="3.50978">
        <ele>50</ele>
        <time>2021-07-01T15:38:56.000Z</time>
      </trkpt>
      <trkpt lat="43.30254" lon="3.50967">
        <ele>51</ele>
        <time>2021-07-01T15:38:58.000Z</time>
      </trkpt>
      <trkpt lat="43.3026" lon="3.50958">
        <ele>52</ele>
        <time>2021-07-01T15:39:00.000Z</time>
      </trkpt>
      <trkpt lat="43.30269" lon="3.50943">
        <ele>52</ele>
        <time>2021-07-01T15:39:03.000Z</time>
      </trkpt>
      <trkpt lat="43.30279" lon="3.5093">
        <ele>53</ele>
        <time>2021-07-01T15:39:06.000Z</time>
      </trkpt>
      <trkpt lat="43.30286" lon="3.50922">
        <ele>53</ele>
        <time>2021-07-01T15:39:08.000Z</time>
      </trkpt>
      <trkpt lat="43.30293" lon="3.50913">
        <ele>54</ele>
        <time>2021-07-01T15:39:10.000Z</time>
      </trkpt>
      <trkpt lat="43.30299" lon="3.50904">
        <ele>54</ele>
        <time>2021-07-01T15:39:12.000Z</time>
      </trkpt>
      <trkpt lat="43.30305" lon="3.50895">
        <ele>51</ele>
        <time>2021-07-01T15:39:14.000Z</time>
      </trkpt>
      <trkpt lat="43.30312" lon="3.50885">
        <ele>50</ele>
        <time>2021-07-01T15:39:16.000Z</time>
      </trkpt>
      <trkpt lat="43.30318" lon="3.50873">
        <ele>52</ele>
        <time>2021-07-01T15:39:18.000Z</time>
      </trkpt>
      <trkpt lat="43.30323" lon="3.50862">
        <ele>52</ele>
        <time>2021-07-01T15:39:20.000Z</time>
      </trkpt>
      <trkpt lat="43.30329" lon="3.50851">
        <ele>52</ele>
        <time>2021-07-01T15:39:22.000Z</time>
      </trkpt>
      <trkpt lat="43.30336" lon="3.5084">
        <ele>53</ele>
        <time>2021-07-01T15:39:24.000Z</time>
      </trkpt>
      <trkpt lat="43.30343" lon="3.5083">
        <ele>53</ele>
        <time>2021-07-01T15:39:26.000Z</time>
      </trkpt>
      <trkpt lat="43.30351" lon="3.50821">
        <ele>54</ele>
        <time>2021-07-01T15:39:28.000Z</time>
      </trkpt>
      <trkpt lat="43.30358" lon="3.50813">
        <ele>54</ele>
        <time>2021-07-01T15:39:30.000Z</time>
      </trkpt>
      <trkpt lat="43.30371" lon="3.50808">
        <ele>54</ele>
        <time>2021-07-01T15:39:33.000Z</time>
      </trkpt>
      <trkpt lat="43.30382" lon="3.50809">
        <ele>54</ele>
        <time>2021-07-01T15:39:35.000Z</time>
      </trkpt>
      <trkpt lat="43.30399" lon="3.50813">
        <ele>50</ele>
        <time>2021-07-01T15:39:38.000Z</time>
      </trkpt>
      <trkpt lat="43.30411" lon="3.50816">
        <ele>50</ele>
        <time>2021-07-01T15:39:40.000Z</time>
      </trkpt>
      <trkpt lat="43.30422" lon="3.50818">
        <ele>51</ele>
        <time>2021-07-01T15:39:42.000Z</time>
      </trkpt>
      <trkpt lat="43.30434" lon="3.50821">
        <ele>51</ele>
        <time>2021-07-01T15:39:44.000Z</time>
      </trkpt>
      <trkpt lat="43.30445" lon="3.5082">
        <ele>51</ele>
        <time>2021-07-01T15:39:46.000Z</time>
      </trkpt>
      <trkpt lat="43.30457" lon="3.50818">
        <ele>50</ele>
        <time>2021-07-01T15:39:49.000Z</time>
      </trkpt>
      <trkpt lat="43.30461" lon="3.50804">
        <ele>51</ele>
        <time>2021-07-01T15:39:53.000Z</time>
      </trkpt>
      <trkpt lat="43.30468" lon="3.50812">
        <ele>51</ele>
        <time>2021-07-01T15:40:01.000Z</time>
      </trkpt>
      <trkpt lat="43.30479" lon="3.50816">
        <ele>50</ele>
        <time>2021-07-01T15:40:26.000Z</time>
      </trkpt>
      <trkpt lat="43.30495" lon="3.50815">
        <ele>50</ele>
        <time>2021-07-01T15:40:30.000Z</time>
      </trkpt>
      <trkpt lat="43.30505" lon="3.50815">
        <ele>51</ele>
        <time>2021-07-01T15:40:32.000Z</time>
      </trkpt>
      <trkpt lat="43.30515" lon="3.50816">
        <ele>51</ele>
        <time>2021-07-01T15:40:34.000Z</time>
      </trkpt>
      <trkpt lat="43.30525" lon="3.50817">
        <ele>51</ele>
        <time>2021-07-01T15:40:36.000Z</time>
      </trkpt>
      <trkpt lat="43.30535" lon="3.50817">
        <ele>50</ele>
        <time>2021-07-01T15:40:38.000Z</time>
      </trkpt>
      <trkpt lat="43.30546" lon="3.50818">
        <ele>49</ele>
        <time>2021-07-01T15:40:40.000Z</time>
      </trkpt>
      <trkpt lat="43.30558" lon="3.5082">
        <ele>50</ele>
        <time>2021-07-01T15:40:42.000Z</time>
      </trkpt>
      <trkpt lat="43.30571" lon="3.50821">
        <ele>50</ele>
        <time>2021-07-01T15:40:45.000Z</time>
      </trkpt>
      <trkpt lat="43.30585" lon="3.50822">
        <ele>50</ele>
        <time>2021-07-01T15:40:48.000Z</time>
      </trkpt>
      <trkpt lat="43.30599" lon="3.50823">
        <ele>50</ele>
        <time>2021-07-01T15:40:51.000Z</time>
      </trkpt>
      <trkpt lat="43.30608" lon="3.50824">
        <ele>50</ele>
        <time>2021-07-01T15:40:53.000Z</time>
      </trkpt>
      <trkpt lat="43.30621" lon="3.50826">
        <ele>50</ele>
        <time>2021-07-01T15:40:56.000Z</time>
      </trkpt>
      <trkpt lat="43.3063" lon="3.50827">
        <ele>50</ele>
        <time>2021-07-01T15:40:58.000Z</time>
      </trkpt>
      <trkpt lat="43.3064" lon="3.50828">
        <ele>50</ele>
        <time>2021-07-01T15:41:00.000Z</time>
      </trkpt>
      <trkpt lat="43.30652" lon="3.50831">
        <ele>49</ele>
        <time>2021-07-01T15:41:03.000Z</time>
      </trkpt>
      <trkpt lat="43.30664" lon="3.50835">
        <ele>50</ele>
        <time>2021-07-01T15:41:21.000Z</time>
      </trkpt>
      <trkpt lat="43.3067" lon="3.50845">
        <ele>49</ele>
        <time>2021-07-01T15:41:48.000Z</time>
      </trkpt>
      <trkpt lat="43.3068" lon="3.50848">
        <ele>49</ele>
        <time>2021-07-01T15:41:57.000Z</time>
      </trkpt>
      <trkpt lat="43.30691" lon="3.50855">
        <ele>50</ele>
        <time>2021-07-01T15:42:00.000Z</time>
      </trkpt>
      <trkpt lat="43.307" lon="3.50861">
        <ele>49</ele>
        <time>2021-07-01T15:42:02.000Z</time>
      </trkpt>
      <trkpt lat="43.30709" lon="3.5087">
        <ele>48</ele>
        <time>2021-07-01T15:42:04.000Z</time>
      </trkpt>
      <trkpt lat="43.30718" lon="3.50882">
        <ele>47</ele>
        <time>2021-07-01T15:42:06.000Z</time>
      </trkpt>
      <trkpt lat="43.30726" lon="3.50892">
        <ele>47</ele>
        <time>2021-07-01T15:42:08.000Z</time>
      </trkpt>
      <trkpt lat="43.30735" lon="3.50905">
        <ele>47</ele>
        <time>2021-07-01T15:42:10.000Z</time>
      </trkpt>
      <trkpt lat="43.30743" lon="3.50918">
        <ele>46</ele>
        <time>2021-07-01T15:42:12.000Z</time>
      </trkpt>
      <trkpt lat="43.30751" lon="3.50934">
        <ele>47</ele>
        <time>2021-07-01T15:42:14.000Z</time>
      </trkpt>
      <trkpt lat="43.30757" lon="3.50951">
        <ele>46</ele>
        <time>2021-07-01T15:42:16.000Z</time>
      </trkpt>
      <trkpt lat="43.30765" lon="3.50967">
        <ele>46</ele>
        <time>2021-07-01T15:42:18.000Z</time>
      </trkpt>
      <trkpt lat="43.30771" lon="3.50984">
        <ele>46</ele>
        <time>2021-07-01T15:42:20.000Z</time>
      </trkpt>
      <trkpt lat="43.30777" lon="3.51002">
        <ele>44</ele>
        <time>2021-07-01T15:42:22.000Z</time>
      </trkpt>
      <trkpt lat="43.30782" lon="3.51018">
        <ele>45</ele>
        <time>2021-07-01T15:42:24.000Z</time>
      </trkpt>
      <trkpt lat="43.30787" lon="3.51035">
        <ele>45</ele>
        <time>2021-07-01T15:42:26.000Z</time>
      </trkpt>
      <trkpt lat="43.30793" lon="3.51052">
        <ele>46</ele>
        <time>2021-07-01T15:42:28.000Z</time>
      </trkpt>
      <trkpt lat="43.30798" lon="3.51069">
        <ele>45</ele>
        <time>2021-07-01T15:42:30.000Z</time>
      </trkpt>
      <trkpt lat="43.30804" lon="3.51087">
        <ele>45</ele>
        <time>2021-07-01T15:42:32.000Z</time>
      </trkpt>
      <trkpt lat="43.30809" lon="3.51104">
        <ele>45</ele>
        <time>2021-07-01T15:42:34.000Z</time>
      </trkpt>
      <trkpt lat="43.30816" lon="3.51131">
        <ele>45</ele>
        <time>2021-07-01T15:42:37.000Z</time>
      </trkpt>
      <trkpt lat="43.30821" lon="3.51148">
        <ele>45</ele>
        <time>2021-07-01T15:42:39.000Z</time>
      </trkpt>
      <trkpt lat="43.30826" lon="3.51165">
        <ele>45</ele>
        <time>2021-07-01T15:42:41.000Z</time>
      </trkpt>
      <trkpt lat="43.30831" lon="3.51182">
        <ele>45</ele>
        <time>2021-07-01T15:42:43.000Z</time>
      </trkpt>
      <trkpt lat="43.30836" lon="3.512">
        <ele>45</ele>
        <time>2021-07-01T15:42:45.000Z</time>
      </trkpt>
      <trkpt lat="43.30844" lon="3.51226">
        <ele>45</ele>
        <time>2021-07-01T15:42:48.000Z</time>
      </trkpt>
      <trkpt lat="43.3085" lon="3.51242">
        <ele>45</ele>
        <time>2021-07-01T15:42:50.000Z</time>
      </trkpt>
      <trkpt lat="43.30855" lon="3.51259">
        <ele>45</ele>
        <time>2021-07-01T15:42:52.000Z</time>
      </trkpt>
      <trkpt lat="43.30863" lon="3.51285">
        <ele>44</ele>
        <time>2021-07-01T15:42:55.000Z</time>
      </trkpt>
      <trkpt lat="43.30868" lon="3.51299">
        <ele>44</ele>
        <time>2021-07-01T15:42:57.000Z</time>
      </trkpt>
      <trkpt lat="43.30872" lon="3.51313">
        <ele>44</ele>
        <time>2021-07-01T15:42:59.000Z</time>
      </trkpt>
      <trkpt lat="43.30876" lon="3.51326">
        <ele>44</ele>
        <time>2021-07-01T15:43:01.000Z</time>
      </trkpt>
      <trkpt lat="43.30886" lon="3.51338">
        <ele>44</ele>
        <time>2021-07-01T15:43:04.000Z</time>
      </trkpt>
      <trkpt lat="43.30894" lon="3.51349">
        <ele>44</ele>
        <time>2021-07-01T15:43:07.000Z</time>
      </trkpt>
      <trkpt lat="43.30899" lon="3.51365">
        <ele>44</ele>
        <time>2021-07-01T15:43:09.000Z</time>
      </trkpt>
      <trkpt lat="43.30904" lon="3.5138">
        <ele>44</ele>
        <time>2021-07-01T15:43:11.000Z</time>
      </trkpt>
      <trkpt lat="43.30909" lon="3.51396">
        <ele>44</ele>
        <time>2021-07-01T15:43:13.000Z</time>
      </trkpt>
      <trkpt lat="43.30914" lon="3.51413">
        <ele>44</ele>
        <time>2021-07-01T15:43:15.000Z</time>
      </trkpt>
      <trkpt lat="43.30919" lon="3.51429">
        <ele>43</ele>
        <time>2021-07-01T15:43:17.000Z</time>
      </trkpt>
      <trkpt lat="43.30925" lon="3.51446">
        <ele>43</ele>
        <time>2021-07-01T15:43:19.000Z</time>
      </trkpt>
      <trkpt lat="43.3093" lon="3.51463">
        <ele>42</ele>
        <time>2021-07-01T15:43:21.000Z</time>
      </trkpt>
      <trkpt lat="43.30935" lon="3.51479">
        <ele>42</ele>
        <time>2021-07-01T15:43:23.000Z</time>
      </trkpt>
      <trkpt lat="43.30941" lon="3.51496">
        <ele>42</ele>
        <time>2021-07-01T15:43:25.000Z</time>
      </trkpt>
      <trkpt lat="43.30946" lon="3.51512">
        <ele>43</ele>
        <time>2021-07-01T15:43:27.000Z</time>
      </trkpt>
      <trkpt lat="43.30951" lon="3.51528">
        <ele>42</ele>
        <time>2021-07-01T15:43:29.000Z</time>
      </trkpt>
      <trkpt lat="43.3096" lon="3.51554">
        <ele>42</ele>
        <time>2021-07-01T15:43:32.000Z</time>
      </trkpt>
      <trkpt lat="43.30965" lon="3.51571">
        <ele>42</ele>
        <time>2021-07-01T15:43:34.000Z</time>
      </trkpt>
      <trkpt lat="43.3097" lon="3.51588">
        <ele>42</ele>
        <time>2021-07-01T15:43:36.000Z</time>
      </trkpt>
      <trkpt lat="43.30977" lon="3.51613">
        <ele>41</ele>
        <time>2021-07-01T15:43:39.000Z</time>
      </trkpt>
      <trkpt lat="43.30983" lon="3.51629">
        <ele>41</ele>
        <time>2021-07-01T15:43:41.000Z</time>
      </trkpt>
      <trkpt lat="43.30987" lon="3.51645">
        <ele>41</ele>
        <time>2021-07-01T15:43:43.000Z</time>
      </trkpt>
      <trkpt lat="43.30995" lon="3.5167">
        <ele>41</ele>
        <time>2021-07-01T15:43:46.000Z</time>
      </trkpt>
      <trkpt lat="43.31001" lon="3.51687">
        <ele>40</ele>
        <time>2021-07-01T15:43:48.000Z</time>
      </trkpt>
      <trkpt lat="43.31006" lon="3.51706">
        <ele>40</ele>
        <time>2021-07-01T15:43:50.000Z</time>
      </trkpt>
      <trkpt lat="43.3101" lon="3.51721">
        <ele>41</ele>
        <time>2021-07-01T15:43:52.000Z</time>
      </trkpt>
      <trkpt lat="43.31015" lon="3.51737">
        <ele>41</ele>
        <time>2021-07-01T15:43:54.000Z</time>
      </trkpt>
      <trkpt lat="43.31024" lon="3.5176">
        <ele>40</ele>
        <time>2021-07-01T15:43:57.000Z</time>
      </trkpt>
      <trkpt lat="43.31029" lon="3.51776">
        <ele>41</ele>
        <time>2021-07-01T15:43:59.000Z</time>
      </trkpt>
      <trkpt lat="43.31034" lon="3.51792">
        <ele>42</ele>
        <time>2021-07-01T15:44:01.000Z</time>
      </trkpt>
      <trkpt lat="43.31039" lon="3.5181">
        <ele>43</ele>
        <time>2021-07-01T15:44:03.000Z</time>
      </trkpt>
      <trkpt lat="43.31048" lon="3.51835">
        <ele>43</ele>
        <time>2021-07-01T15:44:06.000Z</time>
      </trkpt>
      <trkpt lat="43.31053" lon="3.51851">
        <ele>44</ele>
        <time>2021-07-01T15:44:08.000Z</time>
      </trkpt>
      <trkpt lat="43.31058" lon="3.51868">
        <ele>45</ele>
        <time>2021-07-01T15:44:10.000Z</time>
      </trkpt>
      <trkpt lat="43.31063" lon="3.51885">
        <ele>46</ele>
        <time>2021-07-01T15:44:12.000Z</time>
      </trkpt>
      <trkpt lat="43.31069" lon="3.51901">
        <ele>45</ele>
        <time>2021-07-01T15:44:14.000Z</time>
      </trkpt>
      <trkpt lat="43.31075" lon="3.51917">
        <ele>46</ele>
        <time>2021-07-01T15:44:16.000Z</time>
      </trkpt>
      <trkpt lat="43.3108" lon="3.51934">
        <ele>46</ele>
        <time>2021-07-01T15:44:18.000Z</time>
      </trkpt>
      <trkpt lat="43.31085" lon="3.51951">
        <ele>47</ele>
        <time>2021-07-01T15:44:20.000Z</time>
      </trkpt>
      <trkpt lat="43.3109" lon="3.51967">
        <ele>46</ele>
        <time>2021-07-01T15:44:22.000Z</time>
      </trkpt>
      <trkpt lat="43.31099" lon="3.51992">
        <ele>46</ele>
        <time>2021-07-01T15:44:25.000Z</time>
      </trkpt>
      <trkpt lat="43.31107" lon="3.52017">
        <ele>46</ele>
        <time>2021-07-01T15:44:28.000Z</time>
      </trkpt>
      <trkpt lat="43.31113" lon="3.52035">
        <ele>45</ele>
        <time>2021-07-01T15:44:30.000Z</time>
      </trkpt>
      <trkpt lat="43.31117" lon="3.52051">
        <ele>45</ele>
        <time>2021-07-01T15:44:32.000Z</time>
      </trkpt>
      <trkpt lat="43.31122" lon="3.52067">
        <ele>45</ele>
        <time>2021-07-01T15:44:34.000Z</time>
      </trkpt>
      <trkpt lat="43.31127" lon="3.52084">
        <ele>46</ele>
        <time>2021-07-01T15:44:36.000Z</time>
      </trkpt>
      <trkpt lat="43.31133" lon="3.52101">
        <ele>45</ele>
        <time>2021-07-01T15:44:38.000Z</time>
      </trkpt>
      <trkpt lat="43.31138" lon="3.52118">
        <ele>45</ele>
        <time>2021-07-01T15:44:40.000Z</time>
      </trkpt>
      <trkpt lat="43.31146" lon="3.52142">
        <ele>45</ele>
        <time>2021-07-01T15:44:43.000Z</time>
      </trkpt>
      <trkpt lat="43.3115" lon="3.52159">
        <ele>45</ele>
        <time>2021-07-01T15:44:45.000Z</time>
      </trkpt>
      <trkpt lat="43.31156" lon="3.52176">
        <ele>45</ele>
        <time>2021-07-01T15:44:47.000Z</time>
      </trkpt>
      <trkpt lat="43.31161" lon="3.52192">
        <ele>44</ele>
        <time>2021-07-01T15:44:49.000Z</time>
      </trkpt>
      <trkpt lat="43.31167" lon="3.52208">
        <ele>43</ele>
        <time>2021-07-01T15:44:51.000Z</time>
      </trkpt>
      <trkpt lat="43.31172" lon="3.52224">
        <ele>44</ele>
        <time>2021-07-01T15:44:53.000Z</time>
      </trkpt>
      <trkpt lat="43.31176" lon="3.52242">
        <ele>44</ele>
        <time>2021-07-01T15:44:55.000Z</time>
      </trkpt>
      <trkpt lat="43.31185" lon="3.52268">
        <ele>43</ele>
        <time>2021-07-01T15:44:58.000Z</time>
      </trkpt>
      <trkpt lat="43.3119" lon="3.52284">
        <ele>44</ele>
        <time>2021-07-01T15:45:00.000Z</time>
      </trkpt>
      <trkpt lat="43.31195" lon="3.523">
        <ele>44</ele>
        <time>2021-07-01T15:45:02.000Z</time>
      </trkpt>
      <trkpt lat="43.31201" lon="3.52316">
        <ele>44</ele>
        <time>2021-07-01T15:45:04.000Z</time>
      </trkpt>
      <trkpt lat="43.31209" lon="3.52333">
        <ele>41</ele>
        <time>2021-07-01T15:45:06.000Z</time>
      </trkpt>
      <trkpt lat="43.31215" lon="3.52351">
        <ele>41</ele>
        <time>2021-07-01T15:45:08.000Z</time>
      </trkpt>
      <trkpt lat="43.31219" lon="3.52367">
        <ele>42</ele>
        <time>2021-07-01T15:45:10.000Z</time>
      </trkpt>
      <trkpt lat="43.31223" lon="3.52383">
        <ele>43</ele>
        <time>2021-07-01T15:45:12.000Z</time>
      </trkpt>
      <trkpt lat="43.31227" lon="3.52399">
        <ele>44</ele>
        <time>2021-07-01T15:45:14.000Z</time>
      </trkpt>
      <trkpt lat="43.31231" lon="3.52416">
        <ele>44</ele>
        <time>2021-07-01T15:45:16.000Z</time>
      </trkpt>
      <trkpt lat="43.31236" lon="3.52432">
        <ele>44</ele>
        <time>2021-07-01T15:45:18.000Z</time>
      </trkpt>
      <trkpt lat="43.31241" lon="3.52448">
        <ele>44</ele>
        <time>2021-07-01T15:45:20.000Z</time>
      </trkpt>
      <trkpt lat="43.3125" lon="3.52473">
        <ele>43</ele>
        <time>2021-07-01T15:45:23.000Z</time>
      </trkpt>
      <trkpt lat="43.31255" lon="3.52489">
        <ele>43</ele>
        <time>2021-07-01T15:45:25.000Z</time>
      </trkpt>
      <trkpt lat="43.31261" lon="3.52506">
        <ele>44</ele>
        <time>2021-07-01T15:45:27.000Z</time>
      </trkpt>
      <trkpt lat="43.31269" lon="3.52531">
        <ele>44</ele>
        <time>2021-07-01T15:45:30.000Z</time>
      </trkpt>
      <trkpt lat="43.31274" lon="3.5255">
        <ele>44</ele>
        <time>2021-07-01T15:45:32.000Z</time>
      </trkpt>
      <trkpt lat="43.31278" lon="3.52567">
        <ele>45</ele>
        <time>2021-07-01T15:45:34.000Z</time>
      </trkpt>
      <trkpt lat="43.31283" lon="3.52582">
        <ele>45</ele>
        <time>2021-07-01T15:45:36.000Z</time>
      </trkpt>
      <trkpt lat="43.31288" lon="3.52598">
        <ele>45</ele>
        <time>2021-07-01T15:45:38.000Z</time>
      </trkpt>
      <trkpt lat="43.31296" lon="3.52624">
        <ele>44</ele>
        <time>2021-07-01T15:45:41.000Z</time>
      </trkpt>
      <trkpt lat="43.31301" lon="3.5264">
        <ele>45</ele>
        <time>2021-07-01T15:45:43.000Z</time>
      </trkpt>
      <trkpt lat="43.31305" lon="3.52656">
        <ele>46</ele>
        <time>2021-07-01T15:45:45.000Z</time>
      </trkpt>
      <trkpt lat="43.3131" lon="3.52673">
        <ele>46</ele>
        <time>2021-07-01T15:45:47.000Z</time>
      </trkpt>
      <trkpt lat="43.31316" lon="3.52689">
        <ele>46</ele>
        <time>2021-07-01T15:45:49.000Z</time>
      </trkpt>
      <trkpt lat="43.31321" lon="3.52704">
        <ele>46</ele>
        <time>2021-07-01T15:45:51.000Z</time>
      </trkpt>
      <trkpt lat="43.31326" lon="3.52721">
        <ele>47</ele>
        <time>2021-07-01T15:45:53.000Z</time>
      </trkpt>
      <trkpt lat="43.31334" lon="3.52747">
        <ele>46</ele>
        <time>2021-07-01T15:45:56.000Z</time>
      </trkpt>
      <trkpt lat="43.31338" lon="3.52764">
        <ele>45</ele>
        <time>2021-07-01T15:45:58.000Z</time>
      </trkpt>
      <trkpt lat="43.31343" lon="3.52779">
        <ele>46</ele>
        <time>2021-07-01T15:46:00.000Z</time>
      </trkpt>
      <trkpt lat="43.31348" lon="3.52795">
        <ele>46</ele>
        <time>2021-07-01T15:46:02.000Z</time>
      </trkpt>
      <trkpt lat="43.31353" lon="3.52812">
        <ele>47</ele>
        <time>2021-07-01T15:46:04.000Z</time>
      </trkpt>
      <trkpt lat="43.31359" lon="3.52828">
        <ele>46</ele>
        <time>2021-07-01T15:46:06.000Z</time>
      </trkpt>
      <trkpt lat="43.31365" lon="3.52845">
        <ele>47</ele>
        <time>2021-07-01T15:46:08.000Z</time>
      </trkpt>
      <trkpt lat="43.31369" lon="3.5286">
        <ele>47</ele>
        <time>2021-07-01T15:46:10.000Z</time>
      </trkpt>
      <trkpt lat="43.31378" lon="3.52885">
        <ele>47</ele>
        <time>2021-07-01T15:46:13.000Z</time>
      </trkpt>
      <trkpt lat="43.31382" lon="3.52903">
        <ele>46</ele>
        <time>2021-07-01T15:46:15.000Z</time>
      </trkpt>
      <trkpt lat="43.31387" lon="3.52919">
        <ele>46</ele>
        <time>2021-07-01T15:46:17.000Z</time>
      </trkpt>
      <trkpt lat="43.31392" lon="3.52936">
        <ele>47</ele>
        <time>2021-07-01T15:46:19.000Z</time>
      </trkpt>
      <trkpt lat="43.31397" lon="3.52952">
        <ele>47</ele>
        <time>2021-07-01T15:46:21.000Z</time>
      </trkpt>
      <trkpt lat="43.31403" lon="3.52969">
        <ele>47</ele>
        <time>2021-07-01T15:46:23.000Z</time>
      </trkpt>
      <trkpt lat="43.31409" lon="3.52985">
        <ele>47</ele>
        <time>2021-07-01T15:46:25.000Z</time>
      </trkpt>
      <trkpt lat="43.31414" lon="3.53002">
        <ele>48</ele>
        <time>2021-07-01T15:46:27.000Z</time>
      </trkpt>
      <trkpt lat="43.31422" lon="3.53026">
        <ele>48</ele>
        <time>2021-07-01T15:46:30.000Z</time>
      </trkpt>
      <trkpt lat="43.31426" lon="3.53043">
        <ele>48</ele>
        <time>2021-07-01T15:46:32.000Z</time>
      </trkpt>
      <trkpt lat="43.3143" lon="3.53059">
        <ele>48</ele>
        <time>2021-07-01T15:46:34.000Z</time>
      </trkpt>
      <trkpt lat="43.31435" lon="3.53075">
        <ele>48</ele>
        <time>2021-07-01T15:46:36.000Z</time>
      </trkpt>
      <trkpt lat="43.3144" lon="3.53093">
        <ele>49</ele>
        <time>2021-07-01T15:46:38.000Z</time>
      </trkpt>
      <trkpt lat="43.31446" lon="3.5311">
        <ele>48</ele>
        <time>2021-07-01T15:46:40.000Z</time>
      </trkpt>
      <trkpt lat="43.31451" lon="3.53127">
        <ele>48</ele>
        <time>2021-07-01T15:46:42.000Z</time>
      </trkpt>
      <trkpt lat="43.31457" lon="3.53143">
        <ele>48</ele>
        <time>2021-07-01T15:46:44.000Z</time>
      </trkpt>
      <trkpt lat="43.31462" lon="3.53156">
        <ele>48</ele>
        <time>2021-07-01T15:46:46.000Z</time>
      </trkpt>
      <trkpt lat="43.31466" lon="3.53172">
        <ele>48</ele>
        <time>2021-07-01T15:46:48.000Z</time>
      </trkpt>
      <trkpt lat="43.3147" lon="3.53187">
        <ele>47</ele>
        <time>2021-07-01T15:46:50.000Z</time>
      </trkpt>
      <trkpt lat="43.31475" lon="3.53204">
        <ele>47</ele>
        <time>2021-07-01T15:46:52.000Z</time>
      </trkpt>
      <trkpt lat="43.31481" lon="3.53221">
        <ele>48</ele>
        <time>2021-07-01T15:46:54.000Z</time>
      </trkpt>
      <trkpt lat="43.31485" lon="3.53237">
        <ele>47</ele>
        <time>2021-07-01T15:46:56.000Z</time>
      </trkpt>
      <trkpt lat="43.3149" lon="3.53253">
        <ele>47</ele>
        <time>2021-07-01T15:46:58.000Z</time>
      </trkpt>
      <trkpt lat="43.31496" lon="3.53269">
        <ele>47</ele>
        <time>2021-07-01T15:47:00.000Z</time>
      </trkpt>
      <trkpt lat="43.31501" lon="3.53286">
        <ele>47</ele>
        <time>2021-07-01T15:47:02.000Z</time>
      </trkpt>
      <trkpt lat="43.31509" lon="3.5331">
        <ele>47</ele>
        <time>2021-07-01T15:47:05.000Z</time>
      </trkpt>
      <trkpt lat="43.31516" lon="3.53336">
        <ele>47</ele>
        <time>2021-07-01T15:47:08.000Z</time>
      </trkpt>
      <trkpt lat="43.31521" lon="3.53352">
        <ele>48</ele>
        <time>2021-07-01T15:47:10.000Z</time>
      </trkpt>
      <trkpt lat="43.31526" lon="3.53368">
        <ele>48</ele>
        <time>2021-07-01T15:47:12.000Z</time>
      </trkpt>
      <trkpt lat="43.31532" lon="3.53385">
        <ele>47</ele>
        <time>2021-07-01T15:47:14.000Z</time>
      </trkpt>
      <trkpt lat="43.31538" lon="3.53404">
        <ele>49</ele>
        <time>2021-07-01T15:47:16.000Z</time>
      </trkpt>
      <trkpt lat="43.31541" lon="3.53417">
        <ele>49</ele>
        <time>2021-07-01T15:47:18.000Z</time>
      </trkpt>
      <trkpt lat="43.31544" lon="3.53435">
        <ele>49</ele>
        <time>2021-07-01T15:47:21.000Z</time>
      </trkpt>
      <trkpt lat="43.31549" lon="3.53446">
        <ele>47</ele>
        <time>2021-07-01T15:47:23.000Z</time>
      </trkpt>
      <trkpt lat="43.31554" lon="3.53463">
        <ele>47</ele>
        <time>2021-07-01T15:47:26.000Z</time>
      </trkpt>
      <trkpt lat="43.31557" lon="3.53476">
        <ele>47</ele>
        <time>2021-07-01T15:47:28.000Z</time>
      </trkpt>
      <trkpt lat="43.31555" lon="3.535">
        <ele>48</ele>
        <time>2021-07-01T15:47:32.000Z</time>
      </trkpt>
      <trkpt lat="43.31552" lon="3.53514">
        <ele>48</ele>
        <time>2021-07-01T15:47:35.000Z</time>
      </trkpt>
      <trkpt lat="43.31553" lon="3.53532">
        <ele>48</ele>
        <time>2021-07-01T15:47:39.000Z</time>
      </trkpt>
      <trkpt lat="43.31561" lon="3.53537">
        <ele>47</ele>
        <time>2021-07-01T15:47:44.000Z</time>
      </trkpt>
      <trkpt lat="43.31574" lon="3.53536">
        <ele>46</ele>
        <time>2021-07-01T15:47:49.000Z</time>
      </trkpt>
      <trkpt lat="43.31581" lon="3.53548">
        <ele>46</ele>
        <time>2021-07-01T15:47:53.000Z</time>
      </trkpt>
      <trkpt lat="43.31588" lon="3.53565">
        <ele>44</ele>
        <time>2021-07-01T15:47:57.000Z</time>
      </trkpt>
      <trkpt lat="43.31592" lon="3.53577">
        <ele>44</ele>
        <time>2021-07-01T15:48:00.000Z</time>
      </trkpt>
      <trkpt lat="43.31593" lon="3.53589">
        <ele>47</ele>
        <time>2021-07-01T15:50:38.000Z</time>
      </trkpt>
      <trkpt lat="43.31597" lon="3.53601">
        <ele>47</ele>
        <time>2021-07-01T15:50:42.000Z</time>
      </trkpt>
      <trkpt lat="43.31603" lon="3.53616">
        <ele>48</ele>
        <time>2021-07-01T15:50:45.000Z</time>
      </trkpt>
      <trkpt lat="43.31606" lon="3.53628">
        <ele>48</ele>
        <time>2021-07-01T15:50:47.000Z</time>
      </trkpt>
      <trkpt lat="43.3161" lon="3.5364">
        <ele>49</ele>
        <time>2021-07-01T15:50:49.000Z</time>
      </trkpt>
      <trkpt lat="43.31614" lon="3.53652">
        <ele>49</ele>
        <time>2021-07-01T15:50:51.000Z</time>
      </trkpt>
      <trkpt lat="43.31621" lon="3.53672">
        <ele>49</ele>
        <time>2021-07-01T15:50:54.000Z</time>
      </trkpt>
      <trkpt lat="43.31625" lon="3.53685">
        <ele>49</ele>
        <time>2021-07-01T15:50:56.000Z</time>
      </trkpt>
      <trkpt lat="43.3163" lon="3.53698">
        <ele>49</ele>
        <time>2021-07-01T15:50:58.000Z</time>
      </trkpt>
      <trkpt lat="43.31633" lon="3.53712">
        <ele>48</ele>
        <time>2021-07-01T15:51:00.000Z</time>
      </trkpt>
      <trkpt lat="43.3164" lon="3.53733">
        <ele>48</ele>
        <time>2021-07-01T15:51:03.000Z</time>
      </trkpt>
      <trkpt lat="43.31643" lon="3.53748">
        <ele>48</ele>
        <time>2021-07-01T15:51:05.000Z</time>
      </trkpt>
      <trkpt lat="43.31648" lon="3.53761">
        <ele>48</ele>
        <time>2021-07-01T15:51:07.000Z</time>
      </trkpt>
      <trkpt lat="43.31655" lon="3.53783">
        <ele>47</ele>
        <time>2021-07-01T15:51:10.000Z</time>
      </trkpt>
      <trkpt lat="43.31659" lon="3.53798">
        <ele>47</ele>
        <time>2021-07-01T15:51:12.000Z</time>
      </trkpt>
      <trkpt lat="43.31664" lon="3.53812">
        <ele>48</ele>
        <time>2021-07-01T15:51:14.000Z</time>
      </trkpt>
      <trkpt lat="43.3167" lon="3.53827">
        <ele>48</ele>
        <time>2021-07-01T15:51:16.000Z</time>
      </trkpt>
      <trkpt lat="43.31674" lon="3.53842">
        <ele>47</ele>
        <time>2021-07-01T15:51:18.000Z</time>
      </trkpt>
      <trkpt lat="43.31679" lon="3.53856">
        <ele>47</ele>
        <time>2021-07-01T15:51:20.000Z</time>
      </trkpt>
      <trkpt lat="43.31682" lon="3.5387">
        <ele>47</ele>
        <time>2021-07-01T15:51:22.000Z</time>
      </trkpt>
      <trkpt lat="43.31687" lon="3.53886">
        <ele>48</ele>
        <time>2021-07-01T15:51:24.000Z</time>
      </trkpt>
      <trkpt lat="43.31694" lon="3.5391">
        <ele>48</ele>
        <time>2021-07-01T15:51:27.000Z</time>
      </trkpt>
      <trkpt lat="43.317" lon="3.53927">
        <ele>48</ele>
        <time>2021-07-01T15:51:29.000Z</time>
      </trkpt>
      <trkpt lat="43.31705" lon="3.53943">
        <ele>48</ele>
        <time>2021-07-01T15:51:31.000Z</time>
      </trkpt>
      <trkpt lat="43.31709" lon="3.53958">
        <ele>48</ele>
        <time>2021-07-01T15:51:33.000Z</time>
      </trkpt>
      <trkpt lat="43.31716" lon="3.53981">
        <ele>47</ele>
        <time>2021-07-01T15:51:36.000Z</time>
      </trkpt>
      <trkpt lat="43.31723" lon="3.54002">
        <ele>48</ele>
        <time>2021-07-01T15:51:39.000Z</time>
      </trkpt>
      <trkpt lat="43.31728" lon="3.54018">
        <ele>48</ele>
        <time>2021-07-01T15:51:41.000Z</time>
      </trkpt>
      <trkpt lat="43.31732" lon="3.54033">
        <ele>48</ele>
        <time>2021-07-01T15:51:43.000Z</time>
      </trkpt>
      <trkpt lat="43.31737" lon="3.54049">
        <ele>47</ele>
        <time>2021-07-01T15:51:45.000Z</time>
      </trkpt>
      <trkpt lat="43.31743" lon="3.54066">
        <ele>47</ele>
        <time>2021-07-01T15:51:47.000Z</time>
      </trkpt>
      <trkpt lat="43.31748" lon="3.54082">
        <ele>47</ele>
        <time>2021-07-01T15:51:49.000Z</time>
      </trkpt>
      <trkpt lat="43.31752" lon="3.54098">
        <ele>47</ele>
        <time>2021-07-01T15:51:51.000Z</time>
      </trkpt>
      <trkpt lat="43.31758" lon="3.54115">
        <ele>46</ele>
        <time>2021-07-01T15:51:53.000Z</time>
      </trkpt>
      <trkpt lat="43.31763" lon="3.54131">
        <ele>46</ele>
        <time>2021-07-01T15:51:55.000Z</time>
      </trkpt>
      <trkpt lat="43.31768" lon="3.54147">
        <ele>46</ele>
        <time>2021-07-01T15:51:57.000Z</time>
      </trkpt>
      <trkpt lat="43.31772" lon="3.54163">
        <ele>47</ele>
        <time>2021-07-01T15:51:59.000Z</time>
      </trkpt>
      <trkpt lat="43.31777" lon="3.54178">
        <ele>47</ele>
        <time>2021-07-01T15:52:01.000Z</time>
      </trkpt>
      <trkpt lat="43.31783" lon="3.54195">
        <ele>45</ele>
        <time>2021-07-01T15:52:03.000Z</time>
      </trkpt>
      <trkpt lat="43.3179" lon="3.54219">
        <ele>46</ele>
        <time>2021-07-01T15:52:06.000Z</time>
      </trkpt>
      <trkpt lat="43.31795" lon="3.54235">
        <ele>46</ele>
        <time>2021-07-01T15:52:08.000Z</time>
      </trkpt>
      <trkpt lat="43.31803" lon="3.54258">
        <ele>46</ele>
        <time>2021-07-01T15:52:11.000Z</time>
      </trkpt>
      <trkpt lat="43.31809" lon="3.54275">
        <ele>46</ele>
        <time>2021-07-01T15:52:13.000Z</time>
      </trkpt>
      <trkpt lat="43.31813" lon="3.5429">
        <ele>47</ele>
        <time>2021-07-01T15:52:15.000Z</time>
      </trkpt>
      <trkpt lat="43.31818" lon="3.54306">
        <ele>47</ele>
        <time>2021-07-01T15:52:17.000Z</time>
      </trkpt>
      <trkpt lat="43.31825" lon="3.5433">
        <ele>47</ele>
        <time>2021-07-01T15:52:20.000Z</time>
      </trkpt>
      <trkpt lat="43.31829" lon="3.54346">
        <ele>48</ele>
        <time>2021-07-01T15:52:22.000Z</time>
      </trkpt>
      <trkpt lat="43.31834" lon="3.54361">
        <ele>48</ele>
        <time>2021-07-01T15:52:24.000Z</time>
      </trkpt>
      <trkpt lat="43.31843" lon="3.54386">
        <ele>46</ele>
        <time>2021-07-01T15:52:27.000Z</time>
      </trkpt>
      <trkpt lat="43.31849" lon="3.54401">
        <ele>47</ele>
        <time>2021-07-01T15:52:29.000Z</time>
      </trkpt>
      <trkpt lat="43.31851" lon="3.54415">
        <ele>47</ele>
        <time>2021-07-01T15:52:31.000Z</time>
      </trkpt>
      <trkpt lat="43.31855" lon="3.54431">
        <ele>47</ele>
        <time>2021-07-01T15:52:33.000Z</time>
      </trkpt>
      <trkpt lat="43.31859" lon="3.54447">
        <ele>48</ele>
        <time>2021-07-01T15:52:35.000Z</time>
      </trkpt>
      <trkpt lat="43.31863" lon="3.54463">
        <ele>48</ele>
        <time>2021-07-01T15:52:37.000Z</time>
      </trkpt>
      <trkpt lat="43.31868" lon="3.54478">
        <ele>48</ele>
        <time>2021-07-01T15:52:39.000Z</time>
      </trkpt>
      <trkpt lat="43.31872" lon="3.54494">
        <ele>48</ele>
        <time>2021-07-01T15:52:41.000Z</time>
      </trkpt>
      <trkpt lat="43.31878" lon="3.54517">
        <ele>47</ele>
        <time>2021-07-01T15:52:44.000Z</time>
      </trkpt>
      <trkpt lat="43.31883" lon="3.54533">
        <ele>46</ele>
        <time>2021-07-01T15:52:46.000Z</time>
      </trkpt>
      <trkpt lat="43.31887" lon="3.54548">
        <ele>47</ele>
        <time>2021-07-01T15:52:48.000Z</time>
      </trkpt>
      <trkpt lat="43.3189" lon="3.54562">
        <ele>47</ele>
        <time>2021-07-01T15:52:50.000Z</time>
      </trkpt>
      <trkpt lat="43.31893" lon="3.54574">
        <ele>48</ele>
        <time>2021-07-01T15:52:52.000Z</time>
      </trkpt>
      <trkpt lat="43.31895" lon="3.54588">
        <ele>47</ele>
        <time>2021-07-01T15:52:54.000Z</time>
      </trkpt>
      <trkpt lat="43.31892" lon="3.54601">
        <ele>48</ele>
        <time>2021-07-01T15:52:56.000Z</time>
      </trkpt>
      <trkpt lat="43.31889" lon="3.54618">
        <ele>49</ele>
        <time>2021-07-01T15:52:59.000Z</time>
      </trkpt>
      <trkpt lat="43.31889" lon="3.54633">
        <ele>50</ele>
        <time>2021-07-01T15:53:03.000Z</time>
      </trkpt>
      <trkpt lat="43.31896" lon="3.54644">
        <ele>50</ele>
        <time>2021-07-01T15:53:07.000Z</time>
      </trkpt>
      <trkpt lat="43.31907" lon="3.54647">
        <ele>50</ele>
        <time>2021-07-01T15:53:11.000Z</time>
      </trkpt>
      <trkpt lat="43.31917" lon="3.54652">
        <ele>50</ele>
        <time>2021-07-01T15:53:15.000Z</time>
      </trkpt>
      <trkpt lat="43.31923" lon="3.54664">
        <ele>49</ele>
        <time>2021-07-01T15:53:19.000Z</time>
      </trkpt>
      <trkpt lat="43.31927" lon="3.54675">
        <ele>49</ele>
        <time>2021-07-01T15:53:21.000Z</time>
      </trkpt>
      <trkpt lat="43.31932" lon="3.54693">
        <ele>50</ele>
        <time>2021-07-01T15:53:24.000Z</time>
      </trkpt>
      <trkpt lat="43.31936" lon="3.54706">
        <ele>50</ele>
        <time>2021-07-01T15:53:26.000Z</time>
      </trkpt>
      <trkpt lat="43.3194" lon="3.54719">
        <ele>50</ele>
        <time>2021-07-01T15:53:28.000Z</time>
      </trkpt>
      <trkpt lat="43.31945" lon="3.54731">
        <ele>50</ele>
        <time>2021-07-01T15:53:30.000Z</time>
      </trkpt>
      <trkpt lat="43.31949" lon="3.54743">
        <ele>51</ele>
        <time>2021-07-01T15:53:32.000Z</time>
      </trkpt>
      <trkpt lat="43.31952" lon="3.54756">
        <ele>51</ele>
        <time>2021-07-01T15:53:34.000Z</time>
      </trkpt>
      <trkpt lat="43.31956" lon="3.5477">
        <ele>51</ele>
        <time>2021-07-01T15:53:36.000Z</time>
      </trkpt>
      <trkpt lat="43.31961" lon="3.54784">
        <ele>49</ele>
        <time>2021-07-01T15:53:38.000Z</time>
      </trkpt>
      <trkpt lat="43.31966" lon="3.54799">
        <ele>50</ele>
        <time>2021-07-01T15:53:40.000Z</time>
      </trkpt>
      <trkpt lat="43.31971" lon="3.54811">
        <ele>49</ele>
        <time>2021-07-01T15:53:42.000Z</time>
      </trkpt>
      <trkpt lat="43.31974" lon="3.54825">
        <ele>49</ele>
        <time>2021-07-01T15:53:44.000Z</time>
      </trkpt>
      <trkpt lat="43.3198" lon="3.54839">
        <ele>48</ele>
        <time>2021-07-01T15:53:46.000Z</time>
      </trkpt>
      <trkpt lat="43.31986" lon="3.54853">
        <ele>49</ele>
        <time>2021-07-01T15:53:48.000Z</time>
      </trkpt>
      <trkpt lat="43.31989" lon="3.54867">
        <ele>49</ele>
        <time>2021-07-01T15:53:50.000Z</time>
      </trkpt>
      <trkpt lat="43.31998" lon="3.54896">
        <ele>48</ele>
        <time>2021-07-01T15:53:54.000Z</time>
      </trkpt>
      <trkpt lat="43.32" lon="3.54908">
        <ele>48</ele>
        <time>2021-07-01T15:53:56.000Z</time>
      </trkpt>
      <trkpt lat="43.32004" lon="3.54922">
        <ele>48</ele>
        <time>2021-07-01T15:53:58.000Z</time>
      </trkpt>
      <trkpt lat="43.32011" lon="3.54942">
        <ele>48</ele>
        <time>2021-07-01T15:54:01.000Z</time>
      </trkpt>
      <trkpt lat="43.32015" lon="3.54957">
        <ele>48</ele>
        <time>2021-07-01T15:54:03.000Z</time>
      </trkpt>
      <trkpt lat="43.32019" lon="3.5497">
        <ele>48</ele>
        <time>2021-07-01T15:54:05.000Z</time>
      </trkpt>
      <trkpt lat="43.32022" lon="3.54983">
        <ele>48</ele>
        <time>2021-07-01T15:54:07.000Z</time>
      </trkpt>
      <trkpt lat="43.32028" lon="3.55003">
        <ele>48</ele>
        <time>2021-07-01T15:54:10.000Z</time>
      </trkpt>
      <trkpt lat="43.32033" lon="3.55018">
        <ele>48</ele>
        <time>2021-07-01T15:54:12.000Z</time>
      </trkpt>
      <trkpt lat="43.32037" lon="3.55032">
        <ele>49</ele>
        <time>2021-07-01T15:54:14.000Z</time>
      </trkpt>
      <trkpt lat="43.32041" lon="3.55045">
        <ele>50</ele>
        <time>2021-07-01T15:54:16.000Z</time>
      </trkpt>
      <trkpt lat="43.32045" lon="3.55057">
        <ele>50</ele>
        <time>2021-07-01T15:54:18.000Z</time>
      </trkpt>
      <trkpt lat="43.3205" lon="3.55072">
        <ele>48</ele>
        <time>2021-07-01T15:54:20.000Z</time>
      </trkpt>
      <trkpt lat="43.32055" lon="3.55084">
        <ele>49</ele>
        <time>2021-07-01T15:54:22.000Z</time>
      </trkpt>
      <trkpt lat="43.32059" lon="3.55097">
        <ele>49</ele>
        <time>2021-07-01T15:54:24.000Z</time>
      </trkpt>
      <trkpt lat="43.32064" lon="3.5511">
        <ele>49</ele>
        <time>2021-07-01T15:54:26.000Z</time>
      </trkpt>
      <trkpt lat="43.32067" lon="3.55122">
        <ele>50</ele>
        <time>2021-07-01T15:54:28.000Z</time>
      </trkpt>
      <trkpt lat="43.32071" lon="3.55136">
        <ele>50</ele>
        <time>2021-07-01T15:54:30.000Z</time>
      </trkpt>
      <trkpt lat="43.32074" lon="3.55148">
        <ele>50</ele>
        <time>2021-07-01T15:54:32.000Z</time>
      </trkpt>
      <trkpt lat="43.32079" lon="3.55167">
        <ele>50</ele>
        <time>2021-07-01T15:54:35.000Z</time>
      </trkpt>
      <trkpt lat="43.32083" lon="3.55179">
        <ele>50</ele>
        <time>2021-07-01T15:54:37.000Z</time>
      </trkpt>
      <trkpt lat="43.32087" lon="3.55192">
        <ele>49</ele>
        <time>2021-07-01T15:54:39.000Z</time>
      </trkpt>
      <trkpt lat="43.32091" lon="3.55203">
        <ele>49</ele>
        <time>2021-07-01T15:54:41.000Z</time>
      </trkpt>
      <trkpt lat="43.32097" lon="3.55221">
        <ele>50</ele>
        <time>2021-07-01T15:54:44.000Z</time>
      </trkpt>
      <trkpt lat="43.321" lon="3.55233">
        <ele>50</ele>
        <time>2021-07-01T15:54:46.000Z</time>
      </trkpt>
      <trkpt lat="43.32104" lon="3.55244">
        <ele>50</ele>
        <time>2021-07-01T15:54:48.000Z</time>
      </trkpt>
      <trkpt lat="43.32109" lon="3.5526">
        <ele>51</ele>
        <time>2021-07-01T15:54:51.000Z</time>
      </trkpt>
      <trkpt lat="43.32114" lon="3.55272">
        <ele>51</ele>
        <time>2021-07-01T15:54:54.000Z</time>
      </trkpt>
      <trkpt lat="43.32119" lon="3.55287">
        <ele>51</ele>
        <time>2021-07-01T15:54:57.000Z</time>
      </trkpt>
      <trkpt lat="43.32122" lon="3.55301">
        <ele>51</ele>
        <time>2021-07-01T15:54:59.000Z</time>
      </trkpt>
      <trkpt lat="43.32127" lon="3.55315">
        <ele>51</ele>
        <time>2021-07-01T15:55:01.000Z</time>
      </trkpt>
      <trkpt lat="43.32132" lon="3.55329">
        <ele>50</ele>
        <time>2021-07-01T15:55:03.000Z</time>
      </trkpt>
      <trkpt lat="43.32137" lon="3.55342">
        <ele>51</ele>
        <time>2021-07-01T15:55:05.000Z</time>
      </trkpt>
      <trkpt lat="43.32142" lon="3.55356">
        <ele>51</ele>
        <time>2021-07-01T15:55:07.000Z</time>
      </trkpt>
      <trkpt lat="43.32146" lon="3.55371">
        <ele>51</ele>
        <time>2021-07-01T15:55:09.000Z</time>
      </trkpt>
      <trkpt lat="43.32151" lon="3.55386">
        <ele>51</ele>
        <time>2021-07-01T15:55:11.000Z</time>
      </trkpt>
      <trkpt lat="43.32158" lon="3.554">
        <ele>51</ele>
        <time>2021-07-01T15:55:13.000Z</time>
      </trkpt>
      <trkpt lat="43.32167" lon="3.55422">
        <ele>52</ele>
        <time>2021-07-01T15:55:16.000Z</time>
      </trkpt>
      <trkpt lat="43.32177" lon="3.55442">
        <ele>50</ele>
        <time>2021-07-01T15:55:19.000Z</time>
      </trkpt>
      <trkpt lat="43.32185" lon="3.55456">
        <ele>50</ele>
        <time>2021-07-01T15:55:21.000Z</time>
      </trkpt>
      <trkpt lat="43.32191" lon="3.5547">
        <ele>50</ele>
        <time>2021-07-01T15:55:23.000Z</time>
      </trkpt>
      <trkpt lat="43.32198" lon="3.55485">
        <ele>50</ele>
        <time>2021-07-01T15:55:25.000Z</time>
      </trkpt>
      <trkpt lat="43.32208" lon="3.55507">
        <ele>49</ele>
        <time>2021-07-01T15:55:28.000Z</time>
      </trkpt>
      <trkpt lat="43.3222" lon="3.55527">
        <ele>51</ele>
        <time>2021-07-01T15:55:31.000Z</time>
      </trkpt>
      <trkpt lat="43.32227" lon="3.55538">
        <ele>51</ele>
        <time>2021-07-01T15:55:33.000Z</time>
      </trkpt>
      <trkpt lat="43.32234" lon="3.55551">
        <ele>51</ele>
        <time>2021-07-01T15:55:35.000Z</time>
      </trkpt>
      <trkpt lat="43.32242" lon="3.55567">
        <ele>50</ele>
        <time>2021-07-01T15:55:38.000Z</time>
      </trkpt>
      <trkpt lat="43.32248" lon="3.55579">
        <ele>51</ele>
        <time>2021-07-01T15:55:41.000Z</time>
      </trkpt>
      <trkpt lat="43.32256" lon="3.5559">
        <ele>50</ele>
        <time>2021-07-01T15:55:44.000Z</time>
      </trkpt>
      <trkpt lat="43.32262" lon="3.556">
        <ele>49</ele>
        <time>2021-07-01T15:55:47.000Z</time>
      </trkpt>
      <trkpt lat="43.32269" lon="3.55616">
        <ele>50</ele>
        <time>2021-07-01T15:55:50.000Z</time>
      </trkpt>
      <trkpt lat="43.32274" lon="3.55628">
        <ele>50</ele>
        <time>2021-07-01T15:55:52.000Z</time>
      </trkpt>
      <trkpt lat="43.32279" lon="3.5564">
        <ele>49</ele>
        <time>2021-07-01T15:55:54.000Z</time>
      </trkpt>
      <trkpt lat="43.3229" lon="3.55653">
        <ele>49</ele>
        <time>2021-07-01T15:55:57.000Z</time>
      </trkpt>
      <trkpt lat="43.32296" lon="3.55663">
        <ele>50</ele>
        <time>2021-07-01T15:55:59.000Z</time>
      </trkpt>
      <trkpt lat="43.32306" lon="3.5568">
        <ele>50</ele>
        <time>2021-07-01T15:56:02.000Z</time>
      </trkpt>
      <trkpt lat="43.32311" lon="3.55692">
        <ele>49</ele>
        <time>2021-07-01T15:56:04.000Z</time>
      </trkpt>
      <trkpt lat="43.32319" lon="3.55705">
        <ele>49</ele>
        <time>2021-07-01T15:56:06.000Z</time>
      </trkpt>
      <trkpt lat="43.32326" lon="3.55717">
        <ele>47</ele>
        <time>2021-07-01T15:56:08.000Z</time>
      </trkpt>
      <trkpt lat="43.32333" lon="3.55729">
        <ele>48</ele>
        <time>2021-07-01T15:56:10.000Z</time>
      </trkpt>
      <trkpt lat="43.3234" lon="3.55742">
        <ele>47</ele>
        <time>2021-07-01T15:56:12.000Z</time>
      </trkpt>
      <trkpt lat="43.32347" lon="3.55754">
        <ele>47</ele>
        <time>2021-07-01T15:56:14.000Z</time>
      </trkpt>
      <trkpt lat="43.32354" lon="3.55767">
        <ele>48</ele>
        <time>2021-07-01T15:56:16.000Z</time>
      </trkpt>
      <trkpt lat="43.32361" lon="3.55779">
        <ele>48</ele>
        <time>2021-07-01T15:56:18.000Z</time>
      </trkpt>
      <trkpt lat="43.32368" lon="3.55792">
        <ele>48</ele>
        <time>2021-07-01T15:56:20.000Z</time>
      </trkpt>
      <trkpt lat="43.32378" lon="3.5581">
        <ele>48</ele>
        <time>2021-07-01T15:56:23.000Z</time>
      </trkpt>
      <trkpt lat="43.32388" lon="3.55828">
        <ele>47</ele>
        <time>2021-07-01T15:56:26.000Z</time>
      </trkpt>
      <trkpt lat="43.32396" lon="3.55841">
        <ele>46</ele>
        <time>2021-07-01T15:56:28.000Z</time>
      </trkpt>
      <trkpt lat="43.32403" lon="3.55852">
        <ele>45</ele>
        <time>2021-07-01T15:56:30.000Z</time>
      </trkpt>
      <trkpt lat="43.32409" lon="3.55863">
        <ele>46</ele>
        <time>2021-07-01T15:56:32.000Z</time>
      </trkpt>
      <trkpt lat="43.32416" lon="3.55877">
        <ele>46</ele>
        <time>2021-07-01T15:56:35.000Z</time>
      </trkpt>
      <trkpt lat="43.32423" lon="3.5589">
        <ele>46</ele>
        <time>2021-07-01T15:56:39.000Z</time>
      </trkpt>
      <trkpt lat="43.32428" lon="3.55903">
        <ele>46</ele>
        <time>2021-07-01T15:56:43.000Z</time>
      </trkpt>
      <trkpt lat="43.32435" lon="3.55916">
        <ele>47</ele>
        <time>2021-07-01T15:56:46.000Z</time>
      </trkpt>
      <trkpt lat="43.32443" lon="3.55928">
        <ele>48</ele>
        <time>2021-07-01T15:56:49.000Z</time>
      </trkpt>
      <trkpt lat="43.32447" lon="3.55939">
        <ele>48</ele>
        <time>2021-07-01T15:56:51.000Z</time>
      </trkpt>
      <trkpt lat="43.32455" lon="3.55956">
        <ele>48</ele>
        <time>2021-07-01T15:56:54.000Z</time>
      </trkpt>
      <trkpt lat="43.32463" lon="3.55971">
        <ele>49</ele>
        <time>2021-07-01T15:56:57.000Z</time>
      </trkpt>
      <trkpt lat="43.32468" lon="3.55982">
        <ele>49</ele>
        <time>2021-07-01T15:56:59.000Z</time>
      </trkpt>
      <trkpt lat="43.32474" lon="3.55997">
        <ele>49</ele>
        <time>2021-07-01T15:57:02.000Z</time>
      </trkpt>
      <trkpt lat="43.32478" lon="3.56012">
        <ele>50</ele>
        <time>2021-07-01T15:57:05.000Z</time>
      </trkpt>
      <trkpt lat="43.32486" lon="3.56026">
        <ele>51</ele>
        <time>2021-07-01T15:57:08.000Z</time>
      </trkpt>
      <trkpt lat="43.32498" lon="3.56035">
        <ele>51</ele>
        <time>2021-07-01T15:57:12.000Z</time>
      </trkpt>
      <trkpt lat="43.32506" lon="3.56046">
        <ele>51</ele>
        <time>2021-07-01T15:57:15.000Z</time>
      </trkpt>
      <trkpt lat="43.32512" lon="3.56057">
        <ele>51</ele>
        <time>2021-07-01T15:57:17.000Z</time>
      </trkpt>
      <trkpt lat="43.32521" lon="3.5607">
        <ele>50</ele>
        <time>2021-07-01T15:57:20.000Z</time>
      </trkpt>
      <trkpt lat="43.32533" lon="3.56091">
        <ele>52</ele>
        <time>2021-07-01T15:57:24.000Z</time>
      </trkpt>
      <trkpt lat="43.3254" lon="3.56104">
        <ele>51</ele>
        <time>2021-07-01T15:57:26.000Z</time>
      </trkpt>
      <trkpt lat="43.32546" lon="3.56115">
        <ele>50</ele>
        <time>2021-07-01T15:57:28.000Z</time>
      </trkpt>
      <trkpt lat="43.32553" lon="3.56126">
        <ele>51</ele>
        <time>2021-07-01T15:57:30.000Z</time>
      </trkpt>
      <trkpt lat="43.32559" lon="3.56139">
        <ele>51</ele>
        <time>2021-07-01T15:57:32.000Z</time>
      </trkpt>
      <trkpt lat="43.32566" lon="3.5615">
        <ele>51</ele>
        <time>2021-07-01T15:57:34.000Z</time>
      </trkpt>
      <trkpt lat="43.32576" lon="3.56168">
        <ele>49</ele>
        <time>2021-07-01T15:57:37.000Z</time>
      </trkpt>
      <trkpt lat="43.32583" lon="3.56179">
        <ele>50</ele>
        <time>2021-07-01T15:57:39.000Z</time>
      </trkpt>
      <trkpt lat="43.32589" lon="3.56192">
        <ele>50</ele>
        <time>2021-07-01T15:57:41.000Z</time>
      </trkpt>
      <trkpt lat="43.32594" lon="3.56203">
        <ele>50</ele>
        <time>2021-07-01T15:57:43.000Z</time>
      </trkpt>
      <trkpt lat="43.32599" lon="3.56216">
        <ele>50</ele>
        <time>2021-07-01T15:57:45.000Z</time>
      </trkpt>
      <trkpt lat="43.32605" lon="3.56233">
        <ele>49</ele>
        <time>2021-07-01T15:57:48.000Z</time>
      </trkpt>
      <trkpt lat="43.32607" lon="3.56249">
        <ele>49</ele>
        <time>2021-07-01T15:57:51.000Z</time>
      </trkpt>
      <trkpt lat="43.32611" lon="3.56263">
        <ele>50</ele>
        <time>2021-07-01T15:57:54.000Z</time>
      </trkpt>
      <trkpt lat="43.32622" lon="3.56268">
        <ele>50</ele>
        <time>2021-07-01T15:57:59.000Z</time>
      </trkpt>
      <trkpt lat="43.32626" lon="3.56282">
        <ele>50</ele>
        <time>2021-07-01T15:58:02.000Z</time>
      </trkpt>
      <trkpt lat="43.32632" lon="3.563">
        <ele>50</ele>
        <time>2021-07-01T15:58:05.000Z</time>
      </trkpt>
      <trkpt lat="43.32636" lon="3.56312">
        <ele>50</ele>
        <time>2021-07-01T15:58:07.000Z</time>
      </trkpt>
      <trkpt lat="43.32642" lon="3.56324">
        <ele>50</ele>
        <time>2021-07-01T15:58:09.000Z</time>
      </trkpt>
      <trkpt lat="43.32648" lon="3.5634">
        <ele>48</ele>
        <time>2021-07-01T15:58:11.000Z</time>
      </trkpt>
      <trkpt lat="43.32653" lon="3.56352">
        <ele>49</ele>
        <time>2021-07-01T15:58:13.000Z</time>
      </trkpt>
      <trkpt lat="43.32657" lon="3.56363">
        <ele>49</ele>
        <time>2021-07-01T15:58:15.000Z</time>
      </trkpt>
      <trkpt lat="43.32662" lon="3.56376">
        <ele>49</ele>
        <time>2021-07-01T15:58:17.000Z</time>
      </trkpt>
      <trkpt lat="43.32666" lon="3.56387">
        <ele>49</ele>
        <time>2021-07-01T15:58:19.000Z</time>
      </trkpt>
      <trkpt lat="43.32671" lon="3.56399">
        <ele>50</ele>
        <time>2021-07-01T15:58:21.000Z</time>
      </trkpt>
      <trkpt lat="43.32675" lon="3.56412">
        <ele>50</ele>
        <time>2021-07-01T15:58:23.000Z</time>
      </trkpt>
      <trkpt lat="43.32679" lon="3.56426">
        <ele>50</ele>
        <time>2021-07-01T15:58:25.000Z</time>
      </trkpt>
      <trkpt lat="43.32684" lon="3.56439">
        <ele>51</ele>
        <time>2021-07-01T15:58:27.000Z</time>
      </trkpt>
      <trkpt lat="43.3269" lon="3.56452">
        <ele>51</ele>
        <time>2021-07-01T15:58:29.000Z</time>
      </trkpt>
      <trkpt lat="43.32694" lon="3.56465">
        <ele>51</ele>
        <time>2021-07-01T15:58:31.000Z</time>
      </trkpt>
      <trkpt lat="43.32699" lon="3.56479">
        <ele>51</ele>
        <time>2021-07-01T15:58:33.000Z</time>
      </trkpt>
      <trkpt lat="43.32704" lon="3.56492">
        <ele>52</ele>
        <time>2021-07-01T15:58:35.000Z</time>
      </trkpt>
      <trkpt lat="43.32711" lon="3.56512">
        <ele>52</ele>
        <time>2021-07-01T15:58:38.000Z</time>
      </trkpt>
      <trkpt lat="43.32717" lon="3.56524">
        <ele>52</ele>
        <time>2021-07-01T15:58:40.000Z</time>
      </trkpt>
      <trkpt lat="43.32723" lon="3.56536">
        <ele>52</ele>
        <time>2021-07-01T15:58:42.000Z</time>
      </trkpt>
      <trkpt lat="43.32731" lon="3.56554">
        <ele>52</ele>
        <time>2021-07-01T15:58:45.000Z</time>
      </trkpt>
      <trkpt lat="43.32735" lon="3.56567">
        <ele>52</ele>
        <time>2021-07-01T15:58:47.000Z</time>
      </trkpt>
      <trkpt lat="43.3274" lon="3.56578">
        <ele>52</ele>
        <time>2021-07-01T15:58:49.000Z</time>
      </trkpt>
      <trkpt lat="43.32746" lon="3.5659">
        <ele>51</ele>
        <time>2021-07-01T15:58:51.000Z</time>
      </trkpt>
      <trkpt lat="43.32756" lon="3.56607">
        <ele>51</ele>
        <time>2021-07-01T15:58:54.000Z</time>
      </trkpt>
      <trkpt lat="43.32761" lon="3.56621">
        <ele>50</ele>
        <time>2021-07-01T15:58:56.000Z</time>
      </trkpt>
      <trkpt lat="43.32768" lon="3.56634">
        <ele>50</ele>
        <time>2021-07-01T15:58:58.000Z</time>
      </trkpt>
      <trkpt lat="43.32772" lon="3.56645">
        <ele>51</ele>
        <time>2021-07-01T15:59:00.000Z</time>
      </trkpt>
      <trkpt lat="43.32781" lon="3.56656">
        <ele>50</ele>
        <time>2021-07-01T15:59:04.000Z</time>
      </trkpt>
      <trkpt lat="43.32786" lon="3.56644">
        <ele>49</ele>
        <time>2021-07-01T15:59:11.000Z</time>
      </trkpt>
      <trkpt lat="43.32786" lon="3.56659">
        <ele>43</ele>
        <time>2021-07-01T16:04:26.000Z</time>
      </trkpt>
      <trkpt lat="43.32786" lon="3.56673">
        <ele>46</ele>
        <time>2021-07-01T16:04:32.000Z</time>
      </trkpt>
      <trkpt lat="43.32793" lon="3.56685">
        <ele>45</ele>
        <time>2021-07-01T16:04:36.000Z</time>
      </trkpt>
      <trkpt lat="43.32799" lon="3.56696">
        <ele>45</ele>
        <time>2021-07-01T16:04:39.000Z</time>
      </trkpt>
      <trkpt lat="43.32805" lon="3.56706">
        <ele>46</ele>
        <time>2021-07-01T16:04:42.000Z</time>
      </trkpt>
      <trkpt lat="43.32812" lon="3.56716">
        <ele>46</ele>
        <time>2021-07-01T16:04:45.000Z</time>
      </trkpt>
      <trkpt lat="43.32819" lon="3.56729">
        <ele>45</ele>
        <time>2021-07-01T16:04:48.000Z</time>
      </trkpt>
      <trkpt lat="43.32828" lon="3.56743">
        <ele>45</ele>
        <time>2021-07-01T16:04:51.000Z</time>
      </trkpt>
      <trkpt lat="43.32835" lon="3.56753">
        <ele>45</ele>
        <time>2021-07-01T16:04:53.000Z</time>
      </trkpt>
      <trkpt lat="43.32841" lon="3.56763">
        <ele>46</ele>
        <time>2021-07-01T16:04:55.000Z</time>
      </trkpt>
      <trkpt lat="43.32847" lon="3.56773">
        <ele>45</ele>
        <time>2021-07-01T16:04:57.000Z</time>
      </trkpt>
      <trkpt lat="43.32854" lon="3.56784">
        <ele>45</ele>
        <time>2021-07-01T16:04:59.000Z</time>
      </trkpt>
      <trkpt lat="43.32861" lon="3.56794">
        <ele>44</ele>
        <time>2021-07-01T16:05:01.000Z</time>
      </trkpt>
      <trkpt lat="43.32868" lon="3.56804">
        <ele>45</ele>
        <time>2021-07-01T16:05:03.000Z</time>
      </trkpt>
      <trkpt lat="43.32876" lon="3.56813">
        <ele>45</ele>
        <time>2021-07-01T16:05:05.000Z</time>
      </trkpt>
      <trkpt lat="43.32884" lon="3.56824">
        <ele>45</ele>
        <time>2021-07-01T16:05:07.000Z</time>
      </trkpt>
      <trkpt lat="43.32892" lon="3.56833">
        <ele>45</ele>
        <time>2021-07-01T16:05:09.000Z</time>
      </trkpt>
      <trkpt lat="43.329" lon="3.56843">
        <ele>46</ele>
        <time>2021-07-01T16:05:11.000Z</time>
      </trkpt>
      <trkpt lat="43.32908" lon="3.56852">
        <ele>46</ele>
        <time>2021-07-01T16:05:13.000Z</time>
      </trkpt>
      <trkpt lat="43.32915" lon="3.56861">
        <ele>46</ele>
        <time>2021-07-01T16:05:15.000Z</time>
      </trkpt>
      <trkpt lat="43.32922" lon="3.56871">
        <ele>46</ele>
        <time>2021-07-01T16:05:17.000Z</time>
      </trkpt>
      <trkpt lat="43.32931" lon="3.5688">
        <ele>46</ele>
        <time>2021-07-01T16:05:19.000Z</time>
      </trkpt>
      <trkpt lat="43.32939" lon="3.56889">
        <ele>46</ele>
        <time>2021-07-01T16:05:21.000Z</time>
      </trkpt>
      <trkpt lat="43.32946" lon="3.569">
        <ele>46</ele>
        <time>2021-07-01T16:05:23.000Z</time>
      </trkpt>
      <trkpt lat="43.32956" lon="3.56909">
        <ele>45</ele>
        <time>2021-07-01T16:05:25.000Z</time>
      </trkpt>
      <trkpt lat="43.32965" lon="3.56919">
        <ele>45</ele>
        <time>2021-07-01T16:05:27.000Z</time>
      </trkpt>
      <trkpt lat="43.32974" lon="3.56929">
        <ele>46</ele>
        <time>2021-07-01T16:05:29.000Z</time>
      </trkpt>
      <trkpt lat="43.32983" lon="3.5694">
        <ele>46</ele>
        <time>2021-07-01T16:05:31.000Z</time>
      </trkpt>
      <trkpt lat="43.32991" lon="3.56951">
        <ele>46</ele>
        <time>2021-07-01T16:05:33.000Z</time>
      </trkpt>
      <trkpt lat="43.33" lon="3.56961">
        <ele>46</ele>
        <time>2021-07-01T16:05:35.000Z</time>
      </trkpt>
      <trkpt lat="43.33009" lon="3.56971">
        <ele>45</ele>
        <time>2021-07-01T16:05:37.000Z</time>
      </trkpt>
      <trkpt lat="43.33018" lon="3.56982">
        <ele>45</ele>
        <time>2021-07-01T16:05:39.000Z</time>
      </trkpt>
      <trkpt lat="43.33026" lon="3.56993">
        <ele>45</ele>
        <time>2021-07-01T16:05:41.000Z</time>
      </trkpt>
      <trkpt lat="43.3304" lon="3.5701">
        <ele>45</ele>
        <time>2021-07-01T16:05:44.000Z</time>
      </trkpt>
      <trkpt lat="43.33049" lon="3.57021">
        <ele>45</ele>
        <time>2021-07-01T16:05:46.000Z</time>
      </trkpt>
      <trkpt lat="43.33059" lon="3.57031">
        <ele>44</ele>
        <time>2021-07-01T16:05:48.000Z</time>
      </trkpt>
      <trkpt lat="43.33068" lon="3.57041">
        <ele>44</ele>
        <time>2021-07-01T16:05:50.000Z</time>
      </trkpt>
      <trkpt lat="43.33077" lon="3.57052">
        <ele>44</ele>
        <time>2021-07-01T16:05:52.000Z</time>
      </trkpt>
      <trkpt lat="43.33086" lon="3.57063">
        <ele>44</ele>
        <time>2021-07-01T16:05:54.000Z</time>
      </trkpt>
      <trkpt lat="43.33095" lon="3.57073">
        <ele>44</ele>
        <time>2021-07-01T16:05:56.000Z</time>
      </trkpt>
      <trkpt lat="43.33104" lon="3.57084">
        <ele>45</ele>
        <time>2021-07-01T16:05:58.000Z</time>
      </trkpt>
      <trkpt lat="43.3312" lon="3.57098">
        <ele>44</ele>
        <time>2021-07-01T16:06:01.000Z</time>
      </trkpt>
      <trkpt lat="43.33129" lon="3.57108">
        <ele>44</ele>
        <time>2021-07-01T16:06:03.000Z</time>
      </trkpt>
      <trkpt lat="43.33139" lon="3.57119">
        <ele>43</ele>
        <time>2021-07-01T16:06:05.000Z</time>
      </trkpt>
      <trkpt lat="43.33149" lon="3.57132">
        <ele>43</ele>
        <time>2021-07-01T16:06:07.000Z</time>
      </trkpt>
      <trkpt lat="43.33159" lon="3.57146">
        <ele>43</ele>
        <time>2021-07-01T16:06:09.000Z</time>
      </trkpt>
      <trkpt lat="43.33168" lon="3.57158">
        <ele>43</ele>
        <time>2021-07-01T16:06:11.000Z</time>
      </trkpt>
      <trkpt lat="43.33176" lon="3.57168">
        <ele>43</ele>
        <time>2021-07-01T16:06:13.000Z</time>
      </trkpt>
      <trkpt lat="43.33185" lon="3.57179">
        <ele>44</ele>
        <time>2021-07-01T16:06:15.000Z</time>
      </trkpt>
      <trkpt lat="43.332" lon="3.57196">
        <ele>44</ele>
        <time>2021-07-01T16:06:18.000Z</time>
      </trkpt>
      <trkpt lat="43.3321" lon="3.57205">
        <ele>44</ele>
        <time>2021-07-01T16:06:20.000Z</time>
      </trkpt>
      <trkpt lat="43.33217" lon="3.57216">
        <ele>44</ele>
        <time>2021-07-01T16:06:22.000Z</time>
      </trkpt>
      <trkpt lat="43.33225" lon="3.57227">
        <ele>44</ele>
        <time>2021-07-01T16:06:24.000Z</time>
      </trkpt>
      <trkpt lat="43.33236" lon="3.57238">
        <ele>42</ele>
        <time>2021-07-01T16:06:26.000Z</time>
      </trkpt>
      <trkpt lat="43.33244" lon="3.5725">
        <ele>42</ele>
        <time>2021-07-01T16:06:28.000Z</time>
      </trkpt>
      <trkpt lat="43.33255" lon="3.5726">
        <ele>42</ele>
        <time>2021-07-01T16:06:30.000Z</time>
      </trkpt>
      <trkpt lat="43.33265" lon="3.57272">
        <ele>42</ele>
        <time>2021-07-01T16:06:32.000Z</time>
      </trkpt>
      <trkpt lat="43.3328" lon="3.57289">
        <ele>42</ele>
        <time>2021-07-01T16:06:35.000Z</time>
      </trkpt>
      <trkpt lat="43.3329" lon="3.57301">
        <ele>42</ele>
        <time>2021-07-01T16:06:37.000Z</time>
      </trkpt>
      <trkpt lat="43.33299" lon="3.57312">
        <ele>41</ele>
        <time>2021-07-01T16:06:39.000Z</time>
      </trkpt>
      <trkpt lat="43.33309" lon="3.57323">
        <ele>41</ele>
        <time>2021-07-01T16:06:41.000Z</time>
      </trkpt>
      <trkpt lat="43.33324" lon="3.57339">
        <ele>40</ele>
        <time>2021-07-01T16:06:44.000Z</time>
      </trkpt>
      <trkpt lat="43.33333" lon="3.5735">
        <ele>40</ele>
        <time>2021-07-01T16:06:46.000Z</time>
      </trkpt>
      <trkpt lat="43.33341" lon="3.5736">
        <ele>40</ele>
        <time>2021-07-01T16:06:48.000Z</time>
      </trkpt>
      <trkpt lat="43.33349" lon="3.5737">
        <ele>41</ele>
        <time>2021-07-01T16:06:50.000Z</time>
      </trkpt>
      <trkpt lat="43.33357" lon="3.5738">
        <ele>40</ele>
        <time>2021-07-01T16:06:52.000Z</time>
      </trkpt>
      <trkpt lat="43.33365" lon="3.57389">
        <ele>40</ele>
        <time>2021-07-01T16:06:54.000Z</time>
      </trkpt>
      <trkpt lat="43.33374" lon="3.57399">
        <ele>41</ele>
        <time>2021-07-01T16:06:56.000Z</time>
      </trkpt>
      <trkpt lat="43.33383" lon="3.5741">
        <ele>42</ele>
        <time>2021-07-01T16:06:58.000Z</time>
      </trkpt>
      <trkpt lat="43.33397" lon="3.57425">
        <ele>40</ele>
        <time>2021-07-01T16:07:01.000Z</time>
      </trkpt>
      <trkpt lat="43.33407" lon="3.57435">
        <ele>40</ele>
        <time>2021-07-01T16:07:03.000Z</time>
      </trkpt>
      <trkpt lat="43.33416" lon="3.57446">
        <ele>40</ele>
        <time>2021-07-01T16:07:05.000Z</time>
      </trkpt>
      <trkpt lat="43.33425" lon="3.57458">
        <ele>41</ele>
        <time>2021-07-01T16:07:07.000Z</time>
      </trkpt>
      <trkpt lat="43.33434" lon="3.57469">
        <ele>41</ele>
        <time>2021-07-01T16:07:09.000Z</time>
      </trkpt>
      <trkpt lat="43.33444" lon="3.57479">
        <ele>41</ele>
        <time>2021-07-01T16:07:11.000Z</time>
      </trkpt>
      <trkpt lat="43.33455" lon="3.57488">
        <ele>41</ele>
        <time>2021-07-01T16:07:13.000Z</time>
      </trkpt>
      <trkpt lat="43.33466" lon="3.57494">
        <ele>42</ele>
        <time>2021-07-01T16:07:15.000Z</time>
      </trkpt>
      <trkpt lat="43.33475" lon="3.57502">
        <ele>43</ele>
        <time>2021-07-01T16:07:17.000Z</time>
      </trkpt>
      <trkpt lat="43.33485" lon="3.57507">
        <ele>43</ele>
        <time>2021-07-01T16:07:19.000Z</time>
      </trkpt>
      <trkpt lat="43.33496" lon="3.5751">
        <ele>43</ele>
        <time>2021-07-01T16:07:21.000Z</time>
      </trkpt>
      <trkpt lat="43.33505" lon="3.57498">
        <ele>44</ele>
        <time>2021-07-01T16:07:23.000Z</time>
      </trkpt>
      <trkpt lat="43.33511" lon="3.57485">
        <ele>45</ele>
        <time>2021-07-01T16:07:25.000Z</time>
      </trkpt>
      <trkpt lat="43.33518" lon="3.57474">
        <ele>44</ele>
        <time>2021-07-01T16:07:27.000Z</time>
      </trkpt>
      <trkpt lat="43.33524" lon="3.57463">
        <ele>43</ele>
        <time>2021-07-01T16:07:29.000Z</time>
      </trkpt>
      <trkpt lat="43.33534" lon="3.57454">
        <ele>44</ele>
        <time>2021-07-01T16:07:32.000Z</time>
      </trkpt>
      <trkpt lat="43.33545" lon="3.57467">
        <ele>43</ele>
        <time>2021-07-01T16:07:35.000Z</time>
      </trkpt>
      <trkpt lat="43.33553" lon="3.57477">
        <ele>43</ele>
        <time>2021-07-01T16:07:37.000Z</time>
      </trkpt>
      <trkpt lat="43.33561" lon="3.57487">
        <ele>42</ele>
        <time>2021-07-01T16:07:39.000Z</time>
      </trkpt>
      <trkpt lat="43.33568" lon="3.57497">
        <ele>42</ele>
        <time>2021-07-01T16:07:41.000Z</time>
      </trkpt>
      <trkpt lat="43.33576" lon="3.57508">
        <ele>42</ele>
        <time>2021-07-01T16:07:43.000Z</time>
      </trkpt>
      <trkpt lat="43.33585" lon="3.5752">
        <ele>42</ele>
        <time>2021-07-01T16:07:45.000Z</time>
      </trkpt>
      <trkpt lat="43.33593" lon="3.5753">
        <ele>42</ele>
        <time>2021-07-01T16:07:47.000Z</time>
      </trkpt>
      <trkpt lat="43.33601" lon="3.57541">
        <ele>42</ele>
        <time>2021-07-01T16:07:49.000Z</time>
      </trkpt>
      <trkpt lat="43.3361" lon="3.57552">
        <ele>41</ele>
        <time>2021-07-01T16:07:51.000Z</time>
      </trkpt>
      <trkpt lat="43.33623" lon="3.57566">
        <ele>41</ele>
        <time>2021-07-01T16:07:54.000Z</time>
      </trkpt>
      <trkpt lat="43.33631" lon="3.57578">
        <ele>41</ele>
        <time>2021-07-01T16:07:56.000Z</time>
      </trkpt>
      <trkpt lat="43.33639" lon="3.57588">
        <ele>40</ele>
        <time>2021-07-01T16:07:58.000Z</time>
      </trkpt>
      <trkpt lat="43.33648" lon="3.576">
        <ele>41</ele>
        <time>2021-07-01T16:08:00.000Z</time>
      </trkpt>
      <trkpt lat="43.33657" lon="3.5761">
        <ele>40</ele>
        <time>2021-07-01T16:08:02.000Z</time>
      </trkpt>
      <trkpt lat="43.33664" lon="3.57621">
        <ele>40</ele>
        <time>2021-07-01T16:08:04.000Z</time>
      </trkpt>
      <trkpt lat="43.33673" lon="3.57632">
        <ele>40</ele>
        <time>2021-07-01T16:08:06.000Z</time>
      </trkpt>
      <trkpt lat="43.33681" lon="3.57643">
        <ele>40</ele>
        <time>2021-07-01T16:08:08.000Z</time>
      </trkpt>
      <trkpt lat="43.33691" lon="3.57655">
        <ele>40</ele>
        <time>2021-07-01T16:08:10.000Z</time>
      </trkpt>
      <trkpt lat="43.33699" lon="3.57667">
        <ele>40</ele>
        <time>2021-07-01T16:08:12.000Z</time>
      </trkpt>
      <trkpt lat="43.33707" lon="3.57677">
        <ele>40</ele>
        <time>2021-07-01T16:08:14.000Z</time>
      </trkpt>
      <trkpt lat="43.33719" lon="3.57693">
        <ele>40</ele>
        <time>2021-07-01T16:08:17.000Z</time>
      </trkpt>
      <trkpt lat="43.33727" lon="3.57705">
        <ele>40</ele>
        <time>2021-07-01T16:08:19.000Z</time>
      </trkpt>
      <trkpt lat="43.33735" lon="3.57716">
        <ele>41</ele>
        <time>2021-07-01T16:08:21.000Z</time>
      </trkpt>
      <trkpt lat="43.33743" lon="3.57725">
        <ele>41</ele>
        <time>2021-07-01T16:08:23.000Z</time>
      </trkpt>
      <trkpt lat="43.33746" lon="3.57754">
        <ele>42</ele>
        <time>2021-07-01T16:08:27.000Z</time>
      </trkpt>
      <trkpt lat="43.33742" lon="3.57766">
        <ele>44</ele>
        <time>2021-07-01T16:08:29.000Z</time>
      </trkpt>
      <trkpt lat="43.33735" lon="3.57777">
        <ele>46</ele>
        <time>2021-07-01T16:08:32.000Z</time>
      </trkpt>
      <trkpt lat="43.33726" lon="3.57786">
        <ele>45</ele>
        <time>2021-07-01T16:08:35.000Z</time>
      </trkpt>
      <trkpt lat="43.33718" lon="3.57798">
        <ele>47</ele>
        <time>2021-07-01T16:08:38.000Z</time>
      </trkpt>
      <trkpt lat="43.3371" lon="3.57809">
        <ele>48</ele>
        <time>2021-07-01T16:08:41.000Z</time>
      </trkpt>
      <trkpt lat="43.33717" lon="3.57825">
        <ele>47</ele>
        <time>2021-07-01T16:08:45.000Z</time>
      </trkpt>
      <trkpt lat="43.33726" lon="3.57835">
        <ele>48</ele>
        <time>2021-07-01T16:08:48.000Z</time>
      </trkpt>
      <trkpt lat="43.33735" lon="3.57845">
        <ele>47</ele>
        <time>2021-07-01T16:08:51.000Z</time>
      </trkpt>
      <trkpt lat="43.33743" lon="3.57854">
        <ele>46</ele>
        <time>2021-07-01T16:08:53.000Z</time>
      </trkpt>
      <trkpt lat="43.3375" lon="3.57863">
        <ele>46</ele>
        <time>2021-07-01T16:08:55.000Z</time>
      </trkpt>
      <trkpt lat="43.33757" lon="3.57871">
        <ele>45</ele>
        <time>2021-07-01T16:08:57.000Z</time>
      </trkpt>
      <trkpt lat="43.33768" lon="3.57885">
        <ele>45</ele>
        <time>2021-07-01T16:09:00.000Z</time>
      </trkpt>
      <trkpt lat="43.33776" lon="3.57895">
        <ele>44</ele>
        <time>2021-07-01T16:09:02.000Z</time>
      </trkpt>
      <trkpt lat="43.33784" lon="3.57904">
        <ele>44</ele>
        <time>2021-07-01T16:09:04.000Z</time>
      </trkpt>
      <trkpt lat="43.33792" lon="3.57913">
        <ele>44</ele>
        <time>2021-07-01T16:09:06.000Z</time>
      </trkpt>
      <trkpt lat="43.338" lon="3.57923">
        <ele>44</ele>
        <time>2021-07-01T16:09:08.000Z</time>
      </trkpt>
      <trkpt lat="43.33809" lon="3.57932">
        <ele>43</ele>
        <time>2021-07-01T16:09:10.000Z</time>
      </trkpt>
      <trkpt lat="43.33818" lon="3.57942">
        <ele>43</ele>
        <time>2021-07-01T16:09:12.000Z</time>
      </trkpt>
      <trkpt lat="43.33827" lon="3.57954">
        <ele>43</ele>
        <time>2021-07-01T16:09:14.000Z</time>
      </trkpt>
      <trkpt lat="43.33835" lon="3.57964">
        <ele>43</ele>
        <time>2021-07-01T16:09:16.000Z</time>
      </trkpt>
      <trkpt lat="43.33849" lon="3.57981">
        <ele>43</ele>
        <time>2021-07-01T16:09:19.000Z</time>
      </trkpt>
      <trkpt lat="43.33858" lon="3.57993">
        <ele>42</ele>
        <time>2021-07-01T16:09:21.000Z</time>
      </trkpt>
      <trkpt lat="43.33866" lon="3.58003">
        <ele>42</ele>
        <time>2021-07-01T16:09:23.000Z</time>
      </trkpt>
      <trkpt lat="43.33874" lon="3.58014">
        <ele>43</ele>
        <time>2021-07-01T16:09:25.000Z</time>
      </trkpt>
      <trkpt lat="43.33881" lon="3.58023">
        <ele>44</ele>
        <time>2021-07-01T16:09:27.000Z</time>
      </trkpt>
      <trkpt lat="43.33891" lon="3.58034">
        <ele>43</ele>
        <time>2021-07-01T16:09:29.000Z</time>
      </trkpt>
      <trkpt lat="43.33899" lon="3.58045">
        <ele>44</ele>
        <time>2021-07-01T16:09:31.000Z</time>
      </trkpt>
      <trkpt lat="43.33908" lon="3.58055">
        <ele>45</ele>
        <time>2021-07-01T16:09:33.000Z</time>
      </trkpt>
      <trkpt lat="43.33916" lon="3.58067">
        <ele>45</ele>
        <time>2021-07-01T16:09:35.000Z</time>
      </trkpt>
      <trkpt lat="43.33925" lon="3.58077">
        <ele>44</ele>
        <time>2021-07-01T16:09:37.000Z</time>
      </trkpt>
      <trkpt lat="43.33933" lon="3.58087">
        <ele>45</ele>
        <time>2021-07-01T16:09:39.000Z</time>
      </trkpt>
      <trkpt lat="43.33945" lon="3.58103">
        <ele>46</ele>
        <time>2021-07-01T16:09:42.000Z</time>
      </trkpt>
      <trkpt lat="43.33954" lon="3.58114">
        <ele>46</ele>
        <time>2021-07-01T16:09:44.000Z</time>
      </trkpt>
      <trkpt lat="43.33964" lon="3.58125">
        <ele>46</ele>
        <time>2021-07-01T16:09:46.000Z</time>
      </trkpt>
      <trkpt lat="43.33972" lon="3.58133">
        <ele>46</ele>
        <time>2021-07-01T16:09:48.000Z</time>
      </trkpt>
      <trkpt lat="43.3398" lon="3.58143">
        <ele>47</ele>
        <time>2021-07-01T16:09:50.000Z</time>
      </trkpt>
      <trkpt lat="43.3399" lon="3.58155">
        <ele>47</ele>
        <time>2021-07-01T16:09:53.000Z</time>
      </trkpt>
      <trkpt lat="43.34" lon="3.58165">
        <ele>47</ele>
        <time>2021-07-01T16:09:55.000Z</time>
      </trkpt>
      <trkpt lat="43.34008" lon="3.58177">
        <ele>48</ele>
        <time>2021-07-01T16:09:57.000Z</time>
      </trkpt>
      <trkpt lat="43.34016" lon="3.58187">
        <ele>49</ele>
        <time>2021-07-01T16:09:59.000Z</time>
      </trkpt>
      <trkpt lat="43.34024" lon="3.58197">
        <ele>48</ele>
        <time>2021-07-01T16:10:01.000Z</time>
      </trkpt>
      <trkpt lat="43.34037" lon="3.58213">
        <ele>48</ele>
        <time>2021-07-01T16:10:04.000Z</time>
      </trkpt>
      <trkpt lat="43.34045" lon="3.58223">
        <ele>47</ele>
        <time>2021-07-01T16:10:06.000Z</time>
      </trkpt>
      <trkpt lat="43.34054" lon="3.58233">
        <ele>47</ele>
        <time>2021-07-01T16:10:08.000Z</time>
      </trkpt>
      <trkpt lat="43.34064" lon="3.58243">
        <ele>45</ele>
        <time>2021-07-01T16:10:10.000Z</time>
      </trkpt>
      <trkpt lat="43.34073" lon="3.58253">
        <ele>45</ele>
        <time>2021-07-01T16:10:12.000Z</time>
      </trkpt>
      <trkpt lat="43.34081" lon="3.58262">
        <ele>45</ele>
        <time>2021-07-01T16:10:14.000Z</time>
      </trkpt>
      <trkpt lat="43.34089" lon="3.58272">
        <ele>46</ele>
        <time>2021-07-01T16:10:16.000Z</time>
      </trkpt>
      <trkpt lat="43.34098" lon="3.58285">
        <ele>45</ele>
        <time>2021-07-01T16:10:18.000Z</time>
      </trkpt>
      <trkpt lat="43.34106" lon="3.58295">
        <ele>46</ele>
        <time>2021-07-01T16:10:20.000Z</time>
      </trkpt>
      <trkpt lat="43.34114" lon="3.58305">
        <ele>47</ele>
        <time>2021-07-01T16:10:22.000Z</time>
      </trkpt>
      <trkpt lat="43.34122" lon="3.58315">
        <ele>47</ele>
        <time>2021-07-01T16:10:24.000Z</time>
      </trkpt>
      <trkpt lat="43.3413" lon="3.58325">
        <ele>47</ele>
        <time>2021-07-01T16:10:26.000Z</time>
      </trkpt>
      <trkpt lat="43.34139" lon="3.58336">
        <ele>46</ele>
        <time>2021-07-01T16:10:28.000Z</time>
      </trkpt>
      <trkpt lat="43.34147" lon="3.58346">
        <ele>47</ele>
        <time>2021-07-01T16:10:30.000Z</time>
      </trkpt>
      <trkpt lat="43.34156" lon="3.58356">
        <ele>47</ele>
        <time>2021-07-01T16:10:32.000Z</time>
      </trkpt>
      <trkpt lat="43.34164" lon="3.58366">
        <ele>47</ele>
        <time>2021-07-01T16:10:34.000Z</time>
      </trkpt>
      <trkpt lat="43.34172" lon="3.58376">
        <ele>47</ele>
        <time>2021-07-01T16:10:36.000Z</time>
      </trkpt>
      <trkpt lat="43.3418" lon="3.58386">
        <ele>48</ele>
        <time>2021-07-01T16:10:38.000Z</time>
      </trkpt>
      <trkpt lat="43.34188" lon="3.58395">
        <ele>48</ele>
        <time>2021-07-01T16:10:40.000Z</time>
      </trkpt>
      <trkpt lat="43.34199" lon="3.5841">
        <ele>48</ele>
        <time>2021-07-01T16:10:43.000Z</time>
      </trkpt>
      <trkpt lat="43.34207" lon="3.5842">
        <ele>48</ele>
        <time>2021-07-01T16:10:45.000Z</time>
      </trkpt>
      <trkpt lat="43.34215" lon="3.58429">
        <ele>48</ele>
        <time>2021-07-01T16:10:47.000Z</time>
      </trkpt>
      <trkpt lat="43.34223" lon="3.58438">
        <ele>48</ele>
        <time>2021-07-01T16:10:49.000Z</time>
      </trkpt>
      <trkpt lat="43.34231" lon="3.58447">
        <ele>48</ele>
        <time>2021-07-01T16:10:51.000Z</time>
      </trkpt>
      <trkpt lat="43.34239" lon="3.58457">
        <ele>48</ele>
        <time>2021-07-01T16:10:53.000Z</time>
      </trkpt>
      <trkpt lat="43.34247" lon="3.58468">
        <ele>49</ele>
        <time>2021-07-01T16:10:55.000Z</time>
      </trkpt>
      <trkpt lat="43.34254" lon="3.58478">
        <ele>49</ele>
        <time>2021-07-01T16:10:57.000Z</time>
      </trkpt>
      <trkpt lat="43.34262" lon="3.58489">
        <ele>49</ele>
        <time>2021-07-01T16:10:59.000Z</time>
      </trkpt>
      <trkpt lat="43.3427" lon="3.58498">
        <ele>49</ele>
        <time>2021-07-01T16:11:01.000Z</time>
      </trkpt>
      <trkpt lat="43.34278" lon="3.58508">
        <ele>50</ele>
        <time>2021-07-01T16:11:03.000Z</time>
      </trkpt>
      <trkpt lat="43.34286" lon="3.58517">
        <ele>50</ele>
        <time>2021-07-01T16:11:05.000Z</time>
      </trkpt>
      <trkpt lat="43.34293" lon="3.58527">
        <ele>50</ele>
        <time>2021-07-01T16:11:07.000Z</time>
      </trkpt>
      <trkpt lat="43.34302" lon="3.58537">
        <ele>49</ele>
        <time>2021-07-01T16:11:09.000Z</time>
      </trkpt>
      <trkpt lat="43.3431" lon="3.58547">
        <ele>49</ele>
        <time>2021-07-01T16:11:11.000Z</time>
      </trkpt>
      <trkpt lat="43.34319" lon="3.58556">
        <ele>48</ele>
        <time>2021-07-01T16:11:13.000Z</time>
      </trkpt>
      <trkpt lat="43.34327" lon="3.58567">
        <ele>48</ele>
        <time>2021-07-01T16:11:15.000Z</time>
      </trkpt>
      <trkpt lat="43.34334" lon="3.58576">
        <ele>48</ele>
        <time>2021-07-01T16:11:17.000Z</time>
      </trkpt>
      <trkpt lat="43.34343" lon="3.58585">
        <ele>48</ele>
        <time>2021-07-01T16:11:19.000Z</time>
      </trkpt>
      <trkpt lat="43.34351" lon="3.58595">
        <ele>47</ele>
        <time>2021-07-01T16:11:21.000Z</time>
      </trkpt>
      <trkpt lat="43.34358" lon="3.58607">
        <ele>48</ele>
        <time>2021-07-01T16:11:23.000Z</time>
      </trkpt>
      <trkpt lat="43.34366" lon="3.58617">
        <ele>48</ele>
        <time>2021-07-01T16:11:25.000Z</time>
      </trkpt>
      <trkpt lat="43.34374" lon="3.58627">
        <ele>48</ele>
        <time>2021-07-01T16:11:27.000Z</time>
      </trkpt>
      <trkpt lat="43.34382" lon="3.58637">
        <ele>49</ele>
        <time>2021-07-01T16:11:29.000Z</time>
      </trkpt>
      <trkpt lat="43.3439" lon="3.58647">
        <ele>49</ele>
        <time>2021-07-01T16:11:31.000Z</time>
      </trkpt>
      <trkpt lat="43.34398" lon="3.58657">
        <ele>49</ele>
        <time>2021-07-01T16:11:33.000Z</time>
      </trkpt>
      <trkpt lat="43.34411" lon="3.58674">
        <ele>48</ele>
        <time>2021-07-01T16:11:36.000Z</time>
      </trkpt>
      <trkpt lat="43.34419" lon="3.58685">
        <ele>48</ele>
        <time>2021-07-01T16:11:38.000Z</time>
      </trkpt>
      <trkpt lat="43.34427" lon="3.58695">
        <ele>48</ele>
        <time>2021-07-01T16:11:40.000Z</time>
      </trkpt>
      <trkpt lat="43.34435" lon="3.58704">
        <ele>48</ele>
        <time>2021-07-01T16:11:42.000Z</time>
      </trkpt>
      <trkpt lat="43.34445" lon="3.58714">
        <ele>48</ele>
        <time>2021-07-01T16:11:44.000Z</time>
      </trkpt>
      <trkpt lat="43.34453" lon="3.58726">
        <ele>48</ele>
        <time>2021-07-01T16:11:46.000Z</time>
      </trkpt>
      <trkpt lat="43.34461" lon="3.58736">
        <ele>47</ele>
        <time>2021-07-01T16:11:48.000Z</time>
      </trkpt>
      <trkpt lat="43.34469" lon="3.58745">
        <ele>46</ele>
        <time>2021-07-01T16:11:50.000Z</time>
      </trkpt>
      <trkpt lat="43.34478" lon="3.58755">
        <ele>46</ele>
        <time>2021-07-01T16:11:52.000Z</time>
      </trkpt>
      <trkpt lat="43.34488" lon="3.58764">
        <ele>45</ele>
        <time>2021-07-01T16:11:54.000Z</time>
      </trkpt>
      <trkpt lat="43.34495" lon="3.58775">
        <ele>45</ele>
        <time>2021-07-01T16:11:56.000Z</time>
      </trkpt>
      <trkpt lat="43.34503" lon="3.58786">
        <ele>46</ele>
        <time>2021-07-01T16:11:58.000Z</time>
      </trkpt>
      <trkpt lat="43.34512" lon="3.58796">
        <ele>46</ele>
        <time>2021-07-01T16:12:00.000Z</time>
      </trkpt>
      <trkpt lat="43.3452" lon="3.58807">
        <ele>45</ele>
        <time>2021-07-01T16:12:02.000Z</time>
      </trkpt>
      <trkpt lat="43.34528" lon="3.58817">
        <ele>45</ele>
        <time>2021-07-01T16:12:04.000Z</time>
      </trkpt>
      <trkpt lat="43.34537" lon="3.58828">
        <ele>45</ele>
        <time>2021-07-01T16:12:06.000Z</time>
      </trkpt>
      <trkpt lat="43.34545" lon="3.58838">
        <ele>45</ele>
        <time>2021-07-01T16:12:08.000Z</time>
      </trkpt>
      <trkpt lat="43.34553" lon="3.5885">
        <ele>44</ele>
        <time>2021-07-01T16:12:10.000Z</time>
      </trkpt>
      <trkpt lat="43.34562" lon="3.58859">
        <ele>44</ele>
        <time>2021-07-01T16:12:12.000Z</time>
      </trkpt>
      <trkpt lat="43.34571" lon="3.58866">
        <ele>44</ele>
        <time>2021-07-01T16:12:14.000Z</time>
      </trkpt>
      <trkpt lat="43.34578" lon="3.58876">
        <ele>44</ele>
        <time>2021-07-01T16:12:16.000Z</time>
      </trkpt>
      <trkpt lat="43.34586" lon="3.58887">
        <ele>43</ele>
        <time>2021-07-01T16:12:18.000Z</time>
      </trkpt>
      <trkpt lat="43.34595" lon="3.58898">
        <ele>43</ele>
        <time>2021-07-01T16:12:20.000Z</time>
      </trkpt>
      <trkpt lat="43.34604" lon="3.58909">
        <ele>43</ele>
        <time>2021-07-01T16:12:22.000Z</time>
      </trkpt>
      <trkpt lat="43.34612" lon="3.5892">
        <ele>43</ele>
        <time>2021-07-01T16:12:24.000Z</time>
      </trkpt>
      <trkpt lat="43.3462" lon="3.5893">
        <ele>44</ele>
        <time>2021-07-01T16:12:26.000Z</time>
      </trkpt>
      <trkpt lat="43.34632" lon="3.58944">
        <ele>44</ele>
        <time>2021-07-01T16:12:29.000Z</time>
      </trkpt>
      <trkpt lat="43.34639" lon="3.58954">
        <ele>45</ele>
        <time>2021-07-01T16:12:31.000Z</time>
      </trkpt>
      <trkpt lat="43.34646" lon="3.58964">
        <ele>46</ele>
        <time>2021-07-01T16:12:33.000Z</time>
      </trkpt>
      <trkpt lat="43.34658" lon="3.58978">
        <ele>47</ele>
        <time>2021-07-01T16:12:36.000Z</time>
      </trkpt>
      <trkpt lat="43.34666" lon="3.58988">
        <ele>47</ele>
        <time>2021-07-01T16:12:38.000Z</time>
      </trkpt>
      <trkpt lat="43.34674" lon="3.58999">
        <ele>47</ele>
        <time>2021-07-01T16:12:40.000Z</time>
      </trkpt>
      <trkpt lat="43.34682" lon="3.5901">
        <ele>47</ele>
        <time>2021-07-01T16:12:42.000Z</time>
      </trkpt>
      <trkpt lat="43.34691" lon="3.59021">
        <ele>46</ele>
        <time>2021-07-01T16:12:44.000Z</time>
      </trkpt>
      <trkpt lat="43.347" lon="3.5903">
        <ele>46</ele>
        <time>2021-07-01T16:12:46.000Z</time>
      </trkpt>
      <trkpt lat="43.34713" lon="3.59045">
        <ele>46</ele>
        <time>2021-07-01T16:12:49.000Z</time>
      </trkpt>
      <trkpt lat="43.34721" lon="3.59055">
        <ele>46</ele>
        <time>2021-07-01T16:12:51.000Z</time>
      </trkpt>
      <trkpt lat="43.34731" lon="3.59063">
        <ele>45</ele>
        <time>2021-07-01T16:12:53.000Z</time>
      </trkpt>
      <trkpt lat="43.34747" lon="3.59068">
        <ele>45</ele>
        <time>2021-07-01T16:12:56.000Z</time>
      </trkpt>
      <trkpt lat="43.34756" lon="3.59061">
        <ele>45</ele>
        <time>2021-07-01T16:12:58.000Z</time>
      </trkpt>
      <trkpt lat="43.34764" lon="3.5905">
        <ele>45</ele>
        <time>2021-07-01T16:13:00.000Z</time>
      </trkpt>
      <trkpt lat="43.34771" lon="3.59037">
        <ele>45</ele>
        <time>2021-07-01T16:13:02.000Z</time>
      </trkpt>
      <trkpt lat="43.34779" lon="3.59028">
        <ele>45</ele>
        <time>2021-07-01T16:13:04.000Z</time>
      </trkpt>
      <trkpt lat="43.34789" lon="3.59028">
        <ele>45</ele>
        <time>2021-07-01T16:13:06.000Z</time>
      </trkpt>
      <trkpt lat="43.34799" lon="3.59037">
        <ele>45</ele>
        <time>2021-07-01T16:13:08.000Z</time>
      </trkpt>
      <trkpt lat="43.34808" lon="3.59048">
        <ele>44</ele>
        <time>2021-07-01T16:13:10.000Z</time>
      </trkpt>
      <trkpt lat="43.34818" lon="3.59058">
        <ele>44</ele>
        <time>2021-07-01T16:13:12.000Z</time>
      </trkpt>
      <trkpt lat="43.34829" lon="3.59061">
        <ele>44</ele>
        <time>2021-07-01T16:13:14.000Z</time>
      </trkpt>
      <trkpt lat="43.34839" lon="3.59066">
        <ele>43</ele>
        <time>2021-07-01T16:13:16.000Z</time>
      </trkpt>
      <trkpt lat="43.34847" lon="3.59075">
        <ele>43</ele>
        <time>2021-07-01T16:13:18.000Z</time>
      </trkpt>
      <trkpt lat="43.34859" lon="3.59091">
        <ele>43</ele>
        <time>2021-07-01T16:13:21.000Z</time>
      </trkpt>
      <trkpt lat="43.34866" lon="3.59104">
        <ele>43</ele>
        <time>2021-07-01T16:13:23.000Z</time>
      </trkpt>
      <trkpt lat="43.34877" lon="3.59121">
        <ele>43</ele>
        <time>2021-07-01T16:13:26.000Z</time>
      </trkpt>
      <trkpt lat="43.34884" lon="3.59133">
        <ele>44</ele>
        <time>2021-07-01T16:13:28.000Z</time>
      </trkpt>
      <trkpt lat="43.34891" lon="3.59144">
        <ele>44</ele>
        <time>2021-07-01T16:13:30.000Z</time>
      </trkpt>
      <trkpt lat="43.34899" lon="3.59156">
        <ele>44</ele>
        <time>2021-07-01T16:13:32.000Z</time>
      </trkpt>
      <trkpt lat="43.34906" lon="3.59168">
        <ele>44</ele>
        <time>2021-07-01T16:13:34.000Z</time>
      </trkpt>
      <trkpt lat="43.34914" lon="3.5918">
        <ele>44</ele>
        <time>2021-07-01T16:13:36.000Z</time>
      </trkpt>
      <trkpt lat="43.34922" lon="3.59191">
        <ele>44</ele>
        <time>2021-07-01T16:13:38.000Z</time>
      </trkpt>
      <trkpt lat="43.34929" lon="3.59202">
        <ele>43</ele>
        <time>2021-07-01T16:13:40.000Z</time>
      </trkpt>
      <trkpt lat="43.34935" lon="3.59212">
        <ele>43</ele>
        <time>2021-07-01T16:13:42.000Z</time>
      </trkpt>
      <trkpt lat="43.34942" lon="3.59223">
        <ele>42</ele>
        <time>2021-07-01T16:13:44.000Z</time>
      </trkpt>
      <trkpt lat="43.34948" lon="3.59235">
        <ele>42</ele>
        <time>2021-07-01T16:13:46.000Z</time>
      </trkpt>
      <trkpt lat="43.34957" lon="3.59243">
        <ele>41</ele>
        <time>2021-07-01T16:13:48.000Z</time>
      </trkpt>
      <trkpt lat="43.34967" lon="3.59251">
        <ele>42</ele>
        <time>2021-07-01T16:13:50.000Z</time>
      </trkpt>
      <trkpt lat="43.34976" lon="3.59256">
        <ele>42</ele>
        <time>2021-07-01T16:13:52.000Z</time>
      </trkpt>
      <trkpt lat="43.34986" lon="3.59263">
        <ele>41</ele>
        <time>2021-07-01T16:13:54.000Z</time>
      </trkpt>
      <trkpt lat="43.34993" lon="3.59273">
        <ele>41</ele>
        <time>2021-07-01T16:13:56.000Z</time>
      </trkpt>
      <trkpt lat="43.35" lon="3.59285">
        <ele>41</ele>
        <time>2021-07-01T16:13:58.000Z</time>
      </trkpt>
      <trkpt lat="43.35007" lon="3.59295">
        <ele>42</ele>
        <time>2021-07-01T16:14:00.000Z</time>
      </trkpt>
      <trkpt lat="43.35018" lon="3.59313">
        <ele>40</ele>
        <time>2021-07-01T16:14:03.000Z</time>
      </trkpt>
      <trkpt lat="43.35024" lon="3.59323">
        <ele>40</ele>
        <time>2021-07-01T16:14:05.000Z</time>
      </trkpt>
      <trkpt lat="43.35031" lon="3.59333">
        <ele>40</ele>
        <time>2021-07-01T16:14:07.000Z</time>
      </trkpt>
      <trkpt lat="43.35046" lon="3.59342">
        <ele>39</ele>
        <time>2021-07-01T16:14:10.000Z</time>
      </trkpt>
      <trkpt lat="43.35056" lon="3.59347">
        <ele>38</ele>
        <time>2021-07-01T16:14:12.000Z</time>
      </trkpt>
      <trkpt lat="43.35065" lon="3.59356">
        <ele>37</ele>
        <time>2021-07-01T16:14:14.000Z</time>
      </trkpt>
      <trkpt lat="43.35072" lon="3.59367">
        <ele>38</ele>
        <time>2021-07-01T16:14:16.000Z</time>
      </trkpt>
      <trkpt lat="43.35083" lon="3.59384">
        <ele>37</ele>
        <time>2021-07-01T16:14:19.000Z</time>
      </trkpt>
      <trkpt lat="43.35091" lon="3.59396">
        <ele>38</ele>
        <time>2021-07-01T16:14:21.000Z</time>
      </trkpt>
      <trkpt lat="43.35098" lon="3.59408">
        <ele>38</ele>
        <time>2021-07-01T16:14:23.000Z</time>
      </trkpt>
      <trkpt lat="43.35105" lon="3.5942">
        <ele>38</ele>
        <time>2021-07-01T16:14:25.000Z</time>
      </trkpt>
      <trkpt lat="43.35113" lon="3.59433">
        <ele>37</ele>
        <time>2021-07-01T16:14:27.000Z</time>
      </trkpt>
      <trkpt lat="43.35121" lon="3.59443">
        <ele>37</ele>
        <time>2021-07-01T16:14:29.000Z</time>
      </trkpt>
      <trkpt lat="43.35135" lon="3.59449">
        <ele>38</ele>
        <time>2021-07-01T16:14:32.000Z</time>
      </trkpt>
      <trkpt lat="43.35144" lon="3.59456">
        <ele>39</ele>
        <time>2021-07-01T16:14:34.000Z</time>
      </trkpt>
      <trkpt lat="43.35153" lon="3.59467">
        <ele>38</ele>
        <time>2021-07-01T16:14:36.000Z</time>
      </trkpt>
      <trkpt lat="43.35159" lon="3.5948">
        <ele>39</ele>
        <time>2021-07-01T16:14:38.000Z</time>
      </trkpt>
      <trkpt lat="43.35165" lon="3.59493">
        <ele>40</ele>
        <time>2021-07-01T16:14:40.000Z</time>
      </trkpt>
      <trkpt lat="43.35172" lon="3.59504">
        <ele>40</ele>
        <time>2021-07-01T16:14:42.000Z</time>
      </trkpt>
      <trkpt lat="43.35178" lon="3.59516">
        <ele>40</ele>
        <time>2021-07-01T16:14:44.000Z</time>
      </trkpt>
      <trkpt lat="43.35185" lon="3.59529">
        <ele>40</ele>
        <time>2021-07-01T16:14:46.000Z</time>
      </trkpt>
      <trkpt lat="43.35191" lon="3.59541">
        <ele>41</ele>
        <time>2021-07-01T16:14:48.000Z</time>
      </trkpt>
      <trkpt lat="43.35197" lon="3.59553">
        <ele>41</ele>
        <time>2021-07-01T16:14:50.000Z</time>
      </trkpt>
      <trkpt lat="43.35204" lon="3.59565">
        <ele>41</ele>
        <time>2021-07-01T16:14:52.000Z</time>
      </trkpt>
      <trkpt lat="43.35211" lon="3.59577">
        <ele>40</ele>
        <time>2021-07-01T16:14:54.000Z</time>
      </trkpt>
      <trkpt lat="43.35217" lon="3.59587">
        <ele>41</ele>
        <time>2021-07-01T16:14:56.000Z</time>
      </trkpt>
      <trkpt lat="43.35223" lon="3.59598">
        <ele>41</ele>
        <time>2021-07-01T16:14:58.000Z</time>
      </trkpt>
      <trkpt lat="43.35229" lon="3.59608">
        <ele>42</ele>
        <time>2021-07-01T16:15:00.000Z</time>
      </trkpt>
      <trkpt lat="43.35236" lon="3.59621">
        <ele>41</ele>
        <time>2021-07-01T16:15:03.000Z</time>
      </trkpt>
      <trkpt lat="43.35247" lon="3.59633">
        <ele>42</ele>
        <time>2021-07-01T16:15:06.000Z</time>
      </trkpt>
      <trkpt lat="43.35254" lon="3.59642">
        <ele>42</ele>
        <time>2021-07-01T16:15:08.000Z</time>
      </trkpt>
      <trkpt lat="43.35265" lon="3.59656">
        <ele>42</ele>
        <time>2021-07-01T16:15:11.000Z</time>
      </trkpt>
      <trkpt lat="43.35273" lon="3.59667">
        <ele>42</ele>
        <time>2021-07-01T16:15:13.000Z</time>
      </trkpt>
      <trkpt lat="43.3528" lon="3.59679">
        <ele>42</ele>
        <time>2021-07-01T16:15:15.000Z</time>
      </trkpt>
      <trkpt lat="43.35287" lon="3.5969">
        <ele>42</ele>
        <time>2021-07-01T16:15:17.000Z</time>
      </trkpt>
      <trkpt lat="43.35294" lon="3.59702">
        <ele>42</ele>
        <time>2021-07-01T16:15:19.000Z</time>
      </trkpt>
      <trkpt lat="43.35301" lon="3.59713">
        <ele>42</ele>
        <time>2021-07-01T16:15:21.000Z</time>
      </trkpt>
      <trkpt lat="43.35307" lon="3.59724">
        <ele>43</ele>
        <time>2021-07-01T16:15:23.000Z</time>
      </trkpt>
      <trkpt lat="43.35313" lon="3.59735">
        <ele>43</ele>
        <time>2021-07-01T16:15:25.000Z</time>
      </trkpt>
      <trkpt lat="43.35323" lon="3.5975">
        <ele>42</ele>
        <time>2021-07-01T16:15:28.000Z</time>
      </trkpt>
      <trkpt lat="43.35331" lon="3.59757">
        <ele>41</ele>
        <time>2021-07-01T16:15:30.000Z</time>
      </trkpt>
      <trkpt lat="43.3534" lon="3.59763">
        <ele>41</ele>
        <time>2021-07-01T16:15:32.000Z</time>
      </trkpt>
      <trkpt lat="43.3535" lon="3.59769">
        <ele>42</ele>
        <time>2021-07-01T16:15:34.000Z</time>
      </trkpt>
      <trkpt lat="43.35359" lon="3.59778">
        <ele>42</ele>
        <time>2021-07-01T16:15:36.000Z</time>
      </trkpt>
      <trkpt lat="43.35369" lon="3.5979">
        <ele>39</ele>
        <time>2021-07-01T16:15:38.000Z</time>
      </trkpt>
      <trkpt lat="43.35375" lon="3.59801">
        <ele>40</ele>
        <time>2021-07-01T16:15:40.000Z</time>
      </trkpt>
      <trkpt lat="43.35382" lon="3.59813">
        <ele>40</ele>
        <time>2021-07-01T16:15:42.000Z</time>
      </trkpt>
      <trkpt lat="43.35392" lon="3.59829">
        <ele>41</ele>
        <time>2021-07-01T16:15:45.000Z</time>
      </trkpt>
      <trkpt lat="43.35398" lon="3.59839">
        <ele>41</ele>
        <time>2021-07-01T16:15:47.000Z</time>
      </trkpt>
      <trkpt lat="43.35405" lon="3.59849">
        <ele>42</ele>
        <time>2021-07-01T16:15:49.000Z</time>
      </trkpt>
      <trkpt lat="43.35411" lon="3.59859">
        <ele>42</ele>
        <time>2021-07-01T16:15:51.000Z</time>
      </trkpt>
      <trkpt lat="43.35418" lon="3.59869">
        <ele>41</ele>
        <time>2021-07-01T16:15:53.000Z</time>
      </trkpt>
      <trkpt lat="43.35426" lon="3.59879">
        <ele>42</ele>
        <time>2021-07-01T16:15:55.000Z</time>
      </trkpt>
      <trkpt lat="43.35433" lon="3.59891">
        <ele>42</ele>
        <time>2021-07-01T16:15:57.000Z</time>
      </trkpt>
      <trkpt lat="43.35439" lon="3.59902">
        <ele>42</ele>
        <time>2021-07-01T16:15:59.000Z</time>
      </trkpt>
      <trkpt lat="43.35446" lon="3.59913">
        <ele>42</ele>
        <time>2021-07-01T16:16:01.000Z</time>
      </trkpt>
      <trkpt lat="43.35453" lon="3.59924">
        <ele>41</ele>
        <time>2021-07-01T16:16:03.000Z</time>
      </trkpt>
      <trkpt lat="43.35459" lon="3.59935">
        <ele>41</ele>
        <time>2021-07-01T16:16:05.000Z</time>
      </trkpt>
      <trkpt lat="43.35468" lon="3.59951">
        <ele>42</ele>
        <time>2021-07-01T16:16:08.000Z</time>
      </trkpt>
      <trkpt lat="43.35475" lon="3.59961">
        <ele>41</ele>
        <time>2021-07-01T16:16:10.000Z</time>
      </trkpt>
      <trkpt lat="43.35481" lon="3.59971">
        <ele>42</ele>
        <time>2021-07-01T16:16:12.000Z</time>
      </trkpt>
      <trkpt lat="43.35489" lon="3.59978">
        <ele>42</ele>
        <time>2021-07-01T16:16:14.000Z</time>
      </trkpt>
      <trkpt lat="43.35498" lon="3.59982">
        <ele>42</ele>
        <time>2021-07-01T16:16:16.000Z</time>
      </trkpt>
      <trkpt lat="43.35508" lon="3.59983">
        <ele>42</ele>
        <time>2021-07-01T16:16:18.000Z</time>
      </trkpt>
      <trkpt lat="43.35518" lon="3.59985">
        <ele>42</ele>
        <time>2021-07-01T16:16:20.000Z</time>
      </trkpt>
      <trkpt lat="43.35531" lon="3.59996">
        <ele>44</ele>
        <time>2021-07-01T16:16:23.000Z</time>
      </trkpt>
      <trkpt lat="43.35538" lon="3.60006">
        <ele>44</ele>
        <time>2021-07-01T16:16:25.000Z</time>
      </trkpt>
      <trkpt lat="43.35549" lon="3.60022">
        <ele>43</ele>
        <time>2021-07-01T16:16:28.000Z</time>
      </trkpt>
      <trkpt lat="43.35555" lon="3.60031">
        <ele>44</ele>
        <time>2021-07-01T16:16:30.000Z</time>
      </trkpt>
      <trkpt lat="43.35561" lon="3.60043">
        <ele>44</ele>
        <time>2021-07-01T16:16:32.000Z</time>
      </trkpt>
      <trkpt lat="43.35568" lon="3.60054">
        <ele>44</ele>
        <time>2021-07-01T16:16:34.000Z</time>
      </trkpt>
      <trkpt lat="43.35576" lon="3.60064">
        <ele>42</ele>
        <time>2021-07-01T16:16:36.000Z</time>
      </trkpt>
      <trkpt lat="43.35586" lon="3.6008">
        <ele>41</ele>
        <time>2021-07-01T16:16:39.000Z</time>
      </trkpt>
      <trkpt lat="43.35593" lon="3.60091">
        <ele>41</ele>
        <time>2021-07-01T16:16:41.000Z</time>
      </trkpt>
      <trkpt lat="43.356" lon="3.60102">
        <ele>41</ele>
        <time>2021-07-01T16:16:43.000Z</time>
      </trkpt>
      <trkpt lat="43.35612" lon="3.6012">
        <ele>40</ele>
        <time>2021-07-01T16:16:46.000Z</time>
      </trkpt>
      <trkpt lat="43.3562" lon="3.60127">
        <ele>41</ele>
        <time>2021-07-01T16:16:48.000Z</time>
      </trkpt>
      <trkpt lat="43.35629" lon="3.60134">
        <ele>41</ele>
        <time>2021-07-01T16:16:50.000Z</time>
      </trkpt>
      <trkpt lat="43.35638" lon="3.60142">
        <ele>40</ele>
        <time>2021-07-01T16:16:52.000Z</time>
      </trkpt>
      <trkpt lat="43.35645" lon="3.60152">
        <ele>41</ele>
        <time>2021-07-01T16:16:54.000Z</time>
      </trkpt>
      <trkpt lat="43.35652" lon="3.60164">
        <ele>41</ele>
        <time>2021-07-01T16:16:56.000Z</time>
      </trkpt>
      <trkpt lat="43.3566" lon="3.60175">
        <ele>41</ele>
        <time>2021-07-01T16:16:58.000Z</time>
      </trkpt>
      <trkpt lat="43.35667" lon="3.60186">
        <ele>42</ele>
        <time>2021-07-01T16:17:00.000Z</time>
      </trkpt>
      <trkpt lat="43.35674" lon="3.60197">
        <ele>42</ele>
        <time>2021-07-01T16:17:02.000Z</time>
      </trkpt>
      <trkpt lat="43.35681" lon="3.60208">
        <ele>42</ele>
        <time>2021-07-01T16:17:04.000Z</time>
      </trkpt>
      <trkpt lat="43.35689" lon="3.60217">
        <ele>41</ele>
        <time>2021-07-01T16:17:06.000Z</time>
      </trkpt>
      <trkpt lat="43.35695" lon="3.60229">
        <ele>42</ele>
        <time>2021-07-01T16:17:08.000Z</time>
      </trkpt>
      <trkpt lat="43.35705" lon="3.60247">
        <ele>42</ele>
        <time>2021-07-01T16:17:11.000Z</time>
      </trkpt>
      <trkpt lat="43.35712" lon="3.60258">
        <ele>41</ele>
        <time>2021-07-01T16:17:13.000Z</time>
      </trkpt>
      <trkpt lat="43.3572" lon="3.60269">
        <ele>42</ele>
        <time>2021-07-01T16:17:15.000Z</time>
      </trkpt>
      <trkpt lat="43.35727" lon="3.6028">
        <ele>42</ele>
        <time>2021-07-01T16:17:17.000Z</time>
      </trkpt>
      <trkpt lat="43.35739" lon="3.60297">
        <ele>42</ele>
        <time>2021-07-01T16:17:20.000Z</time>
      </trkpt>
      <trkpt lat="43.35746" lon="3.60308">
        <ele>42</ele>
        <time>2021-07-01T16:17:22.000Z</time>
      </trkpt>
      <trkpt lat="43.35752" lon="3.60319">
        <ele>42</ele>
        <time>2021-07-01T16:17:24.000Z</time>
      </trkpt>
      <trkpt lat="43.35759" lon="3.60331">
        <ele>42</ele>
        <time>2021-07-01T16:17:26.000Z</time>
      </trkpt>
      <trkpt lat="43.3577" lon="3.60349">
        <ele>41</ele>
        <time>2021-07-01T16:17:29.000Z</time>
      </trkpt>
      <trkpt lat="43.35778" lon="3.6036">
        <ele>41</ele>
        <time>2021-07-01T16:17:31.000Z</time>
      </trkpt>
      <trkpt lat="43.35786" lon="3.60369">
        <ele>41</ele>
        <time>2021-07-01T16:17:33.000Z</time>
      </trkpt>
      <trkpt lat="43.35803" lon="3.60373">
        <ele>41</ele>
        <time>2021-07-01T16:17:36.000Z</time>
      </trkpt>
      <trkpt lat="43.35814" lon="3.60373">
        <ele>41</ele>
        <time>2021-07-01T16:17:38.000Z</time>
      </trkpt>
      <trkpt lat="43.35823" lon="3.60379">
        <ele>41</ele>
        <time>2021-07-01T16:17:40.000Z</time>
      </trkpt>
      <trkpt lat="43.3583" lon="3.60389">
        <ele>42</ele>
        <time>2021-07-01T16:17:42.000Z</time>
      </trkpt>
      <trkpt lat="43.35837" lon="3.60401">
        <ele>42</ele>
        <time>2021-07-01T16:17:44.000Z</time>
      </trkpt>
      <trkpt lat="43.35845" lon="3.60413">
        <ele>42</ele>
        <time>2021-07-01T16:17:46.000Z</time>
      </trkpt>
      <trkpt lat="43.35852" lon="3.60425">
        <ele>42</ele>
        <time>2021-07-01T16:17:48.000Z</time>
      </trkpt>
      <trkpt lat="43.35858" lon="3.60436">
        <ele>42</ele>
        <time>2021-07-01T16:17:50.000Z</time>
      </trkpt>
      <trkpt lat="43.35865" lon="3.60448">
        <ele>42</ele>
        <time>2021-07-01T16:17:52.000Z</time>
      </trkpt>
      <trkpt lat="43.35872" lon="3.6046">
        <ele>41</ele>
        <time>2021-07-01T16:17:54.000Z</time>
      </trkpt>
      <trkpt lat="43.3588" lon="3.60472">
        <ele>41</ele>
        <time>2021-07-01T16:17:56.000Z</time>
      </trkpt>
      <trkpt lat="43.35887" lon="3.60483">
        <ele>41</ele>
        <time>2021-07-01T16:17:58.000Z</time>
      </trkpt>
      <trkpt lat="43.35895" lon="3.60494">
        <ele>42</ele>
        <time>2021-07-01T16:18:00.000Z</time>
      </trkpt>
      <trkpt lat="43.35906" lon="3.6051">
        <ele>42</ele>
        <time>2021-07-01T16:18:03.000Z</time>
      </trkpt>
      <trkpt lat="43.35914" lon="3.60521">
        <ele>42</ele>
        <time>2021-07-01T16:18:05.000Z</time>
      </trkpt>
      <trkpt lat="43.35921" lon="3.60534">
        <ele>42</ele>
        <time>2021-07-01T16:18:07.000Z</time>
      </trkpt>
      <trkpt lat="43.35927" lon="3.60546">
        <ele>41</ele>
        <time>2021-07-01T16:18:09.000Z</time>
      </trkpt>
      <trkpt lat="43.35935" lon="3.60559">
        <ele>40</ele>
        <time>2021-07-01T16:18:11.000Z</time>
      </trkpt>
      <trkpt lat="43.35944" lon="3.60573">
        <ele>41</ele>
        <time>2021-07-01T16:18:13.000Z</time>
      </trkpt>
      <trkpt lat="43.35951" lon="3.60583">
        <ele>41</ele>
        <time>2021-07-01T16:18:15.000Z</time>
      </trkpt>
      <trkpt lat="43.35958" lon="3.60595">
        <ele>41</ele>
        <time>2021-07-01T16:18:17.000Z</time>
      </trkpt>
      <trkpt lat="43.35965" lon="3.60608">
        <ele>40</ele>
        <time>2021-07-01T16:18:19.000Z</time>
      </trkpt>
      <trkpt lat="43.35972" lon="3.60619">
        <ele>39</ele>
        <time>2021-07-01T16:18:21.000Z</time>
      </trkpt>
      <trkpt lat="43.35979" lon="3.60629">
        <ele>39</ele>
        <time>2021-07-01T16:18:23.000Z</time>
      </trkpt>
      <trkpt lat="43.35986" lon="3.60642">
        <ele>40</ele>
        <time>2021-07-01T16:18:25.000Z</time>
      </trkpt>
      <trkpt lat="43.35993" lon="3.60655">
        <ele>40</ele>
        <time>2021-07-01T16:18:27.000Z</time>
      </trkpt>
      <trkpt lat="43.36" lon="3.60667">
        <ele>41</ele>
        <time>2021-07-01T16:18:29.000Z</time>
      </trkpt>
      <trkpt lat="43.36007" lon="3.60679">
        <ele>42</ele>
        <time>2021-07-01T16:18:31.000Z</time>
      </trkpt>
      <trkpt lat="43.36014" lon="3.60691">
        <ele>42</ele>
        <time>2021-07-01T16:18:33.000Z</time>
      </trkpt>
      <trkpt lat="43.36021" lon="3.60702">
        <ele>42</ele>
        <time>2021-07-01T16:18:35.000Z</time>
      </trkpt>
      <trkpt lat="43.36028" lon="3.60712">
        <ele>43</ele>
        <time>2021-07-01T16:18:37.000Z</time>
      </trkpt>
      <trkpt lat="43.36037" lon="3.60718">
        <ele>43</ele>
        <time>2021-07-01T16:18:39.000Z</time>
      </trkpt>
      <trkpt lat="43.36047" lon="3.60718">
        <ele>43</ele>
        <time>2021-07-01T16:18:41.000Z</time>
      </trkpt>
      <trkpt lat="43.36056" lon="3.6071">
        <ele>44</ele>
        <time>2021-07-01T16:18:43.000Z</time>
      </trkpt>
      <trkpt lat="43.36066" lon="3.60703">
        <ele>45</ele>
        <time>2021-07-01T16:18:45.000Z</time>
      </trkpt>
      <trkpt lat="43.36078" lon="3.60699">
        <ele>44</ele>
        <time>2021-07-01T16:18:47.000Z</time>
      </trkpt>
      <trkpt lat="43.36088" lon="3.60705">
        <ele>45</ele>
        <time>2021-07-01T16:18:49.000Z</time>
      </trkpt>
      <trkpt lat="43.36095" lon="3.60716">
        <ele>45</ele>
        <time>2021-07-01T16:18:51.000Z</time>
      </trkpt>
      <trkpt lat="43.36102" lon="3.60728">
        <ele>44</ele>
        <time>2021-07-01T16:18:53.000Z</time>
      </trkpt>
      <trkpt lat="43.3611" lon="3.60739">
        <ele>44</ele>
        <time>2021-07-01T16:18:55.000Z</time>
      </trkpt>
      <trkpt lat="43.36117" lon="3.6075">
        <ele>44</ele>
        <time>2021-07-01T16:18:57.000Z</time>
      </trkpt>
      <trkpt lat="43.36124" lon="3.60763">
        <ele>44</ele>
        <time>2021-07-01T16:18:59.000Z</time>
      </trkpt>
      <trkpt lat="43.36132" lon="3.60774">
        <ele>44</ele>
        <time>2021-07-01T16:19:01.000Z</time>
      </trkpt>
      <trkpt lat="43.36139" lon="3.60786">
        <ele>44</ele>
        <time>2021-07-01T16:19:03.000Z</time>
      </trkpt>
      <trkpt lat="43.36147" lon="3.60798">
        <ele>44</ele>
        <time>2021-07-01T16:19:05.000Z</time>
      </trkpt>
      <trkpt lat="43.36154" lon="3.60811">
        <ele>44</ele>
        <time>2021-07-01T16:19:07.000Z</time>
      </trkpt>
      <trkpt lat="43.36161" lon="3.60823">
        <ele>44</ele>
        <time>2021-07-01T16:19:09.000Z</time>
      </trkpt>
      <trkpt lat="43.36169" lon="3.60835">
        <ele>44</ele>
        <time>2021-07-01T16:19:11.000Z</time>
      </trkpt>
      <trkpt lat="43.36177" lon="3.6085">
        <ele>45</ele>
        <time>2021-07-01T16:19:13.000Z</time>
      </trkpt>
      <trkpt lat="43.36184" lon="3.6086">
        <ele>45</ele>
        <time>2021-07-01T16:19:15.000Z</time>
      </trkpt>
      <trkpt lat="43.36191" lon="3.60872">
        <ele>44</ele>
        <time>2021-07-01T16:19:17.000Z</time>
      </trkpt>
      <trkpt lat="43.36198" lon="3.60883">
        <ele>44</ele>
        <time>2021-07-01T16:19:19.000Z</time>
      </trkpt>
      <trkpt lat="43.36206" lon="3.60895">
        <ele>44</ele>
        <time>2021-07-01T16:19:21.000Z</time>
      </trkpt>
      <trkpt lat="43.36213" lon="3.60907">
        <ele>44</ele>
        <time>2021-07-01T16:19:23.000Z</time>
      </trkpt>
      <trkpt lat="43.3622" lon="3.60919">
        <ele>45</ele>
        <time>2021-07-01T16:19:25.000Z</time>
      </trkpt>
      <trkpt lat="43.36227" lon="3.60931">
        <ele>46</ele>
        <time>2021-07-01T16:19:27.000Z</time>
      </trkpt>
      <trkpt lat="43.36235" lon="3.60943">
        <ele>44</ele>
        <time>2021-07-01T16:19:29.000Z</time>
      </trkpt>
      <trkpt lat="43.36241" lon="3.60954">
        <ele>45</ele>
        <time>2021-07-01T16:19:31.000Z</time>
      </trkpt>
      <trkpt lat="43.36249" lon="3.60966">
        <ele>45</ele>
        <time>2021-07-01T16:19:33.000Z</time>
      </trkpt>
      <trkpt lat="43.36256" lon="3.60977">
        <ele>46</ele>
        <time>2021-07-01T16:19:35.000Z</time>
      </trkpt>
      <trkpt lat="43.36264" lon="3.6099">
        <ele>46</ele>
        <time>2021-07-01T16:19:37.000Z</time>
      </trkpt>
      <trkpt lat="43.36271" lon="3.61002">
        <ele>46</ele>
        <time>2021-07-01T16:19:39.000Z</time>
      </trkpt>
      <trkpt lat="43.36278" lon="3.61013">
        <ele>47</ele>
        <time>2021-07-01T16:19:41.000Z</time>
      </trkpt>
      <trkpt lat="43.36285" lon="3.61025">
        <ele>47</ele>
        <time>2021-07-01T16:19:43.000Z</time>
      </trkpt>
      <trkpt lat="43.36299" lon="3.61047">
        <ele>48</ele>
        <time>2021-07-01T16:19:47.000Z</time>
      </trkpt>
      <trkpt lat="43.36306" lon="3.61058">
        <ele>48</ele>
        <time>2021-07-01T16:19:49.000Z</time>
      </trkpt>
      <trkpt lat="43.36313" lon="3.6107">
        <ele>48</ele>
        <time>2021-07-01T16:19:51.000Z</time>
      </trkpt>
      <trkpt lat="43.36323" lon="3.61087">
        <ele>48</ele>
        <time>2021-07-01T16:19:54.000Z</time>
      </trkpt>
      <trkpt lat="43.3633" lon="3.61099">
        <ele>48</ele>
        <time>2021-07-01T16:19:56.000Z</time>
      </trkpt>
      <trkpt lat="43.36337" lon="3.6111">
        <ele>48</ele>
        <time>2021-07-01T16:19:58.000Z</time>
      </trkpt>
      <trkpt lat="43.36343" lon="3.61122">
        <ele>48</ele>
        <time>2021-07-01T16:20:00.000Z</time>
      </trkpt>
      <trkpt lat="43.3635" lon="3.61132">
        <ele>48</ele>
        <time>2021-07-01T16:20:02.000Z</time>
      </trkpt>
      <trkpt lat="43.36359" lon="3.61144">
        <ele>48</ele>
        <time>2021-07-01T16:20:04.000Z</time>
      </trkpt>
      <trkpt lat="43.36366" lon="3.61156">
        <ele>48</ele>
        <time>2021-07-01T16:20:06.000Z</time>
      </trkpt>
      <trkpt lat="43.36373" lon="3.61167">
        <ele>48</ele>
        <time>2021-07-01T16:20:08.000Z</time>
      </trkpt>
      <trkpt lat="43.3638" lon="3.61178">
        <ele>48</ele>
        <time>2021-07-01T16:20:10.000Z</time>
      </trkpt>
      <trkpt lat="43.36391" lon="3.61195">
        <ele>48</ele>
        <time>2021-07-01T16:20:13.000Z</time>
      </trkpt>
      <trkpt lat="43.36398" lon="3.61208">
        <ele>48</ele>
        <time>2021-07-01T16:20:15.000Z</time>
      </trkpt>
      <trkpt lat="43.36405" lon="3.61219">
        <ele>48</ele>
        <time>2021-07-01T16:20:17.000Z</time>
      </trkpt>
      <trkpt lat="43.36415" lon="3.61236">
        <ele>48</ele>
        <time>2021-07-01T16:20:20.000Z</time>
      </trkpt>
      <trkpt lat="43.36423" lon="3.61247">
        <ele>49</ele>
        <time>2021-07-01T16:20:22.000Z</time>
      </trkpt>
      <trkpt lat="43.36431" lon="3.6126">
        <ele>50</ele>
        <time>2021-07-01T16:20:24.000Z</time>
      </trkpt>
      <trkpt lat="43.36439" lon="3.61275">
        <ele>51</ele>
        <time>2021-07-01T16:20:27.000Z</time>
      </trkpt>
      <trkpt lat="43.36445" lon="3.61285">
        <ele>51</ele>
        <time>2021-07-01T16:20:29.000Z</time>
      </trkpt>
      <trkpt lat="43.36454" lon="3.61297">
        <ele>50</ele>
        <time>2021-07-01T16:20:31.000Z</time>
      </trkpt>
      <trkpt lat="43.3646" lon="3.61307">
        <ele>51</ele>
        <time>2021-07-01T16:20:33.000Z</time>
      </trkpt>
      <trkpt lat="43.36466" lon="3.61318">
        <ele>51</ele>
        <time>2021-07-01T16:20:35.000Z</time>
      </trkpt>
      <trkpt lat="43.36472" lon="3.61328">
        <ele>51</ele>
        <time>2021-07-01T16:20:37.000Z</time>
      </trkpt>
      <trkpt lat="43.3648" lon="3.61339">
        <ele>50</ele>
        <time>2021-07-01T16:20:39.000Z</time>
      </trkpt>
      <trkpt lat="43.36485" lon="3.6135">
        <ele>51</ele>
        <time>2021-07-01T16:20:41.000Z</time>
      </trkpt>
      <trkpt lat="43.36491" lon="3.61362">
        <ele>51</ele>
        <time>2021-07-01T16:20:43.000Z</time>
      </trkpt>
      <trkpt lat="43.365" lon="3.6138">
        <ele>51</ele>
        <time>2021-07-01T16:20:46.000Z</time>
      </trkpt>
      <trkpt lat="43.36506" lon="3.61392">
        <ele>51</ele>
        <time>2021-07-01T16:20:48.000Z</time>
      </trkpt>
      <trkpt lat="43.36513" lon="3.61404">
        <ele>51</ele>
        <time>2021-07-01T16:20:50.000Z</time>
      </trkpt>
      <trkpt lat="43.36519" lon="3.61415">
        <ele>51</ele>
        <time>2021-07-01T16:20:52.000Z</time>
      </trkpt>
      <trkpt lat="43.36531" lon="3.61433">
        <ele>50</ele>
        <time>2021-07-01T16:20:55.000Z</time>
      </trkpt>
      <trkpt lat="43.36538" lon="3.61444">
        <ele>49</ele>
        <time>2021-07-01T16:20:57.000Z</time>
      </trkpt>
      <trkpt lat="43.36544" lon="3.61454">
        <ele>49</ele>
        <time>2021-07-01T16:20:59.000Z</time>
      </trkpt>
      <trkpt lat="43.36551" lon="3.61465">
        <ele>49</ele>
        <time>2021-07-01T16:21:01.000Z</time>
      </trkpt>
      <trkpt lat="43.36558" lon="3.61475">
        <ele>49</ele>
        <time>2021-07-01T16:21:03.000Z</time>
      </trkpt>
      <trkpt lat="43.36566" lon="3.61486">
        <ele>50</ele>
        <time>2021-07-01T16:21:05.000Z</time>
      </trkpt>
      <trkpt lat="43.36572" lon="3.61497">
        <ele>50</ele>
        <time>2021-07-01T16:21:07.000Z</time>
      </trkpt>
      <trkpt lat="43.36578" lon="3.61507">
        <ele>51</ele>
        <time>2021-07-01T16:21:09.000Z</time>
      </trkpt>
      <trkpt lat="43.36585" lon="3.61518">
        <ele>51</ele>
        <time>2021-07-01T16:21:11.000Z</time>
      </trkpt>
      <trkpt lat="43.36593" lon="3.61528">
        <ele>50</ele>
        <time>2021-07-01T16:21:13.000Z</time>
      </trkpt>
      <trkpt lat="43.366" lon="3.61539">
        <ele>50</ele>
        <time>2021-07-01T16:21:15.000Z</time>
      </trkpt>
      <trkpt lat="43.36607" lon="3.61554">
        <ele>50</ele>
        <time>2021-07-01T16:21:18.000Z</time>
      </trkpt>
      <trkpt lat="43.36613" lon="3.61565">
        <ele>50</ele>
        <time>2021-07-01T16:21:20.000Z</time>
      </trkpt>
      <trkpt lat="43.36619" lon="3.61576">
        <ele>50</ele>
        <time>2021-07-01T16:21:22.000Z</time>
      </trkpt>
      <trkpt lat="43.36626" lon="3.61586">
        <ele>50</ele>
        <time>2021-07-01T16:21:24.000Z</time>
      </trkpt>
      <trkpt lat="43.36634" lon="3.61596">
        <ele>51</ele>
        <time>2021-07-01T16:21:26.000Z</time>
      </trkpt>
      <trkpt lat="43.36645" lon="3.61609">
        <ele>50</ele>
        <time>2021-07-01T16:21:29.000Z</time>
      </trkpt>
      <trkpt lat="43.36653" lon="3.61616">
        <ele>49</ele>
        <time>2021-07-01T16:21:31.000Z</time>
      </trkpt>
      <trkpt lat="43.36662" lon="3.61629">
        <ele>50</ele>
        <time>2021-07-01T16:21:34.000Z</time>
      </trkpt>
      <trkpt lat="43.36671" lon="3.61641">
        <ele>50</ele>
        <time>2021-07-01T16:21:37.000Z</time>
      </trkpt>
      <trkpt lat="43.36676" lon="3.61653">
        <ele>50</ele>
        <time>2021-07-01T16:21:40.000Z</time>
      </trkpt>
      <trkpt lat="43.3667" lon="3.6164">
        <ele>51</ele>
        <time>2021-07-01T16:23:40.000Z</time>
      </trkpt>
      <trkpt lat="43.36664" lon="3.61629">
        <ele>51</ele>
        <time>2021-07-01T16:23:43.000Z</time>
      </trkpt>
      <trkpt lat="43.36657" lon="3.6162">
        <ele>51</ele>
        <time>2021-07-01T16:23:46.000Z</time>
      </trkpt>
      <trkpt lat="43.36651" lon="3.61609">
        <ele>51</ele>
        <time>2021-07-01T16:23:50.000Z</time>
      </trkpt>
      <trkpt lat="43.36647" lon="3.61598">
        <ele>50</ele>
        <time>2021-07-01T16:23:55.000Z</time>
      </trkpt>
      <trkpt lat="43.36647" lon="3.61612">
        <ele>54</ele>
        <time>2021-07-01T16:34:45.000Z</time>
      </trkpt>
      <trkpt lat="43.36659" lon="3.61621">
        <ele>53</ele>
        <time>2021-07-01T16:34:48.000Z</time>
      </trkpt>
      <trkpt lat="43.36667" lon="3.61636">
        <ele>53</ele>
        <time>2021-07-01T16:34:51.000Z</time>
      </trkpt>
      <trkpt lat="43.36674" lon="3.61647">
        <ele>54</ele>
        <time>2021-07-01T16:34:53.000Z</time>
      </trkpt>
      <trkpt lat="43.36685" lon="3.61665">
        <ele>53</ele>
        <time>2021-07-01T16:34:56.000Z</time>
      </trkpt>
      <trkpt lat="43.36693" lon="3.61678">
        <ele>53</ele>
        <time>2021-07-01T16:34:58.000Z</time>
      </trkpt>
      <trkpt lat="43.36703" lon="3.61691">
        <ele>53</ele>
        <time>2021-07-01T16:35:00.000Z</time>
      </trkpt>
      <trkpt lat="43.36712" lon="3.61705">
        <ele>54</ele>
        <time>2021-07-01T16:35:02.000Z</time>
      </trkpt>
      <trkpt lat="43.36722" lon="3.61718">
        <ele>54</ele>
        <time>2021-07-01T16:35:04.000Z</time>
      </trkpt>
      <trkpt lat="43.36737" lon="3.61736">
        <ele>54</ele>
        <time>2021-07-01T16:35:07.000Z</time>
      </trkpt>
      <trkpt lat="43.36747" lon="3.61749">
        <ele>54</ele>
        <time>2021-07-01T16:35:09.000Z</time>
      </trkpt>
      <trkpt lat="43.36758" lon="3.61762">
        <ele>54</ele>
        <time>2021-07-01T16:35:11.000Z</time>
      </trkpt>
      <trkpt lat="43.36767" lon="3.61777">
        <ele>54</ele>
        <time>2021-07-01T16:35:13.000Z</time>
      </trkpt>
      <trkpt lat="43.36777" lon="3.61792">
        <ele>54</ele>
        <time>2021-07-01T16:35:15.000Z</time>
      </trkpt>
      <trkpt lat="43.36787" lon="3.61807">
        <ele>55</ele>
        <time>2021-07-01T16:35:17.000Z</time>
      </trkpt>
      <trkpt lat="43.36797" lon="3.61822">
        <ele>55</ele>
        <time>2021-07-01T16:35:19.000Z</time>
      </trkpt>
      <trkpt lat="43.36807" lon="3.61837">
        <ele>54</ele>
        <time>2021-07-01T16:35:21.000Z</time>
      </trkpt>
      <trkpt lat="43.36818" lon="3.61852">
        <ele>55</ele>
        <time>2021-07-01T16:35:23.000Z</time>
      </trkpt>
      <trkpt lat="43.36836" lon="3.61871">
        <ele>55</ele>
        <time>2021-07-01T16:35:26.000Z</time>
      </trkpt>
      <trkpt lat="43.36848" lon="3.61885">
        <ele>55</ele>
        <time>2021-07-01T16:35:28.000Z</time>
      </trkpt>
      <trkpt lat="43.36865" lon="3.61907">
        <ele>55</ele>
        <time>2021-07-01T16:35:31.000Z</time>
      </trkpt>
      <trkpt lat="43.36876" lon="3.61922">
        <ele>55</ele>
        <time>2021-07-01T16:35:33.000Z</time>
      </trkpt>
      <trkpt lat="43.36887" lon="3.61937">
        <ele>55</ele>
        <time>2021-07-01T16:35:35.000Z</time>
      </trkpt>
      <trkpt lat="43.36898" lon="3.61952">
        <ele>55</ele>
        <time>2021-07-01T16:35:37.000Z</time>
      </trkpt>
      <trkpt lat="43.36908" lon="3.61968">
        <ele>55</ele>
        <time>2021-07-01T16:35:39.000Z</time>
      </trkpt>
      <trkpt lat="43.36919" lon="3.61984">
        <ele>55</ele>
        <time>2021-07-01T16:35:41.000Z</time>
      </trkpt>
      <trkpt lat="43.36929" lon="3.61999">
        <ele>55</ele>
        <time>2021-07-01T16:35:43.000Z</time>
      </trkpt>
      <trkpt lat="43.36939" lon="3.62015">
        <ele>55</ele>
        <time>2021-07-01T16:35:45.000Z</time>
      </trkpt>
      <trkpt lat="43.36955" lon="3.62038">
        <ele>55</ele>
        <time>2021-07-01T16:35:48.000Z</time>
      </trkpt>
      <trkpt lat="43.36967" lon="3.6205">
        <ele>54</ele>
        <time>2021-07-01T16:35:50.000Z</time>
      </trkpt>
      <trkpt lat="43.36979" lon="3.62065">
        <ele>55</ele>
        <time>2021-07-01T16:35:52.000Z</time>
      </trkpt>
      <trkpt lat="43.3699" lon="3.62081">
        <ele>55</ele>
        <time>2021-07-01T16:35:54.000Z</time>
      </trkpt>
      <trkpt lat="43.37007" lon="3.62106">
        <ele>53</ele>
        <time>2021-07-01T16:35:57.000Z</time>
      </trkpt>
      <trkpt lat="43.37019" lon="3.62123">
        <ele>52</ele>
        <time>2021-07-01T16:35:59.000Z</time>
      </trkpt>
      <trkpt lat="43.37029" lon="3.62139">
        <ele>52</ele>
        <time>2021-07-01T16:36:01.000Z</time>
      </trkpt>
      <trkpt lat="43.3704" lon="3.62153">
        <ele>53</ele>
        <time>2021-07-01T16:36:03.000Z</time>
      </trkpt>
      <trkpt lat="43.37049" lon="3.62167">
        <ele>53</ele>
        <time>2021-07-01T16:36:05.000Z</time>
      </trkpt>
      <trkpt lat="43.37058" lon="3.6218">
        <ele>53</ele>
        <time>2021-07-01T16:36:07.000Z</time>
      </trkpt>
      <trkpt lat="43.37067" lon="3.62194">
        <ele>53</ele>
        <time>2021-07-01T16:36:09.000Z</time>
      </trkpt>
      <trkpt lat="43.37076" lon="3.62207">
        <ele>53</ele>
        <time>2021-07-01T16:36:11.000Z</time>
      </trkpt>
      <trkpt lat="43.37085" lon="3.6222">
        <ele>53</ele>
        <time>2021-07-01T16:36:13.000Z</time>
      </trkpt>
      <trkpt lat="43.37094" lon="3.62233">
        <ele>52</ele>
        <time>2021-07-01T16:36:15.000Z</time>
      </trkpt>
      <trkpt lat="43.37103" lon="3.62245">
        <ele>53</ele>
        <time>2021-07-01T16:36:17.000Z</time>
      </trkpt>
      <trkpt lat="43.37112" lon="3.62258">
        <ele>53</ele>
        <time>2021-07-01T16:36:19.000Z</time>
      </trkpt>
      <trkpt lat="43.37122" lon="3.62272">
        <ele>53</ele>
        <time>2021-07-01T16:36:21.000Z</time>
      </trkpt>
      <trkpt lat="43.37131" lon="3.62286">
        <ele>53</ele>
        <time>2021-07-01T16:36:23.000Z</time>
      </trkpt>
      <trkpt lat="43.37141" lon="3.62299">
        <ele>53</ele>
        <time>2021-07-01T16:36:25.000Z</time>
      </trkpt>
      <trkpt lat="43.3715" lon="3.62313">
        <ele>53</ele>
        <time>2021-07-01T16:36:27.000Z</time>
      </trkpt>
      <trkpt lat="43.3716" lon="3.62328">
        <ele>53</ele>
        <time>2021-07-01T16:36:29.000Z</time>
      </trkpt>
      <trkpt lat="43.37171" lon="3.62344">
        <ele>54</ele>
        <time>2021-07-01T16:36:31.000Z</time>
      </trkpt>
      <trkpt lat="43.37183" lon="3.62361">
        <ele>53</ele>
        <time>2021-07-01T16:36:33.000Z</time>
      </trkpt>
      <trkpt lat="43.37195" lon="3.62378">
        <ele>53</ele>
        <time>2021-07-01T16:36:35.000Z</time>
      </trkpt>
      <trkpt lat="43.37207" lon="3.62394">
        <ele>54</ele>
        <time>2021-07-01T16:36:37.000Z</time>
      </trkpt>
      <trkpt lat="43.37224" lon="3.6242">
        <ele>52</ele>
        <time>2021-07-01T16:36:40.000Z</time>
      </trkpt>
      <trkpt lat="43.37236" lon="3.62437">
        <ele>51</ele>
        <time>2021-07-01T16:36:42.000Z</time>
      </trkpt>
      <trkpt lat="43.37248" lon="3.62453">
        <ele>51</ele>
        <time>2021-07-01T16:36:44.000Z</time>
      </trkpt>
      <trkpt lat="43.37259" lon="3.6247">
        <ele>52</ele>
        <time>2021-07-01T16:36:46.000Z</time>
      </trkpt>
      <trkpt lat="43.37276" lon="3.62493">
        <ele>53</ele>
        <time>2021-07-01T16:36:49.000Z</time>
      </trkpt>
      <trkpt lat="43.37287" lon="3.62509">
        <ele>52</ele>
        <time>2021-07-01T16:36:51.000Z</time>
      </trkpt>
      <trkpt lat="43.37299" lon="3.62526">
        <ele>52</ele>
        <time>2021-07-01T16:36:53.000Z</time>
      </trkpt>
      <trkpt lat="43.3731" lon="3.62543">
        <ele>52</ele>
        <time>2021-07-01T16:36:55.000Z</time>
      </trkpt>
      <trkpt lat="43.37321" lon="3.62558">
        <ele>52</ele>
        <time>2021-07-01T16:36:57.000Z</time>
      </trkpt>
      <trkpt lat="43.37332" lon="3.62574">
        <ele>52</ele>
        <time>2021-07-01T16:36:59.000Z</time>
      </trkpt>
      <trkpt lat="43.37343" lon="3.6259">
        <ele>52</ele>
        <time>2021-07-01T16:37:01.000Z</time>
      </trkpt>
      <trkpt lat="43.37354" lon="3.62606">
        <ele>52</ele>
        <time>2021-07-01T16:37:03.000Z</time>
      </trkpt>
      <trkpt lat="43.37365" lon="3.62623">
        <ele>52</ele>
        <time>2021-07-01T16:37:05.000Z</time>
      </trkpt>
      <trkpt lat="43.37377" lon="3.6264">
        <ele>52</ele>
        <time>2021-07-01T16:37:07.000Z</time>
      </trkpt>
      <trkpt lat="43.37388" lon="3.62657">
        <ele>53</ele>
        <time>2021-07-01T16:37:09.000Z</time>
      </trkpt>
      <trkpt lat="43.374" lon="3.62674">
        <ele>53</ele>
        <time>2021-07-01T16:37:11.000Z</time>
      </trkpt>
      <trkpt lat="43.37411" lon="3.62692">
        <ele>53</ele>
        <time>2021-07-01T16:37:13.000Z</time>
      </trkpt>
      <trkpt lat="43.37428" lon="3.62716">
        <ele>53</ele>
        <time>2021-07-01T16:37:16.000Z</time>
      </trkpt>
      <trkpt lat="43.37439" lon="3.62734">
        <ele>53</ele>
        <time>2021-07-01T16:37:18.000Z</time>
      </trkpt>
      <trkpt lat="43.37451" lon="3.6275">
        <ele>53</ele>
        <time>2021-07-01T16:37:20.000Z</time>
      </trkpt>
      <trkpt lat="43.37463" lon="3.62768">
        <ele>52</ele>
        <time>2021-07-01T16:37:22.000Z</time>
      </trkpt>
      <trkpt lat="43.37482" lon="3.62791">
        <ele>51</ele>
        <time>2021-07-01T16:37:25.000Z</time>
      </trkpt>
      <trkpt lat="43.37494" lon="3.62807">
        <ele>51</ele>
        <time>2021-07-01T16:37:27.000Z</time>
      </trkpt>
      <trkpt lat="43.37506" lon="3.62824">
        <ele>52</ele>
        <time>2021-07-01T16:37:29.000Z</time>
      </trkpt>
      <trkpt lat="43.37517" lon="3.62839">
        <ele>52</ele>
        <time>2021-07-01T16:37:31.000Z</time>
      </trkpt>
      <trkpt lat="43.37529" lon="3.62855">
        <ele>52</ele>
        <time>2021-07-01T16:37:33.000Z</time>
      </trkpt>
      <trkpt lat="43.3754" lon="3.62872">
        <ele>53</ele>
        <time>2021-07-01T16:37:35.000Z</time>
      </trkpt>
      <trkpt lat="43.37552" lon="3.62888">
        <ele>53</ele>
        <time>2021-07-01T16:37:37.000Z</time>
      </trkpt>
      <trkpt lat="43.37563" lon="3.62905">
        <ele>53</ele>
        <time>2021-07-01T16:37:39.000Z</time>
      </trkpt>
      <trkpt lat="43.37574" lon="3.62921">
        <ele>51</ele>
        <time>2021-07-01T16:37:41.000Z</time>
      </trkpt>
      <trkpt lat="43.37584" lon="3.62937">
        <ele>51</ele>
        <time>2021-07-01T16:37:43.000Z</time>
      </trkpt>
      <trkpt lat="43.37592" lon="3.62949">
        <ele>52</ele>
        <time>2021-07-01T16:37:45.000Z</time>
      </trkpt>
      <trkpt lat="43.37599" lon="3.62963">
        <ele>52</ele>
        <time>2021-07-01T16:37:47.000Z</time>
      </trkpt>
      <trkpt lat="43.37608" lon="3.62977">
        <ele>53</ele>
        <time>2021-07-01T16:37:49.000Z</time>
      </trkpt>
      <trkpt lat="43.37618" lon="3.62991">
        <ele>53</ele>
        <time>2021-07-01T16:37:51.000Z</time>
      </trkpt>
      <trkpt lat="43.37627" lon="3.63006">
        <ele>53</ele>
        <time>2021-07-01T16:37:53.000Z</time>
      </trkpt>
      <trkpt lat="43.37637" lon="3.63022">
        <ele>53</ele>
        <time>2021-07-01T16:37:55.000Z</time>
      </trkpt>
      <trkpt lat="43.37647" lon="3.63036">
        <ele>52</ele>
        <time>2021-07-01T16:37:57.000Z</time>
      </trkpt>
      <trkpt lat="43.37656" lon="3.63052">
        <ele>53</ele>
        <time>2021-07-01T16:37:59.000Z</time>
      </trkpt>
      <trkpt lat="43.37666" lon="3.63068">
        <ele>53</ele>
        <time>2021-07-01T16:38:01.000Z</time>
      </trkpt>
      <trkpt lat="43.37675" lon="3.63083">
        <ele>54</ele>
        <time>2021-07-01T16:38:03.000Z</time>
      </trkpt>
      <trkpt lat="43.37685" lon="3.63098">
        <ele>54</ele>
        <time>2021-07-01T16:38:05.000Z</time>
      </trkpt>
      <trkpt lat="43.37695" lon="3.63114">
        <ele>54</ele>
        <time>2021-07-01T16:38:07.000Z</time>
      </trkpt>
      <trkpt lat="43.37705" lon="3.63129">
        <ele>53</ele>
        <time>2021-07-01T16:38:09.000Z</time>
      </trkpt>
      <trkpt lat="43.37715" lon="3.63144">
        <ele>53</ele>
        <time>2021-07-01T16:38:11.000Z</time>
      </trkpt>
      <trkpt lat="43.37724" lon="3.6316">
        <ele>54</ele>
        <time>2021-07-01T16:38:13.000Z</time>
      </trkpt>
      <trkpt lat="43.37735" lon="3.63176">
        <ele>53</ele>
        <time>2021-07-01T16:38:15.000Z</time>
      </trkpt>
      <trkpt lat="43.37746" lon="3.63191">
        <ele>54</ele>
        <time>2021-07-01T16:38:17.000Z</time>
      </trkpt>
      <trkpt lat="43.37761" lon="3.63213">
        <ele>54</ele>
        <time>2021-07-01T16:38:20.000Z</time>
      </trkpt>
      <trkpt lat="43.37777" lon="3.63238">
        <ele>53</ele>
        <time>2021-07-01T16:38:23.000Z</time>
      </trkpt>
      <trkpt lat="43.37786" lon="3.63254">
        <ele>54</ele>
        <time>2021-07-01T16:38:25.000Z</time>
      </trkpt>
      <trkpt lat="43.37795" lon="3.63269">
        <ele>54</ele>
        <time>2021-07-01T16:38:27.000Z</time>
      </trkpt>
      <trkpt lat="43.37805" lon="3.63284">
        <ele>54</ele>
        <time>2021-07-01T16:38:29.000Z</time>
      </trkpt>
      <trkpt lat="43.37822" lon="3.63308">
        <ele>53</ele>
        <time>2021-07-01T16:38:32.000Z</time>
      </trkpt>
      <trkpt lat="43.37833" lon="3.63324">
        <ele>53</ele>
        <time>2021-07-01T16:38:34.000Z</time>
      </trkpt>
      <trkpt lat="43.37847" lon="3.63348">
        <ele>53</ele>
        <time>2021-07-01T16:38:37.000Z</time>
      </trkpt>
      <trkpt lat="43.37858" lon="3.63364">
        <ele>53</ele>
        <time>2021-07-01T16:38:39.000Z</time>
      </trkpt>
      <trkpt lat="43.37869" lon="3.63381">
        <ele>51</ele>
        <time>2021-07-01T16:38:41.000Z</time>
      </trkpt>
      <trkpt lat="43.37879" lon="3.63397">
        <ele>51</ele>
        <time>2021-07-01T16:38:43.000Z</time>
      </trkpt>
      <trkpt lat="43.37889" lon="3.63415">
        <ele>52</ele>
        <time>2021-07-01T16:38:45.000Z</time>
      </trkpt>
      <trkpt lat="43.37899" lon="3.63431">
        <ele>52</ele>
        <time>2021-07-01T16:38:47.000Z</time>
      </trkpt>
      <trkpt lat="43.37911" lon="3.63449">
        <ele>51</ele>
        <time>2021-07-01T16:38:49.000Z</time>
      </trkpt>
      <trkpt lat="43.37921" lon="3.63466">
        <ele>52</ele>
        <time>2021-07-01T16:38:51.000Z</time>
      </trkpt>
      <trkpt lat="43.37931" lon="3.63482">
        <ele>53</ele>
        <time>2021-07-01T16:38:53.000Z</time>
      </trkpt>
      <trkpt lat="43.37941" lon="3.63499">
        <ele>53</ele>
        <time>2021-07-01T16:38:55.000Z</time>
      </trkpt>
      <trkpt lat="43.37952" lon="3.63516">
        <ele>52</ele>
        <time>2021-07-01T16:38:57.000Z</time>
      </trkpt>
      <trkpt lat="43.37962" lon="3.63533">
        <ele>52</ele>
        <time>2021-07-01T16:38:59.000Z</time>
      </trkpt>
      <trkpt lat="43.37973" lon="3.63549">
        <ele>52</ele>
        <time>2021-07-01T16:39:01.000Z</time>
      </trkpt>
      <trkpt lat="43.37984" lon="3.63565">
        <ele>52</ele>
        <time>2021-07-01T16:39:03.000Z</time>
      </trkpt>
      <trkpt lat="43.37993" lon="3.6358">
        <ele>52</ele>
        <time>2021-07-01T16:39:05.000Z</time>
      </trkpt>
      <trkpt lat="43.38003" lon="3.63594">
        <ele>52</ele>
        <time>2021-07-01T16:39:07.000Z</time>
      </trkpt>
      <trkpt lat="43.38013" lon="3.63611">
        <ele>52</ele>
        <time>2021-07-01T16:39:09.000Z</time>
      </trkpt>
      <trkpt lat="43.38023" lon="3.63628">
        <ele>52</ele>
        <time>2021-07-01T16:39:11.000Z</time>
      </trkpt>
      <trkpt lat="43.38038" lon="3.63652">
        <ele>52</ele>
        <time>2021-07-01T16:39:14.000Z</time>
      </trkpt>
      <trkpt lat="43.38048" lon="3.63669">
        <ele>53</ele>
        <time>2021-07-01T16:39:16.000Z</time>
      </trkpt>
      <trkpt lat="43.38059" lon="3.63685">
        <ele>53</ele>
        <time>2021-07-01T16:39:18.000Z</time>
      </trkpt>
      <trkpt lat="43.38068" lon="3.63702">
        <ele>53</ele>
        <time>2021-07-01T16:39:20.000Z</time>
      </trkpt>
      <trkpt lat="43.38084" lon="3.63727">
        <ele>53</ele>
        <time>2021-07-01T16:39:23.000Z</time>
      </trkpt>
      <trkpt lat="43.38095" lon="3.63744">
        <ele>53</ele>
        <time>2021-07-01T16:39:25.000Z</time>
      </trkpt>
      <trkpt lat="43.38105" lon="3.6376">
        <ele>53</ele>
        <time>2021-07-01T16:39:27.000Z</time>
      </trkpt>
      <trkpt lat="43.38116" lon="3.63777">
        <ele>53</ele>
        <time>2021-07-01T16:39:29.000Z</time>
      </trkpt>
      <trkpt lat="43.38131" lon="3.63802">
        <ele>53</ele>
        <time>2021-07-01T16:39:32.000Z</time>
      </trkpt>
      <trkpt lat="43.38141" lon="3.63819">
        <ele>53</ele>
        <time>2021-07-01T16:39:34.000Z</time>
      </trkpt>
      <trkpt lat="43.38151" lon="3.63836">
        <ele>53</ele>
        <time>2021-07-01T16:39:36.000Z</time>
      </trkpt>
      <trkpt lat="43.38161" lon="3.63852">
        <ele>53</ele>
        <time>2021-07-01T16:39:38.000Z</time>
      </trkpt>
      <trkpt lat="43.38172" lon="3.63868">
        <ele>53</ele>
        <time>2021-07-01T16:39:40.000Z</time>
      </trkpt>
      <trkpt lat="43.38183" lon="3.63884">
        <ele>53</ele>
        <time>2021-07-01T16:39:42.000Z</time>
      </trkpt>
      <trkpt lat="43.38193" lon="3.63901">
        <ele>52</ele>
        <time>2021-07-01T16:39:44.000Z</time>
      </trkpt>
      <trkpt lat="43.38204" lon="3.63918">
        <ele>53</ele>
        <time>2021-07-01T16:39:46.000Z</time>
      </trkpt>
      <trkpt lat="43.38219" lon="3.63943">
        <ele>53</ele>
        <time>2021-07-01T16:39:49.000Z</time>
      </trkpt>
      <trkpt lat="43.38229" lon="3.6396">
        <ele>53</ele>
        <time>2021-07-01T16:39:51.000Z</time>
      </trkpt>
      <trkpt lat="43.38239" lon="3.63976">
        <ele>53</ele>
        <time>2021-07-01T16:39:53.000Z</time>
      </trkpt>
      <trkpt lat="43.38249" lon="3.63993">
        <ele>53</ele>
        <time>2021-07-01T16:39:55.000Z</time>
      </trkpt>
      <trkpt lat="43.3826" lon="3.64009">
        <ele>53</ele>
        <time>2021-07-01T16:39:57.000Z</time>
      </trkpt>
      <trkpt lat="43.38271" lon="3.64025">
        <ele>52</ele>
        <time>2021-07-01T16:39:59.000Z</time>
      </trkpt>
      <trkpt lat="43.38282" lon="3.64042">
        <ele>52</ele>
        <time>2021-07-01T16:40:01.000Z</time>
      </trkpt>
      <trkpt lat="43.38291" lon="3.64059">
        <ele>52</ele>
        <time>2021-07-01T16:40:03.000Z</time>
      </trkpt>
      <trkpt lat="43.38308" lon="3.64084">
        <ele>51</ele>
        <time>2021-07-01T16:40:06.000Z</time>
      </trkpt>
      <trkpt lat="43.38318" lon="3.641">
        <ele>52</ele>
        <time>2021-07-01T16:40:08.000Z</time>
      </trkpt>
      <trkpt lat="43.38328" lon="3.64118">
        <ele>51</ele>
        <time>2021-07-01T16:40:10.000Z</time>
      </trkpt>
      <trkpt lat="43.38338" lon="3.64135">
        <ele>51</ele>
        <time>2021-07-01T16:40:12.000Z</time>
      </trkpt>
      <trkpt lat="43.38349" lon="3.64151">
        <ele>52</ele>
        <time>2021-07-01T16:40:14.000Z</time>
      </trkpt>
      <trkpt lat="43.38359" lon="3.64167">
        <ele>51</ele>
        <time>2021-07-01T16:40:16.000Z</time>
      </trkpt>
      <trkpt lat="43.38369" lon="3.64183">
        <ele>52</ele>
        <time>2021-07-01T16:40:18.000Z</time>
      </trkpt>
      <trkpt lat="43.38379" lon="3.642">
        <ele>52</ele>
        <time>2021-07-01T16:40:20.000Z</time>
      </trkpt>
      <trkpt lat="43.38389" lon="3.64217">
        <ele>53</ele>
        <time>2021-07-01T16:40:22.000Z</time>
      </trkpt>
      <trkpt lat="43.38399" lon="3.64233">
        <ele>53</ele>
        <time>2021-07-01T16:40:24.000Z</time>
      </trkpt>
      <trkpt lat="43.38409" lon="3.64249">
        <ele>53</ele>
        <time>2021-07-01T16:40:26.000Z</time>
      </trkpt>
      <trkpt lat="43.38419" lon="3.64266">
        <ele>53</ele>
        <time>2021-07-01T16:40:28.000Z</time>
      </trkpt>
      <trkpt lat="43.38429" lon="3.64283">
        <ele>53</ele>
        <time>2021-07-01T16:40:30.000Z</time>
      </trkpt>
      <trkpt lat="43.38441" lon="3.64299">
        <ele>51</ele>
        <time>2021-07-01T16:40:32.000Z</time>
      </trkpt>
      <trkpt lat="43.38451" lon="3.64316">
        <ele>52</ele>
        <time>2021-07-01T16:40:34.000Z</time>
      </trkpt>
      <trkpt lat="43.38461" lon="3.64333">
        <ele>52</ele>
        <time>2021-07-01T16:40:36.000Z</time>
      </trkpt>
      <trkpt lat="43.38471" lon="3.64349">
        <ele>52</ele>
        <time>2021-07-01T16:40:38.000Z</time>
      </trkpt>
      <trkpt lat="43.38482" lon="3.64365">
        <ele>51</ele>
        <time>2021-07-01T16:40:40.000Z</time>
      </trkpt>
      <trkpt lat="43.38496" lon="3.64388">
        <ele>53</ele>
        <time>2021-07-01T16:40:43.000Z</time>
      </trkpt>
      <trkpt lat="43.38505" lon="3.64403">
        <ele>53</ele>
        <time>2021-07-01T16:40:45.000Z</time>
      </trkpt>
      <trkpt lat="43.38516" lon="3.64418">
        <ele>53</ele>
        <time>2021-07-01T16:40:47.000Z</time>
      </trkpt>
      <trkpt lat="43.38526" lon="3.64435">
        <ele>53</ele>
        <time>2021-07-01T16:40:49.000Z</time>
      </trkpt>
      <trkpt lat="43.38536" lon="3.64451">
        <ele>53</ele>
        <time>2021-07-01T16:40:51.000Z</time>
      </trkpt>
      <trkpt lat="43.38546" lon="3.64468">
        <ele>54</ele>
        <time>2021-07-01T16:40:53.000Z</time>
      </trkpt>
      <trkpt lat="43.38557" lon="3.64486">
        <ele>54</ele>
        <time>2021-07-01T16:40:55.000Z</time>
      </trkpt>
      <trkpt lat="43.38567" lon="3.64503">
        <ele>53</ele>
        <time>2021-07-01T16:40:57.000Z</time>
      </trkpt>
      <trkpt lat="43.38578" lon="3.6452">
        <ele>53</ele>
        <time>2021-07-01T16:40:59.000Z</time>
      </trkpt>
      <trkpt lat="43.38589" lon="3.64537">
        <ele>53</ele>
        <time>2021-07-01T16:41:01.000Z</time>
      </trkpt>
      <trkpt lat="43.38599" lon="3.64554">
        <ele>52</ele>
        <time>2021-07-01T16:41:03.000Z</time>
      </trkpt>
      <trkpt lat="43.3861" lon="3.64571">
        <ele>52</ele>
        <time>2021-07-01T16:41:05.000Z</time>
      </trkpt>
      <trkpt lat="43.38626" lon="3.64598">
        <ele>51</ele>
        <time>2021-07-01T16:41:08.000Z</time>
      </trkpt>
      <trkpt lat="43.38637" lon="3.64615">
        <ele>51</ele>
        <time>2021-07-01T16:41:10.000Z</time>
      </trkpt>
      <trkpt lat="43.38648" lon="3.64633">
        <ele>51</ele>
        <time>2021-07-01T16:41:12.000Z</time>
      </trkpt>
      <trkpt lat="43.38659" lon="3.64651">
        <ele>52</ele>
        <time>2021-07-01T16:41:14.000Z</time>
      </trkpt>
      <trkpt lat="43.38671" lon="3.64668">
        <ele>51</ele>
        <time>2021-07-01T16:41:16.000Z</time>
      </trkpt>
      <trkpt lat="43.38682" lon="3.64685">
        <ele>51</ele>
        <time>2021-07-01T16:41:18.000Z</time>
      </trkpt>
      <trkpt lat="43.38693" lon="3.64701">
        <ele>51</ele>
        <time>2021-07-01T16:41:20.000Z</time>
      </trkpt>
      <trkpt lat="43.38704" lon="3.64718">
        <ele>52</ele>
        <time>2021-07-01T16:41:22.000Z</time>
      </trkpt>
      <trkpt lat="43.3872" lon="3.64742">
        <ele>52</ele>
        <time>2021-07-01T16:41:25.000Z</time>
      </trkpt>
      <trkpt lat="43.38732" lon="3.64758">
        <ele>51</ele>
        <time>2021-07-01T16:41:27.000Z</time>
      </trkpt>
      <trkpt lat="43.38744" lon="3.64774">
        <ele>51</ele>
        <time>2021-07-01T16:41:29.000Z</time>
      </trkpt>
      <trkpt lat="43.38756" lon="3.64789">
        <ele>52</ele>
        <time>2021-07-01T16:41:31.000Z</time>
      </trkpt>
      <trkpt lat="43.38767" lon="3.64804">
        <ele>52</ele>
        <time>2021-07-01T16:41:33.000Z</time>
      </trkpt>
      <trkpt lat="43.38779" lon="3.64818">
        <ele>52</ele>
        <time>2021-07-01T16:41:35.000Z</time>
      </trkpt>
      <trkpt lat="43.38789" lon="3.64832">
        <ele>53</ele>
        <time>2021-07-01T16:41:37.000Z</time>
      </trkpt>
      <trkpt lat="43.38803" lon="3.64857">
        <ele>52</ele>
        <time>2021-07-01T16:41:40.000Z</time>
      </trkpt>
      <trkpt lat="43.38813" lon="3.64873">
        <ele>52</ele>
        <time>2021-07-01T16:41:42.000Z</time>
      </trkpt>
      <trkpt lat="43.38823" lon="3.64887">
        <ele>52</ele>
        <time>2021-07-01T16:41:44.000Z</time>
      </trkpt>
      <trkpt lat="43.3883" lon="3.64901">
        <ele>52</ele>
        <time>2021-07-01T16:41:46.000Z</time>
      </trkpt>
      <trkpt lat="43.38837" lon="3.64916">
        <ele>53</ele>
        <time>2021-07-01T16:41:48.000Z</time>
      </trkpt>
      <trkpt lat="43.38845" lon="3.6493">
        <ele>52</ele>
        <time>2021-07-01T16:41:50.000Z</time>
      </trkpt>
      <trkpt lat="43.38857" lon="3.6495">
        <ele>51</ele>
        <time>2021-07-01T16:41:52.000Z</time>
      </trkpt>
      <trkpt lat="43.38863" lon="3.64964">
        <ele>52</ele>
        <time>2021-07-01T16:41:54.000Z</time>
      </trkpt>
      <trkpt lat="43.38869" lon="3.64976">
        <ele>52</ele>
        <time>2021-07-01T16:41:56.000Z</time>
      </trkpt>
      <trkpt lat="43.38876" lon="3.6499">
        <ele>52</ele>
        <time>2021-07-01T16:41:58.000Z</time>
      </trkpt>
      <trkpt lat="43.38881" lon="3.65003">
        <ele>52</ele>
        <time>2021-07-01T16:42:00.000Z</time>
      </trkpt>
      <trkpt lat="43.38889" lon="3.65012">
        <ele>53</ele>
        <time>2021-07-01T16:42:02.000Z</time>
      </trkpt>
      <trkpt lat="43.38895" lon="3.65023">
        <ele>53</ele>
        <time>2021-07-01T16:42:04.000Z</time>
      </trkpt>
      <trkpt lat="43.38903" lon="3.65035">
        <ele>53</ele>
        <time>2021-07-01T16:42:06.000Z</time>
      </trkpt>
      <trkpt lat="43.38913" lon="3.65055">
        <ele>53</ele>
        <time>2021-07-01T16:42:09.000Z</time>
      </trkpt>
      <trkpt lat="43.38919" lon="3.65067">
        <ele>54</ele>
        <time>2021-07-01T16:42:11.000Z</time>
      </trkpt>
      <trkpt lat="43.38925" lon="3.6508">
        <ele>54</ele>
        <time>2021-07-01T16:42:13.000Z</time>
      </trkpt>
      <trkpt lat="43.38932" lon="3.65093">
        <ele>54</ele>
        <time>2021-07-01T16:42:15.000Z</time>
      </trkpt>
      <trkpt lat="43.38941" lon="3.65106">
        <ele>53</ele>
        <time>2021-07-01T16:42:17.000Z</time>
      </trkpt>
      <trkpt lat="43.38948" lon="3.6512">
        <ele>54</ele>
        <time>2021-07-01T16:42:19.000Z</time>
      </trkpt>
      <trkpt lat="43.38955" lon="3.65135">
        <ele>54</ele>
        <time>2021-07-01T16:42:21.000Z</time>
      </trkpt>
      <trkpt lat="43.38967" lon="3.65156">
        <ele>54</ele>
        <time>2021-07-01T16:42:24.000Z</time>
      </trkpt>
      <trkpt lat="43.38975" lon="3.65171">
        <ele>54</ele>
        <time>2021-07-01T16:42:26.000Z</time>
      </trkpt>
      <trkpt lat="43.38982" lon="3.65186">
        <ele>54</ele>
        <time>2021-07-01T16:42:28.000Z</time>
      </trkpt>
      <trkpt lat="43.3899" lon="3.65201">
        <ele>54</ele>
        <time>2021-07-01T16:42:30.000Z</time>
      </trkpt>
      <trkpt lat="43.38998" lon="3.65215">
        <ele>54</ele>
        <time>2021-07-01T16:42:32.000Z</time>
      </trkpt>
      <trkpt lat="43.39005" lon="3.65231">
        <ele>53</ele>
        <time>2021-07-01T16:42:34.000Z</time>
      </trkpt>
      <trkpt lat="43.39011" lon="3.65247">
        <ele>54</ele>
        <time>2021-07-01T16:42:36.000Z</time>
      </trkpt>
      <trkpt lat="43.39018" lon="3.65264">
        <ele>54</ele>
        <time>2021-07-01T16:42:38.000Z</time>
      </trkpt>
      <trkpt lat="43.39029" lon="3.65289">
        <ele>53</ele>
        <time>2021-07-01T16:42:41.000Z</time>
      </trkpt>
      <trkpt lat="43.39036" lon="3.65305">
        <ele>52</ele>
        <time>2021-07-01T16:42:43.000Z</time>
      </trkpt>
      <trkpt lat="43.39043" lon="3.65322">
        <ele>52</ele>
        <time>2021-07-01T16:42:45.000Z</time>
      </trkpt>
      <trkpt lat="43.3905" lon="3.65339">
        <ele>53</ele>
        <time>2021-07-01T16:42:47.000Z</time>
      </trkpt>
      <trkpt lat="43.39056" lon="3.65357">
        <ele>52</ele>
        <time>2021-07-01T16:42:49.000Z</time>
      </trkpt>
      <trkpt lat="43.39068" lon="3.65382">
        <ele>52</ele>
        <time>2021-07-01T16:42:52.000Z</time>
      </trkpt>
      <trkpt lat="43.39076" lon="3.654">
        <ele>52</ele>
        <time>2021-07-01T16:42:54.000Z</time>
      </trkpt>
      <trkpt lat="43.39082" lon="3.65419">
        <ele>53</ele>
        <time>2021-07-01T16:42:56.000Z</time>
      </trkpt>
      <trkpt lat="43.39089" lon="3.65438">
        <ele>53</ele>
        <time>2021-07-01T16:42:58.000Z</time>
      </trkpt>
      <trkpt lat="43.39097" lon="3.65456">
        <ele>53</ele>
        <time>2021-07-01T16:43:00.000Z</time>
      </trkpt>
      <trkpt lat="43.39103" lon="3.65475">
        <ele>53</ele>
        <time>2021-07-01T16:43:02.000Z</time>
      </trkpt>
      <trkpt lat="43.3911" lon="3.65494">
        <ele>53</ele>
        <time>2021-07-01T16:43:04.000Z</time>
      </trkpt>
      <trkpt lat="43.39122" lon="3.65522">
        <ele>53</ele>
        <time>2021-07-01T16:43:07.000Z</time>
      </trkpt>
      <trkpt lat="43.39131" lon="3.65541">
        <ele>53</ele>
        <time>2021-07-01T16:43:09.000Z</time>
      </trkpt>
      <trkpt lat="43.39138" lon="3.65559">
        <ele>54</ele>
        <time>2021-07-01T16:43:11.000Z</time>
      </trkpt>
      <trkpt lat="43.39146" lon="3.65578">
        <ele>54</ele>
        <time>2021-07-01T16:43:13.000Z</time>
      </trkpt>
      <trkpt lat="43.39154" lon="3.65596">
        <ele>54</ele>
        <time>2021-07-01T16:43:15.000Z</time>
      </trkpt>
      <trkpt lat="43.39161" lon="3.65616">
        <ele>53</ele>
        <time>2021-07-01T16:43:17.000Z</time>
      </trkpt>
      <trkpt lat="43.39169" lon="3.65634">
        <ele>52</ele>
        <time>2021-07-01T16:43:19.000Z</time>
      </trkpt>
      <trkpt lat="43.39175" lon="3.65654">
        <ele>53</ele>
        <time>2021-07-01T16:43:21.000Z</time>
      </trkpt>
      <trkpt lat="43.39182" lon="3.65675">
        <ele>53</ele>
        <time>2021-07-01T16:43:23.000Z</time>
      </trkpt>
      <trkpt lat="43.39193" lon="3.65707">
        <ele>53</ele>
        <time>2021-07-01T16:43:26.000Z</time>
      </trkpt>
      <trkpt lat="43.392" lon="3.65724">
        <ele>53</ele>
        <time>2021-07-01T16:43:28.000Z</time>
      </trkpt>
      <trkpt lat="43.39207" lon="3.65742">
        <ele>53</ele>
        <time>2021-07-01T16:43:30.000Z</time>
      </trkpt>
      <trkpt lat="43.39216" lon="3.6576">
        <ele>52</ele>
        <time>2021-07-01T16:43:32.000Z</time>
      </trkpt>
      <trkpt lat="43.39222" lon="3.6577">
        <ele>52</ele>
        <time>2021-07-01T16:43:33.000Z</time>
      </trkpt>
      <trkpt lat="43.39229" lon="3.65789">
        <ele>52</ele>
        <time>2021-07-01T16:43:35.000Z</time>
      </trkpt>
      <trkpt lat="43.39234" lon="3.65808">
        <ele>53</ele>
        <time>2021-07-01T16:43:37.000Z</time>
      </trkpt>
      <trkpt lat="43.39241" lon="3.65826">
        <ele>54</ele>
        <time>2021-07-01T16:43:39.000Z</time>
      </trkpt>
      <trkpt lat="43.39252" lon="3.65854">
        <ele>52</ele>
        <time>2021-07-01T16:43:42.000Z</time>
      </trkpt>
      <trkpt lat="43.39259" lon="3.65871">
        <ele>52</ele>
        <time>2021-07-01T16:43:44.000Z</time>
      </trkpt>
      <trkpt lat="43.39267" lon="3.65889">
        <ele>52</ele>
        <time>2021-07-01T16:43:46.000Z</time>
      </trkpt>
      <trkpt lat="43.39274" lon="3.65906">
        <ele>52</ele>
        <time>2021-07-01T16:43:48.000Z</time>
      </trkpt>
      <trkpt lat="43.39282" lon="3.65923">
        <ele>50</ele>
        <time>2021-07-01T16:43:50.000Z</time>
      </trkpt>
      <trkpt lat="43.39289" lon="3.65939">
        <ele>51</ele>
        <time>2021-07-01T16:43:52.000Z</time>
      </trkpt>
      <trkpt lat="43.39294" lon="3.65957">
        <ele>51</ele>
        <time>2021-07-01T16:43:54.000Z</time>
      </trkpt>
      <trkpt lat="43.39299" lon="3.65976">
        <ele>52</ele>
        <time>2021-07-01T16:43:56.000Z</time>
      </trkpt>
      <trkpt lat="43.39306" lon="3.65992">
        <ele>53</ele>
        <time>2021-07-01T16:43:58.000Z</time>
      </trkpt>
      <trkpt lat="43.39314" lon="3.66009">
        <ele>52</ele>
        <time>2021-07-01T16:44:00.000Z</time>
      </trkpt>
      <trkpt lat="43.39321" lon="3.66025">
        <ele>52</ele>
        <time>2021-07-01T16:44:02.000Z</time>
      </trkpt>
      <trkpt lat="43.39328" lon="3.66042">
        <ele>52</ele>
        <time>2021-07-01T16:44:04.000Z</time>
      </trkpt>
      <trkpt lat="43.39333" lon="3.66058">
        <ele>52</ele>
        <time>2021-07-01T16:44:06.000Z</time>
      </trkpt>
      <trkpt lat="43.39336" lon="3.66074">
        <ele>51</ele>
        <time>2021-07-01T16:44:08.000Z</time>
      </trkpt>
      <trkpt lat="43.39337" lon="3.6609">
        <ele>52</ele>
        <time>2021-07-01T16:44:10.000Z</time>
      </trkpt>
      <trkpt lat="43.39337" lon="3.66104">
        <ele>52</ele>
        <time>2021-07-01T16:44:12.000Z</time>
      </trkpt>
      <trkpt lat="43.39336" lon="3.6612">
        <ele>53</ele>
        <time>2021-07-01T16:44:14.000Z</time>
      </trkpt>
      <trkpt lat="43.39334" lon="3.66134">
        <ele>53</ele>
        <time>2021-07-01T16:44:16.000Z</time>
      </trkpt>
      <trkpt lat="43.39331" lon="3.66147">
        <ele>53</ele>
        <time>2021-07-01T16:44:18.000Z</time>
      </trkpt>
      <trkpt lat="43.39324" lon="3.66158">
        <ele>53</ele>
        <time>2021-07-01T16:44:20.000Z</time>
      </trkpt>
      <trkpt lat="43.39315" lon="3.66167">
        <ele>53</ele>
        <time>2021-07-01T16:44:22.000Z</time>
      </trkpt>
      <trkpt lat="43.39308" lon="3.66179">
        <ele>53</ele>
        <time>2021-07-01T16:44:24.000Z</time>
      </trkpt>
      <trkpt lat="43.39305" lon="3.66195">
        <ele>53</ele>
        <time>2021-07-01T16:44:26.000Z</time>
      </trkpt>
      <trkpt lat="43.39309" lon="3.6621">
        <ele>53</ele>
        <time>2021-07-01T16:44:28.000Z</time>
      </trkpt>
      <trkpt lat="43.39315" lon="3.66223">
        <ele>53</ele>
        <time>2021-07-01T16:44:30.000Z</time>
      </trkpt>
      <trkpt lat="43.39321" lon="3.66237">
        <ele>54</ele>
        <time>2021-07-01T16:44:32.000Z</time>
      </trkpt>
      <trkpt lat="43.39327" lon="3.66251">
        <ele>53</ele>
        <time>2021-07-01T16:44:34.000Z</time>
      </trkpt>
      <trkpt lat="43.39333" lon="3.66266">
        <ele>54</ele>
        <time>2021-07-01T16:44:36.000Z</time>
      </trkpt>
      <trkpt lat="43.39336" lon="3.66281">
        <ele>55</ele>
        <time>2021-07-01T16:44:38.000Z</time>
      </trkpt>
      <trkpt lat="43.3934" lon="3.66294">
        <ele>55</ele>
        <time>2021-07-01T16:44:40.000Z</time>
      </trkpt>
      <trkpt lat="43.39345" lon="3.66308">
        <ele>56</ele>
        <time>2021-07-01T16:44:42.000Z</time>
      </trkpt>
      <trkpt lat="43.3935" lon="3.66323">
        <ele>56</ele>
        <time>2021-07-01T16:44:44.000Z</time>
      </trkpt>
      <trkpt lat="43.39356" lon="3.66339">
        <ele>56</ele>
        <time>2021-07-01T16:44:46.000Z</time>
      </trkpt>
      <trkpt lat="43.39363" lon="3.6636">
        <ele>56</ele>
        <time>2021-07-01T16:44:49.000Z</time>
      </trkpt>
      <trkpt lat="43.39367" lon="3.66375">
        <ele>56</ele>
        <time>2021-07-01T16:44:51.000Z</time>
      </trkpt>
      <trkpt lat="43.39364" lon="3.66391">
        <ele>56</ele>
        <time>2021-07-01T16:44:53.000Z</time>
      </trkpt>
      <trkpt lat="43.39361" lon="3.66409">
        <ele>57</ele>
        <time>2021-07-01T16:44:55.000Z</time>
      </trkpt>
      <trkpt lat="43.39362" lon="3.66427">
        <ele>56</ele>
        <time>2021-07-01T16:44:57.000Z</time>
      </trkpt>
      <trkpt lat="43.39365" lon="3.66454">
        <ele>55</ele>
        <time>2021-07-01T16:45:00.000Z</time>
      </trkpt>
      <trkpt lat="43.39367" lon="3.66472">
        <ele>55</ele>
        <time>2021-07-01T16:45:02.000Z</time>
      </trkpt>
      <trkpt lat="43.39368" lon="3.6649">
        <ele>55</ele>
        <time>2021-07-01T16:45:04.000Z</time>
      </trkpt>
      <trkpt lat="43.39371" lon="3.66515">
        <ele>55</ele>
        <time>2021-07-01T16:45:07.000Z</time>
      </trkpt>
      <trkpt lat="43.39373" lon="3.66533">
        <ele>55</ele>
        <time>2021-07-01T16:45:09.000Z</time>
      </trkpt>
      <trkpt lat="43.39377" lon="3.66549">
        <ele>54</ele>
        <time>2021-07-01T16:45:11.000Z</time>
      </trkpt>
      <trkpt lat="43.39383" lon="3.66564">
        <ele>55</ele>
        <time>2021-07-01T16:45:13.000Z</time>
      </trkpt>
      <trkpt lat="43.39388" lon="3.6658">
        <ele>54</ele>
        <time>2021-07-01T16:45:15.000Z</time>
      </trkpt>
      <trkpt lat="43.39392" lon="3.66605">
        <ele>54</ele>
        <time>2021-07-01T16:45:18.000Z</time>
      </trkpt>
      <trkpt lat="43.39396" lon="3.66622">
        <ele>54</ele>
        <time>2021-07-01T16:45:20.000Z</time>
      </trkpt>
      <trkpt lat="43.39398" lon="3.6664">
        <ele>54</ele>
        <time>2021-07-01T16:45:22.000Z</time>
      </trkpt>
      <trkpt lat="43.394" lon="3.66659">
        <ele>53</ele>
        <time>2021-07-01T16:45:24.000Z</time>
      </trkpt>
      <trkpt lat="43.39403" lon="3.66679">
        <ele>52</ele>
        <time>2021-07-01T16:45:26.000Z</time>
      </trkpt>
      <trkpt lat="43.39405" lon="3.66696">
        <ele>52</ele>
        <time>2021-07-01T16:45:28.000Z</time>
      </trkpt>
      <trkpt lat="43.39408" lon="3.66714">
        <ele>52</ele>
        <time>2021-07-01T16:45:30.000Z</time>
      </trkpt>
      <trkpt lat="43.3941" lon="3.66731">
        <ele>52</ele>
        <time>2021-07-01T16:45:32.000Z</time>
      </trkpt>
      <trkpt lat="43.39413" lon="3.66749">
        <ele>52</ele>
        <time>2021-07-01T16:45:34.000Z</time>
      </trkpt>
      <trkpt lat="43.39415" lon="3.66766">
        <ele>53</ele>
        <time>2021-07-01T16:45:36.000Z</time>
      </trkpt>
      <trkpt lat="43.39417" lon="3.66784">
        <ele>53</ele>
        <time>2021-07-01T16:45:38.000Z</time>
      </trkpt>
      <trkpt lat="43.39418" lon="3.66802">
        <ele>53</ele>
        <time>2021-07-01T16:45:40.000Z</time>
      </trkpt>
      <trkpt lat="43.39419" lon="3.66833">
        <ele>49</ele>
        <time>2021-07-01T16:45:43.000Z</time>
      </trkpt>
      <trkpt lat="43.39422" lon="3.66849">
        <ele>50</ele>
        <time>2021-07-01T16:45:45.000Z</time>
      </trkpt>
      <trkpt lat="43.39423" lon="3.66866">
        <ele>51</ele>
        <time>2021-07-01T16:45:47.000Z</time>
      </trkpt>
      <trkpt lat="43.39426" lon="3.66881">
        <ele>52</ele>
        <time>2021-07-01T16:45:49.000Z</time>
      </trkpt>
      <trkpt lat="43.39428" lon="3.66899">
        <ele>52</ele>
        <time>2021-07-01T16:45:51.000Z</time>
      </trkpt>
      <trkpt lat="43.3943" lon="3.66916">
        <ele>52</ele>
        <time>2021-07-01T16:45:53.000Z</time>
      </trkpt>
      <trkpt lat="43.3943" lon="3.66933">
        <ele>53</ele>
        <time>2021-07-01T16:45:55.000Z</time>
      </trkpt>
      <trkpt lat="43.3943" lon="3.66951">
        <ele>53</ele>
        <time>2021-07-01T16:45:57.000Z</time>
      </trkpt>
      <trkpt lat="43.39427" lon="3.66968">
        <ele>53</ele>
        <time>2021-07-01T16:45:59.000Z</time>
      </trkpt>
      <trkpt lat="43.39424" lon="3.66984">
        <ele>54</ele>
        <time>2021-07-01T16:46:01.000Z</time>
      </trkpt>
      <trkpt lat="43.39421" lon="3.67001">
        <ele>54</ele>
        <time>2021-07-01T16:46:03.000Z</time>
      </trkpt>
      <trkpt lat="43.39418" lon="3.67019">
        <ele>55</ele>
        <time>2021-07-01T16:46:05.000Z</time>
      </trkpt>
      <trkpt lat="43.39413" lon="3.67035">
        <ele>55</ele>
        <time>2021-07-01T16:46:07.000Z</time>
      </trkpt>
      <trkpt lat="43.39409" lon="3.6705">
        <ele>55</ele>
        <time>2021-07-01T16:46:09.000Z</time>
      </trkpt>
      <trkpt lat="43.39405" lon="3.67067">
        <ele>56</ele>
        <time>2021-07-01T16:46:11.000Z</time>
      </trkpt>
      <trkpt lat="43.394" lon="3.67082">
        <ele>56</ele>
        <time>2021-07-01T16:46:13.000Z</time>
      </trkpt>
      <trkpt lat="43.39396" lon="3.67097">
        <ele>56</ele>
        <time>2021-07-01T16:46:15.000Z</time>
      </trkpt>
      <trkpt lat="43.39391" lon="3.67112">
        <ele>56</ele>
        <time>2021-07-01T16:46:17.000Z</time>
      </trkpt>
      <trkpt lat="43.39388" lon="3.67124">
        <ele>56</ele>
        <time>2021-07-01T16:46:19.000Z</time>
      </trkpt>
      <trkpt lat="43.39384" lon="3.67137">
        <ele>56</ele>
        <time>2021-07-01T16:46:23.000Z</time>
      </trkpt>
      <trkpt lat="43.3938" lon="3.67153">
        <ele>56</ele>
        <time>2021-07-01T16:46:27.000Z</time>
      </trkpt>
      <trkpt lat="43.39374" lon="3.67168">
        <ele>56</ele>
        <time>2021-07-01T16:46:30.000Z</time>
      </trkpt>
      <trkpt lat="43.39367" lon="3.67183">
        <ele>57</ele>
        <time>2021-07-01T16:46:33.000Z</time>
      </trkpt>
      <trkpt lat="43.39359" lon="3.67201">
        <ele>57</ele>
        <time>2021-07-01T16:46:36.000Z</time>
      </trkpt>
      <trkpt lat="43.39352" lon="3.67212">
        <ele>58</ele>
        <time>2021-07-01T16:46:38.000Z</time>
      </trkpt>
      <trkpt lat="43.39345" lon="3.67221">
        <ele>58</ele>
        <time>2021-07-01T16:46:40.000Z</time>
      </trkpt>
      <trkpt lat="43.39339" lon="3.67232">
        <ele>57</ele>
        <time>2021-07-01T16:46:42.000Z</time>
      </trkpt>
      <trkpt lat="43.39328" lon="3.67248">
        <ele>57</ele>
        <time>2021-07-01T16:46:46.000Z</time>
      </trkpt>
      <trkpt lat="43.39321" lon="3.6726">
        <ele>57</ele>
        <time>2021-07-01T16:46:49.000Z</time>
      </trkpt>
      <trkpt lat="43.39315" lon="3.67271">
        <ele>58</ele>
        <time>2021-07-01T16:46:53.000Z</time>
      </trkpt>
      <trkpt lat="43.39313" lon="3.67258">
        <ele>57</ele>
        <time>2021-07-01T16:47:18.000Z</time>
      </trkpt>
      <trkpt lat="43.39314" lon="3.67277">
        <ele>53</ele>
        <time>2021-07-01T16:59:51.000Z</time>
      </trkpt>
      <trkpt lat="43.39309" lon="3.67288">
        <ele>55</ele>
        <time>2021-07-01T16:59:56.000Z</time>
      </trkpt>
      <trkpt lat="43.39303" lon="3.67297">
        <ele>54</ele>
        <time>2021-07-01T16:59:59.000Z</time>
      </trkpt>
      <trkpt lat="43.39297" lon="3.67307">
        <ele>53</ele>
        <time>2021-07-01T17:00:02.000Z</time>
      </trkpt>
      <trkpt lat="43.39291" lon="3.6732">
        <ele>54</ele>
        <time>2021-07-01T17:00:05.000Z</time>
      </trkpt>
      <trkpt lat="43.39285" lon="3.67332">
        <ele>53</ele>
        <time>2021-07-01T17:00:08.000Z</time>
      </trkpt>
      <trkpt lat="43.39278" lon="3.67345">
        <ele>54</ele>
        <time>2021-07-01T17:00:11.000Z</time>
      </trkpt>
      <trkpt lat="43.39269" lon="3.67362">
        <ele>56</ele>
        <time>2021-07-01T17:00:15.000Z</time>
      </trkpt>
      <trkpt lat="43.39263" lon="3.67378">
        <ele>55</ele>
        <time>2021-07-01T17:00:18.000Z</time>
      </trkpt>
      <trkpt lat="43.39262" lon="3.67395">
        <ele>55</ele>
        <time>2021-07-01T17:00:21.000Z</time>
      </trkpt>
      <trkpt lat="43.39261" lon="3.67414">
        <ele>55</ele>
        <time>2021-07-01T17:00:24.000Z</time>
      </trkpt>
      <trkpt lat="43.39261" lon="3.67431">
        <ele>56</ele>
        <time>2021-07-01T17:00:27.000Z</time>
      </trkpt>
      <trkpt lat="43.39261" lon="3.67449">
        <ele>56</ele>
        <time>2021-07-01T17:00:30.000Z</time>
      </trkpt>
      <trkpt lat="43.39264" lon="3.67467">
        <ele>56</ele>
        <time>2021-07-01T17:00:33.000Z</time>
      </trkpt>
      <trkpt lat="43.39267" lon="3.67479">
        <ele>56</ele>
        <time>2021-07-01T17:00:35.000Z</time>
      </trkpt>
      <trkpt lat="43.3927" lon="3.67495">
        <ele>58</ele>
        <time>2021-07-01T17:00:38.000Z</time>
      </trkpt>
      <trkpt lat="43.39277" lon="3.67509">
        <ele>58</ele>
        <time>2021-07-01T17:00:41.000Z</time>
      </trkpt>
      <trkpt lat="43.39285" lon="3.67522">
        <ele>59</ele>
        <time>2021-07-01T17:00:44.000Z</time>
      </trkpt>
      <trkpt lat="43.39292" lon="3.67533">
        <ele>60</ele>
        <time>2021-07-01T17:00:47.000Z</time>
      </trkpt>
      <trkpt lat="43.39302" lon="3.6755">
        <ele>60</ele>
        <time>2021-07-01T17:00:51.000Z</time>
      </trkpt>
      <trkpt lat="43.39309" lon="3.67563">
        <ele>60</ele>
        <time>2021-07-01T17:00:54.000Z</time>
      </trkpt>
      <trkpt lat="43.39316" lon="3.67573">
        <ele>61</ele>
        <time>2021-07-01T17:00:57.000Z</time>
      </trkpt>
      <trkpt lat="43.39324" lon="3.67586">
        <ele>62</ele>
        <time>2021-07-01T17:01:00.000Z</time>
      </trkpt>
      <trkpt lat="43.39331" lon="3.67597">
        <ele>63</ele>
        <time>2021-07-01T17:01:03.000Z</time>
      </trkpt>
      <trkpt lat="43.39344" lon="3.67615">
        <ele>64</ele>
        <time>2021-07-01T17:01:08.000Z</time>
      </trkpt>
      <trkpt lat="43.39353" lon="3.67624">
        <ele>65</ele>
        <time>2021-07-01T17:01:11.000Z</time>
      </trkpt>
      <trkpt lat="43.39361" lon="3.67633">
        <ele>66</ele>
        <time>2021-07-01T17:01:14.000Z</time>
      </trkpt>
      <trkpt lat="43.3937" lon="3.67642">
        <ele>66</ele>
        <time>2021-07-01T17:01:17.000Z</time>
      </trkpt>
      <trkpt lat="43.39379" lon="3.67652">
        <ele>66</ele>
        <time>2021-07-01T17:01:20.000Z</time>
      </trkpt>
      <trkpt lat="43.39391" lon="3.67664">
        <ele>67</ele>
        <time>2021-07-01T17:01:24.000Z</time>
      </trkpt>
      <trkpt lat="43.394" lon="3.67673">
        <ele>67</ele>
        <time>2021-07-01T17:01:27.000Z</time>
      </trkpt>
      <trkpt lat="43.39408" lon="3.6768">
        <ele>68</ele>
        <time>2021-07-01T17:01:30.000Z</time>
      </trkpt>
      <trkpt lat="43.39417" lon="3.6769">
        <ele>68</ele>
        <time>2021-07-01T17:01:34.000Z</time>
      </trkpt>
      <trkpt lat="43.39429" lon="3.67701">
        <ele>69</ele>
        <time>2021-07-01T17:01:39.000Z</time>
      </trkpt>
      <trkpt lat="43.3944" lon="3.67709">
        <ele>68</ele>
        <time>2021-07-01T17:01:44.000Z</time>
      </trkpt>
      <trkpt lat="43.39448" lon="3.67716">
        <ele>68</ele>
        <time>2021-07-01T17:01:48.000Z</time>
      </trkpt>
      <trkpt lat="43.39449" lon="3.6773">
        <ele>69</ele>
        <time>2021-07-01T17:01:52.000Z</time>
      </trkpt>
      <trkpt lat="43.39444" lon="3.67741">
        <ele>69</ele>
        <time>2021-07-01T17:01:55.000Z</time>
      </trkpt>
      <trkpt lat="43.39439" lon="3.67756">
        <ele>69</ele>
        <time>2021-07-01T17:01:59.000Z</time>
      </trkpt>
      <trkpt lat="43.39435" lon="3.67768">
        <ele>69</ele>
        <time>2021-07-01T17:02:02.000Z</time>
      </trkpt>
      <trkpt lat="43.3943" lon="3.67783">
        <ele>68</ele>
        <time>2021-07-01T17:02:05.000Z</time>
      </trkpt>
      <trkpt lat="43.39426" lon="3.67797">
        <ele>68</ele>
        <time>2021-07-01T17:02:08.000Z</time>
      </trkpt>
      <trkpt lat="43.39421" lon="3.67812">
        <ele>68</ele>
        <time>2021-07-01T17:02:11.000Z</time>
      </trkpt>
      <trkpt lat="43.39416" lon="3.67828">
        <ele>67</ele>
        <time>2021-07-01T17:02:14.000Z</time>
      </trkpt>
      <trkpt lat="43.39412" lon="3.67845">
        <ele>68</ele>
        <time>2021-07-01T17:02:17.000Z</time>
      </trkpt>
      <trkpt lat="43.39406" lon="3.67858">
        <ele>68</ele>
        <time>2021-07-01T17:02:20.000Z</time>
      </trkpt>
      <trkpt lat="43.39402" lon="3.67873">
        <ele>67</ele>
        <time>2021-07-01T17:02:23.000Z</time>
      </trkpt>
      <trkpt lat="43.39398" lon="3.67889">
        <ele>66</ele>
        <time>2021-07-01T17:02:26.000Z</time>
      </trkpt>
      <trkpt lat="43.39393" lon="3.67905">
        <ele>67</ele>
        <time>2021-07-01T17:02:29.000Z</time>
      </trkpt>
      <trkpt lat="43.39391" lon="3.67918">
        <ele>68</ele>
        <time>2021-07-01T17:02:31.000Z</time>
      </trkpt>
      <trkpt lat="43.39388" lon="3.67937">
        <ele>68</ele>
        <time>2021-07-01T17:02:34.000Z</time>
      </trkpt>
      <trkpt lat="43.39385" lon="3.67951">
        <ele>68</ele>
        <time>2021-07-01T17:02:36.000Z</time>
      </trkpt>
      <trkpt lat="43.39381" lon="3.67966">
        <ele>68</ele>
        <time>2021-07-01T17:02:39.000Z</time>
      </trkpt>
      <trkpt lat="43.39376" lon="3.67981">
        <ele>68</ele>
        <time>2021-07-01T17:02:42.000Z</time>
      </trkpt>
      <trkpt lat="43.39372" lon="3.67996">
        <ele>67</ele>
        <time>2021-07-01T17:02:45.000Z</time>
      </trkpt>
      <trkpt lat="43.39374" lon="3.68018">
        <ele>67</ele>
        <time>2021-07-01T17:02:49.000Z</time>
      </trkpt>
      <trkpt lat="43.39373" lon="3.68031">
        <ele>67</ele>
        <time>2021-07-01T17:02:51.000Z</time>
      </trkpt>
      <trkpt lat="43.39373" lon="3.68045">
        <ele>67</ele>
        <time>2021-07-01T17:02:53.000Z</time>
      </trkpt>
      <trkpt lat="43.39374" lon="3.68059">
        <ele>67</ele>
        <time>2021-07-01T17:02:55.000Z</time>
      </trkpt>
      <trkpt lat="43.39375" lon="3.68073">
        <ele>67</ele>
        <time>2021-07-01T17:02:57.000Z</time>
      </trkpt>
      <trkpt lat="43.39378" lon="3.68104">
        <ele>65</ele>
        <time>2021-07-01T17:03:01.000Z</time>
      </trkpt>
      <trkpt lat="43.39378" lon="3.68119">
        <ele>65</ele>
        <time>2021-07-01T17:03:03.000Z</time>
      </trkpt>
      <trkpt lat="43.39379" lon="3.68134">
        <ele>64</ele>
        <time>2021-07-01T17:03:05.000Z</time>
      </trkpt>
      <trkpt lat="43.39381" lon="3.68158">
        <ele>63</ele>
        <time>2021-07-01T17:03:08.000Z</time>
      </trkpt>
      <trkpt lat="43.39381" lon="3.68172">
        <ele>63</ele>
        <time>2021-07-01T17:03:10.000Z</time>
      </trkpt>
      <trkpt lat="43.39381" lon="3.68188">
        <ele>63</ele>
        <time>2021-07-01T17:03:12.000Z</time>
      </trkpt>
      <trkpt lat="43.39382" lon="3.68203">
        <ele>62</ele>
        <time>2021-07-01T17:03:14.000Z</time>
      </trkpt>
      <trkpt lat="43.39383" lon="3.68227">
        <ele>61</ele>
        <time>2021-07-01T17:03:17.000Z</time>
      </trkpt>
      <trkpt lat="43.39383" lon="3.68241">
        <ele>61</ele>
        <time>2021-07-01T17:03:19.000Z</time>
      </trkpt>
      <trkpt lat="43.39384" lon="3.68256">
        <ele>62</ele>
        <time>2021-07-01T17:03:21.000Z</time>
      </trkpt>
      <trkpt lat="43.39383" lon="3.68271">
        <ele>63</ele>
        <time>2021-07-01T17:03:23.000Z</time>
      </trkpt>
      <trkpt lat="43.39381" lon="3.68287">
        <ele>63</ele>
        <time>2021-07-01T17:03:25.000Z</time>
      </trkpt>
      <trkpt lat="43.39377" lon="3.68302">
        <ele>62</ele>
        <time>2021-07-01T17:03:27.000Z</time>
      </trkpt>
      <trkpt lat="43.39372" lon="3.68316">
        <ele>62</ele>
        <time>2021-07-01T17:03:29.000Z</time>
      </trkpt>
      <trkpt lat="43.39366" lon="3.68331">
        <ele>62</ele>
        <time>2021-07-01T17:03:31.000Z</time>
      </trkpt>
      <trkpt lat="43.39355" lon="3.68353">
        <ele>60</ele>
        <time>2021-07-01T17:03:34.000Z</time>
      </trkpt>
      <trkpt lat="43.39348" lon="3.68367">
        <ele>60</ele>
        <time>2021-07-01T17:03:36.000Z</time>
      </trkpt>
      <trkpt lat="43.39341" lon="3.68382">
        <ele>60</ele>
        <time>2021-07-01T17:03:38.000Z</time>
      </trkpt>
      <trkpt lat="43.39335" lon="3.68397">
        <ele>60</ele>
        <time>2021-07-01T17:03:40.000Z</time>
      </trkpt>
      <trkpt lat="43.39329" lon="3.68411">
        <ele>60</ele>
        <time>2021-07-01T17:03:42.000Z</time>
      </trkpt>
      <trkpt lat="43.39322" lon="3.68425">
        <ele>59</ele>
        <time>2021-07-01T17:03:44.000Z</time>
      </trkpt>
      <trkpt lat="43.39317" lon="3.68438">
        <ele>60</ele>
        <time>2021-07-01T17:03:46.000Z</time>
      </trkpt>
      <trkpt lat="43.39312" lon="3.68451">
        <ele>60</ele>
        <time>2021-07-01T17:03:48.000Z</time>
      </trkpt>
      <trkpt lat="43.39305" lon="3.6847">
        <ele>60</ele>
        <time>2021-07-01T17:03:51.000Z</time>
      </trkpt>
      <trkpt lat="43.39301" lon="3.68483">
        <ele>59</ele>
        <time>2021-07-01T17:03:54.000Z</time>
      </trkpt>
      <trkpt lat="43.39291" lon="3.68485">
        <ele>61</ele>
        <time>2021-07-01T17:04:05.000Z</time>
      </trkpt>
      <trkpt lat="43.39282" lon="3.68485">
        <ele>59</ele>
        <time>2021-07-01T17:04:12.000Z</time>
      </trkpt>
      <trkpt lat="43.39292" lon="3.68483">
        <ele>60</ele>
        <time>2021-07-01T17:04:48.000Z</time>
      </trkpt>
      <trkpt lat="43.39296" lon="3.68496">
        <ele>59</ele>
        <time>2021-07-01T17:04:52.000Z</time>
      </trkpt>
      <trkpt lat="43.39291" lon="3.68508">
        <ele>60</ele>
        <time>2021-07-01T17:04:54.000Z</time>
      </trkpt>
      <trkpt lat="43.39287" lon="3.68522">
        <ele>60</ele>
        <time>2021-07-01T17:04:56.000Z</time>
      </trkpt>
      <trkpt lat="43.3928" lon="3.68543">
        <ele>60</ele>
        <time>2021-07-01T17:04:59.000Z</time>
      </trkpt>
      <trkpt lat="43.39275" lon="3.68558">
        <ele>59</ele>
        <time>2021-07-01T17:05:01.000Z</time>
      </trkpt>
      <trkpt lat="43.39269" lon="3.68575">
        <ele>60</ele>
        <time>2021-07-01T17:05:03.000Z</time>
      </trkpt>
      <trkpt lat="43.39265" lon="3.68593">
        <ele>59</ele>
        <time>2021-07-01T17:05:05.000Z</time>
      </trkpt>
      <trkpt lat="43.39259" lon="3.68624">
        <ele>60</ele>
        <time>2021-07-01T17:05:08.000Z</time>
      </trkpt>
      <trkpt lat="43.3926" lon="3.68657">
        <ele>60</ele>
        <time>2021-07-01T17:05:11.000Z</time>
      </trkpt>
      <trkpt lat="43.3926" lon="3.68678">
        <ele>60</ele>
        <time>2021-07-01T17:05:13.000Z</time>
      </trkpt>
      <trkpt lat="43.3926" lon="3.68701">
        <ele>59</ele>
        <time>2021-07-01T17:05:15.000Z</time>
      </trkpt>
      <trkpt lat="43.39259" lon="3.68723">
        <ele>59</ele>
        <time>2021-07-01T17:05:17.000Z</time>
      </trkpt>
      <trkpt lat="43.39258" lon="3.68745">
        <ele>57</ele>
        <time>2021-07-01T17:05:19.000Z</time>
      </trkpt>
      <trkpt lat="43.39256" lon="3.68766">
        <ele>58</ele>
        <time>2021-07-01T17:05:21.000Z</time>
      </trkpt>
      <trkpt lat="43.39255" lon="3.68786">
        <ele>58</ele>
        <time>2021-07-01T17:05:23.000Z</time>
      </trkpt>
      <trkpt lat="43.39251" lon="3.6883">
        <ele>58</ele>
        <time>2021-07-01T17:05:27.000Z</time>
      </trkpt>
      <trkpt lat="43.39249" lon="3.68853">
        <ele>58</ele>
        <time>2021-07-01T17:05:29.000Z</time>
      </trkpt>
      <trkpt lat="43.39247" lon="3.68875">
        <ele>58</ele>
        <time>2021-07-01T17:05:31.000Z</time>
      </trkpt>
      <trkpt lat="43.39245" lon="3.68907">
        <ele>58</ele>
        <time>2021-07-01T17:05:34.000Z</time>
      </trkpt>
      <trkpt lat="43.39246" lon="3.6893">
        <ele>58</ele>
        <time>2021-07-01T17:05:36.000Z</time>
      </trkpt>
      <trkpt lat="43.39244" lon="3.68951">
        <ele>58</ele>
        <time>2021-07-01T17:05:38.000Z</time>
      </trkpt>
      <trkpt lat="43.39242" lon="3.68971">
        <ele>59</ele>
        <time>2021-07-01T17:05:40.000Z</time>
      </trkpt>
      <trkpt lat="43.3924" lon="3.69011">
        <ele>57</ele>
        <time>2021-07-01T17:05:44.000Z</time>
      </trkpt>
      <trkpt lat="43.39243" lon="3.69031">
        <ele>58</ele>
        <time>2021-07-01T17:05:46.000Z</time>
      </trkpt>
      <trkpt lat="43.39247" lon="3.6905">
        <ele>58</ele>
        <time>2021-07-01T17:05:48.000Z</time>
      </trkpt>
      <trkpt lat="43.39252" lon="3.6907">
        <ele>58</ele>
        <time>2021-07-01T17:05:50.000Z</time>
      </trkpt>
      <trkpt lat="43.39258" lon="3.6909">
        <ele>58</ele>
        <time>2021-07-01T17:05:52.000Z</time>
      </trkpt>
      <trkpt lat="43.39266" lon="3.6911">
        <ele>58</ele>
        <time>2021-07-01T17:05:54.000Z</time>
      </trkpt>
      <trkpt lat="43.39275" lon="3.69126">
        <ele>58</ele>
        <time>2021-07-01T17:05:56.000Z</time>
      </trkpt>
      <trkpt lat="43.39284" lon="3.69143">
        <ele>58</ele>
        <time>2021-07-01T17:05:58.000Z</time>
      </trkpt>
      <trkpt lat="43.39293" lon="3.69159">
        <ele>58</ele>
        <time>2021-07-01T17:06:00.000Z</time>
      </trkpt>
      <trkpt lat="43.39303" lon="3.69172">
        <ele>58</ele>
        <time>2021-07-01T17:06:02.000Z</time>
      </trkpt>
      <trkpt lat="43.39316" lon="3.69184">
        <ele>59</ele>
        <time>2021-07-01T17:06:04.000Z</time>
      </trkpt>
      <trkpt lat="43.3933" lon="3.69196">
        <ele>59</ele>
        <time>2021-07-01T17:06:06.000Z</time>
      </trkpt>
      <trkpt lat="43.39345" lon="3.69207">
        <ele>59</ele>
        <time>2021-07-01T17:06:08.000Z</time>
      </trkpt>
      <trkpt lat="43.3936" lon="3.69218">
        <ele>59</ele>
        <time>2021-07-01T17:06:10.000Z</time>
      </trkpt>
      <trkpt lat="43.39375" lon="3.69228">
        <ele>60</ele>
        <time>2021-07-01T17:06:12.000Z</time>
      </trkpt>
      <trkpt lat="43.3939" lon="3.69237">
        <ele>60</ele>
        <time>2021-07-01T17:06:14.000Z</time>
      </trkpt>
      <trkpt lat="43.39405" lon="3.69246">
        <ele>61</ele>
        <time>2021-07-01T17:06:16.000Z</time>
      </trkpt>
      <trkpt lat="43.39419" lon="3.69258">
        <ele>61</ele>
        <time>2021-07-01T17:06:18.000Z</time>
      </trkpt>
      <trkpt lat="43.3943" lon="3.69275">
        <ele>61</ele>
        <time>2021-07-01T17:06:20.000Z</time>
      </trkpt>
      <trkpt lat="43.3944" lon="3.69308">
        <ele>61</ele>
        <time>2021-07-01T17:06:23.000Z</time>
      </trkpt>
      <trkpt lat="43.39447" lon="3.69329">
        <ele>61</ele>
        <time>2021-07-01T17:06:25.000Z</time>
      </trkpt>
      <trkpt lat="43.39454" lon="3.6935">
        <ele>61</ele>
        <time>2021-07-01T17:06:27.000Z</time>
      </trkpt>
      <trkpt lat="43.39461" lon="3.69371">
        <ele>60</ele>
        <time>2021-07-01T17:06:29.000Z</time>
      </trkpt>
      <trkpt lat="43.39473" lon="3.6941">
        <ele>60</ele>
        <time>2021-07-01T17:06:33.000Z</time>
      </trkpt>
      <trkpt lat="43.39479" lon="3.69429">
        <ele>61</ele>
        <time>2021-07-01T17:06:35.000Z</time>
      </trkpt>
      <trkpt lat="43.39484" lon="3.69446">
        <ele>60</ele>
        <time>2021-07-01T17:06:37.000Z</time>
      </trkpt>
      <trkpt lat="43.39489" lon="3.69463">
        <ele>60</ele>
        <time>2021-07-01T17:06:39.000Z</time>
      </trkpt>
      <trkpt lat="43.39495" lon="3.69477">
        <ele>60</ele>
        <time>2021-07-01T17:06:41.000Z</time>
      </trkpt>
      <trkpt lat="43.39498" lon="3.69491">
        <ele>59</ele>
        <time>2021-07-01T17:06:43.000Z</time>
      </trkpt>
      <trkpt lat="43.39499" lon="3.69505">
        <ele>59</ele>
        <time>2021-07-01T17:06:45.000Z</time>
      </trkpt>
      <trkpt lat="43.39507" lon="3.69514">
        <ele>58</ele>
        <time>2021-07-01T17:06:49.000Z</time>
      </trkpt>
      <trkpt lat="43.39516" lon="3.69514">
        <ele>57</ele>
        <time>2021-07-01T17:07:13.000Z</time>
      </trkpt>
      <trkpt lat="43.39529" lon="3.69517">
        <ele>56</ele>
        <time>2021-07-01T17:07:17.000Z</time>
      </trkpt>
      <trkpt lat="43.39539" lon="3.69516">
        <ele>56</ele>
        <time>2021-07-01T17:07:19.000Z</time>
      </trkpt>
      <trkpt lat="43.39548" lon="3.69518">
        <ele>54</ele>
        <time>2021-07-01T17:07:21.000Z</time>
      </trkpt>
      <trkpt lat="43.39558" lon="3.69521">
        <ele>54</ele>
        <time>2021-07-01T17:07:23.000Z</time>
      </trkpt>
      <trkpt lat="43.39568" lon="3.69527">
        <ele>53</ele>
        <time>2021-07-01T17:07:25.000Z</time>
      </trkpt>
      <trkpt lat="43.39579" lon="3.69534">
        <ele>54</ele>
        <time>2021-07-01T17:07:27.000Z</time>
      </trkpt>
      <trkpt lat="43.39588" lon="3.69541">
        <ele>54</ele>
        <time>2021-07-01T17:07:29.000Z</time>
      </trkpt>
      <trkpt lat="43.39602" lon="3.69552">
        <ele>54</ele>
        <time>2021-07-01T17:07:32.000Z</time>
      </trkpt>
      <trkpt lat="43.39611" lon="3.69559">
        <ele>53</ele>
        <time>2021-07-01T17:07:34.000Z</time>
      </trkpt>
      <trkpt lat="43.39622" lon="3.69564">
        <ele>54</ele>
        <time>2021-07-01T17:07:36.000Z</time>
      </trkpt>
      <trkpt lat="43.39633" lon="3.69572">
        <ele>54</ele>
        <time>2021-07-01T17:07:42.000Z</time>
      </trkpt>
      <trkpt lat="43.39644" lon="3.69578">
        <ele>53</ele>
        <time>2021-07-01T17:07:45.000Z</time>
      </trkpt>
      <trkpt lat="43.39656" lon="3.69584">
        <ele>54</ele>
        <time>2021-07-01T17:07:47.000Z</time>
      </trkpt>
      <trkpt lat="43.39675" lon="3.69591">
        <ele>53</ele>
        <time>2021-07-01T17:07:50.000Z</time>
      </trkpt>
      <trkpt lat="43.39691" lon="3.69595">
        <ele>51</ele>
        <time>2021-07-01T17:07:52.000Z</time>
      </trkpt>
      <trkpt lat="43.39701" lon="3.69598">
        <ele>51</ele>
        <time>2021-07-01T17:07:54.000Z</time>
      </trkpt>
      <trkpt lat="43.39714" lon="3.69605">
        <ele>52</ele>
        <time>2021-07-01T17:07:57.000Z</time>
      </trkpt>
      <trkpt lat="43.39724" lon="3.69608">
        <ele>52</ele>
        <time>2021-07-01T17:08:00.000Z</time>
      </trkpt>
      <trkpt lat="43.39735" lon="3.69611">
        <ele>53</ele>
        <time>2021-07-01T17:08:03.000Z</time>
      </trkpt>
      <trkpt lat="43.39747" lon="3.69618">
        <ele>53</ele>
        <time>2021-07-01T17:08:06.000Z</time>
      </trkpt>
      <trkpt lat="43.39758" lon="3.69619">
        <ele>50</ele>
        <time>2021-07-01T17:08:08.000Z</time>
      </trkpt>
      <trkpt lat="43.39769" lon="3.69624">
        <ele>52</ele>
        <time>2021-07-01T17:08:11.000Z</time>
      </trkpt>
      <trkpt lat="43.39785" lon="3.69628">
        <ele>54</ele>
        <time>2021-07-01T17:08:15.000Z</time>
      </trkpt>
      <trkpt lat="43.39797" lon="3.69629">
        <ele>57</ele>
        <time>2021-07-01T17:08:18.000Z</time>
      </trkpt>
      <trkpt lat="43.39809" lon="3.69632">
        <ele>58</ele>
        <time>2021-07-01T17:08:21.000Z</time>
      </trkpt>
      <trkpt lat="43.39823" lon="3.69636">
        <ele>57</ele>
        <time>2021-07-01T17:08:25.000Z</time>
      </trkpt>
      <trkpt lat="43.39834" lon="3.69631">
        <ele>59</ele>
        <time>2021-07-01T17:08:28.000Z</time>
      </trkpt>
      <trkpt lat="43.39847" lon="3.69628">
        <ele>60</ele>
        <time>2021-07-01T17:08:31.000Z</time>
      </trkpt>
      <trkpt lat="43.3986" lon="3.69624">
        <ele>60</ele>
        <time>2021-07-01T17:08:34.000Z</time>
      </trkpt>
      <trkpt lat="43.39872" lon="3.69621">
        <ele>61</ele>
        <time>2021-07-01T17:08:37.000Z</time>
      </trkpt>
      <trkpt lat="43.39886" lon="3.69619">
        <ele>62</ele>
        <time>2021-07-01T17:08:40.000Z</time>
      </trkpt>
      <trkpt lat="43.39895" lon="3.69618">
        <ele>61</ele>
        <time>2021-07-01T17:08:42.000Z</time>
      </trkpt>
      <trkpt lat="43.39904" lon="3.69618">
        <ele>61</ele>
        <time>2021-07-01T17:08:44.000Z</time>
      </trkpt>
      <trkpt lat="43.39913" lon="3.69622">
        <ele>62</ele>
        <time>2021-07-01T17:08:46.000Z</time>
      </trkpt>
      <trkpt lat="43.39933" lon="3.69633">
        <ele>61</ele>
        <time>2021-07-01T17:08:51.000Z</time>
      </trkpt>
      <trkpt lat="43.39942" lon="3.6964">
        <ele>62</ele>
        <time>2021-07-01T17:08:53.000Z</time>
      </trkpt>
      <trkpt lat="43.39951" lon="3.69648">
        <ele>62</ele>
        <time>2021-07-01T17:08:55.000Z</time>
      </trkpt>
      <trkpt lat="43.3996" lon="3.69655">
        <ele>62</ele>
        <time>2021-07-01T17:08:57.000Z</time>
      </trkpt>
      <trkpt lat="43.39974" lon="3.69662">
        <ele>61</ele>
        <time>2021-07-01T17:09:00.000Z</time>
      </trkpt>
      <trkpt lat="43.39983" lon="3.69666">
        <ele>61</ele>
        <time>2021-07-01T17:09:02.000Z</time>
      </trkpt>
      <trkpt lat="43.39993" lon="3.69668">
        <ele>60</ele>
        <time>2021-07-01T17:09:04.000Z</time>
      </trkpt>
      <trkpt lat="43.40003" lon="3.69668">
        <ele>59</ele>
        <time>2021-07-01T17:09:06.000Z</time>
      </trkpt>
      <trkpt lat="43.40013" lon="3.69669">
        <ele>59</ele>
        <time>2021-07-01T17:09:08.000Z</time>
      </trkpt>
      <trkpt lat="43.40023" lon="3.69671">
        <ele>58</ele>
        <time>2021-07-01T17:09:10.000Z</time>
      </trkpt>
      <trkpt lat="43.40032" lon="3.69672">
        <ele>58</ele>
        <time>2021-07-01T17:09:12.000Z</time>
      </trkpt>
      <trkpt lat="43.40042" lon="3.69672">
        <ele>58</ele>
        <time>2021-07-01T17:09:14.000Z</time>
      </trkpt>
      <trkpt lat="43.40052" lon="3.69673">
        <ele>58</ele>
        <time>2021-07-01T17:09:16.000Z</time>
      </trkpt>
      <trkpt lat="43.40061" lon="3.69676">
        <ele>58</ele>
        <time>2021-07-01T17:09:18.000Z</time>
      </trkpt>
      <trkpt lat="43.40071" lon="3.6968">
        <ele>58</ele>
        <time>2021-07-01T17:09:20.000Z</time>
      </trkpt>
      <trkpt lat="43.40081" lon="3.69682">
        <ele>57</ele>
        <time>2021-07-01T17:09:22.000Z</time>
      </trkpt>
      <trkpt lat="43.40094" lon="3.69684">
        <ele>57</ele>
        <time>2021-07-01T17:09:25.000Z</time>
      </trkpt>
      <trkpt lat="43.40105" lon="3.6969">
        <ele>55</ele>
        <time>2021-07-01T17:09:28.000Z</time>
      </trkpt>
      <trkpt lat="43.40123" lon="3.69695">
        <ele>56</ele>
        <time>2021-07-01T17:09:32.000Z</time>
      </trkpt>
      <trkpt lat="43.40135" lon="3.697">
        <ele>57</ele>
        <time>2021-07-01T17:09:35.000Z</time>
      </trkpt>
      <trkpt lat="43.40147" lon="3.69704">
        <ele>57</ele>
        <time>2021-07-01T17:09:38.000Z</time>
      </trkpt>
      <trkpt lat="43.40164" lon="3.69709">
        <ele>55</ele>
        <time>2021-07-01T17:09:42.000Z</time>
      </trkpt>
      <trkpt lat="43.40172" lon="3.69719">
        <ele>57</ele>
        <time>2021-07-01T17:09:50.000Z</time>
      </trkpt>
      <trkpt lat="43.40172" lon="3.69732">
        <ele>58</ele>
        <time>2021-07-01T17:09:53.000Z</time>
      </trkpt>
      <trkpt lat="43.40172" lon="3.69746">
        <ele>58</ele>
        <time>2021-07-01T17:09:56.000Z</time>
      </trkpt>
      <trkpt lat="43.40172" lon="3.69761">
        <ele>58</ele>
        <time>2021-07-01T17:10:00.000Z</time>
      </trkpt>
      <trkpt lat="43.40174" lon="3.69775">
        <ele>58</ele>
        <time>2021-07-01T17:10:07.000Z</time>
      </trkpt>
      <trkpt lat="43.40175" lon="3.69792">
        <ele>58</ele>
        <time>2021-07-01T17:10:11.000Z</time>
      </trkpt>
      <trkpt lat="43.40175" lon="3.69808">
        <ele>58</ele>
        <time>2021-07-01T17:10:14.000Z</time>
      </trkpt>
      <trkpt lat="43.40177" lon="3.69825">
        <ele>58</ele>
        <time>2021-07-01T17:10:17.000Z</time>
      </trkpt>
      <trkpt lat="43.40179" lon="3.69842">
        <ele>59</ele>
        <time>2021-07-01T17:10:20.000Z</time>
      </trkpt>
      <trkpt lat="43.4018" lon="3.69866">
        <ele>61</ele>
        <time>2021-07-01T17:10:24.000Z</time>
      </trkpt>
      <trkpt lat="43.4018" lon="3.69885">
        <ele>60</ele>
        <time>2021-07-01T17:10:27.000Z</time>
      </trkpt>
      <trkpt lat="43.40181" lon="3.69903">
        <ele>61</ele>
        <time>2021-07-01T17:10:30.000Z</time>
      </trkpt>
      <trkpt lat="43.40181" lon="3.6992">
        <ele>61</ele>
        <time>2021-07-01T17:10:33.000Z</time>
      </trkpt>
      <trkpt lat="43.40182" lon="3.69939">
        <ele>62</ele>
        <time>2021-07-01T17:10:36.000Z</time>
      </trkpt>
      <trkpt lat="43.40181" lon="3.69956">
        <ele>63</ele>
        <time>2021-07-01T17:10:39.000Z</time>
      </trkpt>
      <trkpt lat="43.40181" lon="3.69973">
        <ele>62</ele>
        <time>2021-07-01T17:10:42.000Z</time>
      </trkpt>
      <trkpt lat="43.40183" lon="3.69985">
        <ele>62</ele>
        <time>2021-07-01T17:10:45.000Z</time>
      </trkpt>
      <trkpt lat="43.40193" lon="3.69988">
        <ele>63</ele>
        <time>2021-07-01T17:10:48.000Z</time>
      </trkpt>
      <trkpt lat="43.40206" lon="3.69987">
        <ele>61</ele>
        <time>2021-07-01T17:10:51.000Z</time>
      </trkpt>
      <trkpt lat="43.40219" lon="3.69987">
        <ele>60</ele>
        <time>2021-07-01T17:10:54.000Z</time>
      </trkpt>
      <trkpt lat="43.40236" lon="3.69985">
        <ele>59</ele>
        <time>2021-07-01T17:10:58.000Z</time>
      </trkpt>
      <trkpt lat="43.4025" lon="3.69985">
        <ele>56</ele>
        <time>2021-07-01T17:11:02.000Z</time>
      </trkpt>
      <trkpt lat="43.4026" lon="3.69986">
        <ele>57</ele>
        <time>2021-07-01T17:11:09.000Z</time>
      </trkpt>
      <trkpt lat="43.40267" lon="3.69997">
        <ele>55</ele>
        <time>2021-07-01T17:12:51.000Z</time>
      </trkpt>
      <trkpt lat="43.40269" lon="3.70014">
        <ele>57</ele>
        <time>2021-07-01T17:12:54.000Z</time>
      </trkpt>
      <trkpt lat="43.40271" lon="3.70027">
        <ele>57</ele>
        <time>2021-07-01T17:12:56.000Z</time>
      </trkpt>
      <trkpt lat="43.40274" lon="3.70052">
        <ele>55</ele>
        <time>2021-07-01T17:13:00.000Z</time>
      </trkpt>
      <trkpt lat="43.40275" lon="3.70072">
        <ele>55</ele>
        <time>2021-07-01T17:13:03.000Z</time>
      </trkpt>
      <trkpt lat="43.40277" lon="3.70085">
        <ele>56</ele>
        <time>2021-07-01T17:13:05.000Z</time>
      </trkpt>
      <trkpt lat="43.40279" lon="3.70103">
        <ele>56</ele>
        <time>2021-07-01T17:13:08.000Z</time>
      </trkpt>
      <trkpt lat="43.40288" lon="3.70113">
        <ele>55</ele>
        <time>2021-07-01T17:13:11.000Z</time>
      </trkpt>
      <trkpt lat="43.40302" lon="3.70113">
        <ele>56</ele>
        <time>2021-07-01T17:13:14.000Z</time>
      </trkpt>
      <trkpt lat="43.40312" lon="3.70113">
        <ele>55</ele>
        <time>2021-07-01T17:13:16.000Z</time>
      </trkpt>
      <trkpt lat="43.40322" lon="3.70112">
        <ele>55</ele>
        <time>2021-07-01T17:13:18.000Z</time>
      </trkpt>
      <trkpt lat="43.40331" lon="3.70113">
        <ele>54</ele>
        <time>2021-07-01T17:13:20.000Z</time>
      </trkpt>
      <trkpt lat="43.40342" lon="3.70113">
        <ele>55</ele>
        <time>2021-07-01T17:13:22.000Z</time>
      </trkpt>
      <trkpt lat="43.40353" lon="3.70112">
        <ele>55</ele>
        <time>2021-07-01T17:13:24.000Z</time>
      </trkpt>
      <trkpt lat="43.40365" lon="3.70111">
        <ele>55</ele>
        <time>2021-07-01T17:13:26.000Z</time>
      </trkpt>
      <trkpt lat="43.40382" lon="3.70111">
        <ele>55</ele>
        <time>2021-07-01T17:13:29.000Z</time>
      </trkpt>
      <trkpt lat="43.40399" lon="3.7011">
        <ele>55</ele>
        <time>2021-07-01T17:13:32.000Z</time>
      </trkpt>
      <trkpt lat="43.40417" lon="3.7011">
        <ele>55</ele>
        <time>2021-07-01T17:13:35.000Z</time>
      </trkpt>
      <trkpt lat="43.40428" lon="3.7011">
        <ele>56</ele>
        <time>2021-07-01T17:13:37.000Z</time>
      </trkpt>
      <trkpt lat="43.40439" lon="3.7011">
        <ele>56</ele>
        <time>2021-07-01T17:13:39.000Z</time>
      </trkpt>
      <trkpt lat="43.40452" lon="3.70108">
        <ele>53</ele>
        <time>2021-07-01T17:13:42.000Z</time>
      </trkpt>
      <trkpt lat="43.40464" lon="3.70108">
        <ele>55</ele>
        <time>2021-07-01T17:13:45.000Z</time>
      </trkpt>
      <trkpt lat="43.40473" lon="3.7012">
        <ele>56</ele>
        <time>2021-07-01T17:13:48.000Z</time>
      </trkpt>
      <trkpt lat="43.40475" lon="3.70132">
        <ele>55</ele>
        <time>2021-07-01T17:13:50.000Z</time>
      </trkpt>
      <trkpt lat="43.40477" lon="3.70146">
        <ele>56</ele>
        <time>2021-07-01T17:13:52.000Z</time>
      </trkpt>
      <trkpt lat="43.40479" lon="3.7016">
        <ele>56</ele>
        <time>2021-07-01T17:13:54.000Z</time>
      </trkpt>
      <trkpt lat="43.40481" lon="3.70174">
        <ele>57</ele>
        <time>2021-07-01T17:13:56.000Z</time>
      </trkpt>
      <trkpt lat="43.40482" lon="3.70187">
        <ele>56</ele>
        <time>2021-07-01T17:13:58.000Z</time>
      </trkpt>
      <trkpt lat="43.40484" lon="3.70201">
        <ele>56</ele>
        <time>2021-07-01T17:14:00.000Z</time>
      </trkpt>
      <trkpt lat="43.40488" lon="3.70214">
        <ele>56</ele>
        <time>2021-07-01T17:14:02.000Z</time>
      </trkpt>
      <trkpt lat="43.40495" lon="3.70227">
        <ele>55</ele>
        <time>2021-07-01T17:14:04.000Z</time>
      </trkpt>
      <trkpt lat="43.40505" lon="3.70236">
        <ele>55</ele>
        <time>2021-07-01T17:14:06.000Z</time>
      </trkpt>
      <trkpt lat="43.40516" lon="3.70242">
        <ele>54</ele>
        <time>2021-07-01T17:14:08.000Z</time>
      </trkpt>
      <trkpt lat="43.40526" lon="3.70244">
        <ele>54</ele>
        <time>2021-07-01T17:14:10.000Z</time>
      </trkpt>
      <trkpt lat="43.40537" lon="3.70253">
        <ele>55</ele>
        <time>2021-07-01T17:14:12.000Z</time>
      </trkpt>
      <trkpt lat="43.40548" lon="3.70262">
        <ele>55</ele>
        <time>2021-07-01T17:14:14.000Z</time>
      </trkpt>
      <trkpt lat="43.40565" lon="3.70275">
        <ele>54</ele>
        <time>2021-07-01T17:14:17.000Z</time>
      </trkpt>
      <trkpt lat="43.40574" lon="3.70284">
        <ele>55</ele>
        <time>2021-07-01T17:14:19.000Z</time>
      </trkpt>
      <trkpt lat="43.40583" lon="3.70291">
        <ele>55</ele>
        <time>2021-07-01T17:14:21.000Z</time>
      </trkpt>
      <trkpt lat="43.40593" lon="3.70297">
        <ele>55</ele>
        <time>2021-07-01T17:14:23.000Z</time>
      </trkpt>
      <trkpt lat="43.40604" lon="3.70304">
        <ele>54</ele>
        <time>2021-07-01T17:14:25.000Z</time>
      </trkpt>
      <trkpt lat="43.40616" lon="3.70312">
        <ele>55</ele>
        <time>2021-07-01T17:14:27.000Z</time>
      </trkpt>
      <trkpt lat="43.40628" lon="3.70321">
        <ele>55</ele>
        <time>2021-07-01T17:14:29.000Z</time>
      </trkpt>
      <trkpt lat="43.4064" lon="3.7033">
        <ele>55</ele>
        <time>2021-07-01T17:14:31.000Z</time>
      </trkpt>
      <trkpt lat="43.40652" lon="3.70338">
        <ele>56</ele>
        <time>2021-07-01T17:14:33.000Z</time>
      </trkpt>
      <trkpt lat="43.40669" lon="3.7035">
        <ele>56</ele>
        <time>2021-07-01T17:14:36.000Z</time>
      </trkpt>
      <trkpt lat="43.40679" lon="3.70358">
        <ele>56</ele>
        <time>2021-07-01T17:14:38.000Z</time>
      </trkpt>
      <trkpt lat="43.40689" lon="3.70366">
        <ele>56</ele>
        <time>2021-07-01T17:14:40.000Z</time>
      </trkpt>
      <trkpt lat="43.40704" lon="3.70377">
        <ele>55</ele>
        <time>2021-07-01T17:14:43.000Z</time>
      </trkpt>
      <trkpt lat="43.40715" lon="3.70385">
        <ele>55</ele>
        <time>2021-07-01T17:14:45.000Z</time>
      </trkpt>
      <trkpt lat="43.40726" lon="3.70392">
        <ele>55</ele>
        <time>2021-07-01T17:14:47.000Z</time>
      </trkpt>
      <trkpt lat="43.40737" lon="3.70399">
        <ele>55</ele>
        <time>2021-07-01T17:14:49.000Z</time>
      </trkpt>
      <trkpt lat="43.40748" lon="3.70405">
        <ele>56</ele>
        <time>2021-07-01T17:14:51.000Z</time>
      </trkpt>
      <trkpt lat="43.40759" lon="3.7041">
        <ele>55</ele>
        <time>2021-07-01T17:14:53.000Z</time>
      </trkpt>
      <trkpt lat="43.40768" lon="3.70418">
        <ele>55</ele>
        <time>2021-07-01T17:14:55.000Z</time>
      </trkpt>
      <trkpt lat="43.40778" lon="3.70425">
        <ele>56</ele>
        <time>2021-07-01T17:14:57.000Z</time>
      </trkpt>
      <trkpt lat="43.40793" lon="3.70436">
        <ele>55</ele>
        <time>2021-07-01T17:15:00.000Z</time>
      </trkpt>
      <trkpt lat="43.40802" lon="3.70443">
        <ele>54</ele>
        <time>2021-07-01T17:15:03.000Z</time>
      </trkpt>
      <trkpt lat="43.40799" lon="3.70455">
        <ele>57</ele>
        <time>2021-07-01T17:15:17.000Z</time>
      </trkpt>
      <trkpt lat="43.40786" lon="3.70457">
        <ele>58</ele>
        <time>2021-07-01T17:15:25.000Z</time>
      </trkpt>
      <trkpt lat="43.40777" lon="3.70461">
        <ele>58</ele>
        <time>2021-07-01T17:15:28.000Z</time>
      </trkpt>
      <trkpt lat="43.40767" lon="3.70471">
        <ele>57</ele>
        <time>2021-07-01T17:15:32.000Z</time>
      </trkpt>
      <trkpt lat="43.4076" lon="3.70482">
        <ele>57</ele>
        <time>2021-07-01T17:15:36.000Z</time>
      </trkpt>
      <trkpt lat="43.40757" lon="3.70495">
        <ele>57</ele>
        <time>2021-07-01T17:15:41.000Z</time>
      </trkpt>
      <trkpt lat="43.40761" lon="3.70508">
        <ele>57</ele>
        <time>2021-07-01T17:15:47.000Z</time>
      </trkpt>
      <trkpt lat="43.40769" lon="3.70515">
        <ele>59</ele>
        <time>2021-07-01T17:16:08.000Z</time>
      </trkpt>
      <trkpt lat="43.40765" lon="3.70505">
        <ele>56</ele>
        <time>2021-07-01T17:17:52.000Z</time>
      </trkpt>
      <trkpt lat="43.40757" lon="3.70512">
        <ele>55</ele>
        <time>2021-07-01T17:18:11.000Z</time>
      </trkpt>
      <trkpt lat="43.40749" lon="3.70521">
        <ele>54</ele>
        <time>2021-07-01T17:18:32.000Z</time>
      </trkpt>
      <trkpt lat="43.40746" lon="3.70509">
        <ele>53</ele>
        <time>2021-07-01T17:18:51.000Z</time>
      </trkpt>
      <trkpt lat="43.40739" lon="3.7052">
        <ele>53</ele>
        <time>2021-07-01T17:19:13.000Z</time>
      </trkpt>
      <trkpt lat="43.40747" lon="3.70512">
        <ele>55</ele>
        <time>2021-07-01T17:19:32.000Z</time>
      </trkpt>
      <trkpt lat="43.4075" lon="3.70525">
        <ele>57</ele>
        <time>2021-07-01T17:19:59.000Z</time>
      </trkpt>
      <trkpt lat="43.40742" lon="3.70532">
        <ele>54</ele>
        <time>2021-07-01T17:20:21.000Z</time>
      </trkpt>
      <trkpt lat="43.40733" lon="3.70538">
        <ele>51</ele>
        <time>2021-07-01T17:20:28.000Z</time>
      </trkpt>
      <trkpt lat="43.40727" lon="3.70527">
        <ele>48</ele>
        <time>2021-07-01T17:20:55.000Z</time>
      </trkpt>
      <trkpt lat="43.40723" lon="3.70539">
        <ele>49</ele>
        <time>2021-07-01T17:21:05.000Z</time>
      </trkpt>
      <trkpt lat="43.40721" lon="3.70551">
        <ele>48</ele>
        <time>2021-07-01T17:22:14.000Z</time>
      </trkpt>
      <trkpt lat="43.40731" lon="3.70556">
        <ele>45</ele>
        <time>2021-07-01T17:22:27.000Z</time>
      </trkpt>
      <trkpt lat="43.4073" lon="3.70569">
        <ele>46</ele>
        <time>2021-07-01T17:22:36.000Z</time>
      </trkpt>
      <trkpt lat="43.40734" lon="3.70556">
        <ele>44</ele>
        <time>2021-07-01T17:22:51.000Z</time>
      </trkpt>
      <trkpt lat="43.40739" lon="3.70567">
        <ele>41</ele>
        <time>2021-07-01T17:22:56.000Z</time>
      </trkpt>
      <trkpt lat="43.40748" lon="3.70568">
        <ele>39</ele>
        <time>2021-07-01T17:23:13.000Z</time>
      </trkpt>
      <trkpt lat="43.40757" lon="3.70572">
        <ele>41</ele>
        <time>2021-07-01T17:23:57.000Z</time>
      </trkpt>
      <trkpt lat="43.40766" lon="3.70567">
        <ele>41</ele>
        <time>2021-07-01T17:24:27.000Z</time>
      </trkpt>
      <trkpt lat="43.4076" lon="3.70577">
        <ele>40</ele>
        <time>2021-07-01T17:24:50.000Z</time>
      </trkpt>
      <trkpt lat="43.40766" lon="3.70568">
        <ele>41</ele>
        <time>2021-07-01T17:25:09.000Z</time>
      </trkpt>
      <trkpt lat="43.40761" lon="3.70578">
        <ele>48</ele>
        <time>2021-07-01T17:27:01.000Z</time>
      </trkpt>
      <trkpt lat="43.40769" lon="3.70573">
        <ele>44</ele>
        <time>2021-07-01T17:27:50.000Z</time>
      </trkpt>
      <trkpt lat="43.40775" lon="3.70563">
        <ele>43</ele>
        <time>2021-07-01T17:30:06.000Z</time>
      </trkpt>
      <trkpt lat="43.40772" lon="3.7055">
        <ele>45</ele>
        <time>2021-07-01T17:30:34.000Z</time>
      </trkpt>
      <trkpt lat="43.40771" lon="3.70538">
        <ele>44</ele>
        <time>2021-07-01T17:30:52.000Z</time>
      </trkpt>
      <trkpt lat="43.40768" lon="3.70525">
        <ele>44</ele>
        <time>2021-07-01T17:31:19.000Z</time>
      </trkpt>
      <trkpt lat="43.4076" lon="3.70519">
        <ele>42</ele>
        <time>2021-07-01T17:32:55.000Z</time>
      </trkpt>
      <trkpt lat="43.40762" lon="3.70506">
        <ele>43</ele>
        <time>2021-07-01T17:33:11.000Z</time>
      </trkpt>
      <trkpt lat="43.40771" lon="3.7051">
        <ele>44</ele>
        <time>2021-07-01T17:33:26.000Z</time>
      </trkpt>
      <trkpt lat="43.40764" lon="3.70518">
        <ele>39</ele>
        <time>2021-07-01T17:33:52.000Z</time>
      </trkpt>
      <trkpt lat="43.40755" lon="3.70514">
        <ele>34</ele>
        <time>2021-07-01T17:34:26.000Z</time>
      </trkpt>
      <trkpt lat="43.40764" lon="3.70514">
        <ele>52</ele>
        <time>2021-07-01T17:35:12.000Z</time>
      </trkpt>
      <trkpt lat="43.40772" lon="3.70521">
        <ele>53</ele>
        <time>2021-07-01T17:35:24.000Z</time>
      </trkpt>
      <trkpt lat="43.40764" lon="3.70513">
        <ele>48</ele>
        <time>2021-07-01T17:39:53.000Z</time>
      </trkpt>
      <trkpt lat="43.40756" lon="3.70498">
        <ele>48</ele>
        <time>2021-07-01T17:39:58.000Z</time>
      </trkpt>
      <trkpt lat="43.40755" lon="3.70485">
        <ele>51</ele>
        <time>2021-07-01T17:40:02.000Z</time>
      </trkpt>
      <trkpt lat="43.4076" lon="3.7047">
        <ele>51</ele>
        <time>2021-07-01T17:40:06.000Z</time>
      </trkpt>
      <trkpt lat="43.40764" lon="3.70455">
        <ele>51</ele>
        <time>2021-07-01T17:40:10.000Z</time>
      </trkpt>
      <trkpt lat="43.40768" lon="3.70443">
        <ele>53</ele>
        <time>2021-07-01T17:40:14.000Z</time>
      </trkpt>
      <trkpt lat="43.40775" lon="3.70434">
        <ele>51</ele>
        <time>2021-07-01T17:40:28.000Z</time>
      </trkpt>
      <trkpt lat="43.40785" lon="3.70434">
        <ele>52</ele>
        <time>2021-07-01T17:40:31.000Z</time>
      </trkpt>
      <trkpt lat="43.40795" lon="3.70441">
        <ele>51</ele>
        <time>2021-07-01T17:40:34.000Z</time>
      </trkpt>
      <trkpt lat="43.40806" lon="3.70447">
        <ele>54</ele>
        <time>2021-07-01T17:40:37.000Z</time>
      </trkpt>
      <trkpt lat="43.4082" lon="3.70458">
        <ele>56</ele>
        <time>2021-07-01T17:40:41.000Z</time>
      </trkpt>
      <trkpt lat="43.40832" lon="3.70466">
        <ele>57</ele>
        <time>2021-07-01T17:40:44.000Z</time>
      </trkpt>
      <trkpt lat="43.40844" lon="3.70472">
        <ele>57</ele>
        <time>2021-07-01T17:40:47.000Z</time>
      </trkpt>
      <trkpt lat="43.40856" lon="3.7048">
        <ele>57</ele>
        <time>2021-07-01T17:40:50.000Z</time>
      </trkpt>
      <trkpt lat="43.40867" lon="3.70489">
        <ele>58</ele>
        <time>2021-07-01T17:40:53.000Z</time>
      </trkpt>
      <trkpt lat="43.40875" lon="3.70495">
        <ele>59</ele>
        <time>2021-07-01T17:40:55.000Z</time>
      </trkpt>
      <trkpt lat="43.40886" lon="3.70504">
        <ele>58</ele>
        <time>2021-07-01T17:40:58.000Z</time>
      </trkpt>
      <trkpt lat="43.4089" lon="3.70517">
        <ele>57</ele>
        <time>2021-07-01T17:41:01.000Z</time>
      </trkpt>
      <trkpt lat="43.40898" lon="3.70529">
        <ele>57</ele>
        <time>2021-07-01T17:41:05.000Z</time>
      </trkpt>
      <trkpt lat="43.40907" lon="3.70532">
        <ele>56</ele>
        <time>2021-07-01T17:41:08.000Z</time>
      </trkpt>
      <trkpt lat="43.4092" lon="3.70537">
        <ele>56</ele>
        <time>2021-07-01T17:41:11.000Z</time>
      </trkpt>
      <trkpt lat="43.40927" lon="3.70546">
        <ele>55</ele>
        <time>2021-07-01T17:41:13.000Z</time>
      </trkpt>
      <trkpt lat="43.40938" lon="3.70567">
        <ele>53</ele>
        <time>2021-07-01T17:41:17.000Z</time>
      </trkpt>
      <trkpt lat="43.40944" lon="3.70578">
        <ele>53</ele>
        <time>2021-07-01T17:41:19.000Z</time>
      </trkpt>
      <trkpt lat="43.40949" lon="3.70591">
        <ele>53</ele>
        <time>2021-07-01T17:41:21.000Z</time>
      </trkpt>
      <trkpt lat="43.40954" lon="3.70603">
        <ele>53</ele>
        <time>2021-07-01T17:41:23.000Z</time>
      </trkpt>
      <trkpt lat="43.40961" lon="3.70616">
        <ele>52</ele>
        <time>2021-07-01T17:41:25.000Z</time>
      </trkpt>
      <trkpt lat="43.40966" lon="3.70629">
        <ele>52</ele>
        <time>2021-07-01T17:41:27.000Z</time>
      </trkpt>
      <trkpt lat="43.40971" lon="3.70642">
        <ele>51</ele>
        <time>2021-07-01T17:41:29.000Z</time>
      </trkpt>
      <trkpt lat="43.40977" lon="3.70655">
        <ele>51</ele>
        <time>2021-07-01T17:41:31.000Z</time>
      </trkpt>
      <trkpt lat="43.40983" lon="3.70668">
        <ele>51</ele>
        <time>2021-07-01T17:41:33.000Z</time>
      </trkpt>
      <trkpt lat="43.4099" lon="3.70681">
        <ele>51</ele>
        <time>2021-07-01T17:41:35.000Z</time>
      </trkpt>
      <trkpt lat="43.40996" lon="3.70694">
        <ele>51</ele>
        <time>2021-07-01T17:41:37.000Z</time>
      </trkpt>
      <trkpt lat="43.41002" lon="3.70707">
        <ele>51</ele>
        <time>2021-07-01T17:41:39.000Z</time>
      </trkpt>
      <trkpt lat="43.41011" lon="3.70729">
        <ele>49</ele>
        <time>2021-07-01T17:41:42.000Z</time>
      </trkpt>
      <trkpt lat="43.41017" lon="3.70742">
        <ele>49</ele>
        <time>2021-07-01T17:41:44.000Z</time>
      </trkpt>
      <trkpt lat="43.41023" lon="3.70755">
        <ele>50</ele>
        <time>2021-07-01T17:41:46.000Z</time>
      </trkpt>
      <trkpt lat="43.41029" lon="3.70768">
        <ele>50</ele>
        <time>2021-07-01T17:41:48.000Z</time>
      </trkpt>
      <trkpt lat="43.41036" lon="3.70781">
        <ele>49</ele>
        <time>2021-07-01T17:41:50.000Z</time>
      </trkpt>
      <trkpt lat="43.41041" lon="3.70796">
        <ele>48</ele>
        <time>2021-07-01T17:41:52.000Z</time>
      </trkpt>
      <trkpt lat="43.41047" lon="3.7081">
        <ele>49</ele>
        <time>2021-07-01T17:41:54.000Z</time>
      </trkpt>
      <trkpt lat="43.41054" lon="3.70824">
        <ele>49</ele>
        <time>2021-07-01T17:41:56.000Z</time>
      </trkpt>
      <trkpt lat="43.4106" lon="3.70838">
        <ele>48</ele>
        <time>2021-07-01T17:41:58.000Z</time>
      </trkpt>
      <trkpt lat="43.41067" lon="3.70852">
        <ele>48</ele>
        <time>2021-07-01T17:42:00.000Z</time>
      </trkpt>
      <trkpt lat="43.41073" lon="3.70866">
        <ele>48</ele>
        <time>2021-07-01T17:42:02.000Z</time>
      </trkpt>
      <trkpt lat="43.4108" lon="3.7088">
        <ele>49</ele>
        <time>2021-07-01T17:42:04.000Z</time>
      </trkpt>
      <trkpt lat="43.41087" lon="3.70894">
        <ele>49</ele>
        <time>2021-07-01T17:42:06.000Z</time>
      </trkpt>
      <trkpt lat="43.41093" lon="3.70909">
        <ele>49</ele>
        <time>2021-07-01T17:42:08.000Z</time>
      </trkpt>
      <trkpt lat="43.41099" lon="3.70923">
        <ele>49</ele>
        <time>2021-07-01T17:42:10.000Z</time>
      </trkpt>
      <trkpt lat="43.41105" lon="3.70937">
        <ele>49</ele>
        <time>2021-07-01T17:42:12.000Z</time>
      </trkpt>
      <trkpt lat="43.41116" lon="3.70958">
        <ele>49</ele>
        <time>2021-07-01T17:42:15.000Z</time>
      </trkpt>
      <trkpt lat="43.41122" lon="3.70974">
        <ele>48</ele>
        <time>2021-07-01T17:42:17.000Z</time>
      </trkpt>
      <trkpt lat="43.41127" lon="3.70988">
        <ele>48</ele>
        <time>2021-07-01T17:42:19.000Z</time>
      </trkpt>
      <trkpt lat="43.41133" lon="3.71001">
        <ele>50</ele>
        <time>2021-07-01T17:42:21.000Z</time>
      </trkpt>
      <trkpt lat="43.41139" lon="3.71012">
        <ele>51</ele>
        <time>2021-07-01T17:42:23.000Z</time>
      </trkpt>
      <trkpt lat="43.41144" lon="3.71025">
        <ele>51</ele>
        <time>2021-07-01T17:42:25.000Z</time>
      </trkpt>
      <trkpt lat="43.41151" lon="3.71037">
        <ele>50</ele>
        <time>2021-07-01T17:42:27.000Z</time>
      </trkpt>
      <trkpt lat="43.41157" lon="3.71049">
        <ele>50</ele>
        <time>2021-07-01T17:42:29.000Z</time>
      </trkpt>
      <trkpt lat="43.41167" lon="3.71069">
        <ele>50</ele>
        <time>2021-07-01T17:42:32.000Z</time>
      </trkpt>
      <trkpt lat="43.41173" lon="3.71082">
        <ele>50</ele>
        <time>2021-07-01T17:42:34.000Z</time>
      </trkpt>
      <trkpt lat="43.41178" lon="3.71095">
        <ele>50</ele>
        <time>2021-07-01T17:42:36.000Z</time>
      </trkpt>
      <trkpt lat="43.41184" lon="3.71108">
        <ele>50</ele>
        <time>2021-07-01T17:42:38.000Z</time>
      </trkpt>
      <trkpt lat="43.41191" lon="3.71122">
        <ele>50</ele>
        <time>2021-07-01T17:42:40.000Z</time>
      </trkpt>
      <trkpt lat="43.41196" lon="3.71135">
        <ele>50</ele>
        <time>2021-07-01T17:42:42.000Z</time>
      </trkpt>
      <trkpt lat="43.41203" lon="3.71148">
        <ele>50</ele>
        <time>2021-07-01T17:42:44.000Z</time>
      </trkpt>
      <trkpt lat="43.41208" lon="3.71163">
        <ele>49</ele>
        <time>2021-07-01T17:42:46.000Z</time>
      </trkpt>
      <trkpt lat="43.41213" lon="3.71176">
        <ele>50</ele>
        <time>2021-07-01T17:42:48.000Z</time>
      </trkpt>
      <trkpt lat="43.41217" lon="3.7119">
        <ele>50</ele>
        <time>2021-07-01T17:42:50.000Z</time>
      </trkpt>
      <trkpt lat="43.41223" lon="3.71203">
        <ele>50</ele>
        <time>2021-07-01T17:42:52.000Z</time>
      </trkpt>
      <trkpt lat="43.41231" lon="3.71213">
        <ele>50</ele>
        <time>2021-07-01T17:42:54.000Z</time>
      </trkpt>
      <trkpt lat="43.41238" lon="3.71225">
        <ele>50</ele>
        <time>2021-07-01T17:42:56.000Z</time>
      </trkpt>
      <trkpt lat="43.41244" lon="3.71239">
        <ele>51</ele>
        <time>2021-07-01T17:42:58.000Z</time>
      </trkpt>
      <trkpt lat="43.41251" lon="3.71253">
        <ele>50</ele>
        <time>2021-07-01T17:43:00.000Z</time>
      </trkpt>
      <trkpt lat="43.41255" lon="3.71268">
        <ele>50</ele>
        <time>2021-07-01T17:43:02.000Z</time>
      </trkpt>
      <trkpt lat="43.41261" lon="3.71282">
        <ele>51</ele>
        <time>2021-07-01T17:43:04.000Z</time>
      </trkpt>
      <trkpt lat="43.4127" lon="3.71302">
        <ele>51</ele>
        <time>2021-07-01T17:43:07.000Z</time>
      </trkpt>
      <trkpt lat="43.41277" lon="3.71315">
        <ele>49</ele>
        <time>2021-07-01T17:43:09.000Z</time>
      </trkpt>
      <trkpt lat="43.41285" lon="3.71329">
        <ele>49</ele>
        <time>2021-07-01T17:43:11.000Z</time>
      </trkpt>
      <trkpt lat="43.41292" lon="3.71343">
        <ele>50</ele>
        <time>2021-07-01T17:43:13.000Z</time>
      </trkpt>
      <trkpt lat="43.41302" lon="3.71365">
        <ele>48</ele>
        <time>2021-07-01T17:43:16.000Z</time>
      </trkpt>
      <trkpt lat="43.41308" lon="3.71379">
        <ele>47</ele>
        <time>2021-07-01T17:43:18.000Z</time>
      </trkpt>
      <trkpt lat="43.41315" lon="3.71394">
        <ele>48</ele>
        <time>2021-07-01T17:43:20.000Z</time>
      </trkpt>
      <trkpt lat="43.41322" lon="3.71408">
        <ele>48</ele>
        <time>2021-07-01T17:43:22.000Z</time>
      </trkpt>
      <trkpt lat="43.41329" lon="3.71422">
        <ele>48</ele>
        <time>2021-07-01T17:43:24.000Z</time>
      </trkpt>
      <trkpt lat="43.41336" lon="3.71437">
        <ele>48</ele>
        <time>2021-07-01T17:43:26.000Z</time>
      </trkpt>
      <trkpt lat="43.41341" lon="3.71452">
        <ele>48</ele>
        <time>2021-07-01T17:43:28.000Z</time>
      </trkpt>
      <trkpt lat="43.41349" lon="3.71467">
        <ele>48</ele>
        <time>2021-07-01T17:43:30.000Z</time>
      </trkpt>
      <trkpt lat="43.41356" lon="3.7148">
        <ele>50</ele>
        <time>2021-07-01T17:43:32.000Z</time>
      </trkpt>
      <trkpt lat="43.41363" lon="3.71495">
        <ele>50</ele>
        <time>2021-07-01T17:43:34.000Z</time>
      </trkpt>
      <trkpt lat="43.4137" lon="3.7151">
        <ele>49</ele>
        <time>2021-07-01T17:43:36.000Z</time>
      </trkpt>
      <trkpt lat="43.41377" lon="3.71524">
        <ele>50</ele>
        <time>2021-07-01T17:43:38.000Z</time>
      </trkpt>
      <trkpt lat="43.41384" lon="3.71539">
        <ele>50</ele>
        <time>2021-07-01T17:43:40.000Z</time>
      </trkpt>
      <trkpt lat="43.4139" lon="3.71554">
        <ele>50</ele>
        <time>2021-07-01T17:43:42.000Z</time>
      </trkpt>
      <trkpt lat="43.41397" lon="3.71569">
        <ele>50</ele>
        <time>2021-07-01T17:43:44.000Z</time>
      </trkpt>
      <trkpt lat="43.41403" lon="3.71584">
        <ele>50</ele>
        <time>2021-07-01T17:43:46.000Z</time>
      </trkpt>
      <trkpt lat="43.4141" lon="3.71598">
        <ele>50</ele>
        <time>2021-07-01T17:43:48.000Z</time>
      </trkpt>
      <trkpt lat="43.4142" lon="3.7162">
        <ele>50</ele>
        <time>2021-07-01T17:43:51.000Z</time>
      </trkpt>
      <trkpt lat="43.41426" lon="3.71634">
        <ele>50</ele>
        <time>2021-07-01T17:43:53.000Z</time>
      </trkpt>
      <trkpt lat="43.41431" lon="3.71647">
        <ele>50</ele>
        <time>2021-07-01T17:43:55.000Z</time>
      </trkpt>
      <trkpt lat="43.41436" lon="3.71661">
        <ele>50</ele>
        <time>2021-07-01T17:43:57.000Z</time>
      </trkpt>
      <trkpt lat="43.4144" lon="3.71675">
        <ele>50</ele>
        <time>2021-07-01T17:44:00.000Z</time>
      </trkpt>
      <trkpt lat="43.41439" lon="3.71687">
        <ele>47</ele>
        <time>2021-07-01T17:44:18.000Z</time>
      </trkpt>
      <trkpt lat="43.41437" lon="3.717">
        <ele>44</ele>
        <time>2021-07-01T17:45:22.000Z</time>
      </trkpt>
      <trkpt lat="43.41436" lon="3.71713">
        <ele>45</ele>
        <time>2021-07-01T17:45:27.000Z</time>
      </trkpt>
      <trkpt lat="43.41447" lon="3.71714">
        <ele>47</ele>
        <time>2021-07-01T17:45:31.000Z</time>
      </trkpt>
      <trkpt lat="43.41457" lon="3.71721">
        <ele>49</ele>
        <time>2021-07-01T17:45:34.000Z</time>
      </trkpt>
      <trkpt lat="43.41465" lon="3.71735">
        <ele>50</ele>
        <time>2021-07-01T17:45:37.000Z</time>
      </trkpt>
      <trkpt lat="43.41472" lon="3.71744">
        <ele>50</ele>
        <time>2021-07-01T17:45:39.000Z</time>
      </trkpt>
      <trkpt lat="43.4148" lon="3.7176">
        <ele>48</ele>
        <time>2021-07-01T17:45:42.000Z</time>
      </trkpt>
      <trkpt lat="43.41487" lon="3.7177">
        <ele>50</ele>
        <time>2021-07-01T17:45:44.000Z</time>
      </trkpt>
      <trkpt lat="43.41492" lon="3.7178">
        <ele>51</ele>
        <time>2021-07-01T17:45:46.000Z</time>
      </trkpt>
      <trkpt lat="43.41498" lon="3.71791">
        <ele>51</ele>
        <time>2021-07-01T17:45:48.000Z</time>
      </trkpt>
      <trkpt lat="43.41503" lon="3.71802">
        <ele>51</ele>
        <time>2021-07-01T17:45:50.000Z</time>
      </trkpt>
      <trkpt lat="43.41509" lon="3.71815">
        <ele>50</ele>
        <time>2021-07-01T17:45:52.000Z</time>
      </trkpt>
      <trkpt lat="43.41514" lon="3.71827">
        <ele>49</ele>
        <time>2021-07-01T17:45:54.000Z</time>
      </trkpt>
      <trkpt lat="43.41519" lon="3.71838">
        <ele>49</ele>
        <time>2021-07-01T17:45:56.000Z</time>
      </trkpt>
      <trkpt lat="43.41525" lon="3.7185">
        <ele>49</ele>
        <time>2021-07-01T17:45:58.000Z</time>
      </trkpt>
      <trkpt lat="43.41533" lon="3.71867">
        <ele>47</ele>
        <time>2021-07-01T17:46:01.000Z</time>
      </trkpt>
      <trkpt lat="43.41539" lon="3.71879">
        <ele>47</ele>
        <time>2021-07-01T17:46:03.000Z</time>
      </trkpt>
      <trkpt lat="43.41544" lon="3.71891">
        <ele>47</ele>
        <time>2021-07-01T17:46:05.000Z</time>
      </trkpt>
      <trkpt lat="43.41552" lon="3.7191">
        <ele>48</ele>
        <time>2021-07-01T17:46:08.000Z</time>
      </trkpt>
      <trkpt lat="43.41557" lon="3.71922">
        <ele>48</ele>
        <time>2021-07-01T17:46:10.000Z</time>
      </trkpt>
      <trkpt lat="43.41562" lon="3.71934">
        <ele>48</ele>
        <time>2021-07-01T17:46:12.000Z</time>
      </trkpt>
      <trkpt lat="43.41568" lon="3.71946">
        <ele>48</ele>
        <time>2021-07-01T17:46:14.000Z</time>
      </trkpt>
      <trkpt lat="43.41574" lon="3.71958">
        <ele>49</ele>
        <time>2021-07-01T17:46:16.000Z</time>
      </trkpt>
      <trkpt lat="43.4158" lon="3.71971">
        <ele>49</ele>
        <time>2021-07-01T17:46:18.000Z</time>
      </trkpt>
      <trkpt lat="43.41586" lon="3.71983">
        <ele>49</ele>
        <time>2021-07-01T17:46:20.000Z</time>
      </trkpt>
      <trkpt lat="43.41591" lon="3.71995">
        <ele>49</ele>
        <time>2021-07-01T17:46:22.000Z</time>
      </trkpt>
      <trkpt lat="43.416" lon="3.72014">
        <ele>47</ele>
        <time>2021-07-01T17:46:25.000Z</time>
      </trkpt>
      <trkpt lat="43.41607" lon="3.72025">
        <ele>46</ele>
        <time>2021-07-01T17:46:27.000Z</time>
      </trkpt>
      <trkpt lat="43.41612" lon="3.72036">
        <ele>47</ele>
        <time>2021-07-01T17:46:29.000Z</time>
      </trkpt>
      <trkpt lat="43.41617" lon="3.7205">
        <ele>48</ele>
        <time>2021-07-01T17:46:31.000Z</time>
      </trkpt>
      <trkpt lat="43.41622" lon="3.72062">
        <ele>47</ele>
        <time>2021-07-01T17:46:33.000Z</time>
      </trkpt>
      <trkpt lat="43.41628" lon="3.72074">
        <ele>48</ele>
        <time>2021-07-01T17:46:35.000Z</time>
      </trkpt>
      <trkpt lat="43.41633" lon="3.72086">
        <ele>48</ele>
        <time>2021-07-01T17:46:37.000Z</time>
      </trkpt>
      <trkpt lat="43.41638" lon="3.72098">
        <ele>48</ele>
        <time>2021-07-01T17:46:39.000Z</time>
      </trkpt>
      <trkpt lat="43.41647" lon="3.72118">
        <ele>48</ele>
        <time>2021-07-01T17:46:42.000Z</time>
      </trkpt>
      <trkpt lat="43.41652" lon="3.7213">
        <ele>49</ele>
        <time>2021-07-01T17:46:44.000Z</time>
      </trkpt>
      <trkpt lat="43.41658" lon="3.72142">
        <ele>49</ele>
        <time>2021-07-01T17:46:46.000Z</time>
      </trkpt>
      <trkpt lat="43.41664" lon="3.72155">
        <ele>49</ele>
        <time>2021-07-01T17:46:48.000Z</time>
      </trkpt>
      <trkpt lat="43.41671" lon="3.72168">
        <ele>50</ele>
        <time>2021-07-01T17:46:50.000Z</time>
      </trkpt>
      <trkpt lat="43.41677" lon="3.72181">
        <ele>49</ele>
        <time>2021-07-01T17:46:52.000Z</time>
      </trkpt>
      <trkpt lat="43.41683" lon="3.72194">
        <ele>49</ele>
        <time>2021-07-01T17:46:54.000Z</time>
      </trkpt>
      <trkpt lat="43.41688" lon="3.72208">
        <ele>48</ele>
        <time>2021-07-01T17:46:56.000Z</time>
      </trkpt>
      <trkpt lat="43.41694" lon="3.72222">
        <ele>48</ele>
        <time>2021-07-01T17:46:58.000Z</time>
      </trkpt>
      <trkpt lat="43.417" lon="3.72233">
        <ele>48</ele>
        <time>2021-07-01T17:47:00.000Z</time>
      </trkpt>
      <trkpt lat="43.41705" lon="3.72245">
        <ele>48</ele>
        <time>2021-07-01T17:47:02.000Z</time>
      </trkpt>
      <trkpt lat="43.4171" lon="3.72257">
        <ele>49</ele>
        <time>2021-07-01T17:47:04.000Z</time>
      </trkpt>
      <trkpt lat="43.41715" lon="3.72268">
        <ele>50</ele>
        <time>2021-07-01T17:47:06.000Z</time>
      </trkpt>
      <trkpt lat="43.4172" lon="3.72279">
        <ele>51</ele>
        <time>2021-07-01T17:47:08.000Z</time>
      </trkpt>
      <trkpt lat="43.41726" lon="3.72294">
        <ele>52</ele>
        <time>2021-07-01T17:47:11.000Z</time>
      </trkpt>
      <trkpt lat="43.41731" lon="3.7231">
        <ele>53</ele>
        <time>2021-07-01T17:47:14.000Z</time>
      </trkpt>
      <trkpt lat="43.41733" lon="3.72326">
        <ele>53</ele>
        <time>2021-07-01T17:47:17.000Z</time>
      </trkpt>
      <trkpt lat="43.41734" lon="3.72343">
        <ele>54</ele>
        <time>2021-07-01T17:47:20.000Z</time>
      </trkpt>
      <trkpt lat="43.41733" lon="3.7236">
        <ele>54</ele>
        <time>2021-07-01T17:47:23.000Z</time>
      </trkpt>
      <trkpt lat="43.4173" lon="3.72376">
        <ele>54</ele>
        <time>2021-07-01T17:47:26.000Z</time>
      </trkpt>
      <trkpt lat="43.41727" lon="3.72391">
        <ele>54</ele>
        <time>2021-07-01T17:47:29.000Z</time>
      </trkpt>
      <trkpt lat="43.4172" lon="3.72404">
        <ele>55</ele>
        <time>2021-07-01T17:47:32.000Z</time>
      </trkpt>
      <trkpt lat="43.41709" lon="3.72414">
        <ele>55</ele>
        <time>2021-07-01T17:47:35.000Z</time>
      </trkpt>
      <trkpt lat="43.41698" lon="3.7242">
        <ele>55</ele>
        <time>2021-07-01T17:47:38.000Z</time>
      </trkpt>
      <trkpt lat="43.41686" lon="3.72425">
        <ele>54</ele>
        <time>2021-07-01T17:47:41.000Z</time>
      </trkpt>
      <trkpt lat="43.41673" lon="3.7243">
        <ele>54</ele>
        <time>2021-07-01T17:47:44.000Z</time>
      </trkpt>
      <trkpt lat="43.41664" lon="3.72436">
        <ele>54</ele>
        <time>2021-07-01T17:47:46.000Z</time>
      </trkpt>
      <trkpt lat="43.41655" lon="3.72444">
        <ele>54</ele>
        <time>2021-07-01T17:47:48.000Z</time>
      </trkpt>
      <trkpt lat="43.41644" lon="3.72462">
        <ele>53</ele>
        <time>2021-07-01T17:47:51.000Z</time>
      </trkpt>
      <trkpt lat="43.4164" lon="3.72475">
        <ele>53</ele>
        <time>2021-07-01T17:47:53.000Z</time>
      </trkpt>
      <trkpt lat="43.41639" lon="3.7249">
        <ele>53</ele>
        <time>2021-07-01T17:47:55.000Z</time>
      </trkpt>
      <trkpt lat="43.41641" lon="3.72506">
        <ele>54</ele>
        <time>2021-07-01T17:47:57.000Z</time>
      </trkpt>
      <trkpt lat="43.41645" lon="3.7252">
        <ele>54</ele>
        <time>2021-07-01T17:47:59.000Z</time>
      </trkpt>
      <trkpt lat="43.41653" lon="3.72537">
        <ele>54</ele>
        <time>2021-07-01T17:48:02.000Z</time>
      </trkpt>
      <trkpt lat="43.41663" lon="3.72544">
        <ele>57</ele>
        <time>2021-07-01T17:48:04.000Z</time>
      </trkpt>
      <trkpt lat="43.41674" lon="3.72547">
        <ele>58</ele>
        <time>2021-07-01T17:48:06.000Z</time>
      </trkpt>
      <trkpt lat="43.41692" lon="3.72547">
        <ele>57</ele>
        <time>2021-07-01T17:48:09.000Z</time>
      </trkpt>
      <trkpt lat="43.41702" lon="3.72543">
        <ele>58</ele>
        <time>2021-07-01T17:48:11.000Z</time>
      </trkpt>
      <trkpt lat="43.41712" lon="3.72536">
        <ele>59</ele>
        <time>2021-07-01T17:48:13.000Z</time>
      </trkpt>
      <trkpt lat="43.41721" lon="3.72528">
        <ele>59</ele>
        <time>2021-07-01T17:48:15.000Z</time>
      </trkpt>
      <trkpt lat="43.41735" lon="3.72515">
        <ele>59</ele>
        <time>2021-07-01T17:48:18.000Z</time>
      </trkpt>
      <trkpt lat="43.41744" lon="3.72507">
        <ele>60</ele>
        <time>2021-07-01T17:48:20.000Z</time>
      </trkpt>
      <trkpt lat="43.41753" lon="3.72499">
        <ele>61</ele>
        <time>2021-07-01T17:48:22.000Z</time>
      </trkpt>
      <trkpt lat="43.41762" lon="3.72491">
        <ele>61</ele>
        <time>2021-07-01T17:48:24.000Z</time>
      </trkpt>
      <trkpt lat="43.41779" lon="3.72483">
        <ele>59</ele>
        <time>2021-07-01T17:48:27.000Z</time>
      </trkpt>
      <trkpt lat="43.4179" lon="3.72482">
        <ele>58</ele>
        <time>2021-07-01T17:48:29.000Z</time>
      </trkpt>
      <trkpt lat="43.41801" lon="3.72486">
        <ele>59</ele>
        <time>2021-07-01T17:48:31.000Z</time>
      </trkpt>
      <trkpt lat="43.41814" lon="3.72491">
        <ele>59</ele>
        <time>2021-07-01T17:48:33.000Z</time>
      </trkpt>
      <trkpt lat="43.41825" lon="3.72494">
        <ele>57</ele>
        <time>2021-07-01T17:48:35.000Z</time>
      </trkpt>
      <trkpt lat="43.41835" lon="3.72497">
        <ele>58</ele>
        <time>2021-07-01T17:48:37.000Z</time>
      </trkpt>
      <trkpt lat="43.41852" lon="3.72497">
        <ele>59</ele>
        <time>2021-07-01T17:48:40.000Z</time>
      </trkpt>
      <trkpt lat="43.41862" lon="3.72496">
        <ele>59</ele>
        <time>2021-07-01T17:48:42.000Z</time>
      </trkpt>
      <trkpt lat="43.41873" lon="3.72493">
        <ele>59</ele>
        <time>2021-07-01T17:48:44.000Z</time>
      </trkpt>
      <trkpt lat="43.41884" lon="3.7249">
        <ele>59</ele>
        <time>2021-07-01T17:48:46.000Z</time>
      </trkpt>
      <trkpt lat="43.41896" lon="3.72486">
        <ele>59</ele>
        <time>2021-07-01T17:48:48.000Z</time>
      </trkpt>
      <trkpt lat="43.41908" lon="3.72482">
        <ele>59</ele>
        <time>2021-07-01T17:48:50.000Z</time>
      </trkpt>
      <trkpt lat="43.41922" lon="3.72478">
        <ele>57</ele>
        <time>2021-07-01T17:48:52.000Z</time>
      </trkpt>
      <trkpt lat="43.41935" lon="3.72474">
        <ele>57</ele>
        <time>2021-07-01T17:48:54.000Z</time>
      </trkpt>
      <trkpt lat="43.41949" lon="3.72469">
        <ele>57</ele>
        <time>2021-07-01T17:48:56.000Z</time>
      </trkpt>
      <trkpt lat="43.41962" lon="3.72465">
        <ele>57</ele>
        <time>2021-07-01T17:48:58.000Z</time>
      </trkpt>
      <trkpt lat="43.41975" lon="3.72462">
        <ele>54</ele>
        <time>2021-07-01T17:49:00.000Z</time>
      </trkpt>
      <trkpt lat="43.41988" lon="3.72458">
        <ele>54</ele>
        <time>2021-07-01T17:49:02.000Z</time>
      </trkpt>
      <trkpt lat="43.42002" lon="3.72452">
        <ele>55</ele>
        <time>2021-07-01T17:49:04.000Z</time>
      </trkpt>
      <trkpt lat="43.42015" lon="3.72446">
        <ele>55</ele>
        <time>2021-07-01T17:49:06.000Z</time>
      </trkpt>
      <trkpt lat="43.42029" lon="3.72441">
        <ele>54</ele>
        <time>2021-07-01T17:49:08.000Z</time>
      </trkpt>
      <trkpt lat="43.42043" lon="3.72435">
        <ele>54</ele>
        <time>2021-07-01T17:49:10.000Z</time>
      </trkpt>
      <trkpt lat="43.42055" lon="3.7243">
        <ele>54</ele>
        <time>2021-07-01T17:49:12.000Z</time>
      </trkpt>
      <trkpt lat="43.42068" lon="3.72425">
        <ele>55</ele>
        <time>2021-07-01T17:49:14.000Z</time>
      </trkpt>
      <trkpt lat="43.42081" lon="3.72421">
        <ele>55</ele>
        <time>2021-07-01T17:49:16.000Z</time>
      </trkpt>
      <trkpt lat="43.42094" lon="3.72415">
        <ele>55</ele>
        <time>2021-07-01T17:49:18.000Z</time>
      </trkpt>
      <trkpt lat="43.42106" lon="3.7241">
        <ele>55</ele>
        <time>2021-07-01T17:49:20.000Z</time>
      </trkpt>
      <trkpt lat="43.42118" lon="3.72406">
        <ele>55</ele>
        <time>2021-07-01T17:49:22.000Z</time>
      </trkpt>
      <trkpt lat="43.42131" lon="3.72402">
        <ele>56</ele>
        <time>2021-07-01T17:49:24.000Z</time>
      </trkpt>
      <trkpt lat="43.42143" lon="3.72398">
        <ele>56</ele>
        <time>2021-07-01T17:49:26.000Z</time>
      </trkpt>
      <trkpt lat="43.42155" lon="3.72394">
        <ele>56</ele>
        <time>2021-07-01T17:49:28.000Z</time>
      </trkpt>
      <trkpt lat="43.42167" lon="3.7239">
        <ele>56</ele>
        <time>2021-07-01T17:49:30.000Z</time>
      </trkpt>
      <trkpt lat="43.42179" lon="3.72385">
        <ele>56</ele>
        <time>2021-07-01T17:49:32.000Z</time>
      </trkpt>
      <trkpt lat="43.4219" lon="3.72381">
        <ele>56</ele>
        <time>2021-07-01T17:49:34.000Z</time>
      </trkpt>
      <trkpt lat="43.42202" lon="3.72376">
        <ele>56</ele>
        <time>2021-07-01T17:49:36.000Z</time>
      </trkpt>
      <trkpt lat="43.42213" lon="3.72372">
        <ele>56</ele>
        <time>2021-07-01T17:49:38.000Z</time>
      </trkpt>
      <trkpt lat="43.42225" lon="3.72368">
        <ele>56</ele>
        <time>2021-07-01T17:49:40.000Z</time>
      </trkpt>
      <trkpt lat="43.42236" lon="3.72364">
        <ele>57</ele>
        <time>2021-07-01T17:49:42.000Z</time>
      </trkpt>
      <trkpt lat="43.42247" lon="3.7236">
        <ele>56</ele>
        <time>2021-07-01T17:49:44.000Z</time>
      </trkpt>
      <trkpt lat="43.42258" lon="3.72355">
        <ele>55</ele>
        <time>2021-07-01T17:49:46.000Z</time>
      </trkpt>
      <trkpt lat="43.42269" lon="3.72351">
        <ele>56</ele>
        <time>2021-07-01T17:49:48.000Z</time>
      </trkpt>
      <trkpt lat="43.4228" lon="3.72347">
        <ele>56</ele>
        <time>2021-07-01T17:49:50.000Z</time>
      </trkpt>
      <trkpt lat="43.42291" lon="3.72343">
        <ele>57</ele>
        <time>2021-07-01T17:49:52.000Z</time>
      </trkpt>
      <trkpt lat="43.42301" lon="3.72339">
        <ele>57</ele>
        <time>2021-07-01T17:49:54.000Z</time>
      </trkpt>
      <trkpt lat="43.42311" lon="3.72335">
        <ele>58</ele>
        <time>2021-07-01T17:49:56.000Z</time>
      </trkpt>
      <trkpt lat="43.42321" lon="3.72332">
        <ele>57</ele>
        <time>2021-07-01T17:49:58.000Z</time>
      </trkpt>
      <trkpt lat="43.42331" lon="3.72335">
        <ele>55</ele>
        <time>2021-07-01T17:50:00.000Z</time>
      </trkpt>
      <trkpt lat="43.4234" lon="3.72341">
        <ele>55</ele>
        <time>2021-07-01T17:50:02.000Z</time>
      </trkpt>
      <trkpt lat="43.4235" lon="3.72345">
        <ele>55</ele>
        <time>2021-07-01T17:50:04.000Z</time>
      </trkpt>
      <trkpt lat="43.42359" lon="3.72351">
        <ele>55</ele>
        <time>2021-07-01T17:50:06.000Z</time>
      </trkpt>
      <trkpt lat="43.42369" lon="3.72357">
        <ele>55</ele>
        <time>2021-07-01T17:50:08.000Z</time>
      </trkpt>
      <trkpt lat="43.42378" lon="3.72365">
        <ele>55</ele>
        <time>2021-07-01T17:50:10.000Z</time>
      </trkpt>
      <trkpt lat="43.42387" lon="3.7237">
        <ele>54</ele>
        <time>2021-07-01T17:50:12.000Z</time>
      </trkpt>
      <trkpt lat="43.42396" lon="3.72375">
        <ele>54</ele>
        <time>2021-07-01T17:50:14.000Z</time>
      </trkpt>
      <trkpt lat="43.42405" lon="3.72383">
        <ele>55</ele>
        <time>2021-07-01T17:50:16.000Z</time>
      </trkpt>
      <trkpt lat="43.42413" lon="3.72394">
        <ele>54</ele>
        <time>2021-07-01T17:50:18.000Z</time>
      </trkpt>
      <trkpt lat="43.4242" lon="3.72406">
        <ele>54</ele>
        <time>2021-07-01T17:50:20.000Z</time>
      </trkpt>
      <trkpt lat="43.42428" lon="3.72418">
        <ele>54</ele>
        <time>2021-07-01T17:50:22.000Z</time>
      </trkpt>
      <trkpt lat="43.42436" lon="3.72427">
        <ele>55</ele>
        <time>2021-07-01T17:50:24.000Z</time>
      </trkpt>
      <trkpt lat="43.42445" lon="3.72436">
        <ele>55</ele>
        <time>2021-07-01T17:50:26.000Z</time>
      </trkpt>
      <trkpt lat="43.42454" lon="3.72445">
        <ele>55</ele>
        <time>2021-07-01T17:50:28.000Z</time>
      </trkpt>
      <trkpt lat="43.42462" lon="3.72454">
        <ele>56</ele>
        <time>2021-07-01T17:50:30.000Z</time>
      </trkpt>
      <trkpt lat="43.42475" lon="3.72468">
        <ele>56</ele>
        <time>2021-07-01T17:50:33.000Z</time>
      </trkpt>
      <trkpt lat="43.42484" lon="3.72478">
        <ele>56</ele>
        <time>2021-07-01T17:50:35.000Z</time>
      </trkpt>
      <trkpt lat="43.42492" lon="3.72487">
        <ele>56</ele>
        <time>2021-07-01T17:50:37.000Z</time>
      </trkpt>
      <trkpt lat="43.42501" lon="3.72497">
        <ele>57</ele>
        <time>2021-07-01T17:50:39.000Z</time>
      </trkpt>
      <trkpt lat="43.42509" lon="3.72505">
        <ele>57</ele>
        <time>2021-07-01T17:50:41.000Z</time>
      </trkpt>
      <trkpt lat="43.42517" lon="3.72514">
        <ele>57</ele>
        <time>2021-07-01T17:50:43.000Z</time>
      </trkpt>
      <trkpt lat="43.42524" lon="3.72522">
        <ele>58</ele>
        <time>2021-07-01T17:50:45.000Z</time>
      </trkpt>
      <trkpt lat="43.4253" lon="3.72532">
        <ele>58</ele>
        <time>2021-07-01T17:50:48.000Z</time>
      </trkpt>
      <trkpt lat="43.42536" lon="3.72543">
        <ele>59</ele>
        <time>2021-07-01T17:50:54.000Z</time>
      </trkpt>
      <trkpt lat="43.42545" lon="3.72548">
        <ele>58</ele>
        <time>2021-07-01T17:51:29.000Z</time>
      </trkpt>
      <trkpt lat="43.42556" lon="3.72557">
        <ele>58</ele>
        <time>2021-07-01T17:51:35.000Z</time>
      </trkpt>
      <trkpt lat="43.42564" lon="3.72567">
        <ele>59</ele>
        <time>2021-07-01T17:51:39.000Z</time>
      </trkpt>
      <trkpt lat="43.42572" lon="3.72575">
        <ele>59</ele>
        <time>2021-07-01T17:51:42.000Z</time>
      </trkpt>
      <trkpt lat="43.4258" lon="3.72585">
        <ele>59</ele>
        <time>2021-07-01T17:51:45.000Z</time>
      </trkpt>
      <trkpt lat="43.42589" lon="3.72595">
        <ele>59</ele>
        <time>2021-07-01T17:51:48.000Z</time>
      </trkpt>
      <trkpt lat="43.42595" lon="3.72606">
        <ele>59</ele>
        <time>2021-07-01T17:51:51.000Z</time>
      </trkpt>
      <trkpt lat="43.42603" lon="3.72617">
        <ele>58</ele>
        <time>2021-07-01T17:51:54.000Z</time>
      </trkpt>
      <trkpt lat="43.42611" lon="3.72629">
        <ele>59</ele>
        <time>2021-07-01T17:51:57.000Z</time>
      </trkpt>
      <trkpt lat="43.4262" lon="3.72641">
        <ele>59</ele>
        <time>2021-07-01T17:52:00.000Z</time>
      </trkpt>
      <trkpt lat="43.4263" lon="3.72654">
        <ele>59</ele>
        <time>2021-07-01T17:52:03.000Z</time>
      </trkpt>
      <trkpt lat="43.4264" lon="3.72666">
        <ele>59</ele>
        <time>2021-07-01T17:52:06.000Z</time>
      </trkpt>
      <trkpt lat="43.42654" lon="3.7266">
        <ele>60</ele>
        <time>2021-07-01T17:52:10.000Z</time>
      </trkpt>
      <trkpt lat="43.42662" lon="3.72653">
        <ele>60</ele>
        <time>2021-07-01T17:52:13.000Z</time>
      </trkpt>
      <trkpt lat="43.42674" lon="3.72652">
        <ele>61</ele>
        <time>2021-07-01T17:52:17.000Z</time>
      </trkpt>
      <trkpt lat="43.42685" lon="3.72656">
        <ele>62</ele>
        <time>2021-07-01T17:52:20.000Z</time>
      </trkpt>
      <trkpt lat="43.42696" lon="3.72658">
        <ele>63</ele>
        <time>2021-07-01T17:52:23.000Z</time>
      </trkpt>
      <trkpt lat="43.42715" lon="3.72663">
        <ele>62</ele>
        <time>2021-07-01T17:52:27.000Z</time>
      </trkpt>
      <trkpt lat="43.42725" lon="3.72662">
        <ele>62</ele>
        <time>2021-07-01T17:52:29.000Z</time>
      </trkpt>
      <trkpt lat="43.42736" lon="3.72664">
        <ele>64</ele>
        <time>2021-07-01T17:52:32.000Z</time>
      </trkpt>
      <trkpt lat="43.42748" lon="3.72665">
        <ele>63</ele>
        <time>2021-07-01T17:52:35.000Z</time>
      </trkpt>
      <trkpt lat="43.4276" lon="3.72666">
        <ele>63</ele>
        <time>2021-07-01T17:52:38.000Z</time>
      </trkpt>
      <trkpt lat="43.42773" lon="3.72665">
        <ele>64</ele>
        <time>2021-07-01T17:52:42.000Z</time>
      </trkpt>
      <trkpt lat="43.42783" lon="3.72667">
        <ele>65</ele>
        <time>2021-07-01T17:52:46.000Z</time>
      </trkpt>
      <trkpt lat="43.42792" lon="3.72664">
        <ele>65</ele>
        <time>2021-07-01T17:52:51.000Z</time>
      </trkpt>
      <trkpt lat="43.42801" lon="3.72659">
        <ele>62</ele>
        <time>2021-07-01T17:53:25.000Z</time>
      </trkpt>
      <trkpt lat="43.42811" lon="3.72655">
        <ele>62</ele>
        <time>2021-07-01T17:53:31.000Z</time>
      </trkpt>
      <trkpt lat="43.42813" lon="3.72642">
        <ele>61</ele>
        <time>2021-07-01T17:53:39.000Z</time>
      </trkpt>
      <trkpt lat="43.42811" lon="3.72629">
        <ele>60</ele>
        <time>2021-07-01T17:53:46.000Z</time>
      </trkpt>
    </trkseg>
  </trk>
</gpx>